<?xml version="1.0" encoding="UTF-8" standalone="no" ?>
<gpx xmlns="http://www.topografix.com/GPX/1/1" xmlns:xsi="http://www.w3.org/2001/XMLSchema-instance" xsi:schemaLocation="http://www.topografix.com/GPX/1/1 http://www.topografix.com/GPX/1/1/gpx.xsd" version="1.1" creator="VisuGPX - https://www.visugpx.com">
  <metadata>
    <name>160518RobBenjamins</name>
    <desc><![CDATA[Belle sortie]]></desc>
  </metadata>
  <trk>
    <name><![CDATA[160518RobBenjamins]]></name>
    <trkseg>
      <trkpt lat="43.41582" lon="6.0704">
        <ele>202.60000610352</ele>
        <time>2016-05-18T12:02:34Z</time>
      </trkpt>
      <trkpt lat="43.41582" lon="6.0704">
        <ele>202.60000610352</ele>
        <time>2016-05-18T12:02:35Z</time>
      </trkpt>
      <trkpt lat="43.41582" lon="6.0704">
        <ele>202.60000610352</ele>
        <time>2016-05-18T12:02:37Z</time>
      </trkpt>
      <trkpt lat="43.41582" lon="6.07041">
        <ele>202.80000305176</ele>
        <time>2016-05-18T12:02:39Z</time>
      </trkpt>
      <trkpt lat="43.41582" lon="6.07041">
        <ele>202.80000305176</ele>
        <time>2016-05-18T12:02:41Z</time>
      </trkpt>
      <trkpt lat="43.41582" lon="6.07042">
        <ele>203</ele>
        <time>2016-05-18T12:02:43Z</time>
      </trkpt>
      <trkpt lat="43.41582" lon="6.07043">
        <ele>203</ele>
        <time>2016-05-18T12:02:44Z</time>
      </trkpt>
      <trkpt lat="43.41582" lon="6.07045">
        <ele>203</ele>
        <time>2016-05-18T12:02:45Z</time>
      </trkpt>
      <trkpt lat="43.41582" lon="6.07048">
        <ele>202.80000305176</ele>
        <time>2016-05-18T12:02:47Z</time>
      </trkpt>
      <trkpt lat="43.41582" lon="6.07054">
        <ele>202.60000610352</ele>
        <time>2016-05-18T12:02:49Z</time>
      </trkpt>
      <trkpt lat="43.41583" lon="6.07057">
        <ele>202.39999389648</ele>
        <time>2016-05-18T12:02:50Z</time>
      </trkpt>
      <trkpt lat="43.41583" lon="6.0706">
        <ele>202.60000610352</ele>
        <time>2016-05-18T12:02:51Z</time>
      </trkpt>
      <trkpt lat="43.41584" lon="6.07067">
        <ele>202.60000610352</ele>
        <time>2016-05-18T12:02:53Z</time>
      </trkpt>
      <trkpt lat="43.41584" lon="6.07076">
        <ele>202.80000305176</ele>
        <time>2016-05-18T12:02:55Z</time>
      </trkpt>
      <trkpt lat="43.41585" lon="6.07085">
        <ele>202.60000610352</ele>
        <time>2016-05-18T12:02:57Z</time>
      </trkpt>
      <trkpt lat="43.41586" lon="6.07095">
        <ele>202.60000610352</ele>
        <time>2016-05-18T12:02:59Z</time>
      </trkpt>
      <trkpt lat="43.41586" lon="6.07104">
        <ele>202.60000610352</ele>
        <time>2016-05-18T12:03:01Z</time>
      </trkpt>
      <trkpt lat="43.41584" lon="6.07109">
        <ele>202.39999389648</ele>
        <time>2016-05-18T12:03:03Z</time>
      </trkpt>
      <trkpt lat="43.4158" lon="6.07111">
        <ele>202.39999389648</ele>
        <time>2016-05-18T12:03:05Z</time>
      </trkpt>
      <trkpt lat="43.41574" lon="6.07112">
        <ele>202.39999389648</ele>
        <time>2016-05-18T12:03:07Z</time>
      </trkpt>
      <trkpt lat="43.41568" lon="6.07114">
        <ele>202.39999389648</ele>
        <time>2016-05-18T12:03:09Z</time>
      </trkpt>
      <trkpt lat="43.41561" lon="6.07116">
        <ele>202.39999389648</ele>
        <time>2016-05-18T12:03:11Z</time>
      </trkpt>
      <trkpt lat="43.41554" lon="6.07115">
        <ele>202.39999389648</ele>
        <time>2016-05-18T12:03:13Z</time>
      </trkpt>
      <trkpt lat="43.41551" lon="6.07113">
        <ele>202.60000610352</ele>
        <time>2016-05-18T12:03:14Z</time>
      </trkpt>
      <trkpt lat="43.41549" lon="6.0711">
        <ele>202.39999389648</ele>
        <time>2016-05-18T12:03:15Z</time>
      </trkpt>
      <trkpt lat="43.41548" lon="6.07101">
        <ele>202.19999694824</ele>
        <time>2016-05-18T12:03:17Z</time>
      </trkpt>
      <trkpt lat="43.41547" lon="6.07097">
        <ele>202</ele>
        <time>2016-05-18T12:03:18Z</time>
      </trkpt>
      <trkpt lat="43.41547" lon="6.07092">
        <ele>202</ele>
        <time>2016-05-18T12:03:19Z</time>
      </trkpt>
      <trkpt lat="43.41545" lon="6.07085">
        <ele>202.39999389648</ele>
        <time>2016-05-18T12:03:21Z</time>
      </trkpt>
      <trkpt lat="43.41544" lon="6.0708">
        <ele>202.60000610352</ele>
        <time>2016-05-18T12:03:23Z</time>
      </trkpt>
      <trkpt lat="43.4154" lon="6.07077">
        <ele>202.39999389648</ele>
        <time>2016-05-18T12:03:25Z</time>
      </trkpt>
      <trkpt lat="43.41535" lon="6.07077">
        <ele>202.19999694824</ele>
        <time>2016-05-18T12:03:27Z</time>
      </trkpt>
      <trkpt lat="43.41528" lon="6.07078">
        <ele>202</ele>
        <time>2016-05-18T12:03:29Z</time>
      </trkpt>
      <trkpt lat="43.41521" lon="6.07079">
        <ele>201.80000305176</ele>
        <time>2016-05-18T12:03:31Z</time>
      </trkpt>
      <trkpt lat="43.41513" lon="6.0708">
        <ele>201.60000610352</ele>
        <time>2016-05-18T12:03:33Z</time>
      </trkpt>
      <trkpt lat="43.41507" lon="6.07081">
        <ele>201.39999389648</ele>
        <time>2016-05-18T12:03:35Z</time>
      </trkpt>
      <trkpt lat="43.415" lon="6.07081">
        <ele>201.19999694824</ele>
        <time>2016-05-18T12:03:37Z</time>
      </trkpt>
      <trkpt lat="43.41493" lon="6.07077">
        <ele>201</ele>
        <time>2016-05-18T12:03:39Z</time>
      </trkpt>
      <trkpt lat="43.41489" lon="6.07075">
        <ele>201</ele>
        <time>2016-05-18T12:03:40Z</time>
      </trkpt>
      <trkpt lat="43.41485" lon="6.07073">
        <ele>200.80000305176</ele>
        <time>2016-05-18T12:03:41Z</time>
      </trkpt>
      <trkpt lat="43.41478" lon="6.07071">
        <ele>200.80000305176</ele>
        <time>2016-05-18T12:03:43Z</time>
      </trkpt>
      <trkpt lat="43.41476" lon="6.07071">
        <ele>200.80000305176</ele>
        <time>2016-05-18T12:03:44Z</time>
      </trkpt>
      <trkpt lat="43.41474" lon="6.07071">
        <ele>200.80000305176</ele>
        <time>2016-05-18T12:03:45Z</time>
      </trkpt>
      <trkpt lat="43.41472" lon="6.0707">
        <ele>200.60000610352</ele>
        <time>2016-05-18T12:03:46Z</time>
      </trkpt>
      <trkpt lat="43.41471" lon="6.07069">
        <ele>200.60000610352</ele>
        <time>2016-05-18T12:03:47Z</time>
      </trkpt>
      <trkpt lat="43.41468" lon="6.07067">
        <ele>200</ele>
        <time>2016-05-18T12:03:49Z</time>
      </trkpt>
      <trkpt lat="43.41468" lon="6.07067">
        <ele>199.80000305176</ele>
        <time>2016-05-18T12:03:50Z</time>
      </trkpt>
      <trkpt lat="43.41468" lon="6.07067">
        <ele>199.80000305176</ele>
        <time>2016-05-18T12:03:51Z</time>
      </trkpt>
      <trkpt lat="43.41467" lon="6.07067">
        <ele>199.60000610352</ele>
        <time>2016-05-18T12:03:53Z</time>
      </trkpt>
      <trkpt lat="43.41467" lon="6.07068">
        <ele>199.60000610352</ele>
        <time>2016-05-18T12:03:54Z</time>
      </trkpt>
      <trkpt lat="43.41467" lon="6.07067">
        <ele>199.80000305176</ele>
        <time>2016-05-18T12:03:57Z</time>
      </trkpt>
      <trkpt lat="43.41467" lon="6.07067">
        <ele>199.80000305176</ele>
        <time>2016-05-18T12:03:59Z</time>
      </trkpt>
      <trkpt lat="43.41467" lon="6.07068">
        <ele>199.80000305176</ele>
        <time>2016-05-18T12:04:01Z</time>
      </trkpt>
      <trkpt lat="43.41467" lon="6.07067">
        <ele>199.80000305176</ele>
        <time>2016-05-18T12:04:03Z</time>
      </trkpt>
      <trkpt lat="43.41467" lon="6.07067">
        <ele>200</ele>
        <time>2016-05-18T12:04:05Z</time>
      </trkpt>
      <trkpt lat="43.41467" lon="6.07067">
        <ele>200</ele>
        <time>2016-05-18T12:04:07Z</time>
      </trkpt>
      <trkpt lat="43.41467" lon="6.07067">
        <ele>200</ele>
        <time>2016-05-18T12:04:09Z</time>
      </trkpt>
      <trkpt lat="43.41467" lon="6.07067">
        <ele>200</ele>
        <time>2016-05-18T12:04:11Z</time>
      </trkpt>
      <trkpt lat="43.41467" lon="6.07067">
        <ele>200</ele>
        <time>2016-05-18T12:04:13Z</time>
      </trkpt>
      <trkpt lat="43.41467" lon="6.07067">
        <ele>200</ele>
        <time>2016-05-18T12:04:15Z</time>
      </trkpt>
      <trkpt lat="43.41467" lon="6.07067">
        <ele>200</ele>
        <time>2016-05-18T12:04:17Z</time>
      </trkpt>
      <trkpt lat="43.41467" lon="6.07067">
        <ele>200</ele>
        <time>2016-05-18T12:04:19Z</time>
      </trkpt>
      <trkpt lat="43.41467" lon="6.07067">
        <ele>199.80000305176</ele>
        <time>2016-05-18T12:04:21Z</time>
      </trkpt>
      <trkpt lat="43.41467" lon="6.07067">
        <ele>199.80000305176</ele>
        <time>2016-05-18T12:04:22Z</time>
      </trkpt>
      <trkpt lat="43.41467" lon="6.07067">
        <ele>200</ele>
        <time>2016-05-18T12:04:25Z</time>
      </trkpt>
      <trkpt lat="43.41467" lon="6.07067">
        <ele>200.19999694824</ele>
        <time>2016-05-18T12:04:27Z</time>
      </trkpt>
      <trkpt lat="43.41467" lon="6.07065">
        <ele>200</ele>
        <time>2016-05-18T12:04:29Z</time>
      </trkpt>
      <trkpt lat="43.41466" lon="6.07064">
        <ele>200</ele>
        <time>2016-05-18T12:04:30Z</time>
      </trkpt>
      <trkpt lat="43.41466" lon="6.07062">
        <ele>199.80000305176</ele>
        <time>2016-05-18T12:04:31Z</time>
      </trkpt>
      <trkpt lat="43.41468" lon="6.07058">
        <ele>199.80000305176</ele>
        <time>2016-05-18T12:04:33Z</time>
      </trkpt>
      <trkpt lat="43.41469" lon="6.07056">
        <ele>199.80000305176</ele>
        <time>2016-05-18T12:04:34Z</time>
      </trkpt>
      <trkpt lat="43.4147" lon="6.07053">
        <ele>199.80000305176</ele>
        <time>2016-05-18T12:04:35Z</time>
      </trkpt>
      <trkpt lat="43.41474" lon="6.07045">
        <ele>200</ele>
        <time>2016-05-18T12:04:37Z</time>
      </trkpt>
      <trkpt lat="43.41478" lon="6.07036">
        <ele>200.39999389648</ele>
        <time>2016-05-18T12:04:39Z</time>
      </trkpt>
      <trkpt lat="43.41482" lon="6.07026">
        <ele>200.60000610352</ele>
        <time>2016-05-18T12:04:41Z</time>
      </trkpt>
      <trkpt lat="43.41487" lon="6.07015">
        <ele>200.60000610352</ele>
        <time>2016-05-18T12:04:43Z</time>
      </trkpt>
      <trkpt lat="43.41491" lon="6.07004">
        <ele>200.80000305176</ele>
        <time>2016-05-18T12:04:45Z</time>
      </trkpt>
      <trkpt lat="43.41492" lon="6.06998">
        <ele>200.80000305176</ele>
        <time>2016-05-18T12:04:46Z</time>
      </trkpt>
      <trkpt lat="43.41492" lon="6.06992">
        <ele>201</ele>
        <time>2016-05-18T12:04:47Z</time>
      </trkpt>
      <trkpt lat="43.41492" lon="6.06979">
        <ele>201.19999694824</ele>
        <time>2016-05-18T12:04:49Z</time>
      </trkpt>
      <trkpt lat="43.41489" lon="6.06968">
        <ele>201.39999389648</ele>
        <time>2016-05-18T12:04:51Z</time>
      </trkpt>
      <trkpt lat="43.41483" lon="6.06958">
        <ele>201.39999389648</ele>
        <time>2016-05-18T12:04:53Z</time>
      </trkpt>
      <trkpt lat="43.41478" lon="6.06948">
        <ele>201.39999389648</ele>
        <time>2016-05-18T12:04:55Z</time>
      </trkpt>
      <trkpt lat="43.41471" lon="6.06938">
        <ele>201.60000610352</ele>
        <time>2016-05-18T12:04:57Z</time>
      </trkpt>
      <trkpt lat="43.41466" lon="6.0693">
        <ele>201.60000610352</ele>
        <time>2016-05-18T12:04:59Z</time>
      </trkpt>
      <trkpt lat="43.41462" lon="6.06922">
        <ele>201.60000610352</ele>
        <time>2016-05-18T12:05:01Z</time>
      </trkpt>
      <trkpt lat="43.41459" lon="6.06915">
        <ele>201.80000305176</ele>
        <time>2016-05-18T12:05:03Z</time>
      </trkpt>
      <trkpt lat="43.4146" lon="6.06911">
        <ele>202</ele>
        <time>2016-05-18T12:05:04Z</time>
      </trkpt>
      <trkpt lat="43.41461" lon="6.06906">
        <ele>202.19999694824</ele>
        <time>2016-05-18T12:05:05Z</time>
      </trkpt>
      <trkpt lat="43.41463" lon="6.06897">
        <ele>202.60000610352</ele>
        <time>2016-05-18T12:05:07Z</time>
      </trkpt>
      <trkpt lat="43.41464" lon="6.06886">
        <ele>202.60000610352</ele>
        <time>2016-05-18T12:05:09Z</time>
      </trkpt>
      <trkpt lat="43.41463" lon="6.06881">
        <ele>202.80000305176</ele>
        <time>2016-05-18T12:05:10Z</time>
      </trkpt>
      <trkpt lat="43.41462" lon="6.06875">
        <ele>202.80000305176</ele>
        <time>2016-05-18T12:05:11Z</time>
      </trkpt>
      <trkpt lat="43.41457" lon="6.06865">
        <ele>202.80000305176</ele>
        <time>2016-05-18T12:05:13Z</time>
      </trkpt>
      <trkpt lat="43.41454" lon="6.06861">
        <ele>202.80000305176</ele>
        <time>2016-05-18T12:05:14Z</time>
      </trkpt>
      <trkpt lat="43.41451" lon="6.06858">
        <ele>202.80000305176</ele>
        <time>2016-05-18T12:05:15Z</time>
      </trkpt>
      <trkpt lat="43.41442" lon="6.06856">
        <ele>202.80000305176</ele>
        <time>2016-05-18T12:05:17Z</time>
      </trkpt>
      <trkpt lat="43.41433" lon="6.06856">
        <ele>202.80000305176</ele>
        <time>2016-05-18T12:05:19Z</time>
      </trkpt>
      <trkpt lat="43.41423" lon="6.06857">
        <ele>203</ele>
        <time>2016-05-18T12:05:21Z</time>
      </trkpt>
      <trkpt lat="43.41419" lon="6.06856">
        <ele>203</ele>
        <time>2016-05-18T12:05:22Z</time>
      </trkpt>
      <trkpt lat="43.41414" lon="6.06854">
        <ele>203</ele>
        <time>2016-05-18T12:05:23Z</time>
      </trkpt>
      <trkpt lat="43.41405" lon="6.06847">
        <ele>202.80000305176</ele>
        <time>2016-05-18T12:05:25Z</time>
      </trkpt>
      <trkpt lat="43.41396" lon="6.06839">
        <ele>202.80000305176</ele>
        <time>2016-05-18T12:05:27Z</time>
      </trkpt>
      <trkpt lat="43.41386" lon="6.06831">
        <ele>202.80000305176</ele>
        <time>2016-05-18T12:05:29Z</time>
      </trkpt>
      <trkpt lat="43.41377" lon="6.06825">
        <ele>203</ele>
        <time>2016-05-18T12:05:31Z</time>
      </trkpt>
      <trkpt lat="43.41372" lon="6.06822">
        <ele>203.19999694824</ele>
        <time>2016-05-18T12:05:32Z</time>
      </trkpt>
      <trkpt lat="43.41367" lon="6.0682">
        <ele>203.19999694824</ele>
        <time>2016-05-18T12:05:33Z</time>
      </trkpt>
      <trkpt lat="43.41358" lon="6.06816">
        <ele>203.39999389648</ele>
        <time>2016-05-18T12:05:35Z</time>
      </trkpt>
      <trkpt lat="43.41349" lon="6.06812">
        <ele>203.60000610352</ele>
        <time>2016-05-18T12:05:37Z</time>
      </trkpt>
      <trkpt lat="43.41343" lon="6.06809">
        <ele>203.60000610352</ele>
        <time>2016-05-18T12:05:38Z</time>
      </trkpt>
      <trkpt lat="43.41338" lon="6.06807">
        <ele>203.60000610352</ele>
        <time>2016-05-18T12:05:39Z</time>
      </trkpt>
      <trkpt lat="43.41328" lon="6.06801">
        <ele>203.39999389648</ele>
        <time>2016-05-18T12:05:41Z</time>
      </trkpt>
      <trkpt lat="43.41317" lon="6.06794">
        <ele>203.39999389648</ele>
        <time>2016-05-18T12:05:43Z</time>
      </trkpt>
      <trkpt lat="43.41307" lon="6.06786">
        <ele>203</ele>
        <time>2016-05-18T12:05:45Z</time>
      </trkpt>
      <trkpt lat="43.41302" lon="6.06781">
        <ele>202.80000305176</ele>
        <time>2016-05-18T12:05:46Z</time>
      </trkpt>
      <trkpt lat="43.41297" lon="6.06776">
        <ele>202.60000610352</ele>
        <time>2016-05-18T12:05:47Z</time>
      </trkpt>
      <trkpt lat="43.41288" lon="6.06764">
        <ele>202.60000610352</ele>
        <time>2016-05-18T12:05:49Z</time>
      </trkpt>
      <trkpt lat="43.41283" lon="6.06757">
        <ele>202.60000610352</ele>
        <time>2016-05-18T12:05:50Z</time>
      </trkpt>
      <trkpt lat="43.4128" lon="6.0675">
        <ele>202.60000610352</ele>
        <time>2016-05-18T12:05:51Z</time>
      </trkpt>
      <trkpt lat="43.41275" lon="6.06733">
        <ele>202.39999389648</ele>
        <time>2016-05-18T12:05:53Z</time>
      </trkpt>
      <trkpt lat="43.41273" lon="6.06717">
        <ele>202</ele>
        <time>2016-05-18T12:05:55Z</time>
      </trkpt>
      <trkpt lat="43.41272" lon="6.0671">
        <ele>201.80000305176</ele>
        <time>2016-05-18T12:05:56Z</time>
      </trkpt>
      <trkpt lat="43.41272" lon="6.06702">
        <ele>201.60000610352</ele>
        <time>2016-05-18T12:05:57Z</time>
      </trkpt>
      <trkpt lat="43.4127" lon="6.06689">
        <ele>201.60000610352</ele>
        <time>2016-05-18T12:05:59Z</time>
      </trkpt>
      <trkpt lat="43.41268" lon="6.06684">
        <ele>201.80000305176</ele>
        <time>2016-05-18T12:06:00Z</time>
      </trkpt>
      <trkpt lat="43.41265" lon="6.06681">
        <ele>201.80000305176</ele>
        <time>2016-05-18T12:06:01Z</time>
      </trkpt>
      <trkpt lat="43.41256" lon="6.0668">
        <ele>202</ele>
        <time>2016-05-18T12:06:03Z</time>
      </trkpt>
      <trkpt lat="43.41249" lon="6.06683">
        <ele>201.60000610352</ele>
        <time>2016-05-18T12:06:05Z</time>
      </trkpt>
      <trkpt lat="43.41245" lon="6.06687">
        <ele>200.80000305176</ele>
        <time>2016-05-18T12:06:07Z</time>
      </trkpt>
      <trkpt lat="43.41244" lon="6.06688">
        <ele>200.19999694824</ele>
        <time>2016-05-18T12:06:08Z</time>
      </trkpt>
      <trkpt lat="43.41244" lon="6.06689">
        <ele>200</ele>
        <time>2016-05-18T12:06:09Z</time>
      </trkpt>
      <trkpt lat="43.41244" lon="6.0669">
        <ele>199.80000305176</ele>
        <time>2016-05-18T12:06:11Z</time>
      </trkpt>
      <trkpt lat="43.41245" lon="6.0669">
        <ele>199.60000610352</ele>
        <time>2016-05-18T12:06:13Z</time>
      </trkpt>
      <trkpt lat="43.41245" lon="6.06693">
        <ele>199.60000610352</ele>
        <time>2016-05-18T12:06:15Z</time>
      </trkpt>
      <trkpt lat="43.41245" lon="6.06698">
        <ele>199.80000305176</ele>
        <time>2016-05-18T12:06:17Z</time>
      </trkpt>
      <trkpt lat="43.41246" lon="6.06703">
        <ele>200</ele>
        <time>2016-05-18T12:06:19Z</time>
      </trkpt>
      <trkpt lat="43.41249" lon="6.06708">
        <ele>200</ele>
        <time>2016-05-18T12:06:21Z</time>
      </trkpt>
      <trkpt lat="43.4125" lon="6.0671">
        <ele>200</ele>
        <time>2016-05-18T12:06:22Z</time>
      </trkpt>
      <trkpt lat="43.4125" lon="6.0671">
        <ele>200</ele>
        <time>2016-05-18T12:06:23Z</time>
      </trkpt>
      <trkpt lat="43.4125" lon="6.06712">
        <ele>200</ele>
        <time>2016-05-18T12:06:25Z</time>
      </trkpt>
      <trkpt lat="43.41249" lon="6.06712">
        <ele>200.19999694824</ele>
        <time>2016-05-18T12:06:26Z</time>
      </trkpt>
      <trkpt lat="43.41248" lon="6.06713">
        <ele>200.19999694824</ele>
        <time>2016-05-18T12:06:27Z</time>
      </trkpt>
      <trkpt lat="43.41242" lon="6.06712">
        <ele>200.19999694824</ele>
        <time>2016-05-18T12:06:29Z</time>
      </trkpt>
      <trkpt lat="43.41239" lon="6.06712">
        <ele>200.19999694824</ele>
        <time>2016-05-18T12:06:30Z</time>
      </trkpt>
      <trkpt lat="43.41236" lon="6.06713">
        <ele>200.19999694824</ele>
        <time>2016-05-18T12:06:31Z</time>
      </trkpt>
      <trkpt lat="43.41226" lon="6.06715">
        <ele>199.60000610352</ele>
        <time>2016-05-18T12:06:33Z</time>
      </trkpt>
      <trkpt lat="43.41221" lon="6.06716">
        <ele>199.19999694824</ele>
        <time>2016-05-18T12:06:34Z</time>
      </trkpt>
      <trkpt lat="43.41216" lon="6.06716">
        <ele>199</ele>
        <time>2016-05-18T12:06:35Z</time>
      </trkpt>
      <trkpt lat="43.41204" lon="6.06717">
        <ele>199</ele>
        <time>2016-05-18T12:06:37Z</time>
      </trkpt>
      <trkpt lat="43.41199" lon="6.06717">
        <ele>198.80000305176</ele>
        <time>2016-05-18T12:06:38Z</time>
      </trkpt>
      <trkpt lat="43.41193" lon="6.06716">
        <ele>198.80000305176</ele>
        <time>2016-05-18T12:06:39Z</time>
      </trkpt>
      <trkpt lat="43.41187" lon="6.06716">
        <ele>198.60000610352</ele>
        <time>2016-05-18T12:06:40Z</time>
      </trkpt>
      <trkpt lat="43.41182" lon="6.06715">
        <ele>198.39999389648</ele>
        <time>2016-05-18T12:06:41Z</time>
      </trkpt>
      <trkpt lat="43.4117" lon="6.06714">
        <ele>198.39999389648</ele>
        <time>2016-05-18T12:06:43Z</time>
      </trkpt>
      <trkpt lat="43.41165" lon="6.06714">
        <ele>198.19999694824</ele>
        <time>2016-05-18T12:06:44Z</time>
      </trkpt>
      <trkpt lat="43.4116" lon="6.06715">
        <ele>198.19999694824</ele>
        <time>2016-05-18T12:06:45Z</time>
      </trkpt>
      <trkpt lat="43.41154" lon="6.06716">
        <ele>198.19999694824</ele>
        <time>2016-05-18T12:06:46Z</time>
      </trkpt>
      <trkpt lat="43.41149" lon="6.06718">
        <ele>198</ele>
        <time>2016-05-18T12:06:47Z</time>
      </trkpt>
      <trkpt lat="43.41139" lon="6.06721">
        <ele>197.80000305176</ele>
        <time>2016-05-18T12:06:49Z</time>
      </trkpt>
      <trkpt lat="43.41135" lon="6.06723">
        <ele>197.80000305176</ele>
        <time>2016-05-18T12:06:50Z</time>
      </trkpt>
      <trkpt lat="43.4113" lon="6.06725">
        <ele>197.80000305176</ele>
        <time>2016-05-18T12:06:51Z</time>
      </trkpt>
      <trkpt lat="43.41121" lon="6.06732">
        <ele>197.60000610352</ele>
        <time>2016-05-18T12:06:53Z</time>
      </trkpt>
      <trkpt lat="43.41111" lon="6.06738">
        <ele>197.60000610352</ele>
        <time>2016-05-18T12:06:55Z</time>
      </trkpt>
      <trkpt lat="43.41103" lon="6.06743">
        <ele>197.39999389648</ele>
        <time>2016-05-18T12:06:57Z</time>
      </trkpt>
      <trkpt lat="43.411" lon="6.06744">
        <ele>197.19999694824</ele>
        <time>2016-05-18T12:06:58Z</time>
      </trkpt>
      <trkpt lat="43.41098" lon="6.06744">
        <ele>197</ele>
        <time>2016-05-18T12:06:59Z</time>
      </trkpt>
      <trkpt lat="43.41096" lon="6.06744">
        <ele>197</ele>
        <time>2016-05-18T12:07:00Z</time>
      </trkpt>
      <trkpt lat="43.41095" lon="6.06744">
        <ele>197</ele>
        <time>2016-05-18T12:07:01Z</time>
      </trkpt>
      <trkpt lat="43.41094" lon="6.06745">
        <ele>197</ele>
        <time>2016-05-18T12:07:02Z</time>
      </trkpt>
      <trkpt lat="43.41093" lon="6.06745">
        <ele>197</ele>
        <time>2016-05-18T12:07:03Z</time>
      </trkpt>
      <trkpt lat="43.41093" lon="6.06746">
        <ele>197</ele>
        <time>2016-05-18T12:07:04Z</time>
      </trkpt>
      <trkpt lat="43.41093" lon="6.06746">
        <ele>197</ele>
        <time>2016-05-18T12:07:05Z</time>
      </trkpt>
      <trkpt lat="43.41092" lon="6.06746">
        <ele>197</ele>
        <time>2016-05-18T12:07:07Z</time>
      </trkpt>
      <trkpt lat="43.41093" lon="6.06746">
        <ele>197</ele>
        <time>2016-05-18T12:07:09Z</time>
      </trkpt>
      <trkpt lat="43.41093" lon="6.06747">
        <ele>197.19999694824</ele>
        <time>2016-05-18T12:07:11Z</time>
      </trkpt>
      <trkpt lat="43.41092" lon="6.06747">
        <ele>197.19999694824</ele>
        <time>2016-05-18T12:07:13Z</time>
      </trkpt>
      <trkpt lat="43.41089" lon="6.0675">
        <ele>197</ele>
        <time>2016-05-18T12:07:15Z</time>
      </trkpt>
      <trkpt lat="43.41087" lon="6.06756">
        <ele>197</ele>
        <time>2016-05-18T12:07:17Z</time>
      </trkpt>
      <trkpt lat="43.41087" lon="6.0676">
        <ele>197</ele>
        <time>2016-05-18T12:07:18Z</time>
      </trkpt>
      <trkpt lat="43.41086" lon="6.06765">
        <ele>197</ele>
        <time>2016-05-18T12:07:19Z</time>
      </trkpt>
      <trkpt lat="43.41085" lon="6.06774">
        <ele>197</ele>
        <time>2016-05-18T12:07:21Z</time>
      </trkpt>
      <trkpt lat="43.41084" lon="6.06786">
        <ele>197</ele>
        <time>2016-05-18T12:07:23Z</time>
      </trkpt>
      <trkpt lat="43.41082" lon="6.06797">
        <ele>197</ele>
        <time>2016-05-18T12:07:25Z</time>
      </trkpt>
      <trkpt lat="43.4108" lon="6.06804">
        <ele>197.19999694824</ele>
        <time>2016-05-18T12:07:26Z</time>
      </trkpt>
      <trkpt lat="43.41079" lon="6.0681">
        <ele>197</ele>
        <time>2016-05-18T12:07:27Z</time>
      </trkpt>
      <trkpt lat="43.41077" lon="6.06816">
        <ele>197.19999694824</ele>
        <time>2016-05-18T12:07:28Z</time>
      </trkpt>
      <trkpt lat="43.41074" lon="6.06821">
        <ele>197</ele>
        <time>2016-05-18T12:07:29Z</time>
      </trkpt>
      <trkpt lat="43.41072" lon="6.06828">
        <ele>197.19999694824</ele>
        <time>2016-05-18T12:07:30Z</time>
      </trkpt>
      <trkpt lat="43.41071" lon="6.06834">
        <ele>197</ele>
        <time>2016-05-18T12:07:31Z</time>
      </trkpt>
      <trkpt lat="43.41069" lon="6.06846">
        <ele>197</ele>
        <time>2016-05-18T12:07:33Z</time>
      </trkpt>
      <trkpt lat="43.41069" lon="6.06855">
        <ele>197</ele>
        <time>2016-05-18T12:07:35Z</time>
      </trkpt>
      <trkpt lat="43.41068" lon="6.0686">
        <ele>197.19999694824</ele>
        <time>2016-05-18T12:07:37Z</time>
      </trkpt>
      <trkpt lat="43.41068" lon="6.06863">
        <ele>197.39999389648</ele>
        <time>2016-05-18T12:07:39Z</time>
      </trkpt>
      <trkpt lat="43.41068" lon="6.06866">
        <ele>198</ele>
        <time>2016-05-18T12:07:41Z</time>
      </trkpt>
      <trkpt lat="43.41066" lon="6.06868">
        <ele>198.60000610352</ele>
        <time>2016-05-18T12:07:43Z</time>
      </trkpt>
      <trkpt lat="43.41064" lon="6.06868">
        <ele>198.80000305176</ele>
        <time>2016-05-18T12:07:44Z</time>
      </trkpt>
      <trkpt lat="43.41062" lon="6.06869">
        <ele>199</ele>
        <time>2016-05-18T12:07:45Z</time>
      </trkpt>
      <trkpt lat="43.41056" lon="6.06871">
        <ele>199.19999694824</ele>
        <time>2016-05-18T12:07:47Z</time>
      </trkpt>
      <trkpt lat="43.41053" lon="6.06872">
        <ele>199</ele>
        <time>2016-05-18T12:07:48Z</time>
      </trkpt>
      <trkpt lat="43.4105" lon="6.06874">
        <ele>199</ele>
        <time>2016-05-18T12:07:49Z</time>
      </trkpt>
      <trkpt lat="43.41047" lon="6.06875">
        <ele>198.80000305176</ele>
        <time>2016-05-18T12:07:50Z</time>
      </trkpt>
      <trkpt lat="43.41043" lon="6.06877">
        <ele>198.80000305176</ele>
        <time>2016-05-18T12:07:51Z</time>
      </trkpt>
      <trkpt lat="43.41039" lon="6.06879">
        <ele>198.60000610352</ele>
        <time>2016-05-18T12:07:52Z</time>
      </trkpt>
      <trkpt lat="43.41034" lon="6.06882">
        <ele>198.19999694824</ele>
        <time>2016-05-18T12:07:53Z</time>
      </trkpt>
      <trkpt lat="43.41031" lon="6.06885">
        <ele>197.80000305176</ele>
        <time>2016-05-18T12:07:54Z</time>
      </trkpt>
      <trkpt lat="43.41027" lon="6.06887">
        <ele>197.80000305176</ele>
        <time>2016-05-18T12:07:55Z</time>
      </trkpt>
      <trkpt lat="43.41024" lon="6.06889">
        <ele>197.60000610352</ele>
        <time>2016-05-18T12:07:57Z</time>
      </trkpt>
      <trkpt lat="43.41022" lon="6.06891">
        <ele>197.39999389648</ele>
        <time>2016-05-18T12:07:59Z</time>
      </trkpt>
      <trkpt lat="43.41022" lon="6.06892">
        <ele>197.39999389648</ele>
        <time>2016-05-18T12:08:01Z</time>
      </trkpt>
      <trkpt lat="43.41022" lon="6.06892">
        <ele>197.39999389648</ele>
        <time>2016-05-18T12:08:03Z</time>
      </trkpt>
      <trkpt lat="43.41022" lon="6.06892">
        <ele>197.39999389648</ele>
        <time>2016-05-18T12:08:05Z</time>
      </trkpt>
      <trkpt lat="43.41022" lon="6.06892">
        <ele>197.19999694824</ele>
        <time>2016-05-18T12:08:07Z</time>
      </trkpt>
      <trkpt lat="43.41022" lon="6.06892">
        <ele>197.19999694824</ele>
        <time>2016-05-18T12:08:09Z</time>
      </trkpt>
      <trkpt lat="43.41022" lon="6.06892">
        <ele>197.19999694824</ele>
        <time>2016-05-18T12:08:11Z</time>
      </trkpt>
      <trkpt lat="43.41022" lon="6.06892">
        <ele>197</ele>
        <time>2016-05-18T12:08:13Z</time>
      </trkpt>
      <trkpt lat="43.41022" lon="6.06892">
        <ele>197</ele>
        <time>2016-05-18T12:08:14Z</time>
      </trkpt>
      <trkpt lat="43.41021" lon="6.06893">
        <ele>197.19999694824</ele>
        <time>2016-05-18T12:08:15Z</time>
      </trkpt>
      <trkpt lat="43.4102" lon="6.06896">
        <ele>197.19999694824</ele>
        <time>2016-05-18T12:08:17Z</time>
      </trkpt>
      <trkpt lat="43.41018" lon="6.06901">
        <ele>197.39999389648</ele>
        <time>2016-05-18T12:08:19Z</time>
      </trkpt>
      <trkpt lat="43.41013" lon="6.06906">
        <ele>197.39999389648</ele>
        <time>2016-05-18T12:08:21Z</time>
      </trkpt>
      <trkpt lat="43.41006" lon="6.06912">
        <ele>197.19999694824</ele>
        <time>2016-05-18T12:08:23Z</time>
      </trkpt>
      <trkpt lat="43.40997" lon="6.06917">
        <ele>197.19999694824</ele>
        <time>2016-05-18T12:08:25Z</time>
      </trkpt>
      <trkpt lat="43.40988" lon="6.06922">
        <ele>197.39999389648</ele>
        <time>2016-05-18T12:08:27Z</time>
      </trkpt>
      <trkpt lat="43.40977" lon="6.06927">
        <ele>197.39999389648</ele>
        <time>2016-05-18T12:08:29Z</time>
      </trkpt>
      <trkpt lat="43.40964" lon="6.06932">
        <ele>197.39999389648</ele>
        <time>2016-05-18T12:08:31Z</time>
      </trkpt>
      <trkpt lat="43.40951" lon="6.06936">
        <ele>197.39999389648</ele>
        <time>2016-05-18T12:08:33Z</time>
      </trkpt>
      <trkpt lat="43.40944" lon="6.06938">
        <ele>197.39999389648</ele>
        <time>2016-05-18T12:08:34Z</time>
      </trkpt>
      <trkpt lat="43.40937" lon="6.0694">
        <ele>197.60000610352</ele>
        <time>2016-05-18T12:08:35Z</time>
      </trkpt>
      <trkpt lat="43.40922" lon="6.06944">
        <ele>197.60000610352</ele>
        <time>2016-05-18T12:08:37Z</time>
      </trkpt>
      <trkpt lat="43.40915" lon="6.06947">
        <ele>197.80000305176</ele>
        <time>2016-05-18T12:08:38Z</time>
      </trkpt>
      <trkpt lat="43.4091" lon="6.06952">
        <ele>197.80000305176</ele>
        <time>2016-05-18T12:08:39Z</time>
      </trkpt>
      <trkpt lat="43.40905" lon="6.06959">
        <ele>197.80000305176</ele>
        <time>2016-05-18T12:08:40Z</time>
      </trkpt>
      <trkpt lat="43.40901" lon="6.06966">
        <ele>197.80000305176</ele>
        <time>2016-05-18T12:08:41Z</time>
      </trkpt>
      <trkpt lat="43.40891" lon="6.06976">
        <ele>198</ele>
        <time>2016-05-18T12:08:43Z</time>
      </trkpt>
      <trkpt lat="43.40885" lon="6.0698">
        <ele>198</ele>
        <time>2016-05-18T12:08:44Z</time>
      </trkpt>
      <trkpt lat="43.40879" lon="6.06983">
        <ele>198.19999694824</ele>
        <time>2016-05-18T12:08:45Z</time>
      </trkpt>
      <trkpt lat="43.40867" lon="6.06989">
        <ele>198.60000610352</ele>
        <time>2016-05-18T12:08:47Z</time>
      </trkpt>
      <trkpt lat="43.40856" lon="6.06994">
        <ele>198.39999389648</ele>
        <time>2016-05-18T12:08:49Z</time>
      </trkpt>
      <trkpt lat="43.40851" lon="6.06996">
        <ele>198.19999694824</ele>
        <time>2016-05-18T12:08:50Z</time>
      </trkpt>
      <trkpt lat="43.40848" lon="6.06998">
        <ele>198</ele>
        <time>2016-05-18T12:08:51Z</time>
      </trkpt>
      <trkpt lat="43.40846" lon="6.07">
        <ele>198</ele>
        <time>2016-05-18T12:08:52Z</time>
      </trkpt>
      <trkpt lat="43.40845" lon="6.07001">
        <ele>198</ele>
        <time>2016-05-18T12:08:53Z</time>
      </trkpt>
      <trkpt lat="43.40843" lon="6.07003">
        <ele>198</ele>
        <time>2016-05-18T12:08:55Z</time>
      </trkpt>
      <trkpt lat="43.40842" lon="6.07003">
        <ele>198</ele>
        <time>2016-05-18T12:08:57Z</time>
      </trkpt>
      <trkpt lat="43.40842" lon="6.07003">
        <ele>197.80000305176</ele>
        <time>2016-05-18T12:08:59Z</time>
      </trkpt>
      <trkpt lat="43.40842" lon="6.07003">
        <ele>197.80000305176</ele>
        <time>2016-05-18T12:09:01Z</time>
      </trkpt>
      <trkpt lat="43.40842" lon="6.07003">
        <ele>197.80000305176</ele>
        <time>2016-05-18T12:09:03Z</time>
      </trkpt>
      <trkpt lat="43.4084" lon="6.07005">
        <ele>197.80000305176</ele>
        <time>2016-05-18T12:09:05Z</time>
      </trkpt>
      <trkpt lat="43.40838" lon="6.0701">
        <ele>197.80000305176</ele>
        <time>2016-05-18T12:09:07Z</time>
      </trkpt>
      <trkpt lat="43.40837" lon="6.07018">
        <ele>197.80000305176</ele>
        <time>2016-05-18T12:09:09Z</time>
      </trkpt>
      <trkpt lat="43.40838" lon="6.07023">
        <ele>197.80000305176</ele>
        <time>2016-05-18T12:09:10Z</time>
      </trkpt>
      <trkpt lat="43.40839" lon="6.07028">
        <ele>197.80000305176</ele>
        <time>2016-05-18T12:09:11Z</time>
      </trkpt>
      <trkpt lat="43.4084" lon="6.07039">
        <ele>197.80000305176</ele>
        <time>2016-05-18T12:09:13Z</time>
      </trkpt>
      <trkpt lat="43.40841" lon="6.07051">
        <ele>198</ele>
        <time>2016-05-18T12:09:15Z</time>
      </trkpt>
      <trkpt lat="43.40842" lon="6.07065">
        <ele>197.80000305176</ele>
        <time>2016-05-18T12:09:17Z</time>
      </trkpt>
      <trkpt lat="43.40843" lon="6.07079">
        <ele>197.80000305176</ele>
        <time>2016-05-18T12:09:19Z</time>
      </trkpt>
      <trkpt lat="43.40843" lon="6.07094">
        <ele>197.80000305176</ele>
        <time>2016-05-18T12:09:21Z</time>
      </trkpt>
      <trkpt lat="43.40842" lon="6.0711">
        <ele>197.80000305176</ele>
        <time>2016-05-18T12:09:23Z</time>
      </trkpt>
      <trkpt lat="43.4084" lon="6.07126">
        <ele>198.19999694824</ele>
        <time>2016-05-18T12:09:25Z</time>
      </trkpt>
      <trkpt lat="43.40836" lon="6.07142">
        <ele>198.19999694824</ele>
        <time>2016-05-18T12:09:27Z</time>
      </trkpt>
      <trkpt lat="43.40831" lon="6.07158">
        <ele>198.19999694824</ele>
        <time>2016-05-18T12:09:29Z</time>
      </trkpt>
      <trkpt lat="43.40826" lon="6.07173">
        <ele>198.19999694824</ele>
        <time>2016-05-18T12:09:31Z</time>
      </trkpt>
      <trkpt lat="43.4082" lon="6.07187">
        <ele>198.19999694824</ele>
        <time>2016-05-18T12:09:33Z</time>
      </trkpt>
      <trkpt lat="43.40813" lon="6.072">
        <ele>198.19999694824</ele>
        <time>2016-05-18T12:09:35Z</time>
      </trkpt>
      <trkpt lat="43.40806" lon="6.07212">
        <ele>198.19999694824</ele>
        <time>2016-05-18T12:09:37Z</time>
      </trkpt>
      <trkpt lat="43.40797" lon="6.07222">
        <ele>198.19999694824</ele>
        <time>2016-05-18T12:09:39Z</time>
      </trkpt>
      <trkpt lat="43.40788" lon="6.07232">
        <ele>198.60000610352</ele>
        <time>2016-05-18T12:09:41Z</time>
      </trkpt>
      <trkpt lat="43.40778" lon="6.07241">
        <ele>198.60000610352</ele>
        <time>2016-05-18T12:09:43Z</time>
      </trkpt>
      <trkpt lat="43.40766" lon="6.07249">
        <ele>198.60000610352</ele>
        <time>2016-05-18T12:09:45Z</time>
      </trkpt>
      <trkpt lat="43.40755" lon="6.07256">
        <ele>198.60000610352</ele>
        <time>2016-05-18T12:09:47Z</time>
      </trkpt>
      <trkpt lat="43.40744" lon="6.07262">
        <ele>198.60000610352</ele>
        <time>2016-05-18T12:09:49Z</time>
      </trkpt>
      <trkpt lat="43.40733" lon="6.07267">
        <ele>198.80000305176</ele>
        <time>2016-05-18T12:09:51Z</time>
      </trkpt>
      <trkpt lat="43.40727" lon="6.0727">
        <ele>198.80000305176</ele>
        <time>2016-05-18T12:09:52Z</time>
      </trkpt>
      <trkpt lat="43.40722" lon="6.07274">
        <ele>198.80000305176</ele>
        <time>2016-05-18T12:09:53Z</time>
      </trkpt>
      <trkpt lat="43.40712" lon="6.07279">
        <ele>199.39999389648</ele>
        <time>2016-05-18T12:09:55Z</time>
      </trkpt>
      <trkpt lat="43.40703" lon="6.07284">
        <ele>199.80000305176</ele>
        <time>2016-05-18T12:09:57Z</time>
      </trkpt>
      <trkpt lat="43.40698" lon="6.07287">
        <ele>199.80000305176</ele>
        <time>2016-05-18T12:09:58Z</time>
      </trkpt>
      <trkpt lat="43.40694" lon="6.07289">
        <ele>199.80000305176</ele>
        <time>2016-05-18T12:09:59Z</time>
      </trkpt>
      <trkpt lat="43.40689" lon="6.07292">
        <ele>199.80000305176</ele>
        <time>2016-05-18T12:10:00Z</time>
      </trkpt>
      <trkpt lat="43.40685" lon="6.07294">
        <ele>199.80000305176</ele>
        <time>2016-05-18T12:10:01Z</time>
      </trkpt>
      <trkpt lat="43.40677" lon="6.07299">
        <ele>200</ele>
        <time>2016-05-18T12:10:03Z</time>
      </trkpt>
      <trkpt lat="43.40669" lon="6.07303">
        <ele>200</ele>
        <time>2016-05-18T12:10:05Z</time>
      </trkpt>
      <trkpt lat="43.40665" lon="6.07305">
        <ele>200.19999694824</ele>
        <time>2016-05-18T12:10:06Z</time>
      </trkpt>
      <trkpt lat="43.40662" lon="6.07307">
        <ele>200.39999389648</ele>
        <time>2016-05-18T12:10:07Z</time>
      </trkpt>
      <trkpt lat="43.40654" lon="6.07311">
        <ele>200.80000305176</ele>
        <time>2016-05-18T12:10:09Z</time>
      </trkpt>
      <trkpt lat="43.40648" lon="6.07315">
        <ele>201.19999694824</ele>
        <time>2016-05-18T12:10:11Z</time>
      </trkpt>
      <trkpt lat="43.40642" lon="6.07318">
        <ele>201.39999389648</ele>
        <time>2016-05-18T12:10:13Z</time>
      </trkpt>
      <trkpt lat="43.40639" lon="6.07319">
        <ele>201.39999389648</ele>
        <time>2016-05-18T12:10:14Z</time>
      </trkpt>
      <trkpt lat="43.40637" lon="6.07318">
        <ele>201.39999389648</ele>
        <time>2016-05-18T12:10:15Z</time>
      </trkpt>
      <trkpt lat="43.40632" lon="6.07317">
        <ele>201.39999389648</ele>
        <time>2016-05-18T12:10:17Z</time>
      </trkpt>
      <trkpt lat="43.40628" lon="6.07317">
        <ele>201.60000610352</ele>
        <time>2016-05-18T12:10:19Z</time>
      </trkpt>
      <trkpt lat="43.40623" lon="6.07315">
        <ele>201.80000305176</ele>
        <time>2016-05-18T12:10:21Z</time>
      </trkpt>
      <trkpt lat="43.40619" lon="6.07313">
        <ele>201.60000610352</ele>
        <time>2016-05-18T12:10:23Z</time>
      </trkpt>
      <trkpt lat="43.40614" lon="6.0731">
        <ele>201.60000610352</ele>
        <time>2016-05-18T12:10:25Z</time>
      </trkpt>
      <trkpt lat="43.40611" lon="6.07306">
        <ele>201.80000305176</ele>
        <time>2016-05-18T12:10:27Z</time>
      </trkpt>
      <trkpt lat="43.40607" lon="6.07301">
        <ele>202.19999694824</ele>
        <time>2016-05-18T12:10:29Z</time>
      </trkpt>
      <trkpt lat="43.40605" lon="6.07298">
        <ele>202.39999389648</ele>
        <time>2016-05-18T12:10:30Z</time>
      </trkpt>
      <trkpt lat="43.40602" lon="6.07295">
        <ele>202.60000610352</ele>
        <time>2016-05-18T12:10:31Z</time>
      </trkpt>
      <trkpt lat="43.40597" lon="6.0729">
        <ele>202.60000610352</ele>
        <time>2016-05-18T12:10:33Z</time>
      </trkpt>
      <trkpt lat="43.40591" lon="6.07288">
        <ele>202.60000610352</ele>
        <time>2016-05-18T12:10:35Z</time>
      </trkpt>
      <trkpt lat="43.40585" lon="6.07291">
        <ele>202.60000610352</ele>
        <time>2016-05-18T12:10:37Z</time>
      </trkpt>
      <trkpt lat="43.40579" lon="6.07297">
        <ele>203.19999694824</ele>
        <time>2016-05-18T12:10:39Z</time>
      </trkpt>
      <trkpt lat="43.40576" lon="6.07299">
        <ele>203.39999389648</ele>
        <time>2016-05-18T12:10:40Z</time>
      </trkpt>
      <trkpt lat="43.40572" lon="6.07299">
        <ele>203.39999389648</ele>
        <time>2016-05-18T12:10:41Z</time>
      </trkpt>
      <trkpt lat="43.40565" lon="6.07299">
        <ele>203.39999389648</ele>
        <time>2016-05-18T12:10:43Z</time>
      </trkpt>
      <trkpt lat="43.40561" lon="6.07298">
        <ele>203.60000610352</ele>
        <time>2016-05-18T12:10:44Z</time>
      </trkpt>
      <trkpt lat="43.40557" lon="6.07298">
        <ele>203.60000610352</ele>
        <time>2016-05-18T12:10:45Z</time>
      </trkpt>
      <trkpt lat="43.40553" lon="6.07297">
        <ele>203.80000305176</ele>
        <time>2016-05-18T12:10:46Z</time>
      </trkpt>
      <trkpt lat="43.40549" lon="6.07297">
        <ele>203.80000305176</ele>
        <time>2016-05-18T12:10:47Z</time>
      </trkpt>
      <trkpt lat="43.40542" lon="6.07295">
        <ele>204</ele>
        <time>2016-05-18T12:10:49Z</time>
      </trkpt>
      <trkpt lat="43.40538" lon="6.07295">
        <ele>204.19999694824</ele>
        <time>2016-05-18T12:10:50Z</time>
      </trkpt>
      <trkpt lat="43.40534" lon="6.07294">
        <ele>204.39999389648</ele>
        <time>2016-05-18T12:10:51Z</time>
      </trkpt>
      <trkpt lat="43.40527" lon="6.07289">
        <ele>204.60000610352</ele>
        <time>2016-05-18T12:10:53Z</time>
      </trkpt>
      <trkpt lat="43.4052" lon="6.07285">
        <ele>204.60000610352</ele>
        <time>2016-05-18T12:10:55Z</time>
      </trkpt>
      <trkpt lat="43.40512" lon="6.07281">
        <ele>204.60000610352</ele>
        <time>2016-05-18T12:10:57Z</time>
      </trkpt>
      <trkpt lat="43.40505" lon="6.07278">
        <ele>204.80000305176</ele>
        <time>2016-05-18T12:10:59Z</time>
      </trkpt>
      <trkpt lat="43.40498" lon="6.07275">
        <ele>204.80000305176</ele>
        <time>2016-05-18T12:11:01Z</time>
      </trkpt>
      <trkpt lat="43.4049" lon="6.07274">
        <ele>205.19999694824</ele>
        <time>2016-05-18T12:11:03Z</time>
      </trkpt>
      <trkpt lat="43.40483" lon="6.07273">
        <ele>205.39999389648</ele>
        <time>2016-05-18T12:11:05Z</time>
      </trkpt>
      <trkpt lat="43.40476" lon="6.07274">
        <ele>205.60000610352</ele>
        <time>2016-05-18T12:11:07Z</time>
      </trkpt>
      <trkpt lat="43.40469" lon="6.07275">
        <ele>205.60000610352</ele>
        <time>2016-05-18T12:11:09Z</time>
      </trkpt>
      <trkpt lat="43.40462" lon="6.07275">
        <ele>206</ele>
        <time>2016-05-18T12:11:11Z</time>
      </trkpt>
      <trkpt lat="43.40456" lon="6.07275">
        <ele>206.19999694824</ele>
        <time>2016-05-18T12:11:13Z</time>
      </trkpt>
      <trkpt lat="43.4045" lon="6.07275">
        <ele>206.39999389648</ele>
        <time>2016-05-18T12:11:15Z</time>
      </trkpt>
      <trkpt lat="43.40444" lon="6.07276">
        <ele>206.60000610352</ele>
        <time>2016-05-18T12:11:17Z</time>
      </trkpt>
      <trkpt lat="43.40437" lon="6.07276">
        <ele>206.80000305176</ele>
        <time>2016-05-18T12:11:19Z</time>
      </trkpt>
      <trkpt lat="43.40431" lon="6.07277">
        <ele>207</ele>
        <time>2016-05-18T12:11:21Z</time>
      </trkpt>
      <trkpt lat="43.40428" lon="6.07276">
        <ele>207.19999694824</ele>
        <time>2016-05-18T12:11:22Z</time>
      </trkpt>
      <trkpt lat="43.40425" lon="6.07276">
        <ele>207.39999389648</ele>
        <time>2016-05-18T12:11:23Z</time>
      </trkpt>
      <trkpt lat="43.4042" lon="6.07277">
        <ele>207.80000305176</ele>
        <time>2016-05-18T12:11:25Z</time>
      </trkpt>
      <trkpt lat="43.40414" lon="6.07277">
        <ele>208.19999694824</ele>
        <time>2016-05-18T12:11:27Z</time>
      </trkpt>
      <trkpt lat="43.40409" lon="6.07277">
        <ele>208.60000610352</ele>
        <time>2016-05-18T12:11:29Z</time>
      </trkpt>
      <trkpt lat="43.40405" lon="6.07275">
        <ele>208.60000610352</ele>
        <time>2016-05-18T12:11:31Z</time>
      </trkpt>
      <trkpt lat="43.40402" lon="6.07272">
        <ele>208.80000305176</ele>
        <time>2016-05-18T12:11:33Z</time>
      </trkpt>
      <trkpt lat="43.40401" lon="6.07272">
        <ele>208.80000305176</ele>
        <time>2016-05-18T12:11:34Z</time>
      </trkpt>
      <trkpt lat="43.404" lon="6.07271">
        <ele>208.80000305176</ele>
        <time>2016-05-18T12:11:35Z</time>
      </trkpt>
      <trkpt lat="43.40397" lon="6.07269">
        <ele>209</ele>
        <time>2016-05-18T12:11:37Z</time>
      </trkpt>
      <trkpt lat="43.40395" lon="6.07266">
        <ele>209</ele>
        <time>2016-05-18T12:11:39Z</time>
      </trkpt>
      <trkpt lat="43.40392" lon="6.07261">
        <ele>209</ele>
        <time>2016-05-18T12:11:41Z</time>
      </trkpt>
      <trkpt lat="43.40388" lon="6.07256">
        <ele>209</ele>
        <time>2016-05-18T12:11:43Z</time>
      </trkpt>
      <trkpt lat="43.40383" lon="6.07251">
        <ele>208.80000305176</ele>
        <time>2016-05-18T12:11:45Z</time>
      </trkpt>
      <trkpt lat="43.4038" lon="6.07249">
        <ele>208.80000305176</ele>
        <time>2016-05-18T12:11:46Z</time>
      </trkpt>
      <trkpt lat="43.40377" lon="6.07247">
        <ele>209</ele>
        <time>2016-05-18T12:11:47Z</time>
      </trkpt>
      <trkpt lat="43.40369" lon="6.07245">
        <ele>209</ele>
        <time>2016-05-18T12:11:49Z</time>
      </trkpt>
      <trkpt lat="43.40363" lon="6.07241">
        <ele>209</ele>
        <time>2016-05-18T12:11:51Z</time>
      </trkpt>
      <trkpt lat="43.40356" lon="6.07236">
        <ele>209</ele>
        <time>2016-05-18T12:11:53Z</time>
      </trkpt>
      <trkpt lat="43.4035" lon="6.07231">
        <ele>209.19999694824</ele>
        <time>2016-05-18T12:11:55Z</time>
      </trkpt>
      <trkpt lat="43.40347" lon="6.07229">
        <ele>209.39999389648</ele>
        <time>2016-05-18T12:11:56Z</time>
      </trkpt>
      <trkpt lat="43.40344" lon="6.07227">
        <ele>209.60000610352</ele>
        <time>2016-05-18T12:11:57Z</time>
      </trkpt>
      <trkpt lat="43.40338" lon="6.07224">
        <ele>209.80000305176</ele>
        <time>2016-05-18T12:11:59Z</time>
      </trkpt>
      <trkpt lat="43.40332" lon="6.07221">
        <ele>210</ele>
        <time>2016-05-18T12:12:01Z</time>
      </trkpt>
      <trkpt lat="43.40326" lon="6.07219">
        <ele>210.19999694824</ele>
        <time>2016-05-18T12:12:03Z</time>
      </trkpt>
      <trkpt lat="43.4032" lon="6.07217">
        <ele>210.19999694824</ele>
        <time>2016-05-18T12:12:05Z</time>
      </trkpt>
      <trkpt lat="43.40317" lon="6.07215">
        <ele>210.39999389648</ele>
        <time>2016-05-18T12:12:06Z</time>
      </trkpt>
      <trkpt lat="43.40314" lon="6.07214">
        <ele>210.60000610352</ele>
        <time>2016-05-18T12:12:07Z</time>
      </trkpt>
      <trkpt lat="43.40307" lon="6.0721">
        <ele>210.80000305176</ele>
        <time>2016-05-18T12:12:09Z</time>
      </trkpt>
      <trkpt lat="43.403" lon="6.07206">
        <ele>211</ele>
        <time>2016-05-18T12:12:11Z</time>
      </trkpt>
      <trkpt lat="43.40294" lon="6.072">
        <ele>211.19999694824</ele>
        <time>2016-05-18T12:12:13Z</time>
      </trkpt>
      <trkpt lat="43.40291" lon="6.07196">
        <ele>211.39999389648</ele>
        <time>2016-05-18T12:12:14Z</time>
      </trkpt>
      <trkpt lat="43.40288" lon="6.07193">
        <ele>211.60000610352</ele>
        <time>2016-05-18T12:12:15Z</time>
      </trkpt>
      <trkpt lat="43.40282" lon="6.07185">
        <ele>211.60000610352</ele>
        <time>2016-05-18T12:12:17Z</time>
      </trkpt>
      <trkpt lat="43.40275" lon="6.07177">
        <ele>212</ele>
        <time>2016-05-18T12:12:19Z</time>
      </trkpt>
      <trkpt lat="43.40271" lon="6.07173">
        <ele>212</ele>
        <time>2016-05-18T12:12:20Z</time>
      </trkpt>
      <trkpt lat="43.40268" lon="6.0717">
        <ele>212.19999694824</ele>
        <time>2016-05-18T12:12:21Z</time>
      </trkpt>
      <trkpt lat="43.40259" lon="6.07167">
        <ele>212</ele>
        <time>2016-05-18T12:12:23Z</time>
      </trkpt>
      <trkpt lat="43.4025" lon="6.07166">
        <ele>211.80000305176</ele>
        <time>2016-05-18T12:12:25Z</time>
      </trkpt>
      <trkpt lat="43.40242" lon="6.07166">
        <ele>212</ele>
        <time>2016-05-18T12:12:27Z</time>
      </trkpt>
      <trkpt lat="43.40235" lon="6.07168">
        <ele>212.19999694824</ele>
        <time>2016-05-18T12:12:29Z</time>
      </trkpt>
      <trkpt lat="43.40228" lon="6.07169">
        <ele>213</ele>
        <time>2016-05-18T12:12:31Z</time>
      </trkpt>
      <trkpt lat="43.40222" lon="6.0717">
        <ele>213.39999389648</ele>
        <time>2016-05-18T12:12:33Z</time>
      </trkpt>
      <trkpt lat="43.40216" lon="6.07171">
        <ele>213.80000305176</ele>
        <time>2016-05-18T12:12:35Z</time>
      </trkpt>
      <trkpt lat="43.40211" lon="6.07174">
        <ele>214.19999694824</ele>
        <time>2016-05-18T12:12:37Z</time>
      </trkpt>
      <trkpt lat="43.40206" lon="6.07176">
        <ele>214.60000610352</ele>
        <time>2016-05-18T12:12:39Z</time>
      </trkpt>
      <trkpt lat="43.40201" lon="6.07179">
        <ele>214.80000305176</ele>
        <time>2016-05-18T12:12:41Z</time>
      </trkpt>
      <trkpt lat="43.40196" lon="6.07181">
        <ele>215.60000610352</ele>
        <time>2016-05-18T12:12:43Z</time>
      </trkpt>
      <trkpt lat="43.40191" lon="6.07183">
        <ele>216</ele>
        <time>2016-05-18T12:12:45Z</time>
      </trkpt>
      <trkpt lat="43.40186" lon="6.07187">
        <ele>216.60000610352</ele>
        <time>2016-05-18T12:12:47Z</time>
      </trkpt>
      <trkpt lat="43.40181" lon="6.0719">
        <ele>217</ele>
        <time>2016-05-18T12:12:49Z</time>
      </trkpt>
      <trkpt lat="43.40175" lon="6.07194">
        <ele>217.60000610352</ele>
        <time>2016-05-18T12:12:51Z</time>
      </trkpt>
      <trkpt lat="43.40173" lon="6.07195">
        <ele>218</ele>
        <time>2016-05-18T12:12:52Z</time>
      </trkpt>
      <trkpt lat="43.40171" lon="6.07197">
        <ele>218.19999694824</ele>
        <time>2016-05-18T12:12:53Z</time>
      </trkpt>
      <trkpt lat="43.40168" lon="6.07199">
        <ele>218.60000610352</ele>
        <time>2016-05-18T12:12:54Z</time>
      </trkpt>
      <trkpt lat="43.40166" lon="6.07202">
        <ele>218.80000305176</ele>
        <time>2016-05-18T12:12:55Z</time>
      </trkpt>
      <trkpt lat="43.40164" lon="6.07204">
        <ele>219.19999694824</ele>
        <time>2016-05-18T12:12:56Z</time>
      </trkpt>
      <trkpt lat="43.40162" lon="6.07206">
        <ele>219.60000610352</ele>
        <time>2016-05-18T12:12:57Z</time>
      </trkpt>
      <trkpt lat="43.40158" lon="6.0721">
        <ele>220</ele>
        <time>2016-05-18T12:12:59Z</time>
      </trkpt>
      <trkpt lat="43.40155" lon="6.07214">
        <ele>220.19999694824</ele>
        <time>2016-05-18T12:13:01Z</time>
      </trkpt>
      <trkpt lat="43.40153" lon="6.07216">
        <ele>220.39999389648</ele>
        <time>2016-05-18T12:13:02Z</time>
      </trkpt>
      <trkpt lat="43.40152" lon="6.07218">
        <ele>220.39999389648</ele>
        <time>2016-05-18T12:13:03Z</time>
      </trkpt>
      <trkpt lat="43.40149" lon="6.07222">
        <ele>220.60000610352</ele>
        <time>2016-05-18T12:13:05Z</time>
      </trkpt>
      <trkpt lat="43.40145" lon="6.07227">
        <ele>220.80000305176</ele>
        <time>2016-05-18T12:13:07Z</time>
      </trkpt>
      <trkpt lat="43.40145" lon="6.07229">
        <ele>221</ele>
        <time>2016-05-18T12:13:08Z</time>
      </trkpt>
      <trkpt lat="43.40144" lon="6.07232">
        <ele>221.19999694824</ele>
        <time>2016-05-18T12:13:09Z</time>
      </trkpt>
      <trkpt lat="43.40143" lon="6.07238">
        <ele>221.39999389648</ele>
        <time>2016-05-18T12:13:11Z</time>
      </trkpt>
      <trkpt lat="43.40142" lon="6.07241">
        <ele>221.39999389648</ele>
        <time>2016-05-18T12:13:12Z</time>
      </trkpt>
      <trkpt lat="43.40142" lon="6.07244">
        <ele>221.60000610352</ele>
        <time>2016-05-18T12:13:13Z</time>
      </trkpt>
      <trkpt lat="43.40143" lon="6.0725">
        <ele>221.80000305176</ele>
        <time>2016-05-18T12:13:15Z</time>
      </trkpt>
      <trkpt lat="43.40144" lon="6.07256">
        <ele>221.80000305176</ele>
        <time>2016-05-18T12:13:17Z</time>
      </trkpt>
      <trkpt lat="43.40144" lon="6.07263">
        <ele>221.80000305176</ele>
        <time>2016-05-18T12:13:19Z</time>
      </trkpt>
      <trkpt lat="43.40145" lon="6.07271">
        <ele>221.80000305176</ele>
        <time>2016-05-18T12:13:21Z</time>
      </trkpt>
      <trkpt lat="43.40145" lon="6.07275">
        <ele>221.80000305176</ele>
        <time>2016-05-18T12:13:22Z</time>
      </trkpt>
      <trkpt lat="43.40145" lon="6.07279">
        <ele>221.80000305176</ele>
        <time>2016-05-18T12:13:23Z</time>
      </trkpt>
      <trkpt lat="43.40145" lon="6.07288">
        <ele>222</ele>
        <time>2016-05-18T12:13:25Z</time>
      </trkpt>
      <trkpt lat="43.40144" lon="6.07298">
        <ele>222</ele>
        <time>2016-05-18T12:13:27Z</time>
      </trkpt>
      <trkpt lat="43.40144" lon="6.07303">
        <ele>222.19999694824</ele>
        <time>2016-05-18T12:13:28Z</time>
      </trkpt>
      <trkpt lat="43.40143" lon="6.07308">
        <ele>222.19999694824</ele>
        <time>2016-05-18T12:13:29Z</time>
      </trkpt>
      <trkpt lat="43.40142" lon="6.07318">
        <ele>222.60000610352</ele>
        <time>2016-05-18T12:13:31Z</time>
      </trkpt>
      <trkpt lat="43.40141" lon="6.07327">
        <ele>222.60000610352</ele>
        <time>2016-05-18T12:13:33Z</time>
      </trkpt>
      <trkpt lat="43.4014" lon="6.07336">
        <ele>222.80000305176</ele>
        <time>2016-05-18T12:13:35Z</time>
      </trkpt>
      <trkpt lat="43.40139" lon="6.07345">
        <ele>222.80000305176</ele>
        <time>2016-05-18T12:13:37Z</time>
      </trkpt>
      <trkpt lat="43.40138" lon="6.07355">
        <ele>222.80000305176</ele>
        <time>2016-05-18T12:13:39Z</time>
      </trkpt>
      <trkpt lat="43.40137" lon="6.07365">
        <ele>222.80000305176</ele>
        <time>2016-05-18T12:13:41Z</time>
      </trkpt>
      <trkpt lat="43.40137" lon="6.07374">
        <ele>223</ele>
        <time>2016-05-18T12:13:43Z</time>
      </trkpt>
      <trkpt lat="43.40137" lon="6.07384">
        <ele>223.19999694824</ele>
        <time>2016-05-18T12:13:45Z</time>
      </trkpt>
      <trkpt lat="43.40138" lon="6.07394">
        <ele>223.39999389648</ele>
        <time>2016-05-18T12:13:47Z</time>
      </trkpt>
      <trkpt lat="43.40138" lon="6.07399">
        <ele>223.39999389648</ele>
        <time>2016-05-18T12:13:48Z</time>
      </trkpt>
      <trkpt lat="43.40139" lon="6.07404">
        <ele>223.60000610352</ele>
        <time>2016-05-18T12:13:49Z</time>
      </trkpt>
      <trkpt lat="43.40141" lon="6.07414">
        <ele>223.60000610352</ele>
        <time>2016-05-18T12:13:51Z</time>
      </trkpt>
      <trkpt lat="43.40142" lon="6.07419">
        <ele>223.60000610352</ele>
        <time>2016-05-18T12:13:52Z</time>
      </trkpt>
      <trkpt lat="43.40142" lon="6.07423">
        <ele>223.80000305176</ele>
        <time>2016-05-18T12:13:53Z</time>
      </trkpt>
      <trkpt lat="43.40144" lon="6.07433">
        <ele>223.80000305176</ele>
        <time>2016-05-18T12:13:55Z</time>
      </trkpt>
      <trkpt lat="43.40145" lon="6.07443">
        <ele>224.19999694824</ele>
        <time>2016-05-18T12:13:57Z</time>
      </trkpt>
      <trkpt lat="43.40144" lon="6.07453">
        <ele>224.39999389648</ele>
        <time>2016-05-18T12:13:59Z</time>
      </trkpt>
      <trkpt lat="43.40144" lon="6.07458">
        <ele>224.39999389648</ele>
        <time>2016-05-18T12:14:00Z</time>
      </trkpt>
      <trkpt lat="43.40143" lon="6.07463">
        <ele>224.39999389648</ele>
        <time>2016-05-18T12:14:01Z</time>
      </trkpt>
      <trkpt lat="43.40143" lon="6.07474">
        <ele>224.60000610352</ele>
        <time>2016-05-18T12:14:03Z</time>
      </trkpt>
      <trkpt lat="43.40142" lon="6.07483">
        <ele>224.80000305176</ele>
        <time>2016-05-18T12:14:05Z</time>
      </trkpt>
      <trkpt lat="43.40141" lon="6.07492">
        <ele>225.19999694824</ele>
        <time>2016-05-18T12:14:07Z</time>
      </trkpt>
      <trkpt lat="43.4014" lon="6.07496">
        <ele>225.39999389648</ele>
        <time>2016-05-18T12:14:08Z</time>
      </trkpt>
      <trkpt lat="43.40139" lon="6.075">
        <ele>225.80000305176</ele>
        <time>2016-05-18T12:14:09Z</time>
      </trkpt>
      <trkpt lat="43.40138" lon="6.07504">
        <ele>226</ele>
        <time>2016-05-18T12:14:10Z</time>
      </trkpt>
      <trkpt lat="43.40137" lon="6.07508">
        <ele>226</ele>
        <time>2016-05-18T12:14:11Z</time>
      </trkpt>
      <trkpt lat="43.40134" lon="6.07516">
        <ele>226.39999389648</ele>
        <time>2016-05-18T12:14:13Z</time>
      </trkpt>
      <trkpt lat="43.40131" lon="6.07524">
        <ele>226.80000305176</ele>
        <time>2016-05-18T12:14:15Z</time>
      </trkpt>
      <trkpt lat="43.40126" lon="6.07533">
        <ele>227</ele>
        <time>2016-05-18T12:14:17Z</time>
      </trkpt>
      <trkpt lat="43.40122" lon="6.07541">
        <ele>227.39999389648</ele>
        <time>2016-05-18T12:14:19Z</time>
      </trkpt>
      <trkpt lat="43.40118" lon="6.07549">
        <ele>227.60000610352</ele>
        <time>2016-05-18T12:14:21Z</time>
      </trkpt>
      <trkpt lat="43.40115" lon="6.07553">
        <ele>227.80000305176</ele>
        <time>2016-05-18T12:14:22Z</time>
      </trkpt>
      <trkpt lat="43.40113" lon="6.07556">
        <ele>227.80000305176</ele>
        <time>2016-05-18T12:14:23Z</time>
      </trkpt>
      <trkpt lat="43.40108" lon="6.07564">
        <ele>228</ele>
        <time>2016-05-18T12:14:25Z</time>
      </trkpt>
      <trkpt lat="43.40103" lon="6.07572">
        <ele>228</ele>
        <time>2016-05-18T12:14:27Z</time>
      </trkpt>
      <trkpt lat="43.40099" lon="6.0758">
        <ele>228.39999389648</ele>
        <time>2016-05-18T12:14:29Z</time>
      </trkpt>
      <trkpt lat="43.40095" lon="6.07588">
        <ele>228.39999389648</ele>
        <time>2016-05-18T12:14:31Z</time>
      </trkpt>
      <trkpt lat="43.40093" lon="6.07596">
        <ele>228.80000305176</ele>
        <time>2016-05-18T12:14:33Z</time>
      </trkpt>
      <trkpt lat="43.40091" lon="6.07605">
        <ele>229</ele>
        <time>2016-05-18T12:14:35Z</time>
      </trkpt>
      <trkpt lat="43.40091" lon="6.07614">
        <ele>229.19999694824</ele>
        <time>2016-05-18T12:14:37Z</time>
      </trkpt>
      <trkpt lat="43.40091" lon="6.07619">
        <ele>229.19999694824</ele>
        <time>2016-05-18T12:14:38Z</time>
      </trkpt>
      <trkpt lat="43.40091" lon="6.07624">
        <ele>229.39999389648</ele>
        <time>2016-05-18T12:14:39Z</time>
      </trkpt>
      <trkpt lat="43.40091" lon="6.07633">
        <ele>229.80000305176</ele>
        <time>2016-05-18T12:14:41Z</time>
      </trkpt>
      <trkpt lat="43.40091" lon="6.07641">
        <ele>230.39999389648</ele>
        <time>2016-05-18T12:14:43Z</time>
      </trkpt>
      <trkpt lat="43.4009" lon="6.07645">
        <ele>230.60000610352</ele>
        <time>2016-05-18T12:14:44Z</time>
      </trkpt>
      <trkpt lat="43.40089" lon="6.07649">
        <ele>230.80000305176</ele>
        <time>2016-05-18T12:14:45Z</time>
      </trkpt>
      <trkpt lat="43.40089" lon="6.07652">
        <ele>231</ele>
        <time>2016-05-18T12:14:46Z</time>
      </trkpt>
      <trkpt lat="43.40089" lon="6.07656">
        <ele>231.19999694824</ele>
        <time>2016-05-18T12:14:47Z</time>
      </trkpt>
      <trkpt lat="43.40087" lon="6.07662">
        <ele>231.60000610352</ele>
        <time>2016-05-18T12:14:49Z</time>
      </trkpt>
      <trkpt lat="43.40086" lon="6.07665">
        <ele>232</ele>
        <time>2016-05-18T12:14:50Z</time>
      </trkpt>
      <trkpt lat="43.40085" lon="6.07668">
        <ele>232.39999389648</ele>
        <time>2016-05-18T12:14:51Z</time>
      </trkpt>
      <trkpt lat="43.40082" lon="6.07674">
        <ele>233</ele>
        <time>2016-05-18T12:14:53Z</time>
      </trkpt>
      <trkpt lat="43.40079" lon="6.07681">
        <ele>233.39999389648</ele>
        <time>2016-05-18T12:14:55Z</time>
      </trkpt>
      <trkpt lat="43.40076" lon="6.07687">
        <ele>233.60000610352</ele>
        <time>2016-05-18T12:14:57Z</time>
      </trkpt>
      <trkpt lat="43.40072" lon="6.07692">
        <ele>234</ele>
        <time>2016-05-18T12:14:59Z</time>
      </trkpt>
      <trkpt lat="43.40068" lon="6.07698">
        <ele>234.39999389648</ele>
        <time>2016-05-18T12:15:01Z</time>
      </trkpt>
      <trkpt lat="43.40064" lon="6.07703">
        <ele>234.39999389648</ele>
        <time>2016-05-18T12:15:03Z</time>
      </trkpt>
      <trkpt lat="43.4006" lon="6.07707">
        <ele>234.60000610352</ele>
        <time>2016-05-18T12:15:05Z</time>
      </trkpt>
      <trkpt lat="43.40055" lon="6.07713">
        <ele>234.60000610352</ele>
        <time>2016-05-18T12:15:07Z</time>
      </trkpt>
      <trkpt lat="43.40051" lon="6.07719">
        <ele>234.60000610352</ele>
        <time>2016-05-18T12:15:09Z</time>
      </trkpt>
      <trkpt lat="43.40046" lon="6.07725">
        <ele>234.60000610352</ele>
        <time>2016-05-18T12:15:11Z</time>
      </trkpt>
      <trkpt lat="43.40041" lon="6.07732">
        <ele>234.60000610352</ele>
        <time>2016-05-18T12:15:13Z</time>
      </trkpt>
      <trkpt lat="43.40038" lon="6.07739">
        <ele>234.80000305176</ele>
        <time>2016-05-18T12:15:15Z</time>
      </trkpt>
      <trkpt lat="43.40036" lon="6.07744">
        <ele>235.19999694824</ele>
        <time>2016-05-18T12:15:16Z</time>
      </trkpt>
      <trkpt lat="43.40034" lon="6.07748">
        <ele>235.39999389648</ele>
        <time>2016-05-18T12:15:17Z</time>
      </trkpt>
      <trkpt lat="43.40031" lon="6.07756">
        <ele>235.60000610352</ele>
        <time>2016-05-18T12:15:19Z</time>
      </trkpt>
      <trkpt lat="43.40028" lon="6.07764">
        <ele>235.39999389648</ele>
        <time>2016-05-18T12:15:21Z</time>
      </trkpt>
      <trkpt lat="43.40025" lon="6.07773">
        <ele>235.39999389648</ele>
        <time>2016-05-18T12:15:23Z</time>
      </trkpt>
      <trkpt lat="43.40023" lon="6.07782">
        <ele>235.60000610352</ele>
        <time>2016-05-18T12:15:25Z</time>
      </trkpt>
      <trkpt lat="43.40022" lon="6.07787">
        <ele>235.80000305176</ele>
        <time>2016-05-18T12:15:26Z</time>
      </trkpt>
      <trkpt lat="43.4002" lon="6.07791">
        <ele>235.80000305176</ele>
        <time>2016-05-18T12:15:27Z</time>
      </trkpt>
      <trkpt lat="43.40017" lon="6.078">
        <ele>235.80000305176</ele>
        <time>2016-05-18T12:15:29Z</time>
      </trkpt>
      <trkpt lat="43.40015" lon="6.07809">
        <ele>236</ele>
        <time>2016-05-18T12:15:31Z</time>
      </trkpt>
      <trkpt lat="43.40014" lon="6.07814">
        <ele>236.19999694824</ele>
        <time>2016-05-18T12:15:32Z</time>
      </trkpt>
      <trkpt lat="43.40013" lon="6.07818">
        <ele>236.39999389648</ele>
        <time>2016-05-18T12:15:33Z</time>
      </trkpt>
      <trkpt lat="43.4001" lon="6.07827">
        <ele>236.60000610352</ele>
        <time>2016-05-18T12:15:35Z</time>
      </trkpt>
      <trkpt lat="43.40008" lon="6.07836">
        <ele>236.60000610352</ele>
        <time>2016-05-18T12:15:37Z</time>
      </trkpt>
      <trkpt lat="43.40005" lon="6.07845">
        <ele>236.60000610352</ele>
        <time>2016-05-18T12:15:39Z</time>
      </trkpt>
      <trkpt lat="43.40002" lon="6.07855">
        <ele>236.60000610352</ele>
        <time>2016-05-18T12:15:41Z</time>
      </trkpt>
      <trkpt lat="43.4" lon="6.07865">
        <ele>236.60000610352</ele>
        <time>2016-05-18T12:15:43Z</time>
      </trkpt>
      <trkpt lat="43.39997" lon="6.07874">
        <ele>236.60000610352</ele>
        <time>2016-05-18T12:15:45Z</time>
      </trkpt>
      <trkpt lat="43.39996" lon="6.07879">
        <ele>236.60000610352</ele>
        <time>2016-05-18T12:15:46Z</time>
      </trkpt>
      <trkpt lat="43.39995" lon="6.07884">
        <ele>236.80000305176</ele>
        <time>2016-05-18T12:15:47Z</time>
      </trkpt>
      <trkpt lat="43.39993" lon="6.07893">
        <ele>237</ele>
        <time>2016-05-18T12:15:49Z</time>
      </trkpt>
      <trkpt lat="43.39991" lon="6.07903">
        <ele>237.19999694824</ele>
        <time>2016-05-18T12:15:51Z</time>
      </trkpt>
      <trkpt lat="43.39989" lon="6.07912">
        <ele>237.39999389648</ele>
        <time>2016-05-18T12:15:53Z</time>
      </trkpt>
      <trkpt lat="43.39988" lon="6.0792">
        <ele>237.60000610352</ele>
        <time>2016-05-18T12:15:55Z</time>
      </trkpt>
      <trkpt lat="43.39986" lon="6.07929">
        <ele>238.39999389648</ele>
        <time>2016-05-18T12:15:57Z</time>
      </trkpt>
      <trkpt lat="43.39985" lon="6.07938">
        <ele>238.60000610352</ele>
        <time>2016-05-18T12:15:59Z</time>
      </trkpt>
      <trkpt lat="43.39983" lon="6.07946">
        <ele>239</ele>
        <time>2016-05-18T12:16:01Z</time>
      </trkpt>
      <trkpt lat="43.39982" lon="6.07949">
        <ele>239.39999389648</ele>
        <time>2016-05-18T12:16:02Z</time>
      </trkpt>
      <trkpt lat="43.39982" lon="6.07952">
        <ele>239.80000305176</ele>
        <time>2016-05-18T12:16:03Z</time>
      </trkpt>
      <trkpt lat="43.39981" lon="6.07958">
        <ele>240.19999694824</ele>
        <time>2016-05-18T12:16:05Z</time>
      </trkpt>
      <trkpt lat="43.3998" lon="6.07961">
        <ele>240.39999389648</ele>
        <time>2016-05-18T12:16:06Z</time>
      </trkpt>
      <trkpt lat="43.39979" lon="6.07963">
        <ele>240.60000610352</ele>
        <time>2016-05-18T12:16:07Z</time>
      </trkpt>
      <trkpt lat="43.39977" lon="6.07966">
        <ele>240.80000305176</ele>
        <time>2016-05-18T12:16:09Z</time>
      </trkpt>
      <trkpt lat="43.39975" lon="6.07968">
        <ele>241</ele>
        <time>2016-05-18T12:16:11Z</time>
      </trkpt>
      <trkpt lat="43.39974" lon="6.07968">
        <ele>241</ele>
        <time>2016-05-18T12:16:12Z</time>
      </trkpt>
      <trkpt lat="43.39974" lon="6.07969">
        <ele>241.19999694824</ele>
        <time>2016-05-18T12:16:13Z</time>
      </trkpt>
      <trkpt lat="43.39974" lon="6.0797">
        <ele>241.39999389648</ele>
        <time>2016-05-18T12:16:15Z</time>
      </trkpt>
      <trkpt lat="43.39973" lon="6.0797">
        <ele>241.60000610352</ele>
        <time>2016-05-18T12:16:16Z</time>
      </trkpt>
      <trkpt lat="43.39974" lon="6.0797">
        <ele>241.60000610352</ele>
        <time>2016-05-18T12:16:17Z</time>
      </trkpt>
      <trkpt lat="43.39974" lon="6.0797">
        <ele>241.60000610352</ele>
        <time>2016-05-18T12:16:19Z</time>
      </trkpt>
      <trkpt lat="43.39974" lon="6.0797">
        <ele>241.60000610352</ele>
        <time>2016-05-18T12:16:21Z</time>
      </trkpt>
      <trkpt lat="43.39974" lon="6.0797">
        <ele>241.60000610352</ele>
        <time>2016-05-18T12:16:23Z</time>
      </trkpt>
      <trkpt lat="43.39974" lon="6.0797">
        <ele>241.60000610352</ele>
        <time>2016-05-18T12:16:25Z</time>
      </trkpt>
      <trkpt lat="43.39974" lon="6.0797">
        <ele>241.39999389648</ele>
        <time>2016-05-18T12:16:27Z</time>
      </trkpt>
      <trkpt lat="43.39974" lon="6.0797">
        <ele>241.19999694824</ele>
        <time>2016-05-18T12:16:29Z</time>
      </trkpt>
      <trkpt lat="43.39974" lon="6.0797">
        <ele>241.19999694824</ele>
        <time>2016-05-18T12:16:31Z</time>
      </trkpt>
      <trkpt lat="43.39974" lon="6.0797">
        <ele>241.19999694824</ele>
        <time>2016-05-18T12:16:33Z</time>
      </trkpt>
      <trkpt lat="43.39974" lon="6.0797">
        <ele>241.19999694824</ele>
        <time>2016-05-18T12:16:35Z</time>
      </trkpt>
      <trkpt lat="43.39974" lon="6.0797">
        <ele>241.19999694824</ele>
        <time>2016-05-18T12:16:37Z</time>
      </trkpt>
      <trkpt lat="43.39974" lon="6.0797">
        <ele>241.19999694824</ele>
        <time>2016-05-18T12:16:39Z</time>
      </trkpt>
      <trkpt lat="43.39974" lon="6.0797">
        <ele>241.39999389648</ele>
        <time>2016-05-18T12:16:41Z</time>
      </trkpt>
      <trkpt lat="43.39974" lon="6.0797">
        <ele>241.39999389648</ele>
        <time>2016-05-18T12:16:42Z</time>
      </trkpt>
      <trkpt lat="43.39974" lon="6.0797">
        <ele>241.60000610352</ele>
        <time>2016-05-18T12:16:43Z</time>
      </trkpt>
      <trkpt lat="43.39974" lon="6.0797">
        <ele>241.39999389648</ele>
        <time>2016-05-18T12:16:45Z</time>
      </trkpt>
      <trkpt lat="43.39974" lon="6.0797">
        <ele>241.19999694824</ele>
        <time>2016-05-18T12:16:47Z</time>
      </trkpt>
      <trkpt lat="43.39974" lon="6.0797">
        <ele>241.19999694824</ele>
        <time>2016-05-18T12:16:49Z</time>
      </trkpt>
      <trkpt lat="43.39974" lon="6.0797">
        <ele>241.19999694824</ele>
        <time>2016-05-18T12:16:51Z</time>
      </trkpt>
      <trkpt lat="43.39974" lon="6.0797">
        <ele>241.19999694824</ele>
        <time>2016-05-18T12:16:53Z</time>
      </trkpt>
      <trkpt lat="43.39974" lon="6.0797">
        <ele>241.39999389648</ele>
        <time>2016-05-18T12:16:55Z</time>
      </trkpt>
      <trkpt lat="43.39974" lon="6.0797">
        <ele>241.39999389648</ele>
        <time>2016-05-18T12:16:57Z</time>
      </trkpt>
      <trkpt lat="43.39974" lon="6.0797">
        <ele>241.39999389648</ele>
        <time>2016-05-18T12:16:59Z</time>
      </trkpt>
      <trkpt lat="43.39974" lon="6.0797">
        <ele>241.39999389648</ele>
        <time>2016-05-18T12:17:01Z</time>
      </trkpt>
      <trkpt lat="43.39974" lon="6.0797">
        <ele>241.19999694824</ele>
        <time>2016-05-18T12:17:02Z</time>
      </trkpt>
      <trkpt lat="43.39974" lon="6.0797">
        <ele>241.19999694824</ele>
        <time>2016-05-18T12:17:03Z</time>
      </trkpt>
      <trkpt lat="43.39974" lon="6.0797">
        <ele>241.19999694824</ele>
        <time>2016-05-18T12:17:05Z</time>
      </trkpt>
      <trkpt lat="43.39974" lon="6.0797">
        <ele>241.19999694824</ele>
        <time>2016-05-18T12:17:07Z</time>
      </trkpt>
      <trkpt lat="43.39974" lon="6.0797">
        <ele>241.19999694824</ele>
        <time>2016-05-18T12:17:09Z</time>
      </trkpt>
      <trkpt lat="43.39974" lon="6.0797">
        <ele>241</ele>
        <time>2016-05-18T12:17:11Z</time>
      </trkpt>
      <trkpt lat="43.39974" lon="6.0797">
        <ele>241</ele>
        <time>2016-05-18T12:17:13Z</time>
      </trkpt>
      <trkpt lat="43.39973" lon="6.0797">
        <ele>241</ele>
        <time>2016-05-18T12:17:15Z</time>
      </trkpt>
      <trkpt lat="43.39973" lon="6.0797">
        <ele>240.80000305176</ele>
        <time>2016-05-18T12:17:17Z</time>
      </trkpt>
      <trkpt lat="43.39973" lon="6.0797">
        <ele>240.60000610352</ele>
        <time>2016-05-18T12:17:19Z</time>
      </trkpt>
      <trkpt lat="43.39973" lon="6.0797">
        <ele>240.80000305176</ele>
        <time>2016-05-18T12:17:21Z</time>
      </trkpt>
      <trkpt lat="43.39973" lon="6.07971">
        <ele>240.80000305176</ele>
        <time>2016-05-18T12:17:23Z</time>
      </trkpt>
      <trkpt lat="43.39972" lon="6.07971">
        <ele>241.19999694824</ele>
        <time>2016-05-18T12:17:25Z</time>
      </trkpt>
      <trkpt lat="43.39972" lon="6.07971">
        <ele>241.39999389648</ele>
        <time>2016-05-18T12:17:27Z</time>
      </trkpt>
      <trkpt lat="43.39972" lon="6.07971">
        <ele>241.39999389648</ele>
        <time>2016-05-18T12:17:29Z</time>
      </trkpt>
      <trkpt lat="43.39972" lon="6.07971">
        <ele>241.39999389648</ele>
        <time>2016-05-18T12:17:31Z</time>
      </trkpt>
      <trkpt lat="43.39972" lon="6.07971">
        <ele>241.39999389648</ele>
        <time>2016-05-18T12:17:33Z</time>
      </trkpt>
      <trkpt lat="43.39972" lon="6.07971">
        <ele>241.39999389648</ele>
        <time>2016-05-18T12:17:35Z</time>
      </trkpt>
      <trkpt lat="43.39972" lon="6.07971">
        <ele>241.60000610352</ele>
        <time>2016-05-18T12:17:37Z</time>
      </trkpt>
      <trkpt lat="43.39972" lon="6.07971">
        <ele>241.80000305176</ele>
        <time>2016-05-18T12:17:38Z</time>
      </trkpt>
      <trkpt lat="43.39972" lon="6.07971">
        <ele>241.80000305176</ele>
        <time>2016-05-18T12:17:39Z</time>
      </trkpt>
      <trkpt lat="43.39972" lon="6.07971">
        <ele>241.80000305176</ele>
        <time>2016-05-18T12:17:41Z</time>
      </trkpt>
      <trkpt lat="43.39972" lon="6.07971">
        <ele>241.80000305176</ele>
        <time>2016-05-18T12:17:43Z</time>
      </trkpt>
      <trkpt lat="43.39972" lon="6.0797">
        <ele>241.80000305176</ele>
        <time>2016-05-18T12:17:44Z</time>
      </trkpt>
      <trkpt lat="43.39972" lon="6.0797">
        <ele>241.80000305176</ele>
        <time>2016-05-18T12:17:45Z</time>
      </trkpt>
      <trkpt lat="43.39971" lon="6.07971">
        <ele>241.80000305176</ele>
        <time>2016-05-18T12:17:46Z</time>
      </trkpt>
      <trkpt lat="43.39969" lon="6.07971">
        <ele>241.80000305176</ele>
        <time>2016-05-18T12:17:47Z</time>
      </trkpt>
      <trkpt lat="43.39966" lon="6.07973">
        <ele>242</ele>
        <time>2016-05-18T12:17:49Z</time>
      </trkpt>
      <trkpt lat="43.39962" lon="6.07975">
        <ele>242.19999694824</ele>
        <time>2016-05-18T12:17:51Z</time>
      </trkpt>
      <trkpt lat="43.39957" lon="6.07979">
        <ele>242.39999389648</ele>
        <time>2016-05-18T12:17:53Z</time>
      </trkpt>
      <trkpt lat="43.39952" lon="6.07982">
        <ele>242.60000610352</ele>
        <time>2016-05-18T12:17:55Z</time>
      </trkpt>
      <trkpt lat="43.39947" lon="6.07984">
        <ele>242.80000305176</ele>
        <time>2016-05-18T12:17:57Z</time>
      </trkpt>
      <trkpt lat="43.39944" lon="6.07986">
        <ele>243.19999694824</ele>
        <time>2016-05-18T12:17:58Z</time>
      </trkpt>
      <trkpt lat="43.39941" lon="6.07988">
        <ele>243.39999389648</ele>
        <time>2016-05-18T12:17:59Z</time>
      </trkpt>
      <trkpt lat="43.39934" lon="6.07991">
        <ele>243.39999389648</ele>
        <time>2016-05-18T12:18:01Z</time>
      </trkpt>
      <trkpt lat="43.39928" lon="6.07996">
        <ele>243.39999389648</ele>
        <time>2016-05-18T12:18:03Z</time>
      </trkpt>
      <trkpt lat="43.39921" lon="6.08002">
        <ele>243</ele>
        <time>2016-05-18T12:18:05Z</time>
      </trkpt>
      <trkpt lat="43.39914" lon="6.08008">
        <ele>243</ele>
        <time>2016-05-18T12:18:07Z</time>
      </trkpt>
      <trkpt lat="43.39907" lon="6.08014">
        <ele>242.80000305176</ele>
        <time>2016-05-18T12:18:09Z</time>
      </trkpt>
      <trkpt lat="43.399" lon="6.08019">
        <ele>242.80000305176</ele>
        <time>2016-05-18T12:18:11Z</time>
      </trkpt>
      <trkpt lat="43.39896" lon="6.08021">
        <ele>242.80000305176</ele>
        <time>2016-05-18T12:18:12Z</time>
      </trkpt>
      <trkpt lat="43.39891" lon="6.08022">
        <ele>242.80000305176</ele>
        <time>2016-05-18T12:18:13Z</time>
      </trkpt>
      <trkpt lat="43.39883" lon="6.08022">
        <ele>242.80000305176</ele>
        <time>2016-05-18T12:18:15Z</time>
      </trkpt>
      <trkpt lat="43.39879" lon="6.08021">
        <ele>242.60000610352</ele>
        <time>2016-05-18T12:18:16Z</time>
      </trkpt>
      <trkpt lat="43.39875" lon="6.08019">
        <ele>242.60000610352</ele>
        <time>2016-05-18T12:18:17Z</time>
      </trkpt>
      <trkpt lat="43.39866" lon="6.08015">
        <ele>242.39999389648</ele>
        <time>2016-05-18T12:18:19Z</time>
      </trkpt>
      <trkpt lat="43.39857" lon="6.08009">
        <ele>242.19999694824</ele>
        <time>2016-05-18T12:18:21Z</time>
      </trkpt>
      <trkpt lat="43.39849" lon="6.08004">
        <ele>242</ele>
        <time>2016-05-18T12:18:23Z</time>
      </trkpt>
      <trkpt lat="43.3984" lon="6.07998">
        <ele>241.80000305176</ele>
        <time>2016-05-18T12:18:25Z</time>
      </trkpt>
      <trkpt lat="43.39835" lon="6.07995">
        <ele>242</ele>
        <time>2016-05-18T12:18:26Z</time>
      </trkpt>
      <trkpt lat="43.3983" lon="6.07993">
        <ele>242</ele>
        <time>2016-05-18T12:18:27Z</time>
      </trkpt>
      <trkpt lat="43.39822" lon="6.07988">
        <ele>241.60000610352</ele>
        <time>2016-05-18T12:18:29Z</time>
      </trkpt>
      <trkpt lat="43.39813" lon="6.07983">
        <ele>241.19999694824</ele>
        <time>2016-05-18T12:18:31Z</time>
      </trkpt>
      <trkpt lat="43.39805" lon="6.07979">
        <ele>241</ele>
        <time>2016-05-18T12:18:33Z</time>
      </trkpt>
      <trkpt lat="43.39796" lon="6.07976">
        <ele>241.19999694824</ele>
        <time>2016-05-18T12:18:35Z</time>
      </trkpt>
      <trkpt lat="43.39793" lon="6.07975">
        <ele>241.19999694824</ele>
        <time>2016-05-18T12:18:36Z</time>
      </trkpt>
      <trkpt lat="43.39789" lon="6.07973">
        <ele>241.39999389648</ele>
        <time>2016-05-18T12:18:37Z</time>
      </trkpt>
      <trkpt lat="43.39782" lon="6.0797">
        <ele>242</ele>
        <time>2016-05-18T12:18:39Z</time>
      </trkpt>
      <trkpt lat="43.39779" lon="6.07968">
        <ele>242.39999389648</ele>
        <time>2016-05-18T12:18:40Z</time>
      </trkpt>
      <trkpt lat="43.39775" lon="6.07966">
        <ele>242.80000305176</ele>
        <time>2016-05-18T12:18:41Z</time>
      </trkpt>
      <trkpt lat="43.39771" lon="6.07964">
        <ele>243.19999694824</ele>
        <time>2016-05-18T12:18:42Z</time>
      </trkpt>
      <trkpt lat="43.39768" lon="6.07962">
        <ele>243.39999389648</ele>
        <time>2016-05-18T12:18:43Z</time>
      </trkpt>
      <trkpt lat="43.39761" lon="6.07959">
        <ele>244.19999694824</ele>
        <time>2016-05-18T12:18:45Z</time>
      </trkpt>
      <trkpt lat="43.39754" lon="6.07956">
        <ele>244.60000610352</ele>
        <time>2016-05-18T12:18:47Z</time>
      </trkpt>
      <trkpt lat="43.39751" lon="6.07955">
        <ele>245</ele>
        <time>2016-05-18T12:18:48Z</time>
      </trkpt>
      <trkpt lat="43.39749" lon="6.07954">
        <ele>245.19999694824</ele>
        <time>2016-05-18T12:18:49Z</time>
      </trkpt>
      <trkpt lat="43.39744" lon="6.07951">
        <ele>245.39999389648</ele>
        <time>2016-05-18T12:18:51Z</time>
      </trkpt>
      <trkpt lat="43.39738" lon="6.07948">
        <ele>245.39999389648</ele>
        <time>2016-05-18T12:18:53Z</time>
      </trkpt>
      <trkpt lat="43.39734" lon="6.07945">
        <ele>245.39999389648</ele>
        <time>2016-05-18T12:18:55Z</time>
      </trkpt>
      <trkpt lat="43.39729" lon="6.07941">
        <ele>245.39999389648</ele>
        <time>2016-05-18T12:18:57Z</time>
      </trkpt>
      <trkpt lat="43.39725" lon="6.07937">
        <ele>245.80000305176</ele>
        <time>2016-05-18T12:18:59Z</time>
      </trkpt>
      <trkpt lat="43.39724" lon="6.07935">
        <ele>245.80000305176</ele>
        <time>2016-05-18T12:19:00Z</time>
      </trkpt>
      <trkpt lat="43.39722" lon="6.07933">
        <ele>246</ele>
        <time>2016-05-18T12:19:01Z</time>
      </trkpt>
      <trkpt lat="43.39719" lon="6.07929">
        <ele>246.39999389648</ele>
        <time>2016-05-18T12:19:03Z</time>
      </trkpt>
      <trkpt lat="43.39715" lon="6.07924">
        <ele>246.80000305176</ele>
        <time>2016-05-18T12:19:05Z</time>
      </trkpt>
      <trkpt lat="43.39711" lon="6.07919">
        <ele>247.39999389648</ele>
        <time>2016-05-18T12:19:07Z</time>
      </trkpt>
      <trkpt lat="43.39707" lon="6.07914">
        <ele>248</ele>
        <time>2016-05-18T12:19:09Z</time>
      </trkpt>
      <trkpt lat="43.39705" lon="6.07912">
        <ele>248.19999694824</ele>
        <time>2016-05-18T12:19:10Z</time>
      </trkpt>
      <trkpt lat="43.39703" lon="6.07909">
        <ele>248.60000610352</ele>
        <time>2016-05-18T12:19:11Z</time>
      </trkpt>
      <trkpt lat="43.39701" lon="6.07906">
        <ele>249</ele>
        <time>2016-05-18T12:19:13Z</time>
      </trkpt>
      <trkpt lat="43.39699" lon="6.07904">
        <ele>249.19999694824</ele>
        <time>2016-05-18T12:19:14Z</time>
      </trkpt>
      <trkpt lat="43.39697" lon="6.07903">
        <ele>249.80000305176</ele>
        <time>2016-05-18T12:19:15Z</time>
      </trkpt>
      <trkpt lat="43.39694" lon="6.079">
        <ele>250.60000610352</ele>
        <time>2016-05-18T12:19:17Z</time>
      </trkpt>
      <trkpt lat="43.39691" lon="6.07897">
        <ele>251.19999694824</ele>
        <time>2016-05-18T12:19:19Z</time>
      </trkpt>
      <trkpt lat="43.39688" lon="6.07893">
        <ele>251.60000610352</ele>
        <time>2016-05-18T12:19:21Z</time>
      </trkpt>
      <trkpt lat="43.39687" lon="6.07892">
        <ele>251.60000610352</ele>
        <time>2016-05-18T12:19:22Z</time>
      </trkpt>
      <trkpt lat="43.39685" lon="6.07891">
        <ele>251.80000305176</ele>
        <time>2016-05-18T12:19:23Z</time>
      </trkpt>
      <trkpt lat="43.3968" lon="6.07889">
        <ele>252</ele>
        <time>2016-05-18T12:19:25Z</time>
      </trkpt>
      <trkpt lat="43.39678" lon="6.07889">
        <ele>252</ele>
        <time>2016-05-18T12:19:26Z</time>
      </trkpt>
      <trkpt lat="43.39676" lon="6.07888">
        <ele>252</ele>
        <time>2016-05-18T12:19:27Z</time>
      </trkpt>
      <trkpt lat="43.39672" lon="6.07888">
        <ele>252.19999694824</ele>
        <time>2016-05-18T12:19:29Z</time>
      </trkpt>
      <trkpt lat="43.39668" lon="6.07887">
        <ele>252.60000610352</ele>
        <time>2016-05-18T12:19:31Z</time>
      </trkpt>
      <trkpt lat="43.39666" lon="6.07887">
        <ele>252.60000610352</ele>
        <time>2016-05-18T12:19:32Z</time>
      </trkpt>
      <trkpt lat="43.39663" lon="6.07887">
        <ele>252.80000305176</ele>
        <time>2016-05-18T12:19:33Z</time>
      </trkpt>
      <trkpt lat="43.39658" lon="6.07887">
        <ele>253</ele>
        <time>2016-05-18T12:19:35Z</time>
      </trkpt>
      <trkpt lat="43.39653" lon="6.07888">
        <ele>253</ele>
        <time>2016-05-18T12:19:37Z</time>
      </trkpt>
      <trkpt lat="43.3965" lon="6.07888">
        <ele>253.19999694824</ele>
        <time>2016-05-18T12:19:38Z</time>
      </trkpt>
      <trkpt lat="43.39648" lon="6.07889">
        <ele>253.19999694824</ele>
        <time>2016-05-18T12:19:39Z</time>
      </trkpt>
      <trkpt lat="43.39643" lon="6.0789">
        <ele>253.60000610352</ele>
        <time>2016-05-18T12:19:41Z</time>
      </trkpt>
      <trkpt lat="43.39639" lon="6.07891">
        <ele>253.60000610352</ele>
        <time>2016-05-18T12:19:43Z</time>
      </trkpt>
      <trkpt lat="43.39634" lon="6.07893">
        <ele>253.80000305176</ele>
        <time>2016-05-18T12:19:45Z</time>
      </trkpt>
      <trkpt lat="43.39631" lon="6.07894">
        <ele>253.80000305176</ele>
        <time>2016-05-18T12:19:46Z</time>
      </trkpt>
      <trkpt lat="43.39628" lon="6.07895">
        <ele>254</ele>
        <time>2016-05-18T12:19:47Z</time>
      </trkpt>
      <trkpt lat="43.39623" lon="6.07897">
        <ele>254.19999694824</ele>
        <time>2016-05-18T12:19:49Z</time>
      </trkpt>
      <trkpt lat="43.39619" lon="6.07899">
        <ele>254.39999389648</ele>
        <time>2016-05-18T12:19:51Z</time>
      </trkpt>
      <trkpt lat="43.39615" lon="6.07901">
        <ele>254.60000610352</ele>
        <time>2016-05-18T12:19:53Z</time>
      </trkpt>
      <trkpt lat="43.39613" lon="6.07902">
        <ele>254.80000305176</ele>
        <time>2016-05-18T12:19:54Z</time>
      </trkpt>
      <trkpt lat="43.3961" lon="6.07903">
        <ele>255</ele>
        <time>2016-05-18T12:19:55Z</time>
      </trkpt>
      <trkpt lat="43.39606" lon="6.07905">
        <ele>255.39999389648</ele>
        <time>2016-05-18T12:19:57Z</time>
      </trkpt>
      <trkpt lat="43.39602" lon="6.07906">
        <ele>255.60000610352</ele>
        <time>2016-05-18T12:19:59Z</time>
      </trkpt>
      <trkpt lat="43.396" lon="6.07906">
        <ele>256</ele>
        <time>2016-05-18T12:20:00Z</time>
      </trkpt>
      <trkpt lat="43.39598" lon="6.07906">
        <ele>256.39999389648</ele>
        <time>2016-05-18T12:20:01Z</time>
      </trkpt>
      <trkpt lat="43.39594" lon="6.07906">
        <ele>256.60000610352</ele>
        <time>2016-05-18T12:20:03Z</time>
      </trkpt>
      <trkpt lat="43.39591" lon="6.07905">
        <ele>257</ele>
        <time>2016-05-18T12:20:05Z</time>
      </trkpt>
      <trkpt lat="43.39589" lon="6.07905">
        <ele>257.20001220703</ele>
        <time>2016-05-18T12:20:06Z</time>
      </trkpt>
      <trkpt lat="43.39589" lon="6.07905">
        <ele>257.60000610352</ele>
        <time>2016-05-18T12:20:07Z</time>
      </trkpt>
      <trkpt lat="43.39587" lon="6.07908">
        <ele>258</ele>
        <time>2016-05-18T12:20:09Z</time>
      </trkpt>
      <trkpt lat="43.39585" lon="6.07909">
        <ele>258.20001220703</ele>
        <time>2016-05-18T12:20:10Z</time>
      </trkpt>
      <trkpt lat="43.39585" lon="6.0791">
        <ele>258.20001220703</ele>
        <time>2016-05-18T12:20:11Z</time>
      </trkpt>
      <trkpt lat="43.39584" lon="6.07912">
        <ele>258.39999389648</ele>
        <time>2016-05-18T12:20:12Z</time>
      </trkpt>
      <trkpt lat="43.39584" lon="6.07914">
        <ele>258.39999389648</ele>
        <time>2016-05-18T12:20:13Z</time>
      </trkpt>
      <trkpt lat="43.39583" lon="6.07919">
        <ele>258.60000610352</ele>
        <time>2016-05-18T12:20:15Z</time>
      </trkpt>
      <trkpt lat="43.39582" lon="6.07923">
        <ele>258.79998779297</ele>
        <time>2016-05-18T12:20:17Z</time>
      </trkpt>
      <trkpt lat="43.39582" lon="6.07929">
        <ele>259</ele>
        <time>2016-05-18T12:20:19Z</time>
      </trkpt>
      <trkpt lat="43.3958" lon="6.07933">
        <ele>259</ele>
        <time>2016-05-18T12:20:21Z</time>
      </trkpt>
      <trkpt lat="43.39577" lon="6.07936">
        <ele>259.39999389648</ele>
        <time>2016-05-18T12:20:23Z</time>
      </trkpt>
      <trkpt lat="43.39576" lon="6.07937">
        <ele>259.60000610352</ele>
        <time>2016-05-18T12:20:24Z</time>
      </trkpt>
      <trkpt lat="43.39575" lon="6.07938">
        <ele>259.79998779297</ele>
        <time>2016-05-18T12:20:25Z</time>
      </trkpt>
      <trkpt lat="43.39573" lon="6.07939">
        <ele>260</ele>
        <time>2016-05-18T12:20:27Z</time>
      </trkpt>
      <trkpt lat="43.3957" lon="6.07939">
        <ele>260.60000610352</ele>
        <time>2016-05-18T12:20:29Z</time>
      </trkpt>
      <trkpt lat="43.39569" lon="6.0794">
        <ele>260.79998779297</ele>
        <time>2016-05-18T12:20:30Z</time>
      </trkpt>
      <trkpt lat="43.39568" lon="6.0794">
        <ele>261</ele>
        <time>2016-05-18T12:20:31Z</time>
      </trkpt>
      <trkpt lat="43.39565" lon="6.07941">
        <ele>261.39999389648</ele>
        <time>2016-05-18T12:20:33Z</time>
      </trkpt>
      <trkpt lat="43.39562" lon="6.07943">
        <ele>262</ele>
        <time>2016-05-18T12:20:35Z</time>
      </trkpt>
      <trkpt lat="43.39559" lon="6.07945">
        <ele>262.60000610352</ele>
        <time>2016-05-18T12:20:37Z</time>
      </trkpt>
      <trkpt lat="43.39556" lon="6.07946">
        <ele>262.79998779297</ele>
        <time>2016-05-18T12:20:39Z</time>
      </trkpt>
      <trkpt lat="43.39555" lon="6.07947">
        <ele>263.20001220703</ele>
        <time>2016-05-18T12:20:40Z</time>
      </trkpt>
      <trkpt lat="43.39553" lon="6.07948">
        <ele>263.39999389648</ele>
        <time>2016-05-18T12:20:41Z</time>
      </trkpt>
      <trkpt lat="43.3955" lon="6.0795">
        <ele>263.60000610352</ele>
        <time>2016-05-18T12:20:43Z</time>
      </trkpt>
      <trkpt lat="43.39547" lon="6.07953">
        <ele>264</ele>
        <time>2016-05-18T12:20:45Z</time>
      </trkpt>
      <trkpt lat="43.39544" lon="6.07955">
        <ele>264</ele>
        <time>2016-05-18T12:20:47Z</time>
      </trkpt>
      <trkpt lat="43.39543" lon="6.07956">
        <ele>264</ele>
        <time>2016-05-18T12:20:48Z</time>
      </trkpt>
      <trkpt lat="43.39541" lon="6.07956">
        <ele>264.20001220703</ele>
        <time>2016-05-18T12:20:49Z</time>
      </trkpt>
      <trkpt lat="43.3954" lon="6.07957">
        <ele>264.39999389648</ele>
        <time>2016-05-18T12:20:50Z</time>
      </trkpt>
      <trkpt lat="43.39539" lon="6.07958">
        <ele>264.39999389648</ele>
        <time>2016-05-18T12:20:51Z</time>
      </trkpt>
      <trkpt lat="43.39536" lon="6.07959">
        <ele>264.60000610352</ele>
        <time>2016-05-18T12:20:53Z</time>
      </trkpt>
      <trkpt lat="43.39532" lon="6.07961">
        <ele>265</ele>
        <time>2016-05-18T12:20:55Z</time>
      </trkpt>
      <trkpt lat="43.39531" lon="6.07961">
        <ele>265.20001220703</ele>
        <time>2016-05-18T12:20:56Z</time>
      </trkpt>
      <trkpt lat="43.39529" lon="6.07962">
        <ele>265.60000610352</ele>
        <time>2016-05-18T12:20:57Z</time>
      </trkpt>
      <trkpt lat="43.39526" lon="6.07963">
        <ele>266.20001220703</ele>
        <time>2016-05-18T12:20:59Z</time>
      </trkpt>
      <trkpt lat="43.39524" lon="6.07965">
        <ele>266.79998779297</ele>
        <time>2016-05-18T12:21:01Z</time>
      </trkpt>
      <trkpt lat="43.39522" lon="6.07965">
        <ele>267</ele>
        <time>2016-05-18T12:21:02Z</time>
      </trkpt>
      <trkpt lat="43.39521" lon="6.07966">
        <ele>267</ele>
        <time>2016-05-18T12:21:03Z</time>
      </trkpt>
      <trkpt lat="43.39518" lon="6.07967">
        <ele>267.20001220703</ele>
        <time>2016-05-18T12:21:05Z</time>
      </trkpt>
      <trkpt lat="43.39516" lon="6.07965">
        <ele>267.20001220703</ele>
        <time>2016-05-18T12:21:07Z</time>
      </trkpt>
      <trkpt lat="43.39515" lon="6.07965">
        <ele>267.20001220703</ele>
        <time>2016-05-18T12:21:08Z</time>
      </trkpt>
      <trkpt lat="43.39514" lon="6.07964">
        <ele>267.20001220703</ele>
        <time>2016-05-18T12:21:09Z</time>
      </trkpt>
      <trkpt lat="43.39512" lon="6.07964">
        <ele>267.20001220703</ele>
        <time>2016-05-18T12:21:11Z</time>
      </trkpt>
      <trkpt lat="43.3951" lon="6.07964">
        <ele>267.39999389648</ele>
        <time>2016-05-18T12:21:13Z</time>
      </trkpt>
      <trkpt lat="43.39508" lon="6.07965">
        <ele>268</ele>
        <time>2016-05-18T12:21:15Z</time>
      </trkpt>
      <trkpt lat="43.39507" lon="6.07966">
        <ele>268.20001220703</ele>
        <time>2016-05-18T12:21:16Z</time>
      </trkpt>
      <trkpt lat="43.39507" lon="6.07967">
        <ele>268.39999389648</ele>
        <time>2016-05-18T12:21:17Z</time>
      </trkpt>
      <trkpt lat="43.39505" lon="6.07966">
        <ele>268.39999389648</ele>
        <time>2016-05-18T12:21:19Z</time>
      </trkpt>
      <trkpt lat="43.39503" lon="6.07965">
        <ele>268.39999389648</ele>
        <time>2016-05-18T12:21:21Z</time>
      </trkpt>
      <trkpt lat="43.39503" lon="6.07965">
        <ele>268.39999389648</ele>
        <time>2016-05-18T12:21:22Z</time>
      </trkpt>
      <trkpt lat="43.39503" lon="6.07964">
        <ele>268.20001220703</ele>
        <time>2016-05-18T12:21:23Z</time>
      </trkpt>
      <trkpt lat="43.39503" lon="6.07964">
        <ele>268.39999389648</ele>
        <time>2016-05-18T12:21:25Z</time>
      </trkpt>
      <trkpt lat="43.39503" lon="6.07964">
        <ele>268.60000610352</ele>
        <time>2016-05-18T12:21:27Z</time>
      </trkpt>
      <trkpt lat="43.39503" lon="6.07964">
        <ele>268.60000610352</ele>
        <time>2016-05-18T12:21:29Z</time>
      </trkpt>
      <trkpt lat="43.39503" lon="6.07965">
        <ele>268.60000610352</ele>
        <time>2016-05-18T12:21:31Z</time>
      </trkpt>
      <trkpt lat="43.39503" lon="6.07965">
        <ele>268.60000610352</ele>
        <time>2016-05-18T12:21:32Z</time>
      </trkpt>
      <trkpt lat="43.39503" lon="6.07965">
        <ele>268.60000610352</ele>
        <time>2016-05-18T12:21:33Z</time>
      </trkpt>
      <trkpt lat="43.39503" lon="6.07965">
        <ele>268.60000610352</ele>
        <time>2016-05-18T12:21:35Z</time>
      </trkpt>
      <trkpt lat="43.39503" lon="6.07965">
        <ele>268.79998779297</ele>
        <time>2016-05-18T12:21:37Z</time>
      </trkpt>
      <trkpt lat="43.39503" lon="6.07965">
        <ele>268.39999389648</ele>
        <time>2016-05-18T12:21:39Z</time>
      </trkpt>
      <trkpt lat="43.39503" lon="6.07965">
        <ele>268</ele>
        <time>2016-05-18T12:21:41Z</time>
      </trkpt>
      <trkpt lat="43.39502" lon="6.07964">
        <ele>267.79998779297</ele>
        <time>2016-05-18T12:21:43Z</time>
      </trkpt>
      <trkpt lat="43.395" lon="6.07961">
        <ele>267.79998779297</ele>
        <time>2016-05-18T12:21:45Z</time>
      </trkpt>
      <trkpt lat="43.395" lon="6.07956">
        <ele>267.79998779297</ele>
        <time>2016-05-18T12:21:47Z</time>
      </trkpt>
      <trkpt lat="43.39499" lon="6.07954">
        <ele>268</ele>
        <time>2016-05-18T12:21:48Z</time>
      </trkpt>
      <trkpt lat="43.39499" lon="6.07951">
        <ele>268.20001220703</ele>
        <time>2016-05-18T12:21:49Z</time>
      </trkpt>
      <trkpt lat="43.39498" lon="6.07947">
        <ele>268.39999389648</ele>
        <time>2016-05-18T12:21:51Z</time>
      </trkpt>
      <trkpt lat="43.39496" lon="6.07946">
        <ele>268.39999389648</ele>
        <time>2016-05-18T12:21:52Z</time>
      </trkpt>
      <trkpt lat="43.39495" lon="6.07944">
        <ele>268.60000610352</ele>
        <time>2016-05-18T12:21:53Z</time>
      </trkpt>
      <trkpt lat="43.39493" lon="6.0794">
        <ele>268.79998779297</ele>
        <time>2016-05-18T12:21:55Z</time>
      </trkpt>
      <trkpt lat="43.39489" lon="6.07936">
        <ele>269</ele>
        <time>2016-05-18T12:21:57Z</time>
      </trkpt>
      <trkpt lat="43.39487" lon="6.07931">
        <ele>269.39999389648</ele>
        <time>2016-05-18T12:21:59Z</time>
      </trkpt>
      <trkpt lat="43.39486" lon="6.07929">
        <ele>269.79998779297</ele>
        <time>2016-05-18T12:22:00Z</time>
      </trkpt>
      <trkpt lat="43.39485" lon="6.07927">
        <ele>270</ele>
        <time>2016-05-18T12:22:01Z</time>
      </trkpt>
      <trkpt lat="43.39484" lon="6.07925">
        <ele>270.20001220703</ele>
        <time>2016-05-18T12:22:02Z</time>
      </trkpt>
      <trkpt lat="43.39483" lon="6.07923">
        <ele>270.20001220703</ele>
        <time>2016-05-18T12:22:03Z</time>
      </trkpt>
      <trkpt lat="43.39482" lon="6.07917">
        <ele>270.39999389648</ele>
        <time>2016-05-18T12:22:05Z</time>
      </trkpt>
      <trkpt lat="43.39481" lon="6.07914">
        <ele>270.39999389648</ele>
        <time>2016-05-18T12:22:06Z</time>
      </trkpt>
      <trkpt lat="43.3948" lon="6.07911">
        <ele>270.60000610352</ele>
        <time>2016-05-18T12:22:07Z</time>
      </trkpt>
      <trkpt lat="43.39477" lon="6.07906">
        <ele>270.79998779297</ele>
        <time>2016-05-18T12:22:09Z</time>
      </trkpt>
      <trkpt lat="43.39474" lon="6.07903">
        <ele>271</ele>
        <time>2016-05-18T12:22:11Z</time>
      </trkpt>
      <trkpt lat="43.39474" lon="6.07901">
        <ele>271.20001220703</ele>
        <time>2016-05-18T12:22:12Z</time>
      </trkpt>
      <trkpt lat="43.39473" lon="6.07899">
        <ele>271.39999389648</ele>
        <time>2016-05-18T12:22:13Z</time>
      </trkpt>
      <trkpt lat="43.39471" lon="6.07898">
        <ele>271.60000610352</ele>
        <time>2016-05-18T12:22:14Z</time>
      </trkpt>
      <trkpt lat="43.3947" lon="6.07897">
        <ele>272</ele>
        <time>2016-05-18T12:22:15Z</time>
      </trkpt>
      <trkpt lat="43.39465" lon="6.07894">
        <ele>272.20001220703</ele>
        <time>2016-05-18T12:22:17Z</time>
      </trkpt>
      <trkpt lat="43.39463" lon="6.07894">
        <ele>272.20001220703</ele>
        <time>2016-05-18T12:22:18Z</time>
      </trkpt>
      <trkpt lat="43.39461" lon="6.07895">
        <ele>272.39999389648</ele>
        <time>2016-05-18T12:22:19Z</time>
      </trkpt>
      <trkpt lat="43.39458" lon="6.07896">
        <ele>273</ele>
        <time>2016-05-18T12:22:21Z</time>
      </trkpt>
      <trkpt lat="43.39458" lon="6.07896">
        <ele>273.39999389648</ele>
        <time>2016-05-18T12:22:23Z</time>
      </trkpt>
      <trkpt lat="43.39459" lon="6.07896">
        <ele>273.39999389648</ele>
        <time>2016-05-18T12:22:24Z</time>
      </trkpt>
      <trkpt lat="43.39459" lon="6.07896">
        <ele>273.60000610352</ele>
        <time>2016-05-18T12:22:25Z</time>
      </trkpt>
      <trkpt lat="43.39459" lon="6.07896">
        <ele>273.79998779297</ele>
        <time>2016-05-18T12:22:27Z</time>
      </trkpt>
      <trkpt lat="43.39459" lon="6.07896">
        <ele>273.79998779297</ele>
        <time>2016-05-18T12:22:29Z</time>
      </trkpt>
      <trkpt lat="43.3946" lon="6.07895">
        <ele>273.79998779297</ele>
        <time>2016-05-18T12:22:31Z</time>
      </trkpt>
      <trkpt lat="43.39461" lon="6.07894">
        <ele>273.60000610352</ele>
        <time>2016-05-18T12:22:33Z</time>
      </trkpt>
      <trkpt lat="43.39461" lon="6.07892">
        <ele>273.20001220703</ele>
        <time>2016-05-18T12:22:35Z</time>
      </trkpt>
      <trkpt lat="43.39461" lon="6.07891">
        <ele>273</ele>
        <time>2016-05-18T12:22:37Z</time>
      </trkpt>
      <trkpt lat="43.3946" lon="6.07891">
        <ele>272.79998779297</ele>
        <time>2016-05-18T12:22:38Z</time>
      </trkpt>
      <trkpt lat="43.39461" lon="6.07892">
        <ele>272.60000610352</ele>
        <time>2016-05-18T12:22:39Z</time>
      </trkpt>
      <trkpt lat="43.39461" lon="6.07892">
        <ele>272.60000610352</ele>
        <time>2016-05-18T12:22:41Z</time>
      </trkpt>
      <trkpt lat="43.39461" lon="6.07891">
        <ele>272.60000610352</ele>
        <time>2016-05-18T12:22:42Z</time>
      </trkpt>
      <trkpt lat="43.3946" lon="6.07891">
        <ele>272.60000610352</ele>
        <time>2016-05-18T12:22:43Z</time>
      </trkpt>
      <trkpt lat="43.39459" lon="6.07891">
        <ele>272.79998779297</ele>
        <time>2016-05-18T12:22:45Z</time>
      </trkpt>
      <trkpt lat="43.39457" lon="6.07892">
        <ele>273</ele>
        <time>2016-05-18T12:22:47Z</time>
      </trkpt>
      <trkpt lat="43.39454" lon="6.07893">
        <ele>273.39999389648</ele>
        <time>2016-05-18T12:22:49Z</time>
      </trkpt>
      <trkpt lat="43.39453" lon="6.07893">
        <ele>273.60000610352</ele>
        <time>2016-05-18T12:22:50Z</time>
      </trkpt>
      <trkpt lat="43.39452" lon="6.07893">
        <ele>274</ele>
        <time>2016-05-18T12:22:51Z</time>
      </trkpt>
      <trkpt lat="43.39449" lon="6.07893">
        <ele>274.79998779297</ele>
        <time>2016-05-18T12:22:53Z</time>
      </trkpt>
      <trkpt lat="43.39447" lon="6.07894">
        <ele>275.20001220703</ele>
        <time>2016-05-18T12:22:54Z</time>
      </trkpt>
      <trkpt lat="43.39447" lon="6.07895">
        <ele>275.79998779297</ele>
        <time>2016-05-18T12:22:55Z</time>
      </trkpt>
      <trkpt lat="43.39446" lon="6.07897">
        <ele>276.79998779297</ele>
        <time>2016-05-18T12:22:57Z</time>
      </trkpt>
      <trkpt lat="43.39445" lon="6.07899">
        <ele>277.20001220703</ele>
        <time>2016-05-18T12:22:59Z</time>
      </trkpt>
      <trkpt lat="43.39445" lon="6.07899">
        <ele>277.20001220703</ele>
        <time>2016-05-18T12:23:01Z</time>
      </trkpt>
      <trkpt lat="43.39445" lon="6.079">
        <ele>277.20001220703</ele>
        <time>2016-05-18T12:23:03Z</time>
      </trkpt>
      <trkpt lat="43.39445" lon="6.079">
        <ele>277.39999389648</ele>
        <time>2016-05-18T12:23:05Z</time>
      </trkpt>
      <trkpt lat="43.39445" lon="6.079">
        <ele>277.39999389648</ele>
        <time>2016-05-18T12:23:07Z</time>
      </trkpt>
      <trkpt lat="43.39445" lon="6.079">
        <ele>277.39999389648</ele>
        <time>2016-05-18T12:23:09Z</time>
      </trkpt>
      <trkpt lat="43.39445" lon="6.079">
        <ele>277.20001220703</ele>
        <time>2016-05-18T12:23:11Z</time>
      </trkpt>
      <trkpt lat="43.39445" lon="6.07901">
        <ele>277</ele>
        <time>2016-05-18T12:23:13Z</time>
      </trkpt>
      <trkpt lat="43.39445" lon="6.07902">
        <ele>277</ele>
        <time>2016-05-18T12:23:14Z</time>
      </trkpt>
      <trkpt lat="43.39445" lon="6.07903">
        <ele>277</ele>
        <time>2016-05-18T12:23:15Z</time>
      </trkpt>
      <trkpt lat="43.39444" lon="6.07908">
        <ele>276.60000610352</ele>
        <time>2016-05-18T12:23:17Z</time>
      </trkpt>
      <trkpt lat="43.39443" lon="6.07913">
        <ele>276.20001220703</ele>
        <time>2016-05-18T12:23:19Z</time>
      </trkpt>
      <trkpt lat="43.39441" lon="6.07921">
        <ele>275.79998779297</ele>
        <time>2016-05-18T12:23:21Z</time>
      </trkpt>
      <trkpt lat="43.39437" lon="6.07928">
        <ele>275.60000610352</ele>
        <time>2016-05-18T12:23:23Z</time>
      </trkpt>
      <trkpt lat="43.39433" lon="6.07936">
        <ele>275.20001220703</ele>
        <time>2016-05-18T12:23:25Z</time>
      </trkpt>
      <trkpt lat="43.3943" lon="6.07945">
        <ele>275.20001220703</ele>
        <time>2016-05-18T12:23:27Z</time>
      </trkpt>
      <trkpt lat="43.39425" lon="6.07952">
        <ele>275</ele>
        <time>2016-05-18T12:23:29Z</time>
      </trkpt>
      <trkpt lat="43.39421" lon="6.07954">
        <ele>275.20001220703</ele>
        <time>2016-05-18T12:23:30Z</time>
      </trkpt>
      <trkpt lat="43.39418" lon="6.07955">
        <ele>275.20001220703</ele>
        <time>2016-05-18T12:23:31Z</time>
      </trkpt>
      <trkpt lat="43.3941" lon="6.07958">
        <ele>275.20001220703</ele>
        <time>2016-05-18T12:23:33Z</time>
      </trkpt>
      <trkpt lat="43.39403" lon="6.0796">
        <ele>275.79998779297</ele>
        <time>2016-05-18T12:23:35Z</time>
      </trkpt>
      <trkpt lat="43.39397" lon="6.07959">
        <ele>276</ele>
        <time>2016-05-18T12:23:37Z</time>
      </trkpt>
      <trkpt lat="43.39392" lon="6.07958">
        <ele>276.79998779297</ele>
        <time>2016-05-18T12:23:39Z</time>
      </trkpt>
      <trkpt lat="43.39386" lon="6.07959">
        <ele>277.79998779297</ele>
        <time>2016-05-18T12:23:41Z</time>
      </trkpt>
      <trkpt lat="43.39381" lon="6.07961">
        <ele>278.39999389648</ele>
        <time>2016-05-18T12:23:43Z</time>
      </trkpt>
      <trkpt lat="43.39377" lon="6.07963">
        <ele>278.60000610352</ele>
        <time>2016-05-18T12:23:45Z</time>
      </trkpt>
      <trkpt lat="43.39376" lon="6.07964">
        <ele>278.60000610352</ele>
        <time>2016-05-18T12:23:46Z</time>
      </trkpt>
      <trkpt lat="43.39375" lon="6.07966">
        <ele>278.60000610352</ele>
        <time>2016-05-18T12:23:47Z</time>
      </trkpt>
      <trkpt lat="43.39374" lon="6.07968">
        <ele>278.60000610352</ele>
        <time>2016-05-18T12:23:48Z</time>
      </trkpt>
      <trkpt lat="43.39373" lon="6.0797">
        <ele>278.60000610352</ele>
        <time>2016-05-18T12:23:49Z</time>
      </trkpt>
      <trkpt lat="43.39371" lon="6.07974">
        <ele>278.39999389648</ele>
        <time>2016-05-18T12:23:51Z</time>
      </trkpt>
      <trkpt lat="43.3937" lon="6.07978">
        <ele>278</ele>
        <time>2016-05-18T12:23:53Z</time>
      </trkpt>
      <trkpt lat="43.39369" lon="6.0798">
        <ele>277.79998779297</ele>
        <time>2016-05-18T12:23:54Z</time>
      </trkpt>
      <trkpt lat="43.39368" lon="6.07982">
        <ele>277.79998779297</ele>
        <time>2016-05-18T12:23:55Z</time>
      </trkpt>
      <trkpt lat="43.39367" lon="6.07986">
        <ele>277.60000610352</ele>
        <time>2016-05-18T12:23:57Z</time>
      </trkpt>
      <trkpt lat="43.39367" lon="6.07987">
        <ele>278</ele>
        <time>2016-05-18T12:23:59Z</time>
      </trkpt>
      <trkpt lat="43.39366" lon="6.07989">
        <ele>278</ele>
        <time>2016-05-18T12:24:00Z</time>
      </trkpt>
      <trkpt lat="43.39366" lon="6.07991">
        <ele>278</ele>
        <time>2016-05-18T12:24:01Z</time>
      </trkpt>
      <trkpt lat="43.39366" lon="6.07991">
        <ele>278</ele>
        <time>2016-05-18T12:24:03Z</time>
      </trkpt>
      <trkpt lat="43.39366" lon="6.07991">
        <ele>278</ele>
        <time>2016-05-18T12:24:05Z</time>
      </trkpt>
      <trkpt lat="43.39366" lon="6.07991">
        <ele>278</ele>
        <time>2016-05-18T12:24:06Z</time>
      </trkpt>
      <trkpt lat="43.39366" lon="6.07991">
        <ele>277.79998779297</ele>
        <time>2016-05-18T12:24:07Z</time>
      </trkpt>
      <trkpt lat="43.39366" lon="6.07991">
        <ele>277.79998779297</ele>
        <time>2016-05-18T12:24:09Z</time>
      </trkpt>
      <trkpt lat="43.39366" lon="6.07991">
        <ele>277.60000610352</ele>
        <time>2016-05-18T12:24:11Z</time>
      </trkpt>
      <trkpt lat="43.39366" lon="6.07991">
        <ele>277.79998779297</ele>
        <time>2016-05-18T12:24:13Z</time>
      </trkpt>
      <trkpt lat="43.39366" lon="6.07991">
        <ele>277.79998779297</ele>
        <time>2016-05-18T12:24:14Z</time>
      </trkpt>
      <trkpt lat="43.39365" lon="6.07992">
        <ele>277.79998779297</ele>
        <time>2016-05-18T12:24:15Z</time>
      </trkpt>
      <trkpt lat="43.39364" lon="6.07994">
        <ele>277.79998779297</ele>
        <time>2016-05-18T12:24:16Z</time>
      </trkpt>
      <trkpt lat="43.39363" lon="6.07995">
        <ele>277.79998779297</ele>
        <time>2016-05-18T12:24:17Z</time>
      </trkpt>
      <trkpt lat="43.39361" lon="6.08">
        <ele>277.79998779297</ele>
        <time>2016-05-18T12:24:19Z</time>
      </trkpt>
      <trkpt lat="43.39358" lon="6.08007">
        <ele>277.60000610352</ele>
        <time>2016-05-18T12:24:21Z</time>
      </trkpt>
      <trkpt lat="43.39356" lon="6.08009">
        <ele>277.60000610352</ele>
        <time>2016-05-18T12:24:22Z</time>
      </trkpt>
      <trkpt lat="43.39355" lon="6.08012">
        <ele>277.60000610352</ele>
        <time>2016-05-18T12:24:23Z</time>
      </trkpt>
      <trkpt lat="43.39351" lon="6.08016">
        <ele>277.60000610352</ele>
        <time>2016-05-18T12:24:25Z</time>
      </trkpt>
      <trkpt lat="43.39349" lon="6.08021">
        <ele>277.60000610352</ele>
        <time>2016-05-18T12:24:27Z</time>
      </trkpt>
      <trkpt lat="43.39346" lon="6.08026">
        <ele>278</ele>
        <time>2016-05-18T12:24:29Z</time>
      </trkpt>
      <trkpt lat="43.39344" lon="6.0803">
        <ele>278.39999389648</ele>
        <time>2016-05-18T12:24:31Z</time>
      </trkpt>
      <trkpt lat="43.39342" lon="6.0803">
        <ele>278.60000610352</ele>
        <time>2016-05-18T12:24:32Z</time>
      </trkpt>
      <trkpt lat="43.39341" lon="6.08032">
        <ele>278.79998779297</ele>
        <time>2016-05-18T12:24:33Z</time>
      </trkpt>
      <trkpt lat="43.39337" lon="6.08037">
        <ele>279.60000610352</ele>
        <time>2016-05-18T12:24:35Z</time>
      </trkpt>
      <trkpt lat="43.39336" lon="6.08041">
        <ele>279.60000610352</ele>
        <time>2016-05-18T12:24:36Z</time>
      </trkpt>
      <trkpt lat="43.39334" lon="6.08044">
        <ele>279.79998779297</ele>
        <time>2016-05-18T12:24:37Z</time>
      </trkpt>
      <trkpt lat="43.39331" lon="6.08051">
        <ele>279.79998779297</ele>
        <time>2016-05-18T12:24:39Z</time>
      </trkpt>
      <trkpt lat="43.39327" lon="6.08059">
        <ele>280</ele>
        <time>2016-05-18T12:24:41Z</time>
      </trkpt>
      <trkpt lat="43.39324" lon="6.08065">
        <ele>280</ele>
        <time>2016-05-18T12:24:43Z</time>
      </trkpt>
      <trkpt lat="43.3932" lon="6.08069">
        <ele>280.39999389648</ele>
        <time>2016-05-18T12:24:45Z</time>
      </trkpt>
      <trkpt lat="43.39319" lon="6.08072">
        <ele>280.60000610352</ele>
        <time>2016-05-18T12:24:46Z</time>
      </trkpt>
      <trkpt lat="43.39317" lon="6.08074">
        <ele>281</ele>
        <time>2016-05-18T12:24:47Z</time>
      </trkpt>
      <trkpt lat="43.39314" lon="6.08079">
        <ele>281.20001220703</ele>
        <time>2016-05-18T12:24:49Z</time>
      </trkpt>
      <trkpt lat="43.39312" lon="6.08084">
        <ele>281.39999389648</ele>
        <time>2016-05-18T12:24:51Z</time>
      </trkpt>
      <trkpt lat="43.3931" lon="6.08086">
        <ele>281.39999389648</ele>
        <time>2016-05-18T12:24:52Z</time>
      </trkpt>
      <trkpt lat="43.39309" lon="6.08089">
        <ele>281.20001220703</ele>
        <time>2016-05-18T12:24:53Z</time>
      </trkpt>
      <trkpt lat="43.39306" lon="6.08094">
        <ele>281.39999389648</ele>
        <time>2016-05-18T12:24:55Z</time>
      </trkpt>
      <trkpt lat="43.39304" lon="6.08098">
        <ele>282</ele>
        <time>2016-05-18T12:24:57Z</time>
      </trkpt>
      <trkpt lat="43.39302" lon="6.08105">
        <ele>282.60000610352</ele>
        <time>2016-05-18T12:24:59Z</time>
      </trkpt>
      <trkpt lat="43.393" lon="6.08112">
        <ele>283.20001220703</ele>
        <time>2016-05-18T12:25:01Z</time>
      </trkpt>
      <trkpt lat="43.39297" lon="6.08118">
        <ele>283.79998779297</ele>
        <time>2016-05-18T12:25:03Z</time>
      </trkpt>
      <trkpt lat="43.39295" lon="6.08125">
        <ele>284</ele>
        <time>2016-05-18T12:25:05Z</time>
      </trkpt>
      <trkpt lat="43.39294" lon="6.08129">
        <ele>284</ele>
        <time>2016-05-18T12:25:06Z</time>
      </trkpt>
      <trkpt lat="43.39294" lon="6.08132">
        <ele>284</ele>
        <time>2016-05-18T12:25:07Z</time>
      </trkpt>
      <trkpt lat="43.39294" lon="6.08138">
        <ele>284.39999389648</ele>
        <time>2016-05-18T12:25:09Z</time>
      </trkpt>
      <trkpt lat="43.39294" lon="6.08144">
        <ele>284.60000610352</ele>
        <time>2016-05-18T12:25:11Z</time>
      </trkpt>
      <trkpt lat="43.39294" lon="6.08146">
        <ele>284.79998779297</ele>
        <time>2016-05-18T12:25:12Z</time>
      </trkpt>
      <trkpt lat="43.39294" lon="6.08147">
        <ele>284.79998779297</ele>
        <time>2016-05-18T12:25:13Z</time>
      </trkpt>
      <trkpt lat="43.39294" lon="6.08147">
        <ele>284.79998779297</ele>
        <time>2016-05-18T12:25:15Z</time>
      </trkpt>
      <trkpt lat="43.39294" lon="6.08147">
        <ele>285</ele>
        <time>2016-05-18T12:25:17Z</time>
      </trkpt>
      <trkpt lat="43.39294" lon="6.08149">
        <ele>285</ele>
        <time>2016-05-18T12:25:19Z</time>
      </trkpt>
      <trkpt lat="43.39294" lon="6.0815">
        <ele>285.39999389648</ele>
        <time>2016-05-18T12:25:21Z</time>
      </trkpt>
      <trkpt lat="43.39294" lon="6.0815">
        <ele>285.39999389648</ele>
        <time>2016-05-18T12:25:23Z</time>
      </trkpt>
      <trkpt lat="43.39294" lon="6.0815">
        <ele>285.60000610352</ele>
        <time>2016-05-18T12:25:25Z</time>
      </trkpt>
      <trkpt lat="43.39294" lon="6.08151">
        <ele>285.79998779297</ele>
        <time>2016-05-18T12:25:26Z</time>
      </trkpt>
      <trkpt lat="43.39294" lon="6.08152">
        <ele>285.79998779297</ele>
        <time>2016-05-18T12:25:27Z</time>
      </trkpt>
      <trkpt lat="43.39293" lon="6.08154">
        <ele>285.79998779297</ele>
        <time>2016-05-18T12:25:29Z</time>
      </trkpt>
      <trkpt lat="43.39292" lon="6.08158">
        <ele>285.79998779297</ele>
        <time>2016-05-18T12:25:31Z</time>
      </trkpt>
      <trkpt lat="43.39291" lon="6.08162">
        <ele>286</ele>
        <time>2016-05-18T12:25:33Z</time>
      </trkpt>
      <trkpt lat="43.3929" lon="6.08166">
        <ele>286.39999389648</ele>
        <time>2016-05-18T12:25:35Z</time>
      </trkpt>
      <trkpt lat="43.39289" lon="6.08168">
        <ele>286.39999389648</ele>
        <time>2016-05-18T12:25:36Z</time>
      </trkpt>
      <trkpt lat="43.39288" lon="6.0817">
        <ele>286.60000610352</ele>
        <time>2016-05-18T12:25:37Z</time>
      </trkpt>
      <trkpt lat="43.39288" lon="6.08172">
        <ele>286.79998779297</ele>
        <time>2016-05-18T12:25:39Z</time>
      </trkpt>
      <trkpt lat="43.39288" lon="6.08173">
        <ele>287</ele>
        <time>2016-05-18T12:25:40Z</time>
      </trkpt>
      <trkpt lat="43.39287" lon="6.08173">
        <ele>287.20001220703</ele>
        <time>2016-05-18T12:25:41Z</time>
      </trkpt>
      <trkpt lat="43.39287" lon="6.08174">
        <ele>287.20001220703</ele>
        <time>2016-05-18T12:25:42Z</time>
      </trkpt>
      <trkpt lat="43.39286" lon="6.08175">
        <ele>287.20001220703</ele>
        <time>2016-05-18T12:25:43Z</time>
      </trkpt>
      <trkpt lat="43.39286" lon="6.08179">
        <ele>287.39999389648</ele>
        <time>2016-05-18T12:25:45Z</time>
      </trkpt>
      <trkpt lat="43.39286" lon="6.0818">
        <ele>287.60000610352</ele>
        <time>2016-05-18T12:25:46Z</time>
      </trkpt>
      <trkpt lat="43.39286" lon="6.08182">
        <ele>287.60000610352</ele>
        <time>2016-05-18T12:25:47Z</time>
      </trkpt>
      <trkpt lat="43.39285" lon="6.08185">
        <ele>287.60000610352</ele>
        <time>2016-05-18T12:25:49Z</time>
      </trkpt>
      <trkpt lat="43.39285" lon="6.08185">
        <ele>287.60000610352</ele>
        <time>2016-05-18T12:25:51Z</time>
      </trkpt>
      <trkpt lat="43.39283" lon="6.08185">
        <ele>287.60000610352</ele>
        <time>2016-05-18T12:25:53Z</time>
      </trkpt>
      <trkpt lat="43.39283" lon="6.08185">
        <ele>287.79998779297</ele>
        <time>2016-05-18T12:25:55Z</time>
      </trkpt>
      <trkpt lat="43.39281" lon="6.08186">
        <ele>288.39999389648</ele>
        <time>2016-05-18T12:25:57Z</time>
      </trkpt>
      <trkpt lat="43.3928" lon="6.08188">
        <ele>288.79998779297</ele>
        <time>2016-05-18T12:25:59Z</time>
      </trkpt>
      <trkpt lat="43.39281" lon="6.08189">
        <ele>289</ele>
        <time>2016-05-18T12:26:01Z</time>
      </trkpt>
      <trkpt lat="43.39281" lon="6.0819">
        <ele>289</ele>
        <time>2016-05-18T12:26:03Z</time>
      </trkpt>
      <trkpt lat="43.39281" lon="6.08191">
        <ele>289.39999389648</ele>
        <time>2016-05-18T12:26:05Z</time>
      </trkpt>
      <trkpt lat="43.39281" lon="6.08191">
        <ele>289.39999389648</ele>
        <time>2016-05-18T12:26:07Z</time>
      </trkpt>
      <trkpt lat="43.39281" lon="6.08191">
        <ele>289.20001220703</ele>
        <time>2016-05-18T12:26:09Z</time>
      </trkpt>
      <trkpt lat="43.39281" lon="6.08191">
        <ele>289.20001220703</ele>
        <time>2016-05-18T12:26:11Z</time>
      </trkpt>
      <trkpt lat="43.3928" lon="6.08192">
        <ele>289.20001220703</ele>
        <time>2016-05-18T12:26:13Z</time>
      </trkpt>
      <trkpt lat="43.3928" lon="6.08193">
        <ele>289.20001220703</ele>
        <time>2016-05-18T12:26:14Z</time>
      </trkpt>
      <trkpt lat="43.3928" lon="6.08195">
        <ele>289.20001220703</ele>
        <time>2016-05-18T12:26:15Z</time>
      </trkpt>
      <trkpt lat="43.3928" lon="6.08198">
        <ele>289.20001220703</ele>
        <time>2016-05-18T12:26:16Z</time>
      </trkpt>
      <trkpt lat="43.3928" lon="6.08201">
        <ele>289.20001220703</ele>
        <time>2016-05-18T12:26:17Z</time>
      </trkpt>
      <trkpt lat="43.39279" lon="6.08207">
        <ele>289.60000610352</ele>
        <time>2016-05-18T12:26:19Z</time>
      </trkpt>
      <trkpt lat="43.39278" lon="6.0821">
        <ele>289.79998779297</ele>
        <time>2016-05-18T12:26:20Z</time>
      </trkpt>
      <trkpt lat="43.39278" lon="6.08213">
        <ele>289.79998779297</ele>
        <time>2016-05-18T12:26:21Z</time>
      </trkpt>
      <trkpt lat="43.39278" lon="6.08219">
        <ele>290</ele>
        <time>2016-05-18T12:26:23Z</time>
      </trkpt>
      <trkpt lat="43.39276" lon="6.08224">
        <ele>290.39999389648</ele>
        <time>2016-05-18T12:26:25Z</time>
      </trkpt>
      <trkpt lat="43.39275" lon="6.08229">
        <ele>290.60000610352</ele>
        <time>2016-05-18T12:26:27Z</time>
      </trkpt>
      <trkpt lat="43.39274" lon="6.08231">
        <ele>290.79998779297</ele>
        <time>2016-05-18T12:26:28Z</time>
      </trkpt>
      <trkpt lat="43.39273" lon="6.08234">
        <ele>290.79998779297</ele>
        <time>2016-05-18T12:26:29Z</time>
      </trkpt>
      <trkpt lat="43.39272" lon="6.0824">
        <ele>290.79998779297</ele>
        <time>2016-05-18T12:26:31Z</time>
      </trkpt>
      <trkpt lat="43.39272" lon="6.08245">
        <ele>291.20001220703</ele>
        <time>2016-05-18T12:26:33Z</time>
      </trkpt>
      <trkpt lat="43.39271" lon="6.0825">
        <ele>291.60000610352</ele>
        <time>2016-05-18T12:26:35Z</time>
      </trkpt>
      <trkpt lat="43.3927" lon="6.08256">
        <ele>292.20001220703</ele>
        <time>2016-05-18T12:26:37Z</time>
      </trkpt>
      <trkpt lat="43.39268" lon="6.08261">
        <ele>292.39999389648</ele>
        <time>2016-05-18T12:26:39Z</time>
      </trkpt>
      <trkpt lat="43.39267" lon="6.08262">
        <ele>292.39999389648</ele>
        <time>2016-05-18T12:26:40Z</time>
      </trkpt>
      <trkpt lat="43.39265" lon="6.08263">
        <ele>292.79998779297</ele>
        <time>2016-05-18T12:26:41Z</time>
      </trkpt>
      <trkpt lat="43.39262" lon="6.08265">
        <ele>293.60000610352</ele>
        <time>2016-05-18T12:26:43Z</time>
      </trkpt>
      <trkpt lat="43.39261" lon="6.08267">
        <ele>294</ele>
        <time>2016-05-18T12:26:45Z</time>
      </trkpt>
      <trkpt lat="43.3926" lon="6.08269">
        <ele>294</ele>
        <time>2016-05-18T12:26:46Z</time>
      </trkpt>
      <trkpt lat="43.39259" lon="6.0827">
        <ele>294.20001220703</ele>
        <time>2016-05-18T12:26:47Z</time>
      </trkpt>
      <trkpt lat="43.39256" lon="6.08273">
        <ele>294.20001220703</ele>
        <time>2016-05-18T12:26:49Z</time>
      </trkpt>
      <trkpt lat="43.39254" lon="6.08276">
        <ele>294.20001220703</ele>
        <time>2016-05-18T12:26:51Z</time>
      </trkpt>
      <trkpt lat="43.39252" lon="6.08276">
        <ele>294.39999389648</ele>
        <time>2016-05-18T12:26:52Z</time>
      </trkpt>
      <trkpt lat="43.39252" lon="6.08278">
        <ele>294.39999389648</ele>
        <time>2016-05-18T12:26:53Z</time>
      </trkpt>
      <trkpt lat="43.3925" lon="6.08281">
        <ele>294.39999389648</ele>
        <time>2016-05-18T12:26:55Z</time>
      </trkpt>
      <trkpt lat="43.3925" lon="6.08281">
        <ele>294.79998779297</ele>
        <time>2016-05-18T12:26:56Z</time>
      </trkpt>
      <trkpt lat="43.3925" lon="6.08281">
        <ele>294.79998779297</ele>
        <time>2016-05-18T12:26:57Z</time>
      </trkpt>
      <trkpt lat="43.3925" lon="6.08281">
        <ele>294.79998779297</ele>
        <time>2016-05-18T12:26:59Z</time>
      </trkpt>
      <trkpt lat="43.3925" lon="6.08281">
        <ele>295</ele>
        <time>2016-05-18T12:27:01Z</time>
      </trkpt>
      <trkpt lat="43.39249" lon="6.0828">
        <ele>295.20001220703</ele>
        <time>2016-05-18T12:27:03Z</time>
      </trkpt>
      <trkpt lat="43.39249" lon="6.08281">
        <ele>295</ele>
        <time>2016-05-18T12:27:05Z</time>
      </trkpt>
      <trkpt lat="43.39249" lon="6.08281">
        <ele>295</ele>
        <time>2016-05-18T12:27:07Z</time>
      </trkpt>
      <trkpt lat="43.39249" lon="6.08281">
        <ele>295</ele>
        <time>2016-05-18T12:27:09Z</time>
      </trkpt>
      <trkpt lat="43.39249" lon="6.08281">
        <ele>295.20001220703</ele>
        <time>2016-05-18T12:27:11Z</time>
      </trkpt>
      <trkpt lat="43.39249" lon="6.08282">
        <ele>295.60000610352</ele>
        <time>2016-05-18T12:27:13Z</time>
      </trkpt>
      <trkpt lat="43.39248" lon="6.08284">
        <ele>295.79998779297</ele>
        <time>2016-05-18T12:27:15Z</time>
      </trkpt>
      <trkpt lat="43.39248" lon="6.08285">
        <ele>295.79998779297</ele>
        <time>2016-05-18T12:27:16Z</time>
      </trkpt>
      <trkpt lat="43.39248" lon="6.08286">
        <ele>296</ele>
        <time>2016-05-18T12:27:17Z</time>
      </trkpt>
      <trkpt lat="43.39248" lon="6.08287">
        <ele>296</ele>
        <time>2016-05-18T12:27:19Z</time>
      </trkpt>
      <trkpt lat="43.39248" lon="6.08287">
        <ele>296</ele>
        <time>2016-05-18T12:27:21Z</time>
      </trkpt>
      <trkpt lat="43.39248" lon="6.08287">
        <ele>296</ele>
        <time>2016-05-18T12:27:23Z</time>
      </trkpt>
      <trkpt lat="43.39248" lon="6.08287">
        <ele>296</ele>
        <time>2016-05-18T12:27:25Z</time>
      </trkpt>
      <trkpt lat="43.39248" lon="6.08287">
        <ele>295.79998779297</ele>
        <time>2016-05-18T12:27:27Z</time>
      </trkpt>
      <trkpt lat="43.39248" lon="6.08287">
        <ele>295.79998779297</ele>
        <time>2016-05-18T12:27:29Z</time>
      </trkpt>
      <trkpt lat="43.39248" lon="6.08287">
        <ele>295.79998779297</ele>
        <time>2016-05-18T12:27:31Z</time>
      </trkpt>
      <trkpt lat="43.39248" lon="6.08287">
        <ele>295.60000610352</ele>
        <time>2016-05-18T12:27:33Z</time>
      </trkpt>
      <trkpt lat="43.39248" lon="6.08287">
        <ele>295.60000610352</ele>
        <time>2016-05-18T12:27:35Z</time>
      </trkpt>
      <trkpt lat="43.39248" lon="6.08287">
        <ele>295.79998779297</ele>
        <time>2016-05-18T12:27:37Z</time>
      </trkpt>
      <trkpt lat="43.39248" lon="6.08287">
        <ele>296</ele>
        <time>2016-05-18T12:27:39Z</time>
      </trkpt>
      <trkpt lat="43.39248" lon="6.08287">
        <ele>296.20001220703</ele>
        <time>2016-05-18T12:27:41Z</time>
      </trkpt>
      <trkpt lat="43.39248" lon="6.08287">
        <ele>296</ele>
        <time>2016-05-18T12:27:43Z</time>
      </trkpt>
      <trkpt lat="43.39248" lon="6.08287">
        <ele>296</ele>
        <time>2016-05-18T12:27:44Z</time>
      </trkpt>
      <trkpt lat="43.39248" lon="6.08287">
        <ele>296</ele>
        <time>2016-05-18T12:27:45Z</time>
      </trkpt>
      <trkpt lat="43.39248" lon="6.08287">
        <ele>296</ele>
        <time>2016-05-18T12:27:47Z</time>
      </trkpt>
      <trkpt lat="43.39248" lon="6.08287">
        <ele>296</ele>
        <time>2016-05-18T12:27:49Z</time>
      </trkpt>
      <trkpt lat="43.39248" lon="6.08287">
        <ele>296</ele>
        <time>2016-05-18T12:27:51Z</time>
      </trkpt>
      <trkpt lat="43.39247" lon="6.08289">
        <ele>296.39999389648</ele>
        <time>2016-05-18T12:27:53Z</time>
      </trkpt>
      <trkpt lat="43.39246" lon="6.08291">
        <ele>296.20001220703</ele>
        <time>2016-05-18T12:27:54Z</time>
      </trkpt>
      <trkpt lat="43.39245" lon="6.08293">
        <ele>296.20001220703</ele>
        <time>2016-05-18T12:27:55Z</time>
      </trkpt>
      <trkpt lat="43.39243" lon="6.08298">
        <ele>296.20001220703</ele>
        <time>2016-05-18T12:27:57Z</time>
      </trkpt>
      <trkpt lat="43.39241" lon="6.08304">
        <ele>296.60000610352</ele>
        <time>2016-05-18T12:27:59Z</time>
      </trkpt>
      <trkpt lat="43.39241" lon="6.08306">
        <ele>296.79998779297</ele>
        <time>2016-05-18T12:28:00Z</time>
      </trkpt>
      <trkpt lat="43.3924" lon="6.08308">
        <ele>297</ele>
        <time>2016-05-18T12:28:01Z</time>
      </trkpt>
      <trkpt lat="43.3924" lon="6.08308">
        <ele>297.60000610352</ele>
        <time>2016-05-18T12:28:03Z</time>
      </trkpt>
      <trkpt lat="43.3924" lon="6.08308">
        <ele>297.79998779297</ele>
        <time>2016-05-18T12:28:04Z</time>
      </trkpt>
      <trkpt lat="43.39239" lon="6.08307">
        <ele>298</ele>
        <time>2016-05-18T12:28:05Z</time>
      </trkpt>
      <trkpt lat="43.39238" lon="6.08308">
        <ele>298</ele>
        <time>2016-05-18T12:28:07Z</time>
      </trkpt>
      <trkpt lat="43.39238" lon="6.08308">
        <ele>298.20001220703</ele>
        <time>2016-05-18T12:28:09Z</time>
      </trkpt>
      <trkpt lat="43.39236" lon="6.0831">
        <ele>298.20001220703</ele>
        <time>2016-05-18T12:28:11Z</time>
      </trkpt>
      <trkpt lat="43.39235" lon="6.08311">
        <ele>298.20001220703</ele>
        <time>2016-05-18T12:28:13Z</time>
      </trkpt>
      <trkpt lat="43.39234" lon="6.08311">
        <ele>298.20001220703</ele>
        <time>2016-05-18T12:28:15Z</time>
      </trkpt>
      <trkpt lat="43.39233" lon="6.0831">
        <ele>298.20001220703</ele>
        <time>2016-05-18T12:28:17Z</time>
      </trkpt>
      <trkpt lat="43.39233" lon="6.0831">
        <ele>298.20001220703</ele>
        <time>2016-05-18T12:28:19Z</time>
      </trkpt>
      <trkpt lat="43.39233" lon="6.0831">
        <ele>298.20001220703</ele>
        <time>2016-05-18T12:28:21Z</time>
      </trkpt>
      <trkpt lat="43.39233" lon="6.0831">
        <ele>298.20001220703</ele>
        <time>2016-05-18T12:28:22Z</time>
      </trkpt>
      <trkpt lat="43.39233" lon="6.08309">
        <ele>298.20001220703</ele>
        <time>2016-05-18T12:28:23Z</time>
      </trkpt>
      <trkpt lat="43.39233" lon="6.0831">
        <ele>298.39999389648</ele>
        <time>2016-05-18T12:28:25Z</time>
      </trkpt>
      <trkpt lat="43.39232" lon="6.0831">
        <ele>298.39999389648</ele>
        <time>2016-05-18T12:28:27Z</time>
      </trkpt>
      <trkpt lat="43.39232" lon="6.0831">
        <ele>298.20001220703</ele>
        <time>2016-05-18T12:28:29Z</time>
      </trkpt>
      <trkpt lat="43.39232" lon="6.0831">
        <ele>298</ele>
        <time>2016-05-18T12:28:31Z</time>
      </trkpt>
      <trkpt lat="43.39233" lon="6.08311">
        <ele>298.20001220703</ele>
        <time>2016-05-18T12:28:33Z</time>
      </trkpt>
      <trkpt lat="43.39233" lon="6.08311">
        <ele>298.20001220703</ele>
        <time>2016-05-18T12:28:35Z</time>
      </trkpt>
      <trkpt lat="43.39233" lon="6.08311">
        <ele>298.39999389648</ele>
        <time>2016-05-18T12:28:37Z</time>
      </trkpt>
      <trkpt lat="43.39233" lon="6.08312">
        <ele>298.60000610352</ele>
        <time>2016-05-18T12:28:39Z</time>
      </trkpt>
      <trkpt lat="43.39233" lon="6.08315">
        <ele>298.60000610352</ele>
        <time>2016-05-18T12:28:41Z</time>
      </trkpt>
      <trkpt lat="43.39233" lon="6.08316">
        <ele>298.79998779297</ele>
        <time>2016-05-18T12:28:42Z</time>
      </trkpt>
      <trkpt lat="43.39233" lon="6.08318">
        <ele>298.79998779297</ele>
        <time>2016-05-18T12:28:43Z</time>
      </trkpt>
      <trkpt lat="43.39231" lon="6.08319">
        <ele>299</ele>
        <time>2016-05-18T12:28:45Z</time>
      </trkpt>
      <trkpt lat="43.39231" lon="6.08319">
        <ele>299.39999389648</ele>
        <time>2016-05-18T12:28:46Z</time>
      </trkpt>
      <trkpt lat="43.3923" lon="6.0832">
        <ele>299.39999389648</ele>
        <time>2016-05-18T12:28:47Z</time>
      </trkpt>
      <trkpt lat="43.3923" lon="6.0832">
        <ele>299.60000610352</ele>
        <time>2016-05-18T12:28:49Z</time>
      </trkpt>
      <trkpt lat="43.3923" lon="6.0832">
        <ele>299.39999389648</ele>
        <time>2016-05-18T12:28:51Z</time>
      </trkpt>
      <trkpt lat="43.3923" lon="6.0832">
        <ele>299.39999389648</ele>
        <time>2016-05-18T12:28:52Z</time>
      </trkpt>
      <trkpt lat="43.3923" lon="6.0832">
        <ele>299.39999389648</ele>
        <time>2016-05-18T12:28:53Z</time>
      </trkpt>
      <trkpt lat="43.3923" lon="6.0832">
        <ele>299.39999389648</ele>
        <time>2016-05-18T12:28:55Z</time>
      </trkpt>
      <trkpt lat="43.39228" lon="6.08322">
        <ele>299.20001220703</ele>
        <time>2016-05-18T12:28:57Z</time>
      </trkpt>
      <trkpt lat="43.39227" lon="6.08322">
        <ele>299.39999389648</ele>
        <time>2016-05-18T12:28:58Z</time>
      </trkpt>
      <trkpt lat="43.39227" lon="6.08323">
        <ele>299.39999389648</ele>
        <time>2016-05-18T12:28:59Z</time>
      </trkpt>
      <trkpt lat="43.39226" lon="6.08324">
        <ele>299.79998779297</ele>
        <time>2016-05-18T12:29:01Z</time>
      </trkpt>
      <trkpt lat="43.39227" lon="6.08324">
        <ele>300</ele>
        <time>2016-05-18T12:29:03Z</time>
      </trkpt>
      <trkpt lat="43.39226" lon="6.08324">
        <ele>300</ele>
        <time>2016-05-18T12:29:05Z</time>
      </trkpt>
      <trkpt lat="43.39226" lon="6.08325">
        <ele>299.79998779297</ele>
        <time>2016-05-18T12:29:07Z</time>
      </trkpt>
      <trkpt lat="43.39226" lon="6.08325">
        <ele>299.79998779297</ele>
        <time>2016-05-18T12:29:09Z</time>
      </trkpt>
      <trkpt lat="43.39226" lon="6.08325">
        <ele>300</ele>
        <time>2016-05-18T12:29:10Z</time>
      </trkpt>
      <trkpt lat="43.39226" lon="6.08325">
        <ele>300</ele>
        <time>2016-05-18T12:29:11Z</time>
      </trkpt>
      <trkpt lat="43.39226" lon="6.08326">
        <ele>299.79998779297</ele>
        <time>2016-05-18T12:29:13Z</time>
      </trkpt>
      <trkpt lat="43.39225" lon="6.0833">
        <ele>299.79998779297</ele>
        <time>2016-05-18T12:29:15Z</time>
      </trkpt>
      <trkpt lat="43.39225" lon="6.08333">
        <ele>300</ele>
        <time>2016-05-18T12:29:16Z</time>
      </trkpt>
      <trkpt lat="43.39224" lon="6.08335">
        <ele>300.20001220703</ele>
        <time>2016-05-18T12:29:17Z</time>
      </trkpt>
      <trkpt lat="43.39223" lon="6.08342">
        <ele>300.39999389648</ele>
        <time>2016-05-18T12:29:19Z</time>
      </trkpt>
      <trkpt lat="43.39222" lon="6.08348">
        <ele>300.79998779297</ele>
        <time>2016-05-18T12:29:21Z</time>
      </trkpt>
      <trkpt lat="43.39221" lon="6.08351">
        <ele>300.79998779297</ele>
        <time>2016-05-18T12:29:22Z</time>
      </trkpt>
      <trkpt lat="43.3922" lon="6.08354">
        <ele>300.79998779297</ele>
        <time>2016-05-18T12:29:23Z</time>
      </trkpt>
      <trkpt lat="43.3922" lon="6.08361">
        <ele>301.20001220703</ele>
        <time>2016-05-18T12:29:25Z</time>
      </trkpt>
      <trkpt lat="43.39219" lon="6.08368">
        <ele>301.79998779297</ele>
        <time>2016-05-18T12:29:27Z</time>
      </trkpt>
      <trkpt lat="43.39217" lon="6.08373">
        <ele>302.39999389648</ele>
        <time>2016-05-18T12:29:29Z</time>
      </trkpt>
      <trkpt lat="43.39216" lon="6.08376">
        <ele>302.60000610352</ele>
        <time>2016-05-18T12:29:30Z</time>
      </trkpt>
      <trkpt lat="43.39215" lon="6.08377">
        <ele>302.60000610352</ele>
        <time>2016-05-18T12:29:31Z</time>
      </trkpt>
      <trkpt lat="43.39215" lon="6.08377">
        <ele>303</ele>
        <time>2016-05-18T12:29:32Z</time>
      </trkpt>
      <trkpt lat="43.39215" lon="6.08378">
        <ele>303.20001220703</ele>
        <time>2016-05-18T12:29:33Z</time>
      </trkpt>
      <trkpt lat="43.39215" lon="6.08379">
        <ele>303.60000610352</ele>
        <time>2016-05-18T12:29:34Z</time>
      </trkpt>
      <trkpt lat="43.39215" lon="6.08381">
        <ele>303.60000610352</ele>
        <time>2016-05-18T12:29:35Z</time>
      </trkpt>
      <trkpt lat="43.39214" lon="6.08387">
        <ele>303.79998779297</ele>
        <time>2016-05-18T12:29:37Z</time>
      </trkpt>
      <trkpt lat="43.39214" lon="6.08393">
        <ele>304.20001220703</ele>
        <time>2016-05-18T12:29:39Z</time>
      </trkpt>
      <trkpt lat="43.39214" lon="6.084">
        <ele>304.60000610352</ele>
        <time>2016-05-18T12:29:41Z</time>
      </trkpt>
      <trkpt lat="43.39214" lon="6.08403">
        <ele>304.60000610352</ele>
        <time>2016-05-18T12:29:42Z</time>
      </trkpt>
      <trkpt lat="43.39214" lon="6.08405">
        <ele>304.79998779297</ele>
        <time>2016-05-18T12:29:43Z</time>
      </trkpt>
      <trkpt lat="43.39212" lon="6.08407">
        <ele>305</ele>
        <time>2016-05-18T12:29:44Z</time>
      </trkpt>
      <trkpt lat="43.39212" lon="6.08408">
        <ele>305.20001220703</ele>
        <time>2016-05-18T12:29:45Z</time>
      </trkpt>
      <trkpt lat="43.39212" lon="6.08409">
        <ele>305.60000610352</ele>
        <time>2016-05-18T12:29:47Z</time>
      </trkpt>
      <trkpt lat="43.39212" lon="6.08409">
        <ele>305.60000610352</ele>
        <time>2016-05-18T12:29:48Z</time>
      </trkpt>
      <trkpt lat="43.39212" lon="6.0841">
        <ele>305.60000610352</ele>
        <time>2016-05-18T12:29:49Z</time>
      </trkpt>
      <trkpt lat="43.39213" lon="6.0841">
        <ele>305.79998779297</ele>
        <time>2016-05-18T12:29:51Z</time>
      </trkpt>
      <trkpt lat="43.39212" lon="6.08411">
        <ele>305.79998779297</ele>
        <time>2016-05-18T12:29:53Z</time>
      </trkpt>
      <trkpt lat="43.39212" lon="6.08412">
        <ele>306</ele>
        <time>2016-05-18T12:29:55Z</time>
      </trkpt>
      <trkpt lat="43.39212" lon="6.08414">
        <ele>306</ele>
        <time>2016-05-18T12:29:56Z</time>
      </trkpt>
      <trkpt lat="43.39211" lon="6.08416">
        <ele>306</ele>
        <time>2016-05-18T12:29:57Z</time>
      </trkpt>
      <trkpt lat="43.3921" lon="6.0842">
        <ele>305.79998779297</ele>
        <time>2016-05-18T12:29:59Z</time>
      </trkpt>
      <trkpt lat="43.39209" lon="6.08426">
        <ele>306</ele>
        <time>2016-05-18T12:30:01Z</time>
      </trkpt>
      <trkpt lat="43.39209" lon="6.08429">
        <ele>306</ele>
        <time>2016-05-18T12:30:02Z</time>
      </trkpt>
      <trkpt lat="43.39208" lon="6.08433">
        <ele>306.20001220703</ele>
        <time>2016-05-18T12:30:03Z</time>
      </trkpt>
      <trkpt lat="43.39208" lon="6.08434">
        <ele>306.60000610352</ele>
        <time>2016-05-18T12:30:04Z</time>
      </trkpt>
      <trkpt lat="43.39208" lon="6.08433">
        <ele>307.20001220703</ele>
        <time>2016-05-18T12:30:05Z</time>
      </trkpt>
      <trkpt lat="43.39207" lon="6.08433">
        <ele>307.79998779297</ele>
        <time>2016-05-18T12:30:06Z</time>
      </trkpt>
      <trkpt lat="43.39207" lon="6.08434">
        <ele>308</ele>
        <time>2016-05-18T12:30:07Z</time>
      </trkpt>
      <trkpt lat="43.39207" lon="6.08435">
        <ele>308.20001220703</ele>
        <time>2016-05-18T12:30:09Z</time>
      </trkpt>
      <trkpt lat="43.39207" lon="6.08435">
        <ele>308.20001220703</ele>
        <time>2016-05-18T12:30:11Z</time>
      </trkpt>
      <trkpt lat="43.39207" lon="6.08437">
        <ele>308.20001220703</ele>
        <time>2016-05-18T12:30:13Z</time>
      </trkpt>
      <trkpt lat="43.39207" lon="6.08439">
        <ele>308.20001220703</ele>
        <time>2016-05-18T12:30:14Z</time>
      </trkpt>
      <trkpt lat="43.39207" lon="6.08441">
        <ele>308.20001220703</ele>
        <time>2016-05-18T12:30:15Z</time>
      </trkpt>
      <trkpt lat="43.39207" lon="6.08445">
        <ele>308.20001220703</ele>
        <time>2016-05-18T12:30:17Z</time>
      </trkpt>
      <trkpt lat="43.39206" lon="6.0845">
        <ele>308.39999389648</ele>
        <time>2016-05-18T12:30:19Z</time>
      </trkpt>
      <trkpt lat="43.39204" lon="6.08455">
        <ele>308.79998779297</ele>
        <time>2016-05-18T12:30:21Z</time>
      </trkpt>
      <trkpt lat="43.39202" lon="6.0846">
        <ele>309.39999389648</ele>
        <time>2016-05-18T12:30:23Z</time>
      </trkpt>
      <trkpt lat="43.39202" lon="6.08465">
        <ele>309.79998779297</ele>
        <time>2016-05-18T12:30:25Z</time>
      </trkpt>
      <trkpt lat="43.39202" lon="6.08468">
        <ele>309.79998779297</ele>
        <time>2016-05-18T12:30:26Z</time>
      </trkpt>
      <trkpt lat="43.39201" lon="6.0847">
        <ele>309.79998779297</ele>
        <time>2016-05-18T12:30:27Z</time>
      </trkpt>
      <trkpt lat="43.392" lon="6.08474">
        <ele>310.39999389648</ele>
        <time>2016-05-18T12:30:29Z</time>
      </trkpt>
      <trkpt lat="43.39199" lon="6.08476">
        <ele>310.60000610352</ele>
        <time>2016-05-18T12:30:30Z</time>
      </trkpt>
      <trkpt lat="43.39199" lon="6.08478">
        <ele>310.79998779297</ele>
        <time>2016-05-18T12:30:31Z</time>
      </trkpt>
      <trkpt lat="43.39199" lon="6.08482">
        <ele>310.79998779297</ele>
        <time>2016-05-18T12:30:33Z</time>
      </trkpt>
      <trkpt lat="43.39199" lon="6.08485">
        <ele>311</ele>
        <time>2016-05-18T12:30:34Z</time>
      </trkpt>
      <trkpt lat="43.39198" lon="6.08487">
        <ele>311</ele>
        <time>2016-05-18T12:30:35Z</time>
      </trkpt>
      <trkpt lat="43.39198" lon="6.08489">
        <ele>311</ele>
        <time>2016-05-18T12:30:36Z</time>
      </trkpt>
      <trkpt lat="43.39199" lon="6.08491">
        <ele>311.20001220703</ele>
        <time>2016-05-18T12:30:37Z</time>
      </trkpt>
      <trkpt lat="43.39198" lon="6.08493">
        <ele>311.20001220703</ele>
        <time>2016-05-18T12:30:38Z</time>
      </trkpt>
      <trkpt lat="43.39198" lon="6.08495">
        <ele>311</ele>
        <time>2016-05-18T12:30:39Z</time>
      </trkpt>
      <trkpt lat="43.39197" lon="6.08498">
        <ele>311.20001220703</ele>
        <time>2016-05-18T12:30:41Z</time>
      </trkpt>
      <trkpt lat="43.39197" lon="6.085">
        <ele>311.20001220703</ele>
        <time>2016-05-18T12:30:42Z</time>
      </trkpt>
      <trkpt lat="43.39197" lon="6.08501">
        <ele>311.20001220703</ele>
        <time>2016-05-18T12:30:43Z</time>
      </trkpt>
      <trkpt lat="43.39198" lon="6.085">
        <ele>311.39999389648</ele>
        <time>2016-05-18T12:30:45Z</time>
      </trkpt>
      <trkpt lat="43.39198" lon="6.08501">
        <ele>311.39999389648</ele>
        <time>2016-05-18T12:30:47Z</time>
      </trkpt>
      <trkpt lat="43.39198" lon="6.08501">
        <ele>311.39999389648</ele>
        <time>2016-05-18T12:30:49Z</time>
      </trkpt>
      <trkpt lat="43.39198" lon="6.08501">
        <ele>311.39999389648</ele>
        <time>2016-05-18T12:30:51Z</time>
      </trkpt>
      <trkpt lat="43.39198" lon="6.08501">
        <ele>311.20001220703</ele>
        <time>2016-05-18T12:30:53Z</time>
      </trkpt>
      <trkpt lat="43.39198" lon="6.08501">
        <ele>311.20001220703</ele>
        <time>2016-05-18T12:30:54Z</time>
      </trkpt>
      <trkpt lat="43.39198" lon="6.08501">
        <ele>311.20001220703</ele>
        <time>2016-05-18T12:30:57Z</time>
      </trkpt>
      <trkpt lat="43.39198" lon="6.08501">
        <ele>311.20001220703</ele>
        <time>2016-05-18T12:30:59Z</time>
      </trkpt>
      <trkpt lat="43.39198" lon="6.08501">
        <ele>311.20001220703</ele>
        <time>2016-05-18T12:31:01Z</time>
      </trkpt>
      <trkpt lat="43.39198" lon="6.08501">
        <ele>311.39999389648</ele>
        <time>2016-05-18T12:31:03Z</time>
      </trkpt>
      <trkpt lat="43.39198" lon="6.08501">
        <ele>311.39999389648</ele>
        <time>2016-05-18T12:31:05Z</time>
      </trkpt>
      <trkpt lat="43.39198" lon="6.08501">
        <ele>311.39999389648</ele>
        <time>2016-05-18T12:31:07Z</time>
      </trkpt>
      <trkpt lat="43.39198" lon="6.08501">
        <ele>311.39999389648</ele>
        <time>2016-05-18T12:31:09Z</time>
      </trkpt>
      <trkpt lat="43.39198" lon="6.08501">
        <ele>311.60000610352</ele>
        <time>2016-05-18T12:31:11Z</time>
      </trkpt>
      <trkpt lat="43.39198" lon="6.08501">
        <ele>311.60000610352</ele>
        <time>2016-05-18T12:31:13Z</time>
      </trkpt>
      <trkpt lat="43.39198" lon="6.08501">
        <ele>311.60000610352</ele>
        <time>2016-05-18T12:31:15Z</time>
      </trkpt>
      <trkpt lat="43.39198" lon="6.08501">
        <ele>311.60000610352</ele>
        <time>2016-05-18T12:31:17Z</time>
      </trkpt>
      <trkpt lat="43.39198" lon="6.08501">
        <ele>311.60000610352</ele>
        <time>2016-05-18T12:31:19Z</time>
      </trkpt>
      <trkpt lat="43.39198" lon="6.08501">
        <ele>311.60000610352</ele>
        <time>2016-05-18T12:31:21Z</time>
      </trkpt>
      <trkpt lat="43.39198" lon="6.08501">
        <ele>311.60000610352</ele>
        <time>2016-05-18T12:31:23Z</time>
      </trkpt>
      <trkpt lat="43.39198" lon="6.08501">
        <ele>311.39999389648</ele>
        <time>2016-05-18T12:31:25Z</time>
      </trkpt>
      <trkpt lat="43.39198" lon="6.08501">
        <ele>311.39999389648</ele>
        <time>2016-05-18T12:31:27Z</time>
      </trkpt>
      <trkpt lat="43.39198" lon="6.08501">
        <ele>311.39999389648</ele>
        <time>2016-05-18T12:31:29Z</time>
      </trkpt>
      <trkpt lat="43.39198" lon="6.08501">
        <ele>311.39999389648</ele>
        <time>2016-05-18T12:31:31Z</time>
      </trkpt>
      <trkpt lat="43.39198" lon="6.08501">
        <ele>311.39999389648</ele>
        <time>2016-05-18T12:31:33Z</time>
      </trkpt>
      <trkpt lat="43.39198" lon="6.08501">
        <ele>311.39999389648</ele>
        <time>2016-05-18T12:31:35Z</time>
      </trkpt>
      <trkpt lat="43.39198" lon="6.08501">
        <ele>311.39999389648</ele>
        <time>2016-05-18T12:31:37Z</time>
      </trkpt>
      <trkpt lat="43.39198" lon="6.08501">
        <ele>311.39999389648</ele>
        <time>2016-05-18T12:31:39Z</time>
      </trkpt>
      <trkpt lat="43.39198" lon="6.08501">
        <ele>311.39999389648</ele>
        <time>2016-05-18T12:31:41Z</time>
      </trkpt>
      <trkpt lat="43.39198" lon="6.08501">
        <ele>311.39999389648</ele>
        <time>2016-05-18T12:31:43Z</time>
      </trkpt>
      <trkpt lat="43.39198" lon="6.08501">
        <ele>311.39999389648</ele>
        <time>2016-05-18T12:31:45Z</time>
      </trkpt>
      <trkpt lat="43.39197" lon="6.08501">
        <ele>311.39999389648</ele>
        <time>2016-05-18T12:31:47Z</time>
      </trkpt>
      <trkpt lat="43.39197" lon="6.08501">
        <ele>311.39999389648</ele>
        <time>2016-05-18T12:31:49Z</time>
      </trkpt>
      <trkpt lat="43.39197" lon="6.08501">
        <ele>311.39999389648</ele>
        <time>2016-05-18T12:31:51Z</time>
      </trkpt>
      <trkpt lat="43.39198" lon="6.08501">
        <ele>311.60000610352</ele>
        <time>2016-05-18T12:31:53Z</time>
      </trkpt>
      <trkpt lat="43.39198" lon="6.08501">
        <ele>311.60000610352</ele>
        <time>2016-05-18T12:31:55Z</time>
      </trkpt>
      <trkpt lat="43.39198" lon="6.08501">
        <ele>311.60000610352</ele>
        <time>2016-05-18T12:31:56Z</time>
      </trkpt>
      <trkpt lat="43.39198" lon="6.08501">
        <ele>311.60000610352</ele>
        <time>2016-05-18T12:31:57Z</time>
      </trkpt>
      <trkpt lat="43.39198" lon="6.08501">
        <ele>311.60000610352</ele>
        <time>2016-05-18T12:31:59Z</time>
      </trkpt>
      <trkpt lat="43.39197" lon="6.08501">
        <ele>311.60000610352</ele>
        <time>2016-05-18T12:32:01Z</time>
      </trkpt>
      <trkpt lat="43.39198" lon="6.08501">
        <ele>311.39999389648</ele>
        <time>2016-05-18T12:32:03Z</time>
      </trkpt>
      <trkpt lat="43.39198" lon="6.08501">
        <ele>311.39999389648</ele>
        <time>2016-05-18T12:32:05Z</time>
      </trkpt>
      <trkpt lat="43.39198" lon="6.08501">
        <ele>311.39999389648</ele>
        <time>2016-05-18T12:32:07Z</time>
      </trkpt>
      <trkpt lat="43.39198" lon="6.08501">
        <ele>311.39999389648</ele>
        <time>2016-05-18T12:32:08Z</time>
      </trkpt>
      <trkpt lat="43.39198" lon="6.08501">
        <ele>311.39999389648</ele>
        <time>2016-05-18T12:32:09Z</time>
      </trkpt>
      <trkpt lat="43.39198" lon="6.08501">
        <ele>311.39999389648</ele>
        <time>2016-05-18T12:32:11Z</time>
      </trkpt>
      <trkpt lat="43.39198" lon="6.08501">
        <ele>311.39999389648</ele>
        <time>2016-05-18T12:32:13Z</time>
      </trkpt>
      <trkpt lat="43.39198" lon="6.08501">
        <ele>311.39999389648</ele>
        <time>2016-05-18T12:32:15Z</time>
      </trkpt>
      <trkpt lat="43.39198" lon="6.08501">
        <ele>311.39999389648</ele>
        <time>2016-05-18T12:32:17Z</time>
      </trkpt>
      <trkpt lat="43.39198" lon="6.08501">
        <ele>311.60000610352</ele>
        <time>2016-05-18T12:32:19Z</time>
      </trkpt>
      <trkpt lat="43.39198" lon="6.08501">
        <ele>311.39999389648</ele>
        <time>2016-05-18T12:32:21Z</time>
      </trkpt>
      <trkpt lat="43.39198" lon="6.08501">
        <ele>311.39999389648</ele>
        <time>2016-05-18T12:32:23Z</time>
      </trkpt>
      <trkpt lat="43.39198" lon="6.08501">
        <ele>311.39999389648</ele>
        <time>2016-05-18T12:32:25Z</time>
      </trkpt>
      <trkpt lat="43.39198" lon="6.08501">
        <ele>311.39999389648</ele>
        <time>2016-05-18T12:32:26Z</time>
      </trkpt>
      <trkpt lat="43.39198" lon="6.08501">
        <ele>311.39999389648</ele>
        <time>2016-05-18T12:32:27Z</time>
      </trkpt>
      <trkpt lat="43.39198" lon="6.08501">
        <ele>311.39999389648</ele>
        <time>2016-05-18T12:32:29Z</time>
      </trkpt>
      <trkpt lat="43.39198" lon="6.08501">
        <ele>311.39999389648</ele>
        <time>2016-05-18T12:32:31Z</time>
      </trkpt>
      <trkpt lat="43.39198" lon="6.08501">
        <ele>311.39999389648</ele>
        <time>2016-05-18T12:32:33Z</time>
      </trkpt>
      <trkpt lat="43.39198" lon="6.08501">
        <ele>311.39999389648</ele>
        <time>2016-05-18T12:32:35Z</time>
      </trkpt>
      <trkpt lat="43.39198" lon="6.08501">
        <ele>311.39999389648</ele>
        <time>2016-05-18T12:32:37Z</time>
      </trkpt>
      <trkpt lat="43.39198" lon="6.08501">
        <ele>311.39999389648</ele>
        <time>2016-05-18T12:32:39Z</time>
      </trkpt>
      <trkpt lat="43.39198" lon="6.08501">
        <ele>311.20001220703</ele>
        <time>2016-05-18T12:32:41Z</time>
      </trkpt>
      <trkpt lat="43.39198" lon="6.08501">
        <ele>311.20001220703</ele>
        <time>2016-05-18T12:32:43Z</time>
      </trkpt>
      <trkpt lat="43.39198" lon="6.08501">
        <ele>311</ele>
        <time>2016-05-18T12:32:45Z</time>
      </trkpt>
      <trkpt lat="43.39198" lon="6.08501">
        <ele>311</ele>
        <time>2016-05-18T12:32:47Z</time>
      </trkpt>
      <trkpt lat="43.39198" lon="6.08502">
        <ele>311.20001220703</ele>
        <time>2016-05-18T12:32:49Z</time>
      </trkpt>
      <trkpt lat="43.39198" lon="6.08502">
        <ele>311.20001220703</ele>
        <time>2016-05-18T12:32:50Z</time>
      </trkpt>
      <trkpt lat="43.39198" lon="6.08502">
        <ele>311.39999389648</ele>
        <time>2016-05-18T12:32:51Z</time>
      </trkpt>
      <trkpt lat="43.39198" lon="6.08502">
        <ele>311.39999389648</ele>
        <time>2016-05-18T12:32:53Z</time>
      </trkpt>
      <trkpt lat="43.39198" lon="6.08502">
        <ele>311.20001220703</ele>
        <time>2016-05-18T12:32:55Z</time>
      </trkpt>
      <trkpt lat="43.39198" lon="6.08502">
        <ele>311.20001220703</ele>
        <time>2016-05-18T12:32:57Z</time>
      </trkpt>
      <trkpt lat="43.39198" lon="6.08502">
        <ele>311.20001220703</ele>
        <time>2016-05-18T12:32:59Z</time>
      </trkpt>
      <trkpt lat="43.39198" lon="6.08502">
        <ele>311.20001220703</ele>
        <time>2016-05-18T12:33:01Z</time>
      </trkpt>
      <trkpt lat="43.39198" lon="6.08502">
        <ele>311.20001220703</ele>
        <time>2016-05-18T12:33:03Z</time>
      </trkpt>
      <trkpt lat="43.39198" lon="6.08502">
        <ele>311.20001220703</ele>
        <time>2016-05-18T12:33:05Z</time>
      </trkpt>
      <trkpt lat="43.39198" lon="6.08502">
        <ele>311.20001220703</ele>
        <time>2016-05-18T12:33:07Z</time>
      </trkpt>
      <trkpt lat="43.39198" lon="6.08502">
        <ele>311.20001220703</ele>
        <time>2016-05-18T12:33:09Z</time>
      </trkpt>
      <trkpt lat="43.39198" lon="6.08502">
        <ele>311.20001220703</ele>
        <time>2016-05-18T12:33:11Z</time>
      </trkpt>
      <trkpt lat="43.39198" lon="6.08502">
        <ele>311.20001220703</ele>
        <time>2016-05-18T12:33:13Z</time>
      </trkpt>
      <trkpt lat="43.39198" lon="6.08502">
        <ele>311.20001220703</ele>
        <time>2016-05-18T12:33:15Z</time>
      </trkpt>
      <trkpt lat="43.39198" lon="6.08502">
        <ele>311.20001220703</ele>
        <time>2016-05-18T12:33:17Z</time>
      </trkpt>
      <trkpt lat="43.39198" lon="6.08502">
        <ele>311.20001220703</ele>
        <time>2016-05-18T12:33:19Z</time>
      </trkpt>
      <trkpt lat="43.39197" lon="6.08505">
        <ele>311.20001220703</ele>
        <time>2016-05-18T12:33:21Z</time>
      </trkpt>
      <trkpt lat="43.39195" lon="6.08508">
        <ele>311.20001220703</ele>
        <time>2016-05-18T12:33:23Z</time>
      </trkpt>
      <trkpt lat="43.39193" lon="6.08509">
        <ele>311.20001220703</ele>
        <time>2016-05-18T12:33:25Z</time>
      </trkpt>
      <trkpt lat="43.39191" lon="6.08511">
        <ele>311</ele>
        <time>2016-05-18T12:33:26Z</time>
      </trkpt>
      <trkpt lat="43.3919" lon="6.08512">
        <ele>311</ele>
        <time>2016-05-18T12:33:27Z</time>
      </trkpt>
      <trkpt lat="43.39187" lon="6.08515">
        <ele>310.79998779297</ele>
        <time>2016-05-18T12:33:29Z</time>
      </trkpt>
      <trkpt lat="43.39185" lon="6.08522">
        <ele>310.60000610352</ele>
        <time>2016-05-18T12:33:31Z</time>
      </trkpt>
      <trkpt lat="43.39183" lon="6.08531">
        <ele>310.60000610352</ele>
        <time>2016-05-18T12:33:33Z</time>
      </trkpt>
      <trkpt lat="43.3918" lon="6.08541">
        <ele>310.79998779297</ele>
        <time>2016-05-18T12:33:35Z</time>
      </trkpt>
      <trkpt lat="43.39176" lon="6.08552">
        <ele>311</ele>
        <time>2016-05-18T12:33:37Z</time>
      </trkpt>
      <trkpt lat="43.39172" lon="6.08565">
        <ele>310.60000610352</ele>
        <time>2016-05-18T12:33:39Z</time>
      </trkpt>
      <trkpt lat="43.3917" lon="6.0858">
        <ele>310.20001220703</ele>
        <time>2016-05-18T12:33:41Z</time>
      </trkpt>
      <trkpt lat="43.39169" lon="6.08587">
        <ele>310</ele>
        <time>2016-05-18T12:33:42Z</time>
      </trkpt>
      <trkpt lat="43.39167" lon="6.08595">
        <ele>309.39999389648</ele>
        <time>2016-05-18T12:33:43Z</time>
      </trkpt>
      <trkpt lat="43.39164" lon="6.08611">
        <ele>308.79998779297</ele>
        <time>2016-05-18T12:33:45Z</time>
      </trkpt>
      <trkpt lat="43.39162" lon="6.0862">
        <ele>308.79998779297</ele>
        <time>2016-05-18T12:33:46Z</time>
      </trkpt>
      <trkpt lat="43.39159" lon="6.08628">
        <ele>308.60000610352</ele>
        <time>2016-05-18T12:33:47Z</time>
      </trkpt>
      <trkpt lat="43.39156" lon="6.08645">
        <ele>308.60000610352</ele>
        <time>2016-05-18T12:33:49Z</time>
      </trkpt>
      <trkpt lat="43.39155" lon="6.08653">
        <ele>308.60000610352</ele>
        <time>2016-05-18T12:33:50Z</time>
      </trkpt>
      <trkpt lat="43.39153" lon="6.08661">
        <ele>308.60000610352</ele>
        <time>2016-05-18T12:33:51Z</time>
      </trkpt>
      <trkpt lat="43.39149" lon="6.08675">
        <ele>309</ele>
        <time>2016-05-18T12:33:53Z</time>
      </trkpt>
      <trkpt lat="43.39148" lon="6.08691">
        <ele>309</ele>
        <time>2016-05-18T12:33:55Z</time>
      </trkpt>
      <trkpt lat="43.39146" lon="6.08705">
        <ele>309.20001220703</ele>
        <time>2016-05-18T12:33:57Z</time>
      </trkpt>
      <trkpt lat="43.39144" lon="6.08718">
        <ele>309.39999389648</ele>
        <time>2016-05-18T12:33:59Z</time>
      </trkpt>
      <trkpt lat="43.39141" lon="6.08732">
        <ele>309.39999389648</ele>
        <time>2016-05-18T12:34:01Z</time>
      </trkpt>
      <trkpt lat="43.39139" lon="6.0874">
        <ele>309.39999389648</ele>
        <time>2016-05-18T12:34:02Z</time>
      </trkpt>
      <trkpt lat="43.39138" lon="6.08747">
        <ele>309.60000610352</ele>
        <time>2016-05-18T12:34:03Z</time>
      </trkpt>
      <trkpt lat="43.39134" lon="6.08761">
        <ele>309.60000610352</ele>
        <time>2016-05-18T12:34:05Z</time>
      </trkpt>
      <trkpt lat="43.39131" lon="6.08774">
        <ele>310</ele>
        <time>2016-05-18T12:34:07Z</time>
      </trkpt>
      <trkpt lat="43.39129" lon="6.08781">
        <ele>310</ele>
        <time>2016-05-18T12:34:08Z</time>
      </trkpt>
      <trkpt lat="43.39127" lon="6.08787">
        <ele>310</ele>
        <time>2016-05-18T12:34:09Z</time>
      </trkpt>
      <trkpt lat="43.39124" lon="6.088">
        <ele>310</ele>
        <time>2016-05-18T12:34:11Z</time>
      </trkpt>
      <trkpt lat="43.39122" lon="6.08806">
        <ele>310</ele>
        <time>2016-05-18T12:34:12Z</time>
      </trkpt>
      <trkpt lat="43.3912" lon="6.08813">
        <ele>310</ele>
        <time>2016-05-18T12:34:13Z</time>
      </trkpt>
      <trkpt lat="43.39119" lon="6.0882">
        <ele>310</ele>
        <time>2016-05-18T12:34:14Z</time>
      </trkpt>
      <trkpt lat="43.39117" lon="6.08826">
        <ele>310.20001220703</ele>
        <time>2016-05-18T12:34:15Z</time>
      </trkpt>
      <trkpt lat="43.39114" lon="6.08838">
        <ele>310.60000610352</ele>
        <time>2016-05-18T12:34:17Z</time>
      </trkpt>
      <trkpt lat="43.39112" lon="6.08845">
        <ele>310.79998779297</ele>
        <time>2016-05-18T12:34:18Z</time>
      </trkpt>
      <trkpt lat="43.39111" lon="6.08851">
        <ele>311</ele>
        <time>2016-05-18T12:34:19Z</time>
      </trkpt>
      <trkpt lat="43.39109" lon="6.08863">
        <ele>311.20001220703</ele>
        <time>2016-05-18T12:34:21Z</time>
      </trkpt>
      <trkpt lat="43.39106" lon="6.08873">
        <ele>311.79998779297</ele>
        <time>2016-05-18T12:34:23Z</time>
      </trkpt>
      <trkpt lat="43.39104" lon="6.08882">
        <ele>312</ele>
        <time>2016-05-18T12:34:25Z</time>
      </trkpt>
      <trkpt lat="43.39102" lon="6.08892">
        <ele>312</ele>
        <time>2016-05-18T12:34:27Z</time>
      </trkpt>
      <trkpt lat="43.39101" lon="6.08898">
        <ele>312</ele>
        <time>2016-05-18T12:34:28Z</time>
      </trkpt>
      <trkpt lat="43.39101" lon="6.08904">
        <ele>312</ele>
        <time>2016-05-18T12:34:29Z</time>
      </trkpt>
      <trkpt lat="43.39098" lon="6.08915">
        <ele>312.20001220703</ele>
        <time>2016-05-18T12:34:31Z</time>
      </trkpt>
      <trkpt lat="43.39097" lon="6.0892">
        <ele>312.39999389648</ele>
        <time>2016-05-18T12:34:32Z</time>
      </trkpt>
      <trkpt lat="43.39095" lon="6.08925">
        <ele>312.60000610352</ele>
        <time>2016-05-18T12:34:33Z</time>
      </trkpt>
      <trkpt lat="43.39092" lon="6.08936">
        <ele>312.79998779297</ele>
        <time>2016-05-18T12:34:35Z</time>
      </trkpt>
      <trkpt lat="43.3909" lon="6.08946">
        <ele>313</ele>
        <time>2016-05-18T12:34:37Z</time>
      </trkpt>
      <trkpt lat="43.39087" lon="6.08956">
        <ele>313</ele>
        <time>2016-05-18T12:34:39Z</time>
      </trkpt>
      <trkpt lat="43.39083" lon="6.08966">
        <ele>313.20001220703</ele>
        <time>2016-05-18T12:34:41Z</time>
      </trkpt>
      <trkpt lat="43.39079" lon="6.08975">
        <ele>313.20001220703</ele>
        <time>2016-05-18T12:34:43Z</time>
      </trkpt>
      <trkpt lat="43.39076" lon="6.08983">
        <ele>313</ele>
        <time>2016-05-18T12:34:45Z</time>
      </trkpt>
      <trkpt lat="43.39073" lon="6.08992">
        <ele>313</ele>
        <time>2016-05-18T12:34:47Z</time>
      </trkpt>
      <trkpt lat="43.39069" lon="6.08999">
        <ele>312.79998779297</ele>
        <time>2016-05-18T12:34:49Z</time>
      </trkpt>
      <trkpt lat="43.39066" lon="6.09006">
        <ele>313.20001220703</ele>
        <time>2016-05-18T12:34:51Z</time>
      </trkpt>
      <trkpt lat="43.39063" lon="6.09015">
        <ele>313.60000610352</ele>
        <time>2016-05-18T12:34:53Z</time>
      </trkpt>
      <trkpt lat="43.39059" lon="6.09024">
        <ele>313.79998779297</ele>
        <time>2016-05-18T12:34:55Z</time>
      </trkpt>
      <trkpt lat="43.39055" lon="6.09032">
        <ele>313.79998779297</ele>
        <time>2016-05-18T12:34:57Z</time>
      </trkpt>
      <trkpt lat="43.39051" lon="6.09038">
        <ele>313.79998779297</ele>
        <time>2016-05-18T12:34:59Z</time>
      </trkpt>
      <trkpt lat="43.3905" lon="6.09043">
        <ele>314</ele>
        <time>2016-05-18T12:35:01Z</time>
      </trkpt>
      <trkpt lat="43.39049" lon="6.09044">
        <ele>314.39999389648</ele>
        <time>2016-05-18T12:35:02Z</time>
      </trkpt>
      <trkpt lat="43.39049" lon="6.09045">
        <ele>314.60000610352</ele>
        <time>2016-05-18T12:35:03Z</time>
      </trkpt>
      <trkpt lat="43.39049" lon="6.09045">
        <ele>314.79998779297</ele>
        <time>2016-05-18T12:35:04Z</time>
      </trkpt>
      <trkpt lat="43.39049" lon="6.09046">
        <ele>314.79998779297</ele>
        <time>2016-05-18T12:35:05Z</time>
      </trkpt>
      <trkpt lat="43.39049" lon="6.09046">
        <ele>314.79998779297</ele>
        <time>2016-05-18T12:35:07Z</time>
      </trkpt>
      <trkpt lat="43.39048" lon="6.09046">
        <ele>314.79998779297</ele>
        <time>2016-05-18T12:35:09Z</time>
      </trkpt>
      <trkpt lat="43.39048" lon="6.09046">
        <ele>314.79998779297</ele>
        <time>2016-05-18T12:35:11Z</time>
      </trkpt>
      <trkpt lat="43.39048" lon="6.09046">
        <ele>314.79998779297</ele>
        <time>2016-05-18T12:35:13Z</time>
      </trkpt>
      <trkpt lat="43.39049" lon="6.09046">
        <ele>314.79998779297</ele>
        <time>2016-05-18T12:35:15Z</time>
      </trkpt>
      <trkpt lat="43.39048" lon="6.09048">
        <ele>314.79998779297</ele>
        <time>2016-05-18T12:35:17Z</time>
      </trkpt>
      <trkpt lat="43.39047" lon="6.09049">
        <ele>314.79998779297</ele>
        <time>2016-05-18T12:35:18Z</time>
      </trkpt>
      <trkpt lat="43.39046" lon="6.0905">
        <ele>314.79998779297</ele>
        <time>2016-05-18T12:35:19Z</time>
      </trkpt>
      <trkpt lat="43.39045" lon="6.09052">
        <ele>314.79998779297</ele>
        <time>2016-05-18T12:35:21Z</time>
      </trkpt>
      <trkpt lat="43.39044" lon="6.09053">
        <ele>314.60000610352</ele>
        <time>2016-05-18T12:35:22Z</time>
      </trkpt>
      <trkpt lat="43.39043" lon="6.09054">
        <ele>314.60000610352</ele>
        <time>2016-05-18T12:35:23Z</time>
      </trkpt>
      <trkpt lat="43.39042" lon="6.09056">
        <ele>314.79998779297</ele>
        <time>2016-05-18T12:35:24Z</time>
      </trkpt>
      <trkpt lat="43.39041" lon="6.09059">
        <ele>314.79998779297</ele>
        <time>2016-05-18T12:35:25Z</time>
      </trkpt>
      <trkpt lat="43.39039" lon="6.09064">
        <ele>314.79998779297</ele>
        <time>2016-05-18T12:35:27Z</time>
      </trkpt>
      <trkpt lat="43.39037" lon="6.09067">
        <ele>315</ele>
        <time>2016-05-18T12:35:28Z</time>
      </trkpt>
      <trkpt lat="43.39036" lon="6.09071">
        <ele>314.79998779297</ele>
        <time>2016-05-18T12:35:29Z</time>
      </trkpt>
      <trkpt lat="43.39032" lon="6.09079">
        <ele>314.79998779297</ele>
        <time>2016-05-18T12:35:31Z</time>
      </trkpt>
      <trkpt lat="43.39029" lon="6.09088">
        <ele>314.79998779297</ele>
        <time>2016-05-18T12:35:33Z</time>
      </trkpt>
      <trkpt lat="43.39027" lon="6.09092">
        <ele>314.79998779297</ele>
        <time>2016-05-18T12:35:34Z</time>
      </trkpt>
      <trkpt lat="43.39026" lon="6.09095">
        <ele>315.20001220703</ele>
        <time>2016-05-18T12:35:35Z</time>
      </trkpt>
      <trkpt lat="43.39026" lon="6.09096">
        <ele>315.39999389648</ele>
        <time>2016-05-18T12:35:37Z</time>
      </trkpt>
      <trkpt lat="43.39026" lon="6.09097">
        <ele>315.79998779297</ele>
        <time>2016-05-18T12:35:39Z</time>
      </trkpt>
      <trkpt lat="43.39026" lon="6.09098">
        <ele>315.79998779297</ele>
        <time>2016-05-18T12:35:41Z</time>
      </trkpt>
      <trkpt lat="43.39026" lon="6.09098">
        <ele>315.79998779297</ele>
        <time>2016-05-18T12:35:43Z</time>
      </trkpt>
      <trkpt lat="43.39026" lon="6.09098">
        <ele>315.79998779297</ele>
        <time>2016-05-18T12:35:45Z</time>
      </trkpt>
      <trkpt lat="43.39026" lon="6.09098">
        <ele>315.79998779297</ele>
        <time>2016-05-18T12:35:46Z</time>
      </trkpt>
      <trkpt lat="43.39026" lon="6.09098">
        <ele>315.79998779297</ele>
        <time>2016-05-18T12:35:47Z</time>
      </trkpt>
      <trkpt lat="43.39025" lon="6.09099">
        <ele>316</ele>
        <time>2016-05-18T12:35:49Z</time>
      </trkpt>
      <trkpt lat="43.39025" lon="6.09099">
        <ele>316</ele>
        <time>2016-05-18T12:35:51Z</time>
      </trkpt>
      <trkpt lat="43.39025" lon="6.09101">
        <ele>315.79998779297</ele>
        <time>2016-05-18T12:35:52Z</time>
      </trkpt>
      <trkpt lat="43.39025" lon="6.09102">
        <ele>315.79998779297</ele>
        <time>2016-05-18T12:35:53Z</time>
      </trkpt>
      <trkpt lat="43.39024" lon="6.09104">
        <ele>315.79998779297</ele>
        <time>2016-05-18T12:35:54Z</time>
      </trkpt>
      <trkpt lat="43.39024" lon="6.09106">
        <ele>315.79998779297</ele>
        <time>2016-05-18T12:35:55Z</time>
      </trkpt>
      <trkpt lat="43.39023" lon="6.0911">
        <ele>315.60000610352</ele>
        <time>2016-05-18T12:35:57Z</time>
      </trkpt>
      <trkpt lat="43.39022" lon="6.09111">
        <ele>315.79998779297</ele>
        <time>2016-05-18T12:35:58Z</time>
      </trkpt>
      <trkpt lat="43.39023" lon="6.09111">
        <ele>315.79998779297</ele>
        <time>2016-05-18T12:35:59Z</time>
      </trkpt>
      <trkpt lat="43.39022" lon="6.09113">
        <ele>315.79998779297</ele>
        <time>2016-05-18T12:36:01Z</time>
      </trkpt>
      <trkpt lat="43.39022" lon="6.09113">
        <ele>315.79998779297</ele>
        <time>2016-05-18T12:36:03Z</time>
      </trkpt>
      <trkpt lat="43.39022" lon="6.09113">
        <ele>315.79998779297</ele>
        <time>2016-05-18T12:36:05Z</time>
      </trkpt>
      <trkpt lat="43.39022" lon="6.09113">
        <ele>315.79998779297</ele>
        <time>2016-05-18T12:36:06Z</time>
      </trkpt>
      <trkpt lat="43.39022" lon="6.09113">
        <ele>315.79998779297</ele>
        <time>2016-05-18T12:36:07Z</time>
      </trkpt>
      <trkpt lat="43.39022" lon="6.09113">
        <ele>315.79998779297</ele>
        <time>2016-05-18T12:36:09Z</time>
      </trkpt>
      <trkpt lat="43.39022" lon="6.09113">
        <ele>316</ele>
        <time>2016-05-18T12:36:11Z</time>
      </trkpt>
      <trkpt lat="43.39022" lon="6.09113">
        <ele>316.20001220703</ele>
        <time>2016-05-18T12:36:13Z</time>
      </trkpt>
      <trkpt lat="43.39022" lon="6.09113">
        <ele>316</ele>
        <time>2016-05-18T12:36:15Z</time>
      </trkpt>
      <trkpt lat="43.39021" lon="6.09115">
        <ele>316</ele>
        <time>2016-05-18T12:36:17Z</time>
      </trkpt>
      <trkpt lat="43.3902" lon="6.09121">
        <ele>316</ele>
        <time>2016-05-18T12:36:19Z</time>
      </trkpt>
      <trkpt lat="43.39017" lon="6.09127">
        <ele>316.20001220703</ele>
        <time>2016-05-18T12:36:21Z</time>
      </trkpt>
      <trkpt lat="43.39015" lon="6.09135">
        <ele>316.20001220703</ele>
        <time>2016-05-18T12:36:23Z</time>
      </trkpt>
      <trkpt lat="43.39012" lon="6.09145">
        <ele>316.20001220703</ele>
        <time>2016-05-18T12:36:25Z</time>
      </trkpt>
      <trkpt lat="43.3901" lon="6.09149">
        <ele>316.20001220703</ele>
        <time>2016-05-18T12:36:26Z</time>
      </trkpt>
      <trkpt lat="43.39009" lon="6.09153">
        <ele>316.20001220703</ele>
        <time>2016-05-18T12:36:27Z</time>
      </trkpt>
      <trkpt lat="43.39006" lon="6.09162">
        <ele>316.39999389648</ele>
        <time>2016-05-18T12:36:29Z</time>
      </trkpt>
      <trkpt lat="43.39004" lon="6.09171">
        <ele>316.79998779297</ele>
        <time>2016-05-18T12:36:31Z</time>
      </trkpt>
      <trkpt lat="43.39003" lon="6.09176">
        <ele>316.79998779297</ele>
        <time>2016-05-18T12:36:32Z</time>
      </trkpt>
      <trkpt lat="43.39002" lon="6.09181">
        <ele>316.79998779297</ele>
        <time>2016-05-18T12:36:33Z</time>
      </trkpt>
      <trkpt lat="43.39" lon="6.09191">
        <ele>317.39999389648</ele>
        <time>2016-05-18T12:36:35Z</time>
      </trkpt>
      <trkpt lat="43.39" lon="6.09196">
        <ele>317.60000610352</ele>
        <time>2016-05-18T12:36:36Z</time>
      </trkpt>
      <trkpt lat="43.38998" lon="6.09201">
        <ele>317.60000610352</ele>
        <time>2016-05-18T12:36:37Z</time>
      </trkpt>
      <trkpt lat="43.38997" lon="6.09209">
        <ele>317.79998779297</ele>
        <time>2016-05-18T12:36:39Z</time>
      </trkpt>
      <trkpt lat="43.38996" lon="6.09218">
        <ele>317.79998779297</ele>
        <time>2016-05-18T12:36:41Z</time>
      </trkpt>
      <trkpt lat="43.38995" lon="6.09224">
        <ele>318</ele>
        <time>2016-05-18T12:36:42Z</time>
      </trkpt>
      <trkpt lat="43.38995" lon="6.0923">
        <ele>318</ele>
        <time>2016-05-18T12:36:43Z</time>
      </trkpt>
      <trkpt lat="43.38993" lon="6.09235">
        <ele>318</ele>
        <time>2016-05-18T12:36:44Z</time>
      </trkpt>
      <trkpt lat="43.38991" lon="6.09241">
        <ele>318</ele>
        <time>2016-05-18T12:36:45Z</time>
      </trkpt>
      <trkpt lat="43.38988" lon="6.09253">
        <ele>318.20001220703</ele>
        <time>2016-05-18T12:36:47Z</time>
      </trkpt>
      <trkpt lat="43.38985" lon="6.09264">
        <ele>318.60000610352</ele>
        <time>2016-05-18T12:36:49Z</time>
      </trkpt>
      <trkpt lat="43.38981" lon="6.09274">
        <ele>319</ele>
        <time>2016-05-18T12:36:51Z</time>
      </trkpt>
      <trkpt lat="43.38979" lon="6.09278">
        <ele>319.79998779297</ele>
        <time>2016-05-18T12:36:52Z</time>
      </trkpt>
      <trkpt lat="43.38977" lon="6.09281">
        <ele>320.20001220703</ele>
        <time>2016-05-18T12:36:53Z</time>
      </trkpt>
      <trkpt lat="43.38973" lon="6.09288">
        <ele>320.79998779297</ele>
        <time>2016-05-18T12:36:55Z</time>
      </trkpt>
      <trkpt lat="43.38969" lon="6.09294">
        <ele>320.79998779297</ele>
        <time>2016-05-18T12:36:57Z</time>
      </trkpt>
      <trkpt lat="43.38967" lon="6.09298">
        <ele>320.79998779297</ele>
        <time>2016-05-18T12:36:58Z</time>
      </trkpt>
      <trkpt lat="43.38965" lon="6.09301">
        <ele>320.79998779297</ele>
        <time>2016-05-18T12:36:59Z</time>
      </trkpt>
      <trkpt lat="43.3896" lon="6.09307">
        <ele>321</ele>
        <time>2016-05-18T12:37:01Z</time>
      </trkpt>
      <trkpt lat="43.38956" lon="6.09313">
        <ele>320.79998779297</ele>
        <time>2016-05-18T12:37:03Z</time>
      </trkpt>
      <trkpt lat="43.38955" lon="6.09317">
        <ele>320.79998779297</ele>
        <time>2016-05-18T12:37:04Z</time>
      </trkpt>
      <trkpt lat="43.38953" lon="6.09321">
        <ele>321</ele>
        <time>2016-05-18T12:37:05Z</time>
      </trkpt>
      <trkpt lat="43.38947" lon="6.09327">
        <ele>321.39999389648</ele>
        <time>2016-05-18T12:37:07Z</time>
      </trkpt>
      <trkpt lat="43.38945" lon="6.09329">
        <ele>321.60000610352</ele>
        <time>2016-05-18T12:37:08Z</time>
      </trkpt>
      <trkpt lat="43.38942" lon="6.09331">
        <ele>321.60000610352</ele>
        <time>2016-05-18T12:37:09Z</time>
      </trkpt>
      <trkpt lat="43.38937" lon="6.09335">
        <ele>322</ele>
        <time>2016-05-18T12:37:11Z</time>
      </trkpt>
      <trkpt lat="43.38935" lon="6.09337">
        <ele>322</ele>
        <time>2016-05-18T12:37:12Z</time>
      </trkpt>
      <trkpt lat="43.38932" lon="6.0934">
        <ele>321.79998779297</ele>
        <time>2016-05-18T12:37:13Z</time>
      </trkpt>
      <trkpt lat="43.38929" lon="6.09343">
        <ele>321.79998779297</ele>
        <time>2016-05-18T12:37:14Z</time>
      </trkpt>
      <trkpt lat="43.38926" lon="6.09345">
        <ele>322</ele>
        <time>2016-05-18T12:37:15Z</time>
      </trkpt>
      <trkpt lat="43.38919" lon="6.0935">
        <ele>321.79998779297</ele>
        <time>2016-05-18T12:37:17Z</time>
      </trkpt>
      <trkpt lat="43.38914" lon="6.09354">
        <ele>321.79998779297</ele>
        <time>2016-05-18T12:37:19Z</time>
      </trkpt>
      <trkpt lat="43.3891" lon="6.09358">
        <ele>322</ele>
        <time>2016-05-18T12:37:21Z</time>
      </trkpt>
      <trkpt lat="43.38907" lon="6.09362">
        <ele>322.79998779297</ele>
        <time>2016-05-18T12:37:23Z</time>
      </trkpt>
      <trkpt lat="43.38905" lon="6.09363">
        <ele>323.20001220703</ele>
        <time>2016-05-18T12:37:24Z</time>
      </trkpt>
      <trkpt lat="43.38905" lon="6.09364">
        <ele>323.39999389648</ele>
        <time>2016-05-18T12:37:25Z</time>
      </trkpt>
      <trkpt lat="43.38902" lon="6.09368">
        <ele>323.79998779297</ele>
        <time>2016-05-18T12:37:27Z</time>
      </trkpt>
      <trkpt lat="43.38901" lon="6.09373">
        <ele>324</ele>
        <time>2016-05-18T12:37:29Z</time>
      </trkpt>
      <trkpt lat="43.389" lon="6.09375">
        <ele>324.20001220703</ele>
        <time>2016-05-18T12:37:30Z</time>
      </trkpt>
      <trkpt lat="43.389" lon="6.09376">
        <ele>324.20001220703</ele>
        <time>2016-05-18T12:37:31Z</time>
      </trkpt>
      <trkpt lat="43.38898" lon="6.09378">
        <ele>324.39999389648</ele>
        <time>2016-05-18T12:37:33Z</time>
      </trkpt>
      <trkpt lat="43.38897" lon="6.09383">
        <ele>324.79998779297</ele>
        <time>2016-05-18T12:37:35Z</time>
      </trkpt>
      <trkpt lat="43.38896" lon="6.09385">
        <ele>324.79998779297</ele>
        <time>2016-05-18T12:37:36Z</time>
      </trkpt>
      <trkpt lat="43.38895" lon="6.09388">
        <ele>324.79998779297</ele>
        <time>2016-05-18T12:37:37Z</time>
      </trkpt>
      <trkpt lat="43.38894" lon="6.09391">
        <ele>325.20001220703</ele>
        <time>2016-05-18T12:37:39Z</time>
      </trkpt>
      <trkpt lat="43.38894" lon="6.09393">
        <ele>325.39999389648</ele>
        <time>2016-05-18T12:37:40Z</time>
      </trkpt>
      <trkpt lat="43.38894" lon="6.09395">
        <ele>325.39999389648</ele>
        <time>2016-05-18T12:37:41Z</time>
      </trkpt>
      <trkpt lat="43.38894" lon="6.09401">
        <ele>325.79998779297</ele>
        <time>2016-05-18T12:37:43Z</time>
      </trkpt>
      <trkpt lat="43.38894" lon="6.09407">
        <ele>325.79998779297</ele>
        <time>2016-05-18T12:37:45Z</time>
      </trkpt>
      <trkpt lat="43.38891" lon="6.0941">
        <ele>326</ele>
        <time>2016-05-18T12:37:47Z</time>
      </trkpt>
      <trkpt lat="43.3889" lon="6.09411">
        <ele>326.60000610352</ele>
        <time>2016-05-18T12:37:49Z</time>
      </trkpt>
      <trkpt lat="43.3889" lon="6.09412">
        <ele>327.39999389648</ele>
        <time>2016-05-18T12:37:51Z</time>
      </trkpt>
      <trkpt lat="43.3889" lon="6.09412">
        <ele>327.39999389648</ele>
        <time>2016-05-18T12:37:52Z</time>
      </trkpt>
      <trkpt lat="43.3889" lon="6.09412">
        <ele>327.60000610352</ele>
        <time>2016-05-18T12:37:53Z</time>
      </trkpt>
      <trkpt lat="43.3889" lon="6.09412">
        <ele>327.60000610352</ele>
        <time>2016-05-18T12:37:55Z</time>
      </trkpt>
      <trkpt lat="43.38889" lon="6.09411">
        <ele>327.60000610352</ele>
        <time>2016-05-18T12:37:57Z</time>
      </trkpt>
      <trkpt lat="43.38889" lon="6.09411">
        <ele>327.60000610352</ele>
        <time>2016-05-18T12:37:59Z</time>
      </trkpt>
      <trkpt lat="43.38889" lon="6.09411">
        <ele>327.79998779297</ele>
        <time>2016-05-18T12:38:01Z</time>
      </trkpt>
      <trkpt lat="43.38888" lon="6.09412">
        <ele>328</ele>
        <time>2016-05-18T12:38:03Z</time>
      </trkpt>
      <trkpt lat="43.38888" lon="6.09413">
        <ele>328.20001220703</ele>
        <time>2016-05-18T12:38:05Z</time>
      </trkpt>
      <trkpt lat="43.38888" lon="6.09413">
        <ele>328.60000610352</ele>
        <time>2016-05-18T12:38:07Z</time>
      </trkpt>
      <trkpt lat="43.38889" lon="6.09414">
        <ele>328.60000610352</ele>
        <time>2016-05-18T12:38:09Z</time>
      </trkpt>
      <trkpt lat="43.38889" lon="6.09415">
        <ele>328.60000610352</ele>
        <time>2016-05-18T12:38:11Z</time>
      </trkpt>
      <trkpt lat="43.38888" lon="6.09416">
        <ele>328.79998779297</ele>
        <time>2016-05-18T12:38:13Z</time>
      </trkpt>
      <trkpt lat="43.38888" lon="6.09416">
        <ele>328.79998779297</ele>
        <time>2016-05-18T12:38:15Z</time>
      </trkpt>
      <trkpt lat="43.38887" lon="6.09417">
        <ele>328.79998779297</ele>
        <time>2016-05-18T12:38:17Z</time>
      </trkpt>
      <trkpt lat="43.38887" lon="6.09418">
        <ele>329</ele>
        <time>2016-05-18T12:38:19Z</time>
      </trkpt>
      <trkpt lat="43.38886" lon="6.09419">
        <ele>329</ele>
        <time>2016-05-18T12:38:21Z</time>
      </trkpt>
      <trkpt lat="43.38886" lon="6.09419">
        <ele>329</ele>
        <time>2016-05-18T12:38:22Z</time>
      </trkpt>
      <trkpt lat="43.38886" lon="6.09419">
        <ele>329</ele>
        <time>2016-05-18T12:38:23Z</time>
      </trkpt>
      <trkpt lat="43.38886" lon="6.09419">
        <ele>329</ele>
        <time>2016-05-18T12:38:25Z</time>
      </trkpt>
      <trkpt lat="43.38885" lon="6.09419">
        <ele>328.79998779297</ele>
        <time>2016-05-18T12:38:27Z</time>
      </trkpt>
      <trkpt lat="43.38885" lon="6.09419">
        <ele>328.79998779297</ele>
        <time>2016-05-18T12:38:29Z</time>
      </trkpt>
      <trkpt lat="43.38885" lon="6.0942">
        <ele>328.79998779297</ele>
        <time>2016-05-18T12:38:31Z</time>
      </trkpt>
      <trkpt lat="43.38885" lon="6.0942">
        <ele>328.79998779297</ele>
        <time>2016-05-18T12:38:32Z</time>
      </trkpt>
      <trkpt lat="43.38885" lon="6.0942">
        <ele>328.79998779297</ele>
        <time>2016-05-18T12:38:33Z</time>
      </trkpt>
      <trkpt lat="43.38885" lon="6.0942">
        <ele>329.20001220703</ele>
        <time>2016-05-18T12:38:35Z</time>
      </trkpt>
      <trkpt lat="43.38885" lon="6.0942">
        <ele>329.20001220703</ele>
        <time>2016-05-18T12:38:37Z</time>
      </trkpt>
      <trkpt lat="43.38885" lon="6.0942">
        <ele>329.20001220703</ele>
        <time>2016-05-18T12:38:39Z</time>
      </trkpt>
      <trkpt lat="43.38885" lon="6.0942">
        <ele>329.20001220703</ele>
        <time>2016-05-18T12:38:40Z</time>
      </trkpt>
      <trkpt lat="43.38885" lon="6.0942">
        <ele>329.20001220703</ele>
        <time>2016-05-18T12:38:41Z</time>
      </trkpt>
      <trkpt lat="43.38885" lon="6.0942">
        <ele>329.20001220703</ele>
        <time>2016-05-18T12:38:43Z</time>
      </trkpt>
      <trkpt lat="43.38885" lon="6.0942">
        <ele>329.20001220703</ele>
        <time>2016-05-18T12:38:45Z</time>
      </trkpt>
      <trkpt lat="43.38885" lon="6.0942">
        <ele>329.20001220703</ele>
        <time>2016-05-18T12:38:46Z</time>
      </trkpt>
      <trkpt lat="43.38885" lon="6.0942">
        <ele>329.20001220703</ele>
        <time>2016-05-18T12:38:47Z</time>
      </trkpt>
      <trkpt lat="43.38885" lon="6.0942">
        <ele>329.20001220703</ele>
        <time>2016-05-18T12:38:49Z</time>
      </trkpt>
      <trkpt lat="43.38885" lon="6.0942">
        <ele>329.20001220703</ele>
        <time>2016-05-18T12:38:51Z</time>
      </trkpt>
      <trkpt lat="43.38885" lon="6.0942">
        <ele>329</ele>
        <time>2016-05-18T12:38:53Z</time>
      </trkpt>
      <trkpt lat="43.38885" lon="6.0942">
        <ele>329.20001220703</ele>
        <time>2016-05-18T12:38:55Z</time>
      </trkpt>
      <trkpt lat="43.38885" lon="6.0942">
        <ele>329.39999389648</ele>
        <time>2016-05-18T12:38:57Z</time>
      </trkpt>
      <trkpt lat="43.38885" lon="6.0942">
        <ele>329.39999389648</ele>
        <time>2016-05-18T12:38:58Z</time>
      </trkpt>
      <trkpt lat="43.38885" lon="6.0942">
        <ele>329.39999389648</ele>
        <time>2016-05-18T12:38:59Z</time>
      </trkpt>
      <trkpt lat="43.38885" lon="6.0942">
        <ele>329.39999389648</ele>
        <time>2016-05-18T12:39:01Z</time>
      </trkpt>
      <trkpt lat="43.38885" lon="6.09419">
        <ele>329.20001220703</ele>
        <time>2016-05-18T12:39:03Z</time>
      </trkpt>
      <trkpt lat="43.38885" lon="6.09419">
        <ele>329.20001220703</ele>
        <time>2016-05-18T12:39:05Z</time>
      </trkpt>
      <trkpt lat="43.38885" lon="6.09419">
        <ele>329</ele>
        <time>2016-05-18T12:39:07Z</time>
      </trkpt>
      <trkpt lat="43.38885" lon="6.09419">
        <ele>329</ele>
        <time>2016-05-18T12:39:09Z</time>
      </trkpt>
      <trkpt lat="43.38885" lon="6.09419">
        <ele>329</ele>
        <time>2016-05-18T12:39:10Z</time>
      </trkpt>
      <trkpt lat="43.38885" lon="6.0942">
        <ele>329</ele>
        <time>2016-05-18T12:39:11Z</time>
      </trkpt>
      <trkpt lat="43.38885" lon="6.0942">
        <ele>329</ele>
        <time>2016-05-18T12:39:13Z</time>
      </trkpt>
      <trkpt lat="43.38885" lon="6.0942">
        <ele>329</ele>
        <time>2016-05-18T12:39:15Z</time>
      </trkpt>
      <trkpt lat="43.38885" lon="6.0942">
        <ele>329</ele>
        <time>2016-05-18T12:39:17Z</time>
      </trkpt>
      <trkpt lat="43.38885" lon="6.0942">
        <ele>329</ele>
        <time>2016-05-18T12:39:19Z</time>
      </trkpt>
      <trkpt lat="43.38885" lon="6.0942">
        <ele>329</ele>
        <time>2016-05-18T12:39:21Z</time>
      </trkpt>
      <trkpt lat="43.38885" lon="6.0942">
        <ele>329</ele>
        <time>2016-05-18T12:39:22Z</time>
      </trkpt>
      <trkpt lat="43.38885" lon="6.0942">
        <ele>329</ele>
        <time>2016-05-18T12:39:23Z</time>
      </trkpt>
      <trkpt lat="43.38885" lon="6.0942">
        <ele>329</ele>
        <time>2016-05-18T12:39:25Z</time>
      </trkpt>
      <trkpt lat="43.38885" lon="6.0942">
        <ele>329</ele>
        <time>2016-05-18T12:39:27Z</time>
      </trkpt>
      <trkpt lat="43.38885" lon="6.0942">
        <ele>329</ele>
        <time>2016-05-18T12:39:29Z</time>
      </trkpt>
      <trkpt lat="43.38885" lon="6.0942">
        <ele>328.79998779297</ele>
        <time>2016-05-18T12:39:31Z</time>
      </trkpt>
      <trkpt lat="43.38885" lon="6.0942">
        <ele>328.79998779297</ele>
        <time>2016-05-18T12:39:33Z</time>
      </trkpt>
      <trkpt lat="43.38885" lon="6.0942">
        <ele>328.79998779297</ele>
        <time>2016-05-18T12:39:34Z</time>
      </trkpt>
      <trkpt lat="43.38885" lon="6.0942">
        <ele>329</ele>
        <time>2016-05-18T12:39:35Z</time>
      </trkpt>
      <trkpt lat="43.38885" lon="6.0942">
        <ele>329.20001220703</ele>
        <time>2016-05-18T12:39:37Z</time>
      </trkpt>
      <trkpt lat="43.38885" lon="6.0942">
        <ele>329.20001220703</ele>
        <time>2016-05-18T12:39:39Z</time>
      </trkpt>
      <trkpt lat="43.38885" lon="6.0942">
        <ele>329.20001220703</ele>
        <time>2016-05-18T12:39:41Z</time>
      </trkpt>
      <trkpt lat="43.38885" lon="6.0942">
        <ele>329.20001220703</ele>
        <time>2016-05-18T12:39:43Z</time>
      </trkpt>
      <trkpt lat="43.38885" lon="6.0942">
        <ele>329.20001220703</ele>
        <time>2016-05-18T12:39:45Z</time>
      </trkpt>
      <trkpt lat="43.38885" lon="6.0942">
        <ele>329.20001220703</ele>
        <time>2016-05-18T12:39:47Z</time>
      </trkpt>
      <trkpt lat="43.38885" lon="6.0942">
        <ele>329</ele>
        <time>2016-05-18T12:39:49Z</time>
      </trkpt>
      <trkpt lat="43.38885" lon="6.0942">
        <ele>329</ele>
        <time>2016-05-18T12:39:50Z</time>
      </trkpt>
      <trkpt lat="43.38885" lon="6.0942">
        <ele>329</ele>
        <time>2016-05-18T12:39:51Z</time>
      </trkpt>
      <trkpt lat="43.38885" lon="6.0942">
        <ele>329</ele>
        <time>2016-05-18T12:39:53Z</time>
      </trkpt>
      <trkpt lat="43.38885" lon="6.0942">
        <ele>329</ele>
        <time>2016-05-18T12:39:55Z</time>
      </trkpt>
      <trkpt lat="43.38885" lon="6.0942">
        <ele>329</ele>
        <time>2016-05-18T12:39:57Z</time>
      </trkpt>
      <trkpt lat="43.38885" lon="6.0942">
        <ele>329.20001220703</ele>
        <time>2016-05-18T12:39:59Z</time>
      </trkpt>
      <trkpt lat="43.38885" lon="6.0942">
        <ele>329.39999389648</ele>
        <time>2016-05-18T12:40:03Z</time>
      </trkpt>
      <trkpt lat="43.38884" lon="6.0942">
        <ele>329.39999389648</ele>
        <time>2016-05-18T12:40:05Z</time>
      </trkpt>
      <trkpt lat="43.38885" lon="6.0942">
        <ele>329.39999389648</ele>
        <time>2016-05-18T12:40:07Z</time>
      </trkpt>
      <trkpt lat="43.38885" lon="6.0942">
        <ele>329.39999389648</ele>
        <time>2016-05-18T12:40:09Z</time>
      </trkpt>
      <trkpt lat="43.38885" lon="6.0942">
        <ele>329.39999389648</ele>
        <time>2016-05-18T12:40:11Z</time>
      </trkpt>
      <trkpt lat="43.38885" lon="6.0942">
        <ele>329.20001220703</ele>
        <time>2016-05-18T12:40:13Z</time>
      </trkpt>
      <trkpt lat="43.38885" lon="6.0942">
        <ele>329.20001220703</ele>
        <time>2016-05-18T12:40:15Z</time>
      </trkpt>
      <trkpt lat="43.38884" lon="6.0942">
        <ele>329.20001220703</ele>
        <time>2016-05-18T12:40:17Z</time>
      </trkpt>
      <trkpt lat="43.38884" lon="6.0942">
        <ele>329</ele>
        <time>2016-05-18T12:40:19Z</time>
      </trkpt>
      <trkpt lat="43.38884" lon="6.0942">
        <ele>329</ele>
        <time>2016-05-18T12:40:20Z</time>
      </trkpt>
      <trkpt lat="43.38884" lon="6.0942">
        <ele>328.79998779297</ele>
        <time>2016-05-18T12:40:21Z</time>
      </trkpt>
      <trkpt lat="43.38884" lon="6.0942">
        <ele>328.79998779297</ele>
        <time>2016-05-18T12:40:22Z</time>
      </trkpt>
      <trkpt lat="43.38884" lon="6.0942">
        <ele>328.79998779297</ele>
        <time>2016-05-18T12:40:23Z</time>
      </trkpt>
      <trkpt lat="43.38884" lon="6.0942">
        <ele>329</ele>
        <time>2016-05-18T12:40:25Z</time>
      </trkpt>
      <trkpt lat="43.38882" lon="6.0942">
        <ele>329</ele>
        <time>2016-05-18T12:40:27Z</time>
      </trkpt>
      <trkpt lat="43.3888" lon="6.09421">
        <ele>329</ele>
        <time>2016-05-18T12:40:29Z</time>
      </trkpt>
      <trkpt lat="43.38879" lon="6.09422">
        <ele>328.79998779297</ele>
        <time>2016-05-18T12:40:31Z</time>
      </trkpt>
      <trkpt lat="43.38879" lon="6.09423">
        <ele>328.39999389648</ele>
        <time>2016-05-18T12:40:33Z</time>
      </trkpt>
      <trkpt lat="43.38879" lon="6.09423">
        <ele>328.20001220703</ele>
        <time>2016-05-18T12:40:34Z</time>
      </trkpt>
      <trkpt lat="43.38879" lon="6.09423">
        <ele>328</ele>
        <time>2016-05-18T12:40:35Z</time>
      </trkpt>
      <trkpt lat="43.38879" lon="6.09423">
        <ele>327.60000610352</ele>
        <time>2016-05-18T12:40:37Z</time>
      </trkpt>
      <trkpt lat="43.38879" lon="6.09423">
        <ele>327.60000610352</ele>
        <time>2016-05-18T12:40:39Z</time>
      </trkpt>
      <trkpt lat="43.38879" lon="6.09423">
        <ele>327.60000610352</ele>
        <time>2016-05-18T12:40:41Z</time>
      </trkpt>
      <trkpt lat="43.38879" lon="6.09423">
        <ele>327.60000610352</ele>
        <time>2016-05-18T12:40:43Z</time>
      </trkpt>
      <trkpt lat="43.38879" lon="6.09423">
        <ele>327.79998779297</ele>
        <time>2016-05-18T12:40:45Z</time>
      </trkpt>
      <trkpt lat="43.38879" lon="6.09423">
        <ele>327.60000610352</ele>
        <time>2016-05-18T12:40:47Z</time>
      </trkpt>
      <trkpt lat="43.38879" lon="6.09423">
        <ele>327.39999389648</ele>
        <time>2016-05-18T12:40:49Z</time>
      </trkpt>
      <trkpt lat="43.38879" lon="6.09423">
        <ele>327.39999389648</ele>
        <time>2016-05-18T12:40:51Z</time>
      </trkpt>
      <trkpt lat="43.38879" lon="6.09423">
        <ele>327.39999389648</ele>
        <time>2016-05-18T12:40:53Z</time>
      </trkpt>
      <trkpt lat="43.38879" lon="6.09423">
        <ele>327.60000610352</ele>
        <time>2016-05-18T12:40:55Z</time>
      </trkpt>
      <trkpt lat="43.38879" lon="6.09423">
        <ele>327.60000610352</ele>
        <time>2016-05-18T12:40:57Z</time>
      </trkpt>
      <trkpt lat="43.38879" lon="6.09423">
        <ele>327.60000610352</ele>
        <time>2016-05-18T12:40:59Z</time>
      </trkpt>
      <trkpt lat="43.38879" lon="6.09423">
        <ele>327.60000610352</ele>
        <time>2016-05-18T12:41:01Z</time>
      </trkpt>
      <trkpt lat="43.38879" lon="6.09423">
        <ele>327.60000610352</ele>
        <time>2016-05-18T12:41:03Z</time>
      </trkpt>
      <trkpt lat="43.38879" lon="6.09423">
        <ele>327.60000610352</ele>
        <time>2016-05-18T12:41:05Z</time>
      </trkpt>
      <trkpt lat="43.38879" lon="6.09423">
        <ele>327.60000610352</ele>
        <time>2016-05-18T12:41:07Z</time>
      </trkpt>
      <trkpt lat="43.38879" lon="6.09423">
        <ele>327.60000610352</ele>
        <time>2016-05-18T12:41:09Z</time>
      </trkpt>
      <trkpt lat="43.38879" lon="6.09423">
        <ele>327.60000610352</ele>
        <time>2016-05-18T12:41:11Z</time>
      </trkpt>
      <trkpt lat="43.38879" lon="6.09423">
        <ele>327.60000610352</ele>
        <time>2016-05-18T12:41:13Z</time>
      </trkpt>
      <trkpt lat="43.38879" lon="6.09423">
        <ele>327.60000610352</ele>
        <time>2016-05-18T12:41:15Z</time>
      </trkpt>
      <trkpt lat="43.38879" lon="6.09423">
        <ele>327.60000610352</ele>
        <time>2016-05-18T12:41:17Z</time>
      </trkpt>
      <trkpt lat="43.38879" lon="6.09423">
        <ele>327.60000610352</ele>
        <time>2016-05-18T12:41:19Z</time>
      </trkpt>
      <trkpt lat="43.38879" lon="6.09423">
        <ele>327.39999389648</ele>
        <time>2016-05-18T12:41:21Z</time>
      </trkpt>
      <trkpt lat="43.38879" lon="6.09423">
        <ele>327.39999389648</ele>
        <time>2016-05-18T12:41:23Z</time>
      </trkpt>
      <trkpt lat="43.38879" lon="6.09423">
        <ele>327.39999389648</ele>
        <time>2016-05-18T12:41:25Z</time>
      </trkpt>
      <trkpt lat="43.38879" lon="6.09423">
        <ele>327.60000610352</ele>
        <time>2016-05-18T12:41:26Z</time>
      </trkpt>
      <trkpt lat="43.38879" lon="6.09423">
        <ele>327.60000610352</ele>
        <time>2016-05-18T12:41:27Z</time>
      </trkpt>
      <trkpt lat="43.38879" lon="6.09423">
        <ele>327.39999389648</ele>
        <time>2016-05-18T12:41:29Z</time>
      </trkpt>
      <trkpt lat="43.38879" lon="6.09423">
        <ele>327</ele>
        <time>2016-05-18T12:41:31Z</time>
      </trkpt>
      <trkpt lat="43.38879" lon="6.09423">
        <ele>327</ele>
        <time>2016-05-18T12:41:33Z</time>
      </trkpt>
      <trkpt lat="43.38879" lon="6.09423">
        <ele>327.39999389648</ele>
        <time>2016-05-18T12:41:35Z</time>
      </trkpt>
      <trkpt lat="43.38879" lon="6.09423">
        <ele>327.60000610352</ele>
        <time>2016-05-18T12:41:37Z</time>
      </trkpt>
      <trkpt lat="43.38879" lon="6.09423">
        <ele>327.39999389648</ele>
        <time>2016-05-18T12:41:39Z</time>
      </trkpt>
      <trkpt lat="43.38879" lon="6.09423">
        <ele>327.39999389648</ele>
        <time>2016-05-18T12:41:41Z</time>
      </trkpt>
      <trkpt lat="43.38879" lon="6.09423">
        <ele>327.39999389648</ele>
        <time>2016-05-18T12:41:43Z</time>
      </trkpt>
      <trkpt lat="43.38879" lon="6.09423">
        <ele>327.39999389648</ele>
        <time>2016-05-18T12:41:45Z</time>
      </trkpt>
      <trkpt lat="43.38879" lon="6.09423">
        <ele>327.39999389648</ele>
        <time>2016-05-18T12:41:47Z</time>
      </trkpt>
      <trkpt lat="43.38879" lon="6.09423">
        <ele>327.39999389648</ele>
        <time>2016-05-18T12:41:49Z</time>
      </trkpt>
      <trkpt lat="43.38879" lon="6.09423">
        <ele>327.39999389648</ele>
        <time>2016-05-18T12:41:51Z</time>
      </trkpt>
      <trkpt lat="43.38879" lon="6.09423">
        <ele>327.60000610352</ele>
        <time>2016-05-18T12:41:53Z</time>
      </trkpt>
      <trkpt lat="43.38879" lon="6.09424">
        <ele>327.60000610352</ele>
        <time>2016-05-18T12:41:55Z</time>
      </trkpt>
      <trkpt lat="43.38879" lon="6.09424">
        <ele>327.60000610352</ele>
        <time>2016-05-18T12:41:57Z</time>
      </trkpt>
      <trkpt lat="43.38879" lon="6.09424">
        <ele>327.60000610352</ele>
        <time>2016-05-18T12:41:59Z</time>
      </trkpt>
      <trkpt lat="43.38879" lon="6.09424">
        <ele>327.60000610352</ele>
        <time>2016-05-18T12:42:01Z</time>
      </trkpt>
      <trkpt lat="43.38879" lon="6.09424">
        <ele>327.60000610352</ele>
        <time>2016-05-18T12:42:03Z</time>
      </trkpt>
      <trkpt lat="43.38879" lon="6.09424">
        <ele>327.60000610352</ele>
        <time>2016-05-18T12:42:05Z</time>
      </trkpt>
      <trkpt lat="43.38879" lon="6.09424">
        <ele>327.79998779297</ele>
        <time>2016-05-18T12:42:07Z</time>
      </trkpt>
      <trkpt lat="43.38879" lon="6.09424">
        <ele>327.60000610352</ele>
        <time>2016-05-18T12:42:09Z</time>
      </trkpt>
      <trkpt lat="43.38879" lon="6.09423">
        <ele>327.60000610352</ele>
        <time>2016-05-18T12:42:10Z</time>
      </trkpt>
      <trkpt lat="43.38879" lon="6.09423">
        <ele>327.60000610352</ele>
        <time>2016-05-18T12:42:11Z</time>
      </trkpt>
      <trkpt lat="43.38879" lon="6.09424">
        <ele>327.79998779297</ele>
        <time>2016-05-18T12:42:13Z</time>
      </trkpt>
      <trkpt lat="43.38879" lon="6.09424">
        <ele>327.79998779297</ele>
        <time>2016-05-18T12:42:15Z</time>
      </trkpt>
      <trkpt lat="43.38879" lon="6.09424">
        <ele>327.79998779297</ele>
        <time>2016-05-18T12:42:17Z</time>
      </trkpt>
      <trkpt lat="43.38879" lon="6.09424">
        <ele>327.79998779297</ele>
        <time>2016-05-18T12:42:19Z</time>
      </trkpt>
      <trkpt lat="43.38879" lon="6.09424">
        <ele>327.60000610352</ele>
        <time>2016-05-18T12:42:21Z</time>
      </trkpt>
      <trkpt lat="43.38879" lon="6.09424">
        <ele>327.60000610352</ele>
        <time>2016-05-18T12:42:23Z</time>
      </trkpt>
      <trkpt lat="43.38879" lon="6.09424">
        <ele>327.39999389648</ele>
        <time>2016-05-18T12:42:25Z</time>
      </trkpt>
      <trkpt lat="43.38879" lon="6.09424">
        <ele>327.39999389648</ele>
        <time>2016-05-18T12:42:27Z</time>
      </trkpt>
      <trkpt lat="43.38879" lon="6.09424">
        <ele>327.60000610352</ele>
        <time>2016-05-18T12:42:29Z</time>
      </trkpt>
      <trkpt lat="43.38879" lon="6.09424">
        <ele>327.60000610352</ele>
        <time>2016-05-18T12:42:31Z</time>
      </trkpt>
      <trkpt lat="43.38879" lon="6.09424">
        <ele>328</ele>
        <time>2016-05-18T12:42:33Z</time>
      </trkpt>
      <trkpt lat="43.38879" lon="6.09424">
        <ele>328</ele>
        <time>2016-05-18T12:42:35Z</time>
      </trkpt>
      <trkpt lat="43.38879" lon="6.09424">
        <ele>328</ele>
        <time>2016-05-18T12:42:37Z</time>
      </trkpt>
      <trkpt lat="43.38879" lon="6.09424">
        <ele>328</ele>
        <time>2016-05-18T12:42:39Z</time>
      </trkpt>
      <trkpt lat="43.38879" lon="6.09424">
        <ele>327.79998779297</ele>
        <time>2016-05-18T12:42:41Z</time>
      </trkpt>
      <trkpt lat="43.38879" lon="6.09424">
        <ele>327.60000610352</ele>
        <time>2016-05-18T12:42:43Z</time>
      </trkpt>
      <trkpt lat="43.38879" lon="6.09424">
        <ele>327.60000610352</ele>
        <time>2016-05-18T12:42:45Z</time>
      </trkpt>
      <trkpt lat="43.38879" lon="6.09424">
        <ele>327.60000610352</ele>
        <time>2016-05-18T12:42:47Z</time>
      </trkpt>
      <trkpt lat="43.38879" lon="6.09424">
        <ele>327.60000610352</ele>
        <time>2016-05-18T12:42:49Z</time>
      </trkpt>
      <trkpt lat="43.38879" lon="6.09424">
        <ele>327.60000610352</ele>
        <time>2016-05-18T12:42:51Z</time>
      </trkpt>
      <trkpt lat="43.38879" lon="6.09424">
        <ele>327.60000610352</ele>
        <time>2016-05-18T12:42:53Z</time>
      </trkpt>
      <trkpt lat="43.38879" lon="6.09424">
        <ele>327.60000610352</ele>
        <time>2016-05-18T12:42:55Z</time>
      </trkpt>
      <trkpt lat="43.38879" lon="6.09424">
        <ele>327.60000610352</ele>
        <time>2016-05-18T12:42:57Z</time>
      </trkpt>
      <trkpt lat="43.38879" lon="6.09424">
        <ele>327.39999389648</ele>
        <time>2016-05-18T12:42:59Z</time>
      </trkpt>
      <trkpt lat="43.38879" lon="6.09424">
        <ele>327.39999389648</ele>
        <time>2016-05-18T12:43:01Z</time>
      </trkpt>
      <trkpt lat="43.38879" lon="6.09424">
        <ele>327.39999389648</ele>
        <time>2016-05-18T12:43:03Z</time>
      </trkpt>
      <trkpt lat="43.38879" lon="6.09424">
        <ele>327.20001220703</ele>
        <time>2016-05-18T12:43:04Z</time>
      </trkpt>
      <trkpt lat="43.38879" lon="6.09424">
        <ele>327.20001220703</ele>
        <time>2016-05-18T12:43:05Z</time>
      </trkpt>
      <trkpt lat="43.38879" lon="6.09424">
        <ele>327.39999389648</ele>
        <time>2016-05-18T12:43:07Z</time>
      </trkpt>
      <trkpt lat="43.38879" lon="6.09424">
        <ele>327.20001220703</ele>
        <time>2016-05-18T12:43:09Z</time>
      </trkpt>
      <trkpt lat="43.38879" lon="6.09424">
        <ele>327.20001220703</ele>
        <time>2016-05-18T12:43:11Z</time>
      </trkpt>
      <trkpt lat="43.38879" lon="6.09424">
        <ele>327.20001220703</ele>
        <time>2016-05-18T12:43:13Z</time>
      </trkpt>
      <trkpt lat="43.38879" lon="6.09424">
        <ele>327.39999389648</ele>
        <time>2016-05-18T12:43:15Z</time>
      </trkpt>
      <trkpt lat="43.38879" lon="6.09424">
        <ele>327.39999389648</ele>
        <time>2016-05-18T12:43:17Z</time>
      </trkpt>
      <trkpt lat="43.38879" lon="6.09424">
        <ele>327.60000610352</ele>
        <time>2016-05-18T12:43:19Z</time>
      </trkpt>
      <trkpt lat="43.38879" lon="6.09424">
        <ele>327.79998779297</ele>
        <time>2016-05-18T12:43:21Z</time>
      </trkpt>
      <trkpt lat="43.38879" lon="6.09424">
        <ele>327.60000610352</ele>
        <time>2016-05-18T12:43:23Z</time>
      </trkpt>
      <trkpt lat="43.38879" lon="6.09424">
        <ele>327.60000610352</ele>
        <time>2016-05-18T12:43:25Z</time>
      </trkpt>
      <trkpt lat="43.38879" lon="6.09424">
        <ele>327.60000610352</ele>
        <time>2016-05-18T12:43:26Z</time>
      </trkpt>
      <trkpt lat="43.38879" lon="6.09424">
        <ele>327.60000610352</ele>
        <time>2016-05-18T12:43:27Z</time>
      </trkpt>
      <trkpt lat="43.38879" lon="6.09424">
        <ele>327.60000610352</ele>
        <time>2016-05-18T12:43:29Z</time>
      </trkpt>
      <trkpt lat="43.38879" lon="6.09424">
        <ele>327.39999389648</ele>
        <time>2016-05-18T12:43:31Z</time>
      </trkpt>
      <trkpt lat="43.38879" lon="6.09424">
        <ele>327.39999389648</ele>
        <time>2016-05-18T12:43:33Z</time>
      </trkpt>
      <trkpt lat="43.38879" lon="6.09424">
        <ele>327.39999389648</ele>
        <time>2016-05-18T12:43:35Z</time>
      </trkpt>
      <trkpt lat="43.38879" lon="6.09424">
        <ele>327.39999389648</ele>
        <time>2016-05-18T12:43:37Z</time>
      </trkpt>
      <trkpt lat="43.38879" lon="6.09424">
        <ele>327.39999389648</ele>
        <time>2016-05-18T12:43:39Z</time>
      </trkpt>
      <trkpt lat="43.38879" lon="6.09424">
        <ele>327.39999389648</ele>
        <time>2016-05-18T12:43:41Z</time>
      </trkpt>
      <trkpt lat="43.38879" lon="6.09424">
        <ele>327.39999389648</ele>
        <time>2016-05-18T12:43:43Z</time>
      </trkpt>
      <trkpt lat="43.38879" lon="6.09424">
        <ele>327.39999389648</ele>
        <time>2016-05-18T12:43:45Z</time>
      </trkpt>
      <trkpt lat="43.38879" lon="6.09424">
        <ele>327.60000610352</ele>
        <time>2016-05-18T12:43:47Z</time>
      </trkpt>
      <trkpt lat="43.38879" lon="6.09424">
        <ele>327.60000610352</ele>
        <time>2016-05-18T12:43:49Z</time>
      </trkpt>
      <trkpt lat="43.38879" lon="6.09424">
        <ele>327.60000610352</ele>
        <time>2016-05-18T12:43:51Z</time>
      </trkpt>
      <trkpt lat="43.38879" lon="6.09424">
        <ele>327.60000610352</ele>
        <time>2016-05-18T12:43:53Z</time>
      </trkpt>
      <trkpt lat="43.38879" lon="6.09424">
        <ele>327.60000610352</ele>
        <time>2016-05-18T12:43:55Z</time>
      </trkpt>
      <trkpt lat="43.38879" lon="6.09424">
        <ele>327.60000610352</ele>
        <time>2016-05-18T12:43:56Z</time>
      </trkpt>
      <trkpt lat="43.38879" lon="6.09423">
        <ele>327.60000610352</ele>
        <time>2016-05-18T12:43:57Z</time>
      </trkpt>
      <trkpt lat="43.38879" lon="6.09423">
        <ele>327.79998779297</ele>
        <time>2016-05-18T12:43:59Z</time>
      </trkpt>
      <trkpt lat="43.38879" lon="6.09422">
        <ele>328</ele>
        <time>2016-05-18T12:44:01Z</time>
      </trkpt>
      <trkpt lat="43.38879" lon="6.09421">
        <ele>328</ele>
        <time>2016-05-18T12:44:03Z</time>
      </trkpt>
      <trkpt lat="43.38879" lon="6.0942">
        <ele>328</ele>
        <time>2016-05-18T12:44:05Z</time>
      </trkpt>
      <trkpt lat="43.38879" lon="6.09419">
        <ele>327.79998779297</ele>
        <time>2016-05-18T12:44:06Z</time>
      </trkpt>
      <trkpt lat="43.38879" lon="6.09419">
        <ele>327.79998779297</ele>
        <time>2016-05-18T12:44:07Z</time>
      </trkpt>
      <trkpt lat="43.38879" lon="6.09419">
        <ele>327.60000610352</ele>
        <time>2016-05-18T12:44:09Z</time>
      </trkpt>
      <trkpt lat="43.3888" lon="6.09418">
        <ele>327.79998779297</ele>
        <time>2016-05-18T12:44:11Z</time>
      </trkpt>
      <trkpt lat="43.38879" lon="6.09418">
        <ele>327.79998779297</ele>
        <time>2016-05-18T12:44:13Z</time>
      </trkpt>
      <trkpt lat="43.38879" lon="6.09419">
        <ele>327.60000610352</ele>
        <time>2016-05-18T12:44:14Z</time>
      </trkpt>
      <trkpt lat="43.38878" lon="6.09419">
        <ele>327.60000610352</ele>
        <time>2016-05-18T12:44:15Z</time>
      </trkpt>
      <trkpt lat="43.38878" lon="6.09419">
        <ele>327.60000610352</ele>
        <time>2016-05-18T12:44:17Z</time>
      </trkpt>
      <trkpt lat="43.38878" lon="6.09419">
        <ele>327.79998779297</ele>
        <time>2016-05-18T12:44:19Z</time>
      </trkpt>
      <trkpt lat="43.38878" lon="6.09419">
        <ele>327.79998779297</ele>
        <time>2016-05-18T12:44:21Z</time>
      </trkpt>
      <trkpt lat="43.38878" lon="6.09419">
        <ele>327.79998779297</ele>
        <time>2016-05-18T12:44:23Z</time>
      </trkpt>
      <trkpt lat="43.38878" lon="6.09419">
        <ele>327.79998779297</ele>
        <time>2016-05-18T12:44:25Z</time>
      </trkpt>
      <trkpt lat="43.38878" lon="6.09419">
        <ele>327.79998779297</ele>
        <time>2016-05-18T12:44:26Z</time>
      </trkpt>
      <trkpt lat="43.38878" lon="6.09419">
        <ele>327.79998779297</ele>
        <time>2016-05-18T12:44:27Z</time>
      </trkpt>
      <trkpt lat="43.38878" lon="6.09419">
        <ele>327.79998779297</ele>
        <time>2016-05-18T12:44:29Z</time>
      </trkpt>
      <trkpt lat="43.38878" lon="6.09419">
        <ele>327.79998779297</ele>
        <time>2016-05-18T12:44:31Z</time>
      </trkpt>
      <trkpt lat="43.38878" lon="6.09419">
        <ele>327.79998779297</ele>
        <time>2016-05-18T12:44:33Z</time>
      </trkpt>
      <trkpt lat="43.38878" lon="6.09419">
        <ele>328</ele>
        <time>2016-05-18T12:44:35Z</time>
      </trkpt>
      <trkpt lat="43.38878" lon="6.09419">
        <ele>328</ele>
        <time>2016-05-18T12:44:37Z</time>
      </trkpt>
      <trkpt lat="43.38878" lon="6.09419">
        <ele>328</ele>
        <time>2016-05-18T12:44:39Z</time>
      </trkpt>
      <trkpt lat="43.38878" lon="6.09419">
        <ele>327.79998779297</ele>
        <time>2016-05-18T12:44:41Z</time>
      </trkpt>
      <trkpt lat="43.38878" lon="6.09419">
        <ele>327.79998779297</ele>
        <time>2016-05-18T12:44:43Z</time>
      </trkpt>
      <trkpt lat="43.38878" lon="6.09419">
        <ele>327.79998779297</ele>
        <time>2016-05-18T12:44:45Z</time>
      </trkpt>
      <trkpt lat="43.38878" lon="6.09419">
        <ele>327.79998779297</ele>
        <time>2016-05-18T12:44:47Z</time>
      </trkpt>
      <trkpt lat="43.38878" lon="6.09419">
        <ele>327.79998779297</ele>
        <time>2016-05-18T12:44:49Z</time>
      </trkpt>
      <trkpt lat="43.38878" lon="6.09419">
        <ele>327.79998779297</ele>
        <time>2016-05-18T12:44:51Z</time>
      </trkpt>
      <trkpt lat="43.38878" lon="6.09419">
        <ele>327.79998779297</ele>
        <time>2016-05-18T12:44:53Z</time>
      </trkpt>
      <trkpt lat="43.38878" lon="6.09419">
        <ele>327.79998779297</ele>
        <time>2016-05-18T12:44:55Z</time>
      </trkpt>
      <trkpt lat="43.38878" lon="6.09419">
        <ele>327.79998779297</ele>
        <time>2016-05-18T12:44:57Z</time>
      </trkpt>
      <trkpt lat="43.38878" lon="6.09419">
        <ele>327.60000610352</ele>
        <time>2016-05-18T12:44:59Z</time>
      </trkpt>
      <trkpt lat="43.38878" lon="6.09419">
        <ele>327.60000610352</ele>
        <time>2016-05-18T12:45:01Z</time>
      </trkpt>
      <trkpt lat="43.38878" lon="6.09419">
        <ele>327.79998779297</ele>
        <time>2016-05-18T12:45:03Z</time>
      </trkpt>
      <trkpt lat="43.38878" lon="6.09419">
        <ele>327.79998779297</ele>
        <time>2016-05-18T12:45:05Z</time>
      </trkpt>
      <trkpt lat="43.38878" lon="6.09419">
        <ele>327.79998779297</ele>
        <time>2016-05-18T12:45:07Z</time>
      </trkpt>
      <trkpt lat="43.38878" lon="6.09419">
        <ele>327.79998779297</ele>
        <time>2016-05-18T12:45:09Z</time>
      </trkpt>
      <trkpt lat="43.38878" lon="6.09419">
        <ele>327.79998779297</ele>
        <time>2016-05-18T12:45:11Z</time>
      </trkpt>
      <trkpt lat="43.38878" lon="6.09419">
        <ele>327.79998779297</ele>
        <time>2016-05-18T12:45:13Z</time>
      </trkpt>
      <trkpt lat="43.38878" lon="6.09419">
        <ele>327.79998779297</ele>
        <time>2016-05-18T12:45:15Z</time>
      </trkpt>
      <trkpt lat="43.38878" lon="6.09419">
        <ele>327.79998779297</ele>
        <time>2016-05-18T12:45:17Z</time>
      </trkpt>
      <trkpt lat="43.38878" lon="6.09419">
        <ele>327.79998779297</ele>
        <time>2016-05-18T12:45:19Z</time>
      </trkpt>
      <trkpt lat="43.38878" lon="6.09419">
        <ele>327.79998779297</ele>
        <time>2016-05-18T12:45:21Z</time>
      </trkpt>
      <trkpt lat="43.38878" lon="6.09419">
        <ele>327.79998779297</ele>
        <time>2016-05-18T12:45:23Z</time>
      </trkpt>
      <trkpt lat="43.38878" lon="6.09419">
        <ele>327.79998779297</ele>
        <time>2016-05-18T12:45:25Z</time>
      </trkpt>
      <trkpt lat="43.38878" lon="6.09419">
        <ele>327.79998779297</ele>
        <time>2016-05-18T12:45:27Z</time>
      </trkpt>
      <trkpt lat="43.38878" lon="6.09419">
        <ele>327.79998779297</ele>
        <time>2016-05-18T12:45:29Z</time>
      </trkpt>
      <trkpt lat="43.38878" lon="6.09419">
        <ele>327.79998779297</ele>
        <time>2016-05-18T12:45:31Z</time>
      </trkpt>
      <trkpt lat="43.38879" lon="6.09419">
        <ele>328</ele>
        <time>2016-05-18T12:45:33Z</time>
      </trkpt>
      <trkpt lat="43.38878" lon="6.0942">
        <ele>328.20001220703</ele>
        <time>2016-05-18T12:45:35Z</time>
      </trkpt>
      <trkpt lat="43.38878" lon="6.0942">
        <ele>328</ele>
        <time>2016-05-18T12:45:37Z</time>
      </trkpt>
      <trkpt lat="43.38878" lon="6.0942">
        <ele>328.20001220703</ele>
        <time>2016-05-18T12:45:39Z</time>
      </trkpt>
      <trkpt lat="43.38878" lon="6.0942">
        <ele>328.20001220703</ele>
        <time>2016-05-18T12:45:41Z</time>
      </trkpt>
      <trkpt lat="43.38878" lon="6.0942">
        <ele>328.20001220703</ele>
        <time>2016-05-18T12:45:43Z</time>
      </trkpt>
      <trkpt lat="43.38878" lon="6.0942">
        <ele>328</ele>
        <time>2016-05-18T12:45:45Z</time>
      </trkpt>
      <trkpt lat="43.38878" lon="6.0942">
        <ele>327.79998779297</ele>
        <time>2016-05-18T12:45:47Z</time>
      </trkpt>
      <trkpt lat="43.38878" lon="6.0942">
        <ele>327.39999389648</ele>
        <time>2016-05-18T12:45:49Z</time>
      </trkpt>
      <trkpt lat="43.38878" lon="6.0942">
        <ele>327.39999389648</ele>
        <time>2016-05-18T12:45:51Z</time>
      </trkpt>
      <trkpt lat="43.38878" lon="6.0942">
        <ele>327.20001220703</ele>
        <time>2016-05-18T12:45:53Z</time>
      </trkpt>
      <trkpt lat="43.38878" lon="6.0942">
        <ele>326.79998779297</ele>
        <time>2016-05-18T12:45:55Z</time>
      </trkpt>
      <trkpt lat="43.38878" lon="6.0942">
        <ele>326.79998779297</ele>
        <time>2016-05-18T12:45:57Z</time>
      </trkpt>
      <trkpt lat="43.38878" lon="6.0942">
        <ele>326.79998779297</ele>
        <time>2016-05-18T12:45:59Z</time>
      </trkpt>
      <trkpt lat="43.38878" lon="6.0942">
        <ele>326.79998779297</ele>
        <time>2016-05-18T12:46:01Z</time>
      </trkpt>
      <trkpt lat="43.38878" lon="6.0942">
        <ele>326.79998779297</ele>
        <time>2016-05-18T12:46:03Z</time>
      </trkpt>
      <trkpt lat="43.38878" lon="6.0942">
        <ele>326.79998779297</ele>
        <time>2016-05-18T12:46:04Z</time>
      </trkpt>
      <trkpt lat="43.38878" lon="6.0942">
        <ele>326.79998779297</ele>
        <time>2016-05-18T12:46:05Z</time>
      </trkpt>
      <trkpt lat="43.38878" lon="6.0942">
        <ele>326.79998779297</ele>
        <time>2016-05-18T12:46:07Z</time>
      </trkpt>
      <trkpt lat="43.38878" lon="6.0942">
        <ele>326.79998779297</ele>
        <time>2016-05-18T12:46:09Z</time>
      </trkpt>
      <trkpt lat="43.38878" lon="6.0942">
        <ele>327</ele>
        <time>2016-05-18T12:46:11Z</time>
      </trkpt>
      <trkpt lat="43.38878" lon="6.0942">
        <ele>327.20001220703</ele>
        <time>2016-05-18T12:46:13Z</time>
      </trkpt>
      <trkpt lat="43.38878" lon="6.0942">
        <ele>327</ele>
        <time>2016-05-18T12:46:15Z</time>
      </trkpt>
      <trkpt lat="43.38878" lon="6.0942">
        <ele>326.79998779297</ele>
        <time>2016-05-18T12:46:17Z</time>
      </trkpt>
      <trkpt lat="43.38878" lon="6.0942">
        <ele>326.60000610352</ele>
        <time>2016-05-18T12:46:19Z</time>
      </trkpt>
      <trkpt lat="43.38878" lon="6.0942">
        <ele>326.79998779297</ele>
        <time>2016-05-18T12:46:21Z</time>
      </trkpt>
      <trkpt lat="43.38878" lon="6.0942">
        <ele>326.79998779297</ele>
        <time>2016-05-18T12:46:23Z</time>
      </trkpt>
      <trkpt lat="43.38879" lon="6.0942">
        <ele>326.79998779297</ele>
        <time>2016-05-18T12:46:25Z</time>
      </trkpt>
      <trkpt lat="43.38879" lon="6.0942">
        <ele>327.39999389648</ele>
        <time>2016-05-18T12:46:27Z</time>
      </trkpt>
      <trkpt lat="43.38879" lon="6.09421">
        <ele>327.79998779297</ele>
        <time>2016-05-18T12:46:29Z</time>
      </trkpt>
      <trkpt lat="43.38879" lon="6.09421">
        <ele>327.79998779297</ele>
        <time>2016-05-18T12:46:31Z</time>
      </trkpt>
      <trkpt lat="43.38879" lon="6.09421">
        <ele>327.79998779297</ele>
        <time>2016-05-18T12:46:33Z</time>
      </trkpt>
      <trkpt lat="43.38879" lon="6.09421">
        <ele>327.79998779297</ele>
        <time>2016-05-18T12:46:35Z</time>
      </trkpt>
      <trkpt lat="43.38879" lon="6.09421">
        <ele>328</ele>
        <time>2016-05-18T12:46:37Z</time>
      </trkpt>
      <trkpt lat="43.38879" lon="6.09422">
        <ele>328</ele>
        <time>2016-05-18T12:46:39Z</time>
      </trkpt>
      <trkpt lat="43.38879" lon="6.09423">
        <ele>328</ele>
        <time>2016-05-18T12:46:41Z</time>
      </trkpt>
      <trkpt lat="43.38879" lon="6.09423">
        <ele>328</ele>
        <time>2016-05-18T12:46:43Z</time>
      </trkpt>
      <trkpt lat="43.38879" lon="6.09423">
        <ele>328</ele>
        <time>2016-05-18T12:46:45Z</time>
      </trkpt>
      <trkpt lat="43.38879" lon="6.09423">
        <ele>327.79998779297</ele>
        <time>2016-05-18T12:46:47Z</time>
      </trkpt>
      <trkpt lat="43.38879" lon="6.09423">
        <ele>327.79998779297</ele>
        <time>2016-05-18T12:46:49Z</time>
      </trkpt>
      <trkpt lat="43.38879" lon="6.09423">
        <ele>328</ele>
        <time>2016-05-18T12:46:51Z</time>
      </trkpt>
      <trkpt lat="43.38879" lon="6.09423">
        <ele>328</ele>
        <time>2016-05-18T12:46:53Z</time>
      </trkpt>
      <trkpt lat="43.38879" lon="6.09423">
        <ele>328</ele>
        <time>2016-05-18T12:46:55Z</time>
      </trkpt>
      <trkpt lat="43.38879" lon="6.09423">
        <ele>328</ele>
        <time>2016-05-18T12:46:57Z</time>
      </trkpt>
      <trkpt lat="43.38879" lon="6.09423">
        <ele>328</ele>
        <time>2016-05-18T12:46:59Z</time>
      </trkpt>
      <trkpt lat="43.38879" lon="6.09423">
        <ele>328.20001220703</ele>
        <time>2016-05-18T12:47:01Z</time>
      </trkpt>
      <trkpt lat="43.38879" lon="6.09423">
        <ele>328.20001220703</ele>
        <time>2016-05-18T12:47:03Z</time>
      </trkpt>
      <trkpt lat="43.38879" lon="6.09424">
        <ele>328.20001220703</ele>
        <time>2016-05-18T12:47:05Z</time>
      </trkpt>
      <trkpt lat="43.38879" lon="6.09424">
        <ele>328.20001220703</ele>
        <time>2016-05-18T12:47:07Z</time>
      </trkpt>
      <trkpt lat="43.38879" lon="6.09424">
        <ele>328.39999389648</ele>
        <time>2016-05-18T12:47:09Z</time>
      </trkpt>
      <trkpt lat="43.38879" lon="6.09424">
        <ele>328.60000610352</ele>
        <time>2016-05-18T12:47:11Z</time>
      </trkpt>
      <trkpt lat="43.38879" lon="6.09424">
        <ele>328.79998779297</ele>
        <time>2016-05-18T12:47:13Z</time>
      </trkpt>
      <trkpt lat="43.38879" lon="6.09424">
        <ele>328.79998779297</ele>
        <time>2016-05-18T12:47:14Z</time>
      </trkpt>
      <trkpt lat="43.38879" lon="6.09424">
        <ele>328.60000610352</ele>
        <time>2016-05-18T12:47:17Z</time>
      </trkpt>
      <trkpt lat="43.38879" lon="6.09424">
        <ele>328.60000610352</ele>
        <time>2016-05-18T12:47:19Z</time>
      </trkpt>
      <trkpt lat="43.38879" lon="6.09424">
        <ele>328.60000610352</ele>
        <time>2016-05-18T12:47:21Z</time>
      </trkpt>
      <trkpt lat="43.38879" lon="6.09424">
        <ele>328.60000610352</ele>
        <time>2016-05-18T12:47:23Z</time>
      </trkpt>
      <trkpt lat="43.38879" lon="6.09424">
        <ele>328.60000610352</ele>
        <time>2016-05-18T12:47:25Z</time>
      </trkpt>
      <trkpt lat="43.38879" lon="6.09424">
        <ele>328.79998779297</ele>
        <time>2016-05-18T12:47:27Z</time>
      </trkpt>
      <trkpt lat="43.38879" lon="6.09424">
        <ele>328.60000610352</ele>
        <time>2016-05-18T12:47:29Z</time>
      </trkpt>
      <trkpt lat="43.38879" lon="6.09424">
        <ele>328.60000610352</ele>
        <time>2016-05-18T12:47:31Z</time>
      </trkpt>
      <trkpt lat="43.38878" lon="6.09424">
        <ele>328.60000610352</ele>
        <time>2016-05-18T12:47:33Z</time>
      </trkpt>
      <trkpt lat="43.38878" lon="6.09423">
        <ele>328.60000610352</ele>
        <time>2016-05-18T12:47:35Z</time>
      </trkpt>
      <trkpt lat="43.38878" lon="6.09423">
        <ele>328.60000610352</ele>
        <time>2016-05-18T12:47:37Z</time>
      </trkpt>
      <trkpt lat="43.38878" lon="6.09423">
        <ele>328.60000610352</ele>
        <time>2016-05-18T12:47:39Z</time>
      </trkpt>
      <trkpt lat="43.38878" lon="6.09423">
        <ele>328.60000610352</ele>
        <time>2016-05-18T12:47:41Z</time>
      </trkpt>
      <trkpt lat="43.38877" lon="6.09424">
        <ele>328.39999389648</ele>
        <time>2016-05-18T12:47:43Z</time>
      </trkpt>
      <trkpt lat="43.38877" lon="6.09424">
        <ele>328.20001220703</ele>
        <time>2016-05-18T12:47:45Z</time>
      </trkpt>
      <trkpt lat="43.38877" lon="6.09424">
        <ele>327.79998779297</ele>
        <time>2016-05-18T12:47:47Z</time>
      </trkpt>
      <trkpt lat="43.38877" lon="6.09424">
        <ele>327.60000610352</ele>
        <time>2016-05-18T12:47:49Z</time>
      </trkpt>
      <trkpt lat="43.38877" lon="6.09424">
        <ele>327.60000610352</ele>
        <time>2016-05-18T12:47:51Z</time>
      </trkpt>
      <trkpt lat="43.38877" lon="6.09424">
        <ele>327.60000610352</ele>
        <time>2016-05-18T12:47:53Z</time>
      </trkpt>
      <trkpt lat="43.38877" lon="6.09424">
        <ele>327.79998779297</ele>
        <time>2016-05-18T12:47:55Z</time>
      </trkpt>
      <trkpt lat="43.38877" lon="6.09424">
        <ele>328</ele>
        <time>2016-05-18T12:47:57Z</time>
      </trkpt>
      <trkpt lat="43.38877" lon="6.09424">
        <ele>328</ele>
        <time>2016-05-18T12:47:58Z</time>
      </trkpt>
      <trkpt lat="43.38877" lon="6.09424">
        <ele>327.79998779297</ele>
        <time>2016-05-18T12:47:59Z</time>
      </trkpt>
      <trkpt lat="43.38877" lon="6.09424">
        <ele>327.79998779297</ele>
        <time>2016-05-18T12:48:01Z</time>
      </trkpt>
      <trkpt lat="43.38877" lon="6.09424">
        <ele>327.79998779297</ele>
        <time>2016-05-18T12:48:03Z</time>
      </trkpt>
      <trkpt lat="43.38877" lon="6.09424">
        <ele>327.79998779297</ele>
        <time>2016-05-18T12:48:05Z</time>
      </trkpt>
      <trkpt lat="43.38877" lon="6.09424">
        <ele>328</ele>
        <time>2016-05-18T12:48:07Z</time>
      </trkpt>
      <trkpt lat="43.38877" lon="6.09424">
        <ele>327.79998779297</ele>
        <time>2016-05-18T12:48:09Z</time>
      </trkpt>
      <trkpt lat="43.38877" lon="6.09424">
        <ele>327.79998779297</ele>
        <time>2016-05-18T12:48:11Z</time>
      </trkpt>
      <trkpt lat="43.38877" lon="6.09424">
        <ele>327.79998779297</ele>
        <time>2016-05-18T12:48:13Z</time>
      </trkpt>
      <trkpt lat="43.38877" lon="6.09424">
        <ele>327.79998779297</ele>
        <time>2016-05-18T12:48:15Z</time>
      </trkpt>
      <trkpt lat="43.38877" lon="6.09424">
        <ele>327.60000610352</ele>
        <time>2016-05-18T12:48:17Z</time>
      </trkpt>
      <trkpt lat="43.38877" lon="6.09424">
        <ele>327.79998779297</ele>
        <time>2016-05-18T12:48:19Z</time>
      </trkpt>
      <trkpt lat="43.38877" lon="6.09424">
        <ele>327.79998779297</ele>
        <time>2016-05-18T12:48:21Z</time>
      </trkpt>
      <trkpt lat="43.38877" lon="6.09424">
        <ele>328</ele>
        <time>2016-05-18T12:48:23Z</time>
      </trkpt>
      <trkpt lat="43.38877" lon="6.09425">
        <ele>328</ele>
        <time>2016-05-18T12:48:25Z</time>
      </trkpt>
      <trkpt lat="43.38877" lon="6.09425">
        <ele>328</ele>
        <time>2016-05-18T12:48:27Z</time>
      </trkpt>
      <trkpt lat="43.38877" lon="6.09425">
        <ele>328</ele>
        <time>2016-05-18T12:48:29Z</time>
      </trkpt>
      <trkpt lat="43.38877" lon="6.09425">
        <ele>328</ele>
        <time>2016-05-18T12:48:31Z</time>
      </trkpt>
      <trkpt lat="43.38877" lon="6.09425">
        <ele>328.20001220703</ele>
        <time>2016-05-18T12:48:33Z</time>
      </trkpt>
      <trkpt lat="43.38877" lon="6.09425">
        <ele>328.20001220703</ele>
        <time>2016-05-18T12:48:35Z</time>
      </trkpt>
      <trkpt lat="43.38877" lon="6.09425">
        <ele>328.20001220703</ele>
        <time>2016-05-18T12:48:37Z</time>
      </trkpt>
      <trkpt lat="43.38877" lon="6.09425">
        <ele>328</ele>
        <time>2016-05-18T12:48:38Z</time>
      </trkpt>
      <trkpt lat="43.38877" lon="6.09425">
        <ele>327.79998779297</ele>
        <time>2016-05-18T12:48:39Z</time>
      </trkpt>
      <trkpt lat="43.38877" lon="6.09425">
        <ele>328</ele>
        <time>2016-05-18T12:48:41Z</time>
      </trkpt>
      <trkpt lat="43.38877" lon="6.09425">
        <ele>328</ele>
        <time>2016-05-18T12:48:43Z</time>
      </trkpt>
      <trkpt lat="43.38877" lon="6.09425">
        <ele>328.20001220703</ele>
        <time>2016-05-18T12:48:45Z</time>
      </trkpt>
      <trkpt lat="43.38877" lon="6.09424">
        <ele>328.39999389648</ele>
        <time>2016-05-18T12:48:47Z</time>
      </trkpt>
      <trkpt lat="43.38877" lon="6.09425">
        <ele>328.60000610352</ele>
        <time>2016-05-18T12:48:49Z</time>
      </trkpt>
      <trkpt lat="43.38877" lon="6.09424">
        <ele>328.39999389648</ele>
        <time>2016-05-18T12:48:51Z</time>
      </trkpt>
      <trkpt lat="43.38877" lon="6.09424">
        <ele>328.39999389648</ele>
        <time>2016-05-18T12:48:53Z</time>
      </trkpt>
      <trkpt lat="43.38877" lon="6.09424">
        <ele>328.39999389648</ele>
        <time>2016-05-18T12:48:55Z</time>
      </trkpt>
      <trkpt lat="43.38877" lon="6.09424">
        <ele>328.60000610352</ele>
        <time>2016-05-18T12:48:57Z</time>
      </trkpt>
      <trkpt lat="43.38877" lon="6.09424">
        <ele>328.60000610352</ele>
        <time>2016-05-18T12:48:59Z</time>
      </trkpt>
      <trkpt lat="43.38877" lon="6.09424">
        <ele>328.60000610352</ele>
        <time>2016-05-18T12:49:01Z</time>
      </trkpt>
      <trkpt lat="43.38877" lon="6.09424">
        <ele>328.60000610352</ele>
        <time>2016-05-18T12:49:03Z</time>
      </trkpt>
      <trkpt lat="43.38877" lon="6.09424">
        <ele>328.60000610352</ele>
        <time>2016-05-18T12:49:05Z</time>
      </trkpt>
      <trkpt lat="43.38876" lon="6.09422">
        <ele>328.60000610352</ele>
        <time>2016-05-18T12:49:07Z</time>
      </trkpt>
      <trkpt lat="43.38873" lon="6.09422">
        <ele>328.39999389648</ele>
        <time>2016-05-18T12:49:09Z</time>
      </trkpt>
      <trkpt lat="43.3887" lon="6.09422">
        <ele>328</ele>
        <time>2016-05-18T12:49:11Z</time>
      </trkpt>
      <trkpt lat="43.38868" lon="6.0942">
        <ele>327.79998779297</ele>
        <time>2016-05-18T12:49:12Z</time>
      </trkpt>
      <trkpt lat="43.38867" lon="6.09419">
        <ele>327.20001220703</ele>
        <time>2016-05-18T12:49:13Z</time>
      </trkpt>
      <trkpt lat="43.38865" lon="6.09414">
        <ele>326.60000610352</ele>
        <time>2016-05-18T12:49:15Z</time>
      </trkpt>
      <trkpt lat="43.38863" lon="6.09412">
        <ele>326.39999389648</ele>
        <time>2016-05-18T12:49:16Z</time>
      </trkpt>
      <trkpt lat="43.3886" lon="6.09409">
        <ele>326.39999389648</ele>
        <time>2016-05-18T12:49:17Z</time>
      </trkpt>
      <trkpt lat="43.38858" lon="6.09407">
        <ele>326</ele>
        <time>2016-05-18T12:49:18Z</time>
      </trkpt>
      <trkpt lat="43.38857" lon="6.09404">
        <ele>325.79998779297</ele>
        <time>2016-05-18T12:49:19Z</time>
      </trkpt>
      <trkpt lat="43.38855" lon="6.09402">
        <ele>325.39999389648</ele>
        <time>2016-05-18T12:49:20Z</time>
      </trkpt>
      <trkpt lat="43.38853" lon="6.094">
        <ele>324.79998779297</ele>
        <time>2016-05-18T12:49:21Z</time>
      </trkpt>
      <trkpt lat="43.3885" lon="6.09395">
        <ele>324</ele>
        <time>2016-05-18T12:49:23Z</time>
      </trkpt>
      <trkpt lat="43.38849" lon="6.09392">
        <ele>323.39999389648</ele>
        <time>2016-05-18T12:49:24Z</time>
      </trkpt>
      <trkpt lat="43.38848" lon="6.0939">
        <ele>323</ele>
        <time>2016-05-18T12:49:25Z</time>
      </trkpt>
      <trkpt lat="43.38847" lon="6.09389">
        <ele>322.60000610352</ele>
        <time>2016-05-18T12:49:26Z</time>
      </trkpt>
      <trkpt lat="43.38845" lon="6.09389">
        <ele>322.39999389648</ele>
        <time>2016-05-18T12:49:27Z</time>
      </trkpt>
      <trkpt lat="43.38844" lon="6.0939">
        <ele>322.20001220703</ele>
        <time>2016-05-18T12:49:28Z</time>
      </trkpt>
      <trkpt lat="43.38843" lon="6.09392">
        <ele>322</ele>
        <time>2016-05-18T12:49:29Z</time>
      </trkpt>
      <trkpt lat="43.38842" lon="6.09395">
        <ele>322</ele>
        <time>2016-05-18T12:49:30Z</time>
      </trkpt>
      <trkpt lat="43.3884" lon="6.09399">
        <ele>321.60000610352</ele>
        <time>2016-05-18T12:49:31Z</time>
      </trkpt>
      <trkpt lat="43.3884" lon="6.09404">
        <ele>321.39999389648</ele>
        <time>2016-05-18T12:49:32Z</time>
      </trkpt>
      <trkpt lat="43.38839" lon="6.09408">
        <ele>321</ele>
        <time>2016-05-18T12:49:33Z</time>
      </trkpt>
      <trkpt lat="43.38837" lon="6.09414">
        <ele>320.20001220703</ele>
        <time>2016-05-18T12:49:35Z</time>
      </trkpt>
      <trkpt lat="43.38835" lon="6.0942">
        <ele>318.60000610352</ele>
        <time>2016-05-18T12:49:37Z</time>
      </trkpt>
      <trkpt lat="43.38833" lon="6.09424">
        <ele>318.20001220703</ele>
        <time>2016-05-18T12:49:39Z</time>
      </trkpt>
      <trkpt lat="43.38832" lon="6.09429">
        <ele>317.39999389648</ele>
        <time>2016-05-18T12:49:41Z</time>
      </trkpt>
      <trkpt lat="43.38832" lon="6.09432">
        <ele>317.39999389648</ele>
        <time>2016-05-18T12:49:42Z</time>
      </trkpt>
      <trkpt lat="43.38831" lon="6.09434">
        <ele>317.20001220703</ele>
        <time>2016-05-18T12:49:43Z</time>
      </trkpt>
      <trkpt lat="43.38831" lon="6.09439">
        <ele>317</ele>
        <time>2016-05-18T12:49:45Z</time>
      </trkpt>
      <trkpt lat="43.38831" lon="6.09443">
        <ele>317.20001220703</ele>
        <time>2016-05-18T12:49:47Z</time>
      </trkpt>
      <trkpt lat="43.38831" lon="6.09446">
        <ele>317.39999389648</ele>
        <time>2016-05-18T12:49:49Z</time>
      </trkpt>
      <trkpt lat="43.38831" lon="6.09449">
        <ele>317.39999389648</ele>
        <time>2016-05-18T12:49:51Z</time>
      </trkpt>
      <trkpt lat="43.38832" lon="6.09452">
        <ele>317.39999389648</ele>
        <time>2016-05-18T12:49:53Z</time>
      </trkpt>
      <trkpt lat="43.38832" lon="6.09455">
        <ele>317.39999389648</ele>
        <time>2016-05-18T12:49:55Z</time>
      </trkpt>
      <trkpt lat="43.38834" lon="6.09457">
        <ele>317.39999389648</ele>
        <time>2016-05-18T12:49:57Z</time>
      </trkpt>
      <trkpt lat="43.38837" lon="6.09457">
        <ele>317.60000610352</ele>
        <time>2016-05-18T12:49:59Z</time>
      </trkpt>
      <trkpt lat="43.38838" lon="6.09457">
        <ele>317.60000610352</ele>
        <time>2016-05-18T12:50:00Z</time>
      </trkpt>
      <trkpt lat="43.3884" lon="6.09457">
        <ele>318</ele>
        <time>2016-05-18T12:50:01Z</time>
      </trkpt>
      <trkpt lat="43.38843" lon="6.09458">
        <ele>318.39999389648</ele>
        <time>2016-05-18T12:50:03Z</time>
      </trkpt>
      <trkpt lat="43.38844" lon="6.09459">
        <ele>318.79998779297</ele>
        <time>2016-05-18T12:50:04Z</time>
      </trkpt>
      <trkpt lat="43.38845" lon="6.0946">
        <ele>319.39999389648</ele>
        <time>2016-05-18T12:50:05Z</time>
      </trkpt>
      <trkpt lat="43.38846" lon="6.09461">
        <ele>319.79998779297</ele>
        <time>2016-05-18T12:50:06Z</time>
      </trkpt>
      <trkpt lat="43.38846" lon="6.09462">
        <ele>320.20001220703</ele>
        <time>2016-05-18T12:50:07Z</time>
      </trkpt>
      <trkpt lat="43.38846" lon="6.09462">
        <ele>320.79998779297</ele>
        <time>2016-05-18T12:50:09Z</time>
      </trkpt>
      <trkpt lat="43.38845" lon="6.09461">
        <ele>321</ele>
        <time>2016-05-18T12:50:11Z</time>
      </trkpt>
      <trkpt lat="43.38845" lon="6.09463">
        <ele>321</ele>
        <time>2016-05-18T12:50:13Z</time>
      </trkpt>
      <trkpt lat="43.38845" lon="6.09463">
        <ele>321.20001220703</ele>
        <time>2016-05-18T12:50:15Z</time>
      </trkpt>
      <trkpt lat="43.38845" lon="6.09463">
        <ele>321.20001220703</ele>
        <time>2016-05-18T12:50:17Z</time>
      </trkpt>
      <trkpt lat="43.38845" lon="6.09463">
        <ele>321.20001220703</ele>
        <time>2016-05-18T12:50:19Z</time>
      </trkpt>
      <trkpt lat="43.38845" lon="6.09463">
        <ele>321.20001220703</ele>
        <time>2016-05-18T12:50:21Z</time>
      </trkpt>
      <trkpt lat="43.38844" lon="6.09463">
        <ele>321.20001220703</ele>
        <time>2016-05-18T12:50:22Z</time>
      </trkpt>
      <trkpt lat="43.38844" lon="6.09463">
        <ele>320.79998779297</ele>
        <time>2016-05-18T12:50:25Z</time>
      </trkpt>
      <trkpt lat="43.38844" lon="6.09463">
        <ele>320.39999389648</ele>
        <time>2016-05-18T12:50:27Z</time>
      </trkpt>
      <trkpt lat="43.38844" lon="6.09463">
        <ele>320.39999389648</ele>
        <time>2016-05-18T12:50:29Z</time>
      </trkpt>
      <trkpt lat="43.38844" lon="6.09463">
        <ele>320.60000610352</ele>
        <time>2016-05-18T12:50:31Z</time>
      </trkpt>
      <trkpt lat="43.38844" lon="6.09463">
        <ele>320.60000610352</ele>
        <time>2016-05-18T12:50:32Z</time>
      </trkpt>
      <trkpt lat="43.38844" lon="6.09463">
        <ele>320.39999389648</ele>
        <time>2016-05-18T12:50:33Z</time>
      </trkpt>
      <trkpt lat="43.38844" lon="6.09463">
        <ele>320.20001220703</ele>
        <time>2016-05-18T12:50:35Z</time>
      </trkpt>
      <trkpt lat="43.38843" lon="6.09462">
        <ele>320</ele>
        <time>2016-05-18T12:50:37Z</time>
      </trkpt>
      <trkpt lat="43.38841" lon="6.0946">
        <ele>320</ele>
        <time>2016-05-18T12:50:39Z</time>
      </trkpt>
      <trkpt lat="43.38839" lon="6.09458">
        <ele>320</ele>
        <time>2016-05-18T12:50:41Z</time>
      </trkpt>
      <trkpt lat="43.38837" lon="6.09457">
        <ele>319.60000610352</ele>
        <time>2016-05-18T12:50:43Z</time>
      </trkpt>
      <trkpt lat="43.38836" lon="6.09456">
        <ele>319.39999389648</ele>
        <time>2016-05-18T12:50:44Z</time>
      </trkpt>
      <trkpt lat="43.38835" lon="6.09457">
        <ele>319.20001220703</ele>
        <time>2016-05-18T12:50:45Z</time>
      </trkpt>
      <trkpt lat="43.38832" lon="6.09457">
        <ele>319</ele>
        <time>2016-05-18T12:50:47Z</time>
      </trkpt>
      <trkpt lat="43.38832" lon="6.09457">
        <ele>318.60000610352</ele>
        <time>2016-05-18T12:50:49Z</time>
      </trkpt>
      <trkpt lat="43.38832" lon="6.09457">
        <ele>318.20001220703</ele>
        <time>2016-05-18T12:50:51Z</time>
      </trkpt>
      <trkpt lat="43.38832" lon="6.09457">
        <ele>318</ele>
        <time>2016-05-18T12:50:53Z</time>
      </trkpt>
      <trkpt lat="43.38832" lon="6.09457">
        <ele>318</ele>
        <time>2016-05-18T12:50:54Z</time>
      </trkpt>
      <trkpt lat="43.38832" lon="6.09457">
        <ele>317.79998779297</ele>
        <time>2016-05-18T12:50:55Z</time>
      </trkpt>
      <trkpt lat="43.38832" lon="6.09457">
        <ele>318</ele>
        <time>2016-05-18T12:50:57Z</time>
      </trkpt>
      <trkpt lat="43.38832" lon="6.09457">
        <ele>318</ele>
        <time>2016-05-18T12:50:59Z</time>
      </trkpt>
      <trkpt lat="43.38832" lon="6.09457">
        <ele>318.20001220703</ele>
        <time>2016-05-18T12:51:01Z</time>
      </trkpt>
      <trkpt lat="43.38832" lon="6.09457">
        <ele>318.20001220703</ele>
        <time>2016-05-18T12:51:03Z</time>
      </trkpt>
      <trkpt lat="43.38832" lon="6.09457">
        <ele>318.20001220703</ele>
        <time>2016-05-18T12:51:05Z</time>
      </trkpt>
      <trkpt lat="43.38831" lon="6.09458">
        <ele>318.20001220703</ele>
        <time>2016-05-18T12:51:07Z</time>
      </trkpt>
      <trkpt lat="43.38832" lon="6.09458">
        <ele>318.20001220703</ele>
        <time>2016-05-18T12:51:08Z</time>
      </trkpt>
      <trkpt lat="43.38834" lon="6.09458">
        <ele>318.20001220703</ele>
        <time>2016-05-18T12:51:09Z</time>
      </trkpt>
      <trkpt lat="43.38837" lon="6.09458">
        <ele>318.39999389648</ele>
        <time>2016-05-18T12:51:11Z</time>
      </trkpt>
      <trkpt lat="43.3884" lon="6.09459">
        <ele>319</ele>
        <time>2016-05-18T12:51:13Z</time>
      </trkpt>
      <trkpt lat="43.38842" lon="6.09459">
        <ele>319.39999389648</ele>
        <time>2016-05-18T12:51:14Z</time>
      </trkpt>
      <trkpt lat="43.38844" lon="6.0946">
        <ele>319.79998779297</ele>
        <time>2016-05-18T12:51:15Z</time>
      </trkpt>
      <trkpt lat="43.38845" lon="6.09461">
        <ele>320.20001220703</ele>
        <time>2016-05-18T12:51:16Z</time>
      </trkpt>
      <trkpt lat="43.38846" lon="6.09462">
        <ele>320.39999389648</ele>
        <time>2016-05-18T12:51:17Z</time>
      </trkpt>
      <trkpt lat="43.38847" lon="6.09463">
        <ele>320.60000610352</ele>
        <time>2016-05-18T12:51:18Z</time>
      </trkpt>
      <trkpt lat="43.38848" lon="6.09463">
        <ele>320.79998779297</ele>
        <time>2016-05-18T12:51:19Z</time>
      </trkpt>
      <trkpt lat="43.38849" lon="6.09463">
        <ele>321.20001220703</ele>
        <time>2016-05-18T12:51:20Z</time>
      </trkpt>
      <trkpt lat="43.3885" lon="6.09462">
        <ele>322</ele>
        <time>2016-05-18T12:51:21Z</time>
      </trkpt>
      <trkpt lat="43.3885" lon="6.09461">
        <ele>322.39999389648</ele>
        <time>2016-05-18T12:51:22Z</time>
      </trkpt>
      <trkpt lat="43.38851" lon="6.09461">
        <ele>322.79998779297</ele>
        <time>2016-05-18T12:51:23Z</time>
      </trkpt>
      <trkpt lat="43.38851" lon="6.0946">
        <ele>323</ele>
        <time>2016-05-18T12:51:24Z</time>
      </trkpt>
      <trkpt lat="43.38852" lon="6.09461">
        <ele>323.20001220703</ele>
        <time>2016-05-18T12:51:25Z</time>
      </trkpt>
      <trkpt lat="43.38852" lon="6.0946">
        <ele>323.20001220703</ele>
        <time>2016-05-18T12:51:27Z</time>
      </trkpt>
      <trkpt lat="43.38852" lon="6.0946">
        <ele>323.39999389648</ele>
        <time>2016-05-18T12:51:28Z</time>
      </trkpt>
      <trkpt lat="43.38853" lon="6.09459">
        <ele>323.39999389648</ele>
        <time>2016-05-18T12:51:29Z</time>
      </trkpt>
      <trkpt lat="43.38853" lon="6.09459">
        <ele>323.60000610352</ele>
        <time>2016-05-18T12:51:30Z</time>
      </trkpt>
      <trkpt lat="43.38854" lon="6.09458">
        <ele>323.79998779297</ele>
        <time>2016-05-18T12:51:31Z</time>
      </trkpt>
      <trkpt lat="43.38855" lon="6.09458">
        <ele>324</ele>
        <time>2016-05-18T12:51:33Z</time>
      </trkpt>
      <trkpt lat="43.38855" lon="6.09459">
        <ele>324.20001220703</ele>
        <time>2016-05-18T12:51:35Z</time>
      </trkpt>
      <trkpt lat="43.38855" lon="6.09459">
        <ele>324.39999389648</ele>
        <time>2016-05-18T12:51:36Z</time>
      </trkpt>
      <trkpt lat="43.38856" lon="6.0946">
        <ele>324.60000610352</ele>
        <time>2016-05-18T12:51:37Z</time>
      </trkpt>
      <trkpt lat="43.38856" lon="6.0946">
        <ele>324.79998779297</ele>
        <time>2016-05-18T12:51:39Z</time>
      </trkpt>
      <trkpt lat="43.38856" lon="6.0946">
        <ele>324.79998779297</ele>
        <time>2016-05-18T12:51:41Z</time>
      </trkpt>
      <trkpt lat="43.38857" lon="6.0946">
        <ele>324.79998779297</ele>
        <time>2016-05-18T12:51:43Z</time>
      </trkpt>
      <trkpt lat="43.38857" lon="6.0946">
        <ele>324.79998779297</ele>
        <time>2016-05-18T12:51:45Z</time>
      </trkpt>
      <trkpt lat="43.38857" lon="6.0946">
        <ele>324.79998779297</ele>
        <time>2016-05-18T12:51:47Z</time>
      </trkpt>
      <trkpt lat="43.38857" lon="6.0946">
        <ele>324.79998779297</ele>
        <time>2016-05-18T12:51:49Z</time>
      </trkpt>
      <trkpt lat="43.38858" lon="6.09463">
        <ele>325.20001220703</ele>
        <time>2016-05-18T12:51:51Z</time>
      </trkpt>
      <trkpt lat="43.38861" lon="6.09465">
        <ele>325.60000610352</ele>
        <time>2016-05-18T12:51:53Z</time>
      </trkpt>
      <trkpt lat="43.38864" lon="6.09467">
        <ele>326</ele>
        <time>2016-05-18T12:51:55Z</time>
      </trkpt>
      <trkpt lat="43.38866" lon="6.09471">
        <ele>326.39999389648</ele>
        <time>2016-05-18T12:51:57Z</time>
      </trkpt>
      <trkpt lat="43.38866" lon="6.09472">
        <ele>327</ele>
        <time>2016-05-18T12:51:58Z</time>
      </trkpt>
      <trkpt lat="43.38867" lon="6.09474">
        <ele>327.39999389648</ele>
        <time>2016-05-18T12:51:59Z</time>
      </trkpt>
      <trkpt lat="43.38869" lon="6.09477">
        <ele>328</ele>
        <time>2016-05-18T12:52:01Z</time>
      </trkpt>
      <trkpt lat="43.3887" lon="6.0948">
        <ele>328.20001220703</ele>
        <time>2016-05-18T12:52:03Z</time>
      </trkpt>
      <trkpt lat="43.38871" lon="6.09482">
        <ele>328.20001220703</ele>
        <time>2016-05-18T12:52:05Z</time>
      </trkpt>
      <trkpt lat="43.38871" lon="6.09483">
        <ele>328.20001220703</ele>
        <time>2016-05-18T12:52:07Z</time>
      </trkpt>
      <trkpt lat="43.38871" lon="6.09483">
        <ele>328.39999389648</ele>
        <time>2016-05-18T12:52:09Z</time>
      </trkpt>
      <trkpt lat="43.38871" lon="6.09483">
        <ele>328.39999389648</ele>
        <time>2016-05-18T12:52:11Z</time>
      </trkpt>
      <trkpt lat="43.38871" lon="6.09483">
        <ele>328.20001220703</ele>
        <time>2016-05-18T12:52:12Z</time>
      </trkpt>
      <trkpt lat="43.38871" lon="6.09483">
        <ele>328.20001220703</ele>
        <time>2016-05-18T12:52:13Z</time>
      </trkpt>
      <trkpt lat="43.38871" lon="6.09483">
        <ele>328.20001220703</ele>
        <time>2016-05-18T12:52:15Z</time>
      </trkpt>
      <trkpt lat="43.38871" lon="6.09483">
        <ele>328.20001220703</ele>
        <time>2016-05-18T12:52:17Z</time>
      </trkpt>
      <trkpt lat="43.38871" lon="6.09483">
        <ele>328.20001220703</ele>
        <time>2016-05-18T12:52:19Z</time>
      </trkpt>
      <trkpt lat="43.38871" lon="6.09483">
        <ele>328.20001220703</ele>
        <time>2016-05-18T12:52:21Z</time>
      </trkpt>
      <trkpt lat="43.38871" lon="6.09483">
        <ele>328.20001220703</ele>
        <time>2016-05-18T12:52:22Z</time>
      </trkpt>
      <trkpt lat="43.38871" lon="6.09483">
        <ele>328.20001220703</ele>
        <time>2016-05-18T12:52:23Z</time>
      </trkpt>
      <trkpt lat="43.38871" lon="6.09483">
        <ele>328.39999389648</ele>
        <time>2016-05-18T12:52:24Z</time>
      </trkpt>
      <trkpt lat="43.38871" lon="6.09483">
        <ele>328.60000610352</ele>
        <time>2016-05-18T12:52:25Z</time>
      </trkpt>
      <trkpt lat="43.38871" lon="6.09483">
        <ele>328.79998779297</ele>
        <time>2016-05-18T12:52:27Z</time>
      </trkpt>
      <trkpt lat="43.38871" lon="6.09483">
        <ele>328.39999389648</ele>
        <time>2016-05-18T12:52:29Z</time>
      </trkpt>
      <trkpt lat="43.38871" lon="6.09483">
        <ele>328.60000610352</ele>
        <time>2016-05-18T12:52:31Z</time>
      </trkpt>
      <trkpt lat="43.38871" lon="6.09484">
        <ele>328.20001220703</ele>
        <time>2016-05-18T12:52:33Z</time>
      </trkpt>
      <trkpt lat="43.38872" lon="6.09487">
        <ele>328.39999389648</ele>
        <time>2016-05-18T12:52:35Z</time>
      </trkpt>
      <trkpt lat="43.38872" lon="6.09489">
        <ele>328.39999389648</ele>
        <time>2016-05-18T12:52:36Z</time>
      </trkpt>
      <trkpt lat="43.38872" lon="6.09491">
        <ele>328.39999389648</ele>
        <time>2016-05-18T12:52:37Z</time>
      </trkpt>
      <trkpt lat="43.38872" lon="6.09495">
        <ele>328.39999389648</ele>
        <time>2016-05-18T12:52:39Z</time>
      </trkpt>
      <trkpt lat="43.38872" lon="6.09499">
        <ele>328.39999389648</ele>
        <time>2016-05-18T12:52:41Z</time>
      </trkpt>
      <trkpt lat="43.38872" lon="6.09502">
        <ele>328.39999389648</ele>
        <time>2016-05-18T12:52:42Z</time>
      </trkpt>
      <trkpt lat="43.38872" lon="6.09505">
        <ele>328.39999389648</ele>
        <time>2016-05-18T12:52:43Z</time>
      </trkpt>
      <trkpt lat="43.38873" lon="6.09512">
        <ele>328.39999389648</ele>
        <time>2016-05-18T12:52:45Z</time>
      </trkpt>
      <trkpt lat="43.38873" lon="6.09522">
        <ele>328.39999389648</ele>
        <time>2016-05-18T12:52:47Z</time>
      </trkpt>
      <trkpt lat="43.38873" lon="6.09533">
        <ele>328.39999389648</ele>
        <time>2016-05-18T12:52:49Z</time>
      </trkpt>
      <trkpt lat="43.38874" lon="6.09544">
        <ele>328.20001220703</ele>
        <time>2016-05-18T12:52:51Z</time>
      </trkpt>
      <trkpt lat="43.38875" lon="6.09556">
        <ele>327.79998779297</ele>
        <time>2016-05-18T12:52:53Z</time>
      </trkpt>
      <trkpt lat="43.38876" lon="6.09569">
        <ele>327.60000610352</ele>
        <time>2016-05-18T12:52:55Z</time>
      </trkpt>
      <trkpt lat="43.38877" lon="6.09584">
        <ele>327.39999389648</ele>
        <time>2016-05-18T12:52:57Z</time>
      </trkpt>
      <trkpt lat="43.38878" lon="6.09592">
        <ele>327.39999389648</ele>
        <time>2016-05-18T12:52:58Z</time>
      </trkpt>
      <trkpt lat="43.38879" lon="6.096">
        <ele>327.20001220703</ele>
        <time>2016-05-18T12:52:59Z</time>
      </trkpt>
      <trkpt lat="43.38881" lon="6.09608">
        <ele>326.60000610352</ele>
        <time>2016-05-18T12:53:00Z</time>
      </trkpt>
      <trkpt lat="43.38884" lon="6.09614">
        <ele>326</ele>
        <time>2016-05-18T12:53:01Z</time>
      </trkpt>
      <trkpt lat="43.38887" lon="6.0962">
        <ele>325.79998779297</ele>
        <time>2016-05-18T12:53:02Z</time>
      </trkpt>
      <trkpt lat="43.3889" lon="6.09625">
        <ele>325.60000610352</ele>
        <time>2016-05-18T12:53:03Z</time>
      </trkpt>
      <trkpt lat="43.38892" lon="6.09631">
        <ele>325.60000610352</ele>
        <time>2016-05-18T12:53:04Z</time>
      </trkpt>
      <trkpt lat="43.38894" lon="6.09637">
        <ele>325.60000610352</ele>
        <time>2016-05-18T12:53:05Z</time>
      </trkpt>
      <trkpt lat="43.38895" lon="6.09644">
        <ele>325.79998779297</ele>
        <time>2016-05-18T12:53:06Z</time>
      </trkpt>
      <trkpt lat="43.38895" lon="6.09651">
        <ele>325.60000610352</ele>
        <time>2016-05-18T12:53:07Z</time>
      </trkpt>
      <trkpt lat="43.38897" lon="6.09667">
        <ele>325</ele>
        <time>2016-05-18T12:53:09Z</time>
      </trkpt>
      <trkpt lat="43.38897" lon="6.09684">
        <ele>324.20001220703</ele>
        <time>2016-05-18T12:53:11Z</time>
      </trkpt>
      <trkpt lat="43.38898" lon="6.09702">
        <ele>323.60000610352</ele>
        <time>2016-05-18T12:53:13Z</time>
      </trkpt>
      <trkpt lat="43.38899" lon="6.09711">
        <ele>323.20001220703</ele>
        <time>2016-05-18T12:53:14Z</time>
      </trkpt>
      <trkpt lat="43.389" lon="6.0972">
        <ele>322.79998779297</ele>
        <time>2016-05-18T12:53:15Z</time>
      </trkpt>
      <trkpt lat="43.38901" lon="6.09739">
        <ele>322.20001220703</ele>
        <time>2016-05-18T12:53:17Z</time>
      </trkpt>
      <trkpt lat="43.389" lon="6.09757">
        <ele>321.60000610352</ele>
        <time>2016-05-18T12:53:19Z</time>
      </trkpt>
      <trkpt lat="43.38897" lon="6.09777">
        <ele>321.20001220703</ele>
        <time>2016-05-18T12:53:21Z</time>
      </trkpt>
      <trkpt lat="43.38896" lon="6.09787">
        <ele>320.60000610352</ele>
        <time>2016-05-18T12:53:22Z</time>
      </trkpt>
      <trkpt lat="43.38894" lon="6.09797">
        <ele>320</ele>
        <time>2016-05-18T12:53:23Z</time>
      </trkpt>
      <trkpt lat="43.38892" lon="6.09807">
        <ele>319.39999389648</ele>
        <time>2016-05-18T12:53:24Z</time>
      </trkpt>
      <trkpt lat="43.3889" lon="6.09817">
        <ele>318.20001220703</ele>
        <time>2016-05-18T12:53:25Z</time>
      </trkpt>
      <trkpt lat="43.38889" lon="6.09838">
        <ele>316.20001220703</ele>
        <time>2016-05-18T12:53:27Z</time>
      </trkpt>
      <trkpt lat="43.38888" lon="6.09849">
        <ele>315</ele>
        <time>2016-05-18T12:53:28Z</time>
      </trkpt>
      <trkpt lat="43.38886" lon="6.0986">
        <ele>313.79998779297</ele>
        <time>2016-05-18T12:53:29Z</time>
      </trkpt>
      <trkpt lat="43.38885" lon="6.09871">
        <ele>312.60000610352</ele>
        <time>2016-05-18T12:53:30Z</time>
      </trkpt>
      <trkpt lat="43.38883" lon="6.09882">
        <ele>311.39999389648</ele>
        <time>2016-05-18T12:53:31Z</time>
      </trkpt>
      <trkpt lat="43.38881" lon="6.09894">
        <ele>310</ele>
        <time>2016-05-18T12:53:32Z</time>
      </trkpt>
      <trkpt lat="43.38878" lon="6.09906">
        <ele>308.79998779297</ele>
        <time>2016-05-18T12:53:33Z</time>
      </trkpt>
      <trkpt lat="43.38876" lon="6.09918">
        <ele>308</ele>
        <time>2016-05-18T12:53:34Z</time>
      </trkpt>
      <trkpt lat="43.38873" lon="6.0993">
        <ele>307.20001220703</ele>
        <time>2016-05-18T12:53:35Z</time>
      </trkpt>
      <trkpt lat="43.38867" lon="6.09953">
        <ele>305.79998779297</ele>
        <time>2016-05-18T12:53:37Z</time>
      </trkpt>
      <trkpt lat="43.38865" lon="6.09965">
        <ele>304.60000610352</ele>
        <time>2016-05-18T12:53:38Z</time>
      </trkpt>
      <trkpt lat="43.38863" lon="6.09977">
        <ele>304</ele>
        <time>2016-05-18T12:53:39Z</time>
      </trkpt>
      <trkpt lat="43.38862" lon="6.0999">
        <ele>303</ele>
        <time>2016-05-18T12:53:40Z</time>
      </trkpt>
      <trkpt lat="43.3886" lon="6.10002">
        <ele>302</ele>
        <time>2016-05-18T12:53:41Z</time>
      </trkpt>
      <trkpt lat="43.38855" lon="6.10027">
        <ele>300.60000610352</ele>
        <time>2016-05-18T12:53:43Z</time>
      </trkpt>
      <trkpt lat="43.38852" lon="6.1004">
        <ele>300</ele>
        <time>2016-05-18T12:53:44Z</time>
      </trkpt>
      <trkpt lat="43.38849" lon="6.10053">
        <ele>299.20001220703</ele>
        <time>2016-05-18T12:53:45Z</time>
      </trkpt>
      <trkpt lat="43.38845" lon="6.10066">
        <ele>298</ele>
        <time>2016-05-18T12:53:46Z</time>
      </trkpt>
      <trkpt lat="43.38842" lon="6.10079">
        <ele>297.39999389648</ele>
        <time>2016-05-18T12:53:47Z</time>
      </trkpt>
      <trkpt lat="43.38838" lon="6.10092">
        <ele>296.79998779297</ele>
        <time>2016-05-18T12:53:48Z</time>
      </trkpt>
      <trkpt lat="43.38835" lon="6.10104">
        <ele>296.20001220703</ele>
        <time>2016-05-18T12:53:49Z</time>
      </trkpt>
      <trkpt lat="43.38832" lon="6.10115">
        <ele>295.39999389648</ele>
        <time>2016-05-18T12:53:50Z</time>
      </trkpt>
      <trkpt lat="43.38829" lon="6.10124">
        <ele>294.79998779297</ele>
        <time>2016-05-18T12:53:51Z</time>
      </trkpt>
      <trkpt lat="43.38827" lon="6.10132">
        <ele>294.39999389648</ele>
        <time>2016-05-18T12:53:52Z</time>
      </trkpt>
      <trkpt lat="43.38826" lon="6.10137">
        <ele>294</ele>
        <time>2016-05-18T12:53:53Z</time>
      </trkpt>
      <trkpt lat="43.38823" lon="6.10144">
        <ele>293.39999389648</ele>
        <time>2016-05-18T12:53:55Z</time>
      </trkpt>
      <trkpt lat="43.38821" lon="6.10147">
        <ele>293.39999389648</ele>
        <time>2016-05-18T12:53:56Z</time>
      </trkpt>
      <trkpt lat="43.38821" lon="6.10149">
        <ele>293.20001220703</ele>
        <time>2016-05-18T12:53:57Z</time>
      </trkpt>
      <trkpt lat="43.38821" lon="6.10151">
        <ele>292.79998779297</ele>
        <time>2016-05-18T12:53:58Z</time>
      </trkpt>
      <trkpt lat="43.38822" lon="6.10152">
        <ele>292.60000610352</ele>
        <time>2016-05-18T12:53:59Z</time>
      </trkpt>
      <trkpt lat="43.38824" lon="6.10155">
        <ele>292.20001220703</ele>
        <time>2016-05-18T12:54:01Z</time>
      </trkpt>
      <trkpt lat="43.38825" lon="6.10159">
        <ele>292</ele>
        <time>2016-05-18T12:54:03Z</time>
      </trkpt>
      <trkpt lat="43.38826" lon="6.10162">
        <ele>292.20001220703</ele>
        <time>2016-05-18T12:54:05Z</time>
      </trkpt>
      <trkpt lat="43.38826" lon="6.10162">
        <ele>292.39999389648</ele>
        <time>2016-05-18T12:54:07Z</time>
      </trkpt>
      <trkpt lat="43.38826" lon="6.10162">
        <ele>292.39999389648</ele>
        <time>2016-05-18T12:54:09Z</time>
      </trkpt>
      <trkpt lat="43.38826" lon="6.10162">
        <ele>292.39999389648</ele>
        <time>2016-05-18T12:54:11Z</time>
      </trkpt>
      <trkpt lat="43.38826" lon="6.10162">
        <ele>292.39999389648</ele>
        <time>2016-05-18T12:54:13Z</time>
      </trkpt>
      <trkpt lat="43.38826" lon="6.10162">
        <ele>292.39999389648</ele>
        <time>2016-05-18T12:54:15Z</time>
      </trkpt>
      <trkpt lat="43.38826" lon="6.10162">
        <ele>292.39999389648</ele>
        <time>2016-05-18T12:54:17Z</time>
      </trkpt>
      <trkpt lat="43.38826" lon="6.10162">
        <ele>292.20001220703</ele>
        <time>2016-05-18T12:54:19Z</time>
      </trkpt>
      <trkpt lat="43.38826" lon="6.10162">
        <ele>292.39999389648</ele>
        <time>2016-05-18T12:54:21Z</time>
      </trkpt>
      <trkpt lat="43.38826" lon="6.10162">
        <ele>292.39999389648</ele>
        <time>2016-05-18T12:54:22Z</time>
      </trkpt>
      <trkpt lat="43.38826" lon="6.10162">
        <ele>292.20001220703</ele>
        <time>2016-05-18T12:54:23Z</time>
      </trkpt>
      <trkpt lat="43.38826" lon="6.10162">
        <ele>292.20001220703</ele>
        <time>2016-05-18T12:54:25Z</time>
      </trkpt>
      <trkpt lat="43.38826" lon="6.10162">
        <ele>292.20001220703</ele>
        <time>2016-05-18T12:54:27Z</time>
      </trkpt>
      <trkpt lat="43.38826" lon="6.10162">
        <ele>292.39999389648</ele>
        <time>2016-05-18T12:54:29Z</time>
      </trkpt>
      <trkpt lat="43.38826" lon="6.10162">
        <ele>292.20001220703</ele>
        <time>2016-05-18T12:54:31Z</time>
      </trkpt>
      <trkpt lat="43.38826" lon="6.10162">
        <ele>292.20001220703</ele>
        <time>2016-05-18T12:54:33Z</time>
      </trkpt>
      <trkpt lat="43.38826" lon="6.10162">
        <ele>292.20001220703</ele>
        <time>2016-05-18T12:54:35Z</time>
      </trkpt>
      <trkpt lat="43.38826" lon="6.10162">
        <ele>292.20001220703</ele>
        <time>2016-05-18T12:54:37Z</time>
      </trkpt>
      <trkpt lat="43.38826" lon="6.10162">
        <ele>292.20001220703</ele>
        <time>2016-05-18T12:54:39Z</time>
      </trkpt>
      <trkpt lat="43.38826" lon="6.10162">
        <ele>292.20001220703</ele>
        <time>2016-05-18T12:54:41Z</time>
      </trkpt>
      <trkpt lat="43.38826" lon="6.10162">
        <ele>292.20001220703</ele>
        <time>2016-05-18T12:54:43Z</time>
      </trkpt>
      <trkpt lat="43.38826" lon="6.10162">
        <ele>292.20001220703</ele>
        <time>2016-05-18T12:54:45Z</time>
      </trkpt>
      <trkpt lat="43.38826" lon="6.10162">
        <ele>292.20001220703</ele>
        <time>2016-05-18T12:54:47Z</time>
      </trkpt>
      <trkpt lat="43.38826" lon="6.10162">
        <ele>292.20001220703</ele>
        <time>2016-05-18T12:54:49Z</time>
      </trkpt>
      <trkpt lat="43.38826" lon="6.10162">
        <ele>292.20001220703</ele>
        <time>2016-05-18T12:54:51Z</time>
      </trkpt>
      <trkpt lat="43.38826" lon="6.10162">
        <ele>292.20001220703</ele>
        <time>2016-05-18T12:54:53Z</time>
      </trkpt>
      <trkpt lat="43.38826" lon="6.10162">
        <ele>292.20001220703</ele>
        <time>2016-05-18T12:54:55Z</time>
      </trkpt>
      <trkpt lat="43.38826" lon="6.10162">
        <ele>292.20001220703</ele>
        <time>2016-05-18T12:54:57Z</time>
      </trkpt>
      <trkpt lat="43.38826" lon="6.10162">
        <ele>292.20001220703</ele>
        <time>2016-05-18T12:54:59Z</time>
      </trkpt>
      <trkpt lat="43.38826" lon="6.10162">
        <ele>292.20001220703</ele>
        <time>2016-05-18T12:55:01Z</time>
      </trkpt>
      <trkpt lat="43.38826" lon="6.10162">
        <ele>292.20001220703</ele>
        <time>2016-05-18T12:55:03Z</time>
      </trkpt>
      <trkpt lat="43.38826" lon="6.10162">
        <ele>291.79998779297</ele>
        <time>2016-05-18T12:55:05Z</time>
      </trkpt>
      <trkpt lat="43.38826" lon="6.10162">
        <ele>291.79998779297</ele>
        <time>2016-05-18T12:55:07Z</time>
      </trkpt>
      <trkpt lat="43.38826" lon="6.10162">
        <ele>291.79998779297</ele>
        <time>2016-05-18T12:55:09Z</time>
      </trkpt>
      <trkpt lat="43.38826" lon="6.10163">
        <ele>291.79998779297</ele>
        <time>2016-05-18T12:55:11Z</time>
      </trkpt>
      <trkpt lat="43.38826" lon="6.10163">
        <ele>291.79998779297</ele>
        <time>2016-05-18T12:55:13Z</time>
      </trkpt>
      <trkpt lat="43.38826" lon="6.10163">
        <ele>292</ele>
        <time>2016-05-18T12:55:15Z</time>
      </trkpt>
      <trkpt lat="43.38826" lon="6.10163">
        <ele>292.20001220703</ele>
        <time>2016-05-18T12:55:17Z</time>
      </trkpt>
      <trkpt lat="43.38826" lon="6.10163">
        <ele>292.20001220703</ele>
        <time>2016-05-18T12:55:19Z</time>
      </trkpt>
      <trkpt lat="43.38826" lon="6.10163">
        <ele>292.20001220703</ele>
        <time>2016-05-18T12:55:21Z</time>
      </trkpt>
      <trkpt lat="43.38826" lon="6.10163">
        <ele>292.20001220703</ele>
        <time>2016-05-18T12:55:23Z</time>
      </trkpt>
      <trkpt lat="43.38826" lon="6.10163">
        <ele>292.20001220703</ele>
        <time>2016-05-18T12:55:25Z</time>
      </trkpt>
      <trkpt lat="43.38826" lon="6.10163">
        <ele>292</ele>
        <time>2016-05-18T12:55:27Z</time>
      </trkpt>
      <trkpt lat="43.38826" lon="6.10163">
        <ele>292</ele>
        <time>2016-05-18T12:55:29Z</time>
      </trkpt>
      <trkpt lat="43.38826" lon="6.10163">
        <ele>292.20001220703</ele>
        <time>2016-05-18T12:55:31Z</time>
      </trkpt>
      <trkpt lat="43.38826" lon="6.10163">
        <ele>292.20001220703</ele>
        <time>2016-05-18T12:55:33Z</time>
      </trkpt>
      <trkpt lat="43.38826" lon="6.10163">
        <ele>292.20001220703</ele>
        <time>2016-05-18T12:55:35Z</time>
      </trkpt>
      <trkpt lat="43.38825" lon="6.10163">
        <ele>292.39999389648</ele>
        <time>2016-05-18T12:55:37Z</time>
      </trkpt>
      <trkpt lat="43.38824" lon="6.10166">
        <ele>292.39999389648</ele>
        <time>2016-05-18T12:55:39Z</time>
      </trkpt>
      <trkpt lat="43.38823" lon="6.10168">
        <ele>292.20001220703</ele>
        <time>2016-05-18T12:55:41Z</time>
      </trkpt>
      <trkpt lat="43.38824" lon="6.1017">
        <ele>292.20001220703</ele>
        <time>2016-05-18T12:55:43Z</time>
      </trkpt>
      <trkpt lat="43.38824" lon="6.10171">
        <ele>292</ele>
        <time>2016-05-18T12:55:45Z</time>
      </trkpt>
      <trkpt lat="43.38824" lon="6.10172">
        <ele>292</ele>
        <time>2016-05-18T12:55:47Z</time>
      </trkpt>
      <trkpt lat="43.38824" lon="6.10172">
        <ele>292</ele>
        <time>2016-05-18T12:55:49Z</time>
      </trkpt>
      <trkpt lat="43.38824" lon="6.10173">
        <ele>292</ele>
        <time>2016-05-18T12:55:50Z</time>
      </trkpt>
      <trkpt lat="43.38823" lon="6.10173">
        <ele>292</ele>
        <time>2016-05-18T12:55:51Z</time>
      </trkpt>
      <trkpt lat="43.38824" lon="6.10173">
        <ele>292</ele>
        <time>2016-05-18T12:55:53Z</time>
      </trkpt>
      <trkpt lat="43.38823" lon="6.10173">
        <ele>292</ele>
        <time>2016-05-18T12:55:55Z</time>
      </trkpt>
      <trkpt lat="43.38823" lon="6.10173">
        <ele>292</ele>
        <time>2016-05-18T12:55:57Z</time>
      </trkpt>
      <trkpt lat="43.38823" lon="6.10173">
        <ele>291.79998779297</ele>
        <time>2016-05-18T12:55:59Z</time>
      </trkpt>
      <trkpt lat="43.38824" lon="6.10173">
        <ele>291.79998779297</ele>
        <time>2016-05-18T12:56:01Z</time>
      </trkpt>
      <trkpt lat="43.38824" lon="6.10173">
        <ele>292</ele>
        <time>2016-05-18T12:56:02Z</time>
      </trkpt>
      <trkpt lat="43.38824" lon="6.10172">
        <ele>292</ele>
        <time>2016-05-18T12:56:03Z</time>
      </trkpt>
      <trkpt lat="43.38824" lon="6.10169">
        <ele>292</ele>
        <time>2016-05-18T12:56:05Z</time>
      </trkpt>
      <trkpt lat="43.38824" lon="6.10169">
        <ele>292</ele>
        <time>2016-05-18T12:56:07Z</time>
      </trkpt>
      <trkpt lat="43.38824" lon="6.10169">
        <ele>292</ele>
        <time>2016-05-18T12:56:08Z</time>
      </trkpt>
      <trkpt lat="43.38824" lon="6.10169">
        <ele>292</ele>
        <time>2016-05-18T12:56:09Z</time>
      </trkpt>
      <trkpt lat="43.38824" lon="6.10169">
        <ele>292.20001220703</ele>
        <time>2016-05-18T12:56:11Z</time>
      </trkpt>
      <trkpt lat="43.38824" lon="6.10169">
        <ele>292.20001220703</ele>
        <time>2016-05-18T12:56:13Z</time>
      </trkpt>
      <trkpt lat="43.38824" lon="6.10169">
        <ele>292.20001220703</ele>
        <time>2016-05-18T12:56:15Z</time>
      </trkpt>
      <trkpt lat="43.38824" lon="6.10169">
        <ele>292.39999389648</ele>
        <time>2016-05-18T12:56:17Z</time>
      </trkpt>
      <trkpt lat="43.38824" lon="6.10169">
        <ele>292.39999389648</ele>
        <time>2016-05-18T12:56:18Z</time>
      </trkpt>
      <trkpt lat="43.38824" lon="6.10169">
        <ele>292.39999389648</ele>
        <time>2016-05-18T12:56:19Z</time>
      </trkpt>
      <trkpt lat="43.38824" lon="6.10169">
        <ele>292.39999389648</ele>
        <time>2016-05-18T12:56:21Z</time>
      </trkpt>
      <trkpt lat="43.38824" lon="6.10169">
        <ele>292.39999389648</ele>
        <time>2016-05-18T12:56:23Z</time>
      </trkpt>
      <trkpt lat="43.38824" lon="6.10169">
        <ele>292.39999389648</ele>
        <time>2016-05-18T12:56:25Z</time>
      </trkpt>
      <trkpt lat="43.38824" lon="6.10169">
        <ele>292.20001220703</ele>
        <time>2016-05-18T12:56:27Z</time>
      </trkpt>
      <trkpt lat="43.38824" lon="6.10169">
        <ele>292.20001220703</ele>
        <time>2016-05-18T12:56:29Z</time>
      </trkpt>
      <trkpt lat="43.38824" lon="6.10169">
        <ele>292.20001220703</ele>
        <time>2016-05-18T12:56:31Z</time>
      </trkpt>
      <trkpt lat="43.38824" lon="6.10169">
        <ele>292</ele>
        <time>2016-05-18T12:56:33Z</time>
      </trkpt>
      <trkpt lat="43.38824" lon="6.10169">
        <ele>291.79998779297</ele>
        <time>2016-05-18T12:56:35Z</time>
      </trkpt>
      <trkpt lat="43.38824" lon="6.10169">
        <ele>291.79998779297</ele>
        <time>2016-05-18T12:56:37Z</time>
      </trkpt>
      <trkpt lat="43.38824" lon="6.10169">
        <ele>291.79998779297</ele>
        <time>2016-05-18T12:56:39Z</time>
      </trkpt>
      <trkpt lat="43.38824" lon="6.10169">
        <ele>291.60000610352</ele>
        <time>2016-05-18T12:56:41Z</time>
      </trkpt>
      <trkpt lat="43.38824" lon="6.10171">
        <ele>291.60000610352</ele>
        <time>2016-05-18T12:56:43Z</time>
      </trkpt>
      <trkpt lat="43.38825" lon="6.10174">
        <ele>291.60000610352</ele>
        <time>2016-05-18T12:56:45Z</time>
      </trkpt>
      <trkpt lat="43.38824" lon="6.1018">
        <ele>291.39999389648</ele>
        <time>2016-05-18T12:56:47Z</time>
      </trkpt>
      <trkpt lat="43.38823" lon="6.10184">
        <ele>291.39999389648</ele>
        <time>2016-05-18T12:56:48Z</time>
      </trkpt>
      <trkpt lat="43.38821" lon="6.10187">
        <ele>291.60000610352</ele>
        <time>2016-05-18T12:56:49Z</time>
      </trkpt>
      <trkpt lat="43.38818" lon="6.10194">
        <ele>292.20001220703</ele>
        <time>2016-05-18T12:56:51Z</time>
      </trkpt>
      <trkpt lat="43.38817" lon="6.10197">
        <ele>292.79998779297</ele>
        <time>2016-05-18T12:56:52Z</time>
      </trkpt>
      <trkpt lat="43.38816" lon="6.102">
        <ele>293.20001220703</ele>
        <time>2016-05-18T12:56:53Z</time>
      </trkpt>
      <trkpt lat="43.38816" lon="6.10207">
        <ele>293.79998779297</ele>
        <time>2016-05-18T12:56:55Z</time>
      </trkpt>
      <trkpt lat="43.38816" lon="6.10216">
        <ele>294</ele>
        <time>2016-05-18T12:56:57Z</time>
      </trkpt>
      <trkpt lat="43.38816" lon="6.1022">
        <ele>294</ele>
        <time>2016-05-18T12:56:58Z</time>
      </trkpt>
      <trkpt lat="43.38817" lon="6.10224">
        <ele>294.20001220703</ele>
        <time>2016-05-18T12:56:59Z</time>
      </trkpt>
      <trkpt lat="43.38819" lon="6.10231">
        <ele>294.39999389648</ele>
        <time>2016-05-18T12:57:01Z</time>
      </trkpt>
      <trkpt lat="43.38821" lon="6.10235">
        <ele>294.39999389648</ele>
        <time>2016-05-18T12:57:02Z</time>
      </trkpt>
      <trkpt lat="43.38821" lon="6.1024">
        <ele>294.39999389648</ele>
        <time>2016-05-18T12:57:03Z</time>
      </trkpt>
      <trkpt lat="43.38823" lon="6.10249">
        <ele>294.39999389648</ele>
        <time>2016-05-18T12:57:05Z</time>
      </trkpt>
      <trkpt lat="43.38824" lon="6.10255">
        <ele>294.39999389648</ele>
        <time>2016-05-18T12:57:06Z</time>
      </trkpt>
      <trkpt lat="43.38824" lon="6.10261">
        <ele>294</ele>
        <time>2016-05-18T12:57:07Z</time>
      </trkpt>
      <trkpt lat="43.38827" lon="6.10274">
        <ele>293</ele>
        <time>2016-05-18T12:57:09Z</time>
      </trkpt>
      <trkpt lat="43.38828" lon="6.10281">
        <ele>292.60000610352</ele>
        <time>2016-05-18T12:57:10Z</time>
      </trkpt>
      <trkpt lat="43.38828" lon="6.10289">
        <ele>292.20001220703</ele>
        <time>2016-05-18T12:57:11Z</time>
      </trkpt>
      <trkpt lat="43.38829" lon="6.10297">
        <ele>291.60000610352</ele>
        <time>2016-05-18T12:57:12Z</time>
      </trkpt>
      <trkpt lat="43.38829" lon="6.10305">
        <ele>291.20001220703</ele>
        <time>2016-05-18T12:57:13Z</time>
      </trkpt>
      <trkpt lat="43.38829" lon="6.1032">
        <ele>291</ele>
        <time>2016-05-18T12:57:15Z</time>
      </trkpt>
      <trkpt lat="43.38829" lon="6.10335">
        <ele>290.60000610352</ele>
        <time>2016-05-18T12:57:17Z</time>
      </trkpt>
      <trkpt lat="43.38829" lon="6.1035">
        <ele>290.39999389648</ele>
        <time>2016-05-18T12:57:19Z</time>
      </trkpt>
      <trkpt lat="43.38829" lon="6.10366">
        <ele>290.20001220703</ele>
        <time>2016-05-18T12:57:21Z</time>
      </trkpt>
      <trkpt lat="43.38829" lon="6.10382">
        <ele>290.20001220703</ele>
        <time>2016-05-18T12:57:23Z</time>
      </trkpt>
      <trkpt lat="43.38829" lon="6.1039">
        <ele>290</ele>
        <time>2016-05-18T12:57:24Z</time>
      </trkpt>
      <trkpt lat="43.38829" lon="6.10399">
        <ele>290</ele>
        <time>2016-05-18T12:57:25Z</time>
      </trkpt>
      <trkpt lat="43.38829" lon="6.10407">
        <ele>289.79998779297</ele>
        <time>2016-05-18T12:57:26Z</time>
      </trkpt>
      <trkpt lat="43.38828" lon="6.10416">
        <ele>289.39999389648</ele>
        <time>2016-05-18T12:57:27Z</time>
      </trkpt>
      <trkpt lat="43.38827" lon="6.10425">
        <ele>288.79998779297</ele>
        <time>2016-05-18T12:57:28Z</time>
      </trkpt>
      <trkpt lat="43.38826" lon="6.10433">
        <ele>288.39999389648</ele>
        <time>2016-05-18T12:57:29Z</time>
      </trkpt>
      <trkpt lat="43.38825" lon="6.10441">
        <ele>288</ele>
        <time>2016-05-18T12:57:30Z</time>
      </trkpt>
      <trkpt lat="43.38824" lon="6.10449">
        <ele>287.60000610352</ele>
        <time>2016-05-18T12:57:31Z</time>
      </trkpt>
      <trkpt lat="43.38824" lon="6.10466">
        <ele>286.60000610352</ele>
        <time>2016-05-18T12:57:33Z</time>
      </trkpt>
      <trkpt lat="43.38823" lon="6.10474">
        <ele>286.39999389648</ele>
        <time>2016-05-18T12:57:34Z</time>
      </trkpt>
      <trkpt lat="43.38823" lon="6.10481">
        <ele>286</ele>
        <time>2016-05-18T12:57:35Z</time>
      </trkpt>
      <trkpt lat="43.3882" lon="6.10495">
        <ele>285.60000610352</ele>
        <time>2016-05-18T12:57:37Z</time>
      </trkpt>
      <trkpt lat="43.38818" lon="6.10502">
        <ele>285.39999389648</ele>
        <time>2016-05-18T12:57:38Z</time>
      </trkpt>
      <trkpt lat="43.38816" lon="6.10509">
        <ele>285.20001220703</ele>
        <time>2016-05-18T12:57:39Z</time>
      </trkpt>
      <trkpt lat="43.38813" lon="6.10522">
        <ele>285.20001220703</ele>
        <time>2016-05-18T12:57:41Z</time>
      </trkpt>
      <trkpt lat="43.38811" lon="6.10529">
        <ele>285.20001220703</ele>
        <time>2016-05-18T12:57:42Z</time>
      </trkpt>
      <trkpt lat="43.38811" lon="6.10535">
        <ele>285</ele>
        <time>2016-05-18T12:57:43Z</time>
      </trkpt>
      <trkpt lat="43.3881" lon="6.10547">
        <ele>284.60000610352</ele>
        <time>2016-05-18T12:57:45Z</time>
      </trkpt>
      <trkpt lat="43.38809" lon="6.10553">
        <ele>284</ele>
        <time>2016-05-18T12:57:46Z</time>
      </trkpt>
      <trkpt lat="43.38807" lon="6.10558">
        <ele>283.60000610352</ele>
        <time>2016-05-18T12:57:47Z</time>
      </trkpt>
      <trkpt lat="43.38804" lon="6.10567">
        <ele>283.39999389648</ele>
        <time>2016-05-18T12:57:49Z</time>
      </trkpt>
      <trkpt lat="43.38804" lon="6.10573">
        <ele>283.39999389648</ele>
        <time>2016-05-18T12:57:50Z</time>
      </trkpt>
      <trkpt lat="43.38803" lon="6.10579">
        <ele>283.20001220703</ele>
        <time>2016-05-18T12:57:51Z</time>
      </trkpt>
      <trkpt lat="43.38801" lon="6.10593">
        <ele>282.79998779297</ele>
        <time>2016-05-18T12:57:53Z</time>
      </trkpt>
      <trkpt lat="43.38798" lon="6.10607">
        <ele>282.39999389648</ele>
        <time>2016-05-18T12:57:55Z</time>
      </trkpt>
      <trkpt lat="43.38795" lon="6.10623">
        <ele>281.60000610352</ele>
        <time>2016-05-18T12:57:57Z</time>
      </trkpt>
      <trkpt lat="43.38793" lon="6.10636">
        <ele>280.79998779297</ele>
        <time>2016-05-18T12:57:59Z</time>
      </trkpt>
      <trkpt lat="43.38793" lon="6.1064">
        <ele>280.60000610352</ele>
        <time>2016-05-18T12:58:00Z</time>
      </trkpt>
      <trkpt lat="43.38793" lon="6.10643">
        <ele>280.39999389648</ele>
        <time>2016-05-18T12:58:01Z</time>
      </trkpt>
      <trkpt lat="43.38791" lon="6.10648">
        <ele>280</ele>
        <time>2016-05-18T12:58:03Z</time>
      </trkpt>
      <trkpt lat="43.38791" lon="6.10652">
        <ele>279.79998779297</ele>
        <time>2016-05-18T12:58:04Z</time>
      </trkpt>
      <trkpt lat="43.38789" lon="6.10657">
        <ele>279.60000610352</ele>
        <time>2016-05-18T12:58:05Z</time>
      </trkpt>
      <trkpt lat="43.38786" lon="6.10666">
        <ele>279.60000610352</ele>
        <time>2016-05-18T12:58:07Z</time>
      </trkpt>
      <trkpt lat="43.38785" lon="6.10672">
        <ele>279.60000610352</ele>
        <time>2016-05-18T12:58:08Z</time>
      </trkpt>
      <trkpt lat="43.38784" lon="6.10678">
        <ele>279.39999389648</ele>
        <time>2016-05-18T12:58:09Z</time>
      </trkpt>
      <trkpt lat="43.38781" lon="6.10692">
        <ele>279.20001220703</ele>
        <time>2016-05-18T12:58:11Z</time>
      </trkpt>
      <trkpt lat="43.38778" lon="6.10706">
        <ele>278.60000610352</ele>
        <time>2016-05-18T12:58:13Z</time>
      </trkpt>
      <trkpt lat="43.38775" lon="6.10721">
        <ele>278</ele>
        <time>2016-05-18T12:58:15Z</time>
      </trkpt>
      <trkpt lat="43.38772" lon="6.10736">
        <ele>277.20001220703</ele>
        <time>2016-05-18T12:58:17Z</time>
      </trkpt>
      <trkpt lat="43.38771" lon="6.10742">
        <ele>276.79998779297</ele>
        <time>2016-05-18T12:58:18Z</time>
      </trkpt>
      <trkpt lat="43.38771" lon="6.10747">
        <ele>276.39999389648</ele>
        <time>2016-05-18T12:58:19Z</time>
      </trkpt>
      <trkpt lat="43.3877" lon="6.10753">
        <ele>276.20001220703</ele>
        <time>2016-05-18T12:58:21Z</time>
      </trkpt>
      <trkpt lat="43.3877" lon="6.10757">
        <ele>276.20001220703</ele>
        <time>2016-05-18T12:58:23Z</time>
      </trkpt>
      <trkpt lat="43.38769" lon="6.10758">
        <ele>276.20001220703</ele>
        <time>2016-05-18T12:58:24Z</time>
      </trkpt>
      <trkpt lat="43.38768" lon="6.10759">
        <ele>276.20001220703</ele>
        <time>2016-05-18T12:58:25Z</time>
      </trkpt>
      <trkpt lat="43.38768" lon="6.1076">
        <ele>276.20001220703</ele>
        <time>2016-05-18T12:58:27Z</time>
      </trkpt>
      <trkpt lat="43.38768" lon="6.10761">
        <ele>276.20001220703</ele>
        <time>2016-05-18T12:58:28Z</time>
      </trkpt>
      <trkpt lat="43.38768" lon="6.10761">
        <ele>276.20001220703</ele>
        <time>2016-05-18T12:58:29Z</time>
      </trkpt>
      <trkpt lat="43.38768" lon="6.10761">
        <ele>276.20001220703</ele>
        <time>2016-05-18T12:58:31Z</time>
      </trkpt>
      <trkpt lat="43.38768" lon="6.10761">
        <ele>276.20001220703</ele>
        <time>2016-05-18T12:58:33Z</time>
      </trkpt>
      <trkpt lat="43.38768" lon="6.10761">
        <ele>276.20001220703</ele>
        <time>2016-05-18T12:58:35Z</time>
      </trkpt>
      <trkpt lat="43.38768" lon="6.10761">
        <ele>276.39999389648</ele>
        <time>2016-05-18T12:58:37Z</time>
      </trkpt>
      <trkpt lat="43.38768" lon="6.10761">
        <ele>276.39999389648</ele>
        <time>2016-05-18T12:58:39Z</time>
      </trkpt>
      <trkpt lat="43.38768" lon="6.1076">
        <ele>276.39999389648</ele>
        <time>2016-05-18T12:58:41Z</time>
      </trkpt>
      <trkpt lat="43.38768" lon="6.1076">
        <ele>276.39999389648</ele>
        <time>2016-05-18T12:58:43Z</time>
      </trkpt>
      <trkpt lat="43.38768" lon="6.1076">
        <ele>276.39999389648</ele>
        <time>2016-05-18T12:58:44Z</time>
      </trkpt>
      <trkpt lat="43.38768" lon="6.1076">
        <ele>276.39999389648</ele>
        <time>2016-05-18T12:58:45Z</time>
      </trkpt>
      <trkpt lat="43.38768" lon="6.1076">
        <ele>276.39999389648</ele>
        <time>2016-05-18T12:58:47Z</time>
      </trkpt>
      <trkpt lat="43.38767" lon="6.1076">
        <ele>276.39999389648</ele>
        <time>2016-05-18T12:58:48Z</time>
      </trkpt>
      <trkpt lat="43.38766" lon="6.1076">
        <ele>276.39999389648</ele>
        <time>2016-05-18T12:58:49Z</time>
      </trkpt>
      <trkpt lat="43.38763" lon="6.10762">
        <ele>276.79998779297</ele>
        <time>2016-05-18T12:58:51Z</time>
      </trkpt>
      <trkpt lat="43.38761" lon="6.10763">
        <ele>277</ele>
        <time>2016-05-18T12:58:52Z</time>
      </trkpt>
      <trkpt lat="43.38759" lon="6.10765">
        <ele>277</ele>
        <time>2016-05-18T12:58:53Z</time>
      </trkpt>
      <trkpt lat="43.38758" lon="6.10765">
        <ele>277</ele>
        <time>2016-05-18T12:58:54Z</time>
      </trkpt>
      <trkpt lat="43.38757" lon="6.10764">
        <ele>277</ele>
        <time>2016-05-18T12:58:55Z</time>
      </trkpt>
      <trkpt lat="43.38757" lon="6.10765">
        <ele>277</ele>
        <time>2016-05-18T12:58:56Z</time>
      </trkpt>
      <trkpt lat="43.38756" lon="6.10765">
        <ele>277</ele>
        <time>2016-05-18T12:58:57Z</time>
      </trkpt>
      <trkpt lat="43.38755" lon="6.10765">
        <ele>277.20001220703</ele>
        <time>2016-05-18T12:58:59Z</time>
      </trkpt>
      <trkpt lat="43.38753" lon="6.10765">
        <ele>277.39999389648</ele>
        <time>2016-05-18T12:59:01Z</time>
      </trkpt>
      <trkpt lat="43.3875" lon="6.10766">
        <ele>277.39999389648</ele>
        <time>2016-05-18T12:59:02Z</time>
      </trkpt>
      <trkpt lat="43.38747" lon="6.10767">
        <ele>277.60000610352</ele>
        <time>2016-05-18T12:59:03Z</time>
      </trkpt>
      <trkpt lat="43.38742" lon="6.1077">
        <ele>277.79998779297</ele>
        <time>2016-05-18T12:59:05Z</time>
      </trkpt>
      <trkpt lat="43.38741" lon="6.1077">
        <ele>278</ele>
        <time>2016-05-18T12:59:06Z</time>
      </trkpt>
      <trkpt lat="43.38741" lon="6.1077">
        <ele>278.20001220703</ele>
        <time>2016-05-18T12:59:07Z</time>
      </trkpt>
      <trkpt lat="43.38741" lon="6.10771">
        <ele>278.60000610352</ele>
        <time>2016-05-18T12:59:09Z</time>
      </trkpt>
      <trkpt lat="43.38741" lon="6.10771">
        <ele>278.79998779297</ele>
        <time>2016-05-18T12:59:11Z</time>
      </trkpt>
      <trkpt lat="43.38741" lon="6.10771">
        <ele>278.60000610352</ele>
        <time>2016-05-18T12:59:13Z</time>
      </trkpt>
      <trkpt lat="43.38741" lon="6.10771">
        <ele>278.79998779297</ele>
        <time>2016-05-18T12:59:15Z</time>
      </trkpt>
      <trkpt lat="43.38739" lon="6.10771">
        <ele>278.60000610352</ele>
        <time>2016-05-18T12:59:17Z</time>
      </trkpt>
      <trkpt lat="43.38737" lon="6.10774">
        <ele>278.79998779297</ele>
        <time>2016-05-18T12:59:19Z</time>
      </trkpt>
      <trkpt lat="43.38735" lon="6.10776">
        <ele>278.60000610352</ele>
        <time>2016-05-18T12:59:20Z</time>
      </trkpt>
      <trkpt lat="43.38734" lon="6.1078">
        <ele>278.60000610352</ele>
        <time>2016-05-18T12:59:21Z</time>
      </trkpt>
      <trkpt lat="43.38731" lon="6.10789">
        <ele>278.60000610352</ele>
        <time>2016-05-18T12:59:23Z</time>
      </trkpt>
      <trkpt lat="43.38726" lon="6.10795">
        <ele>278.60000610352</ele>
        <time>2016-05-18T12:59:25Z</time>
      </trkpt>
      <trkpt lat="43.38721" lon="6.10798">
        <ele>278.60000610352</ele>
        <time>2016-05-18T12:59:27Z</time>
      </trkpt>
      <trkpt lat="43.38716" lon="6.108">
        <ele>278.79998779297</ele>
        <time>2016-05-18T12:59:29Z</time>
      </trkpt>
      <trkpt lat="43.38714" lon="6.108">
        <ele>278.79998779297</ele>
        <time>2016-05-18T12:59:30Z</time>
      </trkpt>
      <trkpt lat="43.38712" lon="6.10801">
        <ele>279</ele>
        <time>2016-05-18T12:59:31Z</time>
      </trkpt>
      <trkpt lat="43.38707" lon="6.10804">
        <ele>279</ele>
        <time>2016-05-18T12:59:33Z</time>
      </trkpt>
      <trkpt lat="43.38703" lon="6.10809">
        <ele>279.20001220703</ele>
        <time>2016-05-18T12:59:35Z</time>
      </trkpt>
      <trkpt lat="43.38701" lon="6.10811">
        <ele>279.20001220703</ele>
        <time>2016-05-18T12:59:36Z</time>
      </trkpt>
      <trkpt lat="43.38699" lon="6.10814">
        <ele>279.20001220703</ele>
        <time>2016-05-18T12:59:37Z</time>
      </trkpt>
      <trkpt lat="43.38697" lon="6.10819">
        <ele>279.20001220703</ele>
        <time>2016-05-18T12:59:39Z</time>
      </trkpt>
      <trkpt lat="43.38694" lon="6.10824">
        <ele>279.60000610352</ele>
        <time>2016-05-18T12:59:41Z</time>
      </trkpt>
      <trkpt lat="43.38693" lon="6.10827">
        <ele>279.60000610352</ele>
        <time>2016-05-18T12:59:42Z</time>
      </trkpt>
      <trkpt lat="43.38692" lon="6.10831">
        <ele>279.60000610352</ele>
        <time>2016-05-18T12:59:43Z</time>
      </trkpt>
      <trkpt lat="43.3869" lon="6.1084">
        <ele>279.60000610352</ele>
        <time>2016-05-18T12:59:45Z</time>
      </trkpt>
      <trkpt lat="43.38688" lon="6.1085">
        <ele>279.39999389648</ele>
        <time>2016-05-18T12:59:47Z</time>
      </trkpt>
      <trkpt lat="43.38687" lon="6.10855">
        <ele>279.39999389648</ele>
        <time>2016-05-18T12:59:48Z</time>
      </trkpt>
      <trkpt lat="43.38686" lon="6.1086">
        <ele>279.20001220703</ele>
        <time>2016-05-18T12:59:49Z</time>
      </trkpt>
      <trkpt lat="43.38684" lon="6.10869">
        <ele>279.20001220703</ele>
        <time>2016-05-18T12:59:51Z</time>
      </trkpt>
      <trkpt lat="43.38682" lon="6.10878">
        <ele>279.20001220703</ele>
        <time>2016-05-18T12:59:53Z</time>
      </trkpt>
      <trkpt lat="43.3868" lon="6.10882">
        <ele>279.20001220703</ele>
        <time>2016-05-18T12:59:54Z</time>
      </trkpt>
      <trkpt lat="43.38679" lon="6.10887">
        <ele>279</ele>
        <time>2016-05-18T12:59:55Z</time>
      </trkpt>
      <trkpt lat="43.38675" lon="6.10897">
        <ele>279.20001220703</ele>
        <time>2016-05-18T12:59:57Z</time>
      </trkpt>
      <trkpt lat="43.38674" lon="6.10901">
        <ele>279.20001220703</ele>
        <time>2016-05-18T12:59:58Z</time>
      </trkpt>
      <trkpt lat="43.38673" lon="6.10906">
        <ele>279.20001220703</ele>
        <time>2016-05-18T12:59:59Z</time>
      </trkpt>
      <trkpt lat="43.3867" lon="6.10917">
        <ele>279.60000610352</ele>
        <time>2016-05-18T13:00:01Z</time>
      </trkpt>
      <trkpt lat="43.38668" lon="6.10926">
        <ele>279.60000610352</ele>
        <time>2016-05-18T13:00:03Z</time>
      </trkpt>
      <trkpt lat="43.38667" lon="6.10935">
        <ele>279.60000610352</ele>
        <time>2016-05-18T13:00:05Z</time>
      </trkpt>
      <trkpt lat="43.38665" lon="6.10944">
        <ele>279.60000610352</ele>
        <time>2016-05-18T13:00:07Z</time>
      </trkpt>
      <trkpt lat="43.38663" lon="6.10949">
        <ele>279.60000610352</ele>
        <time>2016-05-18T13:00:08Z</time>
      </trkpt>
      <trkpt lat="43.38663" lon="6.10954">
        <ele>279.60000610352</ele>
        <time>2016-05-18T13:00:09Z</time>
      </trkpt>
      <trkpt lat="43.38661" lon="6.10964">
        <ele>279.60000610352</ele>
        <time>2016-05-18T13:00:11Z</time>
      </trkpt>
      <trkpt lat="43.38661" lon="6.10974">
        <ele>279.60000610352</ele>
        <time>2016-05-18T13:00:13Z</time>
      </trkpt>
      <trkpt lat="43.3866" lon="6.10984">
        <ele>279.79998779297</ele>
        <time>2016-05-18T13:00:15Z</time>
      </trkpt>
      <trkpt lat="43.3866" lon="6.10993">
        <ele>280</ele>
        <time>2016-05-18T13:00:17Z</time>
      </trkpt>
      <trkpt lat="43.38658" lon="6.11">
        <ele>280</ele>
        <time>2016-05-18T13:00:19Z</time>
      </trkpt>
      <trkpt lat="43.38656" lon="6.11002">
        <ele>280</ele>
        <time>2016-05-18T13:00:20Z</time>
      </trkpt>
      <trkpt lat="43.38654" lon="6.11004">
        <ele>280.20001220703</ele>
        <time>2016-05-18T13:00:21Z</time>
      </trkpt>
      <trkpt lat="43.38651" lon="6.11004">
        <ele>280.20001220703</ele>
        <time>2016-05-18T13:00:23Z</time>
      </trkpt>
      <trkpt lat="43.3865" lon="6.11003">
        <ele>280.20001220703</ele>
        <time>2016-05-18T13:00:24Z</time>
      </trkpt>
      <trkpt lat="43.3865" lon="6.11003">
        <ele>280.20001220703</ele>
        <time>2016-05-18T13:00:25Z</time>
      </trkpt>
      <trkpt lat="43.38649" lon="6.11003">
        <ele>280.39999389648</ele>
        <time>2016-05-18T13:00:27Z</time>
      </trkpt>
      <trkpt lat="43.38648" lon="6.11002">
        <ele>280.60000610352</ele>
        <time>2016-05-18T13:00:29Z</time>
      </trkpt>
      <trkpt lat="43.38647" lon="6.11002">
        <ele>280.39999389648</ele>
        <time>2016-05-18T13:00:30Z</time>
      </trkpt>
      <trkpt lat="43.38646" lon="6.11003">
        <ele>280.60000610352</ele>
        <time>2016-05-18T13:00:31Z</time>
      </trkpt>
      <trkpt lat="43.38642" lon="6.11005">
        <ele>280.79998779297</ele>
        <time>2016-05-18T13:00:33Z</time>
      </trkpt>
      <trkpt lat="43.38639" lon="6.11009">
        <ele>281</ele>
        <time>2016-05-18T13:00:35Z</time>
      </trkpt>
      <trkpt lat="43.38638" lon="6.1101">
        <ele>281</ele>
        <time>2016-05-18T13:00:36Z</time>
      </trkpt>
      <trkpt lat="43.38636" lon="6.1101">
        <ele>281.20001220703</ele>
        <time>2016-05-18T13:00:37Z</time>
      </trkpt>
      <trkpt lat="43.38633" lon="6.11007">
        <ele>281.39999389648</ele>
        <time>2016-05-18T13:00:39Z</time>
      </trkpt>
      <trkpt lat="43.38631" lon="6.11006">
        <ele>281.60000610352</ele>
        <time>2016-05-18T13:00:40Z</time>
      </trkpt>
      <trkpt lat="43.3863" lon="6.11004">
        <ele>282</ele>
        <time>2016-05-18T13:00:41Z</time>
      </trkpt>
      <trkpt lat="43.38627" lon="6.11001">
        <ele>282.60000610352</ele>
        <time>2016-05-18T13:00:43Z</time>
      </trkpt>
      <trkpt lat="43.38624" lon="6.10998">
        <ele>282.79998779297</ele>
        <time>2016-05-18T13:00:45Z</time>
      </trkpt>
      <trkpt lat="43.38622" lon="6.10997">
        <ele>283</ele>
        <time>2016-05-18T13:00:46Z</time>
      </trkpt>
      <trkpt lat="43.3862" lon="6.10996">
        <ele>283.20001220703</ele>
        <time>2016-05-18T13:00:47Z</time>
      </trkpt>
      <trkpt lat="43.38617" lon="6.10994">
        <ele>283.39999389648</ele>
        <time>2016-05-18T13:00:49Z</time>
      </trkpt>
      <trkpt lat="43.38614" lon="6.10992">
        <ele>283</ele>
        <time>2016-05-18T13:00:51Z</time>
      </trkpt>
      <trkpt lat="43.38614" lon="6.10992">
        <ele>282.79998779297</ele>
        <time>2016-05-18T13:00:52Z</time>
      </trkpt>
      <trkpt lat="43.38614" lon="6.10992">
        <ele>282.60000610352</ele>
        <time>2016-05-18T13:00:53Z</time>
      </trkpt>
      <trkpt lat="43.38614" lon="6.10992">
        <ele>282.60000610352</ele>
        <time>2016-05-18T13:00:55Z</time>
      </trkpt>
      <trkpt lat="43.38614" lon="6.10992">
        <ele>282.39999389648</ele>
        <time>2016-05-18T13:00:57Z</time>
      </trkpt>
      <trkpt lat="43.38614" lon="6.10992">
        <ele>282.60000610352</ele>
        <time>2016-05-18T13:00:59Z</time>
      </trkpt>
      <trkpt lat="43.38614" lon="6.10992">
        <ele>282.60000610352</ele>
        <time>2016-05-18T13:01:01Z</time>
      </trkpt>
      <trkpt lat="43.38614" lon="6.10992">
        <ele>282.60000610352</ele>
        <time>2016-05-18T13:01:03Z</time>
      </trkpt>
      <trkpt lat="43.38614" lon="6.10992">
        <ele>282.60000610352</ele>
        <time>2016-05-18T13:01:05Z</time>
      </trkpt>
      <trkpt lat="43.38614" lon="6.10992">
        <ele>282.39999389648</ele>
        <time>2016-05-18T13:01:06Z</time>
      </trkpt>
      <trkpt lat="43.38614" lon="6.10992">
        <ele>282.39999389648</ele>
        <time>2016-05-18T13:01:07Z</time>
      </trkpt>
      <trkpt lat="43.38614" lon="6.10992">
        <ele>282.39999389648</ele>
        <time>2016-05-18T13:01:09Z</time>
      </trkpt>
      <trkpt lat="43.38614" lon="6.10992">
        <ele>282.39999389648</ele>
        <time>2016-05-18T13:01:11Z</time>
      </trkpt>
      <trkpt lat="43.38614" lon="6.10992">
        <ele>282.20001220703</ele>
        <time>2016-05-18T13:01:13Z</time>
      </trkpt>
      <trkpt lat="43.38614" lon="6.10992">
        <ele>282.60000610352</ele>
        <time>2016-05-18T13:01:15Z</time>
      </trkpt>
      <trkpt lat="43.38614" lon="6.10992">
        <ele>282.79998779297</ele>
        <time>2016-05-18T13:01:17Z</time>
      </trkpt>
      <trkpt lat="43.38614" lon="6.10992">
        <ele>282.60000610352</ele>
        <time>2016-05-18T13:01:19Z</time>
      </trkpt>
      <trkpt lat="43.38614" lon="6.10992">
        <ele>282.60000610352</ele>
        <time>2016-05-18T13:01:21Z</time>
      </trkpt>
      <trkpt lat="43.38614" lon="6.10992">
        <ele>282.39999389648</ele>
        <time>2016-05-18T13:01:23Z</time>
      </trkpt>
      <trkpt lat="43.38614" lon="6.10992">
        <ele>282.39999389648</ele>
        <time>2016-05-18T13:01:25Z</time>
      </trkpt>
      <trkpt lat="43.38614" lon="6.10992">
        <ele>282.39999389648</ele>
        <time>2016-05-18T13:01:27Z</time>
      </trkpt>
      <trkpt lat="43.38614" lon="6.10992">
        <ele>282.60000610352</ele>
        <time>2016-05-18T13:01:28Z</time>
      </trkpt>
      <trkpt lat="43.38614" lon="6.10992">
        <ele>282.79998779297</ele>
        <time>2016-05-18T13:01:29Z</time>
      </trkpt>
      <trkpt lat="43.38614" lon="6.10992">
        <ele>282.79998779297</ele>
        <time>2016-05-18T13:01:31Z</time>
      </trkpt>
      <trkpt lat="43.38614" lon="6.10992">
        <ele>282.79998779297</ele>
        <time>2016-05-18T13:01:33Z</time>
      </trkpt>
      <trkpt lat="43.38613" lon="6.10991">
        <ele>283</ele>
        <time>2016-05-18T13:01:35Z</time>
      </trkpt>
      <trkpt lat="43.38612" lon="6.1099">
        <ele>282.79998779297</ele>
        <time>2016-05-18T13:01:37Z</time>
      </trkpt>
      <trkpt lat="43.3861" lon="6.1099">
        <ele>282.79998779297</ele>
        <time>2016-05-18T13:01:38Z</time>
      </trkpt>
      <trkpt lat="43.38609" lon="6.10989">
        <ele>282.79998779297</ele>
        <time>2016-05-18T13:01:39Z</time>
      </trkpt>
      <trkpt lat="43.38604" lon="6.10988">
        <ele>282.60000610352</ele>
        <time>2016-05-18T13:01:41Z</time>
      </trkpt>
      <trkpt lat="43.386" lon="6.10988">
        <ele>282.39999389648</ele>
        <time>2016-05-18T13:01:42Z</time>
      </trkpt>
      <trkpt lat="43.38596" lon="6.10988">
        <ele>282.39999389648</ele>
        <time>2016-05-18T13:01:43Z</time>
      </trkpt>
      <trkpt lat="43.38588" lon="6.10989">
        <ele>282.20001220703</ele>
        <time>2016-05-18T13:01:45Z</time>
      </trkpt>
      <trkpt lat="43.38578" lon="6.10989">
        <ele>282</ele>
        <time>2016-05-18T13:01:47Z</time>
      </trkpt>
      <trkpt lat="43.38566" lon="6.10988">
        <ele>281.79998779297</ele>
        <time>2016-05-18T13:01:49Z</time>
      </trkpt>
      <trkpt lat="43.3856" lon="6.10986">
        <ele>281.39999389648</ele>
        <time>2016-05-18T13:01:50Z</time>
      </trkpt>
      <trkpt lat="43.38554" lon="6.10984">
        <ele>281</ele>
        <time>2016-05-18T13:01:51Z</time>
      </trkpt>
      <trkpt lat="43.38548" lon="6.10982">
        <ele>280.60000610352</ele>
        <time>2016-05-18T13:01:52Z</time>
      </trkpt>
      <trkpt lat="43.38543" lon="6.10979">
        <ele>280</ele>
        <time>2016-05-18T13:01:53Z</time>
      </trkpt>
      <trkpt lat="43.38531" lon="6.10974">
        <ele>279.20001220703</ele>
        <time>2016-05-18T13:01:55Z</time>
      </trkpt>
      <trkpt lat="43.38517" lon="6.1097">
        <ele>278.39999389648</ele>
        <time>2016-05-18T13:01:57Z</time>
      </trkpt>
      <trkpt lat="43.3851" lon="6.10968">
        <ele>277.79998779297</ele>
        <time>2016-05-18T13:01:58Z</time>
      </trkpt>
      <trkpt lat="43.38503" lon="6.10966">
        <ele>277.39999389648</ele>
        <time>2016-05-18T13:01:59Z</time>
      </trkpt>
      <trkpt lat="43.3849" lon="6.10963">
        <ele>276.20001220703</ele>
        <time>2016-05-18T13:02:01Z</time>
      </trkpt>
      <trkpt lat="43.3848" lon="6.10961">
        <ele>274.79998779297</ele>
        <time>2016-05-18T13:02:03Z</time>
      </trkpt>
      <trkpt lat="43.38476" lon="6.10961">
        <ele>274</ele>
        <time>2016-05-18T13:02:05Z</time>
      </trkpt>
      <trkpt lat="43.38475" lon="6.10961">
        <ele>273.79998779297</ele>
        <time>2016-05-18T13:02:06Z</time>
      </trkpt>
      <trkpt lat="43.38472" lon="6.1096">
        <ele>273.60000610352</ele>
        <time>2016-05-18T13:02:07Z</time>
      </trkpt>
      <trkpt lat="43.38467" lon="6.1096">
        <ele>273.39999389648</ele>
        <time>2016-05-18T13:02:09Z</time>
      </trkpt>
      <trkpt lat="43.38463" lon="6.1096">
        <ele>273.39999389648</ele>
        <time>2016-05-18T13:02:10Z</time>
      </trkpt>
      <trkpt lat="43.38459" lon="6.10959">
        <ele>273.39999389648</ele>
        <time>2016-05-18T13:02:11Z</time>
      </trkpt>
      <trkpt lat="43.3845" lon="6.10957">
        <ele>273.20001220703</ele>
        <time>2016-05-18T13:02:13Z</time>
      </trkpt>
      <trkpt lat="43.3844" lon="6.10956">
        <ele>273.20001220703</ele>
        <time>2016-05-18T13:02:15Z</time>
      </trkpt>
      <trkpt lat="43.38435" lon="6.10955">
        <ele>273</ele>
        <time>2016-05-18T13:02:16Z</time>
      </trkpt>
      <trkpt lat="43.3843" lon="6.10954">
        <ele>273</ele>
        <time>2016-05-18T13:02:17Z</time>
      </trkpt>
      <trkpt lat="43.38419" lon="6.1095">
        <ele>272.60000610352</ele>
        <time>2016-05-18T13:02:19Z</time>
      </trkpt>
      <trkpt lat="43.38409" lon="6.10947">
        <ele>272.39999389648</ele>
        <time>2016-05-18T13:02:21Z</time>
      </trkpt>
      <trkpt lat="43.38397" lon="6.10944">
        <ele>272.39999389648</ele>
        <time>2016-05-18T13:02:23Z</time>
      </trkpt>
      <trkpt lat="43.38385" lon="6.10941">
        <ele>272</ele>
        <time>2016-05-18T13:02:25Z</time>
      </trkpt>
      <trkpt lat="43.38374" lon="6.10938">
        <ele>271.79998779297</ele>
        <time>2016-05-18T13:02:27Z</time>
      </trkpt>
      <trkpt lat="43.38368" lon="6.10937">
        <ele>271.60000610352</ele>
        <time>2016-05-18T13:02:28Z</time>
      </trkpt>
      <trkpt lat="43.38362" lon="6.10936">
        <ele>271.39999389648</ele>
        <time>2016-05-18T13:02:29Z</time>
      </trkpt>
      <trkpt lat="43.38351" lon="6.10931">
        <ele>270.60000610352</ele>
        <time>2016-05-18T13:02:31Z</time>
      </trkpt>
      <trkpt lat="43.38339" lon="6.10928">
        <ele>270.39999389648</ele>
        <time>2016-05-18T13:02:33Z</time>
      </trkpt>
      <trkpt lat="43.38327" lon="6.10924">
        <ele>270</ele>
        <time>2016-05-18T13:02:35Z</time>
      </trkpt>
      <trkpt lat="43.38315" lon="6.10919">
        <ele>269.79998779297</ele>
        <time>2016-05-18T13:02:37Z</time>
      </trkpt>
      <trkpt lat="43.38303" lon="6.10916">
        <ele>269.60000610352</ele>
        <time>2016-05-18T13:02:39Z</time>
      </trkpt>
      <trkpt lat="43.38297" lon="6.10914">
        <ele>269.60000610352</ele>
        <time>2016-05-18T13:02:40Z</time>
      </trkpt>
      <trkpt lat="43.38291" lon="6.10913">
        <ele>269.79998779297</ele>
        <time>2016-05-18T13:02:41Z</time>
      </trkpt>
      <trkpt lat="43.38285" lon="6.10911">
        <ele>269.79998779297</ele>
        <time>2016-05-18T13:02:42Z</time>
      </trkpt>
      <trkpt lat="43.38279" lon="6.10909">
        <ele>269.79998779297</ele>
        <time>2016-05-18T13:02:43Z</time>
      </trkpt>
      <trkpt lat="43.38268" lon="6.10906">
        <ele>269.60000610352</ele>
        <time>2016-05-18T13:02:45Z</time>
      </trkpt>
      <trkpt lat="43.38256" lon="6.10903">
        <ele>269.39999389648</ele>
        <time>2016-05-18T13:02:47Z</time>
      </trkpt>
      <trkpt lat="43.38245" lon="6.109">
        <ele>269.39999389648</ele>
        <time>2016-05-18T13:02:49Z</time>
      </trkpt>
      <trkpt lat="43.38235" lon="6.10897">
        <ele>269.39999389648</ele>
        <time>2016-05-18T13:02:51Z</time>
      </trkpt>
      <trkpt lat="43.38224" lon="6.10895">
        <ele>269.60000610352</ele>
        <time>2016-05-18T13:02:53Z</time>
      </trkpt>
      <trkpt lat="43.38216" lon="6.10892">
        <ele>269.60000610352</ele>
        <time>2016-05-18T13:02:55Z</time>
      </trkpt>
      <trkpt lat="43.38208" lon="6.10891">
        <ele>269.79998779297</ele>
        <time>2016-05-18T13:02:57Z</time>
      </trkpt>
      <trkpt lat="43.38202" lon="6.10889">
        <ele>269.60000610352</ele>
        <time>2016-05-18T13:02:59Z</time>
      </trkpt>
      <trkpt lat="43.38199" lon="6.10888">
        <ele>269.79998779297</ele>
        <time>2016-05-18T13:03:01Z</time>
      </trkpt>
      <trkpt lat="43.38198" lon="6.10888">
        <ele>269.79998779297</ele>
        <time>2016-05-18T13:03:02Z</time>
      </trkpt>
      <trkpt lat="43.38198" lon="6.10887">
        <ele>269.79998779297</ele>
        <time>2016-05-18T13:03:03Z</time>
      </trkpt>
      <trkpt lat="43.38197" lon="6.10887">
        <ele>269.79998779297</ele>
        <time>2016-05-18T13:03:05Z</time>
      </trkpt>
      <trkpt lat="43.38198" lon="6.10887">
        <ele>269.79998779297</ele>
        <time>2016-05-18T13:03:06Z</time>
      </trkpt>
      <trkpt lat="43.38198" lon="6.10887">
        <ele>270</ele>
        <time>2016-05-18T13:03:07Z</time>
      </trkpt>
      <trkpt lat="43.38198" lon="6.10887">
        <ele>270</ele>
        <time>2016-05-18T13:03:09Z</time>
      </trkpt>
      <trkpt lat="43.38198" lon="6.10887">
        <ele>270</ele>
        <time>2016-05-18T13:03:11Z</time>
      </trkpt>
      <trkpt lat="43.38198" lon="6.10887">
        <ele>270</ele>
        <time>2016-05-18T13:03:13Z</time>
      </trkpt>
      <trkpt lat="43.38197" lon="6.10887">
        <ele>270</ele>
        <time>2016-05-18T13:03:15Z</time>
      </trkpt>
      <trkpt lat="43.38198" lon="6.10887">
        <ele>270</ele>
        <time>2016-05-18T13:03:17Z</time>
      </trkpt>
      <trkpt lat="43.38198" lon="6.10887">
        <ele>270</ele>
        <time>2016-05-18T13:03:19Z</time>
      </trkpt>
      <trkpt lat="43.38198" lon="6.10888">
        <ele>270</ele>
        <time>2016-05-18T13:03:21Z</time>
      </trkpt>
      <trkpt lat="43.38198" lon="6.10888">
        <ele>270.20001220703</ele>
        <time>2016-05-18T13:03:23Z</time>
      </trkpt>
      <trkpt lat="43.38198" lon="6.10887">
        <ele>270.20001220703</ele>
        <time>2016-05-18T13:03:25Z</time>
      </trkpt>
      <trkpt lat="43.38198" lon="6.10887">
        <ele>270.20001220703</ele>
        <time>2016-05-18T13:03:27Z</time>
      </trkpt>
      <trkpt lat="43.38198" lon="6.10887">
        <ele>270.20001220703</ele>
        <time>2016-05-18T13:03:29Z</time>
      </trkpt>
      <trkpt lat="43.38198" lon="6.10888">
        <ele>270.20001220703</ele>
        <time>2016-05-18T13:03:31Z</time>
      </trkpt>
      <trkpt lat="43.38198" lon="6.10888">
        <ele>270.20001220703</ele>
        <time>2016-05-18T13:03:33Z</time>
      </trkpt>
      <trkpt lat="43.38198" lon="6.10888">
        <ele>270.20001220703</ele>
        <time>2016-05-18T13:03:35Z</time>
      </trkpt>
      <trkpt lat="43.38198" lon="6.10888">
        <ele>270.39999389648</ele>
        <time>2016-05-18T13:03:37Z</time>
      </trkpt>
      <trkpt lat="43.38198" lon="6.10888">
        <ele>270.20001220703</ele>
        <time>2016-05-18T13:03:39Z</time>
      </trkpt>
      <trkpt lat="43.38198" lon="6.10887">
        <ele>270.20001220703</ele>
        <time>2016-05-18T13:03:41Z</time>
      </trkpt>
      <trkpt lat="43.38198" lon="6.10887">
        <ele>270.20001220703</ele>
        <time>2016-05-18T13:03:43Z</time>
      </trkpt>
      <trkpt lat="43.38198" lon="6.10887">
        <ele>270.20001220703</ele>
        <time>2016-05-18T13:03:45Z</time>
      </trkpt>
      <trkpt lat="43.38198" lon="6.10888">
        <ele>270.20001220703</ele>
        <time>2016-05-18T13:03:47Z</time>
      </trkpt>
      <trkpt lat="43.38198" lon="6.10887">
        <ele>270.20001220703</ele>
        <time>2016-05-18T13:03:49Z</time>
      </trkpt>
      <trkpt lat="43.38198" lon="6.10887">
        <ele>270.20001220703</ele>
        <time>2016-05-18T13:03:50Z</time>
      </trkpt>
      <trkpt lat="43.38198" lon="6.10887">
        <ele>270.20001220703</ele>
        <time>2016-05-18T13:03:51Z</time>
      </trkpt>
      <trkpt lat="43.38198" lon="6.10887">
        <ele>270.20001220703</ele>
        <time>2016-05-18T13:03:53Z</time>
      </trkpt>
      <trkpt lat="43.38198" lon="6.10887">
        <ele>270.39999389648</ele>
        <time>2016-05-18T13:03:55Z</time>
      </trkpt>
      <trkpt lat="43.38198" lon="6.10887">
        <ele>270.39999389648</ele>
        <time>2016-05-18T13:03:57Z</time>
      </trkpt>
      <trkpt lat="43.38198" lon="6.10887">
        <ele>270.39999389648</ele>
        <time>2016-05-18T13:03:59Z</time>
      </trkpt>
      <trkpt lat="43.38198" lon="6.10887">
        <ele>270.20001220703</ele>
        <time>2016-05-18T13:04:01Z</time>
      </trkpt>
      <trkpt lat="43.38198" lon="6.10887">
        <ele>270.39999389648</ele>
        <time>2016-05-18T13:04:03Z</time>
      </trkpt>
      <trkpt lat="43.38198" lon="6.10887">
        <ele>270.39999389648</ele>
        <time>2016-05-18T13:04:05Z</time>
      </trkpt>
      <trkpt lat="43.38197" lon="6.10888">
        <ele>270.39999389648</ele>
        <time>2016-05-18T13:04:06Z</time>
      </trkpt>
      <trkpt lat="43.38197" lon="6.1089">
        <ele>270.39999389648</ele>
        <time>2016-05-18T13:04:07Z</time>
      </trkpt>
      <trkpt lat="43.38196" lon="6.10895">
        <ele>270.60000610352</ele>
        <time>2016-05-18T13:04:09Z</time>
      </trkpt>
      <trkpt lat="43.38195" lon="6.10902">
        <ele>270.60000610352</ele>
        <time>2016-05-18T13:04:11Z</time>
      </trkpt>
      <trkpt lat="43.38195" lon="6.10908">
        <ele>270.79998779297</ele>
        <time>2016-05-18T13:04:13Z</time>
      </trkpt>
      <trkpt lat="43.38194" lon="6.10914">
        <ele>271</ele>
        <time>2016-05-18T13:04:15Z</time>
      </trkpt>
      <trkpt lat="43.38192" lon="6.10921">
        <ele>271</ele>
        <time>2016-05-18T13:04:17Z</time>
      </trkpt>
      <trkpt lat="43.38192" lon="6.10924">
        <ele>271</ele>
        <time>2016-05-18T13:04:18Z</time>
      </trkpt>
      <trkpt lat="43.38191" lon="6.10928">
        <ele>271</ele>
        <time>2016-05-18T13:04:19Z</time>
      </trkpt>
      <trkpt lat="43.3819" lon="6.10936">
        <ele>271.20001220703</ele>
        <time>2016-05-18T13:04:21Z</time>
      </trkpt>
      <trkpt lat="43.38188" lon="6.10944">
        <ele>271.39999389648</ele>
        <time>2016-05-18T13:04:23Z</time>
      </trkpt>
      <trkpt lat="43.38187" lon="6.10948">
        <ele>271.39999389648</ele>
        <time>2016-05-18T13:04:24Z</time>
      </trkpt>
      <trkpt lat="43.38187" lon="6.10951">
        <ele>271.60000610352</ele>
        <time>2016-05-18T13:04:25Z</time>
      </trkpt>
      <trkpt lat="43.38185" lon="6.10958">
        <ele>271.79998779297</ele>
        <time>2016-05-18T13:04:27Z</time>
      </trkpt>
      <trkpt lat="43.38184" lon="6.10964">
        <ele>272</ele>
        <time>2016-05-18T13:04:29Z</time>
      </trkpt>
      <trkpt lat="43.38182" lon="6.10972">
        <ele>272.20001220703</ele>
        <time>2016-05-18T13:04:31Z</time>
      </trkpt>
      <trkpt lat="43.38181" lon="6.10979">
        <ele>272.39999389648</ele>
        <time>2016-05-18T13:04:33Z</time>
      </trkpt>
      <trkpt lat="43.3818" lon="6.10983">
        <ele>272.60000610352</ele>
        <time>2016-05-18T13:04:34Z</time>
      </trkpt>
      <trkpt lat="43.38179" lon="6.10987">
        <ele>272.60000610352</ele>
        <time>2016-05-18T13:04:35Z</time>
      </trkpt>
      <trkpt lat="43.38177" lon="6.10995">
        <ele>272.60000610352</ele>
        <time>2016-05-18T13:04:37Z</time>
      </trkpt>
      <trkpt lat="43.38176" lon="6.11002">
        <ele>272.79998779297</ele>
        <time>2016-05-18T13:04:39Z</time>
      </trkpt>
      <trkpt lat="43.38175" lon="6.11006">
        <ele>272.79998779297</ele>
        <time>2016-05-18T13:04:40Z</time>
      </trkpt>
      <trkpt lat="43.38174" lon="6.1101">
        <ele>273</ele>
        <time>2016-05-18T13:04:41Z</time>
      </trkpt>
      <trkpt lat="43.38173" lon="6.11018">
        <ele>273.39999389648</ele>
        <time>2016-05-18T13:04:43Z</time>
      </trkpt>
      <trkpt lat="43.38171" lon="6.11026">
        <ele>273.79998779297</ele>
        <time>2016-05-18T13:04:45Z</time>
      </trkpt>
      <trkpt lat="43.38169" lon="6.11035">
        <ele>274</ele>
        <time>2016-05-18T13:04:47Z</time>
      </trkpt>
      <trkpt lat="43.38168" lon="6.1104">
        <ele>274</ele>
        <time>2016-05-18T13:04:48Z</time>
      </trkpt>
      <trkpt lat="43.38167" lon="6.11044">
        <ele>274</ele>
        <time>2016-05-18T13:04:49Z</time>
      </trkpt>
      <trkpt lat="43.38165" lon="6.11053">
        <ele>274.39999389648</ele>
        <time>2016-05-18T13:04:51Z</time>
      </trkpt>
      <trkpt lat="43.38163" lon="6.11062">
        <ele>274.60000610352</ele>
        <time>2016-05-18T13:04:53Z</time>
      </trkpt>
      <trkpt lat="43.38161" lon="6.11071">
        <ele>274.79998779297</ele>
        <time>2016-05-18T13:04:55Z</time>
      </trkpt>
      <trkpt lat="43.38159" lon="6.11075">
        <ele>275</ele>
        <time>2016-05-18T13:04:56Z</time>
      </trkpt>
      <trkpt lat="43.38158" lon="6.1108">
        <ele>275</ele>
        <time>2016-05-18T13:04:57Z</time>
      </trkpt>
      <trkpt lat="43.38155" lon="6.11088">
        <ele>275.39999389648</ele>
        <time>2016-05-18T13:04:59Z</time>
      </trkpt>
      <trkpt lat="43.38151" lon="6.11096">
        <ele>275.79998779297</ele>
        <time>2016-05-18T13:05:01Z</time>
      </trkpt>
      <trkpt lat="43.38147" lon="6.11104">
        <ele>276</ele>
        <time>2016-05-18T13:05:03Z</time>
      </trkpt>
      <trkpt lat="43.38145" lon="6.11108">
        <ele>276.20001220703</ele>
        <time>2016-05-18T13:05:04Z</time>
      </trkpt>
      <trkpt lat="43.38144" lon="6.11111">
        <ele>276.39999389648</ele>
        <time>2016-05-18T13:05:05Z</time>
      </trkpt>
      <trkpt lat="43.38141" lon="6.11115">
        <ele>276.60000610352</ele>
        <time>2016-05-18T13:05:06Z</time>
      </trkpt>
      <trkpt lat="43.38139" lon="6.11118">
        <ele>276.79998779297</ele>
        <time>2016-05-18T13:05:07Z</time>
      </trkpt>
      <trkpt lat="43.38134" lon="6.11124">
        <ele>277</ele>
        <time>2016-05-18T13:05:09Z</time>
      </trkpt>
      <trkpt lat="43.3813" lon="6.11129">
        <ele>277.20001220703</ele>
        <time>2016-05-18T13:05:11Z</time>
      </trkpt>
      <trkpt lat="43.38125" lon="6.11134">
        <ele>277.39999389648</ele>
        <time>2016-05-18T13:05:13Z</time>
      </trkpt>
      <trkpt lat="43.3812" lon="6.11139">
        <ele>277.60000610352</ele>
        <time>2016-05-18T13:05:15Z</time>
      </trkpt>
      <trkpt lat="43.38117" lon="6.11144">
        <ele>277.79998779297</ele>
        <time>2016-05-18T13:05:17Z</time>
      </trkpt>
      <trkpt lat="43.38116" lon="6.11148">
        <ele>278</ele>
        <time>2016-05-18T13:05:18Z</time>
      </trkpt>
      <trkpt lat="43.38116" lon="6.11151">
        <ele>277.79998779297</ele>
        <time>2016-05-18T13:05:19Z</time>
      </trkpt>
      <trkpt lat="43.38116" lon="6.11158">
        <ele>278</ele>
        <time>2016-05-18T13:05:21Z</time>
      </trkpt>
      <trkpt lat="43.38117" lon="6.11165">
        <ele>278</ele>
        <time>2016-05-18T13:05:23Z</time>
      </trkpt>
      <trkpt lat="43.38117" lon="6.11168">
        <ele>278.20001220703</ele>
        <time>2016-05-18T13:05:24Z</time>
      </trkpt>
      <trkpt lat="43.38118" lon="6.11171">
        <ele>278.39999389648</ele>
        <time>2016-05-18T13:05:25Z</time>
      </trkpt>
      <trkpt lat="43.38118" lon="6.11178">
        <ele>278.60000610352</ele>
        <time>2016-05-18T13:05:27Z</time>
      </trkpt>
      <trkpt lat="43.38118" lon="6.11185">
        <ele>278.79998779297</ele>
        <time>2016-05-18T13:05:29Z</time>
      </trkpt>
      <trkpt lat="43.38118" lon="6.11192">
        <ele>279</ele>
        <time>2016-05-18T13:05:31Z</time>
      </trkpt>
      <trkpt lat="43.38118" lon="6.11198">
        <ele>279.20001220703</ele>
        <time>2016-05-18T13:05:33Z</time>
      </trkpt>
      <trkpt lat="43.38118" lon="6.11205">
        <ele>279.20001220703</ele>
        <time>2016-05-18T13:05:35Z</time>
      </trkpt>
      <trkpt lat="43.38118" lon="6.11211">
        <ele>279.39999389648</ele>
        <time>2016-05-18T13:05:37Z</time>
      </trkpt>
      <trkpt lat="43.38117" lon="6.11217">
        <ele>279.79998779297</ele>
        <time>2016-05-18T13:05:39Z</time>
      </trkpt>
      <trkpt lat="43.38116" lon="6.11224">
        <ele>280</ele>
        <time>2016-05-18T13:05:41Z</time>
      </trkpt>
      <trkpt lat="43.38116" lon="6.11231">
        <ele>280.20001220703</ele>
        <time>2016-05-18T13:05:43Z</time>
      </trkpt>
      <trkpt lat="43.38115" lon="6.11239">
        <ele>280.39999389648</ele>
        <time>2016-05-18T13:05:45Z</time>
      </trkpt>
      <trkpt lat="43.38115" lon="6.11247">
        <ele>280.39999389648</ele>
        <time>2016-05-18T13:05:47Z</time>
      </trkpt>
      <trkpt lat="43.38115" lon="6.11255">
        <ele>280.79998779297</ele>
        <time>2016-05-18T13:05:49Z</time>
      </trkpt>
      <trkpt lat="43.38115" lon="6.1126">
        <ele>280.79998779297</ele>
        <time>2016-05-18T13:05:50Z</time>
      </trkpt>
      <trkpt lat="43.38115" lon="6.11264">
        <ele>281</ele>
        <time>2016-05-18T13:05:51Z</time>
      </trkpt>
      <trkpt lat="43.38114" lon="6.11273">
        <ele>281.20001220703</ele>
        <time>2016-05-18T13:05:53Z</time>
      </trkpt>
      <trkpt lat="43.38113" lon="6.11282">
        <ele>281.39999389648</ele>
        <time>2016-05-18T13:05:55Z</time>
      </trkpt>
      <trkpt lat="43.38113" lon="6.1129">
        <ele>281.79998779297</ele>
        <time>2016-05-18T13:05:57Z</time>
      </trkpt>
      <trkpt lat="43.38113" lon="6.11295">
        <ele>281.79998779297</ele>
        <time>2016-05-18T13:05:58Z</time>
      </trkpt>
      <trkpt lat="43.38112" lon="6.11299">
        <ele>282</ele>
        <time>2016-05-18T13:05:59Z</time>
      </trkpt>
      <trkpt lat="43.38111" lon="6.11307">
        <ele>282.20001220703</ele>
        <time>2016-05-18T13:06:01Z</time>
      </trkpt>
      <trkpt lat="43.38111" lon="6.11316">
        <ele>282.39999389648</ele>
        <time>2016-05-18T13:06:03Z</time>
      </trkpt>
      <trkpt lat="43.38111" lon="6.11321">
        <ele>282.39999389648</ele>
        <time>2016-05-18T13:06:04Z</time>
      </trkpt>
      <trkpt lat="43.3811" lon="6.11325">
        <ele>282.39999389648</ele>
        <time>2016-05-18T13:06:05Z</time>
      </trkpt>
      <trkpt lat="43.3811" lon="6.11334">
        <ele>282.39999389648</ele>
        <time>2016-05-18T13:06:07Z</time>
      </trkpt>
      <trkpt lat="43.38108" lon="6.11343">
        <ele>283</ele>
        <time>2016-05-18T13:06:09Z</time>
      </trkpt>
      <trkpt lat="43.38108" lon="6.11352">
        <ele>283.39999389648</ele>
        <time>2016-05-18T13:06:11Z</time>
      </trkpt>
      <trkpt lat="43.38107" lon="6.11361">
        <ele>283.60000610352</ele>
        <time>2016-05-18T13:06:13Z</time>
      </trkpt>
      <trkpt lat="43.38106" lon="6.11369">
        <ele>283.60000610352</ele>
        <time>2016-05-18T13:06:15Z</time>
      </trkpt>
      <trkpt lat="43.38105" lon="6.11377">
        <ele>283.60000610352</ele>
        <time>2016-05-18T13:06:17Z</time>
      </trkpt>
      <trkpt lat="43.38103" lon="6.11385">
        <ele>284</ele>
        <time>2016-05-18T13:06:19Z</time>
      </trkpt>
      <trkpt lat="43.38102" lon="6.11394">
        <ele>284.20001220703</ele>
        <time>2016-05-18T13:06:21Z</time>
      </trkpt>
      <trkpt lat="43.38101" lon="6.11401">
        <ele>284.39999389648</ele>
        <time>2016-05-18T13:06:23Z</time>
      </trkpt>
      <trkpt lat="43.381" lon="6.11408">
        <ele>284.79998779297</ele>
        <time>2016-05-18T13:06:25Z</time>
      </trkpt>
      <trkpt lat="43.38099" lon="6.11416">
        <ele>285</ele>
        <time>2016-05-18T13:06:27Z</time>
      </trkpt>
      <trkpt lat="43.38097" lon="6.11423">
        <ele>285.39999389648</ele>
        <time>2016-05-18T13:06:29Z</time>
      </trkpt>
      <trkpt lat="43.38095" lon="6.1143">
        <ele>285.79998779297</ele>
        <time>2016-05-18T13:06:31Z</time>
      </trkpt>
      <trkpt lat="43.38094" lon="6.11438">
        <ele>285.79998779297</ele>
        <time>2016-05-18T13:06:33Z</time>
      </trkpt>
      <trkpt lat="43.38092" lon="6.11444">
        <ele>286</ele>
        <time>2016-05-18T13:06:35Z</time>
      </trkpt>
      <trkpt lat="43.38092" lon="6.11448">
        <ele>286</ele>
        <time>2016-05-18T13:06:36Z</time>
      </trkpt>
      <trkpt lat="43.38091" lon="6.11452">
        <ele>286</ele>
        <time>2016-05-18T13:06:37Z</time>
      </trkpt>
      <trkpt lat="43.3809" lon="6.11459">
        <ele>286</ele>
        <time>2016-05-18T13:06:39Z</time>
      </trkpt>
      <trkpt lat="43.38088" lon="6.11467">
        <ele>286.20001220703</ele>
        <time>2016-05-18T13:06:41Z</time>
      </trkpt>
      <trkpt lat="43.38087" lon="6.11474">
        <ele>286.60000610352</ele>
        <time>2016-05-18T13:06:43Z</time>
      </trkpt>
      <trkpt lat="43.38086" lon="6.11482">
        <ele>287</ele>
        <time>2016-05-18T13:06:45Z</time>
      </trkpt>
      <trkpt lat="43.38085" lon="6.1149">
        <ele>287.39999389648</ele>
        <time>2016-05-18T13:06:47Z</time>
      </trkpt>
      <trkpt lat="43.38085" lon="6.11498">
        <ele>287.79998779297</ele>
        <time>2016-05-18T13:06:49Z</time>
      </trkpt>
      <trkpt lat="43.38084" lon="6.11506">
        <ele>288.20001220703</ele>
        <time>2016-05-18T13:06:51Z</time>
      </trkpt>
      <trkpt lat="43.38084" lon="6.11514">
        <ele>288.20001220703</ele>
        <time>2016-05-18T13:06:53Z</time>
      </trkpt>
      <trkpt lat="43.38083" lon="6.11521">
        <ele>288.39999389648</ele>
        <time>2016-05-18T13:06:55Z</time>
      </trkpt>
      <trkpt lat="43.38082" lon="6.11529">
        <ele>288.79998779297</ele>
        <time>2016-05-18T13:06:57Z</time>
      </trkpt>
      <trkpt lat="43.38082" lon="6.11537">
        <ele>289</ele>
        <time>2016-05-18T13:06:59Z</time>
      </trkpt>
      <trkpt lat="43.38082" lon="6.1154">
        <ele>289</ele>
        <time>2016-05-18T13:07:00Z</time>
      </trkpt>
      <trkpt lat="43.38081" lon="6.11544">
        <ele>289</ele>
        <time>2016-05-18T13:07:01Z</time>
      </trkpt>
      <trkpt lat="43.38081" lon="6.11551">
        <ele>289</ele>
        <time>2016-05-18T13:07:03Z</time>
      </trkpt>
      <trkpt lat="43.3808" lon="6.11557">
        <ele>289.20001220703</ele>
        <time>2016-05-18T13:07:05Z</time>
      </trkpt>
      <trkpt lat="43.3808" lon="6.1156">
        <ele>289.20001220703</ele>
        <time>2016-05-18T13:07:06Z</time>
      </trkpt>
      <trkpt lat="43.38079" lon="6.11563">
        <ele>289.39999389648</ele>
        <time>2016-05-18T13:07:07Z</time>
      </trkpt>
      <trkpt lat="43.38079" lon="6.11569">
        <ele>289.39999389648</ele>
        <time>2016-05-18T13:07:09Z</time>
      </trkpt>
      <trkpt lat="43.38079" lon="6.11576">
        <ele>289.39999389648</ele>
        <time>2016-05-18T13:07:11Z</time>
      </trkpt>
      <trkpt lat="43.38079" lon="6.1158">
        <ele>289.20001220703</ele>
        <time>2016-05-18T13:07:12Z</time>
      </trkpt>
      <trkpt lat="43.38079" lon="6.11583">
        <ele>289.20001220703</ele>
        <time>2016-05-18T13:07:13Z</time>
      </trkpt>
      <trkpt lat="43.38078" lon="6.1159">
        <ele>289.39999389648</ele>
        <time>2016-05-18T13:07:15Z</time>
      </trkpt>
      <trkpt lat="43.38078" lon="6.11597">
        <ele>289.79998779297</ele>
        <time>2016-05-18T13:07:17Z</time>
      </trkpt>
      <trkpt lat="43.38078" lon="6.11605">
        <ele>290</ele>
        <time>2016-05-18T13:07:19Z</time>
      </trkpt>
      <trkpt lat="43.38078" lon="6.11611">
        <ele>290.20001220703</ele>
        <time>2016-05-18T13:07:21Z</time>
      </trkpt>
      <trkpt lat="43.38078" lon="6.11618">
        <ele>290.60000610352</ele>
        <time>2016-05-18T13:07:23Z</time>
      </trkpt>
      <trkpt lat="43.38078" lon="6.11625">
        <ele>290.79998779297</ele>
        <time>2016-05-18T13:07:25Z</time>
      </trkpt>
      <trkpt lat="43.38077" lon="6.11631">
        <ele>291</ele>
        <time>2016-05-18T13:07:27Z</time>
      </trkpt>
      <trkpt lat="43.38077" lon="6.11634">
        <ele>291</ele>
        <time>2016-05-18T13:07:28Z</time>
      </trkpt>
      <trkpt lat="43.38077" lon="6.11637">
        <ele>291.20001220703</ele>
        <time>2016-05-18T13:07:29Z</time>
      </trkpt>
      <trkpt lat="43.38077" lon="6.11643">
        <ele>291.39999389648</ele>
        <time>2016-05-18T13:07:31Z</time>
      </trkpt>
      <trkpt lat="43.38076" lon="6.11645">
        <ele>291.39999389648</ele>
        <time>2016-05-18T13:07:32Z</time>
      </trkpt>
      <trkpt lat="43.38076" lon="6.11648">
        <ele>291.39999389648</ele>
        <time>2016-05-18T13:07:33Z</time>
      </trkpt>
      <trkpt lat="43.38075" lon="6.11653">
        <ele>291.79998779297</ele>
        <time>2016-05-18T13:07:35Z</time>
      </trkpt>
      <trkpt lat="43.38074" lon="6.11658">
        <ele>292.20001220703</ele>
        <time>2016-05-18T13:07:37Z</time>
      </trkpt>
      <trkpt lat="43.38073" lon="6.11664">
        <ele>292.60000610352</ele>
        <time>2016-05-18T13:07:39Z</time>
      </trkpt>
      <trkpt lat="43.38073" lon="6.11671">
        <ele>293</ele>
        <time>2016-05-18T13:07:41Z</time>
      </trkpt>
      <trkpt lat="43.38071" lon="6.11678">
        <ele>293.20001220703</ele>
        <time>2016-05-18T13:07:43Z</time>
      </trkpt>
      <trkpt lat="43.38071" lon="6.11682">
        <ele>293.20001220703</ele>
        <time>2016-05-18T13:07:44Z</time>
      </trkpt>
      <trkpt lat="43.38071" lon="6.11686">
        <ele>293.20001220703</ele>
        <time>2016-05-18T13:07:45Z</time>
      </trkpt>
      <trkpt lat="43.3807" lon="6.11694">
        <ele>293.39999389648</ele>
        <time>2016-05-18T13:07:47Z</time>
      </trkpt>
      <trkpt lat="43.38069" lon="6.11701">
        <ele>293.60000610352</ele>
        <time>2016-05-18T13:07:49Z</time>
      </trkpt>
      <trkpt lat="43.38068" lon="6.11709">
        <ele>294</ele>
        <time>2016-05-18T13:07:51Z</time>
      </trkpt>
      <trkpt lat="43.38068" lon="6.11716">
        <ele>294.20001220703</ele>
        <time>2016-05-18T13:07:53Z</time>
      </trkpt>
      <trkpt lat="43.38068" lon="6.1172">
        <ele>294.20001220703</ele>
        <time>2016-05-18T13:07:54Z</time>
      </trkpt>
      <trkpt lat="43.38067" lon="6.11723">
        <ele>294.20001220703</ele>
        <time>2016-05-18T13:07:55Z</time>
      </trkpt>
      <trkpt lat="43.38067" lon="6.1173">
        <ele>294.60000610352</ele>
        <time>2016-05-18T13:07:57Z</time>
      </trkpt>
      <trkpt lat="43.38067" lon="6.11737">
        <ele>294.60000610352</ele>
        <time>2016-05-18T13:07:59Z</time>
      </trkpt>
      <trkpt lat="43.38066" lon="6.11744">
        <ele>294.60000610352</ele>
        <time>2016-05-18T13:08:01Z</time>
      </trkpt>
      <trkpt lat="43.38066" lon="6.11751">
        <ele>295</ele>
        <time>2016-05-18T13:08:03Z</time>
      </trkpt>
      <trkpt lat="43.38066" lon="6.11758">
        <ele>295.20001220703</ele>
        <time>2016-05-18T13:08:05Z</time>
      </trkpt>
      <trkpt lat="43.38067" lon="6.11765">
        <ele>295.20001220703</ele>
        <time>2016-05-18T13:08:07Z</time>
      </trkpt>
      <trkpt lat="43.38068" lon="6.11769">
        <ele>295.39999389648</ele>
        <time>2016-05-18T13:08:08Z</time>
      </trkpt>
      <trkpt lat="43.38069" lon="6.11772">
        <ele>295.60000610352</ele>
        <time>2016-05-18T13:08:09Z</time>
      </trkpt>
      <trkpt lat="43.3807" lon="6.11778">
        <ele>296</ele>
        <time>2016-05-18T13:08:11Z</time>
      </trkpt>
      <trkpt lat="43.38071" lon="6.11781">
        <ele>296.39999389648</ele>
        <time>2016-05-18T13:08:12Z</time>
      </trkpt>
      <trkpt lat="43.38073" lon="6.11784">
        <ele>296.39999389648</ele>
        <time>2016-05-18T13:08:13Z</time>
      </trkpt>
      <trkpt lat="43.38074" lon="6.1179">
        <ele>296.79998779297</ele>
        <time>2016-05-18T13:08:15Z</time>
      </trkpt>
      <trkpt lat="43.38075" lon="6.11796">
        <ele>297.20001220703</ele>
        <time>2016-05-18T13:08:17Z</time>
      </trkpt>
      <trkpt lat="43.38075" lon="6.11799">
        <ele>297.39999389648</ele>
        <time>2016-05-18T13:08:18Z</time>
      </trkpt>
      <trkpt lat="43.38076" lon="6.11802">
        <ele>297.60000610352</ele>
        <time>2016-05-18T13:08:19Z</time>
      </trkpt>
      <trkpt lat="43.38076" lon="6.11808">
        <ele>297.60000610352</ele>
        <time>2016-05-18T13:08:21Z</time>
      </trkpt>
      <trkpt lat="43.38076" lon="6.11814">
        <ele>297.60000610352</ele>
        <time>2016-05-18T13:08:23Z</time>
      </trkpt>
      <trkpt lat="43.38076" lon="6.1182">
        <ele>297.79998779297</ele>
        <time>2016-05-18T13:08:25Z</time>
      </trkpt>
      <trkpt lat="43.38076" lon="6.11827">
        <ele>298</ele>
        <time>2016-05-18T13:08:27Z</time>
      </trkpt>
      <trkpt lat="43.38076" lon="6.1183">
        <ele>298.20001220703</ele>
        <time>2016-05-18T13:08:28Z</time>
      </trkpt>
      <trkpt lat="43.38076" lon="6.11833">
        <ele>298.39999389648</ele>
        <time>2016-05-18T13:08:29Z</time>
      </trkpt>
      <trkpt lat="43.38076" lon="6.11837">
        <ele>298.60000610352</ele>
        <time>2016-05-18T13:08:30Z</time>
      </trkpt>
      <trkpt lat="43.38077" lon="6.1184">
        <ele>298.79998779297</ele>
        <time>2016-05-18T13:08:31Z</time>
      </trkpt>
      <trkpt lat="43.38076" lon="6.11847">
        <ele>299</ele>
        <time>2016-05-18T13:08:33Z</time>
      </trkpt>
      <trkpt lat="43.38076" lon="6.11854">
        <ele>299.20001220703</ele>
        <time>2016-05-18T13:08:35Z</time>
      </trkpt>
      <trkpt lat="43.38076" lon="6.11857">
        <ele>299.20001220703</ele>
        <time>2016-05-18T13:08:36Z</time>
      </trkpt>
      <trkpt lat="43.38076" lon="6.1186">
        <ele>299.20001220703</ele>
        <time>2016-05-18T13:08:37Z</time>
      </trkpt>
      <trkpt lat="43.38076" lon="6.11865">
        <ele>299.60000610352</ele>
        <time>2016-05-18T13:08:39Z</time>
      </trkpt>
      <trkpt lat="43.38077" lon="6.11869">
        <ele>300</ele>
        <time>2016-05-18T13:08:41Z</time>
      </trkpt>
      <trkpt lat="43.38078" lon="6.11873">
        <ele>300</ele>
        <time>2016-05-18T13:08:43Z</time>
      </trkpt>
      <trkpt lat="43.38078" lon="6.11878">
        <ele>300.20001220703</ele>
        <time>2016-05-18T13:08:45Z</time>
      </trkpt>
      <trkpt lat="43.38078" lon="6.11884">
        <ele>300.20001220703</ele>
        <time>2016-05-18T13:08:47Z</time>
      </trkpt>
      <trkpt lat="43.38078" lon="6.11886">
        <ele>300.20001220703</ele>
        <time>2016-05-18T13:08:48Z</time>
      </trkpt>
      <trkpt lat="43.38078" lon="6.11888">
        <ele>300.39999389648</ele>
        <time>2016-05-18T13:08:49Z</time>
      </trkpt>
      <trkpt lat="43.38077" lon="6.1189">
        <ele>300.60000610352</ele>
        <time>2016-05-18T13:08:50Z</time>
      </trkpt>
      <trkpt lat="43.38077" lon="6.11892">
        <ele>300.79998779297</ele>
        <time>2016-05-18T13:08:51Z</time>
      </trkpt>
      <trkpt lat="43.38076" lon="6.11896">
        <ele>301.20001220703</ele>
        <time>2016-05-18T13:08:53Z</time>
      </trkpt>
      <trkpt lat="43.38076" lon="6.119">
        <ele>301.39999389648</ele>
        <time>2016-05-18T13:08:54Z</time>
      </trkpt>
      <trkpt lat="43.38076" lon="6.11903">
        <ele>301.39999389648</ele>
        <time>2016-05-18T13:08:55Z</time>
      </trkpt>
      <trkpt lat="43.38075" lon="6.11908">
        <ele>301.79998779297</ele>
        <time>2016-05-18T13:08:57Z</time>
      </trkpt>
      <trkpt lat="43.38074" lon="6.11913">
        <ele>302</ele>
        <time>2016-05-18T13:08:59Z</time>
      </trkpt>
      <trkpt lat="43.38074" lon="6.11916">
        <ele>302.39999389648</ele>
        <time>2016-05-18T13:09:00Z</time>
      </trkpt>
      <trkpt lat="43.38074" lon="6.11919">
        <ele>302.39999389648</ele>
        <time>2016-05-18T13:09:01Z</time>
      </trkpt>
      <trkpt lat="43.38074" lon="6.11923">
        <ele>302.39999389648</ele>
        <time>2016-05-18T13:09:03Z</time>
      </trkpt>
      <trkpt lat="43.38074" lon="6.11928">
        <ele>302.79998779297</ele>
        <time>2016-05-18T13:09:05Z</time>
      </trkpt>
      <trkpt lat="43.38074" lon="6.11932">
        <ele>303.60000610352</ele>
        <time>2016-05-18T13:09:07Z</time>
      </trkpt>
      <trkpt lat="43.38074" lon="6.11935">
        <ele>303.79998779297</ele>
        <time>2016-05-18T13:09:08Z</time>
      </trkpt>
      <trkpt lat="43.38074" lon="6.11938">
        <ele>304</ele>
        <time>2016-05-18T13:09:09Z</time>
      </trkpt>
      <trkpt lat="43.38075" lon="6.11944">
        <ele>304.20001220703</ele>
        <time>2016-05-18T13:09:11Z</time>
      </trkpt>
      <trkpt lat="43.38075" lon="6.11951">
        <ele>304.39999389648</ele>
        <time>2016-05-18T13:09:13Z</time>
      </trkpt>
      <trkpt lat="43.38074" lon="6.11954">
        <ele>304.60000610352</ele>
        <time>2016-05-18T13:09:14Z</time>
      </trkpt>
      <trkpt lat="43.38074" lon="6.11957">
        <ele>304.79998779297</ele>
        <time>2016-05-18T13:09:15Z</time>
      </trkpt>
      <trkpt lat="43.38074" lon="6.11964">
        <ele>305.39999389648</ele>
        <time>2016-05-18T13:09:17Z</time>
      </trkpt>
      <trkpt lat="43.38073" lon="6.11967">
        <ele>305.60000610352</ele>
        <time>2016-05-18T13:09:18Z</time>
      </trkpt>
      <trkpt lat="43.38073" lon="6.11969">
        <ele>305.79998779297</ele>
        <time>2016-05-18T13:09:19Z</time>
      </trkpt>
      <trkpt lat="43.38073" lon="6.11972">
        <ele>305.79998779297</ele>
        <time>2016-05-18T13:09:20Z</time>
      </trkpt>
      <trkpt lat="43.38073" lon="6.11975">
        <ele>306</ele>
        <time>2016-05-18T13:09:21Z</time>
      </trkpt>
      <trkpt lat="43.38073" lon="6.11978">
        <ele>306.60000610352</ele>
        <time>2016-05-18T13:09:23Z</time>
      </trkpt>
      <trkpt lat="43.38072" lon="6.11981">
        <ele>306.79998779297</ele>
        <time>2016-05-18T13:09:24Z</time>
      </trkpt>
      <trkpt lat="43.38072" lon="6.11984">
        <ele>307.20001220703</ele>
        <time>2016-05-18T13:09:25Z</time>
      </trkpt>
      <trkpt lat="43.38071" lon="6.11986">
        <ele>307.39999389648</ele>
        <time>2016-05-18T13:09:26Z</time>
      </trkpt>
      <trkpt lat="43.3807" lon="6.11988">
        <ele>307.79998779297</ele>
        <time>2016-05-18T13:09:27Z</time>
      </trkpt>
      <trkpt lat="43.3807" lon="6.1199">
        <ele>308.20001220703</ele>
        <time>2016-05-18T13:09:28Z</time>
      </trkpt>
      <trkpt lat="43.38069" lon="6.11992">
        <ele>308.39999389648</ele>
        <time>2016-05-18T13:09:29Z</time>
      </trkpt>
      <trkpt lat="43.38069" lon="6.11996">
        <ele>308.79998779297</ele>
        <time>2016-05-18T13:09:31Z</time>
      </trkpt>
      <trkpt lat="43.38069" lon="6.11998">
        <ele>308.79998779297</ele>
        <time>2016-05-18T13:09:32Z</time>
      </trkpt>
      <trkpt lat="43.38069" lon="6.12">
        <ele>309.20001220703</ele>
        <time>2016-05-18T13:09:33Z</time>
      </trkpt>
      <trkpt lat="43.38069" lon="6.12004">
        <ele>309.60000610352</ele>
        <time>2016-05-18T13:09:35Z</time>
      </trkpt>
      <trkpt lat="43.38068" lon="6.1201">
        <ele>309.79998779297</ele>
        <time>2016-05-18T13:09:37Z</time>
      </trkpt>
      <trkpt lat="43.38067" lon="6.12015">
        <ele>310.20001220703</ele>
        <time>2016-05-18T13:09:39Z</time>
      </trkpt>
      <trkpt lat="43.38067" lon="6.12019">
        <ele>310.60000610352</ele>
        <time>2016-05-18T13:09:41Z</time>
      </trkpt>
      <trkpt lat="43.38067" lon="6.12021">
        <ele>310.79998779297</ele>
        <time>2016-05-18T13:09:42Z</time>
      </trkpt>
      <trkpt lat="43.38068" lon="6.12023">
        <ele>311</ele>
        <time>2016-05-18T13:09:43Z</time>
      </trkpt>
      <trkpt lat="43.38068" lon="6.12027">
        <ele>311.39999389648</ele>
        <time>2016-05-18T13:09:45Z</time>
      </trkpt>
      <trkpt lat="43.38068" lon="6.12029">
        <ele>311.60000610352</ele>
        <time>2016-05-18T13:09:46Z</time>
      </trkpt>
      <trkpt lat="43.38069" lon="6.12031">
        <ele>311.79998779297</ele>
        <time>2016-05-18T13:09:47Z</time>
      </trkpt>
      <trkpt lat="43.38069" lon="6.12035">
        <ele>312.20001220703</ele>
        <time>2016-05-18T13:09:49Z</time>
      </trkpt>
      <trkpt lat="43.3807" lon="6.12036">
        <ele>312.39999389648</ele>
        <time>2016-05-18T13:09:50Z</time>
      </trkpt>
      <trkpt lat="43.3807" lon="6.12038">
        <ele>312.60000610352</ele>
        <time>2016-05-18T13:09:51Z</time>
      </trkpt>
      <trkpt lat="43.3807" lon="6.12043">
        <ele>313</ele>
        <time>2016-05-18T13:09:53Z</time>
      </trkpt>
      <trkpt lat="43.3807" lon="6.12048">
        <ele>313.20001220703</ele>
        <time>2016-05-18T13:09:55Z</time>
      </trkpt>
      <trkpt lat="43.3807" lon="6.12054">
        <ele>313.39999389648</ele>
        <time>2016-05-18T13:09:57Z</time>
      </trkpt>
      <trkpt lat="43.3807" lon="6.12057">
        <ele>313.60000610352</ele>
        <time>2016-05-18T13:09:58Z</time>
      </trkpt>
      <trkpt lat="43.38069" lon="6.12059">
        <ele>313.79998779297</ele>
        <time>2016-05-18T13:09:59Z</time>
      </trkpt>
      <trkpt lat="43.38069" lon="6.12064">
        <ele>314</ele>
        <time>2016-05-18T13:10:01Z</time>
      </trkpt>
      <trkpt lat="43.38068" lon="6.12068">
        <ele>314.20001220703</ele>
        <time>2016-05-18T13:10:03Z</time>
      </trkpt>
      <trkpt lat="43.38068" lon="6.12073">
        <ele>314.60000610352</ele>
        <time>2016-05-18T13:10:05Z</time>
      </trkpt>
      <trkpt lat="43.38067" lon="6.12074">
        <ele>314.60000610352</ele>
        <time>2016-05-18T13:10:06Z</time>
      </trkpt>
      <trkpt lat="43.38066" lon="6.12076">
        <ele>314.79998779297</ele>
        <time>2016-05-18T13:10:07Z</time>
      </trkpt>
      <trkpt lat="43.38066" lon="6.1208">
        <ele>314.79998779297</ele>
        <time>2016-05-18T13:10:09Z</time>
      </trkpt>
      <trkpt lat="43.38066" lon="6.12084">
        <ele>314.79998779297</ele>
        <time>2016-05-18T13:10:11Z</time>
      </trkpt>
      <trkpt lat="43.38066" lon="6.12089">
        <ele>315</ele>
        <time>2016-05-18T13:10:13Z</time>
      </trkpt>
      <trkpt lat="43.38066" lon="6.12094">
        <ele>315.20001220703</ele>
        <time>2016-05-18T13:10:15Z</time>
      </trkpt>
      <trkpt lat="43.38065" lon="6.12098">
        <ele>315.39999389648</ele>
        <time>2016-05-18T13:10:17Z</time>
      </trkpt>
      <trkpt lat="43.38064" lon="6.12103">
        <ele>315.39999389648</ele>
        <time>2016-05-18T13:10:19Z</time>
      </trkpt>
      <trkpt lat="43.38062" lon="6.12108">
        <ele>316</ele>
        <time>2016-05-18T13:10:21Z</time>
      </trkpt>
      <trkpt lat="43.38061" lon="6.1211">
        <ele>316</ele>
        <time>2016-05-18T13:10:22Z</time>
      </trkpt>
      <trkpt lat="43.3806" lon="6.12112">
        <ele>316.20001220703</ele>
        <time>2016-05-18T13:10:23Z</time>
      </trkpt>
      <trkpt lat="43.38059" lon="6.12114">
        <ele>316.39999389648</ele>
        <time>2016-05-18T13:10:24Z</time>
      </trkpt>
      <trkpt lat="43.38058" lon="6.12115">
        <ele>316.39999389648</ele>
        <time>2016-05-18T13:10:25Z</time>
      </trkpt>
      <trkpt lat="43.38057" lon="6.12117">
        <ele>316.60000610352</ele>
        <time>2016-05-18T13:10:26Z</time>
      </trkpt>
      <trkpt lat="43.38057" lon="6.12119">
        <ele>316.79998779297</ele>
        <time>2016-05-18T13:10:27Z</time>
      </trkpt>
      <trkpt lat="43.38056" lon="6.12121">
        <ele>317</ele>
        <time>2016-05-18T13:10:28Z</time>
      </trkpt>
      <trkpt lat="43.38055" lon="6.12122">
        <ele>317.20001220703</ele>
        <time>2016-05-18T13:10:29Z</time>
      </trkpt>
      <trkpt lat="43.38054" lon="6.12127">
        <ele>317.39999389648</ele>
        <time>2016-05-18T13:10:31Z</time>
      </trkpt>
      <trkpt lat="43.38054" lon="6.12129">
        <ele>317.79998779297</ele>
        <time>2016-05-18T13:10:32Z</time>
      </trkpt>
      <trkpt lat="43.38053" lon="6.1213">
        <ele>318</ele>
        <time>2016-05-18T13:10:33Z</time>
      </trkpt>
      <trkpt lat="43.38052" lon="6.12134">
        <ele>318</ele>
        <time>2016-05-18T13:10:35Z</time>
      </trkpt>
      <trkpt lat="43.38051" lon="6.12137">
        <ele>318</ele>
        <time>2016-05-18T13:10:36Z</time>
      </trkpt>
      <trkpt lat="43.3805" lon="6.12139">
        <ele>318</ele>
        <time>2016-05-18T13:10:37Z</time>
      </trkpt>
      <trkpt lat="43.38049" lon="6.12143">
        <ele>318.60000610352</ele>
        <time>2016-05-18T13:10:39Z</time>
      </trkpt>
      <trkpt lat="43.38047" lon="6.12147">
        <ele>319</ele>
        <time>2016-05-18T13:10:41Z</time>
      </trkpt>
      <trkpt lat="43.38047" lon="6.12149">
        <ele>319.39999389648</ele>
        <time>2016-05-18T13:10:42Z</time>
      </trkpt>
      <trkpt lat="43.38046" lon="6.12151">
        <ele>319.60000610352</ele>
        <time>2016-05-18T13:10:43Z</time>
      </trkpt>
      <trkpt lat="43.38044" lon="6.12157">
        <ele>320</ele>
        <time>2016-05-18T13:10:45Z</time>
      </trkpt>
      <trkpt lat="43.38044" lon="6.12163">
        <ele>320.20001220703</ele>
        <time>2016-05-18T13:10:47Z</time>
      </trkpt>
      <trkpt lat="43.38044" lon="6.12167">
        <ele>320.20001220703</ele>
        <time>2016-05-18T13:10:48Z</time>
      </trkpt>
      <trkpt lat="43.38043" lon="6.12169">
        <ele>320.39999389648</ele>
        <time>2016-05-18T13:10:49Z</time>
      </trkpt>
      <trkpt lat="43.38043" lon="6.12175">
        <ele>320.79998779297</ele>
        <time>2016-05-18T13:10:51Z</time>
      </trkpt>
      <trkpt lat="43.38043" lon="6.1218">
        <ele>320.79998779297</ele>
        <time>2016-05-18T13:10:53Z</time>
      </trkpt>
      <trkpt lat="43.38044" lon="6.12185">
        <ele>321</ele>
        <time>2016-05-18T13:10:55Z</time>
      </trkpt>
      <trkpt lat="43.38044" lon="6.1219">
        <ele>321.20001220703</ele>
        <time>2016-05-18T13:10:57Z</time>
      </trkpt>
      <trkpt lat="43.38044" lon="6.12193">
        <ele>321.20001220703</ele>
        <time>2016-05-18T13:10:58Z</time>
      </trkpt>
      <trkpt lat="43.38044" lon="6.12196">
        <ele>321.39999389648</ele>
        <time>2016-05-18T13:10:59Z</time>
      </trkpt>
      <trkpt lat="43.38045" lon="6.12202">
        <ele>321.60000610352</ele>
        <time>2016-05-18T13:11:01Z</time>
      </trkpt>
      <trkpt lat="43.38045" lon="6.12208">
        <ele>321.79998779297</ele>
        <time>2016-05-18T13:11:03Z</time>
      </trkpt>
      <trkpt lat="43.38047" lon="6.12214">
        <ele>322</ele>
        <time>2016-05-18T13:11:05Z</time>
      </trkpt>
      <trkpt lat="43.38047" lon="6.12216">
        <ele>322</ele>
        <time>2016-05-18T13:11:06Z</time>
      </trkpt>
      <trkpt lat="43.38047" lon="6.12219">
        <ele>322</ele>
        <time>2016-05-18T13:11:07Z</time>
      </trkpt>
      <trkpt lat="43.38049" lon="6.12226">
        <ele>322.20001220703</ele>
        <time>2016-05-18T13:11:09Z</time>
      </trkpt>
      <trkpt lat="43.3805" lon="6.12232">
        <ele>322.39999389648</ele>
        <time>2016-05-18T13:11:11Z</time>
      </trkpt>
      <trkpt lat="43.38052" lon="6.12237">
        <ele>322.39999389648</ele>
        <time>2016-05-18T13:11:13Z</time>
      </trkpt>
      <trkpt lat="43.38053" lon="6.12244">
        <ele>322.60000610352</ele>
        <time>2016-05-18T13:11:15Z</time>
      </trkpt>
      <trkpt lat="43.38054" lon="6.12252">
        <ele>322.79998779297</ele>
        <time>2016-05-18T13:11:17Z</time>
      </trkpt>
      <trkpt lat="43.38056" lon="6.1226">
        <ele>323</ele>
        <time>2016-05-18T13:11:19Z</time>
      </trkpt>
      <trkpt lat="43.38057" lon="6.12264">
        <ele>323.20001220703</ele>
        <time>2016-05-18T13:11:21Z</time>
      </trkpt>
      <trkpt lat="43.38057" lon="6.12267">
        <ele>323.39999389648</ele>
        <time>2016-05-18T13:11:22Z</time>
      </trkpt>
      <trkpt lat="43.38057" lon="6.12268">
        <ele>323.39999389648</ele>
        <time>2016-05-18T13:11:23Z</time>
      </trkpt>
      <trkpt lat="43.38058" lon="6.1227">
        <ele>323.39999389648</ele>
        <time>2016-05-18T13:11:24Z</time>
      </trkpt>
      <trkpt lat="43.38058" lon="6.12273">
        <ele>323.39999389648</ele>
        <time>2016-05-18T13:11:25Z</time>
      </trkpt>
      <trkpt lat="43.38059" lon="6.12276">
        <ele>323.39999389648</ele>
        <time>2016-05-18T13:11:27Z</time>
      </trkpt>
      <trkpt lat="43.38059" lon="6.12281">
        <ele>324</ele>
        <time>2016-05-18T13:11:29Z</time>
      </trkpt>
      <trkpt lat="43.38059" lon="6.12283">
        <ele>324.60000610352</ele>
        <time>2016-05-18T13:11:30Z</time>
      </trkpt>
      <trkpt lat="43.38059" lon="6.12286">
        <ele>324.79998779297</ele>
        <time>2016-05-18T13:11:31Z</time>
      </trkpt>
      <trkpt lat="43.3806" lon="6.12291">
        <ele>325.39999389648</ele>
        <time>2016-05-18T13:11:33Z</time>
      </trkpt>
      <trkpt lat="43.3806" lon="6.12293">
        <ele>325.79998779297</ele>
        <time>2016-05-18T13:11:34Z</time>
      </trkpt>
      <trkpt lat="43.3806" lon="6.12295">
        <ele>326</ele>
        <time>2016-05-18T13:11:35Z</time>
      </trkpt>
      <trkpt lat="43.3806" lon="6.12298">
        <ele>326.20001220703</ele>
        <time>2016-05-18T13:11:36Z</time>
      </trkpt>
      <trkpt lat="43.3806" lon="6.12301">
        <ele>326.39999389648</ele>
        <time>2016-05-18T13:11:37Z</time>
      </trkpt>
      <trkpt lat="43.3806" lon="6.12307">
        <ele>326.79998779297</ele>
        <time>2016-05-18T13:11:39Z</time>
      </trkpt>
      <trkpt lat="43.3806" lon="6.1231">
        <ele>327</ele>
        <time>2016-05-18T13:11:40Z</time>
      </trkpt>
      <trkpt lat="43.3806" lon="6.12312">
        <ele>327.20001220703</ele>
        <time>2016-05-18T13:11:41Z</time>
      </trkpt>
      <trkpt lat="43.3806" lon="6.12316">
        <ele>327.39999389648</ele>
        <time>2016-05-18T13:11:42Z</time>
      </trkpt>
      <trkpt lat="43.3806" lon="6.12319">
        <ele>327.60000610352</ele>
        <time>2016-05-18T13:11:43Z</time>
      </trkpt>
      <trkpt lat="43.3806" lon="6.12324">
        <ele>328</ele>
        <time>2016-05-18T13:11:45Z</time>
      </trkpt>
      <trkpt lat="43.38061" lon="6.12326">
        <ele>328</ele>
        <time>2016-05-18T13:11:46Z</time>
      </trkpt>
      <trkpt lat="43.38061" lon="6.12328">
        <ele>328.20001220703</ele>
        <time>2016-05-18T13:11:47Z</time>
      </trkpt>
      <trkpt lat="43.3806" lon="6.12334">
        <ele>328.39999389648</ele>
        <time>2016-05-18T13:11:49Z</time>
      </trkpt>
      <trkpt lat="43.3806" lon="6.12339">
        <ele>328.60000610352</ele>
        <time>2016-05-18T13:11:51Z</time>
      </trkpt>
      <trkpt lat="43.3806" lon="6.12345">
        <ele>328.60000610352</ele>
        <time>2016-05-18T13:11:53Z</time>
      </trkpt>
      <trkpt lat="43.3806" lon="6.12351">
        <ele>328.60000610352</ele>
        <time>2016-05-18T13:11:55Z</time>
      </trkpt>
      <trkpt lat="43.38061" lon="6.12356">
        <ele>329</ele>
        <time>2016-05-18T13:11:57Z</time>
      </trkpt>
      <trkpt lat="43.38062" lon="6.12358">
        <ele>329</ele>
        <time>2016-05-18T13:11:58Z</time>
      </trkpt>
      <trkpt lat="43.38061" lon="6.1236">
        <ele>329</ele>
        <time>2016-05-18T13:11:59Z</time>
      </trkpt>
      <trkpt lat="43.38062" lon="6.12364">
        <ele>329</ele>
        <time>2016-05-18T13:12:01Z</time>
      </trkpt>
      <trkpt lat="43.38062" lon="6.12369">
        <ele>329.20001220703</ele>
        <time>2016-05-18T13:12:03Z</time>
      </trkpt>
      <trkpt lat="43.38063" lon="6.12373">
        <ele>329.39999389648</ele>
        <time>2016-05-18T13:12:05Z</time>
      </trkpt>
      <trkpt lat="43.38063" lon="6.12378">
        <ele>329.79998779297</ele>
        <time>2016-05-18T13:12:07Z</time>
      </trkpt>
      <trkpt lat="43.38064" lon="6.12382">
        <ele>330</ele>
        <time>2016-05-18T13:12:09Z</time>
      </trkpt>
      <trkpt lat="43.38065" lon="6.12385">
        <ele>330.20001220703</ele>
        <time>2016-05-18T13:12:10Z</time>
      </trkpt>
      <trkpt lat="43.38065" lon="6.12388">
        <ele>330.60000610352</ele>
        <time>2016-05-18T13:12:11Z</time>
      </trkpt>
      <trkpt lat="43.38065" lon="6.1239">
        <ele>330.79998779297</ele>
        <time>2016-05-18T13:12:12Z</time>
      </trkpt>
      <trkpt lat="43.38066" lon="6.12392">
        <ele>331</ele>
        <time>2016-05-18T13:12:13Z</time>
      </trkpt>
      <trkpt lat="43.38066" lon="6.12397">
        <ele>331.60000610352</ele>
        <time>2016-05-18T13:12:15Z</time>
      </trkpt>
      <trkpt lat="43.38067" lon="6.12399">
        <ele>331.79998779297</ele>
        <time>2016-05-18T13:12:16Z</time>
      </trkpt>
      <trkpt lat="43.38068" lon="6.12403">
        <ele>332</ele>
        <time>2016-05-18T13:12:17Z</time>
      </trkpt>
      <trkpt lat="43.38068" lon="6.12405">
        <ele>332.39999389648</ele>
        <time>2016-05-18T13:12:18Z</time>
      </trkpt>
      <trkpt lat="43.38068" lon="6.12407">
        <ele>332.79998779297</ele>
        <time>2016-05-18T13:12:19Z</time>
      </trkpt>
      <trkpt lat="43.38069" lon="6.12409">
        <ele>333.39999389648</ele>
        <time>2016-05-18T13:12:21Z</time>
      </trkpt>
      <trkpt lat="43.38069" lon="6.12413">
        <ele>334</ele>
        <time>2016-05-18T13:12:23Z</time>
      </trkpt>
      <trkpt lat="43.38069" lon="6.12417">
        <ele>334.39999389648</ele>
        <time>2016-05-18T13:12:25Z</time>
      </trkpt>
      <trkpt lat="43.38069" lon="6.1242">
        <ele>334.79998779297</ele>
        <time>2016-05-18T13:12:27Z</time>
      </trkpt>
      <trkpt lat="43.38069" lon="6.12424">
        <ele>335.20001220703</ele>
        <time>2016-05-18T13:12:29Z</time>
      </trkpt>
      <trkpt lat="43.38069" lon="6.12426">
        <ele>335.39999389648</ele>
        <time>2016-05-18T13:12:30Z</time>
      </trkpt>
      <trkpt lat="43.3807" lon="6.12428">
        <ele>335.39999389648</ele>
        <time>2016-05-18T13:12:31Z</time>
      </trkpt>
      <trkpt lat="43.3807" lon="6.12432">
        <ele>335.79998779297</ele>
        <time>2016-05-18T13:12:33Z</time>
      </trkpt>
      <trkpt lat="43.3807" lon="6.12436">
        <ele>336.20001220703</ele>
        <time>2016-05-18T13:12:35Z</time>
      </trkpt>
      <trkpt lat="43.38071" lon="6.1244">
        <ele>336.60000610352</ele>
        <time>2016-05-18T13:12:37Z</time>
      </trkpt>
      <trkpt lat="43.38071" lon="6.12442">
        <ele>336.60000610352</ele>
        <time>2016-05-18T13:12:38Z</time>
      </trkpt>
      <trkpt lat="43.38071" lon="6.12444">
        <ele>336.79998779297</ele>
        <time>2016-05-18T13:12:39Z</time>
      </trkpt>
      <trkpt lat="43.3807" lon="6.12449">
        <ele>337</ele>
        <time>2016-05-18T13:12:41Z</time>
      </trkpt>
      <trkpt lat="43.3807" lon="6.12452">
        <ele>337</ele>
        <time>2016-05-18T13:12:43Z</time>
      </trkpt>
      <trkpt lat="43.3807" lon="6.12454">
        <ele>337.20001220703</ele>
        <time>2016-05-18T13:12:44Z</time>
      </trkpt>
      <trkpt lat="43.38071" lon="6.12456">
        <ele>337.39999389648</ele>
        <time>2016-05-18T13:12:45Z</time>
      </trkpt>
      <trkpt lat="43.38072" lon="6.12458">
        <ele>337.39999389648</ele>
        <time>2016-05-18T13:12:46Z</time>
      </trkpt>
      <trkpt lat="43.38072" lon="6.12461">
        <ele>337.60000610352</ele>
        <time>2016-05-18T13:12:47Z</time>
      </trkpt>
      <trkpt lat="43.38072" lon="6.12467">
        <ele>337.79998779297</ele>
        <time>2016-05-18T13:12:49Z</time>
      </trkpt>
      <trkpt lat="43.38072" lon="6.1247">
        <ele>338</ele>
        <time>2016-05-18T13:12:50Z</time>
      </trkpt>
      <trkpt lat="43.38072" lon="6.12473">
        <ele>338.20001220703</ele>
        <time>2016-05-18T13:12:51Z</time>
      </trkpt>
      <trkpt lat="43.38072" lon="6.12479">
        <ele>338.20001220703</ele>
        <time>2016-05-18T13:12:53Z</time>
      </trkpt>
      <trkpt lat="43.38073" lon="6.12481">
        <ele>338.39999389648</ele>
        <time>2016-05-18T13:12:54Z</time>
      </trkpt>
      <trkpt lat="43.38073" lon="6.12483">
        <ele>338.39999389648</ele>
        <time>2016-05-18T13:12:55Z</time>
      </trkpt>
      <trkpt lat="43.38073" lon="6.12487">
        <ele>338.79998779297</ele>
        <time>2016-05-18T13:12:57Z</time>
      </trkpt>
      <trkpt lat="43.38074" lon="6.1249">
        <ele>338.79998779297</ele>
        <time>2016-05-18T13:12:58Z</time>
      </trkpt>
      <trkpt lat="43.38074" lon="6.12493">
        <ele>338.79998779297</ele>
        <time>2016-05-18T13:12:59Z</time>
      </trkpt>
      <trkpt lat="43.38075" lon="6.12495">
        <ele>338.79998779297</ele>
        <time>2016-05-18T13:13:00Z</time>
      </trkpt>
      <trkpt lat="43.38076" lon="6.12497">
        <ele>338.79998779297</ele>
        <time>2016-05-18T13:13:01Z</time>
      </trkpt>
      <trkpt lat="43.38076" lon="6.12499">
        <ele>338.79998779297</ele>
        <time>2016-05-18T13:13:02Z</time>
      </trkpt>
      <trkpt lat="43.38076" lon="6.125">
        <ele>339</ele>
        <time>2016-05-18T13:13:03Z</time>
      </trkpt>
      <trkpt lat="43.38077" lon="6.12504">
        <ele>339.39999389648</ele>
        <time>2016-05-18T13:13:05Z</time>
      </trkpt>
      <trkpt lat="43.38076" lon="6.12508">
        <ele>339.60000610352</ele>
        <time>2016-05-18T13:13:07Z</time>
      </trkpt>
      <trkpt lat="43.38076" lon="6.12513">
        <ele>339.79998779297</ele>
        <time>2016-05-18T13:13:09Z</time>
      </trkpt>
      <trkpt lat="43.38076" lon="6.12515">
        <ele>340</ele>
        <time>2016-05-18T13:13:10Z</time>
      </trkpt>
      <trkpt lat="43.38076" lon="6.12518">
        <ele>340</ele>
        <time>2016-05-18T13:13:11Z</time>
      </trkpt>
      <trkpt lat="43.38076" lon="6.1252">
        <ele>340</ele>
        <time>2016-05-18T13:13:12Z</time>
      </trkpt>
      <trkpt lat="43.38075" lon="6.12522">
        <ele>340.39999389648</ele>
        <time>2016-05-18T13:13:13Z</time>
      </trkpt>
      <trkpt lat="43.38074" lon="6.12526">
        <ele>340.60000610352</ele>
        <time>2016-05-18T13:13:15Z</time>
      </trkpt>
      <trkpt lat="43.38073" lon="6.12529">
        <ele>340.60000610352</ele>
        <time>2016-05-18T13:13:16Z</time>
      </trkpt>
      <trkpt lat="43.38073" lon="6.12531">
        <ele>340.60000610352</ele>
        <time>2016-05-18T13:13:17Z</time>
      </trkpt>
      <trkpt lat="43.38072" lon="6.12535">
        <ele>341</ele>
        <time>2016-05-18T13:13:19Z</time>
      </trkpt>
      <trkpt lat="43.38071" lon="6.12539">
        <ele>341.20001220703</ele>
        <time>2016-05-18T13:13:21Z</time>
      </trkpt>
      <trkpt lat="43.38071" lon="6.12541">
        <ele>341.20001220703</ele>
        <time>2016-05-18T13:13:22Z</time>
      </trkpt>
      <trkpt lat="43.38071" lon="6.12544">
        <ele>341.39999389648</ele>
        <time>2016-05-18T13:13:23Z</time>
      </trkpt>
      <trkpt lat="43.3807" lon="6.12548">
        <ele>341.79998779297</ele>
        <time>2016-05-18T13:13:25Z</time>
      </trkpt>
      <trkpt lat="43.3807" lon="6.12553">
        <ele>341.79998779297</ele>
        <time>2016-05-18T13:13:27Z</time>
      </trkpt>
      <trkpt lat="43.38069" lon="6.12558">
        <ele>342</ele>
        <time>2016-05-18T13:13:29Z</time>
      </trkpt>
      <trkpt lat="43.38067" lon="6.12562">
        <ele>342.39999389648</ele>
        <time>2016-05-18T13:13:31Z</time>
      </trkpt>
      <trkpt lat="43.38067" lon="6.12564">
        <ele>342.60000610352</ele>
        <time>2016-05-18T13:13:32Z</time>
      </trkpt>
      <trkpt lat="43.38066" lon="6.12566">
        <ele>343</ele>
        <time>2016-05-18T13:13:33Z</time>
      </trkpt>
      <trkpt lat="43.38066" lon="6.12571">
        <ele>343.20001220703</ele>
        <time>2016-05-18T13:13:35Z</time>
      </trkpt>
      <trkpt lat="43.38066" lon="6.12576">
        <ele>343.79998779297</ele>
        <time>2016-05-18T13:13:37Z</time>
      </trkpt>
      <trkpt lat="43.38066" lon="6.12578">
        <ele>344</ele>
        <time>2016-05-18T13:13:38Z</time>
      </trkpt>
      <trkpt lat="43.38065" lon="6.1258">
        <ele>344.20001220703</ele>
        <time>2016-05-18T13:13:39Z</time>
      </trkpt>
      <trkpt lat="43.38064" lon="6.12582">
        <ele>344.39999389648</ele>
        <time>2016-05-18T13:13:40Z</time>
      </trkpt>
      <trkpt lat="43.38064" lon="6.12584">
        <ele>344.79998779297</ele>
        <time>2016-05-18T13:13:41Z</time>
      </trkpt>
      <trkpt lat="43.38063" lon="6.12589">
        <ele>345</ele>
        <time>2016-05-18T13:13:43Z</time>
      </trkpt>
      <trkpt lat="43.38063" lon="6.12591">
        <ele>345.20001220703</ele>
        <time>2016-05-18T13:13:44Z</time>
      </trkpt>
      <trkpt lat="43.38063" lon="6.12592">
        <ele>345.79998779297</ele>
        <time>2016-05-18T13:13:45Z</time>
      </trkpt>
      <trkpt lat="43.38063" lon="6.12597">
        <ele>346.20001220703</ele>
        <time>2016-05-18T13:13:47Z</time>
      </trkpt>
      <trkpt lat="43.38063" lon="6.12599">
        <ele>346.20001220703</ele>
        <time>2016-05-18T13:13:48Z</time>
      </trkpt>
      <trkpt lat="43.38062" lon="6.12602">
        <ele>346.39999389648</ele>
        <time>2016-05-18T13:13:49Z</time>
      </trkpt>
      <trkpt lat="43.38062" lon="6.12604">
        <ele>346.60000610352</ele>
        <time>2016-05-18T13:13:50Z</time>
      </trkpt>
      <trkpt lat="43.38062" lon="6.12607">
        <ele>346.60000610352</ele>
        <time>2016-05-18T13:13:51Z</time>
      </trkpt>
      <trkpt lat="43.38062" lon="6.12611">
        <ele>346.60000610352</ele>
        <time>2016-05-18T13:13:53Z</time>
      </trkpt>
      <trkpt lat="43.38061" lon="6.12616">
        <ele>346.79998779297</ele>
        <time>2016-05-18T13:13:55Z</time>
      </trkpt>
      <trkpt lat="43.3806" lon="6.12618">
        <ele>346.79998779297</ele>
        <time>2016-05-18T13:13:56Z</time>
      </trkpt>
      <trkpt lat="43.3806" lon="6.12621">
        <ele>347</ele>
        <time>2016-05-18T13:13:57Z</time>
      </trkpt>
      <trkpt lat="43.38058" lon="6.12624">
        <ele>347.20001220703</ele>
        <time>2016-05-18T13:13:59Z</time>
      </trkpt>
      <trkpt lat="43.38057" lon="6.12628">
        <ele>347.60000610352</ele>
        <time>2016-05-18T13:14:01Z</time>
      </trkpt>
      <trkpt lat="43.38057" lon="6.1263">
        <ele>347.79998779297</ele>
        <time>2016-05-18T13:14:02Z</time>
      </trkpt>
      <trkpt lat="43.38056" lon="6.12632">
        <ele>347.79998779297</ele>
        <time>2016-05-18T13:14:03Z</time>
      </trkpt>
      <trkpt lat="43.38055" lon="6.12635">
        <ele>348.20001220703</ele>
        <time>2016-05-18T13:14:05Z</time>
      </trkpt>
      <trkpt lat="43.38054" lon="6.12639">
        <ele>348.60000610352</ele>
        <time>2016-05-18T13:14:07Z</time>
      </trkpt>
      <trkpt lat="43.38053" lon="6.12641">
        <ele>348.60000610352</ele>
        <time>2016-05-18T13:14:08Z</time>
      </trkpt>
      <trkpt lat="43.38052" lon="6.12643">
        <ele>348.79998779297</ele>
        <time>2016-05-18T13:14:09Z</time>
      </trkpt>
      <trkpt lat="43.38052" lon="6.12644">
        <ele>348.79998779297</ele>
        <time>2016-05-18T13:14:10Z</time>
      </trkpt>
      <trkpt lat="43.38051" lon="6.12646">
        <ele>349</ele>
        <time>2016-05-18T13:14:11Z</time>
      </trkpt>
      <trkpt lat="43.38049" lon="6.12652">
        <ele>349.39999389648</ele>
        <time>2016-05-18T13:14:13Z</time>
      </trkpt>
      <trkpt lat="43.38048" lon="6.12657">
        <ele>349.79998779297</ele>
        <time>2016-05-18T13:14:15Z</time>
      </trkpt>
      <trkpt lat="43.38048" lon="6.12659">
        <ele>350</ele>
        <time>2016-05-18T13:14:16Z</time>
      </trkpt>
      <trkpt lat="43.38047" lon="6.12661">
        <ele>350.20001220703</ele>
        <time>2016-05-18T13:14:17Z</time>
      </trkpt>
      <trkpt lat="43.38046" lon="6.12663">
        <ele>350.20001220703</ele>
        <time>2016-05-18T13:14:18Z</time>
      </trkpt>
      <trkpt lat="43.38046" lon="6.12666">
        <ele>350.20001220703</ele>
        <time>2016-05-18T13:14:19Z</time>
      </trkpt>
      <trkpt lat="43.38044" lon="6.12669">
        <ele>350.39999389648</ele>
        <time>2016-05-18T13:14:21Z</time>
      </trkpt>
      <trkpt lat="43.38042" lon="6.12671">
        <ele>350.60000610352</ele>
        <time>2016-05-18T13:14:22Z</time>
      </trkpt>
      <trkpt lat="43.38041" lon="6.12673">
        <ele>350.60000610352</ele>
        <time>2016-05-18T13:14:23Z</time>
      </trkpt>
      <trkpt lat="43.3804" lon="6.12677">
        <ele>351</ele>
        <time>2016-05-18T13:14:25Z</time>
      </trkpt>
      <trkpt lat="43.38039" lon="6.12683">
        <ele>351.20001220703</ele>
        <time>2016-05-18T13:14:27Z</time>
      </trkpt>
      <trkpt lat="43.38039" lon="6.12685">
        <ele>351.39999389648</ele>
        <time>2016-05-18T13:14:28Z</time>
      </trkpt>
      <trkpt lat="43.38038" lon="6.12688">
        <ele>351.60000610352</ele>
        <time>2016-05-18T13:14:29Z</time>
      </trkpt>
      <trkpt lat="43.38036" lon="6.12692">
        <ele>352</ele>
        <time>2016-05-18T13:14:31Z</time>
      </trkpt>
      <trkpt lat="43.38036" lon="6.12694">
        <ele>352.39999389648</ele>
        <time>2016-05-18T13:14:32Z</time>
      </trkpt>
      <trkpt lat="43.38036" lon="6.12697">
        <ele>352.39999389648</ele>
        <time>2016-05-18T13:14:33Z</time>
      </trkpt>
      <trkpt lat="43.38034" lon="6.12701">
        <ele>352.39999389648</ele>
        <time>2016-05-18T13:14:35Z</time>
      </trkpt>
      <trkpt lat="43.38033" lon="6.12705">
        <ele>352.60000610352</ele>
        <time>2016-05-18T13:14:37Z</time>
      </trkpt>
      <trkpt lat="43.38033" lon="6.12706">
        <ele>352.60000610352</ele>
        <time>2016-05-18T13:14:38Z</time>
      </trkpt>
      <trkpt lat="43.38032" lon="6.12708">
        <ele>352.79998779297</ele>
        <time>2016-05-18T13:14:39Z</time>
      </trkpt>
      <trkpt lat="43.38031" lon="6.12713">
        <ele>353</ele>
        <time>2016-05-18T13:14:41Z</time>
      </trkpt>
      <trkpt lat="43.3803" lon="6.12716">
        <ele>353.20001220703</ele>
        <time>2016-05-18T13:14:42Z</time>
      </trkpt>
      <trkpt lat="43.38029" lon="6.12718">
        <ele>353.60000610352</ele>
        <time>2016-05-18T13:14:43Z</time>
      </trkpt>
      <trkpt lat="43.38029" lon="6.12721">
        <ele>353.60000610352</ele>
        <time>2016-05-18T13:14:44Z</time>
      </trkpt>
      <trkpt lat="43.38028" lon="6.12723">
        <ele>353.79998779297</ele>
        <time>2016-05-18T13:14:45Z</time>
      </trkpt>
      <trkpt lat="43.38028" lon="6.12725">
        <ele>353.79998779297</ele>
        <time>2016-05-18T13:14:46Z</time>
      </trkpt>
      <trkpt lat="43.38027" lon="6.12728">
        <ele>354</ele>
        <time>2016-05-18T13:14:47Z</time>
      </trkpt>
      <trkpt lat="43.38026" lon="6.12733">
        <ele>354.20001220703</ele>
        <time>2016-05-18T13:14:49Z</time>
      </trkpt>
      <trkpt lat="43.38025" lon="6.12737">
        <ele>354.20001220703</ele>
        <time>2016-05-18T13:14:51Z</time>
      </trkpt>
      <trkpt lat="43.38024" lon="6.1274">
        <ele>354.39999389648</ele>
        <time>2016-05-18T13:14:53Z</time>
      </trkpt>
      <trkpt lat="43.38023" lon="6.12744">
        <ele>354.60000610352</ele>
        <time>2016-05-18T13:14:55Z</time>
      </trkpt>
      <trkpt lat="43.38023" lon="6.1275">
        <ele>355.20001220703</ele>
        <time>2016-05-18T13:14:57Z</time>
      </trkpt>
      <trkpt lat="43.38023" lon="6.12753">
        <ele>355.39999389648</ele>
        <time>2016-05-18T13:14:58Z</time>
      </trkpt>
      <trkpt lat="43.38022" lon="6.12755">
        <ele>355.60000610352</ele>
        <time>2016-05-18T13:14:59Z</time>
      </trkpt>
      <trkpt lat="43.38021" lon="6.1276">
        <ele>356.20001220703</ele>
        <time>2016-05-18T13:15:01Z</time>
      </trkpt>
      <trkpt lat="43.38019" lon="6.12765">
        <ele>356.39999389648</ele>
        <time>2016-05-18T13:15:03Z</time>
      </trkpt>
      <trkpt lat="43.38018" lon="6.12767">
        <ele>356.39999389648</ele>
        <time>2016-05-18T13:15:04Z</time>
      </trkpt>
      <trkpt lat="43.38017" lon="6.1277">
        <ele>356.60000610352</ele>
        <time>2016-05-18T13:15:05Z</time>
      </trkpt>
      <trkpt lat="43.38014" lon="6.12776">
        <ele>356.79998779297</ele>
        <time>2016-05-18T13:15:07Z</time>
      </trkpt>
      <trkpt lat="43.38012" lon="6.12781">
        <ele>357.20001220703</ele>
        <time>2016-05-18T13:15:09Z</time>
      </trkpt>
      <trkpt lat="43.38012" lon="6.12783">
        <ele>357.20001220703</ele>
        <time>2016-05-18T13:15:10Z</time>
      </trkpt>
      <trkpt lat="43.38011" lon="6.12786">
        <ele>357.39999389648</ele>
        <time>2016-05-18T13:15:11Z</time>
      </trkpt>
      <trkpt lat="43.3801" lon="6.12791">
        <ele>357.79998779297</ele>
        <time>2016-05-18T13:15:13Z</time>
      </trkpt>
      <trkpt lat="43.3801" lon="6.12798">
        <ele>357.79998779297</ele>
        <time>2016-05-18T13:15:15Z</time>
      </trkpt>
      <trkpt lat="43.38009" lon="6.12804">
        <ele>358</ele>
        <time>2016-05-18T13:15:17Z</time>
      </trkpt>
      <trkpt lat="43.38008" lon="6.12807">
        <ele>358</ele>
        <time>2016-05-18T13:15:18Z</time>
      </trkpt>
      <trkpt lat="43.38008" lon="6.12809">
        <ele>358.20001220703</ele>
        <time>2016-05-18T13:15:19Z</time>
      </trkpt>
      <trkpt lat="43.38007" lon="6.12812">
        <ele>358.60000610352</ele>
        <time>2016-05-18T13:15:21Z</time>
      </trkpt>
      <trkpt lat="43.38006" lon="6.12817">
        <ele>359</ele>
        <time>2016-05-18T13:15:23Z</time>
      </trkpt>
      <trkpt lat="43.38005" lon="6.12819">
        <ele>359.20001220703</ele>
        <time>2016-05-18T13:15:24Z</time>
      </trkpt>
      <trkpt lat="43.38005" lon="6.1282">
        <ele>359.20001220703</ele>
        <time>2016-05-18T13:15:25Z</time>
      </trkpt>
      <trkpt lat="43.38004" lon="6.12825">
        <ele>359.39999389648</ele>
        <time>2016-05-18T13:15:27Z</time>
      </trkpt>
      <trkpt lat="43.38002" lon="6.12831">
        <ele>359.60000610352</ele>
        <time>2016-05-18T13:15:29Z</time>
      </trkpt>
      <trkpt lat="43.38002" lon="6.12836">
        <ele>360</ele>
        <time>2016-05-18T13:15:31Z</time>
      </trkpt>
      <trkpt lat="43.38002" lon="6.12838">
        <ele>360</ele>
        <time>2016-05-18T13:15:32Z</time>
      </trkpt>
      <trkpt lat="43.38001" lon="6.1284">
        <ele>360.20001220703</ele>
        <time>2016-05-18T13:15:33Z</time>
      </trkpt>
      <trkpt lat="43.38001" lon="6.12842">
        <ele>360.20001220703</ele>
        <time>2016-05-18T13:15:34Z</time>
      </trkpt>
      <trkpt lat="43.38" lon="6.12844">
        <ele>360.20001220703</ele>
        <time>2016-05-18T13:15:35Z</time>
      </trkpt>
      <trkpt lat="43.37999" lon="6.12849">
        <ele>360.79998779297</ele>
        <time>2016-05-18T13:15:37Z</time>
      </trkpt>
      <trkpt lat="43.37997" lon="6.12853">
        <ele>361</ele>
        <time>2016-05-18T13:15:39Z</time>
      </trkpt>
      <trkpt lat="43.37997" lon="6.12855">
        <ele>361.20001220703</ele>
        <time>2016-05-18T13:15:40Z</time>
      </trkpt>
      <trkpt lat="43.37996" lon="6.12858">
        <ele>361.39999389648</ele>
        <time>2016-05-18T13:15:41Z</time>
      </trkpt>
      <trkpt lat="43.37994" lon="6.12864">
        <ele>362</ele>
        <time>2016-05-18T13:15:43Z</time>
      </trkpt>
      <trkpt lat="43.37993" lon="6.1287">
        <ele>362.39999389648</ele>
        <time>2016-05-18T13:15:45Z</time>
      </trkpt>
      <trkpt lat="43.37992" lon="6.12873">
        <ele>362.39999389648</ele>
        <time>2016-05-18T13:15:46Z</time>
      </trkpt>
      <trkpt lat="43.37991" lon="6.12875">
        <ele>362.60000610352</ele>
        <time>2016-05-18T13:15:47Z</time>
      </trkpt>
      <trkpt lat="43.3799" lon="6.1288">
        <ele>363.20001220703</ele>
        <time>2016-05-18T13:15:49Z</time>
      </trkpt>
      <trkpt lat="43.3799" lon="6.12886">
        <ele>363.39999389648</ele>
        <time>2016-05-18T13:15:51Z</time>
      </trkpt>
      <trkpt lat="43.37989" lon="6.12892">
        <ele>363.60000610352</ele>
        <time>2016-05-18T13:15:53Z</time>
      </trkpt>
      <trkpt lat="43.37989" lon="6.12894">
        <ele>363.79998779297</ele>
        <time>2016-05-18T13:15:54Z</time>
      </trkpt>
      <trkpt lat="43.37989" lon="6.12897">
        <ele>364</ele>
        <time>2016-05-18T13:15:55Z</time>
      </trkpt>
      <trkpt lat="43.37988" lon="6.12902">
        <ele>364.20001220703</ele>
        <time>2016-05-18T13:15:57Z</time>
      </trkpt>
      <trkpt lat="43.37988" lon="6.12906">
        <ele>364.20001220703</ele>
        <time>2016-05-18T13:15:59Z</time>
      </trkpt>
      <trkpt lat="43.37987" lon="6.12909">
        <ele>364.39999389648</ele>
        <time>2016-05-18T13:16:00Z</time>
      </trkpt>
      <trkpt lat="43.37987" lon="6.12911">
        <ele>364.39999389648</ele>
        <time>2016-05-18T13:16:01Z</time>
      </trkpt>
      <trkpt lat="43.37987" lon="6.12912">
        <ele>364.60000610352</ele>
        <time>2016-05-18T13:16:02Z</time>
      </trkpt>
      <trkpt lat="43.37986" lon="6.12914">
        <ele>364.79998779297</ele>
        <time>2016-05-18T13:16:03Z</time>
      </trkpt>
      <trkpt lat="43.37986" lon="6.12917">
        <ele>365</ele>
        <time>2016-05-18T13:16:05Z</time>
      </trkpt>
      <trkpt lat="43.37984" lon="6.1292">
        <ele>365</ele>
        <time>2016-05-18T13:16:07Z</time>
      </trkpt>
      <trkpt lat="43.37983" lon="6.12922">
        <ele>365.20001220703</ele>
        <time>2016-05-18T13:16:08Z</time>
      </trkpt>
      <trkpt lat="43.37983" lon="6.12923">
        <ele>365.39999389648</ele>
        <time>2016-05-18T13:16:09Z</time>
      </trkpt>
      <trkpt lat="43.3798" lon="6.12927">
        <ele>365.79998779297</ele>
        <time>2016-05-18T13:16:11Z</time>
      </trkpt>
      <trkpt lat="43.37978" lon="6.1293">
        <ele>366.20001220703</ele>
        <time>2016-05-18T13:16:13Z</time>
      </trkpt>
      <trkpt lat="43.37978" lon="6.12931">
        <ele>366.20001220703</ele>
        <time>2016-05-18T13:16:14Z</time>
      </trkpt>
      <trkpt lat="43.37977" lon="6.12933">
        <ele>366.39999389648</ele>
        <time>2016-05-18T13:16:15Z</time>
      </trkpt>
      <trkpt lat="43.37975" lon="6.12937">
        <ele>366.60000610352</ele>
        <time>2016-05-18T13:16:17Z</time>
      </trkpt>
      <trkpt lat="43.37975" lon="6.12939">
        <ele>366.79998779297</ele>
        <time>2016-05-18T13:16:18Z</time>
      </trkpt>
      <trkpt lat="43.37974" lon="6.1294">
        <ele>367</ele>
        <time>2016-05-18T13:16:19Z</time>
      </trkpt>
      <trkpt lat="43.37973" lon="6.12941">
        <ele>367.39999389648</ele>
        <time>2016-05-18T13:16:20Z</time>
      </trkpt>
      <trkpt lat="43.37972" lon="6.12942">
        <ele>367.39999389648</ele>
        <time>2016-05-18T13:16:21Z</time>
      </trkpt>
      <trkpt lat="43.37972" lon="6.12944">
        <ele>367.39999389648</ele>
        <time>2016-05-18T13:16:22Z</time>
      </trkpt>
      <trkpt lat="43.37971" lon="6.12946">
        <ele>367.60000610352</ele>
        <time>2016-05-18T13:16:23Z</time>
      </trkpt>
      <trkpt lat="43.3797" lon="6.12949">
        <ele>367.79998779297</ele>
        <time>2016-05-18T13:16:25Z</time>
      </trkpt>
      <trkpt lat="43.3797" lon="6.12951">
        <ele>367.79998779297</ele>
        <time>2016-05-18T13:16:26Z</time>
      </trkpt>
      <trkpt lat="43.3797" lon="6.12954">
        <ele>367.79998779297</ele>
        <time>2016-05-18T13:16:27Z</time>
      </trkpt>
      <trkpt lat="43.37969" lon="6.12961">
        <ele>368</ele>
        <time>2016-05-18T13:16:29Z</time>
      </trkpt>
      <trkpt lat="43.37968" lon="6.12967">
        <ele>368.39999389648</ele>
        <time>2016-05-18T13:16:31Z</time>
      </trkpt>
      <trkpt lat="43.37968" lon="6.1297">
        <ele>368.60000610352</ele>
        <time>2016-05-18T13:16:32Z</time>
      </trkpt>
      <trkpt lat="43.37967" lon="6.12972">
        <ele>368.79998779297</ele>
        <time>2016-05-18T13:16:33Z</time>
      </trkpt>
      <trkpt lat="43.37966" lon="6.12974">
        <ele>369</ele>
        <time>2016-05-18T13:16:34Z</time>
      </trkpt>
      <trkpt lat="43.37965" lon="6.12975">
        <ele>369</ele>
        <time>2016-05-18T13:16:35Z</time>
      </trkpt>
      <trkpt lat="43.37963" lon="6.12979">
        <ele>369.20001220703</ele>
        <time>2016-05-18T13:16:37Z</time>
      </trkpt>
      <trkpt lat="43.3796" lon="6.12983">
        <ele>369.39999389648</ele>
        <time>2016-05-18T13:16:39Z</time>
      </trkpt>
      <trkpt lat="43.37959" lon="6.12987">
        <ele>370</ele>
        <time>2016-05-18T13:16:41Z</time>
      </trkpt>
      <trkpt lat="43.37959" lon="6.12988">
        <ele>370</ele>
        <time>2016-05-18T13:16:42Z</time>
      </trkpt>
      <trkpt lat="43.37958" lon="6.1299">
        <ele>370.20001220703</ele>
        <time>2016-05-18T13:16:43Z</time>
      </trkpt>
      <trkpt lat="43.37957" lon="6.12991">
        <ele>370.20001220703</ele>
        <time>2016-05-18T13:16:44Z</time>
      </trkpt>
      <trkpt lat="43.37957" lon="6.12992">
        <ele>370.20001220703</ele>
        <time>2016-05-18T13:16:45Z</time>
      </trkpt>
      <trkpt lat="43.37955" lon="6.12997">
        <ele>370.20001220703</ele>
        <time>2016-05-18T13:16:47Z</time>
      </trkpt>
      <trkpt lat="43.37955" lon="6.13">
        <ele>370.39999389648</ele>
        <time>2016-05-18T13:16:49Z</time>
      </trkpt>
      <trkpt lat="43.37953" lon="6.13005">
        <ele>370.60000610352</ele>
        <time>2016-05-18T13:16:51Z</time>
      </trkpt>
      <trkpt lat="43.37952" lon="6.13009">
        <ele>371.20001220703</ele>
        <time>2016-05-18T13:16:53Z</time>
      </trkpt>
      <trkpt lat="43.37951" lon="6.13011">
        <ele>371.39999389648</ele>
        <time>2016-05-18T13:16:54Z</time>
      </trkpt>
      <trkpt lat="43.37949" lon="6.13013">
        <ele>371.60000610352</ele>
        <time>2016-05-18T13:16:55Z</time>
      </trkpt>
      <trkpt lat="43.37947" lon="6.13017">
        <ele>372</ele>
        <time>2016-05-18T13:16:57Z</time>
      </trkpt>
      <trkpt lat="43.37944" lon="6.13021">
        <ele>372.20001220703</ele>
        <time>2016-05-18T13:16:59Z</time>
      </trkpt>
      <trkpt lat="43.37941" lon="6.13024">
        <ele>372.39999389648</ele>
        <time>2016-05-18T13:17:01Z</time>
      </trkpt>
      <trkpt lat="43.37939" lon="6.13028">
        <ele>372.39999389648</ele>
        <time>2016-05-18T13:17:03Z</time>
      </trkpt>
      <trkpt lat="43.37937" lon="6.13031">
        <ele>372.39999389648</ele>
        <time>2016-05-18T13:17:05Z</time>
      </trkpt>
      <trkpt lat="43.37936" lon="6.13034">
        <ele>372.60000610352</ele>
        <time>2016-05-18T13:17:06Z</time>
      </trkpt>
      <trkpt lat="43.37935" lon="6.13035">
        <ele>372.60000610352</ele>
        <time>2016-05-18T13:17:07Z</time>
      </trkpt>
      <trkpt lat="43.37933" lon="6.13041">
        <ele>373.20001220703</ele>
        <time>2016-05-18T13:17:09Z</time>
      </trkpt>
      <trkpt lat="43.37932" lon="6.13044">
        <ele>373.20001220703</ele>
        <time>2016-05-18T13:17:11Z</time>
      </trkpt>
      <trkpt lat="43.3793" lon="6.13049">
        <ele>373.39999389648</ele>
        <time>2016-05-18T13:17:13Z</time>
      </trkpt>
      <trkpt lat="43.3793" lon="6.1305">
        <ele>373.39999389648</ele>
        <time>2016-05-18T13:17:14Z</time>
      </trkpt>
      <trkpt lat="43.37929" lon="6.13053">
        <ele>373.60000610352</ele>
        <time>2016-05-18T13:17:15Z</time>
      </trkpt>
      <trkpt lat="43.37927" lon="6.13056">
        <ele>373.79998779297</ele>
        <time>2016-05-18T13:17:17Z</time>
      </trkpt>
      <trkpt lat="43.37926" lon="6.13059">
        <ele>374.20001220703</ele>
        <time>2016-05-18T13:17:18Z</time>
      </trkpt>
      <trkpt lat="43.37925" lon="6.13062">
        <ele>374.20001220703</ele>
        <time>2016-05-18T13:17:19Z</time>
      </trkpt>
      <trkpt lat="43.37925" lon="6.1307">
        <ele>374.60000610352</ele>
        <time>2016-05-18T13:17:21Z</time>
      </trkpt>
      <trkpt lat="43.37925" lon="6.13077">
        <ele>374.79998779297</ele>
        <time>2016-05-18T13:17:23Z</time>
      </trkpt>
      <trkpt lat="43.37925" lon="6.13084">
        <ele>375.39999389648</ele>
        <time>2016-05-18T13:17:25Z</time>
      </trkpt>
      <trkpt lat="43.37924" lon="6.13087">
        <ele>375.39999389648</ele>
        <time>2016-05-18T13:17:26Z</time>
      </trkpt>
      <trkpt lat="43.37924" lon="6.1309">
        <ele>375.39999389648</ele>
        <time>2016-05-18T13:17:27Z</time>
      </trkpt>
      <trkpt lat="43.37923" lon="6.13095">
        <ele>375.79998779297</ele>
        <time>2016-05-18T13:17:29Z</time>
      </trkpt>
      <trkpt lat="43.37921" lon="6.131">
        <ele>375.79998779297</ele>
        <time>2016-05-18T13:17:31Z</time>
      </trkpt>
      <trkpt lat="43.3792" lon="6.13105">
        <ele>375.79998779297</ele>
        <time>2016-05-18T13:17:33Z</time>
      </trkpt>
      <trkpt lat="43.3792" lon="6.13108">
        <ele>375.79998779297</ele>
        <time>2016-05-18T13:17:34Z</time>
      </trkpt>
      <trkpt lat="43.3792" lon="6.13111">
        <ele>376.20001220703</ele>
        <time>2016-05-18T13:17:35Z</time>
      </trkpt>
      <trkpt lat="43.37919" lon="6.13116">
        <ele>376.60000610352</ele>
        <time>2016-05-18T13:17:37Z</time>
      </trkpt>
      <trkpt lat="43.37919" lon="6.13118">
        <ele>376.79998779297</ele>
        <time>2016-05-18T13:17:38Z</time>
      </trkpt>
      <trkpt lat="43.37918" lon="6.13121">
        <ele>376.79998779297</ele>
        <time>2016-05-18T13:17:39Z</time>
      </trkpt>
      <trkpt lat="43.37917" lon="6.13125">
        <ele>377</ele>
        <time>2016-05-18T13:17:41Z</time>
      </trkpt>
      <trkpt lat="43.37917" lon="6.13127">
        <ele>377.20001220703</ele>
        <time>2016-05-18T13:17:42Z</time>
      </trkpt>
      <trkpt lat="43.37917" lon="6.13129">
        <ele>377.39999389648</ele>
        <time>2016-05-18T13:17:43Z</time>
      </trkpt>
      <trkpt lat="43.37917" lon="6.13132">
        <ele>377.60000610352</ele>
        <time>2016-05-18T13:17:44Z</time>
      </trkpt>
      <trkpt lat="43.37916" lon="6.13134">
        <ele>377.79998779297</ele>
        <time>2016-05-18T13:17:45Z</time>
      </trkpt>
      <trkpt lat="43.37916" lon="6.13137">
        <ele>378</ele>
        <time>2016-05-18T13:17:46Z</time>
      </trkpt>
      <trkpt lat="43.37915" lon="6.13139">
        <ele>378</ele>
        <time>2016-05-18T13:17:47Z</time>
      </trkpt>
      <trkpt lat="43.37915" lon="6.13142">
        <ele>378</ele>
        <time>2016-05-18T13:17:48Z</time>
      </trkpt>
      <trkpt lat="43.37915" lon="6.13145">
        <ele>378.20001220703</ele>
        <time>2016-05-18T13:17:49Z</time>
      </trkpt>
      <trkpt lat="43.37914" lon="6.13147">
        <ele>378.20001220703</ele>
        <time>2016-05-18T13:17:50Z</time>
      </trkpt>
      <trkpt lat="43.37914" lon="6.13151">
        <ele>378.39999389648</ele>
        <time>2016-05-18T13:17:51Z</time>
      </trkpt>
      <trkpt lat="43.37913" lon="6.13154">
        <ele>378.39999389648</ele>
        <time>2016-05-18T13:17:53Z</time>
      </trkpt>
      <trkpt lat="43.37911" lon="6.13157">
        <ele>378.60000610352</ele>
        <time>2016-05-18T13:17:55Z</time>
      </trkpt>
      <trkpt lat="43.37911" lon="6.13162">
        <ele>379</ele>
        <time>2016-05-18T13:17:57Z</time>
      </trkpt>
      <trkpt lat="43.3791" lon="6.13167">
        <ele>379.20001220703</ele>
        <time>2016-05-18T13:17:59Z</time>
      </trkpt>
      <trkpt lat="43.3791" lon="6.13172">
        <ele>379.39999389648</ele>
        <time>2016-05-18T13:18:01Z</time>
      </trkpt>
      <trkpt lat="43.37909" lon="6.13178">
        <ele>379.60000610352</ele>
        <time>2016-05-18T13:18:03Z</time>
      </trkpt>
      <trkpt lat="43.37907" lon="6.13183">
        <ele>379.79998779297</ele>
        <time>2016-05-18T13:18:05Z</time>
      </trkpt>
      <trkpt lat="43.37907" lon="6.13189">
        <ele>380.39999389648</ele>
        <time>2016-05-18T13:18:07Z</time>
      </trkpt>
      <trkpt lat="43.37907" lon="6.13192">
        <ele>380.60000610352</ele>
        <time>2016-05-18T13:18:08Z</time>
      </trkpt>
      <trkpt lat="43.37907" lon="6.13193">
        <ele>380.60000610352</ele>
        <time>2016-05-18T13:18:09Z</time>
      </trkpt>
      <trkpt lat="43.37907" lon="6.13199">
        <ele>381</ele>
        <time>2016-05-18T13:18:11Z</time>
      </trkpt>
      <trkpt lat="43.37907" lon="6.13204">
        <ele>381.39999389648</ele>
        <time>2016-05-18T13:18:13Z</time>
      </trkpt>
      <trkpt lat="43.37907" lon="6.13207">
        <ele>381.60000610352</ele>
        <time>2016-05-18T13:18:14Z</time>
      </trkpt>
      <trkpt lat="43.37907" lon="6.13209">
        <ele>381.79998779297</ele>
        <time>2016-05-18T13:18:15Z</time>
      </trkpt>
      <trkpt lat="43.37906" lon="6.13213">
        <ele>382.20001220703</ele>
        <time>2016-05-18T13:18:17Z</time>
      </trkpt>
      <trkpt lat="43.37904" lon="6.13216">
        <ele>382.39999389648</ele>
        <time>2016-05-18T13:18:19Z</time>
      </trkpt>
      <trkpt lat="43.37903" lon="6.13217">
        <ele>382.60000610352</ele>
        <time>2016-05-18T13:18:20Z</time>
      </trkpt>
      <trkpt lat="43.37902" lon="6.13219">
        <ele>382.79998779297</ele>
        <time>2016-05-18T13:18:21Z</time>
      </trkpt>
      <trkpt lat="43.379" lon="6.13223">
        <ele>382.79998779297</ele>
        <time>2016-05-18T13:18:23Z</time>
      </trkpt>
      <trkpt lat="43.37899" lon="6.13227">
        <ele>383.20001220703</ele>
        <time>2016-05-18T13:18:25Z</time>
      </trkpt>
      <trkpt lat="43.37897" lon="6.13228">
        <ele>383.39999389648</ele>
        <time>2016-05-18T13:18:26Z</time>
      </trkpt>
      <trkpt lat="43.37897" lon="6.13229">
        <ele>383.39999389648</ele>
        <time>2016-05-18T13:18:27Z</time>
      </trkpt>
      <trkpt lat="43.37896" lon="6.13233">
        <ele>384</ele>
        <time>2016-05-18T13:18:29Z</time>
      </trkpt>
      <trkpt lat="43.37895" lon="6.13239">
        <ele>384.60000610352</ele>
        <time>2016-05-18T13:18:31Z</time>
      </trkpt>
      <trkpt lat="43.37895" lon="6.13243">
        <ele>385</ele>
        <time>2016-05-18T13:18:33Z</time>
      </trkpt>
      <trkpt lat="43.37896" lon="6.13246">
        <ele>385.39999389648</ele>
        <time>2016-05-18T13:18:35Z</time>
      </trkpt>
      <trkpt lat="43.37896" lon="6.13252">
        <ele>385.60000610352</ele>
        <time>2016-05-18T13:18:37Z</time>
      </trkpt>
      <trkpt lat="43.37896" lon="6.13258">
        <ele>386</ele>
        <time>2016-05-18T13:18:39Z</time>
      </trkpt>
      <trkpt lat="43.37896" lon="6.13263">
        <ele>386.60000610352</ele>
        <time>2016-05-18T13:18:41Z</time>
      </trkpt>
      <trkpt lat="43.37896" lon="6.13268">
        <ele>386.79998779297</ele>
        <time>2016-05-18T13:18:43Z</time>
      </trkpt>
      <trkpt lat="43.37896" lon="6.13273">
        <ele>387.20001220703</ele>
        <time>2016-05-18T13:18:45Z</time>
      </trkpt>
      <trkpt lat="43.37896" lon="6.13277">
        <ele>387.79998779297</ele>
        <time>2016-05-18T13:18:47Z</time>
      </trkpt>
      <trkpt lat="43.37895" lon="6.13279">
        <ele>387.79998779297</ele>
        <time>2016-05-18T13:18:48Z</time>
      </trkpt>
      <trkpt lat="43.37895" lon="6.13281">
        <ele>388</ele>
        <time>2016-05-18T13:18:49Z</time>
      </trkpt>
      <trkpt lat="43.37895" lon="6.13284">
        <ele>388.39999389648</ele>
        <time>2016-05-18T13:18:51Z</time>
      </trkpt>
      <trkpt lat="43.37894" lon="6.13288">
        <ele>388.79998779297</ele>
        <time>2016-05-18T13:18:53Z</time>
      </trkpt>
      <trkpt lat="43.37893" lon="6.13289">
        <ele>389</ele>
        <time>2016-05-18T13:18:54Z</time>
      </trkpt>
      <trkpt lat="43.37893" lon="6.13291">
        <ele>389.20001220703</ele>
        <time>2016-05-18T13:18:55Z</time>
      </trkpt>
      <trkpt lat="43.37891" lon="6.13295">
        <ele>389.39999389648</ele>
        <time>2016-05-18T13:18:57Z</time>
      </trkpt>
      <trkpt lat="43.3789" lon="6.13299">
        <ele>389.60000610352</ele>
        <time>2016-05-18T13:18:59Z</time>
      </trkpt>
      <trkpt lat="43.37888" lon="6.13303">
        <ele>390</ele>
        <time>2016-05-18T13:19:01Z</time>
      </trkpt>
      <trkpt lat="43.37888" lon="6.13305">
        <ele>390.39999389648</ele>
        <time>2016-05-18T13:19:02Z</time>
      </trkpt>
      <trkpt lat="43.37887" lon="6.13308">
        <ele>390.60000610352</ele>
        <time>2016-05-18T13:19:03Z</time>
      </trkpt>
      <trkpt lat="43.37886" lon="6.13313">
        <ele>391.20001220703</ele>
        <time>2016-05-18T13:19:05Z</time>
      </trkpt>
      <trkpt lat="43.37885" lon="6.13316">
        <ele>391.60000610352</ele>
        <time>2016-05-18T13:19:06Z</time>
      </trkpt>
      <trkpt lat="43.37885" lon="6.13319">
        <ele>391.79998779297</ele>
        <time>2016-05-18T13:19:07Z</time>
      </trkpt>
      <trkpt lat="43.37884" lon="6.13323">
        <ele>392.20001220703</ele>
        <time>2016-05-18T13:19:09Z</time>
      </trkpt>
      <trkpt lat="43.37883" lon="6.13326">
        <ele>392.39999389648</ele>
        <time>2016-05-18T13:19:10Z</time>
      </trkpt>
      <trkpt lat="43.37883" lon="6.13329">
        <ele>392.79998779297</ele>
        <time>2016-05-18T13:19:11Z</time>
      </trkpt>
      <trkpt lat="43.3788" lon="6.13334">
        <ele>392.79998779297</ele>
        <time>2016-05-18T13:19:12Z</time>
      </trkpt>
      <trkpt lat="43.3788" lon="6.13337">
        <ele>393</ele>
        <time>2016-05-18T13:19:13Z</time>
      </trkpt>
      <trkpt lat="43.3788" lon="6.13339">
        <ele>393</ele>
        <time>2016-05-18T13:19:14Z</time>
      </trkpt>
      <trkpt lat="43.3788" lon="6.13341">
        <ele>393</ele>
        <time>2016-05-18T13:19:15Z</time>
      </trkpt>
      <trkpt lat="43.3788" lon="6.13342">
        <ele>393.20001220703</ele>
        <time>2016-05-18T13:19:16Z</time>
      </trkpt>
      <trkpt lat="43.37879" lon="6.13341">
        <ele>393.20001220703</ele>
        <time>2016-05-18T13:19:17Z</time>
      </trkpt>
      <trkpt lat="43.37879" lon="6.13342">
        <ele>393.60000610352</ele>
        <time>2016-05-18T13:19:19Z</time>
      </trkpt>
      <trkpt lat="43.37879" lon="6.13342">
        <ele>393.79998779297</ele>
        <time>2016-05-18T13:19:21Z</time>
      </trkpt>
      <trkpt lat="43.37878" lon="6.13342">
        <ele>393.79998779297</ele>
        <time>2016-05-18T13:19:23Z</time>
      </trkpt>
      <trkpt lat="43.37878" lon="6.13342">
        <ele>393.60000610352</ele>
        <time>2016-05-18T13:19:25Z</time>
      </trkpt>
      <trkpt lat="43.37878" lon="6.13342">
        <ele>393.60000610352</ele>
        <time>2016-05-18T13:19:27Z</time>
      </trkpt>
      <trkpt lat="43.37878" lon="6.13342">
        <ele>393.60000610352</ele>
        <time>2016-05-18T13:19:29Z</time>
      </trkpt>
      <trkpt lat="43.37878" lon="6.13342">
        <ele>393.60000610352</ele>
        <time>2016-05-18T13:19:31Z</time>
      </trkpt>
      <trkpt lat="43.37878" lon="6.13342">
        <ele>393.60000610352</ele>
        <time>2016-05-18T13:19:33Z</time>
      </trkpt>
      <trkpt lat="43.37878" lon="6.13342">
        <ele>393.60000610352</ele>
        <time>2016-05-18T13:19:35Z</time>
      </trkpt>
      <trkpt lat="43.37878" lon="6.13342">
        <ele>393.39999389648</ele>
        <time>2016-05-18T13:19:37Z</time>
      </trkpt>
      <trkpt lat="43.37878" lon="6.13342">
        <ele>393.39999389648</ele>
        <time>2016-05-18T13:19:39Z</time>
      </trkpt>
      <trkpt lat="43.37878" lon="6.13342">
        <ele>393.60000610352</ele>
        <time>2016-05-18T13:19:41Z</time>
      </trkpt>
      <trkpt lat="43.37878" lon="6.13342">
        <ele>393.60000610352</ele>
        <time>2016-05-18T13:19:43Z</time>
      </trkpt>
      <trkpt lat="43.37878" lon="6.13342">
        <ele>393.60000610352</ele>
        <time>2016-05-18T13:19:45Z</time>
      </trkpt>
      <trkpt lat="43.37878" lon="6.13342">
        <ele>393.60000610352</ele>
        <time>2016-05-18T13:19:47Z</time>
      </trkpt>
      <trkpt lat="43.37878" lon="6.13342">
        <ele>393.60000610352</ele>
        <time>2016-05-18T13:19:49Z</time>
      </trkpt>
      <trkpt lat="43.37878" lon="6.13342">
        <ele>393.39999389648</ele>
        <time>2016-05-18T13:19:51Z</time>
      </trkpt>
      <trkpt lat="43.37878" lon="6.13342">
        <ele>393.79998779297</ele>
        <time>2016-05-18T13:19:53Z</time>
      </trkpt>
      <trkpt lat="43.37878" lon="6.13342">
        <ele>393.60000610352</ele>
        <time>2016-05-18T13:19:55Z</time>
      </trkpt>
      <trkpt lat="43.37878" lon="6.13342">
        <ele>393.79998779297</ele>
        <time>2016-05-18T13:19:57Z</time>
      </trkpt>
      <trkpt lat="43.37878" lon="6.13342">
        <ele>393.60000610352</ele>
        <time>2016-05-18T13:19:59Z</time>
      </trkpt>
      <trkpt lat="43.37878" lon="6.13342">
        <ele>393.79998779297</ele>
        <time>2016-05-18T13:20:01Z</time>
      </trkpt>
      <trkpt lat="43.37878" lon="6.13342">
        <ele>393.79998779297</ele>
        <time>2016-05-18T13:20:03Z</time>
      </trkpt>
      <trkpt lat="43.37878" lon="6.13342">
        <ele>394</ele>
        <time>2016-05-18T13:20:05Z</time>
      </trkpt>
      <trkpt lat="43.37878" lon="6.13342">
        <ele>394</ele>
        <time>2016-05-18T13:20:07Z</time>
      </trkpt>
      <trkpt lat="43.37878" lon="6.13342">
        <ele>394</ele>
        <time>2016-05-18T13:20:09Z</time>
      </trkpt>
      <trkpt lat="43.37878" lon="6.13342">
        <ele>394</ele>
        <time>2016-05-18T13:20:11Z</time>
      </trkpt>
      <trkpt lat="43.37878" lon="6.13342">
        <ele>394</ele>
        <time>2016-05-18T13:20:13Z</time>
      </trkpt>
      <trkpt lat="43.37878" lon="6.13342">
        <ele>394</ele>
        <time>2016-05-18T13:20:15Z</time>
      </trkpt>
      <trkpt lat="43.37878" lon="6.13342">
        <ele>394</ele>
        <time>2016-05-18T13:20:17Z</time>
      </trkpt>
      <trkpt lat="43.37878" lon="6.13342">
        <ele>394</ele>
        <time>2016-05-18T13:20:19Z</time>
      </trkpt>
      <trkpt lat="43.37878" lon="6.13342">
        <ele>394</ele>
        <time>2016-05-18T13:20:21Z</time>
      </trkpt>
      <trkpt lat="43.37878" lon="6.13342">
        <ele>394</ele>
        <time>2016-05-18T13:20:23Z</time>
      </trkpt>
      <trkpt lat="43.37878" lon="6.13342">
        <ele>394</ele>
        <time>2016-05-18T13:20:24Z</time>
      </trkpt>
      <trkpt lat="43.37878" lon="6.13342">
        <ele>393.79998779297</ele>
        <time>2016-05-18T13:20:25Z</time>
      </trkpt>
      <trkpt lat="43.37878" lon="6.13342">
        <ele>393.79998779297</ele>
        <time>2016-05-18T13:20:27Z</time>
      </trkpt>
      <trkpt lat="43.37878" lon="6.13342">
        <ele>393.79998779297</ele>
        <time>2016-05-18T13:20:29Z</time>
      </trkpt>
      <trkpt lat="43.37878" lon="6.13342">
        <ele>393.60000610352</ele>
        <time>2016-05-18T13:20:31Z</time>
      </trkpt>
      <trkpt lat="43.37878" lon="6.13342">
        <ele>393.60000610352</ele>
        <time>2016-05-18T13:20:33Z</time>
      </trkpt>
      <trkpt lat="43.37878" lon="6.13342">
        <ele>393.20001220703</ele>
        <time>2016-05-18T13:20:35Z</time>
      </trkpt>
      <trkpt lat="43.37878" lon="6.13342">
        <ele>393.20001220703</ele>
        <time>2016-05-18T13:20:37Z</time>
      </trkpt>
      <trkpt lat="43.37878" lon="6.13342">
        <ele>393</ele>
        <time>2016-05-18T13:20:39Z</time>
      </trkpt>
      <trkpt lat="43.37878" lon="6.13342">
        <ele>393.20001220703</ele>
        <time>2016-05-18T13:20:41Z</time>
      </trkpt>
      <trkpt lat="43.37877" lon="6.13342">
        <ele>393.60000610352</ele>
        <time>2016-05-18T13:20:43Z</time>
      </trkpt>
      <trkpt lat="43.37877" lon="6.13342">
        <ele>393.79998779297</ele>
        <time>2016-05-18T13:20:45Z</time>
      </trkpt>
      <trkpt lat="43.37877" lon="6.13342">
        <ele>393.79998779297</ele>
        <time>2016-05-18T13:20:46Z</time>
      </trkpt>
      <trkpt lat="43.37877" lon="6.13342">
        <ele>393.79998779297</ele>
        <time>2016-05-18T13:20:47Z</time>
      </trkpt>
      <trkpt lat="43.37877" lon="6.13342">
        <ele>393.79998779297</ele>
        <time>2016-05-18T13:20:49Z</time>
      </trkpt>
      <trkpt lat="43.37877" lon="6.13342">
        <ele>393.79998779297</ele>
        <time>2016-05-18T13:20:51Z</time>
      </trkpt>
      <trkpt lat="43.37877" lon="6.13342">
        <ele>393.79998779297</ele>
        <time>2016-05-18T13:20:53Z</time>
      </trkpt>
      <trkpt lat="43.37877" lon="6.13342">
        <ele>393.60000610352</ele>
        <time>2016-05-18T13:20:55Z</time>
      </trkpt>
      <trkpt lat="43.37877" lon="6.13342">
        <ele>393.60000610352</ele>
        <time>2016-05-18T13:20:57Z</time>
      </trkpt>
      <trkpt lat="43.37877" lon="6.13342">
        <ele>393.79998779297</ele>
        <time>2016-05-18T13:20:59Z</time>
      </trkpt>
      <trkpt lat="43.37877" lon="6.13342">
        <ele>393.79998779297</ele>
        <time>2016-05-18T13:21:01Z</time>
      </trkpt>
      <trkpt lat="43.37877" lon="6.13342">
        <ele>393.79998779297</ele>
        <time>2016-05-18T13:21:03Z</time>
      </trkpt>
      <trkpt lat="43.37877" lon="6.13342">
        <ele>393.79998779297</ele>
        <time>2016-05-18T13:21:05Z</time>
      </trkpt>
      <trkpt lat="43.37877" lon="6.13342">
        <ele>393.60000610352</ele>
        <time>2016-05-18T13:21:07Z</time>
      </trkpt>
      <trkpt lat="43.37877" lon="6.13342">
        <ele>393.60000610352</ele>
        <time>2016-05-18T13:21:09Z</time>
      </trkpt>
      <trkpt lat="43.37877" lon="6.13342">
        <ele>393.60000610352</ele>
        <time>2016-05-18T13:21:11Z</time>
      </trkpt>
      <trkpt lat="43.37877" lon="6.13342">
        <ele>393.79998779297</ele>
        <time>2016-05-18T13:21:13Z</time>
      </trkpt>
      <trkpt lat="43.37877" lon="6.13342">
        <ele>393.79998779297</ele>
        <time>2016-05-18T13:21:15Z</time>
      </trkpt>
      <trkpt lat="43.37877" lon="6.13342">
        <ele>393.79998779297</ele>
        <time>2016-05-18T13:21:17Z</time>
      </trkpt>
      <trkpt lat="43.37877" lon="6.13342">
        <ele>393.79998779297</ele>
        <time>2016-05-18T13:21:19Z</time>
      </trkpt>
      <trkpt lat="43.37877" lon="6.13342">
        <ele>393.79998779297</ele>
        <time>2016-05-18T13:21:21Z</time>
      </trkpt>
      <trkpt lat="43.37877" lon="6.13342">
        <ele>393.79998779297</ele>
        <time>2016-05-18T13:21:23Z</time>
      </trkpt>
      <trkpt lat="43.37877" lon="6.13342">
        <ele>393.79998779297</ele>
        <time>2016-05-18T13:21:25Z</time>
      </trkpt>
      <trkpt lat="43.37877" lon="6.13342">
        <ele>393.79998779297</ele>
        <time>2016-05-18T13:21:26Z</time>
      </trkpt>
      <trkpt lat="43.37877" lon="6.13342">
        <ele>394</ele>
        <time>2016-05-18T13:21:27Z</time>
      </trkpt>
      <trkpt lat="43.37877" lon="6.13342">
        <ele>394</ele>
        <time>2016-05-18T13:21:29Z</time>
      </trkpt>
      <trkpt lat="43.37877" lon="6.13342">
        <ele>394</ele>
        <time>2016-05-18T13:21:31Z</time>
      </trkpt>
      <trkpt lat="43.37877" lon="6.13342">
        <ele>394</ele>
        <time>2016-05-18T13:21:33Z</time>
      </trkpt>
      <trkpt lat="43.37877" lon="6.13342">
        <ele>394</ele>
        <time>2016-05-18T13:21:35Z</time>
      </trkpt>
      <trkpt lat="43.37877" lon="6.13342">
        <ele>393.79998779297</ele>
        <time>2016-05-18T13:21:37Z</time>
      </trkpt>
      <trkpt lat="43.37877" lon="6.13342">
        <ele>393.60000610352</ele>
        <time>2016-05-18T13:21:39Z</time>
      </trkpt>
      <trkpt lat="43.37877" lon="6.13342">
        <ele>393.60000610352</ele>
        <time>2016-05-18T13:21:41Z</time>
      </trkpt>
      <trkpt lat="43.37877" lon="6.13342">
        <ele>393.79998779297</ele>
        <time>2016-05-18T13:21:43Z</time>
      </trkpt>
      <trkpt lat="43.37877" lon="6.13342">
        <ele>393.79998779297</ele>
        <time>2016-05-18T13:21:45Z</time>
      </trkpt>
      <trkpt lat="43.37877" lon="6.13342">
        <ele>393.79998779297</ele>
        <time>2016-05-18T13:21:47Z</time>
      </trkpt>
      <trkpt lat="43.37877" lon="6.13342">
        <ele>393.60000610352</ele>
        <time>2016-05-18T13:21:49Z</time>
      </trkpt>
      <trkpt lat="43.37877" lon="6.13342">
        <ele>393.60000610352</ele>
        <time>2016-05-18T13:21:51Z</time>
      </trkpt>
      <trkpt lat="43.37877" lon="6.13342">
        <ele>393.60000610352</ele>
        <time>2016-05-18T13:21:53Z</time>
      </trkpt>
      <trkpt lat="43.37877" lon="6.13342">
        <ele>393.79998779297</ele>
        <time>2016-05-18T13:21:55Z</time>
      </trkpt>
      <trkpt lat="43.37877" lon="6.13342">
        <ele>393.79998779297</ele>
        <time>2016-05-18T13:21:57Z</time>
      </trkpt>
      <trkpt lat="43.37877" lon="6.13342">
        <ele>393.79998779297</ele>
        <time>2016-05-18T13:21:59Z</time>
      </trkpt>
      <trkpt lat="43.37877" lon="6.13342">
        <ele>393.60000610352</ele>
        <time>2016-05-18T13:22:01Z</time>
      </trkpt>
      <trkpt lat="43.37877" lon="6.13342">
        <ele>393.79998779297</ele>
        <time>2016-05-18T13:22:03Z</time>
      </trkpt>
      <trkpt lat="43.37877" lon="6.13342">
        <ele>393.79998779297</ele>
        <time>2016-05-18T13:22:05Z</time>
      </trkpt>
      <trkpt lat="43.37877" lon="6.13342">
        <ele>394</ele>
        <time>2016-05-18T13:22:07Z</time>
      </trkpt>
      <trkpt lat="43.37877" lon="6.13342">
        <ele>393.79998779297</ele>
        <time>2016-05-18T13:22:09Z</time>
      </trkpt>
      <trkpt lat="43.37877" lon="6.13342">
        <ele>393.79998779297</ele>
        <time>2016-05-18T13:22:11Z</time>
      </trkpt>
      <trkpt lat="43.37877" lon="6.13342">
        <ele>393.79998779297</ele>
        <time>2016-05-18T13:22:13Z</time>
      </trkpt>
      <trkpt lat="43.37877" lon="6.13343">
        <ele>394</ele>
        <time>2016-05-18T13:22:15Z</time>
      </trkpt>
      <trkpt lat="43.37877" lon="6.13343">
        <ele>394</ele>
        <time>2016-05-18T13:22:17Z</time>
      </trkpt>
      <trkpt lat="43.37877" lon="6.13343">
        <ele>394</ele>
        <time>2016-05-18T13:22:19Z</time>
      </trkpt>
      <trkpt lat="43.37877" lon="6.13343">
        <ele>393.79998779297</ele>
        <time>2016-05-18T13:22:23Z</time>
      </trkpt>
      <trkpt lat="43.37877" lon="6.13343">
        <ele>393.79998779297</ele>
        <time>2016-05-18T13:22:25Z</time>
      </trkpt>
      <trkpt lat="43.37877" lon="6.13343">
        <ele>393.79998779297</ele>
        <time>2016-05-18T13:22:27Z</time>
      </trkpt>
      <trkpt lat="43.37877" lon="6.13343">
        <ele>393.79998779297</ele>
        <time>2016-05-18T13:22:29Z</time>
      </trkpt>
      <trkpt lat="43.37877" lon="6.13343">
        <ele>393.60000610352</ele>
        <time>2016-05-18T13:22:31Z</time>
      </trkpt>
      <trkpt lat="43.37877" lon="6.13342">
        <ele>393.60000610352</ele>
        <time>2016-05-18T13:22:33Z</time>
      </trkpt>
      <trkpt lat="43.37877" lon="6.13341">
        <ele>393.60000610352</ele>
        <time>2016-05-18T13:22:35Z</time>
      </trkpt>
      <trkpt lat="43.37877" lon="6.13341">
        <ele>393.60000610352</ele>
        <time>2016-05-18T13:22:37Z</time>
      </trkpt>
      <trkpt lat="43.37877" lon="6.13341">
        <ele>393.60000610352</ele>
        <time>2016-05-18T13:22:39Z</time>
      </trkpt>
      <trkpt lat="43.37877" lon="6.13341">
        <ele>393.60000610352</ele>
        <time>2016-05-18T13:22:41Z</time>
      </trkpt>
      <trkpt lat="43.37877" lon="6.13341">
        <ele>393.39999389648</ele>
        <time>2016-05-18T13:22:43Z</time>
      </trkpt>
      <trkpt lat="43.37877" lon="6.13341">
        <ele>393.39999389648</ele>
        <time>2016-05-18T13:22:45Z</time>
      </trkpt>
      <trkpt lat="43.37877" lon="6.13341">
        <ele>393.60000610352</ele>
        <time>2016-05-18T13:22:47Z</time>
      </trkpt>
      <trkpt lat="43.37877" lon="6.13341">
        <ele>393.60000610352</ele>
        <time>2016-05-18T13:22:49Z</time>
      </trkpt>
      <trkpt lat="43.37877" lon="6.13341">
        <ele>393.60000610352</ele>
        <time>2016-05-18T13:22:51Z</time>
      </trkpt>
      <trkpt lat="43.37877" lon="6.13341">
        <ele>393.60000610352</ele>
        <time>2016-05-18T13:22:53Z</time>
      </trkpt>
      <trkpt lat="43.37877" lon="6.13341">
        <ele>393.79998779297</ele>
        <time>2016-05-18T13:22:55Z</time>
      </trkpt>
      <trkpt lat="43.37877" lon="6.13341">
        <ele>393.79998779297</ele>
        <time>2016-05-18T13:22:57Z</time>
      </trkpt>
      <trkpt lat="43.37877" lon="6.13341">
        <ele>393.79998779297</ele>
        <time>2016-05-18T13:22:59Z</time>
      </trkpt>
      <trkpt lat="43.37877" lon="6.13341">
        <ele>393.79998779297</ele>
        <time>2016-05-18T13:23:01Z</time>
      </trkpt>
      <trkpt lat="43.37876" lon="6.13341">
        <ele>393.60000610352</ele>
        <time>2016-05-18T13:23:03Z</time>
      </trkpt>
      <trkpt lat="43.37877" lon="6.13341">
        <ele>393.60000610352</ele>
        <time>2016-05-18T13:23:04Z</time>
      </trkpt>
      <trkpt lat="43.37877" lon="6.13341">
        <ele>393.60000610352</ele>
        <time>2016-05-18T13:23:05Z</time>
      </trkpt>
      <trkpt lat="43.37877" lon="6.13341">
        <ele>393.60000610352</ele>
        <time>2016-05-18T13:23:07Z</time>
      </trkpt>
      <trkpt lat="43.37876" lon="6.13342">
        <ele>393.60000610352</ele>
        <time>2016-05-18T13:23:09Z</time>
      </trkpt>
      <trkpt lat="43.37876" lon="6.13341">
        <ele>393.39999389648</ele>
        <time>2016-05-18T13:23:11Z</time>
      </trkpt>
      <trkpt lat="43.37877" lon="6.13341">
        <ele>393.60000610352</ele>
        <time>2016-05-18T13:23:13Z</time>
      </trkpt>
      <trkpt lat="43.37877" lon="6.13341">
        <ele>393.79998779297</ele>
        <time>2016-05-18T13:23:15Z</time>
      </trkpt>
      <trkpt lat="43.37876" lon="6.13341">
        <ele>394</ele>
        <time>2016-05-18T13:23:17Z</time>
      </trkpt>
      <trkpt lat="43.37876" lon="6.13341">
        <ele>393.79998779297</ele>
        <time>2016-05-18T13:23:19Z</time>
      </trkpt>
      <trkpt lat="43.37876" lon="6.13341">
        <ele>393.60000610352</ele>
        <time>2016-05-18T13:23:21Z</time>
      </trkpt>
      <trkpt lat="43.37876" lon="6.13341">
        <ele>393.39999389648</ele>
        <time>2016-05-18T13:23:23Z</time>
      </trkpt>
      <trkpt lat="43.37876" lon="6.13342">
        <ele>393.39999389648</ele>
        <time>2016-05-18T13:23:25Z</time>
      </trkpt>
      <trkpt lat="43.37876" lon="6.13342">
        <ele>393.39999389648</ele>
        <time>2016-05-18T13:23:27Z</time>
      </trkpt>
      <trkpt lat="43.37876" lon="6.13342">
        <ele>393.60000610352</ele>
        <time>2016-05-18T13:23:29Z</time>
      </trkpt>
      <trkpt lat="43.37877" lon="6.13342">
        <ele>393.60000610352</ele>
        <time>2016-05-18T13:23:31Z</time>
      </trkpt>
      <trkpt lat="43.37877" lon="6.13342">
        <ele>393.60000610352</ele>
        <time>2016-05-18T13:23:33Z</time>
      </trkpt>
      <trkpt lat="43.37877" lon="6.13342">
        <ele>393.60000610352</ele>
        <time>2016-05-18T13:23:35Z</time>
      </trkpt>
      <trkpt lat="43.37876" lon="6.13342">
        <ele>393.60000610352</ele>
        <time>2016-05-18T13:23:37Z</time>
      </trkpt>
      <trkpt lat="43.37877" lon="6.13342">
        <ele>393.79998779297</ele>
        <time>2016-05-18T13:23:39Z</time>
      </trkpt>
      <trkpt lat="43.37877" lon="6.13342">
        <ele>393.60000610352</ele>
        <time>2016-05-18T13:23:41Z</time>
      </trkpt>
      <trkpt lat="43.37877" lon="6.13341">
        <ele>393.60000610352</ele>
        <time>2016-05-18T13:23:43Z</time>
      </trkpt>
      <trkpt lat="43.37877" lon="6.13341">
        <ele>393.79998779297</ele>
        <time>2016-05-18T13:23:45Z</time>
      </trkpt>
      <trkpt lat="43.37877" lon="6.13341">
        <ele>393.79998779297</ele>
        <time>2016-05-18T13:23:47Z</time>
      </trkpt>
      <trkpt lat="43.37877" lon="6.13341">
        <ele>393.79998779297</ele>
        <time>2016-05-18T13:23:49Z</time>
      </trkpt>
      <trkpt lat="43.37877" lon="6.13341">
        <ele>393.79998779297</ele>
        <time>2016-05-18T13:23:51Z</time>
      </trkpt>
      <trkpt lat="43.37877" lon="6.13341">
        <ele>393.79998779297</ele>
        <time>2016-05-18T13:23:53Z</time>
      </trkpt>
      <trkpt lat="43.37877" lon="6.13341">
        <ele>393.79998779297</ele>
        <time>2016-05-18T13:23:55Z</time>
      </trkpt>
      <trkpt lat="43.37877" lon="6.13341">
        <ele>393.79998779297</ele>
        <time>2016-05-18T13:23:57Z</time>
      </trkpt>
      <trkpt lat="43.37877" lon="6.13341">
        <ele>393.79998779297</ele>
        <time>2016-05-18T13:23:59Z</time>
      </trkpt>
      <trkpt lat="43.37877" lon="6.13341">
        <ele>393.79998779297</ele>
        <time>2016-05-18T13:24:01Z</time>
      </trkpt>
      <trkpt lat="43.37877" lon="6.13341">
        <ele>393.79998779297</ele>
        <time>2016-05-18T13:24:02Z</time>
      </trkpt>
      <trkpt lat="43.37877" lon="6.13341">
        <ele>393.79998779297</ele>
        <time>2016-05-18T13:24:03Z</time>
      </trkpt>
      <trkpt lat="43.37877" lon="6.13341">
        <ele>393.79998779297</ele>
        <time>2016-05-18T13:24:05Z</time>
      </trkpt>
      <trkpt lat="43.37877" lon="6.13341">
        <ele>393.60000610352</ele>
        <time>2016-05-18T13:24:07Z</time>
      </trkpt>
      <trkpt lat="43.37877" lon="6.13341">
        <ele>393.60000610352</ele>
        <time>2016-05-18T13:24:09Z</time>
      </trkpt>
      <trkpt lat="43.37876" lon="6.13341">
        <ele>393.60000610352</ele>
        <time>2016-05-18T13:24:11Z</time>
      </trkpt>
      <trkpt lat="43.37876" lon="6.13341">
        <ele>393.60000610352</ele>
        <time>2016-05-18T13:24:13Z</time>
      </trkpt>
      <trkpt lat="43.37876" lon="6.13341">
        <ele>393.79998779297</ele>
        <time>2016-05-18T13:24:15Z</time>
      </trkpt>
      <trkpt lat="43.37876" lon="6.13341">
        <ele>393.79998779297</ele>
        <time>2016-05-18T13:24:17Z</time>
      </trkpt>
      <trkpt lat="43.37876" lon="6.13341">
        <ele>393.60000610352</ele>
        <time>2016-05-18T13:24:19Z</time>
      </trkpt>
      <trkpt lat="43.37876" lon="6.13341">
        <ele>393.60000610352</ele>
        <time>2016-05-18T13:24:21Z</time>
      </trkpt>
      <trkpt lat="43.37876" lon="6.13341">
        <ele>393.79998779297</ele>
        <time>2016-05-18T13:24:23Z</time>
      </trkpt>
      <trkpt lat="43.37876" lon="6.13341">
        <ele>393.79998779297</ele>
        <time>2016-05-18T13:24:25Z</time>
      </trkpt>
      <trkpt lat="43.37876" lon="6.13341">
        <ele>393.79998779297</ele>
        <time>2016-05-18T13:24:27Z</time>
      </trkpt>
      <trkpt lat="43.37876" lon="6.13341">
        <ele>393.79998779297</ele>
        <time>2016-05-18T13:24:29Z</time>
      </trkpt>
      <trkpt lat="43.37876" lon="6.13341">
        <ele>393.79998779297</ele>
        <time>2016-05-18T13:24:31Z</time>
      </trkpt>
      <trkpt lat="43.37876" lon="6.13341">
        <ele>393.79998779297</ele>
        <time>2016-05-18T13:24:33Z</time>
      </trkpt>
      <trkpt lat="43.37876" lon="6.13341">
        <ele>393.79998779297</ele>
        <time>2016-05-18T13:24:35Z</time>
      </trkpt>
      <trkpt lat="43.37876" lon="6.13341">
        <ele>393.79998779297</ele>
        <time>2016-05-18T13:24:37Z</time>
      </trkpt>
      <trkpt lat="43.37876" lon="6.13341">
        <ele>394</ele>
        <time>2016-05-18T13:24:39Z</time>
      </trkpt>
      <trkpt lat="43.37876" lon="6.13341">
        <ele>394</ele>
        <time>2016-05-18T13:24:41Z</time>
      </trkpt>
      <trkpt lat="43.37876" lon="6.13341">
        <ele>394</ele>
        <time>2016-05-18T13:24:43Z</time>
      </trkpt>
      <trkpt lat="43.37876" lon="6.13341">
        <ele>394</ele>
        <time>2016-05-18T13:24:45Z</time>
      </trkpt>
      <trkpt lat="43.37876" lon="6.13341">
        <ele>393.79998779297</ele>
        <time>2016-05-18T13:24:47Z</time>
      </trkpt>
      <trkpt lat="43.37876" lon="6.13341">
        <ele>393.79998779297</ele>
        <time>2016-05-18T13:24:49Z</time>
      </trkpt>
      <trkpt lat="43.37876" lon="6.13341">
        <ele>393.60000610352</ele>
        <time>2016-05-18T13:24:51Z</time>
      </trkpt>
      <trkpt lat="43.37876" lon="6.13341">
        <ele>393.39999389648</ele>
        <time>2016-05-18T13:24:53Z</time>
      </trkpt>
      <trkpt lat="43.37876" lon="6.13341">
        <ele>393.39999389648</ele>
        <time>2016-05-18T13:24:55Z</time>
      </trkpt>
      <trkpt lat="43.37876" lon="6.13341">
        <ele>393.39999389648</ele>
        <time>2016-05-18T13:24:57Z</time>
      </trkpt>
      <trkpt lat="43.37876" lon="6.13341">
        <ele>393.39999389648</ele>
        <time>2016-05-18T13:24:59Z</time>
      </trkpt>
      <trkpt lat="43.37876" lon="6.13341">
        <ele>393.39999389648</ele>
        <time>2016-05-18T13:25:01Z</time>
      </trkpt>
      <trkpt lat="43.37876" lon="6.13341">
        <ele>393.39999389648</ele>
        <time>2016-05-18T13:25:03Z</time>
      </trkpt>
      <trkpt lat="43.37876" lon="6.13341">
        <ele>393.39999389648</ele>
        <time>2016-05-18T13:25:05Z</time>
      </trkpt>
      <trkpt lat="43.37876" lon="6.13342">
        <ele>393.39999389648</ele>
        <time>2016-05-18T13:25:07Z</time>
      </trkpt>
      <trkpt lat="43.37876" lon="6.13342">
        <ele>393.60000610352</ele>
        <time>2016-05-18T13:25:09Z</time>
      </trkpt>
      <trkpt lat="43.37876" lon="6.13342">
        <ele>393.79998779297</ele>
        <time>2016-05-18T13:25:11Z</time>
      </trkpt>
      <trkpt lat="43.37876" lon="6.13342">
        <ele>393.60000610352</ele>
        <time>2016-05-18T13:25:13Z</time>
      </trkpt>
      <trkpt lat="43.37876" lon="6.13342">
        <ele>393.39999389648</ele>
        <time>2016-05-18T13:25:15Z</time>
      </trkpt>
      <trkpt lat="43.37876" lon="6.13342">
        <ele>393.20001220703</ele>
        <time>2016-05-18T13:25:17Z</time>
      </trkpt>
      <trkpt lat="43.37876" lon="6.13342">
        <ele>393.20001220703</ele>
        <time>2016-05-18T13:25:19Z</time>
      </trkpt>
      <trkpt lat="43.37876" lon="6.13342">
        <ele>393.20001220703</ele>
        <time>2016-05-18T13:25:21Z</time>
      </trkpt>
      <trkpt lat="43.37876" lon="6.13342">
        <ele>393.60000610352</ele>
        <time>2016-05-18T13:25:23Z</time>
      </trkpt>
      <trkpt lat="43.37876" lon="6.13342">
        <ele>393.79998779297</ele>
        <time>2016-05-18T13:25:25Z</time>
      </trkpt>
      <trkpt lat="43.37876" lon="6.13342">
        <ele>393.79998779297</ele>
        <time>2016-05-18T13:25:27Z</time>
      </trkpt>
      <trkpt lat="43.37876" lon="6.13342">
        <ele>393.79998779297</ele>
        <time>2016-05-18T13:25:29Z</time>
      </trkpt>
      <trkpt lat="43.37876" lon="6.13342">
        <ele>393.60000610352</ele>
        <time>2016-05-18T13:25:31Z</time>
      </trkpt>
      <trkpt lat="43.37876" lon="6.13342">
        <ele>393.60000610352</ele>
        <time>2016-05-18T13:25:33Z</time>
      </trkpt>
      <trkpt lat="43.37876" lon="6.13342">
        <ele>393.60000610352</ele>
        <time>2016-05-18T13:25:35Z</time>
      </trkpt>
      <trkpt lat="43.37876" lon="6.13342">
        <ele>393.60000610352</ele>
        <time>2016-05-18T13:25:37Z</time>
      </trkpt>
      <trkpt lat="43.37876" lon="6.13342">
        <ele>393.60000610352</ele>
        <time>2016-05-18T13:25:39Z</time>
      </trkpt>
      <trkpt lat="43.37876" lon="6.13342">
        <ele>393.60000610352</ele>
        <time>2016-05-18T13:25:41Z</time>
      </trkpt>
      <trkpt lat="43.37876" lon="6.13341">
        <ele>393.60000610352</ele>
        <time>2016-05-18T13:25:43Z</time>
      </trkpt>
      <trkpt lat="43.37876" lon="6.13341">
        <ele>393.60000610352</ele>
        <time>2016-05-18T13:25:45Z</time>
      </trkpt>
      <trkpt lat="43.37876" lon="6.13341">
        <ele>393.60000610352</ele>
        <time>2016-05-18T13:25:47Z</time>
      </trkpt>
      <trkpt lat="43.37876" lon="6.13341">
        <ele>393.60000610352</ele>
        <time>2016-05-18T13:25:48Z</time>
      </trkpt>
      <trkpt lat="43.37876" lon="6.13342">
        <ele>393.60000610352</ele>
        <time>2016-05-18T13:25:49Z</time>
      </trkpt>
      <trkpt lat="43.37876" lon="6.13342">
        <ele>393.60000610352</ele>
        <time>2016-05-18T13:25:51Z</time>
      </trkpt>
      <trkpt lat="43.37876" lon="6.13342">
        <ele>393.79998779297</ele>
        <time>2016-05-18T13:25:53Z</time>
      </trkpt>
      <trkpt lat="43.37876" lon="6.13342">
        <ele>393.79998779297</ele>
        <time>2016-05-18T13:25:55Z</time>
      </trkpt>
      <trkpt lat="43.37876" lon="6.13342">
        <ele>393.79998779297</ele>
        <time>2016-05-18T13:25:57Z</time>
      </trkpt>
      <trkpt lat="43.37876" lon="6.13341">
        <ele>393.39999389648</ele>
        <time>2016-05-18T13:25:59Z</time>
      </trkpt>
      <trkpt lat="43.37876" lon="6.13341">
        <ele>393.20001220703</ele>
        <time>2016-05-18T13:26:01Z</time>
      </trkpt>
      <trkpt lat="43.37876" lon="6.13341">
        <ele>393.39999389648</ele>
        <time>2016-05-18T13:26:03Z</time>
      </trkpt>
      <trkpt lat="43.37876" lon="6.13341">
        <ele>393.60000610352</ele>
        <time>2016-05-18T13:26:05Z</time>
      </trkpt>
      <trkpt lat="43.37876" lon="6.13341">
        <ele>393.60000610352</ele>
        <time>2016-05-18T13:26:07Z</time>
      </trkpt>
      <trkpt lat="43.37876" lon="6.13341">
        <ele>393.60000610352</ele>
        <time>2016-05-18T13:26:09Z</time>
      </trkpt>
      <trkpt lat="43.37876" lon="6.13341">
        <ele>393.60000610352</ele>
        <time>2016-05-18T13:26:11Z</time>
      </trkpt>
      <trkpt lat="43.37876" lon="6.13341">
        <ele>393.60000610352</ele>
        <time>2016-05-18T13:26:13Z</time>
      </trkpt>
      <trkpt lat="43.37876" lon="6.13341">
        <ele>393.60000610352</ele>
        <time>2016-05-18T13:26:15Z</time>
      </trkpt>
      <trkpt lat="43.37876" lon="6.13341">
        <ele>393.60000610352</ele>
        <time>2016-05-18T13:26:17Z</time>
      </trkpt>
      <trkpt lat="43.37876" lon="6.13342">
        <ele>393.60000610352</ele>
        <time>2016-05-18T13:26:19Z</time>
      </trkpt>
      <trkpt lat="43.37876" lon="6.13342">
        <ele>393.60000610352</ele>
        <time>2016-05-18T13:26:21Z</time>
      </trkpt>
      <trkpt lat="43.37876" lon="6.13342">
        <ele>393.60000610352</ele>
        <time>2016-05-18T13:26:23Z</time>
      </trkpt>
      <trkpt lat="43.37876" lon="6.13342">
        <ele>393.60000610352</ele>
        <time>2016-05-18T13:26:25Z</time>
      </trkpt>
      <trkpt lat="43.37876" lon="6.13342">
        <ele>393.60000610352</ele>
        <time>2016-05-18T13:26:27Z</time>
      </trkpt>
      <trkpt lat="43.37876" lon="6.13342">
        <ele>393.60000610352</ele>
        <time>2016-05-18T13:26:29Z</time>
      </trkpt>
      <trkpt lat="43.37876" lon="6.13342">
        <ele>393.20001220703</ele>
        <time>2016-05-18T13:26:31Z</time>
      </trkpt>
      <trkpt lat="43.37876" lon="6.13342">
        <ele>393</ele>
        <time>2016-05-18T13:26:32Z</time>
      </trkpt>
      <trkpt lat="43.37876" lon="6.13342">
        <ele>392.79998779297</ele>
        <time>2016-05-18T13:26:33Z</time>
      </trkpt>
      <trkpt lat="43.37876" lon="6.13342">
        <ele>392.60000610352</ele>
        <time>2016-05-18T13:26:35Z</time>
      </trkpt>
      <trkpt lat="43.37876" lon="6.13342">
        <ele>392.60000610352</ele>
        <time>2016-05-18T13:26:36Z</time>
      </trkpt>
      <trkpt lat="43.37876" lon="6.13342">
        <ele>392.60000610352</ele>
        <time>2016-05-18T13:26:37Z</time>
      </trkpt>
      <trkpt lat="43.37876" lon="6.13342">
        <ele>392.79998779297</ele>
        <time>2016-05-18T13:26:39Z</time>
      </trkpt>
      <trkpt lat="43.37876" lon="6.13342">
        <ele>393.20001220703</ele>
        <time>2016-05-18T13:26:41Z</time>
      </trkpt>
      <trkpt lat="43.37876" lon="6.13342">
        <ele>393.39999389648</ele>
        <time>2016-05-18T13:26:43Z</time>
      </trkpt>
      <trkpt lat="43.37876" lon="6.13342">
        <ele>393.20001220703</ele>
        <time>2016-05-18T13:26:45Z</time>
      </trkpt>
      <trkpt lat="43.37876" lon="6.13342">
        <ele>393</ele>
        <time>2016-05-18T13:26:47Z</time>
      </trkpt>
      <trkpt lat="43.37876" lon="6.13342">
        <ele>393</ele>
        <time>2016-05-18T13:26:49Z</time>
      </trkpt>
      <trkpt lat="43.37876" lon="6.13342">
        <ele>393.20001220703</ele>
        <time>2016-05-18T13:26:51Z</time>
      </trkpt>
      <trkpt lat="43.37876" lon="6.13342">
        <ele>393.20001220703</ele>
        <time>2016-05-18T13:26:53Z</time>
      </trkpt>
      <trkpt lat="43.37876" lon="6.13342">
        <ele>393.20001220703</ele>
        <time>2016-05-18T13:26:55Z</time>
      </trkpt>
      <trkpt lat="43.37876" lon="6.13342">
        <ele>393.20001220703</ele>
        <time>2016-05-18T13:26:57Z</time>
      </trkpt>
      <trkpt lat="43.37876" lon="6.13342">
        <ele>393.39999389648</ele>
        <time>2016-05-18T13:26:59Z</time>
      </trkpt>
      <trkpt lat="43.37876" lon="6.13342">
        <ele>393.60000610352</ele>
        <time>2016-05-18T13:27:00Z</time>
      </trkpt>
      <trkpt lat="43.37876" lon="6.13342">
        <ele>393.60000610352</ele>
        <time>2016-05-18T13:27:03Z</time>
      </trkpt>
      <trkpt lat="43.37876" lon="6.13342">
        <ele>393.60000610352</ele>
        <time>2016-05-18T13:27:05Z</time>
      </trkpt>
      <trkpt lat="43.37876" lon="6.13342">
        <ele>393.60000610352</ele>
        <time>2016-05-18T13:27:07Z</time>
      </trkpt>
      <trkpt lat="43.37876" lon="6.13342">
        <ele>393.39999389648</ele>
        <time>2016-05-18T13:27:09Z</time>
      </trkpt>
      <trkpt lat="43.37876" lon="6.13342">
        <ele>393.39999389648</ele>
        <time>2016-05-18T13:27:11Z</time>
      </trkpt>
      <trkpt lat="43.37876" lon="6.13342">
        <ele>393.39999389648</ele>
        <time>2016-05-18T13:27:13Z</time>
      </trkpt>
      <trkpt lat="43.37876" lon="6.13342">
        <ele>393.60000610352</ele>
        <time>2016-05-18T13:27:15Z</time>
      </trkpt>
      <trkpt lat="43.37876" lon="6.13342">
        <ele>393.79998779297</ele>
        <time>2016-05-18T13:27:17Z</time>
      </trkpt>
      <trkpt lat="43.37876" lon="6.13342">
        <ele>393.79998779297</ele>
        <time>2016-05-18T13:27:19Z</time>
      </trkpt>
      <trkpt lat="43.37876" lon="6.13342">
        <ele>393.79998779297</ele>
        <time>2016-05-18T13:27:21Z</time>
      </trkpt>
      <trkpt lat="43.37876" lon="6.13342">
        <ele>393.60000610352</ele>
        <time>2016-05-18T13:27:23Z</time>
      </trkpt>
      <trkpt lat="43.37876" lon="6.13342">
        <ele>393.60000610352</ele>
        <time>2016-05-18T13:27:25Z</time>
      </trkpt>
      <trkpt lat="43.37876" lon="6.13342">
        <ele>393.60000610352</ele>
        <time>2016-05-18T13:27:27Z</time>
      </trkpt>
      <trkpt lat="43.37876" lon="6.13342">
        <ele>393.39999389648</ele>
        <time>2016-05-18T13:27:29Z</time>
      </trkpt>
      <trkpt lat="43.37876" lon="6.13342">
        <ele>393.60000610352</ele>
        <time>2016-05-18T13:27:31Z</time>
      </trkpt>
      <trkpt lat="43.37876" lon="6.13342">
        <ele>393.60000610352</ele>
        <time>2016-05-18T13:27:33Z</time>
      </trkpt>
      <trkpt lat="43.37876" lon="6.13342">
        <ele>393.60000610352</ele>
        <time>2016-05-18T13:27:35Z</time>
      </trkpt>
      <trkpt lat="43.37876" lon="6.13342">
        <ele>393.60000610352</ele>
        <time>2016-05-18T13:27:37Z</time>
      </trkpt>
      <trkpt lat="43.37876" lon="6.13342">
        <ele>393.79998779297</ele>
        <time>2016-05-18T13:27:39Z</time>
      </trkpt>
      <trkpt lat="43.37876" lon="6.13342">
        <ele>393.79998779297</ele>
        <time>2016-05-18T13:27:41Z</time>
      </trkpt>
      <trkpt lat="43.37876" lon="6.13342">
        <ele>393.79998779297</ele>
        <time>2016-05-18T13:27:43Z</time>
      </trkpt>
      <trkpt lat="43.37876" lon="6.13342">
        <ele>393.79998779297</ele>
        <time>2016-05-18T13:27:45Z</time>
      </trkpt>
      <trkpt lat="43.37876" lon="6.13342">
        <ele>393.79998779297</ele>
        <time>2016-05-18T13:27:47Z</time>
      </trkpt>
      <trkpt lat="43.37876" lon="6.13342">
        <ele>393.79998779297</ele>
        <time>2016-05-18T13:27:48Z</time>
      </trkpt>
      <trkpt lat="43.37876" lon="6.13342">
        <ele>394</ele>
        <time>2016-05-18T13:27:49Z</time>
      </trkpt>
      <trkpt lat="43.37876" lon="6.13342">
        <ele>394.20001220703</ele>
        <time>2016-05-18T13:27:51Z</time>
      </trkpt>
      <trkpt lat="43.37876" lon="6.13342">
        <ele>394.20001220703</ele>
        <time>2016-05-18T13:27:53Z</time>
      </trkpt>
      <trkpt lat="43.37876" lon="6.13342">
        <ele>394.20001220703</ele>
        <time>2016-05-18T13:27:55Z</time>
      </trkpt>
      <trkpt lat="43.37876" lon="6.13342">
        <ele>394.20001220703</ele>
        <time>2016-05-18T13:27:57Z</time>
      </trkpt>
      <trkpt lat="43.37876" lon="6.13341">
        <ele>394.20001220703</ele>
        <time>2016-05-18T13:27:59Z</time>
      </trkpt>
      <trkpt lat="43.37876" lon="6.13341">
        <ele>394.20001220703</ele>
        <time>2016-05-18T13:28:01Z</time>
      </trkpt>
      <trkpt lat="43.37876" lon="6.13341">
        <ele>394.20001220703</ele>
        <time>2016-05-18T13:28:03Z</time>
      </trkpt>
      <trkpt lat="43.37876" lon="6.13341">
        <ele>394.20001220703</ele>
        <time>2016-05-18T13:28:05Z</time>
      </trkpt>
      <trkpt lat="43.37876" lon="6.13341">
        <ele>394</ele>
        <time>2016-05-18T13:28:07Z</time>
      </trkpt>
      <trkpt lat="43.37876" lon="6.13341">
        <ele>394</ele>
        <time>2016-05-18T13:28:09Z</time>
      </trkpt>
      <trkpt lat="43.37876" lon="6.13341">
        <ele>394</ele>
        <time>2016-05-18T13:28:11Z</time>
      </trkpt>
      <trkpt lat="43.37876" lon="6.13341">
        <ele>393.79998779297</ele>
        <time>2016-05-18T13:28:13Z</time>
      </trkpt>
      <trkpt lat="43.37876" lon="6.13341">
        <ele>393.79998779297</ele>
        <time>2016-05-18T13:28:15Z</time>
      </trkpt>
      <trkpt lat="43.37876" lon="6.13341">
        <ele>393.79998779297</ele>
        <time>2016-05-18T13:28:17Z</time>
      </trkpt>
      <trkpt lat="43.37876" lon="6.13341">
        <ele>394</ele>
        <time>2016-05-18T13:28:19Z</time>
      </trkpt>
      <trkpt lat="43.37876" lon="6.13341">
        <ele>394.20001220703</ele>
        <time>2016-05-18T13:28:21Z</time>
      </trkpt>
      <trkpt lat="43.37876" lon="6.13341">
        <ele>394</ele>
        <time>2016-05-18T13:28:23Z</time>
      </trkpt>
      <trkpt lat="43.37876" lon="6.13341">
        <ele>393.79998779297</ele>
        <time>2016-05-18T13:28:25Z</time>
      </trkpt>
      <trkpt lat="43.37876" lon="6.13341">
        <ele>393.79998779297</ele>
        <time>2016-05-18T13:28:27Z</time>
      </trkpt>
      <trkpt lat="43.37876" lon="6.13341">
        <ele>393.79998779297</ele>
        <time>2016-05-18T13:28:29Z</time>
      </trkpt>
      <trkpt lat="43.37876" lon="6.13341">
        <ele>393.60000610352</ele>
        <time>2016-05-18T13:28:31Z</time>
      </trkpt>
      <trkpt lat="43.37876" lon="6.13341">
        <ele>393.60000610352</ele>
        <time>2016-05-18T13:28:33Z</time>
      </trkpt>
      <trkpt lat="43.37876" lon="6.13341">
        <ele>393.60000610352</ele>
        <time>2016-05-18T13:28:35Z</time>
      </trkpt>
      <trkpt lat="43.37876" lon="6.13341">
        <ele>393.79998779297</ele>
        <time>2016-05-18T13:28:37Z</time>
      </trkpt>
      <trkpt lat="43.37876" lon="6.13341">
        <ele>394</ele>
        <time>2016-05-18T13:28:39Z</time>
      </trkpt>
      <trkpt lat="43.37876" lon="6.13341">
        <ele>394</ele>
        <time>2016-05-18T13:28:41Z</time>
      </trkpt>
      <trkpt lat="43.37876" lon="6.13341">
        <ele>393.79998779297</ele>
        <time>2016-05-18T13:28:43Z</time>
      </trkpt>
      <trkpt lat="43.37876" lon="6.13341">
        <ele>393.79998779297</ele>
        <time>2016-05-18T13:28:45Z</time>
      </trkpt>
      <trkpt lat="43.37876" lon="6.13341">
        <ele>393.79998779297</ele>
        <time>2016-05-18T13:28:47Z</time>
      </trkpt>
      <trkpt lat="43.37876" lon="6.13341">
        <ele>393.79998779297</ele>
        <time>2016-05-18T13:28:49Z</time>
      </trkpt>
      <trkpt lat="43.37876" lon="6.13341">
        <ele>393.79998779297</ele>
        <time>2016-05-18T13:28:51Z</time>
      </trkpt>
      <trkpt lat="43.37876" lon="6.13341">
        <ele>394</ele>
        <time>2016-05-18T13:28:53Z</time>
      </trkpt>
      <trkpt lat="43.37876" lon="6.13341">
        <ele>394.20001220703</ele>
        <time>2016-05-18T13:28:55Z</time>
      </trkpt>
      <trkpt lat="43.37876" lon="6.13341">
        <ele>394</ele>
        <time>2016-05-18T13:28:57Z</time>
      </trkpt>
      <trkpt lat="43.37876" lon="6.13341">
        <ele>394</ele>
        <time>2016-05-18T13:28:59Z</time>
      </trkpt>
      <trkpt lat="43.37876" lon="6.13341">
        <ele>394</ele>
        <time>2016-05-18T13:29:01Z</time>
      </trkpt>
      <trkpt lat="43.37876" lon="6.13341">
        <ele>393.60000610352</ele>
        <time>2016-05-18T13:29:03Z</time>
      </trkpt>
      <trkpt lat="43.37876" lon="6.13341">
        <ele>393.60000610352</ele>
        <time>2016-05-18T13:29:05Z</time>
      </trkpt>
      <trkpt lat="43.37876" lon="6.13341">
        <ele>393.60000610352</ele>
        <time>2016-05-18T13:29:07Z</time>
      </trkpt>
      <trkpt lat="43.37876" lon="6.13341">
        <ele>393.60000610352</ele>
        <time>2016-05-18T13:29:09Z</time>
      </trkpt>
      <trkpt lat="43.37876" lon="6.13341">
        <ele>393.60000610352</ele>
        <time>2016-05-18T13:29:11Z</time>
      </trkpt>
      <trkpt lat="43.37876" lon="6.13341">
        <ele>393.60000610352</ele>
        <time>2016-05-18T13:29:13Z</time>
      </trkpt>
      <trkpt lat="43.37876" lon="6.13341">
        <ele>393.60000610352</ele>
        <time>2016-05-18T13:29:15Z</time>
      </trkpt>
      <trkpt lat="43.37876" lon="6.13341">
        <ele>393.60000610352</ele>
        <time>2016-05-18T13:29:17Z</time>
      </trkpt>
      <trkpt lat="43.37876" lon="6.13341">
        <ele>393.79998779297</ele>
        <time>2016-05-18T13:29:19Z</time>
      </trkpt>
      <trkpt lat="43.37876" lon="6.13341">
        <ele>393.79998779297</ele>
        <time>2016-05-18T13:29:21Z</time>
      </trkpt>
      <trkpt lat="43.37876" lon="6.13341">
        <ele>394</ele>
        <time>2016-05-18T13:29:23Z</time>
      </trkpt>
      <trkpt lat="43.37876" lon="6.13341">
        <ele>394.20001220703</ele>
        <time>2016-05-18T13:29:24Z</time>
      </trkpt>
      <trkpt lat="43.37876" lon="6.13341">
        <ele>394.39999389648</ele>
        <time>2016-05-18T13:29:25Z</time>
      </trkpt>
      <trkpt lat="43.37876" lon="6.13341">
        <ele>394.60000610352</ele>
        <time>2016-05-18T13:29:27Z</time>
      </trkpt>
      <trkpt lat="43.37876" lon="6.13341">
        <ele>394.60000610352</ele>
        <time>2016-05-18T13:29:29Z</time>
      </trkpt>
      <trkpt lat="43.37876" lon="6.13341">
        <ele>394.39999389648</ele>
        <time>2016-05-18T13:29:31Z</time>
      </trkpt>
      <trkpt lat="43.37876" lon="6.13341">
        <ele>394.20001220703</ele>
        <time>2016-05-18T13:29:33Z</time>
      </trkpt>
      <trkpt lat="43.37876" lon="6.13341">
        <ele>394</ele>
        <time>2016-05-18T13:29:35Z</time>
      </trkpt>
      <trkpt lat="43.37876" lon="6.13341">
        <ele>393.79998779297</ele>
        <time>2016-05-18T13:29:37Z</time>
      </trkpt>
      <trkpt lat="43.37876" lon="6.13341">
        <ele>393.79998779297</ele>
        <time>2016-05-18T13:29:39Z</time>
      </trkpt>
      <trkpt lat="43.37876" lon="6.13341">
        <ele>393.60000610352</ele>
        <time>2016-05-18T13:29:41Z</time>
      </trkpt>
      <trkpt lat="43.37876" lon="6.13341">
        <ele>393.79998779297</ele>
        <time>2016-05-18T13:29:43Z</time>
      </trkpt>
      <trkpt lat="43.37876" lon="6.13341">
        <ele>394</ele>
        <time>2016-05-18T13:29:45Z</time>
      </trkpt>
      <trkpt lat="43.37876" lon="6.13341">
        <ele>394.20001220703</ele>
        <time>2016-05-18T13:29:47Z</time>
      </trkpt>
      <trkpt lat="43.37876" lon="6.13341">
        <ele>394.39999389648</ele>
        <time>2016-05-18T13:29:49Z</time>
      </trkpt>
      <trkpt lat="43.37876" lon="6.13341">
        <ele>394.39999389648</ele>
        <time>2016-05-18T13:29:51Z</time>
      </trkpt>
      <trkpt lat="43.37876" lon="6.13341">
        <ele>394.39999389648</ele>
        <time>2016-05-18T13:29:53Z</time>
      </trkpt>
      <trkpt lat="43.37876" lon="6.13341">
        <ele>394.20001220703</ele>
        <time>2016-05-18T13:29:55Z</time>
      </trkpt>
      <trkpt lat="43.37876" lon="6.13341">
        <ele>394.20001220703</ele>
        <time>2016-05-18T13:29:57Z</time>
      </trkpt>
      <trkpt lat="43.37876" lon="6.13341">
        <ele>394.20001220703</ele>
        <time>2016-05-18T13:29:59Z</time>
      </trkpt>
      <trkpt lat="43.37876" lon="6.13341">
        <ele>394.20001220703</ele>
        <time>2016-05-18T13:30:01Z</time>
      </trkpt>
      <trkpt lat="43.37876" lon="6.13341">
        <ele>394.20001220703</ele>
        <time>2016-05-18T13:30:03Z</time>
      </trkpt>
      <trkpt lat="43.37876" lon="6.13341">
        <ele>394.20001220703</ele>
        <time>2016-05-18T13:30:05Z</time>
      </trkpt>
      <trkpt lat="43.37876" lon="6.13341">
        <ele>394</ele>
        <time>2016-05-18T13:30:07Z</time>
      </trkpt>
      <trkpt lat="43.37876" lon="6.13341">
        <ele>394</ele>
        <time>2016-05-18T13:30:09Z</time>
      </trkpt>
      <trkpt lat="43.37876" lon="6.13341">
        <ele>394</ele>
        <time>2016-05-18T13:30:11Z</time>
      </trkpt>
      <trkpt lat="43.37876" lon="6.13341">
        <ele>394</ele>
        <time>2016-05-18T13:30:13Z</time>
      </trkpt>
      <trkpt lat="43.37876" lon="6.13341">
        <ele>394.20001220703</ele>
        <time>2016-05-18T13:30:15Z</time>
      </trkpt>
      <trkpt lat="43.37876" lon="6.13341">
        <ele>394.39999389648</ele>
        <time>2016-05-18T13:30:17Z</time>
      </trkpt>
      <trkpt lat="43.37876" lon="6.13341">
        <ele>394.20001220703</ele>
        <time>2016-05-18T13:30:19Z</time>
      </trkpt>
      <trkpt lat="43.37876" lon="6.13341">
        <ele>394</ele>
        <time>2016-05-18T13:30:21Z</time>
      </trkpt>
      <trkpt lat="43.37876" lon="6.13341">
        <ele>394</ele>
        <time>2016-05-18T13:30:23Z</time>
      </trkpt>
      <trkpt lat="43.37876" lon="6.13341">
        <ele>393.79998779297</ele>
        <time>2016-05-18T13:30:25Z</time>
      </trkpt>
      <trkpt lat="43.37876" lon="6.13341">
        <ele>394</ele>
        <time>2016-05-18T13:30:27Z</time>
      </trkpt>
      <trkpt lat="43.37876" lon="6.13341">
        <ele>394</ele>
        <time>2016-05-18T13:30:29Z</time>
      </trkpt>
      <trkpt lat="43.37876" lon="6.13341">
        <ele>394.20001220703</ele>
        <time>2016-05-18T13:30:31Z</time>
      </trkpt>
      <trkpt lat="43.37876" lon="6.13341">
        <ele>394.20001220703</ele>
        <time>2016-05-18T13:30:33Z</time>
      </trkpt>
      <trkpt lat="43.37875" lon="6.13341">
        <ele>394.20001220703</ele>
        <time>2016-05-18T13:30:35Z</time>
      </trkpt>
      <trkpt lat="43.37875" lon="6.13341">
        <ele>394.20001220703</ele>
        <time>2016-05-18T13:30:37Z</time>
      </trkpt>
      <trkpt lat="43.37875" lon="6.13341">
        <ele>394.39999389648</ele>
        <time>2016-05-18T13:30:39Z</time>
      </trkpt>
      <trkpt lat="43.37875" lon="6.13341">
        <ele>394.39999389648</ele>
        <time>2016-05-18T13:30:41Z</time>
      </trkpt>
      <trkpt lat="43.37875" lon="6.13341">
        <ele>394.79998779297</ele>
        <time>2016-05-18T13:30:43Z</time>
      </trkpt>
      <trkpt lat="43.37875" lon="6.13341">
        <ele>395</ele>
        <time>2016-05-18T13:30:45Z</time>
      </trkpt>
      <trkpt lat="43.37875" lon="6.13341">
        <ele>395.20001220703</ele>
        <time>2016-05-18T13:30:47Z</time>
      </trkpt>
      <trkpt lat="43.37875" lon="6.13341">
        <ele>395.20001220703</ele>
        <time>2016-05-18T13:30:49Z</time>
      </trkpt>
      <trkpt lat="43.37875" lon="6.13341">
        <ele>395</ele>
        <time>2016-05-18T13:30:51Z</time>
      </trkpt>
      <trkpt lat="43.37875" lon="6.13341">
        <ele>395</ele>
        <time>2016-05-18T13:30:53Z</time>
      </trkpt>
      <trkpt lat="43.37875" lon="6.13341">
        <ele>394.79998779297</ele>
        <time>2016-05-18T13:30:55Z</time>
      </trkpt>
      <trkpt lat="43.37875" lon="6.13341">
        <ele>394.60000610352</ele>
        <time>2016-05-18T13:30:57Z</time>
      </trkpt>
      <trkpt lat="43.37875" lon="6.13341">
        <ele>395</ele>
        <time>2016-05-18T13:30:59Z</time>
      </trkpt>
      <trkpt lat="43.37875" lon="6.13341">
        <ele>395</ele>
        <time>2016-05-18T13:31:01Z</time>
      </trkpt>
      <trkpt lat="43.37875" lon="6.13341">
        <ele>395</ele>
        <time>2016-05-18T13:31:03Z</time>
      </trkpt>
      <trkpt lat="43.37875" lon="6.13341">
        <ele>394.79998779297</ele>
        <time>2016-05-18T13:31:05Z</time>
      </trkpt>
      <trkpt lat="43.37875" lon="6.13342">
        <ele>394.79998779297</ele>
        <time>2016-05-18T13:31:07Z</time>
      </trkpt>
      <trkpt lat="43.37875" lon="6.13343">
        <ele>394.79998779297</ele>
        <time>2016-05-18T13:31:09Z</time>
      </trkpt>
      <trkpt lat="43.37874" lon="6.13345">
        <ele>394.79998779297</ele>
        <time>2016-05-18T13:31:11Z</time>
      </trkpt>
      <trkpt lat="43.37874" lon="6.13345">
        <ele>395</ele>
        <time>2016-05-18T13:31:13Z</time>
      </trkpt>
      <trkpt lat="43.37874" lon="6.13345">
        <ele>395</ele>
        <time>2016-05-18T13:31:15Z</time>
      </trkpt>
      <trkpt lat="43.37873" lon="6.13345">
        <ele>395</ele>
        <time>2016-05-18T13:31:17Z</time>
      </trkpt>
      <trkpt lat="43.37873" lon="6.13345">
        <ele>395</ele>
        <time>2016-05-18T13:31:19Z</time>
      </trkpt>
      <trkpt lat="43.37873" lon="6.13346">
        <ele>395</ele>
        <time>2016-05-18T13:31:21Z</time>
      </trkpt>
      <trkpt lat="43.37873" lon="6.13346">
        <ele>395.20001220703</ele>
        <time>2016-05-18T13:31:22Z</time>
      </trkpt>
      <trkpt lat="43.37873" lon="6.13346">
        <ele>395</ele>
        <time>2016-05-18T13:31:23Z</time>
      </trkpt>
      <trkpt lat="43.37873" lon="6.13347">
        <ele>395.20001220703</ele>
        <time>2016-05-18T13:31:24Z</time>
      </trkpt>
      <trkpt lat="43.37873" lon="6.13348">
        <ele>395.20001220703</ele>
        <time>2016-05-18T13:31:25Z</time>
      </trkpt>
      <trkpt lat="43.37873" lon="6.1335">
        <ele>395</ele>
        <time>2016-05-18T13:31:27Z</time>
      </trkpt>
      <trkpt lat="43.37872" lon="6.13353">
        <ele>395</ele>
        <time>2016-05-18T13:31:29Z</time>
      </trkpt>
      <trkpt lat="43.3787" lon="6.13356">
        <ele>395</ele>
        <time>2016-05-18T13:31:31Z</time>
      </trkpt>
      <trkpt lat="43.37869" lon="6.13361">
        <ele>395.20001220703</ele>
        <time>2016-05-18T13:31:33Z</time>
      </trkpt>
      <trkpt lat="43.37867" lon="6.13364">
        <ele>395.20001220703</ele>
        <time>2016-05-18T13:31:35Z</time>
      </trkpt>
      <trkpt lat="43.37866" lon="6.13369">
        <ele>395.20001220703</ele>
        <time>2016-05-18T13:31:37Z</time>
      </trkpt>
      <trkpt lat="43.37865" lon="6.13374">
        <ele>395.39999389648</ele>
        <time>2016-05-18T13:31:39Z</time>
      </trkpt>
      <trkpt lat="43.37864" lon="6.13379">
        <ele>395.39999389648</ele>
        <time>2016-05-18T13:31:41Z</time>
      </trkpt>
      <trkpt lat="43.37864" lon="6.13383">
        <ele>395.39999389648</ele>
        <time>2016-05-18T13:31:43Z</time>
      </trkpt>
      <trkpt lat="43.37863" lon="6.13386">
        <ele>395.60000610352</ele>
        <time>2016-05-18T13:31:44Z</time>
      </trkpt>
      <trkpt lat="43.37862" lon="6.13388">
        <ele>395.79998779297</ele>
        <time>2016-05-18T13:31:45Z</time>
      </trkpt>
      <trkpt lat="43.37861" lon="6.13393">
        <ele>395.79998779297</ele>
        <time>2016-05-18T13:31:47Z</time>
      </trkpt>
      <trkpt lat="43.3786" lon="6.13398">
        <ele>395.79998779297</ele>
        <time>2016-05-18T13:31:49Z</time>
      </trkpt>
      <trkpt lat="43.37859" lon="6.13404">
        <ele>395.60000610352</ele>
        <time>2016-05-18T13:31:51Z</time>
      </trkpt>
      <trkpt lat="43.37857" lon="6.13411">
        <ele>395.60000610352</ele>
        <time>2016-05-18T13:31:53Z</time>
      </trkpt>
      <trkpt lat="43.37857" lon="6.13418">
        <ele>396</ele>
        <time>2016-05-18T13:31:55Z</time>
      </trkpt>
      <trkpt lat="43.37857" lon="6.13422">
        <ele>396.20001220703</ele>
        <time>2016-05-18T13:31:56Z</time>
      </trkpt>
      <trkpt lat="43.37857" lon="6.13426">
        <ele>396.20001220703</ele>
        <time>2016-05-18T13:31:57Z</time>
      </trkpt>
      <trkpt lat="43.37856" lon="6.13434">
        <ele>396.39999389648</ele>
        <time>2016-05-18T13:31:59Z</time>
      </trkpt>
      <trkpt lat="43.37856" lon="6.13442">
        <ele>396.39999389648</ele>
        <time>2016-05-18T13:32:01Z</time>
      </trkpt>
      <trkpt lat="43.37854" lon="6.1345">
        <ele>396.39999389648</ele>
        <time>2016-05-18T13:32:03Z</time>
      </trkpt>
      <trkpt lat="43.37855" lon="6.13457">
        <ele>396.60000610352</ele>
        <time>2016-05-18T13:32:05Z</time>
      </trkpt>
      <trkpt lat="43.37854" lon="6.13464">
        <ele>397</ele>
        <time>2016-05-18T13:32:07Z</time>
      </trkpt>
      <trkpt lat="43.37853" lon="6.1347">
        <ele>397.79998779297</ele>
        <time>2016-05-18T13:32:09Z</time>
      </trkpt>
      <trkpt lat="43.37852" lon="6.13476">
        <ele>398.20001220703</ele>
        <time>2016-05-18T13:32:11Z</time>
      </trkpt>
      <trkpt lat="43.37852" lon="6.13481">
        <ele>398.79998779297</ele>
        <time>2016-05-18T13:32:13Z</time>
      </trkpt>
      <trkpt lat="43.37852" lon="6.13484">
        <ele>399</ele>
        <time>2016-05-18T13:32:14Z</time>
      </trkpt>
      <trkpt lat="43.37852" lon="6.13487">
        <ele>399</ele>
        <time>2016-05-18T13:32:15Z</time>
      </trkpt>
      <trkpt lat="43.37851" lon="6.13493">
        <ele>399.60000610352</ele>
        <time>2016-05-18T13:32:17Z</time>
      </trkpt>
      <trkpt lat="43.37851" lon="6.13498">
        <ele>400</ele>
        <time>2016-05-18T13:32:19Z</time>
      </trkpt>
      <trkpt lat="43.37851" lon="6.13503">
        <ele>400.20001220703</ele>
        <time>2016-05-18T13:32:21Z</time>
      </trkpt>
      <trkpt lat="43.37851" lon="6.13506">
        <ele>400.60000610352</ele>
        <time>2016-05-18T13:32:23Z</time>
      </trkpt>
      <trkpt lat="43.37851" lon="6.1351">
        <ele>401</ele>
        <time>2016-05-18T13:32:25Z</time>
      </trkpt>
      <trkpt lat="43.37851" lon="6.13515">
        <ele>401.20001220703</ele>
        <time>2016-05-18T13:32:27Z</time>
      </trkpt>
      <trkpt lat="43.3785" lon="6.13519">
        <ele>401.20001220703</ele>
        <time>2016-05-18T13:32:29Z</time>
      </trkpt>
      <trkpt lat="43.3785" lon="6.13523">
        <ele>401.39999389648</ele>
        <time>2016-05-18T13:32:31Z</time>
      </trkpt>
      <trkpt lat="43.3785" lon="6.13526">
        <ele>401.79998779297</ele>
        <time>2016-05-18T13:32:32Z</time>
      </trkpt>
      <trkpt lat="43.3785" lon="6.13528">
        <ele>401.79998779297</ele>
        <time>2016-05-18T13:32:33Z</time>
      </trkpt>
      <trkpt lat="43.37848" lon="6.13531">
        <ele>402</ele>
        <time>2016-05-18T13:32:35Z</time>
      </trkpt>
      <trkpt lat="43.37847" lon="6.13536">
        <ele>402.20001220703</ele>
        <time>2016-05-18T13:32:37Z</time>
      </trkpt>
      <trkpt lat="43.37846" lon="6.13541">
        <ele>402.20001220703</ele>
        <time>2016-05-18T13:32:39Z</time>
      </trkpt>
      <trkpt lat="43.37846" lon="6.13548">
        <ele>402.20001220703</ele>
        <time>2016-05-18T13:32:41Z</time>
      </trkpt>
      <trkpt lat="43.37844" lon="6.13555">
        <ele>402.20001220703</ele>
        <time>2016-05-18T13:32:43Z</time>
      </trkpt>
      <trkpt lat="43.37843" lon="6.13558">
        <ele>402.20001220703</ele>
        <time>2016-05-18T13:32:44Z</time>
      </trkpt>
      <trkpt lat="43.37841" lon="6.1356">
        <ele>402.39999389648</ele>
        <time>2016-05-18T13:32:45Z</time>
      </trkpt>
      <trkpt lat="43.37837" lon="6.13561">
        <ele>402.39999389648</ele>
        <time>2016-05-18T13:32:47Z</time>
      </trkpt>
      <trkpt lat="43.37834" lon="6.13562">
        <ele>402.39999389648</ele>
        <time>2016-05-18T13:32:49Z</time>
      </trkpt>
      <trkpt lat="43.37832" lon="6.13562">
        <ele>402.39999389648</ele>
        <time>2016-05-18T13:32:50Z</time>
      </trkpt>
      <trkpt lat="43.3783" lon="6.13561">
        <ele>402.39999389648</ele>
        <time>2016-05-18T13:32:51Z</time>
      </trkpt>
      <trkpt lat="43.37824" lon="6.13561">
        <ele>402.39999389648</ele>
        <time>2016-05-18T13:32:53Z</time>
      </trkpt>
      <trkpt lat="43.37821" lon="6.13561">
        <ele>402.39999389648</ele>
        <time>2016-05-18T13:32:54Z</time>
      </trkpt>
      <trkpt lat="43.37818" lon="6.13561">
        <ele>402.20001220703</ele>
        <time>2016-05-18T13:32:55Z</time>
      </trkpt>
      <trkpt lat="43.37812" lon="6.13561">
        <ele>401.39999389648</ele>
        <time>2016-05-18T13:32:57Z</time>
      </trkpt>
      <trkpt lat="43.37808" lon="6.13562">
        <ele>401</ele>
        <time>2016-05-18T13:32:59Z</time>
      </trkpt>
      <trkpt lat="43.37806" lon="6.13563">
        <ele>400.79998779297</ele>
        <time>2016-05-18T13:33:01Z</time>
      </trkpt>
      <trkpt lat="43.37804" lon="6.13564">
        <ele>400.39999389648</ele>
        <time>2016-05-18T13:33:03Z</time>
      </trkpt>
      <trkpt lat="43.37804" lon="6.13564">
        <ele>400.20001220703</ele>
        <time>2016-05-18T13:33:04Z</time>
      </trkpt>
      <trkpt lat="43.37804" lon="6.13564">
        <ele>400.20001220703</ele>
        <time>2016-05-18T13:33:05Z</time>
      </trkpt>
      <trkpt lat="43.37804" lon="6.13564">
        <ele>400.20001220703</ele>
        <time>2016-05-18T13:33:07Z</time>
      </trkpt>
      <trkpt lat="43.37804" lon="6.13564">
        <ele>400.20001220703</ele>
        <time>2016-05-18T13:33:09Z</time>
      </trkpt>
      <trkpt lat="43.37804" lon="6.13564">
        <ele>400.20001220703</ele>
        <time>2016-05-18T13:33:11Z</time>
      </trkpt>
      <trkpt lat="43.37804" lon="6.13564">
        <ele>400.20001220703</ele>
        <time>2016-05-18T13:33:13Z</time>
      </trkpt>
      <trkpt lat="43.37804" lon="6.13564">
        <ele>400.20001220703</ele>
        <time>2016-05-18T13:33:15Z</time>
      </trkpt>
      <trkpt lat="43.37805" lon="6.13564">
        <ele>400.20001220703</ele>
        <time>2016-05-18T13:33:17Z</time>
      </trkpt>
      <trkpt lat="43.37805" lon="6.13564">
        <ele>400.20001220703</ele>
        <time>2016-05-18T13:33:19Z</time>
      </trkpt>
      <trkpt lat="43.37804" lon="6.13564">
        <ele>400.20001220703</ele>
        <time>2016-05-18T13:33:21Z</time>
      </trkpt>
      <trkpt lat="43.37803" lon="6.13564">
        <ele>400.20001220703</ele>
        <time>2016-05-18T13:33:22Z</time>
      </trkpt>
      <trkpt lat="43.37801" lon="6.13565">
        <ele>400.20001220703</ele>
        <time>2016-05-18T13:33:23Z</time>
      </trkpt>
      <trkpt lat="43.37798" lon="6.13567">
        <ele>400.20001220703</ele>
        <time>2016-05-18T13:33:25Z</time>
      </trkpt>
      <trkpt lat="43.37796" lon="6.13568">
        <ele>399.79998779297</ele>
        <time>2016-05-18T13:33:27Z</time>
      </trkpt>
      <trkpt lat="43.37796" lon="6.13568">
        <ele>399.79998779297</ele>
        <time>2016-05-18T13:33:28Z</time>
      </trkpt>
      <trkpt lat="43.37796" lon="6.13568">
        <ele>399.60000610352</ele>
        <time>2016-05-18T13:33:29Z</time>
      </trkpt>
      <trkpt lat="43.37796" lon="6.13568">
        <ele>399.60000610352</ele>
        <time>2016-05-18T13:33:31Z</time>
      </trkpt>
      <trkpt lat="43.37796" lon="6.13568">
        <ele>399.39999389648</ele>
        <time>2016-05-18T13:33:33Z</time>
      </trkpt>
      <trkpt lat="43.37795" lon="6.13568">
        <ele>399.39999389648</ele>
        <time>2016-05-18T13:33:34Z</time>
      </trkpt>
      <trkpt lat="43.37794" lon="6.13568">
        <ele>399.39999389648</ele>
        <time>2016-05-18T13:33:35Z</time>
      </trkpt>
      <trkpt lat="43.3779" lon="6.13568">
        <ele>399.39999389648</ele>
        <time>2016-05-18T13:33:37Z</time>
      </trkpt>
      <trkpt lat="43.37785" lon="6.13568">
        <ele>399.39999389648</ele>
        <time>2016-05-18T13:33:39Z</time>
      </trkpt>
      <trkpt lat="43.37783" lon="6.13569">
        <ele>399.39999389648</ele>
        <time>2016-05-18T13:33:40Z</time>
      </trkpt>
      <trkpt lat="43.37782" lon="6.1357">
        <ele>399.20001220703</ele>
        <time>2016-05-18T13:33:41Z</time>
      </trkpt>
      <trkpt lat="43.37779" lon="6.13572">
        <ele>399.20001220703</ele>
        <time>2016-05-18T13:33:43Z</time>
      </trkpt>
      <trkpt lat="43.37775" lon="6.13574">
        <ele>399</ele>
        <time>2016-05-18T13:33:45Z</time>
      </trkpt>
      <trkpt lat="43.37774" lon="6.13576">
        <ele>399</ele>
        <time>2016-05-18T13:33:46Z</time>
      </trkpt>
      <trkpt lat="43.37772" lon="6.13578">
        <ele>399</ele>
        <time>2016-05-18T13:33:47Z</time>
      </trkpt>
      <trkpt lat="43.37768" lon="6.13581">
        <ele>399.20001220703</ele>
        <time>2016-05-18T13:33:49Z</time>
      </trkpt>
      <trkpt lat="43.37764" lon="6.13587">
        <ele>399.20001220703</ele>
        <time>2016-05-18T13:33:51Z</time>
      </trkpt>
      <trkpt lat="43.37759" lon="6.13592">
        <ele>399.39999389648</ele>
        <time>2016-05-18T13:33:53Z</time>
      </trkpt>
      <trkpt lat="43.37755" lon="6.13597">
        <ele>399.39999389648</ele>
        <time>2016-05-18T13:33:55Z</time>
      </trkpt>
      <trkpt lat="43.37753" lon="6.136">
        <ele>399.39999389648</ele>
        <time>2016-05-18T13:33:56Z</time>
      </trkpt>
      <trkpt lat="43.37751" lon="6.13602">
        <ele>399.39999389648</ele>
        <time>2016-05-18T13:33:57Z</time>
      </trkpt>
      <trkpt lat="43.37745" lon="6.13607">
        <ele>399.20001220703</ele>
        <time>2016-05-18T13:33:59Z</time>
      </trkpt>
      <trkpt lat="43.37739" lon="6.1361">
        <ele>398.60000610352</ele>
        <time>2016-05-18T13:34:01Z</time>
      </trkpt>
      <trkpt lat="43.37733" lon="6.13617">
        <ele>398</ele>
        <time>2016-05-18T13:34:03Z</time>
      </trkpt>
      <trkpt lat="43.37731" lon="6.13621">
        <ele>397.39999389648</ele>
        <time>2016-05-18T13:34:04Z</time>
      </trkpt>
      <trkpt lat="43.37728" lon="6.13626">
        <ele>396.79998779297</ele>
        <time>2016-05-18T13:34:05Z</time>
      </trkpt>
      <trkpt lat="43.37724" lon="6.13631">
        <ele>396</ele>
        <time>2016-05-18T13:34:06Z</time>
      </trkpt>
      <trkpt lat="43.37721" lon="6.13636">
        <ele>395.60000610352</ele>
        <time>2016-05-18T13:34:07Z</time>
      </trkpt>
      <trkpt lat="43.37717" lon="6.13643">
        <ele>395</ele>
        <time>2016-05-18T13:34:08Z</time>
      </trkpt>
      <trkpt lat="43.37712" lon="6.13649">
        <ele>394.60000610352</ele>
        <time>2016-05-18T13:34:09Z</time>
      </trkpt>
      <trkpt lat="43.37708" lon="6.13655">
        <ele>394.20001220703</ele>
        <time>2016-05-18T13:34:10Z</time>
      </trkpt>
      <trkpt lat="43.37703" lon="6.1366">
        <ele>394</ele>
        <time>2016-05-18T13:34:11Z</time>
      </trkpt>
      <trkpt lat="43.37695" lon="6.13668">
        <ele>392.60000610352</ele>
        <time>2016-05-18T13:34:13Z</time>
      </trkpt>
      <trkpt lat="43.37692" lon="6.13671">
        <ele>392</ele>
        <time>2016-05-18T13:34:14Z</time>
      </trkpt>
      <trkpt lat="43.3769" lon="6.13672">
        <ele>391.60000610352</ele>
        <time>2016-05-18T13:34:15Z</time>
      </trkpt>
      <trkpt lat="43.37686" lon="6.13673">
        <ele>390.79998779297</ele>
        <time>2016-05-18T13:34:17Z</time>
      </trkpt>
      <trkpt lat="43.37684" lon="6.13673">
        <ele>390.39999389648</ele>
        <time>2016-05-18T13:34:18Z</time>
      </trkpt>
      <trkpt lat="43.37683" lon="6.13672">
        <ele>390.20001220703</ele>
        <time>2016-05-18T13:34:19Z</time>
      </trkpt>
      <trkpt lat="43.37681" lon="6.13668">
        <ele>389.39999389648</ele>
        <time>2016-05-18T13:34:21Z</time>
      </trkpt>
      <trkpt lat="43.37678" lon="6.13664">
        <ele>388.79998779297</ele>
        <time>2016-05-18T13:34:23Z</time>
      </trkpt>
      <trkpt lat="43.37674" lon="6.1366">
        <ele>388</ele>
        <time>2016-05-18T13:34:25Z</time>
      </trkpt>
      <trkpt lat="43.37671" lon="6.13655">
        <ele>387.20001220703</ele>
        <time>2016-05-18T13:34:27Z</time>
      </trkpt>
      <trkpt lat="43.37669" lon="6.13652">
        <ele>386.79998779297</ele>
        <time>2016-05-18T13:34:28Z</time>
      </trkpt>
      <trkpt lat="43.37667" lon="6.13648">
        <ele>386.20001220703</ele>
        <time>2016-05-18T13:34:29Z</time>
      </trkpt>
      <trkpt lat="43.37664" lon="6.13644">
        <ele>385.39999389648</ele>
        <time>2016-05-18T13:34:31Z</time>
      </trkpt>
      <trkpt lat="43.37662" lon="6.13637">
        <ele>384.79998779297</ele>
        <time>2016-05-18T13:34:33Z</time>
      </trkpt>
      <trkpt lat="43.37661" lon="6.13633">
        <ele>384.39999389648</ele>
        <time>2016-05-18T13:34:34Z</time>
      </trkpt>
      <trkpt lat="43.37659" lon="6.13629">
        <ele>384.20001220703</ele>
        <time>2016-05-18T13:34:35Z</time>
      </trkpt>
      <trkpt lat="43.37656" lon="6.13622">
        <ele>383.39999389648</ele>
        <time>2016-05-18T13:34:37Z</time>
      </trkpt>
      <trkpt lat="43.37654" lon="6.13618">
        <ele>383.20001220703</ele>
        <time>2016-05-18T13:34:38Z</time>
      </trkpt>
      <trkpt lat="43.37652" lon="6.13614">
        <ele>382.79998779297</ele>
        <time>2016-05-18T13:34:39Z</time>
      </trkpt>
      <trkpt lat="43.3765" lon="6.1361">
        <ele>382.20001220703</ele>
        <time>2016-05-18T13:34:40Z</time>
      </trkpt>
      <trkpt lat="43.37649" lon="6.13605">
        <ele>381.60000610352</ele>
        <time>2016-05-18T13:34:41Z</time>
      </trkpt>
      <trkpt lat="43.37647" lon="6.13601">
        <ele>380.60000610352</ele>
        <time>2016-05-18T13:34:42Z</time>
      </trkpt>
      <trkpt lat="43.37646" lon="6.13598">
        <ele>380.20001220703</ele>
        <time>2016-05-18T13:34:43Z</time>
      </trkpt>
      <trkpt lat="43.37645" lon="6.13591">
        <ele>379.20001220703</ele>
        <time>2016-05-18T13:34:45Z</time>
      </trkpt>
      <trkpt lat="43.37642" lon="6.13584">
        <ele>378.20001220703</ele>
        <time>2016-05-18T13:34:47Z</time>
      </trkpt>
      <trkpt lat="43.3764" lon="6.1358">
        <ele>377.60000610352</ele>
        <time>2016-05-18T13:34:48Z</time>
      </trkpt>
      <trkpt lat="43.37637" lon="6.13575">
        <ele>377</ele>
        <time>2016-05-18T13:34:49Z</time>
      </trkpt>
      <trkpt lat="43.37635" lon="6.13571">
        <ele>376.39999389648</ele>
        <time>2016-05-18T13:34:50Z</time>
      </trkpt>
      <trkpt lat="43.37634" lon="6.13566">
        <ele>375.79998779297</ele>
        <time>2016-05-18T13:34:51Z</time>
      </trkpt>
      <trkpt lat="43.37631" lon="6.13555">
        <ele>374.79998779297</ele>
        <time>2016-05-18T13:34:53Z</time>
      </trkpt>
      <trkpt lat="43.37628" lon="6.13545">
        <ele>374</ele>
        <time>2016-05-18T13:34:55Z</time>
      </trkpt>
      <trkpt lat="43.37627" lon="6.13539">
        <ele>374</ele>
        <time>2016-05-18T13:34:56Z</time>
      </trkpt>
      <trkpt lat="43.37625" lon="6.13533">
        <ele>373.60000610352</ele>
        <time>2016-05-18T13:34:57Z</time>
      </trkpt>
      <trkpt lat="43.37624" lon="6.13527">
        <ele>373.39999389648</ele>
        <time>2016-05-18T13:34:58Z</time>
      </trkpt>
      <trkpt lat="43.37621" lon="6.1352">
        <ele>372.79998779297</ele>
        <time>2016-05-18T13:34:59Z</time>
      </trkpt>
      <trkpt lat="43.37619" lon="6.13514">
        <ele>371.79998779297</ele>
        <time>2016-05-18T13:35:00Z</time>
      </trkpt>
      <trkpt lat="43.37617" lon="6.13508">
        <ele>370.79998779297</ele>
        <time>2016-05-18T13:35:01Z</time>
      </trkpt>
      <trkpt lat="43.37616" lon="6.13502">
        <ele>369.60000610352</ele>
        <time>2016-05-18T13:35:02Z</time>
      </trkpt>
      <trkpt lat="43.37614" lon="6.13497">
        <ele>368.79998779297</ele>
        <time>2016-05-18T13:35:03Z</time>
      </trkpt>
      <trkpt lat="43.37613" lon="6.13492">
        <ele>368.39999389648</ele>
        <time>2016-05-18T13:35:04Z</time>
      </trkpt>
      <trkpt lat="43.37611" lon="6.13487">
        <ele>368.39999389648</ele>
        <time>2016-05-18T13:35:05Z</time>
      </trkpt>
      <trkpt lat="43.37608" lon="6.1348">
        <ele>367.60000610352</ele>
        <time>2016-05-18T13:35:07Z</time>
      </trkpt>
      <trkpt lat="43.37606" lon="6.13477">
        <ele>367.20001220703</ele>
        <time>2016-05-18T13:35:08Z</time>
      </trkpt>
      <trkpt lat="43.37605" lon="6.13475">
        <ele>366.39999389648</ele>
        <time>2016-05-18T13:35:09Z</time>
      </trkpt>
      <trkpt lat="43.37605" lon="6.13473">
        <ele>365.39999389648</ele>
        <time>2016-05-18T13:35:10Z</time>
      </trkpt>
      <trkpt lat="43.37603" lon="6.13471">
        <ele>365</ele>
        <time>2016-05-18T13:35:11Z</time>
      </trkpt>
      <trkpt lat="43.37601" lon="6.13467">
        <ele>364.39999389648</ele>
        <time>2016-05-18T13:35:13Z</time>
      </trkpt>
      <trkpt lat="43.37599" lon="6.13465">
        <ele>364</ele>
        <time>2016-05-18T13:35:14Z</time>
      </trkpt>
      <trkpt lat="43.37597" lon="6.13463">
        <ele>363.20001220703</ele>
        <time>2016-05-18T13:35:15Z</time>
      </trkpt>
      <trkpt lat="43.37594" lon="6.13464">
        <ele>362</ele>
        <time>2016-05-18T13:35:17Z</time>
      </trkpt>
      <trkpt lat="43.37591" lon="6.13467">
        <ele>361.39999389648</ele>
        <time>2016-05-18T13:35:19Z</time>
      </trkpt>
      <trkpt lat="43.37589" lon="6.13472">
        <ele>361.20001220703</ele>
        <time>2016-05-18T13:35:21Z</time>
      </trkpt>
      <trkpt lat="43.37587" lon="6.13475">
        <ele>361.20001220703</ele>
        <time>2016-05-18T13:35:22Z</time>
      </trkpt>
      <trkpt lat="43.37586" lon="6.13479">
        <ele>360.79998779297</ele>
        <time>2016-05-18T13:35:23Z</time>
      </trkpt>
      <trkpt lat="43.37583" lon="6.13488">
        <ele>360</ele>
        <time>2016-05-18T13:35:25Z</time>
      </trkpt>
      <trkpt lat="43.37579" lon="6.13498">
        <ele>359.39999389648</ele>
        <time>2016-05-18T13:35:27Z</time>
      </trkpt>
      <trkpt lat="43.37576" lon="6.13507">
        <ele>358.79998779297</ele>
        <time>2016-05-18T13:35:29Z</time>
      </trkpt>
      <trkpt lat="43.37572" lon="6.13514">
        <ele>357.79998779297</ele>
        <time>2016-05-18T13:35:31Z</time>
      </trkpt>
      <trkpt lat="43.3757" lon="6.13516">
        <ele>357.39999389648</ele>
        <time>2016-05-18T13:35:32Z</time>
      </trkpt>
      <trkpt lat="43.37569" lon="6.13517">
        <ele>357</ele>
        <time>2016-05-18T13:35:33Z</time>
      </trkpt>
      <trkpt lat="43.37565" lon="6.13515">
        <ele>356.79998779297</ele>
        <time>2016-05-18T13:35:35Z</time>
      </trkpt>
      <trkpt lat="43.37564" lon="6.13512">
        <ele>356.60000610352</ele>
        <time>2016-05-18T13:35:36Z</time>
      </trkpt>
      <trkpt lat="43.37563" lon="6.13508">
        <ele>356</ele>
        <time>2016-05-18T13:35:37Z</time>
      </trkpt>
      <trkpt lat="43.37563" lon="6.13503">
        <ele>355.60000610352</ele>
        <time>2016-05-18T13:35:38Z</time>
      </trkpt>
      <trkpt lat="43.37562" lon="6.13499">
        <ele>355.20001220703</ele>
        <time>2016-05-18T13:35:39Z</time>
      </trkpt>
      <trkpt lat="43.37561" lon="6.13496">
        <ele>355</ele>
        <time>2016-05-18T13:35:40Z</time>
      </trkpt>
      <trkpt lat="43.3756" lon="6.13494">
        <ele>354.79998779297</ele>
        <time>2016-05-18T13:35:41Z</time>
      </trkpt>
      <trkpt lat="43.37559" lon="6.13491">
        <ele>354.39999389648</ele>
        <time>2016-05-18T13:35:42Z</time>
      </trkpt>
      <trkpt lat="43.37558" lon="6.13488">
        <ele>353.39999389648</ele>
        <time>2016-05-18T13:35:43Z</time>
      </trkpt>
      <trkpt lat="43.37557" lon="6.13485">
        <ele>353</ele>
        <time>2016-05-18T13:35:44Z</time>
      </trkpt>
      <trkpt lat="43.37556" lon="6.13483">
        <ele>352.79998779297</ele>
        <time>2016-05-18T13:35:45Z</time>
      </trkpt>
      <trkpt lat="43.37554" lon="6.13478">
        <ele>352.60000610352</ele>
        <time>2016-05-18T13:35:47Z</time>
      </trkpt>
      <trkpt lat="43.37553" lon="6.13472">
        <ele>352.60000610352</ele>
        <time>2016-05-18T13:35:49Z</time>
      </trkpt>
      <trkpt lat="43.37552" lon="6.1347">
        <ele>352.39999389648</ele>
        <time>2016-05-18T13:35:50Z</time>
      </trkpt>
      <trkpt lat="43.37551" lon="6.13468">
        <ele>352</ele>
        <time>2016-05-18T13:35:51Z</time>
      </trkpt>
      <trkpt lat="43.37549" lon="6.13466">
        <ele>351.20001220703</ele>
        <time>2016-05-18T13:35:52Z</time>
      </trkpt>
      <trkpt lat="43.37547" lon="6.13463">
        <ele>350.60000610352</ele>
        <time>2016-05-18T13:35:53Z</time>
      </trkpt>
      <trkpt lat="43.37545" lon="6.13461">
        <ele>350.20001220703</ele>
        <time>2016-05-18T13:35:54Z</time>
      </trkpt>
      <trkpt lat="43.37542" lon="6.13459">
        <ele>349.79998779297</ele>
        <time>2016-05-18T13:35:55Z</time>
      </trkpt>
      <trkpt lat="43.3754" lon="6.13458">
        <ele>349</ele>
        <time>2016-05-18T13:35:56Z</time>
      </trkpt>
      <trkpt lat="43.37537" lon="6.13458">
        <ele>348.39999389648</ele>
        <time>2016-05-18T13:35:57Z</time>
      </trkpt>
      <trkpt lat="43.37532" lon="6.1346">
        <ele>347.60000610352</ele>
        <time>2016-05-18T13:35:59Z</time>
      </trkpt>
      <trkpt lat="43.37526" lon="6.13464">
        <ele>346.60000610352</ele>
        <time>2016-05-18T13:36:01Z</time>
      </trkpt>
      <trkpt lat="43.37524" lon="6.13466">
        <ele>345.79998779297</ele>
        <time>2016-05-18T13:36:03Z</time>
      </trkpt>
      <trkpt lat="43.37523" lon="6.13466">
        <ele>345.79998779297</ele>
        <time>2016-05-18T13:36:05Z</time>
      </trkpt>
      <trkpt lat="43.37523" lon="6.13466">
        <ele>345.79998779297</ele>
        <time>2016-05-18T13:36:07Z</time>
      </trkpt>
      <trkpt lat="43.37523" lon="6.13466">
        <ele>345.79998779297</ele>
        <time>2016-05-18T13:36:09Z</time>
      </trkpt>
      <trkpt lat="43.37523" lon="6.13466">
        <ele>345.79998779297</ele>
        <time>2016-05-18T13:36:11Z</time>
      </trkpt>
      <trkpt lat="43.37523" lon="6.13467">
        <ele>346</ele>
        <time>2016-05-18T13:36:13Z</time>
      </trkpt>
      <trkpt lat="43.37523" lon="6.13466">
        <ele>346</ele>
        <time>2016-05-18T13:36:15Z</time>
      </trkpt>
      <trkpt lat="43.37523" lon="6.13466">
        <ele>346</ele>
        <time>2016-05-18T13:36:17Z</time>
      </trkpt>
      <trkpt lat="43.37523" lon="6.13466">
        <ele>345.79998779297</ele>
        <time>2016-05-18T13:36:19Z</time>
      </trkpt>
      <trkpt lat="43.37523" lon="6.13466">
        <ele>345.79998779297</ele>
        <time>2016-05-18T13:36:21Z</time>
      </trkpt>
      <trkpt lat="43.37523" lon="6.13467">
        <ele>345.60000610352</ele>
        <time>2016-05-18T13:36:23Z</time>
      </trkpt>
      <trkpt lat="43.37523" lon="6.13467">
        <ele>345.60000610352</ele>
        <time>2016-05-18T13:36:25Z</time>
      </trkpt>
      <trkpt lat="43.37523" lon="6.13467">
        <ele>345.39999389648</ele>
        <time>2016-05-18T13:36:27Z</time>
      </trkpt>
      <trkpt lat="43.37523" lon="6.13467">
        <ele>345.39999389648</ele>
        <time>2016-05-18T13:36:29Z</time>
      </trkpt>
      <trkpt lat="43.37523" lon="6.13467">
        <ele>345.39999389648</ele>
        <time>2016-05-18T13:36:31Z</time>
      </trkpt>
      <trkpt lat="43.37523" lon="6.13467">
        <ele>345.39999389648</ele>
        <time>2016-05-18T13:36:33Z</time>
      </trkpt>
      <trkpt lat="43.37523" lon="6.13467">
        <ele>345.60000610352</ele>
        <time>2016-05-18T13:36:35Z</time>
      </trkpt>
      <trkpt lat="43.37523" lon="6.13467">
        <ele>345.60000610352</ele>
        <time>2016-05-18T13:36:37Z</time>
      </trkpt>
      <trkpt lat="43.37523" lon="6.13467">
        <ele>345.39999389648</ele>
        <time>2016-05-18T13:36:39Z</time>
      </trkpt>
      <trkpt lat="43.37523" lon="6.13467">
        <ele>345.20001220703</ele>
        <time>2016-05-18T13:36:41Z</time>
      </trkpt>
      <trkpt lat="43.37523" lon="6.13467">
        <ele>345.20001220703</ele>
        <time>2016-05-18T13:36:43Z</time>
      </trkpt>
      <trkpt lat="43.37523" lon="6.13467">
        <ele>345.20001220703</ele>
        <time>2016-05-18T13:36:45Z</time>
      </trkpt>
      <trkpt lat="43.37523" lon="6.13467">
        <ele>345.20001220703</ele>
        <time>2016-05-18T13:36:47Z</time>
      </trkpt>
      <trkpt lat="43.37523" lon="6.13467">
        <ele>345.39999389648</ele>
        <time>2016-05-18T13:36:49Z</time>
      </trkpt>
      <trkpt lat="43.37523" lon="6.13467">
        <ele>345.39999389648</ele>
        <time>2016-05-18T13:36:51Z</time>
      </trkpt>
      <trkpt lat="43.37523" lon="6.13467">
        <ele>345.39999389648</ele>
        <time>2016-05-18T13:36:53Z</time>
      </trkpt>
      <trkpt lat="43.37523" lon="6.13467">
        <ele>345.39999389648</ele>
        <time>2016-05-18T13:36:55Z</time>
      </trkpt>
      <trkpt lat="43.37523" lon="6.13467">
        <ele>345.39999389648</ele>
        <time>2016-05-18T13:36:56Z</time>
      </trkpt>
      <trkpt lat="43.37523" lon="6.13467">
        <ele>345.39999389648</ele>
        <time>2016-05-18T13:36:59Z</time>
      </trkpt>
      <trkpt lat="43.37523" lon="6.13467">
        <ele>345.39999389648</ele>
        <time>2016-05-18T13:37:01Z</time>
      </trkpt>
      <trkpt lat="43.37523" lon="6.13467">
        <ele>345.39999389648</ele>
        <time>2016-05-18T13:37:03Z</time>
      </trkpt>
      <trkpt lat="43.37523" lon="6.13467">
        <ele>345.39999389648</ele>
        <time>2016-05-18T13:37:05Z</time>
      </trkpt>
      <trkpt lat="43.37523" lon="6.13467">
        <ele>345.39999389648</ele>
        <time>2016-05-18T13:37:07Z</time>
      </trkpt>
      <trkpt lat="43.37523" lon="6.13467">
        <ele>345.39999389648</ele>
        <time>2016-05-18T13:37:09Z</time>
      </trkpt>
      <trkpt lat="43.37523" lon="6.13467">
        <ele>345.39999389648</ele>
        <time>2016-05-18T13:37:11Z</time>
      </trkpt>
      <trkpt lat="43.37523" lon="6.13467">
        <ele>345.39999389648</ele>
        <time>2016-05-18T13:37:13Z</time>
      </trkpt>
      <trkpt lat="43.37523" lon="6.13467">
        <ele>345.39999389648</ele>
        <time>2016-05-18T13:37:15Z</time>
      </trkpt>
      <trkpt lat="43.37523" lon="6.13467">
        <ele>345.60000610352</ele>
        <time>2016-05-18T13:37:17Z</time>
      </trkpt>
      <trkpt lat="43.37523" lon="6.13467">
        <ele>345.60000610352</ele>
        <time>2016-05-18T13:37:19Z</time>
      </trkpt>
      <trkpt lat="43.37523" lon="6.13467">
        <ele>345.60000610352</ele>
        <time>2016-05-18T13:37:21Z</time>
      </trkpt>
      <trkpt lat="43.37523" lon="6.13467">
        <ele>345.60000610352</ele>
        <time>2016-05-18T13:37:23Z</time>
      </trkpt>
      <trkpt lat="43.37523" lon="6.13467">
        <ele>345.60000610352</ele>
        <time>2016-05-18T13:37:25Z</time>
      </trkpt>
      <trkpt lat="43.37523" lon="6.13467">
        <ele>345.39999389648</ele>
        <time>2016-05-18T13:37:27Z</time>
      </trkpt>
      <trkpt lat="43.37523" lon="6.13467">
        <ele>345.39999389648</ele>
        <time>2016-05-18T13:37:29Z</time>
      </trkpt>
      <trkpt lat="43.37523" lon="6.13467">
        <ele>345.39999389648</ele>
        <time>2016-05-18T13:37:31Z</time>
      </trkpt>
      <trkpt lat="43.37523" lon="6.13467">
        <ele>345.60000610352</ele>
        <time>2016-05-18T13:37:33Z</time>
      </trkpt>
      <trkpt lat="43.37523" lon="6.13467">
        <ele>345.60000610352</ele>
        <time>2016-05-18T13:37:35Z</time>
      </trkpt>
      <trkpt lat="43.37523" lon="6.13467">
        <ele>345.60000610352</ele>
        <time>2016-05-18T13:37:37Z</time>
      </trkpt>
      <trkpt lat="43.37523" lon="6.13467">
        <ele>345.79998779297</ele>
        <time>2016-05-18T13:37:39Z</time>
      </trkpt>
      <trkpt lat="43.37523" lon="6.13467">
        <ele>346</ele>
        <time>2016-05-18T13:37:41Z</time>
      </trkpt>
      <trkpt lat="43.37523" lon="6.13467">
        <ele>346</ele>
        <time>2016-05-18T13:37:43Z</time>
      </trkpt>
      <trkpt lat="43.37523" lon="6.13467">
        <ele>345.79998779297</ele>
        <time>2016-05-18T13:37:45Z</time>
      </trkpt>
      <trkpt lat="43.37523" lon="6.13467">
        <ele>345.79998779297</ele>
        <time>2016-05-18T13:37:47Z</time>
      </trkpt>
      <trkpt lat="43.37523" lon="6.13467">
        <ele>345.79998779297</ele>
        <time>2016-05-18T13:37:49Z</time>
      </trkpt>
      <trkpt lat="43.37523" lon="6.13467">
        <ele>345.60000610352</ele>
        <time>2016-05-18T13:37:51Z</time>
      </trkpt>
      <trkpt lat="43.37523" lon="6.13467">
        <ele>345.60000610352</ele>
        <time>2016-05-18T13:37:53Z</time>
      </trkpt>
      <trkpt lat="43.37523" lon="6.13467">
        <ele>345.60000610352</ele>
        <time>2016-05-18T13:37:55Z</time>
      </trkpt>
      <trkpt lat="43.37523" lon="6.13467">
        <ele>345.60000610352</ele>
        <time>2016-05-18T13:37:57Z</time>
      </trkpt>
      <trkpt lat="43.37523" lon="6.13467">
        <ele>345.39999389648</ele>
        <time>2016-05-18T13:37:59Z</time>
      </trkpt>
      <trkpt lat="43.37523" lon="6.13467">
        <ele>345.39999389648</ele>
        <time>2016-05-18T13:38:01Z</time>
      </trkpt>
      <trkpt lat="43.37523" lon="6.13467">
        <ele>345.39999389648</ele>
        <time>2016-05-18T13:38:03Z</time>
      </trkpt>
      <trkpt lat="43.37523" lon="6.13467">
        <ele>345.39999389648</ele>
        <time>2016-05-18T13:38:05Z</time>
      </trkpt>
      <trkpt lat="43.37523" lon="6.13467">
        <ele>345.39999389648</ele>
        <time>2016-05-18T13:38:07Z</time>
      </trkpt>
      <trkpt lat="43.37523" lon="6.13467">
        <ele>345.39999389648</ele>
        <time>2016-05-18T13:38:09Z</time>
      </trkpt>
      <trkpt lat="43.37523" lon="6.13467">
        <ele>345.39999389648</ele>
        <time>2016-05-18T13:38:11Z</time>
      </trkpt>
      <trkpt lat="43.37523" lon="6.13467">
        <ele>345.39999389648</ele>
        <time>2016-05-18T13:38:13Z</time>
      </trkpt>
      <trkpt lat="43.37523" lon="6.13467">
        <ele>345.39999389648</ele>
        <time>2016-05-18T13:38:15Z</time>
      </trkpt>
      <trkpt lat="43.37523" lon="6.13467">
        <ele>345.39999389648</ele>
        <time>2016-05-18T13:38:17Z</time>
      </trkpt>
      <trkpt lat="43.37523" lon="6.13467">
        <ele>345.39999389648</ele>
        <time>2016-05-18T13:38:19Z</time>
      </trkpt>
      <trkpt lat="43.37523" lon="6.13467">
        <ele>345.39999389648</ele>
        <time>2016-05-18T13:38:21Z</time>
      </trkpt>
      <trkpt lat="43.37523" lon="6.13467">
        <ele>345.60000610352</ele>
        <time>2016-05-18T13:38:23Z</time>
      </trkpt>
      <trkpt lat="43.37523" lon="6.13467">
        <ele>345.60000610352</ele>
        <time>2016-05-18T13:38:25Z</time>
      </trkpt>
      <trkpt lat="43.37523" lon="6.13467">
        <ele>345.39999389648</ele>
        <time>2016-05-18T13:38:27Z</time>
      </trkpt>
      <trkpt lat="43.37523" lon="6.13467">
        <ele>345.60000610352</ele>
        <time>2016-05-18T13:38:29Z</time>
      </trkpt>
      <trkpt lat="43.37523" lon="6.13467">
        <ele>345.39999389648</ele>
        <time>2016-05-18T13:38:31Z</time>
      </trkpt>
      <trkpt lat="43.37523" lon="6.13467">
        <ele>345.60000610352</ele>
        <time>2016-05-18T13:38:33Z</time>
      </trkpt>
      <trkpt lat="43.37523" lon="6.13467">
        <ele>345.60000610352</ele>
        <time>2016-05-18T13:38:35Z</time>
      </trkpt>
      <trkpt lat="43.37523" lon="6.13467">
        <ele>345.60000610352</ele>
        <time>2016-05-18T13:38:37Z</time>
      </trkpt>
      <trkpt lat="43.37523" lon="6.13467">
        <ele>345.39999389648</ele>
        <time>2016-05-18T13:38:39Z</time>
      </trkpt>
      <trkpt lat="43.37523" lon="6.13467">
        <ele>345.39999389648</ele>
        <time>2016-05-18T13:38:41Z</time>
      </trkpt>
      <trkpt lat="43.37523" lon="6.13467">
        <ele>345.39999389648</ele>
        <time>2016-05-18T13:38:43Z</time>
      </trkpt>
      <trkpt lat="43.37523" lon="6.13467">
        <ele>345.60000610352</ele>
        <time>2016-05-18T13:38:45Z</time>
      </trkpt>
      <trkpt lat="43.37523" lon="6.13467">
        <ele>345.39999389648</ele>
        <time>2016-05-18T13:38:47Z</time>
      </trkpt>
      <trkpt lat="43.37523" lon="6.13467">
        <ele>345.39999389648</ele>
        <time>2016-05-18T13:38:49Z</time>
      </trkpt>
      <trkpt lat="43.37523" lon="6.13467">
        <ele>345.39999389648</ele>
        <time>2016-05-18T13:38:51Z</time>
      </trkpt>
      <trkpt lat="43.37523" lon="6.13467">
        <ele>345.20001220703</ele>
        <time>2016-05-18T13:38:53Z</time>
      </trkpt>
      <trkpt lat="43.37523" lon="6.13467">
        <ele>345</ele>
        <time>2016-05-18T13:38:54Z</time>
      </trkpt>
      <trkpt lat="43.37523" lon="6.13467">
        <ele>344.79998779297</ele>
        <time>2016-05-18T13:38:57Z</time>
      </trkpt>
      <trkpt lat="43.37523" lon="6.13467">
        <ele>344.79998779297</ele>
        <time>2016-05-18T13:38:59Z</time>
      </trkpt>
      <trkpt lat="43.37523" lon="6.13467">
        <ele>345</ele>
        <time>2016-05-18T13:39:01Z</time>
      </trkpt>
      <trkpt lat="43.37523" lon="6.13467">
        <ele>345.20001220703</ele>
        <time>2016-05-18T13:39:03Z</time>
      </trkpt>
      <trkpt lat="43.37523" lon="6.13467">
        <ele>345.20001220703</ele>
        <time>2016-05-18T13:39:05Z</time>
      </trkpt>
      <trkpt lat="43.37523" lon="6.13467">
        <ele>345.39999389648</ele>
        <time>2016-05-18T13:39:07Z</time>
      </trkpt>
      <trkpt lat="43.37523" lon="6.13467">
        <ele>345.20001220703</ele>
        <time>2016-05-18T13:39:09Z</time>
      </trkpt>
      <trkpt lat="43.37523" lon="6.13467">
        <ele>345.20001220703</ele>
        <time>2016-05-18T13:39:11Z</time>
      </trkpt>
      <trkpt lat="43.37523" lon="6.13467">
        <ele>345</ele>
        <time>2016-05-18T13:39:13Z</time>
      </trkpt>
      <trkpt lat="43.37523" lon="6.13467">
        <ele>345</ele>
        <time>2016-05-18T13:39:15Z</time>
      </trkpt>
      <trkpt lat="43.37523" lon="6.13467">
        <ele>345</ele>
        <time>2016-05-18T13:39:17Z</time>
      </trkpt>
      <trkpt lat="43.37523" lon="6.13467">
        <ele>345</ele>
        <time>2016-05-18T13:39:18Z</time>
      </trkpt>
      <trkpt lat="43.37524" lon="6.13467">
        <ele>345</ele>
        <time>2016-05-18T13:39:19Z</time>
      </trkpt>
      <trkpt lat="43.37525" lon="6.13465">
        <ele>345.20001220703</ele>
        <time>2016-05-18T13:39:21Z</time>
      </trkpt>
      <trkpt lat="43.37525" lon="6.13465">
        <ele>345.39999389648</ele>
        <time>2016-05-18T13:39:23Z</time>
      </trkpt>
      <trkpt lat="43.37526" lon="6.13465">
        <ele>345.60000610352</ele>
        <time>2016-05-18T13:39:24Z</time>
      </trkpt>
      <trkpt lat="43.37525" lon="6.13465">
        <ele>345.60000610352</ele>
        <time>2016-05-18T13:39:25Z</time>
      </trkpt>
      <trkpt lat="43.37525" lon="6.13465">
        <ele>345.79998779297</ele>
        <time>2016-05-18T13:39:27Z</time>
      </trkpt>
      <trkpt lat="43.37525" lon="6.13465">
        <ele>345.79998779297</ele>
        <time>2016-05-18T13:39:29Z</time>
      </trkpt>
      <trkpt lat="43.37524" lon="6.13465">
        <ele>345.60000610352</ele>
        <time>2016-05-18T13:39:31Z</time>
      </trkpt>
      <trkpt lat="43.37524" lon="6.13465">
        <ele>345.60000610352</ele>
        <time>2016-05-18T13:39:33Z</time>
      </trkpt>
      <trkpt lat="43.37524" lon="6.13465">
        <ele>345.60000610352</ele>
        <time>2016-05-18T13:39:35Z</time>
      </trkpt>
      <trkpt lat="43.37524" lon="6.13465">
        <ele>345.79998779297</ele>
        <time>2016-05-18T13:39:37Z</time>
      </trkpt>
      <trkpt lat="43.37524" lon="6.13465">
        <ele>346</ele>
        <time>2016-05-18T13:39:39Z</time>
      </trkpt>
      <trkpt lat="43.37524" lon="6.13465">
        <ele>346</ele>
        <time>2016-05-18T13:39:41Z</time>
      </trkpt>
      <trkpt lat="43.37524" lon="6.13466">
        <ele>346</ele>
        <time>2016-05-18T13:39:42Z</time>
      </trkpt>
      <trkpt lat="43.37524" lon="6.13466">
        <ele>346</ele>
        <time>2016-05-18T13:39:43Z</time>
      </trkpt>
      <trkpt lat="43.37524" lon="6.13466">
        <ele>345.79998779297</ele>
        <time>2016-05-18T13:39:45Z</time>
      </trkpt>
      <trkpt lat="43.37524" lon="6.13466">
        <ele>345.60000610352</ele>
        <time>2016-05-18T13:39:47Z</time>
      </trkpt>
      <trkpt lat="43.37524" lon="6.13466">
        <ele>345.60000610352</ele>
        <time>2016-05-18T13:39:49Z</time>
      </trkpt>
      <trkpt lat="43.37524" lon="6.13466">
        <ele>345.60000610352</ele>
        <time>2016-05-18T13:39:51Z</time>
      </trkpt>
      <trkpt lat="43.37524" lon="6.13466">
        <ele>345.60000610352</ele>
        <time>2016-05-18T13:39:53Z</time>
      </trkpt>
      <trkpt lat="43.37524" lon="6.13466">
        <ele>345.39999389648</ele>
        <time>2016-05-18T13:39:55Z</time>
      </trkpt>
      <trkpt lat="43.37524" lon="6.13466">
        <ele>345.39999389648</ele>
        <time>2016-05-18T13:39:57Z</time>
      </trkpt>
      <trkpt lat="43.37524" lon="6.13466">
        <ele>345.39999389648</ele>
        <time>2016-05-18T13:39:59Z</time>
      </trkpt>
      <trkpt lat="43.37524" lon="6.13466">
        <ele>345.39999389648</ele>
        <time>2016-05-18T13:40:00Z</time>
      </trkpt>
      <trkpt lat="43.37524" lon="6.13466">
        <ele>345.39999389648</ele>
        <time>2016-05-18T13:40:01Z</time>
      </trkpt>
      <trkpt lat="43.37524" lon="6.13466">
        <ele>345.39999389648</ele>
        <time>2016-05-18T13:40:03Z</time>
      </trkpt>
      <trkpt lat="43.37524" lon="6.13466">
        <ele>345.60000610352</ele>
        <time>2016-05-18T13:40:05Z</time>
      </trkpt>
      <trkpt lat="43.37524" lon="6.13466">
        <ele>345.60000610352</ele>
        <time>2016-05-18T13:40:07Z</time>
      </trkpt>
      <trkpt lat="43.37524" lon="6.13466">
        <ele>345.60000610352</ele>
        <time>2016-05-18T13:40:09Z</time>
      </trkpt>
      <trkpt lat="43.37524" lon="6.13466">
        <ele>345.60000610352</ele>
        <time>2016-05-18T13:40:11Z</time>
      </trkpt>
      <trkpt lat="43.37524" lon="6.13466">
        <ele>345.60000610352</ele>
        <time>2016-05-18T13:40:13Z</time>
      </trkpt>
      <trkpt lat="43.37524" lon="6.13466">
        <ele>345.60000610352</ele>
        <time>2016-05-18T13:40:15Z</time>
      </trkpt>
      <trkpt lat="43.37524" lon="6.13466">
        <ele>345.79998779297</ele>
        <time>2016-05-18T13:40:17Z</time>
      </trkpt>
      <trkpt lat="43.37524" lon="6.13466">
        <ele>345.79998779297</ele>
        <time>2016-05-18T13:40:19Z</time>
      </trkpt>
      <trkpt lat="43.37524" lon="6.13466">
        <ele>345.79998779297</ele>
        <time>2016-05-18T13:40:21Z</time>
      </trkpt>
      <trkpt lat="43.37524" lon="6.13466">
        <ele>345.79998779297</ele>
        <time>2016-05-18T13:40:23Z</time>
      </trkpt>
      <trkpt lat="43.37524" lon="6.13466">
        <ele>346</ele>
        <time>2016-05-18T13:40:24Z</time>
      </trkpt>
      <trkpt lat="43.37524" lon="6.13466">
        <ele>346.20001220703</ele>
        <time>2016-05-18T13:40:25Z</time>
      </trkpt>
      <trkpt lat="43.37524" lon="6.13466">
        <ele>346.20001220703</ele>
        <time>2016-05-18T13:40:27Z</time>
      </trkpt>
      <trkpt lat="43.37524" lon="6.13466">
        <ele>346.20001220703</ele>
        <time>2016-05-18T13:40:29Z</time>
      </trkpt>
      <trkpt lat="43.37524" lon="6.13466">
        <ele>346.20001220703</ele>
        <time>2016-05-18T13:40:31Z</time>
      </trkpt>
      <trkpt lat="43.37524" lon="6.13466">
        <ele>346.20001220703</ele>
        <time>2016-05-18T13:40:33Z</time>
      </trkpt>
      <trkpt lat="43.37524" lon="6.13466">
        <ele>346.20001220703</ele>
        <time>2016-05-18T13:40:35Z</time>
      </trkpt>
      <trkpt lat="43.37524" lon="6.13466">
        <ele>346</ele>
        <time>2016-05-18T13:40:37Z</time>
      </trkpt>
      <trkpt lat="43.37524" lon="6.13466">
        <ele>345.79998779297</ele>
        <time>2016-05-18T13:40:39Z</time>
      </trkpt>
      <trkpt lat="43.37524" lon="6.13466">
        <ele>345.79998779297</ele>
        <time>2016-05-18T13:40:41Z</time>
      </trkpt>
      <trkpt lat="43.37524" lon="6.13466">
        <ele>345.79998779297</ele>
        <time>2016-05-18T13:40:43Z</time>
      </trkpt>
      <trkpt lat="43.37524" lon="6.13466">
        <ele>345.79998779297</ele>
        <time>2016-05-18T13:40:45Z</time>
      </trkpt>
      <trkpt lat="43.37524" lon="6.13466">
        <ele>345.79998779297</ele>
        <time>2016-05-18T13:40:47Z</time>
      </trkpt>
      <trkpt lat="43.37524" lon="6.13466">
        <ele>345.79998779297</ele>
        <time>2016-05-18T13:40:49Z</time>
      </trkpt>
      <trkpt lat="43.37524" lon="6.13466">
        <ele>345.79998779297</ele>
        <time>2016-05-18T13:40:51Z</time>
      </trkpt>
      <trkpt lat="43.37524" lon="6.13467">
        <ele>345.79998779297</ele>
        <time>2016-05-18T13:40:53Z</time>
      </trkpt>
      <trkpt lat="43.37524" lon="6.13468">
        <ele>346</ele>
        <time>2016-05-18T13:40:54Z</time>
      </trkpt>
      <trkpt lat="43.37524" lon="6.13469">
        <ele>346</ele>
        <time>2016-05-18T13:40:55Z</time>
      </trkpt>
      <trkpt lat="43.37524" lon="6.13473">
        <ele>346.39999389648</ele>
        <time>2016-05-18T13:40:57Z</time>
      </trkpt>
      <trkpt lat="43.37524" lon="6.13477">
        <ele>346.60000610352</ele>
        <time>2016-05-18T13:40:59Z</time>
      </trkpt>
      <trkpt lat="43.37524" lon="6.13479">
        <ele>346.60000610352</ele>
        <time>2016-05-18T13:41:00Z</time>
      </trkpt>
      <trkpt lat="43.37524" lon="6.13481">
        <ele>346.60000610352</ele>
        <time>2016-05-18T13:41:01Z</time>
      </trkpt>
      <trkpt lat="43.37523" lon="6.13483">
        <ele>346.79998779297</ele>
        <time>2016-05-18T13:41:02Z</time>
      </trkpt>
      <trkpt lat="43.37523" lon="6.13485">
        <ele>346.79998779297</ele>
        <time>2016-05-18T13:41:03Z</time>
      </trkpt>
      <trkpt lat="43.37523" lon="6.13488">
        <ele>346.79998779297</ele>
        <time>2016-05-18T13:41:04Z</time>
      </trkpt>
      <trkpt lat="43.37524" lon="6.1349">
        <ele>347</ele>
        <time>2016-05-18T13:41:05Z</time>
      </trkpt>
      <trkpt lat="43.37525" lon="6.13495">
        <ele>347.20001220703</ele>
        <time>2016-05-18T13:41:07Z</time>
      </trkpt>
      <trkpt lat="43.37526" lon="6.13497">
        <ele>347.20001220703</ele>
        <time>2016-05-18T13:41:08Z</time>
      </trkpt>
      <trkpt lat="43.37526" lon="6.13499">
        <ele>347.20001220703</ele>
        <time>2016-05-18T13:41:09Z</time>
      </trkpt>
      <trkpt lat="43.37526" lon="6.13505">
        <ele>347.39999389648</ele>
        <time>2016-05-18T13:41:11Z</time>
      </trkpt>
      <trkpt lat="43.37527" lon="6.1351">
        <ele>347.60000610352</ele>
        <time>2016-05-18T13:41:13Z</time>
      </trkpt>
      <trkpt lat="43.37527" lon="6.13512">
        <ele>347.60000610352</ele>
        <time>2016-05-18T13:41:14Z</time>
      </trkpt>
      <trkpt lat="43.37528" lon="6.13515">
        <ele>347.79998779297</ele>
        <time>2016-05-18T13:41:15Z</time>
      </trkpt>
      <trkpt lat="43.37528" lon="6.13522">
        <ele>347.79998779297</ele>
        <time>2016-05-18T13:41:17Z</time>
      </trkpt>
      <trkpt lat="43.37529" lon="6.13528">
        <ele>347.60000610352</ele>
        <time>2016-05-18T13:41:19Z</time>
      </trkpt>
      <trkpt lat="43.37529" lon="6.13535">
        <ele>347.60000610352</ele>
        <time>2016-05-18T13:41:21Z</time>
      </trkpt>
      <trkpt lat="43.37529" lon="6.13542">
        <ele>347.39999389648</ele>
        <time>2016-05-18T13:41:23Z</time>
      </trkpt>
      <trkpt lat="43.37529" lon="6.13548">
        <ele>347.60000610352</ele>
        <time>2016-05-18T13:41:25Z</time>
      </trkpt>
      <trkpt lat="43.3753" lon="6.13554">
        <ele>348</ele>
        <time>2016-05-18T13:41:27Z</time>
      </trkpt>
      <trkpt lat="43.37531" lon="6.1356">
        <ele>348.39999389648</ele>
        <time>2016-05-18T13:41:29Z</time>
      </trkpt>
      <trkpt lat="43.37532" lon="6.13562">
        <ele>348.60000610352</ele>
        <time>2016-05-18T13:41:30Z</time>
      </trkpt>
      <trkpt lat="43.37532" lon="6.13565">
        <ele>349</ele>
        <time>2016-05-18T13:41:31Z</time>
      </trkpt>
      <trkpt lat="43.37534" lon="6.13571">
        <ele>349.39999389648</ele>
        <time>2016-05-18T13:41:33Z</time>
      </trkpt>
      <trkpt lat="43.37534" lon="6.13573">
        <ele>350</ele>
        <time>2016-05-18T13:41:34Z</time>
      </trkpt>
      <trkpt lat="43.37535" lon="6.13576">
        <ele>350.20001220703</ele>
        <time>2016-05-18T13:41:35Z</time>
      </trkpt>
      <trkpt lat="43.37537" lon="6.13582">
        <ele>350.60000610352</ele>
        <time>2016-05-18T13:41:37Z</time>
      </trkpt>
      <trkpt lat="43.37538" lon="6.13587">
        <ele>351</ele>
        <time>2016-05-18T13:41:39Z</time>
      </trkpt>
      <trkpt lat="43.37539" lon="6.1359">
        <ele>351</ele>
        <time>2016-05-18T13:41:40Z</time>
      </trkpt>
      <trkpt lat="43.37539" lon="6.13593">
        <ele>351</ele>
        <time>2016-05-18T13:41:41Z</time>
      </trkpt>
      <trkpt lat="43.37541" lon="6.13598">
        <ele>351.39999389648</ele>
        <time>2016-05-18T13:41:43Z</time>
      </trkpt>
      <trkpt lat="43.37542" lon="6.13601">
        <ele>351.39999389648</ele>
        <time>2016-05-18T13:41:44Z</time>
      </trkpt>
      <trkpt lat="43.37543" lon="6.13604">
        <ele>351.39999389648</ele>
        <time>2016-05-18T13:41:45Z</time>
      </trkpt>
      <trkpt lat="43.37544" lon="6.1361">
        <ele>351.60000610352</ele>
        <time>2016-05-18T13:41:47Z</time>
      </trkpt>
      <trkpt lat="43.37545" lon="6.13615">
        <ele>351.39999389648</ele>
        <time>2016-05-18T13:41:49Z</time>
      </trkpt>
      <trkpt lat="43.37547" lon="6.13621">
        <ele>351.79998779297</ele>
        <time>2016-05-18T13:41:51Z</time>
      </trkpt>
      <trkpt lat="43.37548" lon="6.13624">
        <ele>351.60000610352</ele>
        <time>2016-05-18T13:41:52Z</time>
      </trkpt>
      <trkpt lat="43.37549" lon="6.13626">
        <ele>351.79998779297</ele>
        <time>2016-05-18T13:41:53Z</time>
      </trkpt>
      <trkpt lat="43.37551" lon="6.13631">
        <ele>352</ele>
        <time>2016-05-18T13:41:55Z</time>
      </trkpt>
      <trkpt lat="43.37552" lon="6.13635">
        <ele>352</ele>
        <time>2016-05-18T13:41:57Z</time>
      </trkpt>
      <trkpt lat="43.37553" lon="6.1364">
        <ele>352.20001220703</ele>
        <time>2016-05-18T13:41:59Z</time>
      </trkpt>
      <trkpt lat="43.37554" lon="6.13646">
        <ele>352.60000610352</ele>
        <time>2016-05-18T13:42:01Z</time>
      </trkpt>
      <trkpt lat="43.37555" lon="6.13651">
        <ele>352.60000610352</ele>
        <time>2016-05-18T13:42:03Z</time>
      </trkpt>
      <trkpt lat="43.37556" lon="6.13657">
        <ele>352.79998779297</ele>
        <time>2016-05-18T13:42:05Z</time>
      </trkpt>
      <trkpt lat="43.37556" lon="6.1366">
        <ele>353</ele>
        <time>2016-05-18T13:42:06Z</time>
      </trkpt>
      <trkpt lat="43.37557" lon="6.13663">
        <ele>353.20001220703</ele>
        <time>2016-05-18T13:42:07Z</time>
      </trkpt>
      <trkpt lat="43.37557" lon="6.1367">
        <ele>353.60000610352</ele>
        <time>2016-05-18T13:42:09Z</time>
      </trkpt>
      <trkpt lat="43.37556" lon="6.13677">
        <ele>353.60000610352</ele>
        <time>2016-05-18T13:42:11Z</time>
      </trkpt>
      <trkpt lat="43.37556" lon="6.13684">
        <ele>353.79998779297</ele>
        <time>2016-05-18T13:42:13Z</time>
      </trkpt>
      <trkpt lat="43.37556" lon="6.13691">
        <ele>353.60000610352</ele>
        <time>2016-05-18T13:42:15Z</time>
      </trkpt>
      <trkpt lat="43.37557" lon="6.13698">
        <ele>353.79998779297</ele>
        <time>2016-05-18T13:42:17Z</time>
      </trkpt>
      <trkpt lat="43.37558" lon="6.13701">
        <ele>354.20001220703</ele>
        <time>2016-05-18T13:42:18Z</time>
      </trkpt>
      <trkpt lat="43.37558" lon="6.13703">
        <ele>354.39999389648</ele>
        <time>2016-05-18T13:42:19Z</time>
      </trkpt>
      <trkpt lat="43.37559" lon="6.13706">
        <ele>354.60000610352</ele>
        <time>2016-05-18T13:42:20Z</time>
      </trkpt>
      <trkpt lat="43.37559" lon="6.13708">
        <ele>354.60000610352</ele>
        <time>2016-05-18T13:42:21Z</time>
      </trkpt>
      <trkpt lat="43.3756" lon="6.13714">
        <ele>355</ele>
        <time>2016-05-18T13:42:23Z</time>
      </trkpt>
      <trkpt lat="43.37561" lon="6.13718">
        <ele>355</ele>
        <time>2016-05-18T13:42:25Z</time>
      </trkpt>
      <trkpt lat="43.37562" lon="6.13722">
        <ele>355.20001220703</ele>
        <time>2016-05-18T13:42:27Z</time>
      </trkpt>
      <trkpt lat="43.37563" lon="6.13727">
        <ele>355.39999389648</ele>
        <time>2016-05-18T13:42:29Z</time>
      </trkpt>
      <trkpt lat="43.37564" lon="6.13732">
        <ele>355.39999389648</ele>
        <time>2016-05-18T13:42:31Z</time>
      </trkpt>
      <trkpt lat="43.37565" lon="6.13737">
        <ele>355.79998779297</ele>
        <time>2016-05-18T13:42:33Z</time>
      </trkpt>
      <trkpt lat="43.37566" lon="6.13742">
        <ele>356</ele>
        <time>2016-05-18T13:42:35Z</time>
      </trkpt>
      <trkpt lat="43.37566" lon="6.13745">
        <ele>356</ele>
        <time>2016-05-18T13:42:36Z</time>
      </trkpt>
      <trkpt lat="43.37566" lon="6.13748">
        <ele>356.20001220703</ele>
        <time>2016-05-18T13:42:37Z</time>
      </trkpt>
      <trkpt lat="43.37567" lon="6.1375">
        <ele>356.39999389648</ele>
        <time>2016-05-18T13:42:38Z</time>
      </trkpt>
      <trkpt lat="43.37567" lon="6.13752">
        <ele>356.60000610352</ele>
        <time>2016-05-18T13:42:39Z</time>
      </trkpt>
      <trkpt lat="43.37568" lon="6.13757">
        <ele>356.79998779297</ele>
        <time>2016-05-18T13:42:41Z</time>
      </trkpt>
      <trkpt lat="43.37569" lon="6.13763">
        <ele>357.20001220703</ele>
        <time>2016-05-18T13:42:43Z</time>
      </trkpt>
      <trkpt lat="43.37569" lon="6.13765">
        <ele>357.39999389648</ele>
        <time>2016-05-18T13:42:44Z</time>
      </trkpt>
      <trkpt lat="43.37569" lon="6.13768">
        <ele>357.39999389648</ele>
        <time>2016-05-18T13:42:45Z</time>
      </trkpt>
      <trkpt lat="43.3757" lon="6.1377">
        <ele>357.39999389648</ele>
        <time>2016-05-18T13:42:46Z</time>
      </trkpt>
      <trkpt lat="43.3757" lon="6.13773">
        <ele>357.60000610352</ele>
        <time>2016-05-18T13:42:47Z</time>
      </trkpt>
      <trkpt lat="43.37571" lon="6.13778">
        <ele>358</ele>
        <time>2016-05-18T13:42:49Z</time>
      </trkpt>
      <trkpt lat="43.37571" lon="6.13784">
        <ele>358.39999389648</ele>
        <time>2016-05-18T13:42:51Z</time>
      </trkpt>
      <trkpt lat="43.37571" lon="6.13787">
        <ele>358.60000610352</ele>
        <time>2016-05-18T13:42:52Z</time>
      </trkpt>
      <trkpt lat="43.37571" lon="6.1379">
        <ele>358.60000610352</ele>
        <time>2016-05-18T13:42:53Z</time>
      </trkpt>
      <trkpt lat="43.37572" lon="6.13797">
        <ele>358.60000610352</ele>
        <time>2016-05-18T13:42:55Z</time>
      </trkpt>
      <trkpt lat="43.37572" lon="6.13803">
        <ele>358.79998779297</ele>
        <time>2016-05-18T13:42:57Z</time>
      </trkpt>
      <trkpt lat="43.37572" lon="6.1381">
        <ele>358.79998779297</ele>
        <time>2016-05-18T13:42:59Z</time>
      </trkpt>
      <trkpt lat="43.37571" lon="6.13813">
        <ele>359</ele>
        <time>2016-05-18T13:43:00Z</time>
      </trkpt>
      <trkpt lat="43.37571" lon="6.13817">
        <ele>359</ele>
        <time>2016-05-18T13:43:01Z</time>
      </trkpt>
      <trkpt lat="43.3757" lon="6.13823">
        <ele>359.20001220703</ele>
        <time>2016-05-18T13:43:03Z</time>
      </trkpt>
      <trkpt lat="43.37569" lon="6.13828">
        <ele>359.20001220703</ele>
        <time>2016-05-18T13:43:05Z</time>
      </trkpt>
      <trkpt lat="43.37569" lon="6.1383">
        <ele>359.39999389648</ele>
        <time>2016-05-18T13:43:06Z</time>
      </trkpt>
      <trkpt lat="43.37568" lon="6.13833">
        <ele>359.39999389648</ele>
        <time>2016-05-18T13:43:07Z</time>
      </trkpt>
      <trkpt lat="43.37567" lon="6.13838">
        <ele>359.39999389648</ele>
        <time>2016-05-18T13:43:09Z</time>
      </trkpt>
      <trkpt lat="43.37566" lon="6.13842">
        <ele>359.60000610352</ele>
        <time>2016-05-18T13:43:11Z</time>
      </trkpt>
      <trkpt lat="43.37566" lon="6.13844">
        <ele>359.60000610352</ele>
        <time>2016-05-18T13:43:12Z</time>
      </trkpt>
      <trkpt lat="43.37566" lon="6.13846">
        <ele>359.79998779297</ele>
        <time>2016-05-18T13:43:13Z</time>
      </trkpt>
      <trkpt lat="43.37566" lon="6.1385">
        <ele>359.79998779297</ele>
        <time>2016-05-18T13:43:15Z</time>
      </trkpt>
      <trkpt lat="43.37565" lon="6.13854">
        <ele>359.79998779297</ele>
        <time>2016-05-18T13:43:17Z</time>
      </trkpt>
      <trkpt lat="43.37565" lon="6.13857">
        <ele>359.79998779297</ele>
        <time>2016-05-18T13:43:18Z</time>
      </trkpt>
      <trkpt lat="43.37565" lon="6.1386">
        <ele>359.60000610352</ele>
        <time>2016-05-18T13:43:19Z</time>
      </trkpt>
      <trkpt lat="43.37564" lon="6.13866">
        <ele>360</ele>
        <time>2016-05-18T13:43:21Z</time>
      </trkpt>
      <trkpt lat="43.37563" lon="6.13872">
        <ele>360</ele>
        <time>2016-05-18T13:43:23Z</time>
      </trkpt>
      <trkpt lat="43.37563" lon="6.13879">
        <ele>360</ele>
        <time>2016-05-18T13:43:25Z</time>
      </trkpt>
      <trkpt lat="43.37563" lon="6.13883">
        <ele>360.20001220703</ele>
        <time>2016-05-18T13:43:26Z</time>
      </trkpt>
      <trkpt lat="43.37562" lon="6.13886">
        <ele>360.20001220703</ele>
        <time>2016-05-18T13:43:27Z</time>
      </trkpt>
      <trkpt lat="43.37562" lon="6.1389">
        <ele>360.20001220703</ele>
        <time>2016-05-18T13:43:28Z</time>
      </trkpt>
      <trkpt lat="43.37561" lon="6.13893">
        <ele>360.20001220703</ele>
        <time>2016-05-18T13:43:29Z</time>
      </trkpt>
      <trkpt lat="43.3756" lon="6.139">
        <ele>360.20001220703</ele>
        <time>2016-05-18T13:43:31Z</time>
      </trkpt>
      <trkpt lat="43.37558" lon="6.13906">
        <ele>360.39999389648</ele>
        <time>2016-05-18T13:43:33Z</time>
      </trkpt>
      <trkpt lat="43.37557" lon="6.13912">
        <ele>360.39999389648</ele>
        <time>2016-05-18T13:43:35Z</time>
      </trkpt>
      <trkpt lat="43.37555" lon="6.13919">
        <ele>360.60000610352</ele>
        <time>2016-05-18T13:43:37Z</time>
      </trkpt>
      <trkpt lat="43.37553" lon="6.13926">
        <ele>360.39999389648</ele>
        <time>2016-05-18T13:43:39Z</time>
      </trkpt>
      <trkpt lat="43.37551" lon="6.13933">
        <ele>360.60000610352</ele>
        <time>2016-05-18T13:43:41Z</time>
      </trkpt>
      <trkpt lat="43.3755" lon="6.13937">
        <ele>360.60000610352</ele>
        <time>2016-05-18T13:43:42Z</time>
      </trkpt>
      <trkpt lat="43.37549" lon="6.1394">
        <ele>360.79998779297</ele>
        <time>2016-05-18T13:43:43Z</time>
      </trkpt>
      <trkpt lat="43.37547" lon="6.13946">
        <ele>361.39999389648</ele>
        <time>2016-05-18T13:43:45Z</time>
      </trkpt>
      <trkpt lat="43.37545" lon="6.13952">
        <ele>361.79998779297</ele>
        <time>2016-05-18T13:43:47Z</time>
      </trkpt>
      <trkpt lat="43.37542" lon="6.13958">
        <ele>362.20001220703</ele>
        <time>2016-05-18T13:43:49Z</time>
      </trkpt>
      <trkpt lat="43.37541" lon="6.1396">
        <ele>362.39999389648</ele>
        <time>2016-05-18T13:43:50Z</time>
      </trkpt>
      <trkpt lat="43.3754" lon="6.13962">
        <ele>362.39999389648</ele>
        <time>2016-05-18T13:43:51Z</time>
      </trkpt>
      <trkpt lat="43.37539" lon="6.13968">
        <ele>363</ele>
        <time>2016-05-18T13:43:53Z</time>
      </trkpt>
      <trkpt lat="43.37538" lon="6.13972">
        <ele>363.39999389648</ele>
        <time>2016-05-18T13:43:55Z</time>
      </trkpt>
      <trkpt lat="43.37537" lon="6.13974">
        <ele>363.39999389648</ele>
        <time>2016-05-18T13:43:56Z</time>
      </trkpt>
      <trkpt lat="43.37537" lon="6.13977">
        <ele>363.60000610352</ele>
        <time>2016-05-18T13:43:57Z</time>
      </trkpt>
      <trkpt lat="43.37538" lon="6.13982">
        <ele>363.60000610352</ele>
        <time>2016-05-18T13:43:59Z</time>
      </trkpt>
      <trkpt lat="43.37537" lon="6.13989">
        <ele>363.79998779297</ele>
        <time>2016-05-18T13:44:01Z</time>
      </trkpt>
      <trkpt lat="43.37537" lon="6.13995">
        <ele>364</ele>
        <time>2016-05-18T13:44:03Z</time>
      </trkpt>
      <trkpt lat="43.37537" lon="6.14003">
        <ele>364</ele>
        <time>2016-05-18T13:44:05Z</time>
      </trkpt>
      <trkpt lat="43.37536" lon="6.14009">
        <ele>363.79998779297</ele>
        <time>2016-05-18T13:44:07Z</time>
      </trkpt>
      <trkpt lat="43.37535" lon="6.14015">
        <ele>364</ele>
        <time>2016-05-18T13:44:09Z</time>
      </trkpt>
      <trkpt lat="43.37534" lon="6.1402">
        <ele>364</ele>
        <time>2016-05-18T13:44:11Z</time>
      </trkpt>
      <trkpt lat="43.37532" lon="6.14025">
        <ele>364.60000610352</ele>
        <time>2016-05-18T13:44:13Z</time>
      </trkpt>
      <trkpt lat="43.3753" lon="6.1403">
        <ele>365</ele>
        <time>2016-05-18T13:44:15Z</time>
      </trkpt>
      <trkpt lat="43.37528" lon="6.14035">
        <ele>365</ele>
        <time>2016-05-18T13:44:17Z</time>
      </trkpt>
      <trkpt lat="43.37525" lon="6.14039">
        <ele>365.20001220703</ele>
        <time>2016-05-18T13:44:19Z</time>
      </trkpt>
      <trkpt lat="43.37524" lon="6.14042">
        <ele>365.20001220703</ele>
        <time>2016-05-18T13:44:20Z</time>
      </trkpt>
      <trkpt lat="43.37522" lon="6.14045">
        <ele>365.39999389648</ele>
        <time>2016-05-18T13:44:21Z</time>
      </trkpt>
      <trkpt lat="43.37521" lon="6.1405">
        <ele>366</ele>
        <time>2016-05-18T13:44:23Z</time>
      </trkpt>
      <trkpt lat="43.3752" lon="6.14056">
        <ele>366.39999389648</ele>
        <time>2016-05-18T13:44:25Z</time>
      </trkpt>
      <trkpt lat="43.37519" lon="6.14059">
        <ele>366.60000610352</ele>
        <time>2016-05-18T13:44:26Z</time>
      </trkpt>
      <trkpt lat="43.37518" lon="6.14062">
        <ele>366.60000610352</ele>
        <time>2016-05-18T13:44:27Z</time>
      </trkpt>
      <trkpt lat="43.37517" lon="6.14067">
        <ele>366.60000610352</ele>
        <time>2016-05-18T13:44:29Z</time>
      </trkpt>
      <trkpt lat="43.37517" lon="6.14073">
        <ele>366.60000610352</ele>
        <time>2016-05-18T13:44:31Z</time>
      </trkpt>
      <trkpt lat="43.37517" lon="6.14077">
        <ele>366.60000610352</ele>
        <time>2016-05-18T13:44:33Z</time>
      </trkpt>
      <trkpt lat="43.37518" lon="6.14081">
        <ele>367.20001220703</ele>
        <time>2016-05-18T13:44:35Z</time>
      </trkpt>
      <trkpt lat="43.37517" lon="6.14083">
        <ele>367.39999389648</ele>
        <time>2016-05-18T13:44:36Z</time>
      </trkpt>
      <trkpt lat="43.37517" lon="6.14086">
        <ele>367.39999389648</ele>
        <time>2016-05-18T13:44:37Z</time>
      </trkpt>
      <trkpt lat="43.37516" lon="6.14088">
        <ele>367.60000610352</ele>
        <time>2016-05-18T13:44:38Z</time>
      </trkpt>
      <trkpt lat="43.37516" lon="6.1409">
        <ele>367.60000610352</ele>
        <time>2016-05-18T13:44:39Z</time>
      </trkpt>
      <trkpt lat="43.37516" lon="6.14095">
        <ele>367.79998779297</ele>
        <time>2016-05-18T13:44:41Z</time>
      </trkpt>
      <trkpt lat="43.37514" lon="6.14098">
        <ele>368</ele>
        <time>2016-05-18T13:44:43Z</time>
      </trkpt>
      <trkpt lat="43.37513" lon="6.14101">
        <ele>368.20001220703</ele>
        <time>2016-05-18T13:44:45Z</time>
      </trkpt>
      <trkpt lat="43.37513" lon="6.14104">
        <ele>368.20001220703</ele>
        <time>2016-05-18T13:44:47Z</time>
      </trkpt>
      <trkpt lat="43.37511" lon="6.14106">
        <ele>368.39999389648</ele>
        <time>2016-05-18T13:44:49Z</time>
      </trkpt>
      <trkpt lat="43.3751" lon="6.14108">
        <ele>368.39999389648</ele>
        <time>2016-05-18T13:44:50Z</time>
      </trkpt>
      <trkpt lat="43.37509" lon="6.14109">
        <ele>368.60000610352</ele>
        <time>2016-05-18T13:44:51Z</time>
      </trkpt>
      <trkpt lat="43.37507" lon="6.14112">
        <ele>368.60000610352</ele>
        <time>2016-05-18T13:44:53Z</time>
      </trkpt>
      <trkpt lat="43.37505" lon="6.14114">
        <ele>368.60000610352</ele>
        <time>2016-05-18T13:44:55Z</time>
      </trkpt>
      <trkpt lat="43.37505" lon="6.14116">
        <ele>368.79998779297</ele>
        <time>2016-05-18T13:44:56Z</time>
      </trkpt>
      <trkpt lat="43.37504" lon="6.14117">
        <ele>368.79998779297</ele>
        <time>2016-05-18T13:44:57Z</time>
      </trkpt>
      <trkpt lat="43.37503" lon="6.14121">
        <ele>369</ele>
        <time>2016-05-18T13:44:59Z</time>
      </trkpt>
      <trkpt lat="43.37501" lon="6.14123">
        <ele>369</ele>
        <time>2016-05-18T13:45:01Z</time>
      </trkpt>
      <trkpt lat="43.37499" lon="6.14125">
        <ele>369.39999389648</ele>
        <time>2016-05-18T13:45:03Z</time>
      </trkpt>
      <trkpt lat="43.37498" lon="6.14126">
        <ele>369.79998779297</ele>
        <time>2016-05-18T13:45:04Z</time>
      </trkpt>
      <trkpt lat="43.37497" lon="6.14127">
        <ele>370.20001220703</ele>
        <time>2016-05-18T13:45:05Z</time>
      </trkpt>
      <trkpt lat="43.37495" lon="6.1413">
        <ele>370.60000610352</ele>
        <time>2016-05-18T13:45:07Z</time>
      </trkpt>
      <trkpt lat="43.37494" lon="6.14132">
        <ele>370.79998779297</ele>
        <time>2016-05-18T13:45:09Z</time>
      </trkpt>
      <trkpt lat="43.37493" lon="6.14132">
        <ele>371</ele>
        <time>2016-05-18T13:45:10Z</time>
      </trkpt>
      <trkpt lat="43.37492" lon="6.14133">
        <ele>371.39999389648</ele>
        <time>2016-05-18T13:45:11Z</time>
      </trkpt>
      <trkpt lat="43.37489" lon="6.14136">
        <ele>371.79998779297</ele>
        <time>2016-05-18T13:45:13Z</time>
      </trkpt>
      <trkpt lat="43.37488" lon="6.14138">
        <ele>372.20001220703</ele>
        <time>2016-05-18T13:45:15Z</time>
      </trkpt>
      <trkpt lat="43.37487" lon="6.1414">
        <ele>372.20001220703</ele>
        <time>2016-05-18T13:45:16Z</time>
      </trkpt>
      <trkpt lat="43.37486" lon="6.14141">
        <ele>372.20001220703</ele>
        <time>2016-05-18T13:45:17Z</time>
      </trkpt>
      <trkpt lat="43.37484" lon="6.14144">
        <ele>372.60000610352</ele>
        <time>2016-05-18T13:45:19Z</time>
      </trkpt>
      <trkpt lat="43.37482" lon="6.14147">
        <ele>372.79998779297</ele>
        <time>2016-05-18T13:45:21Z</time>
      </trkpt>
      <trkpt lat="43.3748" lon="6.14149">
        <ele>373</ele>
        <time>2016-05-18T13:45:23Z</time>
      </trkpt>
      <trkpt lat="43.37477" lon="6.14152">
        <ele>373</ele>
        <time>2016-05-18T13:45:25Z</time>
      </trkpt>
      <trkpt lat="43.37475" lon="6.14153">
        <ele>373.20001220703</ele>
        <time>2016-05-18T13:45:27Z</time>
      </trkpt>
      <trkpt lat="43.37473" lon="6.14154">
        <ele>373.60000610352</ele>
        <time>2016-05-18T13:45:29Z</time>
      </trkpt>
      <trkpt lat="43.37472" lon="6.14155">
        <ele>374</ele>
        <time>2016-05-18T13:45:30Z</time>
      </trkpt>
      <trkpt lat="43.37471" lon="6.14155">
        <ele>374.20001220703</ele>
        <time>2016-05-18T13:45:31Z</time>
      </trkpt>
      <trkpt lat="43.37468" lon="6.14155">
        <ele>374.39999389648</ele>
        <time>2016-05-18T13:45:33Z</time>
      </trkpt>
      <trkpt lat="43.37465" lon="6.14156">
        <ele>374.79998779297</ele>
        <time>2016-05-18T13:45:35Z</time>
      </trkpt>
      <trkpt lat="43.37463" lon="6.14156">
        <ele>375.20001220703</ele>
        <time>2016-05-18T13:45:36Z</time>
      </trkpt>
      <trkpt lat="43.37462" lon="6.14157">
        <ele>375.39999389648</ele>
        <time>2016-05-18T13:45:37Z</time>
      </trkpt>
      <trkpt lat="43.37461" lon="6.14158">
        <ele>375.60000610352</ele>
        <time>2016-05-18T13:45:38Z</time>
      </trkpt>
      <trkpt lat="43.3746" lon="6.14159">
        <ele>375.60000610352</ele>
        <time>2016-05-18T13:45:39Z</time>
      </trkpt>
      <trkpt lat="43.37458" lon="6.14161">
        <ele>375.60000610352</ele>
        <time>2016-05-18T13:45:41Z</time>
      </trkpt>
      <trkpt lat="43.37455" lon="6.14162">
        <ele>376</ele>
        <time>2016-05-18T13:45:43Z</time>
      </trkpt>
      <trkpt lat="43.37454" lon="6.14163">
        <ele>376</ele>
        <time>2016-05-18T13:45:44Z</time>
      </trkpt>
      <trkpt lat="43.37453" lon="6.14164">
        <ele>376</ele>
        <time>2016-05-18T13:45:45Z</time>
      </trkpt>
      <trkpt lat="43.37451" lon="6.14165">
        <ele>376.20001220703</ele>
        <time>2016-05-18T13:45:47Z</time>
      </trkpt>
      <trkpt lat="43.37449" lon="6.14166">
        <ele>376.60000610352</ele>
        <time>2016-05-18T13:45:49Z</time>
      </trkpt>
      <trkpt lat="43.37448" lon="6.14167">
        <ele>376.60000610352</ele>
        <time>2016-05-18T13:45:50Z</time>
      </trkpt>
      <trkpt lat="43.37447" lon="6.14168">
        <ele>376.79998779297</ele>
        <time>2016-05-18T13:45:51Z</time>
      </trkpt>
      <trkpt lat="43.37444" lon="6.14169">
        <ele>377</ele>
        <time>2016-05-18T13:45:53Z</time>
      </trkpt>
      <trkpt lat="43.37441" lon="6.1417">
        <ele>377</ele>
        <time>2016-05-18T13:45:55Z</time>
      </trkpt>
      <trkpt lat="43.37439" lon="6.14172">
        <ele>377.39999389648</ele>
        <time>2016-05-18T13:45:57Z</time>
      </trkpt>
      <trkpt lat="43.37436" lon="6.14173">
        <ele>377.60000610352</ele>
        <time>2016-05-18T13:45:59Z</time>
      </trkpt>
      <trkpt lat="43.37435" lon="6.14174">
        <ele>377.79998779297</ele>
        <time>2016-05-18T13:46:01Z</time>
      </trkpt>
      <trkpt lat="43.37434" lon="6.14174">
        <ele>378</ele>
        <time>2016-05-18T13:46:03Z</time>
      </trkpt>
      <trkpt lat="43.37434" lon="6.14174">
        <ele>378.20001220703</ele>
        <time>2016-05-18T13:46:04Z</time>
      </trkpt>
      <trkpt lat="43.37434" lon="6.14174">
        <ele>378.20001220703</ele>
        <time>2016-05-18T13:46:05Z</time>
      </trkpt>
      <trkpt lat="43.37434" lon="6.14174">
        <ele>378.39999389648</ele>
        <time>2016-05-18T13:46:07Z</time>
      </trkpt>
      <trkpt lat="43.37434" lon="6.14174">
        <ele>378.60000610352</ele>
        <time>2016-05-18T13:46:09Z</time>
      </trkpt>
      <trkpt lat="43.37434" lon="6.14174">
        <ele>378.60000610352</ele>
        <time>2016-05-18T13:46:11Z</time>
      </trkpt>
      <trkpt lat="43.37433" lon="6.14174">
        <ele>378.60000610352</ele>
        <time>2016-05-18T13:46:13Z</time>
      </trkpt>
      <trkpt lat="43.37433" lon="6.14174">
        <ele>378.39999389648</ele>
        <time>2016-05-18T13:46:15Z</time>
      </trkpt>
      <trkpt lat="43.37433" lon="6.14174">
        <ele>378.39999389648</ele>
        <time>2016-05-18T13:46:17Z</time>
      </trkpt>
      <trkpt lat="43.37433" lon="6.14174">
        <ele>378.60000610352</ele>
        <time>2016-05-18T13:46:19Z</time>
      </trkpt>
      <trkpt lat="43.37433" lon="6.14174">
        <ele>378.60000610352</ele>
        <time>2016-05-18T13:46:21Z</time>
      </trkpt>
      <trkpt lat="43.37433" lon="6.14174">
        <ele>378.60000610352</ele>
        <time>2016-05-18T13:46:23Z</time>
      </trkpt>
      <trkpt lat="43.37433" lon="6.14174">
        <ele>378.39999389648</ele>
        <time>2016-05-18T13:46:24Z</time>
      </trkpt>
      <trkpt lat="43.37433" lon="6.14174">
        <ele>378.39999389648</ele>
        <time>2016-05-18T13:46:25Z</time>
      </trkpt>
      <trkpt lat="43.37434" lon="6.14174">
        <ele>378.39999389648</ele>
        <time>2016-05-18T13:46:27Z</time>
      </trkpt>
      <trkpt lat="43.37434" lon="6.14174">
        <ele>378.39999389648</ele>
        <time>2016-05-18T13:46:29Z</time>
      </trkpt>
      <trkpt lat="43.37433" lon="6.14174">
        <ele>378.39999389648</ele>
        <time>2016-05-18T13:46:31Z</time>
      </trkpt>
      <trkpt lat="43.37433" lon="6.14174">
        <ele>378.20001220703</ele>
        <time>2016-05-18T13:46:33Z</time>
      </trkpt>
      <trkpt lat="43.37432" lon="6.14175">
        <ele>378.20001220703</ele>
        <time>2016-05-18T13:46:35Z</time>
      </trkpt>
      <trkpt lat="43.37432" lon="6.14175">
        <ele>378.20001220703</ele>
        <time>2016-05-18T13:46:36Z</time>
      </trkpt>
      <trkpt lat="43.37432" lon="6.14175">
        <ele>378.20001220703</ele>
        <time>2016-05-18T13:46:37Z</time>
      </trkpt>
      <trkpt lat="43.37431" lon="6.14174">
        <ele>378.60000610352</ele>
        <time>2016-05-18T13:46:39Z</time>
      </trkpt>
      <trkpt lat="43.37431" lon="6.14175">
        <ele>378.60000610352</ele>
        <time>2016-05-18T13:46:41Z</time>
      </trkpt>
      <trkpt lat="43.37429" lon="6.14176">
        <ele>378.60000610352</ele>
        <time>2016-05-18T13:46:43Z</time>
      </trkpt>
      <trkpt lat="43.37427" lon="6.14177">
        <ele>378.60000610352</ele>
        <time>2016-05-18T13:46:44Z</time>
      </trkpt>
      <trkpt lat="43.37425" lon="6.14177">
        <ele>379</ele>
        <time>2016-05-18T13:46:45Z</time>
      </trkpt>
      <trkpt lat="43.37422" lon="6.14179">
        <ele>379.60000610352</ele>
        <time>2016-05-18T13:46:47Z</time>
      </trkpt>
      <trkpt lat="43.37421" lon="6.1418">
        <ele>380</ele>
        <time>2016-05-18T13:46:48Z</time>
      </trkpt>
      <trkpt lat="43.37419" lon="6.1418">
        <ele>380.20001220703</ele>
        <time>2016-05-18T13:46:49Z</time>
      </trkpt>
      <trkpt lat="43.37417" lon="6.1418">
        <ele>380.60000610352</ele>
        <time>2016-05-18T13:46:50Z</time>
      </trkpt>
      <trkpt lat="43.37415" lon="6.1418">
        <ele>381</ele>
        <time>2016-05-18T13:46:51Z</time>
      </trkpt>
      <trkpt lat="43.37414" lon="6.1418">
        <ele>381.39999389648</ele>
        <time>2016-05-18T13:46:52Z</time>
      </trkpt>
      <trkpt lat="43.37412" lon="6.1418">
        <ele>381.79998779297</ele>
        <time>2016-05-18T13:46:53Z</time>
      </trkpt>
      <trkpt lat="43.3741" lon="6.14181">
        <ele>382.39999389648</ele>
        <time>2016-05-18T13:46:55Z</time>
      </trkpt>
      <trkpt lat="43.37408" lon="6.14182">
        <ele>382.39999389648</ele>
        <time>2016-05-18T13:46:56Z</time>
      </trkpt>
      <trkpt lat="43.37406" lon="6.14183">
        <ele>382.60000610352</ele>
        <time>2016-05-18T13:46:57Z</time>
      </trkpt>
      <trkpt lat="43.37402" lon="6.14185">
        <ele>383</ele>
        <time>2016-05-18T13:46:59Z</time>
      </trkpt>
      <trkpt lat="43.37399" lon="6.14186">
        <ele>383.79998779297</ele>
        <time>2016-05-18T13:47:01Z</time>
      </trkpt>
      <trkpt lat="43.37397" lon="6.14185">
        <ele>384</ele>
        <time>2016-05-18T13:47:02Z</time>
      </trkpt>
      <trkpt lat="43.37396" lon="6.14185">
        <ele>384.20001220703</ele>
        <time>2016-05-18T13:47:03Z</time>
      </trkpt>
      <trkpt lat="43.37393" lon="6.14185">
        <ele>384.39999389648</ele>
        <time>2016-05-18T13:47:05Z</time>
      </trkpt>
      <trkpt lat="43.37391" lon="6.14186">
        <ele>384.60000610352</ele>
        <time>2016-05-18T13:47:07Z</time>
      </trkpt>
      <trkpt lat="43.3739" lon="6.14186">
        <ele>384.60000610352</ele>
        <time>2016-05-18T13:47:08Z</time>
      </trkpt>
      <trkpt lat="43.37388" lon="6.14185">
        <ele>384.60000610352</ele>
        <time>2016-05-18T13:47:09Z</time>
      </trkpt>
      <trkpt lat="43.37385" lon="6.14185">
        <ele>384.79998779297</ele>
        <time>2016-05-18T13:47:11Z</time>
      </trkpt>
      <trkpt lat="43.37382" lon="6.14186">
        <ele>384.79998779297</ele>
        <time>2016-05-18T13:47:13Z</time>
      </trkpt>
      <trkpt lat="43.37381" lon="6.14186">
        <ele>384.79998779297</ele>
        <time>2016-05-18T13:47:14Z</time>
      </trkpt>
      <trkpt lat="43.37379" lon="6.14187">
        <ele>384.79998779297</ele>
        <time>2016-05-18T13:47:15Z</time>
      </trkpt>
      <trkpt lat="43.37378" lon="6.14189">
        <ele>384.79998779297</ele>
        <time>2016-05-18T13:47:17Z</time>
      </trkpt>
      <trkpt lat="43.37375" lon="6.14192">
        <ele>385</ele>
        <time>2016-05-18T13:47:19Z</time>
      </trkpt>
      <trkpt lat="43.37374" lon="6.14193">
        <ele>385</ele>
        <time>2016-05-18T13:47:20Z</time>
      </trkpt>
      <trkpt lat="43.37373" lon="6.14195">
        <ele>385.20001220703</ele>
        <time>2016-05-18T13:47:21Z</time>
      </trkpt>
      <trkpt lat="43.37371" lon="6.14198">
        <ele>385.60000610352</ele>
        <time>2016-05-18T13:47:23Z</time>
      </trkpt>
      <trkpt lat="43.3737" lon="6.14201">
        <ele>386</ele>
        <time>2016-05-18T13:47:25Z</time>
      </trkpt>
      <trkpt lat="43.37369" lon="6.14204">
        <ele>386.39999389648</ele>
        <time>2016-05-18T13:47:27Z</time>
      </trkpt>
      <trkpt lat="43.37368" lon="6.14206">
        <ele>387</ele>
        <time>2016-05-18T13:47:29Z</time>
      </trkpt>
      <trkpt lat="43.37368" lon="6.14206">
        <ele>387</ele>
        <time>2016-05-18T13:47:30Z</time>
      </trkpt>
      <trkpt lat="43.37368" lon="6.14207">
        <ele>387</ele>
        <time>2016-05-18T13:47:31Z</time>
      </trkpt>
      <trkpt lat="43.37366" lon="6.14209">
        <ele>387.20001220703</ele>
        <time>2016-05-18T13:47:33Z</time>
      </trkpt>
      <trkpt lat="43.37365" lon="6.14211">
        <ele>387.20001220703</ele>
        <time>2016-05-18T13:47:34Z</time>
      </trkpt>
      <trkpt lat="43.37365" lon="6.14212">
        <ele>387.20001220703</ele>
        <time>2016-05-18T13:47:35Z</time>
      </trkpt>
      <trkpt lat="43.37364" lon="6.14216">
        <ele>387.60000610352</ele>
        <time>2016-05-18T13:47:37Z</time>
      </trkpt>
      <trkpt lat="43.37362" lon="6.1422">
        <ele>387.60000610352</ele>
        <time>2016-05-18T13:47:39Z</time>
      </trkpt>
      <trkpt lat="43.37362" lon="6.14221">
        <ele>387.79998779297</ele>
        <time>2016-05-18T13:47:40Z</time>
      </trkpt>
      <trkpt lat="43.37361" lon="6.14223">
        <ele>387.79998779297</ele>
        <time>2016-05-18T13:47:41Z</time>
      </trkpt>
      <trkpt lat="43.37359" lon="6.14226">
        <ele>388</ele>
        <time>2016-05-18T13:47:43Z</time>
      </trkpt>
      <trkpt lat="43.37357" lon="6.14228">
        <ele>388</ele>
        <time>2016-05-18T13:47:45Z</time>
      </trkpt>
      <trkpt lat="43.37357" lon="6.14231">
        <ele>388</ele>
        <time>2016-05-18T13:47:47Z</time>
      </trkpt>
      <trkpt lat="43.37357" lon="6.14232">
        <ele>387.39999389648</ele>
        <time>2016-05-18T13:47:49Z</time>
      </trkpt>
      <trkpt lat="43.37357" lon="6.14232">
        <ele>387.39999389648</ele>
        <time>2016-05-18T13:47:51Z</time>
      </trkpt>
      <trkpt lat="43.37357" lon="6.14232">
        <ele>387.39999389648</ele>
        <time>2016-05-18T13:47:53Z</time>
      </trkpt>
      <trkpt lat="43.37357" lon="6.14232">
        <ele>387.39999389648</ele>
        <time>2016-05-18T13:47:55Z</time>
      </trkpt>
      <trkpt lat="43.37357" lon="6.14232">
        <ele>387.39999389648</ele>
        <time>2016-05-18T13:47:56Z</time>
      </trkpt>
      <trkpt lat="43.37357" lon="6.14232">
        <ele>387.39999389648</ele>
        <time>2016-05-18T13:47:57Z</time>
      </trkpt>
      <trkpt lat="43.37357" lon="6.14232">
        <ele>387.79998779297</ele>
        <time>2016-05-18T13:47:59Z</time>
      </trkpt>
      <trkpt lat="43.37357" lon="6.14232">
        <ele>387.79998779297</ele>
        <time>2016-05-18T13:48:00Z</time>
      </trkpt>
      <trkpt lat="43.37357" lon="6.14232">
        <ele>387.79998779297</ele>
        <time>2016-05-18T13:48:01Z</time>
      </trkpt>
      <trkpt lat="43.37357" lon="6.14232">
        <ele>387.79998779297</ele>
        <time>2016-05-18T13:48:03Z</time>
      </trkpt>
      <trkpt lat="43.37357" lon="6.14232">
        <ele>388</ele>
        <time>2016-05-18T13:48:05Z</time>
      </trkpt>
      <trkpt lat="43.37357" lon="6.14232">
        <ele>388</ele>
        <time>2016-05-18T13:48:07Z</time>
      </trkpt>
      <trkpt lat="43.37357" lon="6.14232">
        <ele>387.79998779297</ele>
        <time>2016-05-18T13:48:09Z</time>
      </trkpt>
      <trkpt lat="43.37357" lon="6.14232">
        <ele>387.79998779297</ele>
        <time>2016-05-18T13:48:11Z</time>
      </trkpt>
      <trkpt lat="43.37357" lon="6.14232">
        <ele>388</ele>
        <time>2016-05-18T13:48:13Z</time>
      </trkpt>
      <trkpt lat="43.37357" lon="6.14232">
        <ele>388</ele>
        <time>2016-05-18T13:48:15Z</time>
      </trkpt>
      <trkpt lat="43.37357" lon="6.14232">
        <ele>388</ele>
        <time>2016-05-18T13:48:17Z</time>
      </trkpt>
      <trkpt lat="43.37357" lon="6.14232">
        <ele>387.79998779297</ele>
        <time>2016-05-18T13:48:19Z</time>
      </trkpt>
      <trkpt lat="43.37357" lon="6.14232">
        <ele>387.79998779297</ele>
        <time>2016-05-18T13:48:21Z</time>
      </trkpt>
      <trkpt lat="43.37357" lon="6.14232">
        <ele>387.79998779297</ele>
        <time>2016-05-18T13:48:23Z</time>
      </trkpt>
      <trkpt lat="43.37357" lon="6.14232">
        <ele>387.79998779297</ele>
        <time>2016-05-18T13:48:25Z</time>
      </trkpt>
      <trkpt lat="43.37357" lon="6.14232">
        <ele>388</ele>
        <time>2016-05-18T13:48:27Z</time>
      </trkpt>
      <trkpt lat="43.37357" lon="6.14233">
        <ele>388</ele>
        <time>2016-05-18T13:48:29Z</time>
      </trkpt>
      <trkpt lat="43.37357" lon="6.14233">
        <ele>387.79998779297</ele>
        <time>2016-05-18T13:48:31Z</time>
      </trkpt>
      <trkpt lat="43.37357" lon="6.14233">
        <ele>387.79998779297</ele>
        <time>2016-05-18T13:48:33Z</time>
      </trkpt>
      <trkpt lat="43.37357" lon="6.14233">
        <ele>388</ele>
        <time>2016-05-18T13:48:35Z</time>
      </trkpt>
      <trkpt lat="43.37358" lon="6.14233">
        <ele>387.79998779297</ele>
        <time>2016-05-18T13:48:37Z</time>
      </trkpt>
      <trkpt lat="43.37358" lon="6.14233">
        <ele>387.79998779297</ele>
        <time>2016-05-18T13:48:38Z</time>
      </trkpt>
      <trkpt lat="43.37358" lon="6.14233">
        <ele>387.60000610352</ele>
        <time>2016-05-18T13:48:39Z</time>
      </trkpt>
      <trkpt lat="43.37358" lon="6.14233">
        <ele>387.60000610352</ele>
        <time>2016-05-18T13:48:41Z</time>
      </trkpt>
      <trkpt lat="43.37358" lon="6.14233">
        <ele>387.60000610352</ele>
        <time>2016-05-18T13:48:43Z</time>
      </trkpt>
      <trkpt lat="43.37358" lon="6.14233">
        <ele>387.60000610352</ele>
        <time>2016-05-18T13:48:45Z</time>
      </trkpt>
      <trkpt lat="43.37358" lon="6.14233">
        <ele>387.60000610352</ele>
        <time>2016-05-18T13:48:47Z</time>
      </trkpt>
      <trkpt lat="43.37358" lon="6.14233">
        <ele>387.60000610352</ele>
        <time>2016-05-18T13:48:49Z</time>
      </trkpt>
      <trkpt lat="43.37358" lon="6.14233">
        <ele>387.60000610352</ele>
        <time>2016-05-18T13:48:51Z</time>
      </trkpt>
      <trkpt lat="43.37358" lon="6.14233">
        <ele>387.39999389648</ele>
        <time>2016-05-18T13:48:53Z</time>
      </trkpt>
      <trkpt lat="43.37358" lon="6.14233">
        <ele>387.39999389648</ele>
        <time>2016-05-18T13:48:55Z</time>
      </trkpt>
      <trkpt lat="43.37358" lon="6.14233">
        <ele>387.39999389648</ele>
        <time>2016-05-18T13:48:57Z</time>
      </trkpt>
      <trkpt lat="43.37358" lon="6.14233">
        <ele>387.39999389648</ele>
        <time>2016-05-18T13:48:59Z</time>
      </trkpt>
      <trkpt lat="43.37358" lon="6.14233">
        <ele>387.60000610352</ele>
        <time>2016-05-18T13:49:01Z</time>
      </trkpt>
      <trkpt lat="43.37358" lon="6.14232">
        <ele>387.60000610352</ele>
        <time>2016-05-18T13:49:03Z</time>
      </trkpt>
      <trkpt lat="43.37358" lon="6.14232">
        <ele>387.60000610352</ele>
        <time>2016-05-18T13:49:05Z</time>
      </trkpt>
      <trkpt lat="43.37358" lon="6.14232">
        <ele>388</ele>
        <time>2016-05-18T13:49:07Z</time>
      </trkpt>
      <trkpt lat="43.37358" lon="6.14232">
        <ele>388</ele>
        <time>2016-05-18T13:49:09Z</time>
      </trkpt>
      <trkpt lat="43.37358" lon="6.14232">
        <ele>388</ele>
        <time>2016-05-18T13:49:11Z</time>
      </trkpt>
      <trkpt lat="43.37358" lon="6.14232">
        <ele>388</ele>
        <time>2016-05-18T13:49:13Z</time>
      </trkpt>
      <trkpt lat="43.37358" lon="6.14232">
        <ele>388</ele>
        <time>2016-05-18T13:49:15Z</time>
      </trkpt>
      <trkpt lat="43.37358" lon="6.14232">
        <ele>388</ele>
        <time>2016-05-18T13:49:16Z</time>
      </trkpt>
      <trkpt lat="43.37358" lon="6.14232">
        <ele>388.20001220703</ele>
        <time>2016-05-18T13:49:17Z</time>
      </trkpt>
      <trkpt lat="43.37358" lon="6.14232">
        <ele>388.20001220703</ele>
        <time>2016-05-18T13:49:19Z</time>
      </trkpt>
      <trkpt lat="43.37358" lon="6.14232">
        <ele>388.20001220703</ele>
        <time>2016-05-18T13:49:21Z</time>
      </trkpt>
      <trkpt lat="43.37358" lon="6.14232">
        <ele>388.20001220703</ele>
        <time>2016-05-18T13:49:23Z</time>
      </trkpt>
      <trkpt lat="43.37358" lon="6.14232">
        <ele>388</ele>
        <time>2016-05-18T13:49:25Z</time>
      </trkpt>
      <trkpt lat="43.37358" lon="6.14232">
        <ele>388.20001220703</ele>
        <time>2016-05-18T13:49:27Z</time>
      </trkpt>
      <trkpt lat="43.37358" lon="6.14232">
        <ele>388.39999389648</ele>
        <time>2016-05-18T13:49:29Z</time>
      </trkpt>
      <trkpt lat="43.37358" lon="6.14232">
        <ele>388.39999389648</ele>
        <time>2016-05-18T13:49:31Z</time>
      </trkpt>
      <trkpt lat="43.37358" lon="6.14232">
        <ele>388.20001220703</ele>
        <time>2016-05-18T13:49:33Z</time>
      </trkpt>
      <trkpt lat="43.37358" lon="6.14232">
        <ele>388.20001220703</ele>
        <time>2016-05-18T13:49:35Z</time>
      </trkpt>
      <trkpt lat="43.37358" lon="6.14232">
        <ele>388.20001220703</ele>
        <time>2016-05-18T13:49:37Z</time>
      </trkpt>
      <trkpt lat="43.37358" lon="6.14232">
        <ele>388.39999389648</ele>
        <time>2016-05-18T13:49:39Z</time>
      </trkpt>
      <trkpt lat="43.37358" lon="6.14232">
        <ele>388.39999389648</ele>
        <time>2016-05-18T13:49:41Z</time>
      </trkpt>
      <trkpt lat="43.37358" lon="6.14232">
        <ele>388.20001220703</ele>
        <time>2016-05-18T13:49:43Z</time>
      </trkpt>
      <trkpt lat="43.37358" lon="6.14232">
        <ele>388</ele>
        <time>2016-05-18T13:49:45Z</time>
      </trkpt>
      <trkpt lat="43.37358" lon="6.14232">
        <ele>387.79998779297</ele>
        <time>2016-05-18T13:49:47Z</time>
      </trkpt>
      <trkpt lat="43.37358" lon="6.14232">
        <ele>387.79998779297</ele>
        <time>2016-05-18T13:49:49Z</time>
      </trkpt>
      <trkpt lat="43.37358" lon="6.14232">
        <ele>387.79998779297</ele>
        <time>2016-05-18T13:49:51Z</time>
      </trkpt>
      <trkpt lat="43.37358" lon="6.14232">
        <ele>387.79998779297</ele>
        <time>2016-05-18T13:49:53Z</time>
      </trkpt>
      <trkpt lat="43.37358" lon="6.14232">
        <ele>388</ele>
        <time>2016-05-18T13:49:55Z</time>
      </trkpt>
      <trkpt lat="43.37358" lon="6.14232">
        <ele>388</ele>
        <time>2016-05-18T13:49:57Z</time>
      </trkpt>
      <trkpt lat="43.37358" lon="6.14232">
        <ele>388</ele>
        <time>2016-05-18T13:49:59Z</time>
      </trkpt>
      <trkpt lat="43.37358" lon="6.14232">
        <ele>388</ele>
        <time>2016-05-18T13:50:01Z</time>
      </trkpt>
      <trkpt lat="43.37358" lon="6.14232">
        <ele>388.20001220703</ele>
        <time>2016-05-18T13:50:03Z</time>
      </trkpt>
      <trkpt lat="43.37358" lon="6.14232">
        <ele>388.20001220703</ele>
        <time>2016-05-18T13:50:05Z</time>
      </trkpt>
      <trkpt lat="43.37358" lon="6.14232">
        <ele>387.79998779297</ele>
        <time>2016-05-18T13:50:07Z</time>
      </trkpt>
      <trkpt lat="43.37358" lon="6.14232">
        <ele>388</ele>
        <time>2016-05-18T13:50:09Z</time>
      </trkpt>
      <trkpt lat="43.37358" lon="6.14232">
        <ele>388</ele>
        <time>2016-05-18T13:50:10Z</time>
      </trkpt>
      <trkpt lat="43.37358" lon="6.14232">
        <ele>388</ele>
        <time>2016-05-18T13:50:11Z</time>
      </trkpt>
      <trkpt lat="43.37358" lon="6.14232">
        <ele>388</ele>
        <time>2016-05-18T13:50:13Z</time>
      </trkpt>
      <trkpt lat="43.37358" lon="6.14232">
        <ele>388</ele>
        <time>2016-05-18T13:50:15Z</time>
      </trkpt>
      <trkpt lat="43.37358" lon="6.14232">
        <ele>387.79998779297</ele>
        <time>2016-05-18T13:50:17Z</time>
      </trkpt>
      <trkpt lat="43.37358" lon="6.14232">
        <ele>387.60000610352</ele>
        <time>2016-05-18T13:50:19Z</time>
      </trkpt>
      <trkpt lat="43.37358" lon="6.14232">
        <ele>387.39999389648</ele>
        <time>2016-05-18T13:50:21Z</time>
      </trkpt>
      <trkpt lat="43.37358" lon="6.14232">
        <ele>387.39999389648</ele>
        <time>2016-05-18T13:50:23Z</time>
      </trkpt>
      <trkpt lat="43.37358" lon="6.14232">
        <ele>387.39999389648</ele>
        <time>2016-05-18T13:50:25Z</time>
      </trkpt>
      <trkpt lat="43.37358" lon="6.14232">
        <ele>387.39999389648</ele>
        <time>2016-05-18T13:50:27Z</time>
      </trkpt>
      <trkpt lat="43.37358" lon="6.14232">
        <ele>387.60000610352</ele>
        <time>2016-05-18T13:50:29Z</time>
      </trkpt>
      <trkpt lat="43.37358" lon="6.14232">
        <ele>387.79998779297</ele>
        <time>2016-05-18T13:50:31Z</time>
      </trkpt>
      <trkpt lat="43.37358" lon="6.14232">
        <ele>387.79998779297</ele>
        <time>2016-05-18T13:50:33Z</time>
      </trkpt>
      <trkpt lat="43.37358" lon="6.14232">
        <ele>387.79998779297</ele>
        <time>2016-05-18T13:50:35Z</time>
      </trkpt>
      <trkpt lat="43.37358" lon="6.14232">
        <ele>387.79998779297</ele>
        <time>2016-05-18T13:50:37Z</time>
      </trkpt>
      <trkpt lat="43.37358" lon="6.14232">
        <ele>387.79998779297</ele>
        <time>2016-05-18T13:50:39Z</time>
      </trkpt>
      <trkpt lat="43.37358" lon="6.14232">
        <ele>387.79998779297</ele>
        <time>2016-05-18T13:50:41Z</time>
      </trkpt>
      <trkpt lat="43.37358" lon="6.14232">
        <ele>387.79998779297</ele>
        <time>2016-05-18T13:50:43Z</time>
      </trkpt>
      <trkpt lat="43.37358" lon="6.14232">
        <ele>387.79998779297</ele>
        <time>2016-05-18T13:50:45Z</time>
      </trkpt>
      <trkpt lat="43.37358" lon="6.14232">
        <ele>388</ele>
        <time>2016-05-18T13:50:47Z</time>
      </trkpt>
      <trkpt lat="43.37358" lon="6.14232">
        <ele>387.79998779297</ele>
        <time>2016-05-18T13:50:49Z</time>
      </trkpt>
      <trkpt lat="43.37358" lon="6.14232">
        <ele>387.79998779297</ele>
        <time>2016-05-18T13:50:51Z</time>
      </trkpt>
      <trkpt lat="43.37358" lon="6.14232">
        <ele>387.79998779297</ele>
        <time>2016-05-18T13:50:53Z</time>
      </trkpt>
      <trkpt lat="43.37358" lon="6.14232">
        <ele>387.79998779297</ele>
        <time>2016-05-18T13:50:55Z</time>
      </trkpt>
      <trkpt lat="43.37358" lon="6.14232">
        <ele>387.79998779297</ele>
        <time>2016-05-18T13:50:57Z</time>
      </trkpt>
      <trkpt lat="43.37358" lon="6.14232">
        <ele>387.79998779297</ele>
        <time>2016-05-18T13:50:59Z</time>
      </trkpt>
      <trkpt lat="43.37358" lon="6.14232">
        <ele>387.79998779297</ele>
        <time>2016-05-18T13:51:01Z</time>
      </trkpt>
      <trkpt lat="43.37358" lon="6.14233">
        <ele>387.79998779297</ele>
        <time>2016-05-18T13:51:03Z</time>
      </trkpt>
      <trkpt lat="43.37358" lon="6.14233">
        <ele>387.79998779297</ele>
        <time>2016-05-18T13:51:05Z</time>
      </trkpt>
      <trkpt lat="43.37358" lon="6.14233">
        <ele>387.79998779297</ele>
        <time>2016-05-18T13:51:07Z</time>
      </trkpt>
      <trkpt lat="43.37358" lon="6.14233">
        <ele>387.60000610352</ele>
        <time>2016-05-18T13:51:09Z</time>
      </trkpt>
      <trkpt lat="43.37358" lon="6.14233">
        <ele>387.60000610352</ele>
        <time>2016-05-18T13:51:11Z</time>
      </trkpt>
      <trkpt lat="43.37358" lon="6.14233">
        <ele>387.60000610352</ele>
        <time>2016-05-18T13:51:13Z</time>
      </trkpt>
      <trkpt lat="43.37358" lon="6.14233">
        <ele>387.79998779297</ele>
        <time>2016-05-18T13:51:15Z</time>
      </trkpt>
      <trkpt lat="43.37358" lon="6.14233">
        <ele>387.79998779297</ele>
        <time>2016-05-18T13:51:17Z</time>
      </trkpt>
      <trkpt lat="43.37358" lon="6.14233">
        <ele>387.79998779297</ele>
        <time>2016-05-18T13:51:19Z</time>
      </trkpt>
      <trkpt lat="43.37358" lon="6.14233">
        <ele>387.60000610352</ele>
        <time>2016-05-18T13:51:21Z</time>
      </trkpt>
      <trkpt lat="43.37358" lon="6.14233">
        <ele>387.60000610352</ele>
        <time>2016-05-18T13:51:23Z</time>
      </trkpt>
      <trkpt lat="43.37358" lon="6.14233">
        <ele>387.60000610352</ele>
        <time>2016-05-18T13:51:25Z</time>
      </trkpt>
      <trkpt lat="43.37358" lon="6.14233">
        <ele>387.60000610352</ele>
        <time>2016-05-18T13:51:27Z</time>
      </trkpt>
      <trkpt lat="43.37358" lon="6.14233">
        <ele>387.79998779297</ele>
        <time>2016-05-18T13:51:29Z</time>
      </trkpt>
      <trkpt lat="43.37358" lon="6.14233">
        <ele>388.20001220703</ele>
        <time>2016-05-18T13:51:31Z</time>
      </trkpt>
      <trkpt lat="43.37358" lon="6.14233">
        <ele>388.20001220703</ele>
        <time>2016-05-18T13:51:33Z</time>
      </trkpt>
      <trkpt lat="43.37358" lon="6.14233">
        <ele>388</ele>
        <time>2016-05-18T13:51:35Z</time>
      </trkpt>
      <trkpt lat="43.37358" lon="6.14233">
        <ele>387.79998779297</ele>
        <time>2016-05-18T13:51:37Z</time>
      </trkpt>
      <trkpt lat="43.37358" lon="6.14233">
        <ele>388</ele>
        <time>2016-05-18T13:51:39Z</time>
      </trkpt>
      <trkpt lat="43.37358" lon="6.14233">
        <ele>388</ele>
        <time>2016-05-18T13:51:41Z</time>
      </trkpt>
      <trkpt lat="43.37358" lon="6.14233">
        <ele>388.39999389648</ele>
        <time>2016-05-18T13:51:43Z</time>
      </trkpt>
      <trkpt lat="43.37358" lon="6.14233">
        <ele>388.39999389648</ele>
        <time>2016-05-18T13:51:47Z</time>
      </trkpt>
      <trkpt lat="43.37358" lon="6.14233">
        <ele>388.39999389648</ele>
        <time>2016-05-18T13:51:49Z</time>
      </trkpt>
      <trkpt lat="43.37358" lon="6.14233">
        <ele>388.20001220703</ele>
        <time>2016-05-18T13:51:51Z</time>
      </trkpt>
      <trkpt lat="43.37358" lon="6.14233">
        <ele>388.20001220703</ele>
        <time>2016-05-18T13:51:53Z</time>
      </trkpt>
      <trkpt lat="43.37358" lon="6.14232">
        <ele>388.20001220703</ele>
        <time>2016-05-18T13:51:55Z</time>
      </trkpt>
      <trkpt lat="43.37358" lon="6.14233">
        <ele>388.20001220703</ele>
        <time>2016-05-18T13:51:57Z</time>
      </trkpt>
      <trkpt lat="43.37358" lon="6.14233">
        <ele>388</ele>
        <time>2016-05-18T13:51:59Z</time>
      </trkpt>
      <trkpt lat="43.37358" lon="6.14233">
        <ele>388</ele>
        <time>2016-05-18T13:52:01Z</time>
      </trkpt>
      <trkpt lat="43.37358" lon="6.14233">
        <ele>387.79998779297</ele>
        <time>2016-05-18T13:52:03Z</time>
      </trkpt>
      <trkpt lat="43.37358" lon="6.14233">
        <ele>388</ele>
        <time>2016-05-18T13:52:05Z</time>
      </trkpt>
      <trkpt lat="43.37358" lon="6.14233">
        <ele>388</ele>
        <time>2016-05-18T13:52:07Z</time>
      </trkpt>
      <trkpt lat="43.37358" lon="6.14233">
        <ele>388.20001220703</ele>
        <time>2016-05-18T13:52:09Z</time>
      </trkpt>
      <trkpt lat="43.37358" lon="6.14233">
        <ele>388.20001220703</ele>
        <time>2016-05-18T13:52:11Z</time>
      </trkpt>
      <trkpt lat="43.37358" lon="6.14233">
        <ele>388.20001220703</ele>
        <time>2016-05-18T13:52:13Z</time>
      </trkpt>
      <trkpt lat="43.37358" lon="6.14233">
        <ele>388.20001220703</ele>
        <time>2016-05-18T13:52:15Z</time>
      </trkpt>
      <trkpt lat="43.37358" lon="6.14233">
        <ele>388.20001220703</ele>
        <time>2016-05-18T13:52:17Z</time>
      </trkpt>
      <trkpt lat="43.37358" lon="6.14233">
        <ele>388</ele>
        <time>2016-05-18T13:52:19Z</time>
      </trkpt>
      <trkpt lat="43.37358" lon="6.14233">
        <ele>387.79998779297</ele>
        <time>2016-05-18T13:52:21Z</time>
      </trkpt>
      <trkpt lat="43.37358" lon="6.14233">
        <ele>387.79998779297</ele>
        <time>2016-05-18T13:52:23Z</time>
      </trkpt>
      <trkpt lat="43.37357" lon="6.14234">
        <ele>387.79998779297</ele>
        <time>2016-05-18T13:52:25Z</time>
      </trkpt>
      <trkpt lat="43.37356" lon="6.14235">
        <ele>387.60000610352</ele>
        <time>2016-05-18T13:52:27Z</time>
      </trkpt>
      <trkpt lat="43.37355" lon="6.14236">
        <ele>387.60000610352</ele>
        <time>2016-05-18T13:52:28Z</time>
      </trkpt>
      <trkpt lat="43.37354" lon="6.14237">
        <ele>387.39999389648</ele>
        <time>2016-05-18T13:52:29Z</time>
      </trkpt>
      <trkpt lat="43.37352" lon="6.14239">
        <ele>387.39999389648</ele>
        <time>2016-05-18T13:52:31Z</time>
      </trkpt>
      <trkpt lat="43.3735" lon="6.1424">
        <ele>387.39999389648</ele>
        <time>2016-05-18T13:52:33Z</time>
      </trkpt>
      <trkpt lat="43.37346" lon="6.14243">
        <ele>387.39999389648</ele>
        <time>2016-05-18T13:52:35Z</time>
      </trkpt>
      <trkpt lat="43.37342" lon="6.14246">
        <ele>387</ele>
        <time>2016-05-18T13:52:37Z</time>
      </trkpt>
      <trkpt lat="43.37339" lon="6.14248">
        <ele>386.60000610352</ele>
        <time>2016-05-18T13:52:38Z</time>
      </trkpt>
      <trkpt lat="43.37337" lon="6.1425">
        <ele>386.39999389648</ele>
        <time>2016-05-18T13:52:39Z</time>
      </trkpt>
      <trkpt lat="43.37333" lon="6.14253">
        <ele>385</ele>
        <time>2016-05-18T13:52:41Z</time>
      </trkpt>
      <trkpt lat="43.37331" lon="6.14255">
        <ele>384.20001220703</ele>
        <time>2016-05-18T13:52:42Z</time>
      </trkpt>
      <trkpt lat="43.37329" lon="6.14257">
        <ele>383.20001220703</ele>
        <time>2016-05-18T13:52:43Z</time>
      </trkpt>
      <trkpt lat="43.37325" lon="6.14262">
        <ele>382.20001220703</ele>
        <time>2016-05-18T13:52:45Z</time>
      </trkpt>
      <trkpt lat="43.37323" lon="6.14264">
        <ele>381.79998779297</ele>
        <time>2016-05-18T13:52:46Z</time>
      </trkpt>
      <trkpt lat="43.37321" lon="6.14266">
        <ele>381.79998779297</ele>
        <time>2016-05-18T13:52:47Z</time>
      </trkpt>
      <trkpt lat="43.37317" lon="6.14269">
        <ele>381.39999389648</ele>
        <time>2016-05-18T13:52:49Z</time>
      </trkpt>
      <trkpt lat="43.37312" lon="6.14272">
        <ele>380.60000610352</ele>
        <time>2016-05-18T13:52:51Z</time>
      </trkpt>
      <trkpt lat="43.37304" lon="6.14277">
        <ele>380</ele>
        <time>2016-05-18T13:52:53Z</time>
      </trkpt>
      <trkpt lat="43.37302" lon="6.14278">
        <ele>379.20001220703</ele>
        <time>2016-05-18T13:52:54Z</time>
      </trkpt>
      <trkpt lat="43.37299" lon="6.1428">
        <ele>378.60000610352</ele>
        <time>2016-05-18T13:52:55Z</time>
      </trkpt>
      <trkpt lat="43.37294" lon="6.14283">
        <ele>377.79998779297</ele>
        <time>2016-05-18T13:52:57Z</time>
      </trkpt>
      <trkpt lat="43.37291" lon="6.14287">
        <ele>377</ele>
        <time>2016-05-18T13:52:59Z</time>
      </trkpt>
      <trkpt lat="43.37288" lon="6.14289">
        <ele>376.79998779297</ele>
        <time>2016-05-18T13:53:00Z</time>
      </trkpt>
      <trkpt lat="43.37286" lon="6.14292">
        <ele>376.79998779297</ele>
        <time>2016-05-18T13:53:01Z</time>
      </trkpt>
      <trkpt lat="43.37282" lon="6.14297">
        <ele>375.79998779297</ele>
        <time>2016-05-18T13:53:03Z</time>
      </trkpt>
      <trkpt lat="43.37279" lon="6.143">
        <ele>375.39999389648</ele>
        <time>2016-05-18T13:53:04Z</time>
      </trkpt>
      <trkpt lat="43.37276" lon="6.14302">
        <ele>375.39999389648</ele>
        <time>2016-05-18T13:53:05Z</time>
      </trkpt>
      <trkpt lat="43.37269" lon="6.14305">
        <ele>375</ele>
        <time>2016-05-18T13:53:07Z</time>
      </trkpt>
      <trkpt lat="43.37266" lon="6.14307">
        <ele>374.39999389648</ele>
        <time>2016-05-18T13:53:08Z</time>
      </trkpt>
      <trkpt lat="43.37263" lon="6.14308">
        <ele>374.20001220703</ele>
        <time>2016-05-18T13:53:09Z</time>
      </trkpt>
      <trkpt lat="43.37257" lon="6.14306">
        <ele>373.39999389648</ele>
        <time>2016-05-18T13:53:11Z</time>
      </trkpt>
      <trkpt lat="43.37252" lon="6.14304">
        <ele>372.79998779297</ele>
        <time>2016-05-18T13:53:13Z</time>
      </trkpt>
      <trkpt lat="43.37249" lon="6.14304">
        <ele>372</ele>
        <time>2016-05-18T13:53:15Z</time>
      </trkpt>
      <trkpt lat="43.37247" lon="6.14305">
        <ele>371.79998779297</ele>
        <time>2016-05-18T13:53:17Z</time>
      </trkpt>
      <trkpt lat="43.37247" lon="6.14306">
        <ele>371.79998779297</ele>
        <time>2016-05-18T13:53:19Z</time>
      </trkpt>
      <trkpt lat="43.37247" lon="6.14306">
        <ele>371.79998779297</ele>
        <time>2016-05-18T13:53:21Z</time>
      </trkpt>
      <trkpt lat="43.37247" lon="6.14306">
        <ele>371.79998779297</ele>
        <time>2016-05-18T13:53:23Z</time>
      </trkpt>
      <trkpt lat="43.37247" lon="6.14306">
        <ele>371.79998779297</ele>
        <time>2016-05-18T13:53:25Z</time>
      </trkpt>
      <trkpt lat="43.37247" lon="6.14306">
        <ele>371.60000610352</ele>
        <time>2016-05-18T13:53:27Z</time>
      </trkpt>
      <trkpt lat="43.37247" lon="6.14306">
        <ele>371.60000610352</ele>
        <time>2016-05-18T13:53:28Z</time>
      </trkpt>
      <trkpt lat="43.37247" lon="6.14306">
        <ele>371.60000610352</ele>
        <time>2016-05-18T13:53:29Z</time>
      </trkpt>
      <trkpt lat="43.37247" lon="6.14307">
        <ele>371.39999389648</ele>
        <time>2016-05-18T13:53:31Z</time>
      </trkpt>
      <trkpt lat="43.37247" lon="6.14307">
        <ele>371.20001220703</ele>
        <time>2016-05-18T13:53:33Z</time>
      </trkpt>
      <trkpt lat="43.37247" lon="6.14307">
        <ele>370.79998779297</ele>
        <time>2016-05-18T13:53:35Z</time>
      </trkpt>
      <trkpt lat="43.37247" lon="6.14307">
        <ele>370.60000610352</ele>
        <time>2016-05-18T13:53:37Z</time>
      </trkpt>
      <trkpt lat="43.37247" lon="6.14307">
        <ele>370.79998779297</ele>
        <time>2016-05-18T13:53:39Z</time>
      </trkpt>
      <trkpt lat="43.37247" lon="6.14307">
        <ele>371</ele>
        <time>2016-05-18T13:53:41Z</time>
      </trkpt>
      <trkpt lat="43.37247" lon="6.14307">
        <ele>371.20001220703</ele>
        <time>2016-05-18T13:53:43Z</time>
      </trkpt>
      <trkpt lat="43.37247" lon="6.14307">
        <ele>371.20001220703</ele>
        <time>2016-05-18T13:53:45Z</time>
      </trkpt>
      <trkpt lat="43.37246" lon="6.14307">
        <ele>371.20001220703</ele>
        <time>2016-05-18T13:53:47Z</time>
      </trkpt>
      <trkpt lat="43.37246" lon="6.14307">
        <ele>371.20001220703</ele>
        <time>2016-05-18T13:53:48Z</time>
      </trkpt>
      <trkpt lat="43.37246" lon="6.14307">
        <ele>371</ele>
        <time>2016-05-18T13:53:51Z</time>
      </trkpt>
      <trkpt lat="43.37246" lon="6.14307">
        <ele>370.79998779297</ele>
        <time>2016-05-18T13:53:53Z</time>
      </trkpt>
      <trkpt lat="43.37246" lon="6.14307">
        <ele>370.60000610352</ele>
        <time>2016-05-18T13:53:55Z</time>
      </trkpt>
      <trkpt lat="43.37246" lon="6.14307">
        <ele>370.60000610352</ele>
        <time>2016-05-18T13:53:57Z</time>
      </trkpt>
      <trkpt lat="43.37246" lon="6.14308">
        <ele>370.60000610352</ele>
        <time>2016-05-18T13:53:59Z</time>
      </trkpt>
      <trkpt lat="43.37246" lon="6.14308">
        <ele>370.60000610352</ele>
        <time>2016-05-18T13:54:01Z</time>
      </trkpt>
      <trkpt lat="43.37246" lon="6.14308">
        <ele>370.79998779297</ele>
        <time>2016-05-18T13:54:03Z</time>
      </trkpt>
      <trkpt lat="43.37246" lon="6.14308">
        <ele>370.79998779297</ele>
        <time>2016-05-18T13:54:05Z</time>
      </trkpt>
      <trkpt lat="43.37246" lon="6.14308">
        <ele>370.79998779297</ele>
        <time>2016-05-18T13:54:07Z</time>
      </trkpt>
      <trkpt lat="43.37246" lon="6.14308">
        <ele>370.79998779297</ele>
        <time>2016-05-18T13:54:09Z</time>
      </trkpt>
      <trkpt lat="43.37245" lon="6.14308">
        <ele>370.79998779297</ele>
        <time>2016-05-18T13:54:10Z</time>
      </trkpt>
      <trkpt lat="43.37245" lon="6.14308">
        <ele>370.79998779297</ele>
        <time>2016-05-18T13:54:11Z</time>
      </trkpt>
      <trkpt lat="43.37245" lon="6.14308">
        <ele>370.79998779297</ele>
        <time>2016-05-18T13:54:13Z</time>
      </trkpt>
      <trkpt lat="43.37245" lon="6.14308">
        <ele>371.20001220703</ele>
        <time>2016-05-18T13:54:15Z</time>
      </trkpt>
      <trkpt lat="43.37245" lon="6.14308">
        <ele>371.20001220703</ele>
        <time>2016-05-18T13:54:17Z</time>
      </trkpt>
      <trkpt lat="43.37245" lon="6.14308">
        <ele>371</ele>
        <time>2016-05-18T13:54:19Z</time>
      </trkpt>
      <trkpt lat="43.37245" lon="6.14308">
        <ele>371</ele>
        <time>2016-05-18T13:54:20Z</time>
      </trkpt>
      <trkpt lat="43.37245" lon="6.14309">
        <ele>371</ele>
        <time>2016-05-18T13:54:21Z</time>
      </trkpt>
      <trkpt lat="43.37245" lon="6.14309">
        <ele>370.79998779297</ele>
        <time>2016-05-18T13:54:23Z</time>
      </trkpt>
      <trkpt lat="43.37245" lon="6.14309">
        <ele>371</ele>
        <time>2016-05-18T13:54:25Z</time>
      </trkpt>
      <trkpt lat="43.37245" lon="6.14309">
        <ele>371.20001220703</ele>
        <time>2016-05-18T13:54:27Z</time>
      </trkpt>
      <trkpt lat="43.37245" lon="6.14309">
        <ele>371.39999389648</ele>
        <time>2016-05-18T13:54:29Z</time>
      </trkpt>
      <trkpt lat="43.37245" lon="6.14309">
        <ele>371.39999389648</ele>
        <time>2016-05-18T13:54:31Z</time>
      </trkpt>
      <trkpt lat="43.37245" lon="6.14309">
        <ele>371.79998779297</ele>
        <time>2016-05-18T13:54:33Z</time>
      </trkpt>
      <trkpt lat="43.37244" lon="6.14309">
        <ele>371.79998779297</ele>
        <time>2016-05-18T13:54:35Z</time>
      </trkpt>
      <trkpt lat="43.37244" lon="6.14309">
        <ele>371.79998779297</ele>
        <time>2016-05-18T13:54:37Z</time>
      </trkpt>
      <trkpt lat="43.37244" lon="6.1431">
        <ele>371.60000610352</ele>
        <time>2016-05-18T13:54:39Z</time>
      </trkpt>
      <trkpt lat="43.37244" lon="6.1431">
        <ele>371.60000610352</ele>
        <time>2016-05-18T13:54:41Z</time>
      </trkpt>
      <trkpt lat="43.37244" lon="6.1431">
        <ele>371.39999389648</ele>
        <time>2016-05-18T13:54:43Z</time>
      </trkpt>
      <trkpt lat="43.37244" lon="6.1431">
        <ele>371.39999389648</ele>
        <time>2016-05-18T13:54:45Z</time>
      </trkpt>
      <trkpt lat="43.37244" lon="6.1431">
        <ele>371.39999389648</ele>
        <time>2016-05-18T13:54:47Z</time>
      </trkpt>
      <trkpt lat="43.37244" lon="6.1431">
        <ele>371.39999389648</ele>
        <time>2016-05-18T13:54:49Z</time>
      </trkpt>
      <trkpt lat="43.37244" lon="6.1431">
        <ele>371.20001220703</ele>
        <time>2016-05-18T13:54:51Z</time>
      </trkpt>
      <trkpt lat="43.37244" lon="6.1431">
        <ele>371</ele>
        <time>2016-05-18T13:54:53Z</time>
      </trkpt>
      <trkpt lat="43.37244" lon="6.14309">
        <ele>371</ele>
        <time>2016-05-18T13:54:55Z</time>
      </trkpt>
      <trkpt lat="43.37244" lon="6.14309">
        <ele>371.20001220703</ele>
        <time>2016-05-18T13:54:57Z</time>
      </trkpt>
      <trkpt lat="43.37244" lon="6.14309">
        <ele>371.39999389648</ele>
        <time>2016-05-18T13:54:59Z</time>
      </trkpt>
      <trkpt lat="43.37244" lon="6.14309">
        <ele>371.39999389648</ele>
        <time>2016-05-18T13:55:01Z</time>
      </trkpt>
      <trkpt lat="43.37244" lon="6.14309">
        <ele>371.60000610352</ele>
        <time>2016-05-18T13:55:03Z</time>
      </trkpt>
      <trkpt lat="43.37244" lon="6.14309">
        <ele>371.60000610352</ele>
        <time>2016-05-18T13:55:05Z</time>
      </trkpt>
      <trkpt lat="43.37244" lon="6.14309">
        <ele>371.39999389648</ele>
        <time>2016-05-18T13:55:07Z</time>
      </trkpt>
      <trkpt lat="43.37244" lon="6.14309">
        <ele>371</ele>
        <time>2016-05-18T13:55:09Z</time>
      </trkpt>
      <trkpt lat="43.37244" lon="6.14309">
        <ele>371</ele>
        <time>2016-05-18T13:55:11Z</time>
      </trkpt>
      <trkpt lat="43.37244" lon="6.14309">
        <ele>370.79998779297</ele>
        <time>2016-05-18T13:55:13Z</time>
      </trkpt>
      <trkpt lat="43.37244" lon="6.14309">
        <ele>370.79998779297</ele>
        <time>2016-05-18T13:55:15Z</time>
      </trkpt>
      <trkpt lat="43.37244" lon="6.14309">
        <ele>370.79998779297</ele>
        <time>2016-05-18T13:55:17Z</time>
      </trkpt>
      <trkpt lat="43.37244" lon="6.14309">
        <ele>371</ele>
        <time>2016-05-18T13:55:19Z</time>
      </trkpt>
      <trkpt lat="43.37244" lon="6.14309">
        <ele>371.20001220703</ele>
        <time>2016-05-18T13:55:21Z</time>
      </trkpt>
      <trkpt lat="43.37244" lon="6.14309">
        <ele>371.39999389648</ele>
        <time>2016-05-18T13:55:23Z</time>
      </trkpt>
      <trkpt lat="43.37244" lon="6.14309">
        <ele>371.60000610352</ele>
        <time>2016-05-18T13:55:25Z</time>
      </trkpt>
      <trkpt lat="43.37244" lon="6.14309">
        <ele>371.60000610352</ele>
        <time>2016-05-18T13:55:26Z</time>
      </trkpt>
      <trkpt lat="43.37244" lon="6.14309">
        <ele>371.79998779297</ele>
        <time>2016-05-18T13:55:27Z</time>
      </trkpt>
      <trkpt lat="43.37244" lon="6.14309">
        <ele>371.79998779297</ele>
        <time>2016-05-18T13:55:29Z</time>
      </trkpt>
      <trkpt lat="43.37244" lon="6.14309">
        <ele>371.79998779297</ele>
        <time>2016-05-18T13:55:31Z</time>
      </trkpt>
      <trkpt lat="43.37244" lon="6.14309">
        <ele>371.79998779297</ele>
        <time>2016-05-18T13:55:33Z</time>
      </trkpt>
      <trkpt lat="43.37244" lon="6.14309">
        <ele>372</ele>
        <time>2016-05-18T13:55:35Z</time>
      </trkpt>
      <trkpt lat="43.37244" lon="6.14309">
        <ele>372</ele>
        <time>2016-05-18T13:55:36Z</time>
      </trkpt>
      <trkpt lat="43.37244" lon="6.14309">
        <ele>372</ele>
        <time>2016-05-18T13:55:37Z</time>
      </trkpt>
      <trkpt lat="43.37244" lon="6.14309">
        <ele>372.20001220703</ele>
        <time>2016-05-18T13:55:39Z</time>
      </trkpt>
      <trkpt lat="43.37244" lon="6.14309">
        <ele>372</ele>
        <time>2016-05-18T13:55:41Z</time>
      </trkpt>
      <trkpt lat="43.37244" lon="6.14309">
        <ele>372</ele>
        <time>2016-05-18T13:55:43Z</time>
      </trkpt>
      <trkpt lat="43.37244" lon="6.14309">
        <ele>372</ele>
        <time>2016-05-18T13:55:45Z</time>
      </trkpt>
      <trkpt lat="43.37244" lon="6.1431">
        <ele>371.79998779297</ele>
        <time>2016-05-18T13:55:47Z</time>
      </trkpt>
      <trkpt lat="43.37244" lon="6.1431">
        <ele>371.79998779297</ele>
        <time>2016-05-18T13:55:49Z</time>
      </trkpt>
      <trkpt lat="43.37244" lon="6.1431">
        <ele>371.60000610352</ele>
        <time>2016-05-18T13:55:51Z</time>
      </trkpt>
      <trkpt lat="43.37244" lon="6.1431">
        <ele>371.60000610352</ele>
        <time>2016-05-18T13:55:53Z</time>
      </trkpt>
      <trkpt lat="43.37244" lon="6.1431">
        <ele>371.60000610352</ele>
        <time>2016-05-18T13:55:55Z</time>
      </trkpt>
      <trkpt lat="43.37244" lon="6.1431">
        <ele>371.60000610352</ele>
        <time>2016-05-18T13:55:57Z</time>
      </trkpt>
      <trkpt lat="43.37244" lon="6.1431">
        <ele>371.79998779297</ele>
        <time>2016-05-18T13:55:59Z</time>
      </trkpt>
      <trkpt lat="43.37244" lon="6.1431">
        <ele>371.79998779297</ele>
        <time>2016-05-18T13:56:00Z</time>
      </trkpt>
      <trkpt lat="43.37244" lon="6.1431">
        <ele>371.79998779297</ele>
        <time>2016-05-18T13:56:01Z</time>
      </trkpt>
      <trkpt lat="43.37244" lon="6.1431">
        <ele>371.79998779297</ele>
        <time>2016-05-18T13:56:03Z</time>
      </trkpt>
      <trkpt lat="43.37244" lon="6.1431">
        <ele>371.60000610352</ele>
        <time>2016-05-18T13:56:05Z</time>
      </trkpt>
      <trkpt lat="43.37244" lon="6.1431">
        <ele>371.39999389648</ele>
        <time>2016-05-18T13:56:07Z</time>
      </trkpt>
      <trkpt lat="43.37244" lon="6.1431">
        <ele>371.39999389648</ele>
        <time>2016-05-18T13:56:09Z</time>
      </trkpt>
      <trkpt lat="43.37244" lon="6.1431">
        <ele>371.20001220703</ele>
        <time>2016-05-18T13:56:11Z</time>
      </trkpt>
      <trkpt lat="43.37244" lon="6.1431">
        <ele>371.39999389648</ele>
        <time>2016-05-18T13:56:12Z</time>
      </trkpt>
      <trkpt lat="43.37243" lon="6.1431">
        <ele>371.39999389648</ele>
        <time>2016-05-18T13:56:13Z</time>
      </trkpt>
      <trkpt lat="43.37243" lon="6.14309">
        <ele>371.60000610352</ele>
        <time>2016-05-18T13:56:15Z</time>
      </trkpt>
      <trkpt lat="43.37243" lon="6.1431">
        <ele>371.79998779297</ele>
        <time>2016-05-18T13:56:17Z</time>
      </trkpt>
      <trkpt lat="43.37243" lon="6.1431">
        <ele>371.79998779297</ele>
        <time>2016-05-18T13:56:19Z</time>
      </trkpt>
      <trkpt lat="43.37243" lon="6.1431">
        <ele>371.79998779297</ele>
        <time>2016-05-18T13:56:21Z</time>
      </trkpt>
      <trkpt lat="43.37243" lon="6.1431">
        <ele>371.79998779297</ele>
        <time>2016-05-18T13:56:23Z</time>
      </trkpt>
      <trkpt lat="43.37243" lon="6.1431">
        <ele>371.60000610352</ele>
        <time>2016-05-18T13:56:25Z</time>
      </trkpt>
      <trkpt lat="43.37243" lon="6.1431">
        <ele>371.79998779297</ele>
        <time>2016-05-18T13:56:27Z</time>
      </trkpt>
      <trkpt lat="43.37243" lon="6.1431">
        <ele>371.79998779297</ele>
        <time>2016-05-18T13:56:29Z</time>
      </trkpt>
      <trkpt lat="43.37243" lon="6.1431">
        <ele>371.79998779297</ele>
        <time>2016-05-18T13:56:31Z</time>
      </trkpt>
      <trkpt lat="43.37243" lon="6.1431">
        <ele>371.79998779297</ele>
        <time>2016-05-18T13:56:33Z</time>
      </trkpt>
      <trkpt lat="43.37243" lon="6.1431">
        <ele>371.60000610352</ele>
        <time>2016-05-18T13:56:35Z</time>
      </trkpt>
      <trkpt lat="43.37243" lon="6.1431">
        <ele>371.60000610352</ele>
        <time>2016-05-18T13:56:37Z</time>
      </trkpt>
      <trkpt lat="43.37243" lon="6.1431">
        <ele>371.60000610352</ele>
        <time>2016-05-18T13:56:39Z</time>
      </trkpt>
      <trkpt lat="43.37243" lon="6.1431">
        <ele>371.60000610352</ele>
        <time>2016-05-18T13:56:41Z</time>
      </trkpt>
      <trkpt lat="43.37243" lon="6.1431">
        <ele>371.79998779297</ele>
        <time>2016-05-18T13:56:43Z</time>
      </trkpt>
      <trkpt lat="43.37243" lon="6.1431">
        <ele>372</ele>
        <time>2016-05-18T13:56:45Z</time>
      </trkpt>
      <trkpt lat="43.37243" lon="6.14311">
        <ele>372</ele>
        <time>2016-05-18T13:56:47Z</time>
      </trkpt>
      <trkpt lat="43.37243" lon="6.14311">
        <ele>371.79998779297</ele>
        <time>2016-05-18T13:56:49Z</time>
      </trkpt>
      <trkpt lat="43.37243" lon="6.14311">
        <ele>371.79998779297</ele>
        <time>2016-05-18T13:56:51Z</time>
      </trkpt>
      <trkpt lat="43.37243" lon="6.14311">
        <ele>371.79998779297</ele>
        <time>2016-05-18T13:56:53Z</time>
      </trkpt>
      <trkpt lat="43.37243" lon="6.14311">
        <ele>371.60000610352</ele>
        <time>2016-05-18T13:56:55Z</time>
      </trkpt>
      <trkpt lat="43.37243" lon="6.14311">
        <ele>371.39999389648</ele>
        <time>2016-05-18T13:56:57Z</time>
      </trkpt>
      <trkpt lat="43.37243" lon="6.14311">
        <ele>371.60000610352</ele>
        <time>2016-05-18T13:56:59Z</time>
      </trkpt>
      <trkpt lat="43.37243" lon="6.14311">
        <ele>372</ele>
        <time>2016-05-18T13:57:01Z</time>
      </trkpt>
      <trkpt lat="43.37243" lon="6.14311">
        <ele>372.20001220703</ele>
        <time>2016-05-18T13:57:03Z</time>
      </trkpt>
      <trkpt lat="43.37243" lon="6.14311">
        <ele>372.20001220703</ele>
        <time>2016-05-18T13:57:04Z</time>
      </trkpt>
      <trkpt lat="43.37243" lon="6.14311">
        <ele>372.20001220703</ele>
        <time>2016-05-18T13:57:05Z</time>
      </trkpt>
      <trkpt lat="43.37243" lon="6.14311">
        <ele>372.20001220703</ele>
        <time>2016-05-18T13:57:07Z</time>
      </trkpt>
      <trkpt lat="43.37243" lon="6.14311">
        <ele>372.20001220703</ele>
        <time>2016-05-18T13:57:09Z</time>
      </trkpt>
      <trkpt lat="43.37243" lon="6.14311">
        <ele>372.20001220703</ele>
        <time>2016-05-18T13:57:11Z</time>
      </trkpt>
      <trkpt lat="43.37243" lon="6.14311">
        <ele>372.39999389648</ele>
        <time>2016-05-18T13:57:13Z</time>
      </trkpt>
      <trkpt lat="43.37243" lon="6.14311">
        <ele>372.39999389648</ele>
        <time>2016-05-18T13:57:15Z</time>
      </trkpt>
      <trkpt lat="43.37243" lon="6.14311">
        <ele>372.39999389648</ele>
        <time>2016-05-18T13:57:17Z</time>
      </trkpt>
      <trkpt lat="43.37243" lon="6.14311">
        <ele>372.20001220703</ele>
        <time>2016-05-18T13:57:19Z</time>
      </trkpt>
      <trkpt lat="43.37243" lon="6.14311">
        <ele>372.20001220703</ele>
        <time>2016-05-18T13:57:21Z</time>
      </trkpt>
      <trkpt lat="43.37243" lon="6.14311">
        <ele>372.20001220703</ele>
        <time>2016-05-18T13:57:23Z</time>
      </trkpt>
      <trkpt lat="43.37244" lon="6.14311">
        <ele>372.20001220703</ele>
        <time>2016-05-18T13:57:25Z</time>
      </trkpt>
      <trkpt lat="43.37243" lon="6.14311">
        <ele>372.39999389648</ele>
        <time>2016-05-18T13:57:27Z</time>
      </trkpt>
      <trkpt lat="43.37243" lon="6.14311">
        <ele>372.39999389648</ele>
        <time>2016-05-18T13:57:29Z</time>
      </trkpt>
      <trkpt lat="43.37244" lon="6.14311">
        <ele>372.20001220703</ele>
        <time>2016-05-18T13:57:31Z</time>
      </trkpt>
      <trkpt lat="43.37244" lon="6.14311">
        <ele>372.20001220703</ele>
        <time>2016-05-18T13:57:33Z</time>
      </trkpt>
      <trkpt lat="43.37244" lon="6.14311">
        <ele>372.20001220703</ele>
        <time>2016-05-18T13:57:35Z</time>
      </trkpt>
      <trkpt lat="43.37244" lon="6.14311">
        <ele>372</ele>
        <time>2016-05-18T13:57:37Z</time>
      </trkpt>
      <trkpt lat="43.37244" lon="6.14311">
        <ele>372</ele>
        <time>2016-05-18T13:57:39Z</time>
      </trkpt>
      <trkpt lat="43.37244" lon="6.14311">
        <ele>371.79998779297</ele>
        <time>2016-05-18T13:57:41Z</time>
      </trkpt>
      <trkpt lat="43.37244" lon="6.14311">
        <ele>371.79998779297</ele>
        <time>2016-05-18T13:57:43Z</time>
      </trkpt>
      <trkpt lat="43.37244" lon="6.14311">
        <ele>371.60000610352</ele>
        <time>2016-05-18T13:57:45Z</time>
      </trkpt>
      <trkpt lat="43.37244" lon="6.14311">
        <ele>371.60000610352</ele>
        <time>2016-05-18T13:57:47Z</time>
      </trkpt>
      <trkpt lat="43.37244" lon="6.14311">
        <ele>371.60000610352</ele>
        <time>2016-05-18T13:57:49Z</time>
      </trkpt>
      <trkpt lat="43.37244" lon="6.14311">
        <ele>371.60000610352</ele>
        <time>2016-05-18T13:57:51Z</time>
      </trkpt>
      <trkpt lat="43.37244" lon="6.14311">
        <ele>371.79998779297</ele>
        <time>2016-05-18T13:57:53Z</time>
      </trkpt>
      <trkpt lat="43.37244" lon="6.14311">
        <ele>371.79998779297</ele>
        <time>2016-05-18T13:57:55Z</time>
      </trkpt>
      <trkpt lat="43.37244" lon="6.14311">
        <ele>372</ele>
        <time>2016-05-18T13:57:57Z</time>
      </trkpt>
      <trkpt lat="43.37244" lon="6.14311">
        <ele>371.79998779297</ele>
        <time>2016-05-18T13:57:59Z</time>
      </trkpt>
      <trkpt lat="43.37244" lon="6.14311">
        <ele>372</ele>
        <time>2016-05-18T13:58:01Z</time>
      </trkpt>
      <trkpt lat="43.37244" lon="6.14311">
        <ele>372</ele>
        <time>2016-05-18T13:58:03Z</time>
      </trkpt>
      <trkpt lat="43.37244" lon="6.14311">
        <ele>372.20001220703</ele>
        <time>2016-05-18T13:58:05Z</time>
      </trkpt>
      <trkpt lat="43.37244" lon="6.14311">
        <ele>372.20001220703</ele>
        <time>2016-05-18T13:58:07Z</time>
      </trkpt>
      <trkpt lat="43.37244" lon="6.14311">
        <ele>372.20001220703</ele>
        <time>2016-05-18T13:58:09Z</time>
      </trkpt>
      <trkpt lat="43.37244" lon="6.14311">
        <ele>372</ele>
        <time>2016-05-18T13:58:11Z</time>
      </trkpt>
      <trkpt lat="43.37244" lon="6.14311">
        <ele>371.79998779297</ele>
        <time>2016-05-18T13:58:13Z</time>
      </trkpt>
      <trkpt lat="43.37244" lon="6.14311">
        <ele>371.79998779297</ele>
        <time>2016-05-18T13:58:15Z</time>
      </trkpt>
      <trkpt lat="43.37244" lon="6.14311">
        <ele>371.79998779297</ele>
        <time>2016-05-18T13:58:17Z</time>
      </trkpt>
      <trkpt lat="43.37244" lon="6.14311">
        <ele>372</ele>
        <time>2016-05-18T13:58:19Z</time>
      </trkpt>
      <trkpt lat="43.37244" lon="6.14311">
        <ele>372</ele>
        <time>2016-05-18T13:58:21Z</time>
      </trkpt>
      <trkpt lat="43.37244" lon="6.14311">
        <ele>372</ele>
        <time>2016-05-18T13:58:23Z</time>
      </trkpt>
      <trkpt lat="43.37244" lon="6.14311">
        <ele>372.20001220703</ele>
        <time>2016-05-18T13:58:25Z</time>
      </trkpt>
      <trkpt lat="43.37244" lon="6.14311">
        <ele>372.60000610352</ele>
        <time>2016-05-18T13:58:27Z</time>
      </trkpt>
      <trkpt lat="43.37244" lon="6.14311">
        <ele>372.60000610352</ele>
        <time>2016-05-18T13:58:29Z</time>
      </trkpt>
      <trkpt lat="43.37244" lon="6.14311">
        <ele>372.79998779297</ele>
        <time>2016-05-18T13:58:31Z</time>
      </trkpt>
      <trkpt lat="43.37244" lon="6.14311">
        <ele>372.60000610352</ele>
        <time>2016-05-18T13:58:33Z</time>
      </trkpt>
      <trkpt lat="43.37244" lon="6.14312">
        <ele>372.79998779297</ele>
        <time>2016-05-18T13:58:35Z</time>
      </trkpt>
      <trkpt lat="43.37244" lon="6.14311">
        <ele>372.60000610352</ele>
        <time>2016-05-18T13:58:37Z</time>
      </trkpt>
      <trkpt lat="43.37244" lon="6.14311">
        <ele>372.39999389648</ele>
        <time>2016-05-18T13:58:39Z</time>
      </trkpt>
      <trkpt lat="43.37244" lon="6.14311">
        <ele>372.20001220703</ele>
        <time>2016-05-18T13:58:41Z</time>
      </trkpt>
      <trkpt lat="43.37244" lon="6.14311">
        <ele>372.20001220703</ele>
        <time>2016-05-18T13:58:43Z</time>
      </trkpt>
      <trkpt lat="43.37244" lon="6.14311">
        <ele>372.20001220703</ele>
        <time>2016-05-18T13:58:45Z</time>
      </trkpt>
      <trkpt lat="43.37244" lon="6.14311">
        <ele>372.39999389648</ele>
        <time>2016-05-18T13:58:47Z</time>
      </trkpt>
      <trkpt lat="43.37244" lon="6.14311">
        <ele>372.20001220703</ele>
        <time>2016-05-18T13:58:51Z</time>
      </trkpt>
      <trkpt lat="43.37244" lon="6.14312">
        <ele>372.20001220703</ele>
        <time>2016-05-18T13:58:53Z</time>
      </trkpt>
      <trkpt lat="43.37244" lon="6.14312">
        <ele>372.20001220703</ele>
        <time>2016-05-18T13:58:55Z</time>
      </trkpt>
      <trkpt lat="43.37244" lon="6.14312">
        <ele>372.20001220703</ele>
        <time>2016-05-18T13:58:57Z</time>
      </trkpt>
      <trkpt lat="43.37244" lon="6.14312">
        <ele>372.20001220703</ele>
        <time>2016-05-18T13:58:59Z</time>
      </trkpt>
      <trkpt lat="43.37244" lon="6.14312">
        <ele>372.20001220703</ele>
        <time>2016-05-18T13:59:01Z</time>
      </trkpt>
      <trkpt lat="43.37244" lon="6.14312">
        <ele>372.20001220703</ele>
        <time>2016-05-18T13:59:03Z</time>
      </trkpt>
      <trkpt lat="43.37244" lon="6.14312">
        <ele>372.20001220703</ele>
        <time>2016-05-18T13:59:05Z</time>
      </trkpt>
      <trkpt lat="43.37244" lon="6.14312">
        <ele>372.20001220703</ele>
        <time>2016-05-18T13:59:07Z</time>
      </trkpt>
      <trkpt lat="43.37244" lon="6.14312">
        <ele>372.20001220703</ele>
        <time>2016-05-18T13:59:09Z</time>
      </trkpt>
      <trkpt lat="43.37244" lon="6.14312">
        <ele>372.20001220703</ele>
        <time>2016-05-18T13:59:11Z</time>
      </trkpt>
      <trkpt lat="43.37244" lon="6.14312">
        <ele>372.20001220703</ele>
        <time>2016-05-18T13:59:13Z</time>
      </trkpt>
      <trkpt lat="43.37244" lon="6.14312">
        <ele>372.20001220703</ele>
        <time>2016-05-18T13:59:15Z</time>
      </trkpt>
      <trkpt lat="43.37244" lon="6.14312">
        <ele>372</ele>
        <time>2016-05-18T13:59:17Z</time>
      </trkpt>
      <trkpt lat="43.37244" lon="6.14312">
        <ele>372</ele>
        <time>2016-05-18T13:59:19Z</time>
      </trkpt>
      <trkpt lat="43.37244" lon="6.14312">
        <ele>372</ele>
        <time>2016-05-18T13:59:21Z</time>
      </trkpt>
      <trkpt lat="43.37244" lon="6.14312">
        <ele>372</ele>
        <time>2016-05-18T13:59:23Z</time>
      </trkpt>
      <trkpt lat="43.37244" lon="6.14312">
        <ele>372</ele>
        <time>2016-05-18T13:59:25Z</time>
      </trkpt>
      <trkpt lat="43.37244" lon="6.14312">
        <ele>372</ele>
        <time>2016-05-18T13:59:27Z</time>
      </trkpt>
      <trkpt lat="43.37244" lon="6.14312">
        <ele>372</ele>
        <time>2016-05-18T13:59:29Z</time>
      </trkpt>
      <trkpt lat="43.37244" lon="6.14312">
        <ele>372.20001220703</ele>
        <time>2016-05-18T13:59:31Z</time>
      </trkpt>
      <trkpt lat="43.37244" lon="6.14312">
        <ele>372.20001220703</ele>
        <time>2016-05-18T13:59:33Z</time>
      </trkpt>
      <trkpt lat="43.37244" lon="6.14312">
        <ele>372.20001220703</ele>
        <time>2016-05-18T13:59:35Z</time>
      </trkpt>
      <trkpt lat="43.37244" lon="6.14312">
        <ele>372.20001220703</ele>
        <time>2016-05-18T13:59:37Z</time>
      </trkpt>
      <trkpt lat="43.37244" lon="6.14312">
        <ele>372.20001220703</ele>
        <time>2016-05-18T13:59:39Z</time>
      </trkpt>
      <trkpt lat="43.37244" lon="6.14312">
        <ele>372.20001220703</ele>
        <time>2016-05-18T13:59:40Z</time>
      </trkpt>
      <trkpt lat="43.37244" lon="6.14312">
        <ele>372.20001220703</ele>
        <time>2016-05-18T13:59:41Z</time>
      </trkpt>
      <trkpt lat="43.37244" lon="6.14312">
        <ele>372.39999389648</ele>
        <time>2016-05-18T13:59:43Z</time>
      </trkpt>
      <trkpt lat="43.37244" lon="6.14312">
        <ele>372.39999389648</ele>
        <time>2016-05-18T13:59:45Z</time>
      </trkpt>
      <trkpt lat="43.37244" lon="6.14312">
        <ele>372.20001220703</ele>
        <time>2016-05-18T13:59:47Z</time>
      </trkpt>
      <trkpt lat="43.37244" lon="6.14312">
        <ele>372</ele>
        <time>2016-05-18T13:59:49Z</time>
      </trkpt>
      <trkpt lat="43.37244" lon="6.14312">
        <ele>372.39999389648</ele>
        <time>2016-05-18T13:59:51Z</time>
      </trkpt>
      <trkpt lat="43.37244" lon="6.14312">
        <ele>372.39999389648</ele>
        <time>2016-05-18T13:59:53Z</time>
      </trkpt>
      <trkpt lat="43.37244" lon="6.14312">
        <ele>372.39999389648</ele>
        <time>2016-05-18T13:59:55Z</time>
      </trkpt>
      <trkpt lat="43.37244" lon="6.14312">
        <ele>372.39999389648</ele>
        <time>2016-05-18T13:59:57Z</time>
      </trkpt>
      <trkpt lat="43.37244" lon="6.14312">
        <ele>372.39999389648</ele>
        <time>2016-05-18T13:59:59Z</time>
      </trkpt>
      <trkpt lat="43.37244" lon="6.14312">
        <ele>372.39999389648</ele>
        <time>2016-05-18T14:00:01Z</time>
      </trkpt>
      <trkpt lat="43.37244" lon="6.14312">
        <ele>372.20001220703</ele>
        <time>2016-05-18T14:00:03Z</time>
      </trkpt>
      <trkpt lat="43.37244" lon="6.14312">
        <ele>372.20001220703</ele>
        <time>2016-05-18T14:00:05Z</time>
      </trkpt>
      <trkpt lat="43.37244" lon="6.14312">
        <ele>372.20001220703</ele>
        <time>2016-05-18T14:00:07Z</time>
      </trkpt>
      <trkpt lat="43.37244" lon="6.14312">
        <ele>372.20001220703</ele>
        <time>2016-05-18T14:00:09Z</time>
      </trkpt>
      <trkpt lat="43.37244" lon="6.14312">
        <ele>372.20001220703</ele>
        <time>2016-05-18T14:00:11Z</time>
      </trkpt>
      <trkpt lat="43.37244" lon="6.14312">
        <ele>372.20001220703</ele>
        <time>2016-05-18T14:00:13Z</time>
      </trkpt>
      <trkpt lat="43.37244" lon="6.14312">
        <ele>372.20001220703</ele>
        <time>2016-05-18T14:00:15Z</time>
      </trkpt>
      <trkpt lat="43.37244" lon="6.14312">
        <ele>372</ele>
        <time>2016-05-18T14:00:17Z</time>
      </trkpt>
      <trkpt lat="43.37243" lon="6.14312">
        <ele>372.20001220703</ele>
        <time>2016-05-18T14:00:19Z</time>
      </trkpt>
      <trkpt lat="43.37244" lon="6.14312">
        <ele>372.60000610352</ele>
        <time>2016-05-18T14:00:21Z</time>
      </trkpt>
      <trkpt lat="43.37244" lon="6.14312">
        <ele>373</ele>
        <time>2016-05-18T14:00:22Z</time>
      </trkpt>
      <trkpt lat="43.37244" lon="6.14312">
        <ele>373</ele>
        <time>2016-05-18T14:00:23Z</time>
      </trkpt>
      <trkpt lat="43.37244" lon="6.14312">
        <ele>373.20001220703</ele>
        <time>2016-05-18T14:00:25Z</time>
      </trkpt>
      <trkpt lat="43.37244" lon="6.14312">
        <ele>373</ele>
        <time>2016-05-18T14:00:27Z</time>
      </trkpt>
      <trkpt lat="43.37244" lon="6.14312">
        <ele>372.79998779297</ele>
        <time>2016-05-18T14:00:29Z</time>
      </trkpt>
      <trkpt lat="43.37244" lon="6.14312">
        <ele>372.60000610352</ele>
        <time>2016-05-18T14:00:31Z</time>
      </trkpt>
      <trkpt lat="43.37244" lon="6.14312">
        <ele>372.60000610352</ele>
        <time>2016-05-18T14:00:33Z</time>
      </trkpt>
      <trkpt lat="43.37243" lon="6.14312">
        <ele>372.60000610352</ele>
        <time>2016-05-18T14:00:35Z</time>
      </trkpt>
      <trkpt lat="43.37243" lon="6.14312">
        <ele>372.60000610352</ele>
        <time>2016-05-18T14:00:37Z</time>
      </trkpt>
      <trkpt lat="43.37243" lon="6.14312">
        <ele>372.60000610352</ele>
        <time>2016-05-18T14:00:39Z</time>
      </trkpt>
      <trkpt lat="43.37243" lon="6.14312">
        <ele>372.39999389648</ele>
        <time>2016-05-18T14:00:41Z</time>
      </trkpt>
      <trkpt lat="43.37242" lon="6.14312">
        <ele>372.39999389648</ele>
        <time>2016-05-18T14:00:43Z</time>
      </trkpt>
      <trkpt lat="43.3724" lon="6.14313">
        <ele>372.39999389648</ele>
        <time>2016-05-18T14:00:45Z</time>
      </trkpt>
      <trkpt lat="43.37238" lon="6.14314">
        <ele>372.39999389648</ele>
        <time>2016-05-18T14:00:47Z</time>
      </trkpt>
      <trkpt lat="43.37235" lon="6.14315">
        <ele>372.79998779297</ele>
        <time>2016-05-18T14:00:49Z</time>
      </trkpt>
      <trkpt lat="43.37234" lon="6.14316">
        <ele>372.39999389648</ele>
        <time>2016-05-18T14:00:51Z</time>
      </trkpt>
      <trkpt lat="43.37233" lon="6.14316">
        <ele>372.39999389648</ele>
        <time>2016-05-18T14:00:53Z</time>
      </trkpt>
      <trkpt lat="43.37233" lon="6.14317">
        <ele>372.20001220703</ele>
        <time>2016-05-18T14:00:55Z</time>
      </trkpt>
      <trkpt lat="43.37233" lon="6.14317">
        <ele>372.20001220703</ele>
        <time>2016-05-18T14:00:56Z</time>
      </trkpt>
      <trkpt lat="43.37233" lon="6.14317">
        <ele>372.20001220703</ele>
        <time>2016-05-18T14:00:57Z</time>
      </trkpt>
      <trkpt lat="43.37233" lon="6.14317">
        <ele>372.20001220703</ele>
        <time>2016-05-18T14:00:59Z</time>
      </trkpt>
      <trkpt lat="43.37233" lon="6.14317">
        <ele>372.39999389648</ele>
        <time>2016-05-18T14:01:01Z</time>
      </trkpt>
      <trkpt lat="43.37233" lon="6.14317">
        <ele>372.39999389648</ele>
        <time>2016-05-18T14:01:03Z</time>
      </trkpt>
      <trkpt lat="43.37233" lon="6.14317">
        <ele>372.39999389648</ele>
        <time>2016-05-18T14:01:05Z</time>
      </trkpt>
      <trkpt lat="43.37233" lon="6.14317">
        <ele>372.39999389648</ele>
        <time>2016-05-18T14:01:07Z</time>
      </trkpt>
      <trkpt lat="43.37233" lon="6.14317">
        <ele>372</ele>
        <time>2016-05-18T14:01:09Z</time>
      </trkpt>
      <trkpt lat="43.37233" lon="6.14317">
        <ele>372</ele>
        <time>2016-05-18T14:01:10Z</time>
      </trkpt>
      <trkpt lat="43.37232" lon="6.14317">
        <ele>372</ele>
        <time>2016-05-18T14:01:11Z</time>
      </trkpt>
      <trkpt lat="43.3723" lon="6.14318">
        <ele>372</ele>
        <time>2016-05-18T14:01:13Z</time>
      </trkpt>
      <trkpt lat="43.37226" lon="6.14319">
        <ele>372.20001220703</ele>
        <time>2016-05-18T14:01:15Z</time>
      </trkpt>
      <trkpt lat="43.37222" lon="6.14321">
        <ele>372</ele>
        <time>2016-05-18T14:01:17Z</time>
      </trkpt>
      <trkpt lat="43.3722" lon="6.14322">
        <ele>371.79998779297</ele>
        <time>2016-05-18T14:01:18Z</time>
      </trkpt>
      <trkpt lat="43.37218" lon="6.14324">
        <ele>371.79998779297</ele>
        <time>2016-05-18T14:01:19Z</time>
      </trkpt>
      <trkpt lat="43.37214" lon="6.14327">
        <ele>371</ele>
        <time>2016-05-18T14:01:21Z</time>
      </trkpt>
      <trkpt lat="43.37212" lon="6.14328">
        <ele>370.79998779297</ele>
        <time>2016-05-18T14:01:22Z</time>
      </trkpt>
      <trkpt lat="43.3721" lon="6.1433">
        <ele>370.60000610352</ele>
        <time>2016-05-18T14:01:23Z</time>
      </trkpt>
      <trkpt lat="43.37206" lon="6.14332">
        <ele>370.20001220703</ele>
        <time>2016-05-18T14:01:25Z</time>
      </trkpt>
      <trkpt lat="43.37202" lon="6.14334">
        <ele>370</ele>
        <time>2016-05-18T14:01:27Z</time>
      </trkpt>
      <trkpt lat="43.37196" lon="6.14336">
        <ele>369.79998779297</ele>
        <time>2016-05-18T14:01:29Z</time>
      </trkpt>
      <trkpt lat="43.37193" lon="6.1434">
        <ele>368.79998779297</ele>
        <time>2016-05-18T14:01:31Z</time>
      </trkpt>
      <trkpt lat="43.37191" lon="6.14342">
        <ele>368.60000610352</ele>
        <time>2016-05-18T14:01:32Z</time>
      </trkpt>
      <trkpt lat="43.37189" lon="6.14344">
        <ele>368.39999389648</ele>
        <time>2016-05-18T14:01:33Z</time>
      </trkpt>
      <trkpt lat="43.37186" lon="6.14347">
        <ele>368.39999389648</ele>
        <time>2016-05-18T14:01:35Z</time>
      </trkpt>
      <trkpt lat="43.37186" lon="6.14347">
        <ele>368.39999389648</ele>
        <time>2016-05-18T14:01:36Z</time>
      </trkpt>
      <trkpt lat="43.37186" lon="6.14347">
        <ele>368.39999389648</ele>
        <time>2016-05-18T14:01:37Z</time>
      </trkpt>
      <trkpt lat="43.37186" lon="6.14348">
        <ele>368.39999389648</ele>
        <time>2016-05-18T14:01:39Z</time>
      </trkpt>
      <trkpt lat="43.37184" lon="6.14351">
        <ele>368.60000610352</ele>
        <time>2016-05-18T14:01:41Z</time>
      </trkpt>
      <trkpt lat="43.37183" lon="6.14353">
        <ele>368.60000610352</ele>
        <time>2016-05-18T14:01:43Z</time>
      </trkpt>
      <trkpt lat="43.37182" lon="6.14356">
        <ele>368.60000610352</ele>
        <time>2016-05-18T14:01:45Z</time>
      </trkpt>
      <trkpt lat="43.3718" lon="6.1436">
        <ele>368.60000610352</ele>
        <time>2016-05-18T14:01:47Z</time>
      </trkpt>
      <trkpt lat="43.37178" lon="6.14361">
        <ele>368.39999389648</ele>
        <time>2016-05-18T14:01:48Z</time>
      </trkpt>
      <trkpt lat="43.37177" lon="6.14362">
        <ele>368.39999389648</ele>
        <time>2016-05-18T14:01:49Z</time>
      </trkpt>
      <trkpt lat="43.37174" lon="6.14364">
        <ele>368.39999389648</ele>
        <time>2016-05-18T14:01:51Z</time>
      </trkpt>
      <trkpt lat="43.37169" lon="6.14364">
        <ele>368.39999389648</ele>
        <time>2016-05-18T14:01:53Z</time>
      </trkpt>
      <trkpt lat="43.37164" lon="6.14363">
        <ele>368.20001220703</ele>
        <time>2016-05-18T14:01:55Z</time>
      </trkpt>
      <trkpt lat="43.3716" lon="6.14362">
        <ele>368</ele>
        <time>2016-05-18T14:01:57Z</time>
      </trkpt>
      <trkpt lat="43.37154" lon="6.14362">
        <ele>368</ele>
        <time>2016-05-18T14:01:59Z</time>
      </trkpt>
      <trkpt lat="43.37151" lon="6.14361">
        <ele>367.79998779297</ele>
        <time>2016-05-18T14:02:00Z</time>
      </trkpt>
      <trkpt lat="43.37149" lon="6.14362">
        <ele>367.79998779297</ele>
        <time>2016-05-18T14:02:01Z</time>
      </trkpt>
      <trkpt lat="43.37143" lon="6.14363">
        <ele>367.79998779297</ele>
        <time>2016-05-18T14:02:03Z</time>
      </trkpt>
      <trkpt lat="43.37137" lon="6.14364">
        <ele>368</ele>
        <time>2016-05-18T14:02:05Z</time>
      </trkpt>
      <trkpt lat="43.37131" lon="6.14364">
        <ele>368</ele>
        <time>2016-05-18T14:02:07Z</time>
      </trkpt>
      <trkpt lat="43.37125" lon="6.14363">
        <ele>368.60000610352</ele>
        <time>2016-05-18T14:02:09Z</time>
      </trkpt>
      <trkpt lat="43.37119" lon="6.14362">
        <ele>368.60000610352</ele>
        <time>2016-05-18T14:02:11Z</time>
      </trkpt>
      <trkpt lat="43.37112" lon="6.14357">
        <ele>368.60000610352</ele>
        <time>2016-05-18T14:02:13Z</time>
      </trkpt>
      <trkpt lat="43.37105" lon="6.14353">
        <ele>368.60000610352</ele>
        <time>2016-05-18T14:02:15Z</time>
      </trkpt>
      <trkpt lat="43.37099" lon="6.14348">
        <ele>368.39999389648</ele>
        <time>2016-05-18T14:02:17Z</time>
      </trkpt>
      <trkpt lat="43.37096" lon="6.14346">
        <ele>368.39999389648</ele>
        <time>2016-05-18T14:02:18Z</time>
      </trkpt>
      <trkpt lat="43.37093" lon="6.14342">
        <ele>368.20001220703</ele>
        <time>2016-05-18T14:02:19Z</time>
      </trkpt>
      <trkpt lat="43.37088" lon="6.14333">
        <ele>367.79998779297</ele>
        <time>2016-05-18T14:02:21Z</time>
      </trkpt>
      <trkpt lat="43.37086" lon="6.1432">
        <ele>367.60000610352</ele>
        <time>2016-05-18T14:02:23Z</time>
      </trkpt>
      <trkpt lat="43.37084" lon="6.14313">
        <ele>367</ele>
        <time>2016-05-18T14:02:24Z</time>
      </trkpt>
      <trkpt lat="43.37082" lon="6.14307">
        <ele>366.39999389648</ele>
        <time>2016-05-18T14:02:25Z</time>
      </trkpt>
      <trkpt lat="43.3708" lon="6.143">
        <ele>366.20001220703</ele>
        <time>2016-05-18T14:02:26Z</time>
      </trkpt>
      <trkpt lat="43.37077" lon="6.14294">
        <ele>365.79998779297</ele>
        <time>2016-05-18T14:02:27Z</time>
      </trkpt>
      <trkpt lat="43.37075" lon="6.14288">
        <ele>365.60000610352</ele>
        <time>2016-05-18T14:02:28Z</time>
      </trkpt>
      <trkpt lat="43.37073" lon="6.14282">
        <ele>365.39999389648</ele>
        <time>2016-05-18T14:02:29Z</time>
      </trkpt>
      <trkpt lat="43.37071" lon="6.14275">
        <ele>365.20001220703</ele>
        <time>2016-05-18T14:02:30Z</time>
      </trkpt>
      <trkpt lat="43.37069" lon="6.14267">
        <ele>365.20001220703</ele>
        <time>2016-05-18T14:02:31Z</time>
      </trkpt>
      <trkpt lat="43.37068" lon="6.14253">
        <ele>365</ele>
        <time>2016-05-18T14:02:33Z</time>
      </trkpt>
      <trkpt lat="43.37066" lon="6.14239">
        <ele>364.39999389648</ele>
        <time>2016-05-18T14:02:35Z</time>
      </trkpt>
      <trkpt lat="43.37066" lon="6.14231">
        <ele>364.20001220703</ele>
        <time>2016-05-18T14:02:36Z</time>
      </trkpt>
      <trkpt lat="43.37064" lon="6.14224">
        <ele>364</ele>
        <time>2016-05-18T14:02:37Z</time>
      </trkpt>
      <trkpt lat="43.37061" lon="6.14209">
        <ele>363.79998779297</ele>
        <time>2016-05-18T14:02:39Z</time>
      </trkpt>
      <trkpt lat="43.37054" lon="6.14197">
        <ele>363.60000610352</ele>
        <time>2016-05-18T14:02:41Z</time>
      </trkpt>
      <trkpt lat="43.37047" lon="6.14185">
        <ele>363.39999389648</ele>
        <time>2016-05-18T14:02:43Z</time>
      </trkpt>
      <trkpt lat="43.37043" lon="6.14179">
        <ele>363.39999389648</ele>
        <time>2016-05-18T14:02:44Z</time>
      </trkpt>
      <trkpt lat="43.37039" lon="6.14174">
        <ele>363.39999389648</ele>
        <time>2016-05-18T14:02:45Z</time>
      </trkpt>
      <trkpt lat="43.37032" lon="6.1416">
        <ele>363.20001220703</ele>
        <time>2016-05-18T14:02:47Z</time>
      </trkpt>
      <trkpt lat="43.37029" lon="6.14151">
        <ele>363.20001220703</ele>
        <time>2016-05-18T14:02:48Z</time>
      </trkpt>
      <trkpt lat="43.37026" lon="6.14143">
        <ele>363.20001220703</ele>
        <time>2016-05-18T14:02:49Z</time>
      </trkpt>
      <trkpt lat="43.37019" lon="6.14128">
        <ele>363</ele>
        <time>2016-05-18T14:02:51Z</time>
      </trkpt>
      <trkpt lat="43.37014" lon="6.14121">
        <ele>362.60000610352</ele>
        <time>2016-05-18T14:02:52Z</time>
      </trkpt>
      <trkpt lat="43.37009" lon="6.14115">
        <ele>361.79998779297</ele>
        <time>2016-05-18T14:02:53Z</time>
      </trkpt>
      <trkpt lat="43.36998" lon="6.14103">
        <ele>361</ele>
        <time>2016-05-18T14:02:55Z</time>
      </trkpt>
      <trkpt lat="43.36992" lon="6.14098">
        <ele>360.79998779297</ele>
        <time>2016-05-18T14:02:56Z</time>
      </trkpt>
      <trkpt lat="43.36986" lon="6.14095">
        <ele>360.20001220703</ele>
        <time>2016-05-18T14:02:57Z</time>
      </trkpt>
      <trkpt lat="43.36974" lon="6.14094">
        <ele>360.39999389648</ele>
        <time>2016-05-18T14:02:59Z</time>
      </trkpt>
      <trkpt lat="43.36963" lon="6.14097">
        <ele>360.60000610352</ele>
        <time>2016-05-18T14:03:01Z</time>
      </trkpt>
      <trkpt lat="43.36955" lon="6.141">
        <ele>360.79998779297</ele>
        <time>2016-05-18T14:03:03Z</time>
      </trkpt>
      <trkpt lat="43.36951" lon="6.14102">
        <ele>361</ele>
        <time>2016-05-18T14:03:05Z</time>
      </trkpt>
      <trkpt lat="43.3695" lon="6.14103">
        <ele>361.20001220703</ele>
        <time>2016-05-18T14:03:07Z</time>
      </trkpt>
      <trkpt lat="43.3695" lon="6.14103">
        <ele>361.39999389648</ele>
        <time>2016-05-18T14:03:09Z</time>
      </trkpt>
      <trkpt lat="43.3695" lon="6.14104">
        <ele>361.39999389648</ele>
        <time>2016-05-18T14:03:11Z</time>
      </trkpt>
      <trkpt lat="43.3695" lon="6.14104">
        <ele>361.60000610352</ele>
        <time>2016-05-18T14:03:13Z</time>
      </trkpt>
      <trkpt lat="43.3695" lon="6.14104">
        <ele>361.60000610352</ele>
        <time>2016-05-18T14:03:15Z</time>
      </trkpt>
      <trkpt lat="43.3695" lon="6.14103">
        <ele>361.79998779297</ele>
        <time>2016-05-18T14:03:17Z</time>
      </trkpt>
      <trkpt lat="43.3695" lon="6.14103">
        <ele>361.79998779297</ele>
        <time>2016-05-18T14:03:19Z</time>
      </trkpt>
      <trkpt lat="43.3695" lon="6.14103">
        <ele>361.60000610352</ele>
        <time>2016-05-18T14:03:21Z</time>
      </trkpt>
      <trkpt lat="43.3695" lon="6.14103">
        <ele>361.60000610352</ele>
        <time>2016-05-18T14:03:23Z</time>
      </trkpt>
      <trkpt lat="43.3695" lon="6.14103">
        <ele>361.79998779297</ele>
        <time>2016-05-18T14:03:25Z</time>
      </trkpt>
      <trkpt lat="43.3695" lon="6.14104">
        <ele>361.60000610352</ele>
        <time>2016-05-18T14:03:27Z</time>
      </trkpt>
      <trkpt lat="43.36948" lon="6.14105">
        <ele>361.60000610352</ele>
        <time>2016-05-18T14:03:29Z</time>
      </trkpt>
      <trkpt lat="43.36948" lon="6.14106">
        <ele>361.60000610352</ele>
        <time>2016-05-18T14:03:30Z</time>
      </trkpt>
      <trkpt lat="43.36947" lon="6.14106">
        <ele>361.60000610352</ele>
        <time>2016-05-18T14:03:31Z</time>
      </trkpt>
      <trkpt lat="43.36946" lon="6.14107">
        <ele>361.79998779297</ele>
        <time>2016-05-18T14:03:33Z</time>
      </trkpt>
      <trkpt lat="43.36946" lon="6.14107">
        <ele>361.79998779297</ele>
        <time>2016-05-18T14:03:35Z</time>
      </trkpt>
      <trkpt lat="43.36946" lon="6.14107">
        <ele>361.60000610352</ele>
        <time>2016-05-18T14:03:37Z</time>
      </trkpt>
      <trkpt lat="43.36946" lon="6.14107">
        <ele>361.60000610352</ele>
        <time>2016-05-18T14:03:39Z</time>
      </trkpt>
      <trkpt lat="43.36946" lon="6.14107">
        <ele>361.79998779297</ele>
        <time>2016-05-18T14:03:41Z</time>
      </trkpt>
      <trkpt lat="43.36946" lon="6.14107">
        <ele>361.79998779297</ele>
        <time>2016-05-18T14:03:43Z</time>
      </trkpt>
      <trkpt lat="43.36946" lon="6.14107">
        <ele>361.79998779297</ele>
        <time>2016-05-18T14:03:45Z</time>
      </trkpt>
      <trkpt lat="43.36946" lon="6.14107">
        <ele>361.79998779297</ele>
        <time>2016-05-18T14:03:47Z</time>
      </trkpt>
      <trkpt lat="43.36946" lon="6.14107">
        <ele>362</ele>
        <time>2016-05-18T14:03:49Z</time>
      </trkpt>
      <trkpt lat="43.36946" lon="6.14107">
        <ele>362.20001220703</ele>
        <time>2016-05-18T14:03:50Z</time>
      </trkpt>
      <trkpt lat="43.36946" lon="6.14107">
        <ele>362.20001220703</ele>
        <time>2016-05-18T14:03:51Z</time>
      </trkpt>
      <trkpt lat="43.36946" lon="6.14107">
        <ele>362.39999389648</ele>
        <time>2016-05-18T14:03:53Z</time>
      </trkpt>
      <trkpt lat="43.36946" lon="6.14108">
        <ele>362.39999389648</ele>
        <time>2016-05-18T14:03:54Z</time>
      </trkpt>
      <trkpt lat="43.36945" lon="6.14107">
        <ele>362.39999389648</ele>
        <time>2016-05-18T14:03:55Z</time>
      </trkpt>
      <trkpt lat="43.36945" lon="6.14107">
        <ele>362.39999389648</ele>
        <time>2016-05-18T14:03:56Z</time>
      </trkpt>
      <trkpt lat="43.36944" lon="6.14107">
        <ele>362.20001220703</ele>
        <time>2016-05-18T14:03:57Z</time>
      </trkpt>
      <trkpt lat="43.36944" lon="6.14107">
        <ele>362</ele>
        <time>2016-05-18T14:03:59Z</time>
      </trkpt>
      <trkpt lat="43.36944" lon="6.14107">
        <ele>362</ele>
        <time>2016-05-18T14:04:01Z</time>
      </trkpt>
      <trkpt lat="43.36944" lon="6.14107">
        <ele>362</ele>
        <time>2016-05-18T14:04:02Z</time>
      </trkpt>
      <trkpt lat="43.36944" lon="6.14107">
        <ele>361.79998779297</ele>
        <time>2016-05-18T14:04:05Z</time>
      </trkpt>
      <trkpt lat="43.36944" lon="6.14107">
        <ele>361.60000610352</ele>
        <time>2016-05-18T14:04:07Z</time>
      </trkpt>
      <trkpt lat="43.36944" lon="6.14107">
        <ele>361.60000610352</ele>
        <time>2016-05-18T14:04:09Z</time>
      </trkpt>
      <trkpt lat="43.36944" lon="6.14107">
        <ele>361.60000610352</ele>
        <time>2016-05-18T14:04:11Z</time>
      </trkpt>
      <trkpt lat="43.36944" lon="6.14107">
        <ele>361.79998779297</ele>
        <time>2016-05-18T14:04:13Z</time>
      </trkpt>
      <trkpt lat="43.36944" lon="6.14107">
        <ele>362</ele>
        <time>2016-05-18T14:04:15Z</time>
      </trkpt>
      <trkpt lat="43.36944" lon="6.14107">
        <ele>362</ele>
        <time>2016-05-18T14:04:17Z</time>
      </trkpt>
      <trkpt lat="43.36944" lon="6.14107">
        <ele>362</ele>
        <time>2016-05-18T14:04:19Z</time>
      </trkpt>
      <trkpt lat="43.36944" lon="6.14107">
        <ele>362</ele>
        <time>2016-05-18T14:04:21Z</time>
      </trkpt>
      <trkpt lat="43.36944" lon="6.14107">
        <ele>361.60000610352</ele>
        <time>2016-05-18T14:04:23Z</time>
      </trkpt>
      <trkpt lat="43.36944" lon="6.14107">
        <ele>361.39999389648</ele>
        <time>2016-05-18T14:04:25Z</time>
      </trkpt>
      <trkpt lat="43.36944" lon="6.14107">
        <ele>361.39999389648</ele>
        <time>2016-05-18T14:04:27Z</time>
      </trkpt>
      <trkpt lat="43.36944" lon="6.14107">
        <ele>361.39999389648</ele>
        <time>2016-05-18T14:04:29Z</time>
      </trkpt>
      <trkpt lat="43.36944" lon="6.14107">
        <ele>361.39999389648</ele>
        <time>2016-05-18T14:04:30Z</time>
      </trkpt>
      <trkpt lat="43.36944" lon="6.14107">
        <ele>361.39999389648</ele>
        <time>2016-05-18T14:04:31Z</time>
      </trkpt>
      <trkpt lat="43.36944" lon="6.14107">
        <ele>361.39999389648</ele>
        <time>2016-05-18T14:04:33Z</time>
      </trkpt>
      <trkpt lat="43.36944" lon="6.14107">
        <ele>361.60000610352</ele>
        <time>2016-05-18T14:04:35Z</time>
      </trkpt>
      <trkpt lat="43.36944" lon="6.14107">
        <ele>361.39999389648</ele>
        <time>2016-05-18T14:04:37Z</time>
      </trkpt>
      <trkpt lat="43.36944" lon="6.14107">
        <ele>361.39999389648</ele>
        <time>2016-05-18T14:04:39Z</time>
      </trkpt>
      <trkpt lat="43.36944" lon="6.14107">
        <ele>361.60000610352</ele>
        <time>2016-05-18T14:04:41Z</time>
      </trkpt>
      <trkpt lat="43.36944" lon="6.14107">
        <ele>361.60000610352</ele>
        <time>2016-05-18T14:04:43Z</time>
      </trkpt>
      <trkpt lat="43.36944" lon="6.14107">
        <ele>361.60000610352</ele>
        <time>2016-05-18T14:04:45Z</time>
      </trkpt>
      <trkpt lat="43.36944" lon="6.14107">
        <ele>361.79998779297</ele>
        <time>2016-05-18T14:04:47Z</time>
      </trkpt>
      <trkpt lat="43.36944" lon="6.14107">
        <ele>361.79998779297</ele>
        <time>2016-05-18T14:04:49Z</time>
      </trkpt>
      <trkpt lat="43.36944" lon="6.14107">
        <ele>362</ele>
        <time>2016-05-18T14:04:51Z</time>
      </trkpt>
      <trkpt lat="43.36944" lon="6.14107">
        <ele>361.79998779297</ele>
        <time>2016-05-18T14:04:53Z</time>
      </trkpt>
      <trkpt lat="43.36944" lon="6.14107">
        <ele>361.79998779297</ele>
        <time>2016-05-18T14:04:55Z</time>
      </trkpt>
      <trkpt lat="43.36944" lon="6.14107">
        <ele>361.60000610352</ele>
        <time>2016-05-18T14:04:57Z</time>
      </trkpt>
      <trkpt lat="43.36944" lon="6.14107">
        <ele>361.60000610352</ele>
        <time>2016-05-18T14:04:59Z</time>
      </trkpt>
      <trkpt lat="43.36944" lon="6.14107">
        <ele>361.79998779297</ele>
        <time>2016-05-18T14:05:01Z</time>
      </trkpt>
      <trkpt lat="43.36944" lon="6.14107">
        <ele>361.79998779297</ele>
        <time>2016-05-18T14:05:03Z</time>
      </trkpt>
      <trkpt lat="43.36944" lon="6.14107">
        <ele>361.79998779297</ele>
        <time>2016-05-18T14:05:05Z</time>
      </trkpt>
      <trkpt lat="43.36944" lon="6.14107">
        <ele>361.79998779297</ele>
        <time>2016-05-18T14:05:07Z</time>
      </trkpt>
      <trkpt lat="43.36944" lon="6.14107">
        <ele>361.79998779297</ele>
        <time>2016-05-18T14:05:09Z</time>
      </trkpt>
      <trkpt lat="43.36944" lon="6.14107">
        <ele>361.79998779297</ele>
        <time>2016-05-18T14:05:11Z</time>
      </trkpt>
      <trkpt lat="43.36944" lon="6.14107">
        <ele>362</ele>
        <time>2016-05-18T14:05:13Z</time>
      </trkpt>
      <trkpt lat="43.36944" lon="6.14107">
        <ele>362</ele>
        <time>2016-05-18T14:05:15Z</time>
      </trkpt>
      <trkpt lat="43.36944" lon="6.14107">
        <ele>362</ele>
        <time>2016-05-18T14:05:17Z</time>
      </trkpt>
      <trkpt lat="43.36944" lon="6.14107">
        <ele>362</ele>
        <time>2016-05-18T14:05:19Z</time>
      </trkpt>
      <trkpt lat="43.36944" lon="6.14107">
        <ele>362.20001220703</ele>
        <time>2016-05-18T14:05:21Z</time>
      </trkpt>
      <trkpt lat="43.36944" lon="6.14107">
        <ele>362.20001220703</ele>
        <time>2016-05-18T14:05:23Z</time>
      </trkpt>
      <trkpt lat="43.36944" lon="6.14107">
        <ele>362.39999389648</ele>
        <time>2016-05-18T14:05:25Z</time>
      </trkpt>
      <trkpt lat="43.36944" lon="6.14107">
        <ele>362.20001220703</ele>
        <time>2016-05-18T14:05:27Z</time>
      </trkpt>
      <trkpt lat="43.36944" lon="6.14107">
        <ele>362</ele>
        <time>2016-05-18T14:05:29Z</time>
      </trkpt>
      <trkpt lat="43.36944" lon="6.14107">
        <ele>361.79998779297</ele>
        <time>2016-05-18T14:05:31Z</time>
      </trkpt>
      <trkpt lat="43.36944" lon="6.14107">
        <ele>362</ele>
        <time>2016-05-18T14:05:33Z</time>
      </trkpt>
      <trkpt lat="43.36944" lon="6.14107">
        <ele>362</ele>
        <time>2016-05-18T14:05:35Z</time>
      </trkpt>
      <trkpt lat="43.36944" lon="6.14107">
        <ele>362</ele>
        <time>2016-05-18T14:05:37Z</time>
      </trkpt>
      <trkpt lat="43.36944" lon="6.14107">
        <ele>362.20001220703</ele>
        <time>2016-05-18T14:05:39Z</time>
      </trkpt>
      <trkpt lat="43.36944" lon="6.14107">
        <ele>362.20001220703</ele>
        <time>2016-05-18T14:05:41Z</time>
      </trkpt>
      <trkpt lat="43.36944" lon="6.14107">
        <ele>362.20001220703</ele>
        <time>2016-05-18T14:05:43Z</time>
      </trkpt>
      <trkpt lat="43.36944" lon="6.14107">
        <ele>362.39999389648</ele>
        <time>2016-05-18T14:05:45Z</time>
      </trkpt>
      <trkpt lat="43.36944" lon="6.14107">
        <ele>362.39999389648</ele>
        <time>2016-05-18T14:05:47Z</time>
      </trkpt>
      <trkpt lat="43.36944" lon="6.14107">
        <ele>362.39999389648</ele>
        <time>2016-05-18T14:05:49Z</time>
      </trkpt>
      <trkpt lat="43.36944" lon="6.14107">
        <ele>362.39999389648</ele>
        <time>2016-05-18T14:05:51Z</time>
      </trkpt>
      <trkpt lat="43.36944" lon="6.14107">
        <ele>362.20001220703</ele>
        <time>2016-05-18T14:05:53Z</time>
      </trkpt>
      <trkpt lat="43.36944" lon="6.14107">
        <ele>361.79998779297</ele>
        <time>2016-05-18T14:05:55Z</time>
      </trkpt>
      <trkpt lat="43.36944" lon="6.14107">
        <ele>361.79998779297</ele>
        <time>2016-05-18T14:05:57Z</time>
      </trkpt>
      <trkpt lat="43.36944" lon="6.14107">
        <ele>361.79998779297</ele>
        <time>2016-05-18T14:05:59Z</time>
      </trkpt>
      <trkpt lat="43.36944" lon="6.14107">
        <ele>362</ele>
        <time>2016-05-18T14:06:01Z</time>
      </trkpt>
      <trkpt lat="43.36944" lon="6.14107">
        <ele>362</ele>
        <time>2016-05-18T14:06:03Z</time>
      </trkpt>
      <trkpt lat="43.36944" lon="6.14107">
        <ele>362</ele>
        <time>2016-05-18T14:06:05Z</time>
      </trkpt>
      <trkpt lat="43.36944" lon="6.14107">
        <ele>362</ele>
        <time>2016-05-18T14:06:06Z</time>
      </trkpt>
      <trkpt lat="43.36944" lon="6.14107">
        <ele>362</ele>
        <time>2016-05-18T14:06:07Z</time>
      </trkpt>
      <trkpt lat="43.36944" lon="6.14107">
        <ele>362</ele>
        <time>2016-05-18T14:06:09Z</time>
      </trkpt>
      <trkpt lat="43.36944" lon="6.14107">
        <ele>362</ele>
        <time>2016-05-18T14:06:11Z</time>
      </trkpt>
      <trkpt lat="43.36944" lon="6.14107">
        <ele>362</ele>
        <time>2016-05-18T14:06:13Z</time>
      </trkpt>
      <trkpt lat="43.36944" lon="6.14107">
        <ele>362</ele>
        <time>2016-05-18T14:06:15Z</time>
      </trkpt>
      <trkpt lat="43.36944" lon="6.14107">
        <ele>361.79998779297</ele>
        <time>2016-05-18T14:06:17Z</time>
      </trkpt>
      <trkpt lat="43.36944" lon="6.14107">
        <ele>362</ele>
        <time>2016-05-18T14:06:19Z</time>
      </trkpt>
      <trkpt lat="43.36944" lon="6.14107">
        <ele>362</ele>
        <time>2016-05-18T14:06:21Z</time>
      </trkpt>
      <trkpt lat="43.36944" lon="6.14107">
        <ele>362</ele>
        <time>2016-05-18T14:06:23Z</time>
      </trkpt>
      <trkpt lat="43.36944" lon="6.14107">
        <ele>361.79998779297</ele>
        <time>2016-05-18T14:06:25Z</time>
      </trkpt>
      <trkpt lat="43.36944" lon="6.14107">
        <ele>362</ele>
        <time>2016-05-18T14:06:27Z</time>
      </trkpt>
      <trkpt lat="43.36944" lon="6.14107">
        <ele>362</ele>
        <time>2016-05-18T14:06:29Z</time>
      </trkpt>
      <trkpt lat="43.36944" lon="6.14107">
        <ele>362</ele>
        <time>2016-05-18T14:06:31Z</time>
      </trkpt>
      <trkpt lat="43.36944" lon="6.14107">
        <ele>361.79998779297</ele>
        <time>2016-05-18T14:06:33Z</time>
      </trkpt>
      <trkpt lat="43.36944" lon="6.14107">
        <ele>361.79998779297</ele>
        <time>2016-05-18T14:06:35Z</time>
      </trkpt>
      <trkpt lat="43.36944" lon="6.14107">
        <ele>361.79998779297</ele>
        <time>2016-05-18T14:06:37Z</time>
      </trkpt>
      <trkpt lat="43.36944" lon="6.14107">
        <ele>362</ele>
        <time>2016-05-18T14:06:39Z</time>
      </trkpt>
      <trkpt lat="43.36944" lon="6.14107">
        <ele>362</ele>
        <time>2016-05-18T14:06:41Z</time>
      </trkpt>
      <trkpt lat="43.36944" lon="6.14107">
        <ele>362</ele>
        <time>2016-05-18T14:06:43Z</time>
      </trkpt>
      <trkpt lat="43.36944" lon="6.14107">
        <ele>362</ele>
        <time>2016-05-18T14:06:45Z</time>
      </trkpt>
      <trkpt lat="43.36944" lon="6.14107">
        <ele>362</ele>
        <time>2016-05-18T14:06:47Z</time>
      </trkpt>
      <trkpt lat="43.36944" lon="6.14107">
        <ele>362</ele>
        <time>2016-05-18T14:06:49Z</time>
      </trkpt>
      <trkpt lat="43.36944" lon="6.14107">
        <ele>361.79998779297</ele>
        <time>2016-05-18T14:06:51Z</time>
      </trkpt>
      <trkpt lat="43.36944" lon="6.14107">
        <ele>362</ele>
        <time>2016-05-18T14:06:53Z</time>
      </trkpt>
      <trkpt lat="43.36944" lon="6.14107">
        <ele>362</ele>
        <time>2016-05-18T14:06:55Z</time>
      </trkpt>
      <trkpt lat="43.36944" lon="6.14107">
        <ele>362</ele>
        <time>2016-05-18T14:06:57Z</time>
      </trkpt>
      <trkpt lat="43.36944" lon="6.14107">
        <ele>362</ele>
        <time>2016-05-18T14:06:59Z</time>
      </trkpt>
      <trkpt lat="43.36944" lon="6.14107">
        <ele>361.79998779297</ele>
        <time>2016-05-18T14:07:00Z</time>
      </trkpt>
      <trkpt lat="43.36944" lon="6.14107">
        <ele>361.79998779297</ele>
        <time>2016-05-18T14:07:01Z</time>
      </trkpt>
      <trkpt lat="43.36944" lon="6.14107">
        <ele>361.79998779297</ele>
        <time>2016-05-18T14:07:03Z</time>
      </trkpt>
      <trkpt lat="43.36944" lon="6.14107">
        <ele>361.79998779297</ele>
        <time>2016-05-18T14:07:05Z</time>
      </trkpt>
      <trkpt lat="43.36944" lon="6.14107">
        <ele>361.79998779297</ele>
        <time>2016-05-18T14:07:07Z</time>
      </trkpt>
      <trkpt lat="43.36944" lon="6.14107">
        <ele>361.79998779297</ele>
        <time>2016-05-18T14:07:09Z</time>
      </trkpt>
      <trkpt lat="43.36944" lon="6.14107">
        <ele>362</ele>
        <time>2016-05-18T14:07:11Z</time>
      </trkpt>
      <trkpt lat="43.36944" lon="6.14107">
        <ele>362</ele>
        <time>2016-05-18T14:07:12Z</time>
      </trkpt>
      <trkpt lat="43.36944" lon="6.14107">
        <ele>362</ele>
        <time>2016-05-18T14:07:13Z</time>
      </trkpt>
      <trkpt lat="43.36944" lon="6.14107">
        <ele>362.20001220703</ele>
        <time>2016-05-18T14:07:15Z</time>
      </trkpt>
      <trkpt lat="43.36944" lon="6.14107">
        <ele>362.20001220703</ele>
        <time>2016-05-18T14:07:17Z</time>
      </trkpt>
      <trkpt lat="43.36944" lon="6.14107">
        <ele>362.20001220703</ele>
        <time>2016-05-18T14:07:19Z</time>
      </trkpt>
      <trkpt lat="43.36944" lon="6.14107">
        <ele>362.20001220703</ele>
        <time>2016-05-18T14:07:21Z</time>
      </trkpt>
      <trkpt lat="43.36944" lon="6.14107">
        <ele>362</ele>
        <time>2016-05-18T14:07:23Z</time>
      </trkpt>
      <trkpt lat="43.36944" lon="6.14107">
        <ele>362</ele>
        <time>2016-05-18T14:07:25Z</time>
      </trkpt>
      <trkpt lat="43.36944" lon="6.14107">
        <ele>362</ele>
        <time>2016-05-18T14:07:27Z</time>
      </trkpt>
      <trkpt lat="43.36944" lon="6.14107">
        <ele>362</ele>
        <time>2016-05-18T14:07:29Z</time>
      </trkpt>
      <trkpt lat="43.36944" lon="6.14107">
        <ele>362</ele>
        <time>2016-05-18T14:07:31Z</time>
      </trkpt>
      <trkpt lat="43.36944" lon="6.14107">
        <ele>362</ele>
        <time>2016-05-18T14:07:33Z</time>
      </trkpt>
      <trkpt lat="43.36944" lon="6.14107">
        <ele>362</ele>
        <time>2016-05-18T14:07:35Z</time>
      </trkpt>
      <trkpt lat="43.36944" lon="6.14107">
        <ele>362</ele>
        <time>2016-05-18T14:07:37Z</time>
      </trkpt>
      <trkpt lat="43.36944" lon="6.14107">
        <ele>362</ele>
        <time>2016-05-18T14:07:39Z</time>
      </trkpt>
      <trkpt lat="43.36944" lon="6.14107">
        <ele>361.60000610352</ele>
        <time>2016-05-18T14:07:41Z</time>
      </trkpt>
      <trkpt lat="43.36944" lon="6.14107">
        <ele>361.39999389648</ele>
        <time>2016-05-18T14:07:43Z</time>
      </trkpt>
      <trkpt lat="43.36944" lon="6.14107">
        <ele>361.39999389648</ele>
        <time>2016-05-18T14:07:45Z</time>
      </trkpt>
      <trkpt lat="43.36944" lon="6.14107">
        <ele>361.39999389648</ele>
        <time>2016-05-18T14:07:47Z</time>
      </trkpt>
      <trkpt lat="43.36944" lon="6.14107">
        <ele>361.60000610352</ele>
        <time>2016-05-18T14:07:49Z</time>
      </trkpt>
      <trkpt lat="43.36944" lon="6.14107">
        <ele>361.60000610352</ele>
        <time>2016-05-18T14:07:51Z</time>
      </trkpt>
      <trkpt lat="43.36944" lon="6.14107">
        <ele>361.60000610352</ele>
        <time>2016-05-18T14:07:53Z</time>
      </trkpt>
      <trkpt lat="43.36944" lon="6.14107">
        <ele>361.60000610352</ele>
        <time>2016-05-18T14:07:55Z</time>
      </trkpt>
      <trkpt lat="43.36944" lon="6.14107">
        <ele>361.60000610352</ele>
        <time>2016-05-18T14:07:57Z</time>
      </trkpt>
      <trkpt lat="43.36944" lon="6.14107">
        <ele>361.60000610352</ele>
        <time>2016-05-18T14:07:59Z</time>
      </trkpt>
      <trkpt lat="43.36944" lon="6.14107">
        <ele>361.60000610352</ele>
        <time>2016-05-18T14:08:01Z</time>
      </trkpt>
      <trkpt lat="43.36944" lon="6.14107">
        <ele>361.60000610352</ele>
        <time>2016-05-18T14:08:03Z</time>
      </trkpt>
      <trkpt lat="43.36944" lon="6.14107">
        <ele>361.60000610352</ele>
        <time>2016-05-18T14:08:05Z</time>
      </trkpt>
      <trkpt lat="43.36944" lon="6.14107">
        <ele>361.39999389648</ele>
        <time>2016-05-18T14:08:07Z</time>
      </trkpt>
      <trkpt lat="43.36944" lon="6.14107">
        <ele>361</ele>
        <time>2016-05-18T14:08:09Z</time>
      </trkpt>
      <trkpt lat="43.36944" lon="6.14107">
        <ele>361</ele>
        <time>2016-05-18T14:08:11Z</time>
      </trkpt>
      <trkpt lat="43.36944" lon="6.14107">
        <ele>361</ele>
        <time>2016-05-18T14:08:13Z</time>
      </trkpt>
      <trkpt lat="43.36944" lon="6.14107">
        <ele>360.79998779297</ele>
        <time>2016-05-18T14:08:15Z</time>
      </trkpt>
      <trkpt lat="43.36944" lon="6.14107">
        <ele>361</ele>
        <time>2016-05-18T14:08:17Z</time>
      </trkpt>
      <trkpt lat="43.36944" lon="6.14107">
        <ele>361</ele>
        <time>2016-05-18T14:08:19Z</time>
      </trkpt>
      <trkpt lat="43.36944" lon="6.14107">
        <ele>361.20001220703</ele>
        <time>2016-05-18T14:08:21Z</time>
      </trkpt>
      <trkpt lat="43.36944" lon="6.14107">
        <ele>361.39999389648</ele>
        <time>2016-05-18T14:08:23Z</time>
      </trkpt>
      <trkpt lat="43.36944" lon="6.14107">
        <ele>361.60000610352</ele>
        <time>2016-05-18T14:08:25Z</time>
      </trkpt>
      <trkpt lat="43.36944" lon="6.14107">
        <ele>361.79998779297</ele>
        <time>2016-05-18T14:08:27Z</time>
      </trkpt>
      <trkpt lat="43.36944" lon="6.14107">
        <ele>361.79998779297</ele>
        <time>2016-05-18T14:08:29Z</time>
      </trkpt>
      <trkpt lat="43.36944" lon="6.14107">
        <ele>361.79998779297</ele>
        <time>2016-05-18T14:08:31Z</time>
      </trkpt>
      <trkpt lat="43.36944" lon="6.14107">
        <ele>361.79998779297</ele>
        <time>2016-05-18T14:08:33Z</time>
      </trkpt>
      <trkpt lat="43.36944" lon="6.14107">
        <ele>361.79998779297</ele>
        <time>2016-05-18T14:08:35Z</time>
      </trkpt>
      <trkpt lat="43.36944" lon="6.14107">
        <ele>361.60000610352</ele>
        <time>2016-05-18T14:08:37Z</time>
      </trkpt>
      <trkpt lat="43.36944" lon="6.14107">
        <ele>361.60000610352</ele>
        <time>2016-05-18T14:08:39Z</time>
      </trkpt>
      <trkpt lat="43.36944" lon="6.14107">
        <ele>361.60000610352</ele>
        <time>2016-05-18T14:08:41Z</time>
      </trkpt>
      <trkpt lat="43.36944" lon="6.14107">
        <ele>361.39999389648</ele>
        <time>2016-05-18T14:08:43Z</time>
      </trkpt>
      <trkpt lat="43.36944" lon="6.14107">
        <ele>361.39999389648</ele>
        <time>2016-05-18T14:08:45Z</time>
      </trkpt>
      <trkpt lat="43.36944" lon="6.14107">
        <ele>361.60000610352</ele>
        <time>2016-05-18T14:08:47Z</time>
      </trkpt>
      <trkpt lat="43.36944" lon="6.14107">
        <ele>361.79998779297</ele>
        <time>2016-05-18T14:08:49Z</time>
      </trkpt>
      <trkpt lat="43.36944" lon="6.14107">
        <ele>361.79998779297</ele>
        <time>2016-05-18T14:08:51Z</time>
      </trkpt>
      <trkpt lat="43.36944" lon="6.14107">
        <ele>361.79998779297</ele>
        <time>2016-05-18T14:08:52Z</time>
      </trkpt>
      <trkpt lat="43.36944" lon="6.14107">
        <ele>361.79998779297</ele>
        <time>2016-05-18T14:08:53Z</time>
      </trkpt>
      <trkpt lat="43.36944" lon="6.14107">
        <ele>361.79998779297</ele>
        <time>2016-05-18T14:08:55Z</time>
      </trkpt>
      <trkpt lat="43.36944" lon="6.14107">
        <ele>361.79998779297</ele>
        <time>2016-05-18T14:08:57Z</time>
      </trkpt>
      <trkpt lat="43.36944" lon="6.14107">
        <ele>361.79998779297</ele>
        <time>2016-05-18T14:08:59Z</time>
      </trkpt>
      <trkpt lat="43.36944" lon="6.14107">
        <ele>361.79998779297</ele>
        <time>2016-05-18T14:09:01Z</time>
      </trkpt>
      <trkpt lat="43.36944" lon="6.14107">
        <ele>361.79998779297</ele>
        <time>2016-05-18T14:09:03Z</time>
      </trkpt>
      <trkpt lat="43.36944" lon="6.14107">
        <ele>362</ele>
        <time>2016-05-18T14:09:05Z</time>
      </trkpt>
      <trkpt lat="43.36944" lon="6.14107">
        <ele>361.79998779297</ele>
        <time>2016-05-18T14:09:07Z</time>
      </trkpt>
      <trkpt lat="43.36944" lon="6.14107">
        <ele>361.79998779297</ele>
        <time>2016-05-18T14:09:09Z</time>
      </trkpt>
      <trkpt lat="43.36944" lon="6.14107">
        <ele>361.79998779297</ele>
        <time>2016-05-18T14:09:11Z</time>
      </trkpt>
      <trkpt lat="43.36944" lon="6.14107">
        <ele>361.79998779297</ele>
        <time>2016-05-18T14:09:13Z</time>
      </trkpt>
      <trkpt lat="43.36944" lon="6.14107">
        <ele>361.79998779297</ele>
        <time>2016-05-18T14:09:15Z</time>
      </trkpt>
      <trkpt lat="43.36944" lon="6.14107">
        <ele>361.60000610352</ele>
        <time>2016-05-18T14:09:17Z</time>
      </trkpt>
      <trkpt lat="43.36944" lon="6.14107">
        <ele>361.39999389648</ele>
        <time>2016-05-18T14:09:19Z</time>
      </trkpt>
      <trkpt lat="43.36944" lon="6.14107">
        <ele>361.39999389648</ele>
        <time>2016-05-18T14:09:21Z</time>
      </trkpt>
      <trkpt lat="43.36944" lon="6.14107">
        <ele>361.60000610352</ele>
        <time>2016-05-18T14:09:23Z</time>
      </trkpt>
      <trkpt lat="43.36944" lon="6.14107">
        <ele>361.60000610352</ele>
        <time>2016-05-18T14:09:25Z</time>
      </trkpt>
      <trkpt lat="43.36944" lon="6.14107">
        <ele>361.60000610352</ele>
        <time>2016-05-18T14:09:27Z</time>
      </trkpt>
      <trkpt lat="43.36944" lon="6.14107">
        <ele>361.60000610352</ele>
        <time>2016-05-18T14:09:29Z</time>
      </trkpt>
      <trkpt lat="43.36944" lon="6.14107">
        <ele>361.60000610352</ele>
        <time>2016-05-18T14:09:31Z</time>
      </trkpt>
      <trkpt lat="43.36944" lon="6.14107">
        <ele>361.60000610352</ele>
        <time>2016-05-18T14:09:33Z</time>
      </trkpt>
      <trkpt lat="43.36944" lon="6.14107">
        <ele>361.60000610352</ele>
        <time>2016-05-18T14:09:35Z</time>
      </trkpt>
      <trkpt lat="43.36944" lon="6.14107">
        <ele>361.60000610352</ele>
        <time>2016-05-18T14:09:37Z</time>
      </trkpt>
      <trkpt lat="43.36944" lon="6.14107">
        <ele>361.60000610352</ele>
        <time>2016-05-18T14:09:39Z</time>
      </trkpt>
      <trkpt lat="43.36944" lon="6.14107">
        <ele>361.79998779297</ele>
        <time>2016-05-18T14:09:41Z</time>
      </trkpt>
      <trkpt lat="43.36944" lon="6.14107">
        <ele>361.79998779297</ele>
        <time>2016-05-18T14:09:43Z</time>
      </trkpt>
      <trkpt lat="43.36944" lon="6.14107">
        <ele>361.79998779297</ele>
        <time>2016-05-18T14:09:45Z</time>
      </trkpt>
      <trkpt lat="43.36944" lon="6.14107">
        <ele>361.79998779297</ele>
        <time>2016-05-18T14:09:47Z</time>
      </trkpt>
      <trkpt lat="43.36944" lon="6.14107">
        <ele>361.79998779297</ele>
        <time>2016-05-18T14:09:49Z</time>
      </trkpt>
      <trkpt lat="43.36944" lon="6.14107">
        <ele>362</ele>
        <time>2016-05-18T14:09:51Z</time>
      </trkpt>
      <trkpt lat="43.36944" lon="6.14107">
        <ele>362</ele>
        <time>2016-05-18T14:09:53Z</time>
      </trkpt>
      <trkpt lat="43.36944" lon="6.14107">
        <ele>362</ele>
        <time>2016-05-18T14:09:55Z</time>
      </trkpt>
      <trkpt lat="43.36944" lon="6.14107">
        <ele>362</ele>
        <time>2016-05-18T14:09:57Z</time>
      </trkpt>
      <trkpt lat="43.36944" lon="6.14107">
        <ele>362</ele>
        <time>2016-05-18T14:09:59Z</time>
      </trkpt>
      <trkpt lat="43.36944" lon="6.14107">
        <ele>362</ele>
        <time>2016-05-18T14:10:01Z</time>
      </trkpt>
      <trkpt lat="43.36944" lon="6.14107">
        <ele>361.79998779297</ele>
        <time>2016-05-18T14:10:03Z</time>
      </trkpt>
      <trkpt lat="43.36944" lon="6.14107">
        <ele>361.79998779297</ele>
        <time>2016-05-18T14:10:05Z</time>
      </trkpt>
      <trkpt lat="43.36944" lon="6.14107">
        <ele>361.79998779297</ele>
        <time>2016-05-18T14:10:07Z</time>
      </trkpt>
      <trkpt lat="43.36944" lon="6.14107">
        <ele>361.79998779297</ele>
        <time>2016-05-18T14:10:09Z</time>
      </trkpt>
      <trkpt lat="43.36944" lon="6.14107">
        <ele>361.79998779297</ele>
        <time>2016-05-18T14:10:11Z</time>
      </trkpt>
      <trkpt lat="43.36944" lon="6.14107">
        <ele>361.79998779297</ele>
        <time>2016-05-18T14:10:13Z</time>
      </trkpt>
      <trkpt lat="43.36944" lon="6.14107">
        <ele>361.79998779297</ele>
        <time>2016-05-18T14:10:15Z</time>
      </trkpt>
      <trkpt lat="43.36944" lon="6.14107">
        <ele>361.79998779297</ele>
        <time>2016-05-18T14:10:17Z</time>
      </trkpt>
      <trkpt lat="43.36944" lon="6.14107">
        <ele>361.79998779297</ele>
        <time>2016-05-18T14:10:19Z</time>
      </trkpt>
      <trkpt lat="43.36944" lon="6.14107">
        <ele>361.79998779297</ele>
        <time>2016-05-18T14:10:21Z</time>
      </trkpt>
      <trkpt lat="43.36944" lon="6.14107">
        <ele>362</ele>
        <time>2016-05-18T14:10:23Z</time>
      </trkpt>
      <trkpt lat="43.36944" lon="6.14107">
        <ele>362</ele>
        <time>2016-05-18T14:10:24Z</time>
      </trkpt>
      <trkpt lat="43.36944" lon="6.14107">
        <ele>362.20001220703</ele>
        <time>2016-05-18T14:10:25Z</time>
      </trkpt>
      <trkpt lat="43.36944" lon="6.14107">
        <ele>362.20001220703</ele>
        <time>2016-05-18T14:10:27Z</time>
      </trkpt>
      <trkpt lat="43.36944" lon="6.14107">
        <ele>362.20001220703</ele>
        <time>2016-05-18T14:10:29Z</time>
      </trkpt>
      <trkpt lat="43.36944" lon="6.14107">
        <ele>362.20001220703</ele>
        <time>2016-05-18T14:10:31Z</time>
      </trkpt>
      <trkpt lat="43.36944" lon="6.14107">
        <ele>362.20001220703</ele>
        <time>2016-05-18T14:10:33Z</time>
      </trkpt>
      <trkpt lat="43.36944" lon="6.14107">
        <ele>362.20001220703</ele>
        <time>2016-05-18T14:10:35Z</time>
      </trkpt>
      <trkpt lat="43.36944" lon="6.14107">
        <ele>362</ele>
        <time>2016-05-18T14:10:37Z</time>
      </trkpt>
      <trkpt lat="43.36944" lon="6.14107">
        <ele>362</ele>
        <time>2016-05-18T14:10:39Z</time>
      </trkpt>
      <trkpt lat="43.36944" lon="6.14107">
        <ele>362</ele>
        <time>2016-05-18T14:10:41Z</time>
      </trkpt>
      <trkpt lat="43.36944" lon="6.14107">
        <ele>362</ele>
        <time>2016-05-18T14:10:43Z</time>
      </trkpt>
      <trkpt lat="43.36944" lon="6.14107">
        <ele>362</ele>
        <time>2016-05-18T14:10:45Z</time>
      </trkpt>
      <trkpt lat="43.36944" lon="6.14107">
        <ele>361.79998779297</ele>
        <time>2016-05-18T14:10:47Z</time>
      </trkpt>
      <trkpt lat="43.36944" lon="6.14107">
        <ele>361.79998779297</ele>
        <time>2016-05-18T14:10:49Z</time>
      </trkpt>
      <trkpt lat="43.36944" lon="6.14107">
        <ele>361.79998779297</ele>
        <time>2016-05-18T14:10:51Z</time>
      </trkpt>
      <trkpt lat="43.36944" lon="6.14107">
        <ele>362</ele>
        <time>2016-05-18T14:10:53Z</time>
      </trkpt>
      <trkpt lat="43.36944" lon="6.14107">
        <ele>362</ele>
        <time>2016-05-18T14:10:55Z</time>
      </trkpt>
      <trkpt lat="43.36944" lon="6.14107">
        <ele>362.20001220703</ele>
        <time>2016-05-18T14:10:57Z</time>
      </trkpt>
      <trkpt lat="43.36944" lon="6.14107">
        <ele>362.20001220703</ele>
        <time>2016-05-18T14:10:59Z</time>
      </trkpt>
      <trkpt lat="43.36944" lon="6.14107">
        <ele>362</ele>
        <time>2016-05-18T14:11:00Z</time>
      </trkpt>
      <trkpt lat="43.36944" lon="6.14107">
        <ele>362</ele>
        <time>2016-05-18T14:11:01Z</time>
      </trkpt>
      <trkpt lat="43.36944" lon="6.14107">
        <ele>362</ele>
        <time>2016-05-18T14:11:03Z</time>
      </trkpt>
      <trkpt lat="43.36944" lon="6.14107">
        <ele>361.79998779297</ele>
        <time>2016-05-18T14:11:05Z</time>
      </trkpt>
      <trkpt lat="43.36944" lon="6.14107">
        <ele>361.79998779297</ele>
        <time>2016-05-18T14:11:07Z</time>
      </trkpt>
      <trkpt lat="43.36944" lon="6.14107">
        <ele>361.79998779297</ele>
        <time>2016-05-18T14:11:09Z</time>
      </trkpt>
      <trkpt lat="43.36944" lon="6.14107">
        <ele>361.79998779297</ele>
        <time>2016-05-18T14:11:11Z</time>
      </trkpt>
      <trkpt lat="43.36944" lon="6.14107">
        <ele>361.79998779297</ele>
        <time>2016-05-18T14:11:13Z</time>
      </trkpt>
      <trkpt lat="43.36944" lon="6.14107">
        <ele>361.60000610352</ele>
        <time>2016-05-18T14:11:15Z</time>
      </trkpt>
      <trkpt lat="43.36944" lon="6.14107">
        <ele>361.39999389648</ele>
        <time>2016-05-18T14:11:17Z</time>
      </trkpt>
      <trkpt lat="43.36944" lon="6.14107">
        <ele>361.39999389648</ele>
        <time>2016-05-18T14:11:19Z</time>
      </trkpt>
      <trkpt lat="43.36944" lon="6.14107">
        <ele>361.39999389648</ele>
        <time>2016-05-18T14:11:21Z</time>
      </trkpt>
      <trkpt lat="43.36944" lon="6.14107">
        <ele>361.39999389648</ele>
        <time>2016-05-18T14:11:23Z</time>
      </trkpt>
      <trkpt lat="43.36944" lon="6.14107">
        <ele>361.20001220703</ele>
        <time>2016-05-18T14:11:25Z</time>
      </trkpt>
      <trkpt lat="43.36944" lon="6.14107">
        <ele>361.20001220703</ele>
        <time>2016-05-18T14:11:27Z</time>
      </trkpt>
      <trkpt lat="43.36944" lon="6.14107">
        <ele>361.39999389648</ele>
        <time>2016-05-18T14:11:29Z</time>
      </trkpt>
      <trkpt lat="43.36944" lon="6.14107">
        <ele>361.39999389648</ele>
        <time>2016-05-18T14:11:31Z</time>
      </trkpt>
      <trkpt lat="43.36944" lon="6.14107">
        <ele>361.60000610352</ele>
        <time>2016-05-18T14:11:33Z</time>
      </trkpt>
      <trkpt lat="43.36944" lon="6.14107">
        <ele>361.60000610352</ele>
        <time>2016-05-18T14:11:35Z</time>
      </trkpt>
      <trkpt lat="43.36944" lon="6.14107">
        <ele>361.60000610352</ele>
        <time>2016-05-18T14:11:37Z</time>
      </trkpt>
      <trkpt lat="43.36944" lon="6.14107">
        <ele>361.60000610352</ele>
        <time>2016-05-18T14:11:39Z</time>
      </trkpt>
      <trkpt lat="43.36944" lon="6.14107">
        <ele>361.79998779297</ele>
        <time>2016-05-18T14:11:41Z</time>
      </trkpt>
      <trkpt lat="43.36944" lon="6.14107">
        <ele>361.79998779297</ele>
        <time>2016-05-18T14:11:43Z</time>
      </trkpt>
      <trkpt lat="43.36944" lon="6.14107">
        <ele>361.79998779297</ele>
        <time>2016-05-18T14:11:45Z</time>
      </trkpt>
      <trkpt lat="43.36944" lon="6.14107">
        <ele>362</ele>
        <time>2016-05-18T14:11:47Z</time>
      </trkpt>
      <trkpt lat="43.36944" lon="6.14107">
        <ele>362</ele>
        <time>2016-05-18T14:11:49Z</time>
      </trkpt>
      <trkpt lat="43.36944" lon="6.14107">
        <ele>361.79998779297</ele>
        <time>2016-05-18T14:11:51Z</time>
      </trkpt>
      <trkpt lat="43.36944" lon="6.14107">
        <ele>361.79998779297</ele>
        <time>2016-05-18T14:11:53Z</time>
      </trkpt>
      <trkpt lat="43.36944" lon="6.14107">
        <ele>361.60000610352</ele>
        <time>2016-05-18T14:11:55Z</time>
      </trkpt>
      <trkpt lat="43.36944" lon="6.14107">
        <ele>361.39999389648</ele>
        <time>2016-05-18T14:11:57Z</time>
      </trkpt>
      <trkpt lat="43.36944" lon="6.14107">
        <ele>361.39999389648</ele>
        <time>2016-05-18T14:11:59Z</time>
      </trkpt>
      <trkpt lat="43.36944" lon="6.14107">
        <ele>361.39999389648</ele>
        <time>2016-05-18T14:12:01Z</time>
      </trkpt>
      <trkpt lat="43.36944" lon="6.14107">
        <ele>361.39999389648</ele>
        <time>2016-05-18T14:12:03Z</time>
      </trkpt>
      <trkpt lat="43.36944" lon="6.14107">
        <ele>361.60000610352</ele>
        <time>2016-05-18T14:12:05Z</time>
      </trkpt>
      <trkpt lat="43.36944" lon="6.14107">
        <ele>361.60000610352</ele>
        <time>2016-05-18T14:12:07Z</time>
      </trkpt>
      <trkpt lat="43.36944" lon="6.14107">
        <ele>361.39999389648</ele>
        <time>2016-05-18T14:12:09Z</time>
      </trkpt>
      <trkpt lat="43.36944" lon="6.14107">
        <ele>361.39999389648</ele>
        <time>2016-05-18T14:12:11Z</time>
      </trkpt>
      <trkpt lat="43.36944" lon="6.14107">
        <ele>361.39999389648</ele>
        <time>2016-05-18T14:12:13Z</time>
      </trkpt>
      <trkpt lat="43.36944" lon="6.14107">
        <ele>361.39999389648</ele>
        <time>2016-05-18T14:12:15Z</time>
      </trkpt>
      <trkpt lat="43.36944" lon="6.14107">
        <ele>361.60000610352</ele>
        <time>2016-05-18T14:12:17Z</time>
      </trkpt>
      <trkpt lat="43.36944" lon="6.14107">
        <ele>361.79998779297</ele>
        <time>2016-05-18T14:12:19Z</time>
      </trkpt>
      <trkpt lat="43.36944" lon="6.14107">
        <ele>362</ele>
        <time>2016-05-18T14:12:21Z</time>
      </trkpt>
      <trkpt lat="43.36944" lon="6.14107">
        <ele>361.79998779297</ele>
        <time>2016-05-18T14:12:23Z</time>
      </trkpt>
      <trkpt lat="43.36944" lon="6.14107">
        <ele>361.60000610352</ele>
        <time>2016-05-18T14:12:25Z</time>
      </trkpt>
      <trkpt lat="43.36944" lon="6.14107">
        <ele>361.79998779297</ele>
        <time>2016-05-18T14:12:27Z</time>
      </trkpt>
      <trkpt lat="43.36944" lon="6.14107">
        <ele>362</ele>
        <time>2016-05-18T14:12:29Z</time>
      </trkpt>
      <trkpt lat="43.36944" lon="6.14107">
        <ele>362</ele>
        <time>2016-05-18T14:12:31Z</time>
      </trkpt>
      <trkpt lat="43.36944" lon="6.14107">
        <ele>362</ele>
        <time>2016-05-18T14:12:33Z</time>
      </trkpt>
      <trkpt lat="43.36944" lon="6.14107">
        <ele>362</ele>
        <time>2016-05-18T14:12:35Z</time>
      </trkpt>
      <trkpt lat="43.36944" lon="6.14107">
        <ele>362</ele>
        <time>2016-05-18T14:12:37Z</time>
      </trkpt>
      <trkpt lat="43.36944" lon="6.14107">
        <ele>362</ele>
        <time>2016-05-18T14:12:39Z</time>
      </trkpt>
      <trkpt lat="43.36944" lon="6.14107">
        <ele>362</ele>
        <time>2016-05-18T14:12:41Z</time>
      </trkpt>
      <trkpt lat="43.36944" lon="6.14107">
        <ele>362</ele>
        <time>2016-05-18T14:12:43Z</time>
      </trkpt>
      <trkpt lat="43.36944" lon="6.14107">
        <ele>362</ele>
        <time>2016-05-18T14:12:45Z</time>
      </trkpt>
      <trkpt lat="43.36944" lon="6.14108">
        <ele>362</ele>
        <time>2016-05-18T14:12:46Z</time>
      </trkpt>
      <trkpt lat="43.36944" lon="6.14108">
        <ele>362</ele>
        <time>2016-05-18T14:12:47Z</time>
      </trkpt>
      <trkpt lat="43.36944" lon="6.14109">
        <ele>362</ele>
        <time>2016-05-18T14:12:49Z</time>
      </trkpt>
      <trkpt lat="43.36943" lon="6.14109">
        <ele>362.20001220703</ele>
        <time>2016-05-18T14:12:51Z</time>
      </trkpt>
      <trkpt lat="43.36942" lon="6.14111">
        <ele>362.39999389648</ele>
        <time>2016-05-18T14:12:53Z</time>
      </trkpt>
      <trkpt lat="43.36942" lon="6.14111">
        <ele>362.39999389648</ele>
        <time>2016-05-18T14:12:54Z</time>
      </trkpt>
      <trkpt lat="43.3694" lon="6.14111">
        <ele>362.60000610352</ele>
        <time>2016-05-18T14:12:55Z</time>
      </trkpt>
      <trkpt lat="43.36938" lon="6.14112">
        <ele>362.60000610352</ele>
        <time>2016-05-18T14:12:57Z</time>
      </trkpt>
      <trkpt lat="43.36936" lon="6.14111">
        <ele>362.60000610352</ele>
        <time>2016-05-18T14:12:58Z</time>
      </trkpt>
      <trkpt lat="43.36934" lon="6.14111">
        <ele>362.79998779297</ele>
        <time>2016-05-18T14:12:59Z</time>
      </trkpt>
      <trkpt lat="43.36932" lon="6.1411">
        <ele>362.79998779297</ele>
        <time>2016-05-18T14:13:00Z</time>
      </trkpt>
      <trkpt lat="43.3693" lon="6.14108">
        <ele>363</ele>
        <time>2016-05-18T14:13:01Z</time>
      </trkpt>
      <trkpt lat="43.36927" lon="6.14106">
        <ele>363.20001220703</ele>
        <time>2016-05-18T14:13:03Z</time>
      </trkpt>
      <trkpt lat="43.36924" lon="6.14106">
        <ele>363.39999389648</ele>
        <time>2016-05-18T14:13:04Z</time>
      </trkpt>
      <trkpt lat="43.36922" lon="6.14105">
        <ele>363.60000610352</ele>
        <time>2016-05-18T14:13:05Z</time>
      </trkpt>
      <trkpt lat="43.36921" lon="6.14105">
        <ele>363.60000610352</ele>
        <time>2016-05-18T14:13:06Z</time>
      </trkpt>
      <trkpt lat="43.36919" lon="6.14106">
        <ele>363.60000610352</ele>
        <time>2016-05-18T14:13:07Z</time>
      </trkpt>
      <trkpt lat="43.36917" lon="6.14107">
        <ele>363.79998779297</ele>
        <time>2016-05-18T14:13:08Z</time>
      </trkpt>
      <trkpt lat="43.36916" lon="6.14107">
        <ele>363.79998779297</ele>
        <time>2016-05-18T14:13:09Z</time>
      </trkpt>
      <trkpt lat="43.36913" lon="6.14109">
        <ele>364</ele>
        <time>2016-05-18T14:13:11Z</time>
      </trkpt>
      <trkpt lat="43.36909" lon="6.14111">
        <ele>363.79998779297</ele>
        <time>2016-05-18T14:13:13Z</time>
      </trkpt>
      <trkpt lat="43.36907" lon="6.14113">
        <ele>363.39999389648</ele>
        <time>2016-05-18T14:13:15Z</time>
      </trkpt>
      <trkpt lat="43.36903" lon="6.14114">
        <ele>363</ele>
        <time>2016-05-18T14:13:17Z</time>
      </trkpt>
      <trkpt lat="43.369" lon="6.14115">
        <ele>362.79998779297</ele>
        <time>2016-05-18T14:13:19Z</time>
      </trkpt>
      <trkpt lat="43.36896" lon="6.14114">
        <ele>362.39999389648</ele>
        <time>2016-05-18T14:13:21Z</time>
      </trkpt>
      <trkpt lat="43.36894" lon="6.14113">
        <ele>362.20001220703</ele>
        <time>2016-05-18T14:13:22Z</time>
      </trkpt>
      <trkpt lat="43.36892" lon="6.14111">
        <ele>361.79998779297</ele>
        <time>2016-05-18T14:13:23Z</time>
      </trkpt>
      <trkpt lat="43.36889" lon="6.14104">
        <ele>361.39999389648</ele>
        <time>2016-05-18T14:13:25Z</time>
      </trkpt>
      <trkpt lat="43.36887" lon="6.141">
        <ele>361.20001220703</ele>
        <time>2016-05-18T14:13:26Z</time>
      </trkpt>
      <trkpt lat="43.36885" lon="6.14096">
        <ele>361</ele>
        <time>2016-05-18T14:13:27Z</time>
      </trkpt>
      <trkpt lat="43.36882" lon="6.14086">
        <ele>360.39999389648</ele>
        <time>2016-05-18T14:13:29Z</time>
      </trkpt>
      <trkpt lat="43.36879" lon="6.14074">
        <ele>360.20001220703</ele>
        <time>2016-05-18T14:13:31Z</time>
      </trkpt>
      <trkpt lat="43.36878" lon="6.14069">
        <ele>360</ele>
        <time>2016-05-18T14:13:32Z</time>
      </trkpt>
      <trkpt lat="43.36877" lon="6.14065">
        <ele>359.39999389648</ele>
        <time>2016-05-18T14:13:33Z</time>
      </trkpt>
      <trkpt lat="43.36876" lon="6.14061">
        <ele>359.20001220703</ele>
        <time>2016-05-18T14:13:34Z</time>
      </trkpt>
      <trkpt lat="43.36875" lon="6.14057">
        <ele>358.79998779297</ele>
        <time>2016-05-18T14:13:35Z</time>
      </trkpt>
      <trkpt lat="43.36874" lon="6.14053">
        <ele>358.39999389648</ele>
        <time>2016-05-18T14:13:36Z</time>
      </trkpt>
      <trkpt lat="43.36874" lon="6.14049">
        <ele>357.79998779297</ele>
        <time>2016-05-18T14:13:37Z</time>
      </trkpt>
      <trkpt lat="43.36871" lon="6.1404">
        <ele>356.60000610352</ele>
        <time>2016-05-18T14:13:39Z</time>
      </trkpt>
      <trkpt lat="43.3687" lon="6.14033">
        <ele>356</ele>
        <time>2016-05-18T14:13:41Z</time>
      </trkpt>
      <trkpt lat="43.36868" lon="6.14023">
        <ele>355.60000610352</ele>
        <time>2016-05-18T14:13:43Z</time>
      </trkpt>
      <trkpt lat="43.36868" lon="6.14012">
        <ele>355</ele>
        <time>2016-05-18T14:13:45Z</time>
      </trkpt>
      <trkpt lat="43.36867" lon="6.14002">
        <ele>353.79998779297</ele>
        <time>2016-05-18T14:13:47Z</time>
      </trkpt>
      <trkpt lat="43.36866" lon="6.13996">
        <ele>353.39999389648</ele>
        <time>2016-05-18T14:13:48Z</time>
      </trkpt>
      <trkpt lat="43.36865" lon="6.13991">
        <ele>352.60000610352</ele>
        <time>2016-05-18T14:13:49Z</time>
      </trkpt>
      <trkpt lat="43.36864" lon="6.13986">
        <ele>352.20001220703</ele>
        <time>2016-05-18T14:13:50Z</time>
      </trkpt>
      <trkpt lat="43.36862" lon="6.13982">
        <ele>351.20001220703</ele>
        <time>2016-05-18T14:13:51Z</time>
      </trkpt>
      <trkpt lat="43.36857" lon="6.13976">
        <ele>350.60000610352</ele>
        <time>2016-05-18T14:13:53Z</time>
      </trkpt>
      <trkpt lat="43.36854" lon="6.13974">
        <ele>350.60000610352</ele>
        <time>2016-05-18T14:13:54Z</time>
      </trkpt>
      <trkpt lat="43.36851" lon="6.13972">
        <ele>350.60000610352</ele>
        <time>2016-05-18T14:13:55Z</time>
      </trkpt>
      <trkpt lat="43.36845" lon="6.13965">
        <ele>350.60000610352</ele>
        <time>2016-05-18T14:13:57Z</time>
      </trkpt>
      <trkpt lat="43.36839" lon="6.13958">
        <ele>350.39999389648</ele>
        <time>2016-05-18T14:13:59Z</time>
      </trkpt>
      <trkpt lat="43.36836" lon="6.13955">
        <ele>350.20001220703</ele>
        <time>2016-05-18T14:14:00Z</time>
      </trkpt>
      <trkpt lat="43.36833" lon="6.13955">
        <ele>350.20001220703</ele>
        <time>2016-05-18T14:14:01Z</time>
      </trkpt>
      <trkpt lat="43.36831" lon="6.13956">
        <ele>350.20001220703</ele>
        <time>2016-05-18T14:14:02Z</time>
      </trkpt>
      <trkpt lat="43.36829" lon="6.13959">
        <ele>350.20001220703</ele>
        <time>2016-05-18T14:14:03Z</time>
      </trkpt>
      <trkpt lat="43.36828" lon="6.13963">
        <ele>350.39999389648</ele>
        <time>2016-05-18T14:14:04Z</time>
      </trkpt>
      <trkpt lat="43.36827" lon="6.13966">
        <ele>350.79998779297</ele>
        <time>2016-05-18T14:14:05Z</time>
      </trkpt>
      <trkpt lat="43.36826" lon="6.13969">
        <ele>351.20001220703</ele>
        <time>2016-05-18T14:14:06Z</time>
      </trkpt>
      <trkpt lat="43.36825" lon="6.13971">
        <ele>351.39999389648</ele>
        <time>2016-05-18T14:14:07Z</time>
      </trkpt>
      <trkpt lat="43.36821" lon="6.13974">
        <ele>351.79998779297</ele>
        <time>2016-05-18T14:14:09Z</time>
      </trkpt>
      <trkpt lat="43.3682" lon="6.13975">
        <ele>352</ele>
        <time>2016-05-18T14:14:10Z</time>
      </trkpt>
      <trkpt lat="43.36818" lon="6.13976">
        <ele>352.39999389648</ele>
        <time>2016-05-18T14:14:11Z</time>
      </trkpt>
      <trkpt lat="43.36816" lon="6.13978">
        <ele>352.79998779297</ele>
        <time>2016-05-18T14:14:12Z</time>
      </trkpt>
      <trkpt lat="43.36814" lon="6.13979">
        <ele>353.20001220703</ele>
        <time>2016-05-18T14:14:13Z</time>
      </trkpt>
      <trkpt lat="43.3681" lon="6.13981">
        <ele>353.79998779297</ele>
        <time>2016-05-18T14:14:15Z</time>
      </trkpt>
      <trkpt lat="43.36806" lon="6.13983">
        <ele>354</ele>
        <time>2016-05-18T14:14:17Z</time>
      </trkpt>
      <trkpt lat="43.36802" lon="6.13986">
        <ele>354</ele>
        <time>2016-05-18T14:14:19Z</time>
      </trkpt>
      <trkpt lat="43.36797" lon="6.13989">
        <ele>354.20001220703</ele>
        <time>2016-05-18T14:14:21Z</time>
      </trkpt>
      <trkpt lat="43.36792" lon="6.13991">
        <ele>354.39999389648</ele>
        <time>2016-05-18T14:14:23Z</time>
      </trkpt>
      <trkpt lat="43.36788" lon="6.13994">
        <ele>354.79998779297</ele>
        <time>2016-05-18T14:14:25Z</time>
      </trkpt>
      <trkpt lat="43.36786" lon="6.13996">
        <ele>354.79998779297</ele>
        <time>2016-05-18T14:14:26Z</time>
      </trkpt>
      <trkpt lat="43.36784" lon="6.13998">
        <ele>354.79998779297</ele>
        <time>2016-05-18T14:14:27Z</time>
      </trkpt>
      <trkpt lat="43.36781" lon="6.14003">
        <ele>355</ele>
        <time>2016-05-18T14:14:29Z</time>
      </trkpt>
      <trkpt lat="43.36779" lon="6.14005">
        <ele>355.20001220703</ele>
        <time>2016-05-18T14:14:30Z</time>
      </trkpt>
      <trkpt lat="43.36778" lon="6.14006">
        <ele>356</ele>
        <time>2016-05-18T14:14:31Z</time>
      </trkpt>
      <trkpt lat="43.36775" lon="6.1401">
        <ele>356.39999389648</ele>
        <time>2016-05-18T14:14:33Z</time>
      </trkpt>
      <trkpt lat="43.36772" lon="6.14012">
        <ele>356.79998779297</ele>
        <time>2016-05-18T14:14:35Z</time>
      </trkpt>
      <trkpt lat="43.36771" lon="6.14013">
        <ele>357</ele>
        <time>2016-05-18T14:14:36Z</time>
      </trkpt>
      <trkpt lat="43.3677" lon="6.14013">
        <ele>357.20001220703</ele>
        <time>2016-05-18T14:14:37Z</time>
      </trkpt>
      <trkpt lat="43.36767" lon="6.14014">
        <ele>357.60000610352</ele>
        <time>2016-05-18T14:14:39Z</time>
      </trkpt>
      <trkpt lat="43.36764" lon="6.14015">
        <ele>357.79998779297</ele>
        <time>2016-05-18T14:14:41Z</time>
      </trkpt>
      <trkpt lat="43.36761" lon="6.14016">
        <ele>358</ele>
        <time>2016-05-18T14:14:43Z</time>
      </trkpt>
      <trkpt lat="43.36757" lon="6.14016">
        <ele>357.60000610352</ele>
        <time>2016-05-18T14:14:45Z</time>
      </trkpt>
      <trkpt lat="43.36753" lon="6.14016">
        <ele>357.60000610352</ele>
        <time>2016-05-18T14:14:47Z</time>
      </trkpt>
      <trkpt lat="43.36751" lon="6.14016">
        <ele>357.79998779297</ele>
        <time>2016-05-18T14:14:48Z</time>
      </trkpt>
      <trkpt lat="43.36749" lon="6.14015">
        <ele>357.79998779297</ele>
        <time>2016-05-18T14:14:49Z</time>
      </trkpt>
      <trkpt lat="43.36744" lon="6.14013">
        <ele>358</ele>
        <time>2016-05-18T14:14:51Z</time>
      </trkpt>
      <trkpt lat="43.36739" lon="6.1401">
        <ele>358</ele>
        <time>2016-05-18T14:14:53Z</time>
      </trkpt>
      <trkpt lat="43.36735" lon="6.14007">
        <ele>358.39999389648</ele>
        <time>2016-05-18T14:14:55Z</time>
      </trkpt>
      <trkpt lat="43.36731" lon="6.14003">
        <ele>358.60000610352</ele>
        <time>2016-05-18T14:14:57Z</time>
      </trkpt>
      <trkpt lat="43.36728" lon="6.14003">
        <ele>358.60000610352</ele>
        <time>2016-05-18T14:14:58Z</time>
      </trkpt>
      <trkpt lat="43.36726" lon="6.14002">
        <ele>358.60000610352</ele>
        <time>2016-05-18T14:14:59Z</time>
      </trkpt>
      <trkpt lat="43.36723" lon="6.14002">
        <ele>358.79998779297</ele>
        <time>2016-05-18T14:15:01Z</time>
      </trkpt>
      <trkpt lat="43.36721" lon="6.14002">
        <ele>358.79998779297</ele>
        <time>2016-05-18T14:15:02Z</time>
      </trkpt>
      <trkpt lat="43.36719" lon="6.14002">
        <ele>358.79998779297</ele>
        <time>2016-05-18T14:15:03Z</time>
      </trkpt>
      <trkpt lat="43.36715" lon="6.14003">
        <ele>358.79998779297</ele>
        <time>2016-05-18T14:15:05Z</time>
      </trkpt>
      <trkpt lat="43.3671" lon="6.14008">
        <ele>358.79998779297</ele>
        <time>2016-05-18T14:15:07Z</time>
      </trkpt>
      <trkpt lat="43.36706" lon="6.14014">
        <ele>358.20001220703</ele>
        <time>2016-05-18T14:15:09Z</time>
      </trkpt>
      <trkpt lat="43.36702" lon="6.1402">
        <ele>358.39999389648</ele>
        <time>2016-05-18T14:15:11Z</time>
      </trkpt>
      <trkpt lat="43.36699" lon="6.14026">
        <ele>358.39999389648</ele>
        <time>2016-05-18T14:15:13Z</time>
      </trkpt>
      <trkpt lat="43.36695" lon="6.14031">
        <ele>358.60000610352</ele>
        <time>2016-05-18T14:15:15Z</time>
      </trkpt>
      <trkpt lat="43.3669" lon="6.14035">
        <ele>358.39999389648</ele>
        <time>2016-05-18T14:15:17Z</time>
      </trkpt>
      <trkpt lat="43.36685" lon="6.14039">
        <ele>358.60000610352</ele>
        <time>2016-05-18T14:15:19Z</time>
      </trkpt>
      <trkpt lat="43.36681" lon="6.14045">
        <ele>358.79998779297</ele>
        <time>2016-05-18T14:15:21Z</time>
      </trkpt>
      <trkpt lat="43.36677" lon="6.14051">
        <ele>358.79998779297</ele>
        <time>2016-05-18T14:15:23Z</time>
      </trkpt>
      <trkpt lat="43.36674" lon="6.14058">
        <ele>358.79998779297</ele>
        <time>2016-05-18T14:15:25Z</time>
      </trkpt>
      <trkpt lat="43.36671" lon="6.14065">
        <ele>358.60000610352</ele>
        <time>2016-05-18T14:15:27Z</time>
      </trkpt>
      <trkpt lat="43.3667" lon="6.14068">
        <ele>358.39999389648</ele>
        <time>2016-05-18T14:15:28Z</time>
      </trkpt>
      <trkpt lat="43.36669" lon="6.14072">
        <ele>358.39999389648</ele>
        <time>2016-05-18T14:15:29Z</time>
      </trkpt>
      <trkpt lat="43.36668" lon="6.14078">
        <ele>358.39999389648</ele>
        <time>2016-05-18T14:15:31Z</time>
      </trkpt>
      <trkpt lat="43.36667" lon="6.14083">
        <ele>358.60000610352</ele>
        <time>2016-05-18T14:15:33Z</time>
      </trkpt>
      <trkpt lat="43.36667" lon="6.14086">
        <ele>358.79998779297</ele>
        <time>2016-05-18T14:15:34Z</time>
      </trkpt>
      <trkpt lat="43.36666" lon="6.14089">
        <ele>359</ele>
        <time>2016-05-18T14:15:35Z</time>
      </trkpt>
      <trkpt lat="43.36666" lon="6.14094">
        <ele>359.20001220703</ele>
        <time>2016-05-18T14:15:37Z</time>
      </trkpt>
      <trkpt lat="43.36666" lon="6.141">
        <ele>359.39999389648</ele>
        <time>2016-05-18T14:15:39Z</time>
      </trkpt>
      <trkpt lat="43.36666" lon="6.14106">
        <ele>359.60000610352</ele>
        <time>2016-05-18T14:15:41Z</time>
      </trkpt>
      <trkpt lat="43.36666" lon="6.14109">
        <ele>359.60000610352</ele>
        <time>2016-05-18T14:15:42Z</time>
      </trkpt>
      <trkpt lat="43.36666" lon="6.14112">
        <ele>360</ele>
        <time>2016-05-18T14:15:43Z</time>
      </trkpt>
      <trkpt lat="43.36666" lon="6.14118">
        <ele>360</ele>
        <time>2016-05-18T14:15:45Z</time>
      </trkpt>
      <trkpt lat="43.36666" lon="6.14124">
        <ele>360.20001220703</ele>
        <time>2016-05-18T14:15:47Z</time>
      </trkpt>
      <trkpt lat="43.36666" lon="6.1413">
        <ele>360.20001220703</ele>
        <time>2016-05-18T14:15:49Z</time>
      </trkpt>
      <trkpt lat="43.36666" lon="6.14135">
        <ele>360.60000610352</ele>
        <time>2016-05-18T14:15:51Z</time>
      </trkpt>
      <trkpt lat="43.36667" lon="6.1414">
        <ele>360.79998779297</ele>
        <time>2016-05-18T14:15:53Z</time>
      </trkpt>
      <trkpt lat="43.36668" lon="6.14145">
        <ele>361</ele>
        <time>2016-05-18T14:15:55Z</time>
      </trkpt>
      <trkpt lat="43.36669" lon="6.14149">
        <ele>361.20001220703</ele>
        <time>2016-05-18T14:15:57Z</time>
      </trkpt>
      <trkpt lat="43.3667" lon="6.14153">
        <ele>361.39999389648</ele>
        <time>2016-05-18T14:15:59Z</time>
      </trkpt>
      <trkpt lat="43.3667" lon="6.14155">
        <ele>361.39999389648</ele>
        <time>2016-05-18T14:16:01Z</time>
      </trkpt>
      <trkpt lat="43.3667" lon="6.14156">
        <ele>361.20001220703</ele>
        <time>2016-05-18T14:16:03Z</time>
      </trkpt>
      <trkpt lat="43.3667" lon="6.14158">
        <ele>361.20001220703</ele>
        <time>2016-05-18T14:16:05Z</time>
      </trkpt>
      <trkpt lat="43.36671" lon="6.14158">
        <ele>361.20001220703</ele>
        <time>2016-05-18T14:16:06Z</time>
      </trkpt>
      <trkpt lat="43.36671" lon="6.14158">
        <ele>361</ele>
        <time>2016-05-18T14:16:07Z</time>
      </trkpt>
      <trkpt lat="43.36671" lon="6.14159">
        <ele>361</ele>
        <time>2016-05-18T14:16:09Z</time>
      </trkpt>
      <trkpt lat="43.36671" lon="6.14161">
        <ele>361</ele>
        <time>2016-05-18T14:16:11Z</time>
      </trkpt>
      <trkpt lat="43.36671" lon="6.14164">
        <ele>361</ele>
        <time>2016-05-18T14:16:13Z</time>
      </trkpt>
      <trkpt lat="43.36672" lon="6.14169">
        <ele>361</ele>
        <time>2016-05-18T14:16:15Z</time>
      </trkpt>
      <trkpt lat="43.36673" lon="6.14172">
        <ele>361</ele>
        <time>2016-05-18T14:16:17Z</time>
      </trkpt>
      <trkpt lat="43.36673" lon="6.14174">
        <ele>361</ele>
        <time>2016-05-18T14:16:18Z</time>
      </trkpt>
      <trkpt lat="43.36673" lon="6.14176">
        <ele>361</ele>
        <time>2016-05-18T14:16:19Z</time>
      </trkpt>
      <trkpt lat="43.36674" lon="6.1418">
        <ele>361</ele>
        <time>2016-05-18T14:16:21Z</time>
      </trkpt>
      <trkpt lat="43.36674" lon="6.14182">
        <ele>361.39999389648</ele>
        <time>2016-05-18T14:16:23Z</time>
      </trkpt>
      <trkpt lat="43.36674" lon="6.14183">
        <ele>361.60000610352</ele>
        <time>2016-05-18T14:16:25Z</time>
      </trkpt>
      <trkpt lat="43.36674" lon="6.14183">
        <ele>361.79998779297</ele>
        <time>2016-05-18T14:16:27Z</time>
      </trkpt>
      <trkpt lat="43.36674" lon="6.14183">
        <ele>361.79998779297</ele>
        <time>2016-05-18T14:16:29Z</time>
      </trkpt>
      <trkpt lat="43.36674" lon="6.14183">
        <ele>361.79998779297</ele>
        <time>2016-05-18T14:16:31Z</time>
      </trkpt>
      <trkpt lat="43.36674" lon="6.14183">
        <ele>362</ele>
        <time>2016-05-18T14:16:33Z</time>
      </trkpt>
      <trkpt lat="43.36674" lon="6.14183">
        <ele>362.20001220703</ele>
        <time>2016-05-18T14:16:35Z</time>
      </trkpt>
      <trkpt lat="43.36674" lon="6.14183">
        <ele>362.20001220703</ele>
        <time>2016-05-18T14:16:37Z</time>
      </trkpt>
      <trkpt lat="43.36674" lon="6.14184">
        <ele>362.20001220703</ele>
        <time>2016-05-18T14:16:38Z</time>
      </trkpt>
      <trkpt lat="43.36674" lon="6.14184">
        <ele>362.20001220703</ele>
        <time>2016-05-18T14:16:39Z</time>
      </trkpt>
      <trkpt lat="43.36674" lon="6.14183">
        <ele>362.39999389648</ele>
        <time>2016-05-18T14:16:41Z</time>
      </trkpt>
      <trkpt lat="43.36674" lon="6.14183">
        <ele>362.39999389648</ele>
        <time>2016-05-18T14:16:43Z</time>
      </trkpt>
      <trkpt lat="43.36674" lon="6.14183">
        <ele>362.60000610352</ele>
        <time>2016-05-18T14:16:45Z</time>
      </trkpt>
      <trkpt lat="43.36674" lon="6.14183">
        <ele>362.79998779297</ele>
        <time>2016-05-18T14:16:47Z</time>
      </trkpt>
      <trkpt lat="43.36674" lon="6.14183">
        <ele>362.79998779297</ele>
        <time>2016-05-18T14:16:49Z</time>
      </trkpt>
      <trkpt lat="43.36674" lon="6.14183">
        <ele>362.60000610352</ele>
        <time>2016-05-18T14:16:51Z</time>
      </trkpt>
      <trkpt lat="43.36674" lon="6.14183">
        <ele>362.39999389648</ele>
        <time>2016-05-18T14:16:53Z</time>
      </trkpt>
      <trkpt lat="43.36674" lon="6.14183">
        <ele>362.39999389648</ele>
        <time>2016-05-18T14:16:54Z</time>
      </trkpt>
      <trkpt lat="43.36674" lon="6.14183">
        <ele>362.39999389648</ele>
        <time>2016-05-18T14:16:55Z</time>
      </trkpt>
      <trkpt lat="43.36674" lon="6.14183">
        <ele>362.60000610352</ele>
        <time>2016-05-18T14:16:57Z</time>
      </trkpt>
      <trkpt lat="43.36674" lon="6.14183">
        <ele>362.60000610352</ele>
        <time>2016-05-18T14:16:59Z</time>
      </trkpt>
      <trkpt lat="43.36674" lon="6.14183">
        <ele>362.79998779297</ele>
        <time>2016-05-18T14:17:01Z</time>
      </trkpt>
      <trkpt lat="43.36674" lon="6.14183">
        <ele>362.79998779297</ele>
        <time>2016-05-18T14:17:03Z</time>
      </trkpt>
      <trkpt lat="43.36674" lon="6.14183">
        <ele>363</ele>
        <time>2016-05-18T14:17:05Z</time>
      </trkpt>
      <trkpt lat="43.36674" lon="6.14183">
        <ele>363</ele>
        <time>2016-05-18T14:17:07Z</time>
      </trkpt>
      <trkpt lat="43.36674" lon="6.14183">
        <ele>363.20001220703</ele>
        <time>2016-05-18T14:17:09Z</time>
      </trkpt>
      <trkpt lat="43.36674" lon="6.14183">
        <ele>363</ele>
        <time>2016-05-18T14:17:11Z</time>
      </trkpt>
      <trkpt lat="43.36674" lon="6.14183">
        <ele>363.39999389648</ele>
        <time>2016-05-18T14:17:12Z</time>
      </trkpt>
      <trkpt lat="43.36674" lon="6.14183">
        <ele>363.39999389648</ele>
        <time>2016-05-18T14:17:13Z</time>
      </trkpt>
      <trkpt lat="43.36674" lon="6.14184">
        <ele>363</ele>
        <time>2016-05-18T14:17:15Z</time>
      </trkpt>
      <trkpt lat="43.36674" lon="6.14184">
        <ele>363.20001220703</ele>
        <time>2016-05-18T14:17:17Z</time>
      </trkpt>
      <trkpt lat="43.36674" lon="6.14184">
        <ele>363.20001220703</ele>
        <time>2016-05-18T14:17:19Z</time>
      </trkpt>
      <trkpt lat="43.36674" lon="6.14184">
        <ele>363.20001220703</ele>
        <time>2016-05-18T14:17:21Z</time>
      </trkpt>
      <trkpt lat="43.36674" lon="6.14184">
        <ele>363.39999389648</ele>
        <time>2016-05-18T14:17:23Z</time>
      </trkpt>
      <trkpt lat="43.36674" lon="6.14184">
        <ele>363.39999389648</ele>
        <time>2016-05-18T14:17:25Z</time>
      </trkpt>
      <trkpt lat="43.36674" lon="6.14184">
        <ele>363.60000610352</ele>
        <time>2016-05-18T14:17:27Z</time>
      </trkpt>
      <trkpt lat="43.36674" lon="6.14184">
        <ele>363.60000610352</ele>
        <time>2016-05-18T14:17:29Z</time>
      </trkpt>
      <trkpt lat="43.36674" lon="6.14184">
        <ele>363.39999389648</ele>
        <time>2016-05-18T14:17:31Z</time>
      </trkpt>
      <trkpt lat="43.36674" lon="6.14184">
        <ele>363.39999389648</ele>
        <time>2016-05-18T14:17:33Z</time>
      </trkpt>
      <trkpt lat="43.36674" lon="6.14184">
        <ele>363.39999389648</ele>
        <time>2016-05-18T14:17:35Z</time>
      </trkpt>
      <trkpt lat="43.36674" lon="6.14184">
        <ele>363.60000610352</ele>
        <time>2016-05-18T14:17:37Z</time>
      </trkpt>
      <trkpt lat="43.36674" lon="6.14184">
        <ele>363.39999389648</ele>
        <time>2016-05-18T14:17:39Z</time>
      </trkpt>
      <trkpt lat="43.36674" lon="6.14185">
        <ele>363.39999389648</ele>
        <time>2016-05-18T14:17:41Z</time>
      </trkpt>
      <trkpt lat="43.36674" lon="6.14188">
        <ele>363.20001220703</ele>
        <time>2016-05-18T14:17:43Z</time>
      </trkpt>
      <trkpt lat="43.36675" lon="6.14189">
        <ele>363.20001220703</ele>
        <time>2016-05-18T14:17:44Z</time>
      </trkpt>
      <trkpt lat="43.36676" lon="6.1419">
        <ele>363.20001220703</ele>
        <time>2016-05-18T14:17:45Z</time>
      </trkpt>
      <trkpt lat="43.36677" lon="6.14194">
        <ele>363.39999389648</ele>
        <time>2016-05-18T14:17:47Z</time>
      </trkpt>
      <trkpt lat="43.36678" lon="6.14199">
        <ele>363.60000610352</ele>
        <time>2016-05-18T14:17:49Z</time>
      </trkpt>
      <trkpt lat="43.36678" lon="6.14201">
        <ele>364</ele>
        <time>2016-05-18T14:17:50Z</time>
      </trkpt>
      <trkpt lat="43.36678" lon="6.14203">
        <ele>364.20001220703</ele>
        <time>2016-05-18T14:17:51Z</time>
      </trkpt>
      <trkpt lat="43.36678" lon="6.14208">
        <ele>364.39999389648</ele>
        <time>2016-05-18T14:17:53Z</time>
      </trkpt>
      <trkpt lat="43.36678" lon="6.14213">
        <ele>364.60000610352</ele>
        <time>2016-05-18T14:17:55Z</time>
      </trkpt>
      <trkpt lat="43.36679" lon="6.14219">
        <ele>364.60000610352</ele>
        <time>2016-05-18T14:17:57Z</time>
      </trkpt>
      <trkpt lat="43.36679" lon="6.14226">
        <ele>364.79998779297</ele>
        <time>2016-05-18T14:17:59Z</time>
      </trkpt>
      <trkpt lat="43.3668" lon="6.14233">
        <ele>365</ele>
        <time>2016-05-18T14:18:01Z</time>
      </trkpt>
      <trkpt lat="43.3668" lon="6.14237">
        <ele>365</ele>
        <time>2016-05-18T14:18:02Z</time>
      </trkpt>
      <trkpt lat="43.3668" lon="6.1424">
        <ele>365.20001220703</ele>
        <time>2016-05-18T14:18:03Z</time>
      </trkpt>
      <trkpt lat="43.36681" lon="6.14245">
        <ele>365.60000610352</ele>
        <time>2016-05-18T14:18:05Z</time>
      </trkpt>
      <trkpt lat="43.36681" lon="6.14251">
        <ele>365.79998779297</ele>
        <time>2016-05-18T14:18:07Z</time>
      </trkpt>
      <trkpt lat="43.36681" lon="6.14256">
        <ele>365.79998779297</ele>
        <time>2016-05-18T14:18:09Z</time>
      </trkpt>
      <trkpt lat="43.3668" lon="6.14262">
        <ele>366</ele>
        <time>2016-05-18T14:18:11Z</time>
      </trkpt>
      <trkpt lat="43.3668" lon="6.14266">
        <ele>366.20001220703</ele>
        <time>2016-05-18T14:18:12Z</time>
      </trkpt>
      <trkpt lat="43.36679" lon="6.14269">
        <ele>366.20001220703</ele>
        <time>2016-05-18T14:18:13Z</time>
      </trkpt>
      <trkpt lat="43.36679" lon="6.14275">
        <ele>366.39999389648</ele>
        <time>2016-05-18T14:18:15Z</time>
      </trkpt>
      <trkpt lat="43.36679" lon="6.1428">
        <ele>366.79998779297</ele>
        <time>2016-05-18T14:18:17Z</time>
      </trkpt>
      <trkpt lat="43.36679" lon="6.14286">
        <ele>367.20001220703</ele>
        <time>2016-05-18T14:18:19Z</time>
      </trkpt>
      <trkpt lat="43.36679" lon="6.14292">
        <ele>367.60000610352</ele>
        <time>2016-05-18T14:18:21Z</time>
      </trkpt>
      <trkpt lat="43.36678" lon="6.14297">
        <ele>367.79998779297</ele>
        <time>2016-05-18T14:18:23Z</time>
      </trkpt>
      <trkpt lat="43.36678" lon="6.14302">
        <ele>368.39999389648</ele>
        <time>2016-05-18T14:18:25Z</time>
      </trkpt>
      <trkpt lat="43.36677" lon="6.14305">
        <ele>368.39999389648</ele>
        <time>2016-05-18T14:18:26Z</time>
      </trkpt>
      <trkpt lat="43.36676" lon="6.14308">
        <ele>368.39999389648</ele>
        <time>2016-05-18T14:18:27Z</time>
      </trkpt>
      <trkpt lat="43.36675" lon="6.14315">
        <ele>368.79998779297</ele>
        <time>2016-05-18T14:18:29Z</time>
      </trkpt>
      <trkpt lat="43.36673" lon="6.14323">
        <ele>368.60000610352</ele>
        <time>2016-05-18T14:18:31Z</time>
      </trkpt>
      <trkpt lat="43.36672" lon="6.14326">
        <ele>368.60000610352</ele>
        <time>2016-05-18T14:18:32Z</time>
      </trkpt>
      <trkpt lat="43.36671" lon="6.14329">
        <ele>368.60000610352</ele>
        <time>2016-05-18T14:18:33Z</time>
      </trkpt>
      <trkpt lat="43.3667" lon="6.14334">
        <ele>369</ele>
        <time>2016-05-18T14:18:35Z</time>
      </trkpt>
      <trkpt lat="43.36668" lon="6.14339">
        <ele>369.20001220703</ele>
        <time>2016-05-18T14:18:37Z</time>
      </trkpt>
      <trkpt lat="43.36667" lon="6.14341">
        <ele>369.20001220703</ele>
        <time>2016-05-18T14:18:38Z</time>
      </trkpt>
      <trkpt lat="43.36666" lon="6.14344">
        <ele>369.39999389648</ele>
        <time>2016-05-18T14:18:39Z</time>
      </trkpt>
      <trkpt lat="43.36663" lon="6.1435">
        <ele>369.39999389648</ele>
        <time>2016-05-18T14:18:41Z</time>
      </trkpt>
      <trkpt lat="43.3666" lon="6.14355">
        <ele>369.39999389648</ele>
        <time>2016-05-18T14:18:43Z</time>
      </trkpt>
      <trkpt lat="43.36658" lon="6.14359">
        <ele>369.60000610352</ele>
        <time>2016-05-18T14:18:45Z</time>
      </trkpt>
      <trkpt lat="43.36656" lon="6.14364">
        <ele>369.60000610352</ele>
        <time>2016-05-18T14:18:47Z</time>
      </trkpt>
      <trkpt lat="43.36653" lon="6.14369">
        <ele>369.60000610352</ele>
        <time>2016-05-18T14:18:49Z</time>
      </trkpt>
      <trkpt lat="43.36649" lon="6.14374">
        <ele>370</ele>
        <time>2016-05-18T14:18:51Z</time>
      </trkpt>
      <trkpt lat="43.36646" lon="6.14378">
        <ele>370</ele>
        <time>2016-05-18T14:18:53Z</time>
      </trkpt>
      <trkpt lat="43.36644" lon="6.1438">
        <ele>369.79998779297</ele>
        <time>2016-05-18T14:18:54Z</time>
      </trkpt>
      <trkpt lat="43.36643" lon="6.14381">
        <ele>369.79998779297</ele>
        <time>2016-05-18T14:18:55Z</time>
      </trkpt>
      <trkpt lat="43.3664" lon="6.14384">
        <ele>369.79998779297</ele>
        <time>2016-05-18T14:18:57Z</time>
      </trkpt>
      <trkpt lat="43.36636" lon="6.14388">
        <ele>370.20001220703</ele>
        <time>2016-05-18T14:18:59Z</time>
      </trkpt>
      <trkpt lat="43.36634" lon="6.1439">
        <ele>370.20001220703</ele>
        <time>2016-05-18T14:19:00Z</time>
      </trkpt>
      <trkpt lat="43.36633" lon="6.14391">
        <ele>370.20001220703</ele>
        <time>2016-05-18T14:19:01Z</time>
      </trkpt>
      <trkpt lat="43.36631" lon="6.14393">
        <ele>370.39999389648</ele>
        <time>2016-05-18T14:19:02Z</time>
      </trkpt>
      <trkpt lat="43.3663" lon="6.14395">
        <ele>370.39999389648</ele>
        <time>2016-05-18T14:19:03Z</time>
      </trkpt>
      <trkpt lat="43.36627" lon="6.144">
        <ele>370.79998779297</ele>
        <time>2016-05-18T14:19:05Z</time>
      </trkpt>
      <trkpt lat="43.36625" lon="6.14402">
        <ele>371.20001220703</ele>
        <time>2016-05-18T14:19:06Z</time>
      </trkpt>
      <trkpt lat="43.36624" lon="6.14404">
        <ele>371.39999389648</ele>
        <time>2016-05-18T14:19:07Z</time>
      </trkpt>
      <trkpt lat="43.36621" lon="6.14409">
        <ele>371.79998779297</ele>
        <time>2016-05-18T14:19:09Z</time>
      </trkpt>
      <trkpt lat="43.36618" lon="6.14414">
        <ele>371.79998779297</ele>
        <time>2016-05-18T14:19:11Z</time>
      </trkpt>
      <trkpt lat="43.36615" lon="6.14419">
        <ele>372</ele>
        <time>2016-05-18T14:19:13Z</time>
      </trkpt>
      <trkpt lat="43.36612" lon="6.14423">
        <ele>372.39999389648</ele>
        <time>2016-05-18T14:19:15Z</time>
      </trkpt>
      <trkpt lat="43.36609" lon="6.14428">
        <ele>372.79998779297</ele>
        <time>2016-05-18T14:19:17Z</time>
      </trkpt>
      <trkpt lat="43.36607" lon="6.14433">
        <ele>373.20001220703</ele>
        <time>2016-05-18T14:19:19Z</time>
      </trkpt>
      <trkpt lat="43.36606" lon="6.14436">
        <ele>373.39999389648</ele>
        <time>2016-05-18T14:19:20Z</time>
      </trkpt>
      <trkpt lat="43.36605" lon="6.14439">
        <ele>373.39999389648</ele>
        <time>2016-05-18T14:19:21Z</time>
      </trkpt>
      <trkpt lat="43.36604" lon="6.14444">
        <ele>373.79998779297</ele>
        <time>2016-05-18T14:19:23Z</time>
      </trkpt>
      <trkpt lat="43.36602" lon="6.1445">
        <ele>374.39999389648</ele>
        <time>2016-05-18T14:19:25Z</time>
      </trkpt>
      <trkpt lat="43.36601" lon="6.14452">
        <ele>374.60000610352</ele>
        <time>2016-05-18T14:19:26Z</time>
      </trkpt>
      <trkpt lat="43.36599" lon="6.14455">
        <ele>374.79998779297</ele>
        <time>2016-05-18T14:19:27Z</time>
      </trkpt>
      <trkpt lat="43.36596" lon="6.14459">
        <ele>375.20001220703</ele>
        <time>2016-05-18T14:19:29Z</time>
      </trkpt>
      <trkpt lat="43.36591" lon="6.14459">
        <ele>375.20001220703</ele>
        <time>2016-05-18T14:19:31Z</time>
      </trkpt>
      <trkpt lat="43.36586" lon="6.14454">
        <ele>375.20001220703</ele>
        <time>2016-05-18T14:19:33Z</time>
      </trkpt>
      <trkpt lat="43.36585" lon="6.1445">
        <ele>375.20001220703</ele>
        <time>2016-05-18T14:19:34Z</time>
      </trkpt>
      <trkpt lat="43.36585" lon="6.14447">
        <ele>375.20001220703</ele>
        <time>2016-05-18T14:19:35Z</time>
      </trkpt>
      <trkpt lat="43.36584" lon="6.14442">
        <ele>375.20001220703</ele>
        <time>2016-05-18T14:19:37Z</time>
      </trkpt>
      <trkpt lat="43.36584" lon="6.14439">
        <ele>375.20001220703</ele>
        <time>2016-05-18T14:19:38Z</time>
      </trkpt>
      <trkpt lat="43.36584" lon="6.14437">
        <ele>375.20001220703</ele>
        <time>2016-05-18T14:19:39Z</time>
      </trkpt>
      <trkpt lat="43.36584" lon="6.14433">
        <ele>375</ele>
        <time>2016-05-18T14:19:41Z</time>
      </trkpt>
      <trkpt lat="43.36584" lon="6.14429">
        <ele>375</ele>
        <time>2016-05-18T14:19:43Z</time>
      </trkpt>
      <trkpt lat="43.36584" lon="6.14424">
        <ele>375.39999389648</ele>
        <time>2016-05-18T14:19:45Z</time>
      </trkpt>
      <trkpt lat="43.36584" lon="6.14422">
        <ele>375.60000610352</ele>
        <time>2016-05-18T14:19:46Z</time>
      </trkpt>
      <trkpt lat="43.36583" lon="6.1442">
        <ele>375.79998779297</ele>
        <time>2016-05-18T14:19:47Z</time>
      </trkpt>
      <trkpt lat="43.36583" lon="6.14416">
        <ele>376.20001220703</ele>
        <time>2016-05-18T14:19:49Z</time>
      </trkpt>
      <trkpt lat="43.36582" lon="6.14412">
        <ele>376.39999389648</ele>
        <time>2016-05-18T14:19:51Z</time>
      </trkpt>
      <trkpt lat="43.36581" lon="6.14408">
        <ele>376.60000610352</ele>
        <time>2016-05-18T14:19:53Z</time>
      </trkpt>
      <trkpt lat="43.36581" lon="6.14406">
        <ele>376.79998779297</ele>
        <time>2016-05-18T14:19:54Z</time>
      </trkpt>
      <trkpt lat="43.36581" lon="6.14404">
        <ele>377</ele>
        <time>2016-05-18T14:19:55Z</time>
      </trkpt>
      <trkpt lat="43.3658" lon="6.144">
        <ele>377.60000610352</ele>
        <time>2016-05-18T14:19:57Z</time>
      </trkpt>
      <trkpt lat="43.36579" lon="6.14398">
        <ele>377.79998779297</ele>
        <time>2016-05-18T14:19:58Z</time>
      </trkpt>
      <trkpt lat="43.36577" lon="6.14396">
        <ele>378</ele>
        <time>2016-05-18T14:19:59Z</time>
      </trkpt>
      <trkpt lat="43.36576" lon="6.14395">
        <ele>378.20001220703</ele>
        <time>2016-05-18T14:20:00Z</time>
      </trkpt>
      <trkpt lat="43.36575" lon="6.14393">
        <ele>378.60000610352</ele>
        <time>2016-05-18T14:20:01Z</time>
      </trkpt>
      <trkpt lat="43.36572" lon="6.14392">
        <ele>379</ele>
        <time>2016-05-18T14:20:03Z</time>
      </trkpt>
      <trkpt lat="43.3657" lon="6.1439">
        <ele>379.39999389648</ele>
        <time>2016-05-18T14:20:05Z</time>
      </trkpt>
      <trkpt lat="43.36567" lon="6.14388">
        <ele>379.79998779297</ele>
        <time>2016-05-18T14:20:07Z</time>
      </trkpt>
      <trkpt lat="43.36566" lon="6.14387">
        <ele>379.79998779297</ele>
        <time>2016-05-18T14:20:08Z</time>
      </trkpt>
      <trkpt lat="43.36565" lon="6.14386">
        <ele>380</ele>
        <time>2016-05-18T14:20:09Z</time>
      </trkpt>
      <trkpt lat="43.36562" lon="6.14385">
        <ele>380.79998779297</ele>
        <time>2016-05-18T14:20:11Z</time>
      </trkpt>
      <trkpt lat="43.3656" lon="6.14384">
        <ele>381</ele>
        <time>2016-05-18T14:20:12Z</time>
      </trkpt>
      <trkpt lat="43.36559" lon="6.14384">
        <ele>381.39999389648</ele>
        <time>2016-05-18T14:20:13Z</time>
      </trkpt>
      <trkpt lat="43.36556" lon="6.14384">
        <ele>382</ele>
        <time>2016-05-18T14:20:15Z</time>
      </trkpt>
      <trkpt lat="43.36555" lon="6.14384">
        <ele>382.39999389648</ele>
        <time>2016-05-18T14:20:16Z</time>
      </trkpt>
      <trkpt lat="43.36553" lon="6.14383">
        <ele>382.60000610352</ele>
        <time>2016-05-18T14:20:17Z</time>
      </trkpt>
      <trkpt lat="43.36551" lon="6.14383">
        <ele>383</ele>
        <time>2016-05-18T14:20:19Z</time>
      </trkpt>
      <trkpt lat="43.36548" lon="6.14382">
        <ele>383.39999389648</ele>
        <time>2016-05-18T14:20:21Z</time>
      </trkpt>
      <trkpt lat="43.36546" lon="6.14381">
        <ele>384</ele>
        <time>2016-05-18T14:20:23Z</time>
      </trkpt>
      <trkpt lat="43.36543" lon="6.1438">
        <ele>384.20001220703</ele>
        <time>2016-05-18T14:20:25Z</time>
      </trkpt>
      <trkpt lat="43.36541" lon="6.14379">
        <ele>384.79998779297</ele>
        <time>2016-05-18T14:20:27Z</time>
      </trkpt>
      <trkpt lat="43.36538" lon="6.14379">
        <ele>385.20001220703</ele>
        <time>2016-05-18T14:20:29Z</time>
      </trkpt>
      <trkpt lat="43.36537" lon="6.14377">
        <ele>385.39999389648</ele>
        <time>2016-05-18T14:20:31Z</time>
      </trkpt>
      <trkpt lat="43.36536" lon="6.14376">
        <ele>385.79998779297</ele>
        <time>2016-05-18T14:20:32Z</time>
      </trkpt>
      <trkpt lat="43.36535" lon="6.14375">
        <ele>386.20001220703</ele>
        <time>2016-05-18T14:20:33Z</time>
      </trkpt>
      <trkpt lat="43.36533" lon="6.14374">
        <ele>386.60000610352</ele>
        <time>2016-05-18T14:20:35Z</time>
      </trkpt>
      <trkpt lat="43.36532" lon="6.14373">
        <ele>387</ele>
        <time>2016-05-18T14:20:37Z</time>
      </trkpt>
      <trkpt lat="43.36532" lon="6.14372">
        <ele>387</ele>
        <time>2016-05-18T14:20:39Z</time>
      </trkpt>
      <trkpt lat="43.36532" lon="6.14372">
        <ele>387.20001220703</ele>
        <time>2016-05-18T14:20:41Z</time>
      </trkpt>
      <trkpt lat="43.36532" lon="6.14372">
        <ele>387.20001220703</ele>
        <time>2016-05-18T14:20:43Z</time>
      </trkpt>
      <trkpt lat="43.36532" lon="6.14372">
        <ele>387.20001220703</ele>
        <time>2016-05-18T14:20:45Z</time>
      </trkpt>
      <trkpt lat="43.36532" lon="6.14372">
        <ele>387.20001220703</ele>
        <time>2016-05-18T14:20:47Z</time>
      </trkpt>
      <trkpt lat="43.36532" lon="6.14372">
        <ele>387.20001220703</ele>
        <time>2016-05-18T14:20:49Z</time>
      </trkpt>
      <trkpt lat="43.36532" lon="6.14372">
        <ele>387</ele>
        <time>2016-05-18T14:20:51Z</time>
      </trkpt>
      <trkpt lat="43.36532" lon="6.14372">
        <ele>386.79998779297</ele>
        <time>2016-05-18T14:20:53Z</time>
      </trkpt>
      <trkpt lat="43.36532" lon="6.14372">
        <ele>386.79998779297</ele>
        <time>2016-05-18T14:20:55Z</time>
      </trkpt>
      <trkpt lat="43.36532" lon="6.14372">
        <ele>386.60000610352</ele>
        <time>2016-05-18T14:20:57Z</time>
      </trkpt>
      <trkpt lat="43.36532" lon="6.14372">
        <ele>386.60000610352</ele>
        <time>2016-05-18T14:20:59Z</time>
      </trkpt>
      <trkpt lat="43.36532" lon="6.14372">
        <ele>386.60000610352</ele>
        <time>2016-05-18T14:21:01Z</time>
      </trkpt>
      <trkpt lat="43.36532" lon="6.14372">
        <ele>386.79998779297</ele>
        <time>2016-05-18T14:21:03Z</time>
      </trkpt>
      <trkpt lat="43.36532" lon="6.14372">
        <ele>386.79998779297</ele>
        <time>2016-05-18T14:21:05Z</time>
      </trkpt>
      <trkpt lat="43.36532" lon="6.14372">
        <ele>386.79998779297</ele>
        <time>2016-05-18T14:21:06Z</time>
      </trkpt>
      <trkpt lat="43.36532" lon="6.14372">
        <ele>386.60000610352</ele>
        <time>2016-05-18T14:21:08Z</time>
      </trkpt>
      <trkpt lat="43.36532" lon="6.14372">
        <ele>386.60000610352</ele>
        <time>2016-05-18T14:21:09Z</time>
      </trkpt>
      <trkpt lat="43.36532" lon="6.14372">
        <ele>386.60000610352</ele>
        <time>2016-05-18T14:21:11Z</time>
      </trkpt>
      <trkpt lat="43.36532" lon="6.14372">
        <ele>386.79998779297</ele>
        <time>2016-05-18T14:21:13Z</time>
      </trkpt>
      <trkpt lat="43.36532" lon="6.14372">
        <ele>387</ele>
        <time>2016-05-18T14:21:15Z</time>
      </trkpt>
      <trkpt lat="43.36532" lon="6.14372">
        <ele>387</ele>
        <time>2016-05-18T14:21:17Z</time>
      </trkpt>
      <trkpt lat="43.36532" lon="6.14372">
        <ele>386.79998779297</ele>
        <time>2016-05-18T14:21:18Z</time>
      </trkpt>
      <trkpt lat="43.36532" lon="6.14372">
        <ele>386.79998779297</ele>
        <time>2016-05-18T14:21:19Z</time>
      </trkpt>
      <trkpt lat="43.36532" lon="6.14372">
        <ele>386.60000610352</ele>
        <time>2016-05-18T14:21:21Z</time>
      </trkpt>
      <trkpt lat="43.36532" lon="6.14372">
        <ele>386.60000610352</ele>
        <time>2016-05-18T14:21:23Z</time>
      </trkpt>
      <trkpt lat="43.36532" lon="6.14372">
        <ele>386.60000610352</ele>
        <time>2016-05-18T14:21:25Z</time>
      </trkpt>
      <trkpt lat="43.36532" lon="6.14372">
        <ele>386.79998779297</ele>
        <time>2016-05-18T14:21:27Z</time>
      </trkpt>
      <trkpt lat="43.36532" lon="6.14372">
        <ele>386.79998779297</ele>
        <time>2016-05-18T14:21:29Z</time>
      </trkpt>
      <trkpt lat="43.36532" lon="6.14372">
        <ele>386.79998779297</ele>
        <time>2016-05-18T14:21:31Z</time>
      </trkpt>
      <trkpt lat="43.36532" lon="6.14372">
        <ele>387</ele>
        <time>2016-05-18T14:21:33Z</time>
      </trkpt>
      <trkpt lat="43.36532" lon="6.14372">
        <ele>387</ele>
        <time>2016-05-18T14:21:35Z</time>
      </trkpt>
      <trkpt lat="43.36532" lon="6.14372">
        <ele>387.20001220703</ele>
        <time>2016-05-18T14:21:37Z</time>
      </trkpt>
      <trkpt lat="43.36532" lon="6.14372">
        <ele>387</ele>
        <time>2016-05-18T14:21:39Z</time>
      </trkpt>
      <trkpt lat="43.36532" lon="6.14372">
        <ele>387</ele>
        <time>2016-05-18T14:21:41Z</time>
      </trkpt>
      <trkpt lat="43.36532" lon="6.14372">
        <ele>387</ele>
        <time>2016-05-18T14:21:43Z</time>
      </trkpt>
      <trkpt lat="43.36532" lon="6.14372">
        <ele>387</ele>
        <time>2016-05-18T14:21:45Z</time>
      </trkpt>
      <trkpt lat="43.36532" lon="6.14372">
        <ele>387</ele>
        <time>2016-05-18T14:21:47Z</time>
      </trkpt>
      <trkpt lat="43.36532" lon="6.14372">
        <ele>387.20001220703</ele>
        <time>2016-05-18T14:21:49Z</time>
      </trkpt>
      <trkpt lat="43.36532" lon="6.14372">
        <ele>387.39999389648</ele>
        <time>2016-05-18T14:21:51Z</time>
      </trkpt>
      <trkpt lat="43.36532" lon="6.14372">
        <ele>387.60000610352</ele>
        <time>2016-05-18T14:21:53Z</time>
      </trkpt>
      <trkpt lat="43.36532" lon="6.14372">
        <ele>387.79998779297</ele>
        <time>2016-05-18T14:21:55Z</time>
      </trkpt>
      <trkpt lat="43.36532" lon="6.14372">
        <ele>387.60000610352</ele>
        <time>2016-05-18T14:21:56Z</time>
      </trkpt>
      <trkpt lat="43.36532" lon="6.14372">
        <ele>387.60000610352</ele>
        <time>2016-05-18T14:21:57Z</time>
      </trkpt>
      <trkpt lat="43.36532" lon="6.14372">
        <ele>387.39999389648</ele>
        <time>2016-05-18T14:21:59Z</time>
      </trkpt>
      <trkpt lat="43.36532" lon="6.14372">
        <ele>387.39999389648</ele>
        <time>2016-05-18T14:22:01Z</time>
      </trkpt>
      <trkpt lat="43.36532" lon="6.14372">
        <ele>387.39999389648</ele>
        <time>2016-05-18T14:22:03Z</time>
      </trkpt>
      <trkpt lat="43.36532" lon="6.14372">
        <ele>387.39999389648</ele>
        <time>2016-05-18T14:22:05Z</time>
      </trkpt>
      <trkpt lat="43.36532" lon="6.14372">
        <ele>387.39999389648</ele>
        <time>2016-05-18T14:22:07Z</time>
      </trkpt>
      <trkpt lat="43.36532" lon="6.14372">
        <ele>387.39999389648</ele>
        <time>2016-05-18T14:22:09Z</time>
      </trkpt>
      <trkpt lat="43.36532" lon="6.14372">
        <ele>387.39999389648</ele>
        <time>2016-05-18T14:22:11Z</time>
      </trkpt>
      <trkpt lat="43.36532" lon="6.14372">
        <ele>387.39999389648</ele>
        <time>2016-05-18T14:22:13Z</time>
      </trkpt>
      <trkpt lat="43.36532" lon="6.14372">
        <ele>387.39999389648</ele>
        <time>2016-05-18T14:22:15Z</time>
      </trkpt>
      <trkpt lat="43.36532" lon="6.14372">
        <ele>387.60000610352</ele>
        <time>2016-05-18T14:22:17Z</time>
      </trkpt>
      <trkpt lat="43.36532" lon="6.14372">
        <ele>387.79998779297</ele>
        <time>2016-05-18T14:22:19Z</time>
      </trkpt>
      <trkpt lat="43.36532" lon="6.14372">
        <ele>387.79998779297</ele>
        <time>2016-05-18T14:22:21Z</time>
      </trkpt>
      <trkpt lat="43.36532" lon="6.14372">
        <ele>387.79998779297</ele>
        <time>2016-05-18T14:22:23Z</time>
      </trkpt>
      <trkpt lat="43.36532" lon="6.14372">
        <ele>387.60000610352</ele>
        <time>2016-05-18T14:22:25Z</time>
      </trkpt>
      <trkpt lat="43.36532" lon="6.14372">
        <ele>387.60000610352</ele>
        <time>2016-05-18T14:22:27Z</time>
      </trkpt>
      <trkpt lat="43.36532" lon="6.14372">
        <ele>387.39999389648</ele>
        <time>2016-05-18T14:22:29Z</time>
      </trkpt>
      <trkpt lat="43.36532" lon="6.14372">
        <ele>387.39999389648</ele>
        <time>2016-05-18T14:22:31Z</time>
      </trkpt>
      <trkpt lat="43.36532" lon="6.14372">
        <ele>387.39999389648</ele>
        <time>2016-05-18T14:22:33Z</time>
      </trkpt>
      <trkpt lat="43.36532" lon="6.14372">
        <ele>387.39999389648</ele>
        <time>2016-05-18T14:22:35Z</time>
      </trkpt>
      <trkpt lat="43.36532" lon="6.14372">
        <ele>387.39999389648</ele>
        <time>2016-05-18T14:22:37Z</time>
      </trkpt>
      <trkpt lat="43.36532" lon="6.14372">
        <ele>387.60000610352</ele>
        <time>2016-05-18T14:22:39Z</time>
      </trkpt>
      <trkpt lat="43.36532" lon="6.14372">
        <ele>387.39999389648</ele>
        <time>2016-05-18T14:22:41Z</time>
      </trkpt>
      <trkpt lat="43.36532" lon="6.14372">
        <ele>387.39999389648</ele>
        <time>2016-05-18T14:22:43Z</time>
      </trkpt>
      <trkpt lat="43.36532" lon="6.14372">
        <ele>387.39999389648</ele>
        <time>2016-05-18T14:22:45Z</time>
      </trkpt>
      <trkpt lat="43.36532" lon="6.14372">
        <ele>387.60000610352</ele>
        <time>2016-05-18T14:22:47Z</time>
      </trkpt>
      <trkpt lat="43.36532" lon="6.14372">
        <ele>387.79998779297</ele>
        <time>2016-05-18T14:22:49Z</time>
      </trkpt>
      <trkpt lat="43.36532" lon="6.14372">
        <ele>388</ele>
        <time>2016-05-18T14:22:51Z</time>
      </trkpt>
      <trkpt lat="43.36532" lon="6.14372">
        <ele>388</ele>
        <time>2016-05-18T14:22:53Z</time>
      </trkpt>
      <trkpt lat="43.36532" lon="6.14372">
        <ele>387.79998779297</ele>
        <time>2016-05-18T14:22:55Z</time>
      </trkpt>
      <trkpt lat="43.36532" lon="6.14372">
        <ele>387.79998779297</ele>
        <time>2016-05-18T14:22:57Z</time>
      </trkpt>
      <trkpt lat="43.36532" lon="6.14372">
        <ele>387.79998779297</ele>
        <time>2016-05-18T14:22:59Z</time>
      </trkpt>
      <trkpt lat="43.36532" lon="6.14372">
        <ele>387.79998779297</ele>
        <time>2016-05-18T14:23:01Z</time>
      </trkpt>
      <trkpt lat="43.36532" lon="6.14372">
        <ele>387.79998779297</ele>
        <time>2016-05-18T14:23:03Z</time>
      </trkpt>
      <trkpt lat="43.36532" lon="6.14372">
        <ele>387.79998779297</ele>
        <time>2016-05-18T14:23:05Z</time>
      </trkpt>
      <trkpt lat="43.36532" lon="6.14372">
        <ele>388</ele>
        <time>2016-05-18T14:23:06Z</time>
      </trkpt>
      <trkpt lat="43.36532" lon="6.14372">
        <ele>388</ele>
        <time>2016-05-18T14:23:07Z</time>
      </trkpt>
      <trkpt lat="43.36532" lon="6.14372">
        <ele>388.20001220703</ele>
        <time>2016-05-18T14:23:08Z</time>
      </trkpt>
      <trkpt lat="43.36532" lon="6.14372">
        <ele>388.20001220703</ele>
        <time>2016-05-18T14:23:09Z</time>
      </trkpt>
      <trkpt lat="43.36532" lon="6.14372">
        <ele>388.20001220703</ele>
        <time>2016-05-18T14:23:11Z</time>
      </trkpt>
      <trkpt lat="43.36532" lon="6.14372">
        <ele>388.20001220703</ele>
        <time>2016-05-18T14:23:13Z</time>
      </trkpt>
      <trkpt lat="43.36532" lon="6.14372">
        <ele>388</ele>
        <time>2016-05-18T14:23:15Z</time>
      </trkpt>
      <trkpt lat="43.36532" lon="6.14372">
        <ele>388</ele>
        <time>2016-05-18T14:23:17Z</time>
      </trkpt>
      <trkpt lat="43.36532" lon="6.14372">
        <ele>388</ele>
        <time>2016-05-18T14:23:19Z</time>
      </trkpt>
      <trkpt lat="43.36532" lon="6.14372">
        <ele>388</ele>
        <time>2016-05-18T14:23:21Z</time>
      </trkpt>
      <trkpt lat="43.36532" lon="6.14372">
        <ele>388.20001220703</ele>
        <time>2016-05-18T14:23:23Z</time>
      </trkpt>
      <trkpt lat="43.36532" lon="6.14372">
        <ele>388.20001220703</ele>
        <time>2016-05-18T14:23:25Z</time>
      </trkpt>
      <trkpt lat="43.36532" lon="6.14372">
        <ele>388.20001220703</ele>
        <time>2016-05-18T14:23:27Z</time>
      </trkpt>
      <trkpt lat="43.36532" lon="6.14371">
        <ele>388.20001220703</ele>
        <time>2016-05-18T14:23:28Z</time>
      </trkpt>
      <trkpt lat="43.36531" lon="6.14369">
        <ele>388.20001220703</ele>
        <time>2016-05-18T14:23:29Z</time>
      </trkpt>
      <trkpt lat="43.3653" lon="6.14365">
        <ele>388.20001220703</ele>
        <time>2016-05-18T14:23:31Z</time>
      </trkpt>
      <trkpt lat="43.36527" lon="6.1436">
        <ele>388</ele>
        <time>2016-05-18T14:23:33Z</time>
      </trkpt>
      <trkpt lat="43.36526" lon="6.14357">
        <ele>388</ele>
        <time>2016-05-18T14:23:34Z</time>
      </trkpt>
      <trkpt lat="43.36525" lon="6.14354">
        <ele>387.79998779297</ele>
        <time>2016-05-18T14:23:35Z</time>
      </trkpt>
      <trkpt lat="43.36524" lon="6.14347">
        <ele>388</ele>
        <time>2016-05-18T14:23:37Z</time>
      </trkpt>
      <trkpt lat="43.36524" lon="6.14339">
        <ele>388</ele>
        <time>2016-05-18T14:23:39Z</time>
      </trkpt>
      <trkpt lat="43.36525" lon="6.14331">
        <ele>388.20001220703</ele>
        <time>2016-05-18T14:23:41Z</time>
      </trkpt>
      <trkpt lat="43.36527" lon="6.14324">
        <ele>388</ele>
        <time>2016-05-18T14:23:43Z</time>
      </trkpt>
      <trkpt lat="43.36528" lon="6.1432">
        <ele>387.60000610352</ele>
        <time>2016-05-18T14:23:44Z</time>
      </trkpt>
      <trkpt lat="43.36528" lon="6.14316">
        <ele>387.60000610352</ele>
        <time>2016-05-18T14:23:45Z</time>
      </trkpt>
      <trkpt lat="43.36529" lon="6.14311">
        <ele>387.79998779297</ele>
        <time>2016-05-18T14:23:47Z</time>
      </trkpt>
      <trkpt lat="43.3653" lon="6.14309">
        <ele>387.79998779297</ele>
        <time>2016-05-18T14:23:48Z</time>
      </trkpt>
      <trkpt lat="43.36531" lon="6.14305">
        <ele>388.20001220703</ele>
        <time>2016-05-18T14:23:49Z</time>
      </trkpt>
      <trkpt lat="43.36533" lon="6.14298">
        <ele>388.39999389648</ele>
        <time>2016-05-18T14:23:51Z</time>
      </trkpt>
      <trkpt lat="43.36535" lon="6.14288">
        <ele>387.79998779297</ele>
        <time>2016-05-18T14:23:53Z</time>
      </trkpt>
      <trkpt lat="43.36538" lon="6.14278">
        <ele>387.60000610352</ele>
        <time>2016-05-18T14:23:55Z</time>
      </trkpt>
      <trkpt lat="43.36538" lon="6.14272">
        <ele>387.60000610352</ele>
        <time>2016-05-18T14:23:56Z</time>
      </trkpt>
      <trkpt lat="43.36539" lon="6.14266">
        <ele>387.39999389648</ele>
        <time>2016-05-18T14:23:57Z</time>
      </trkpt>
      <trkpt lat="43.36541" lon="6.14256">
        <ele>387.20001220703</ele>
        <time>2016-05-18T14:23:59Z</time>
      </trkpt>
      <trkpt lat="43.36542" lon="6.14252">
        <ele>386.79998779297</ele>
        <time>2016-05-18T14:24:00Z</time>
      </trkpt>
      <trkpt lat="43.36543" lon="6.14247">
        <ele>386.60000610352</ele>
        <time>2016-05-18T14:24:01Z</time>
      </trkpt>
      <trkpt lat="43.36543" lon="6.14237">
        <ele>386.20001220703</ele>
        <time>2016-05-18T14:24:03Z</time>
      </trkpt>
      <trkpt lat="43.36543" lon="6.14232">
        <ele>386</ele>
        <time>2016-05-18T14:24:04Z</time>
      </trkpt>
      <trkpt lat="43.36544" lon="6.14226">
        <ele>385.79998779297</ele>
        <time>2016-05-18T14:24:05Z</time>
      </trkpt>
      <trkpt lat="43.36545" lon="6.14216">
        <ele>385.60000610352</ele>
        <time>2016-05-18T14:24:07Z</time>
      </trkpt>
      <trkpt lat="43.36546" lon="6.14206">
        <ele>385</ele>
        <time>2016-05-18T14:24:09Z</time>
      </trkpt>
      <trkpt lat="43.36546" lon="6.14201">
        <ele>384.79998779297</ele>
        <time>2016-05-18T14:24:10Z</time>
      </trkpt>
      <trkpt lat="43.36546" lon="6.14197">
        <ele>384.79998779297</ele>
        <time>2016-05-18T14:24:11Z</time>
      </trkpt>
      <trkpt lat="43.36546" lon="6.14188">
        <ele>384.60000610352</ele>
        <time>2016-05-18T14:24:13Z</time>
      </trkpt>
      <trkpt lat="43.36544" lon="6.14179">
        <ele>384.79998779297</ele>
        <time>2016-05-18T14:24:15Z</time>
      </trkpt>
      <trkpt lat="43.36543" lon="6.14174">
        <ele>384.79998779297</ele>
        <time>2016-05-18T14:24:16Z</time>
      </trkpt>
      <trkpt lat="43.36542" lon="6.1417">
        <ele>384.79998779297</ele>
        <time>2016-05-18T14:24:17Z</time>
      </trkpt>
      <trkpt lat="43.3654" lon="6.14161">
        <ele>384.39999389648</ele>
        <time>2016-05-18T14:24:19Z</time>
      </trkpt>
      <trkpt lat="43.36539" lon="6.14152">
        <ele>383.60000610352</ele>
        <time>2016-05-18T14:24:21Z</time>
      </trkpt>
      <trkpt lat="43.36538" lon="6.14147">
        <ele>383.60000610352</ele>
        <time>2016-05-18T14:24:22Z</time>
      </trkpt>
      <trkpt lat="43.36537" lon="6.14143">
        <ele>383.39999389648</ele>
        <time>2016-05-18T14:24:23Z</time>
      </trkpt>
      <trkpt lat="43.36536" lon="6.14135">
        <ele>382.60000610352</ele>
        <time>2016-05-18T14:24:25Z</time>
      </trkpt>
      <trkpt lat="43.36534" lon="6.14128">
        <ele>382.20001220703</ele>
        <time>2016-05-18T14:24:27Z</time>
      </trkpt>
      <trkpt lat="43.36533" lon="6.1412">
        <ele>381.79998779297</ele>
        <time>2016-05-18T14:24:29Z</time>
      </trkpt>
      <trkpt lat="43.36531" lon="6.14116">
        <ele>381.60000610352</ele>
        <time>2016-05-18T14:24:30Z</time>
      </trkpt>
      <trkpt lat="43.3653" lon="6.14112">
        <ele>381.39999389648</ele>
        <time>2016-05-18T14:24:31Z</time>
      </trkpt>
      <trkpt lat="43.36528" lon="6.14104">
        <ele>380.79998779297</ele>
        <time>2016-05-18T14:24:33Z</time>
      </trkpt>
      <trkpt lat="43.36527" lon="6.14095">
        <ele>379.79998779297</ele>
        <time>2016-05-18T14:24:35Z</time>
      </trkpt>
      <trkpt lat="43.36526" lon="6.14091">
        <ele>379.20001220703</ele>
        <time>2016-05-18T14:24:36Z</time>
      </trkpt>
      <trkpt lat="43.36526" lon="6.14088">
        <ele>378.79998779297</ele>
        <time>2016-05-18T14:24:37Z</time>
      </trkpt>
      <trkpt lat="43.36527" lon="6.14085">
        <ele>378.39999389648</ele>
        <time>2016-05-18T14:24:38Z</time>
      </trkpt>
      <trkpt lat="43.36526" lon="6.14081">
        <ele>378.20001220703</ele>
        <time>2016-05-18T14:24:39Z</time>
      </trkpt>
      <trkpt lat="43.36526" lon="6.14074">
        <ele>377.20001220703</ele>
        <time>2016-05-18T14:24:41Z</time>
      </trkpt>
      <trkpt lat="43.36526" lon="6.14066">
        <ele>377</ele>
        <time>2016-05-18T14:24:43Z</time>
      </trkpt>
      <trkpt lat="43.36528" lon="6.14057">
        <ele>376.60000610352</ele>
        <time>2016-05-18T14:24:45Z</time>
      </trkpt>
      <trkpt lat="43.36528" lon="6.14052">
        <ele>376.60000610352</ele>
        <time>2016-05-18T14:24:46Z</time>
      </trkpt>
      <trkpt lat="43.36529" lon="6.14047">
        <ele>376.20001220703</ele>
        <time>2016-05-18T14:24:47Z</time>
      </trkpt>
      <trkpt lat="43.36531" lon="6.14036">
        <ele>375.79998779297</ele>
        <time>2016-05-18T14:24:49Z</time>
      </trkpt>
      <trkpt lat="43.36532" lon="6.14024">
        <ele>375.60000610352</ele>
        <time>2016-05-18T14:24:51Z</time>
      </trkpt>
      <trkpt lat="43.36533" lon="6.14019">
        <ele>375.60000610352</ele>
        <time>2016-05-18T14:24:52Z</time>
      </trkpt>
      <trkpt lat="43.36533" lon="6.14013">
        <ele>375.60000610352</ele>
        <time>2016-05-18T14:24:53Z</time>
      </trkpt>
      <trkpt lat="43.36535" lon="6.14">
        <ele>375.79998779297</ele>
        <time>2016-05-18T14:24:55Z</time>
      </trkpt>
      <trkpt lat="43.36535" lon="6.13994">
        <ele>375.60000610352</ele>
        <time>2016-05-18T14:24:56Z</time>
      </trkpt>
      <trkpt lat="43.36534" lon="6.13988">
        <ele>375.20001220703</ele>
        <time>2016-05-18T14:24:57Z</time>
      </trkpt>
      <trkpt lat="43.36533" lon="6.13981">
        <ele>375</ele>
        <time>2016-05-18T14:24:58Z</time>
      </trkpt>
      <trkpt lat="43.36532" lon="6.13974">
        <ele>374.79998779297</ele>
        <time>2016-05-18T14:24:59Z</time>
      </trkpt>
      <trkpt lat="43.3653" lon="6.1396">
        <ele>374.60000610352</ele>
        <time>2016-05-18T14:25:01Z</time>
      </trkpt>
      <trkpt lat="43.36528" lon="6.13945">
        <ele>374.39999389648</ele>
        <time>2016-05-18T14:25:03Z</time>
      </trkpt>
      <trkpt lat="43.36529" lon="6.13937">
        <ele>374</ele>
        <time>2016-05-18T14:25:04Z</time>
      </trkpt>
      <trkpt lat="43.36529" lon="6.13929">
        <ele>374</ele>
        <time>2016-05-18T14:25:05Z</time>
      </trkpt>
      <trkpt lat="43.3653" lon="6.13921">
        <ele>373.79998779297</ele>
        <time>2016-05-18T14:25:06Z</time>
      </trkpt>
      <trkpt lat="43.3653" lon="6.13912">
        <ele>373.60000610352</ele>
        <time>2016-05-18T14:25:07Z</time>
      </trkpt>
      <trkpt lat="43.36533" lon="6.13896">
        <ele>372.79998779297</ele>
        <time>2016-05-18T14:25:09Z</time>
      </trkpt>
      <trkpt lat="43.36534" lon="6.13888">
        <ele>372.39999389648</ele>
        <time>2016-05-18T14:25:10Z</time>
      </trkpt>
      <trkpt lat="43.36535" lon="6.1388">
        <ele>371.39999389648</ele>
        <time>2016-05-18T14:25:11Z</time>
      </trkpt>
      <trkpt lat="43.36536" lon="6.13871">
        <ele>371.39999389648</ele>
        <time>2016-05-18T14:25:12Z</time>
      </trkpt>
      <trkpt lat="43.36536" lon="6.13863">
        <ele>371</ele>
        <time>2016-05-18T14:25:13Z</time>
      </trkpt>
      <trkpt lat="43.36538" lon="6.13844">
        <ele>370.39999389648</ele>
        <time>2016-05-18T14:25:15Z</time>
      </trkpt>
      <trkpt lat="43.36539" lon="6.13835">
        <ele>370.20001220703</ele>
        <time>2016-05-18T14:25:16Z</time>
      </trkpt>
      <trkpt lat="43.3654" lon="6.13825">
        <ele>370.20001220703</ele>
        <time>2016-05-18T14:25:17Z</time>
      </trkpt>
      <trkpt lat="43.36543" lon="6.13807">
        <ele>370</ele>
        <time>2016-05-18T14:25:19Z</time>
      </trkpt>
      <trkpt lat="43.36545" lon="6.13799">
        <ele>369.79998779297</ele>
        <time>2016-05-18T14:25:20Z</time>
      </trkpt>
      <trkpt lat="43.36547" lon="6.1379">
        <ele>369.60000610352</ele>
        <time>2016-05-18T14:25:21Z</time>
      </trkpt>
      <trkpt lat="43.36551" lon="6.13771">
        <ele>368.79998779297</ele>
        <time>2016-05-18T14:25:23Z</time>
      </trkpt>
      <trkpt lat="43.36551" lon="6.13762">
        <ele>367.79998779297</ele>
        <time>2016-05-18T14:25:24Z</time>
      </trkpt>
      <trkpt lat="43.36552" lon="6.13752">
        <ele>367</ele>
        <time>2016-05-18T14:25:25Z</time>
      </trkpt>
      <trkpt lat="43.36555" lon="6.13731">
        <ele>366.39999389648</ele>
        <time>2016-05-18T14:25:27Z</time>
      </trkpt>
      <trkpt lat="43.36556" lon="6.1372">
        <ele>365.79998779297</ele>
        <time>2016-05-18T14:25:28Z</time>
      </trkpt>
      <trkpt lat="43.36558" lon="6.1371">
        <ele>365.39999389648</ele>
        <time>2016-05-18T14:25:29Z</time>
      </trkpt>
      <trkpt lat="43.36559" lon="6.13701">
        <ele>365</ele>
        <time>2016-05-18T14:25:30Z</time>
      </trkpt>
      <trkpt lat="43.36561" lon="6.13691">
        <ele>364.60000610352</ele>
        <time>2016-05-18T14:25:31Z</time>
      </trkpt>
      <trkpt lat="43.36564" lon="6.13672">
        <ele>363.79998779297</ele>
        <time>2016-05-18T14:25:33Z</time>
      </trkpt>
      <trkpt lat="43.36565" lon="6.13663">
        <ele>363.39999389648</ele>
        <time>2016-05-18T14:25:34Z</time>
      </trkpt>
      <trkpt lat="43.36567" lon="6.13653">
        <ele>362.79998779297</ele>
        <time>2016-05-18T14:25:35Z</time>
      </trkpt>
      <trkpt lat="43.36568" lon="6.13643">
        <ele>362.39999389648</ele>
        <time>2016-05-18T14:25:36Z</time>
      </trkpt>
      <trkpt lat="43.3657" lon="6.13635">
        <ele>361.60000610352</ele>
        <time>2016-05-18T14:25:37Z</time>
      </trkpt>
      <trkpt lat="43.36574" lon="6.13619">
        <ele>360.60000610352</ele>
        <time>2016-05-18T14:25:39Z</time>
      </trkpt>
      <trkpt lat="43.36578" lon="6.13604">
        <ele>359.79998779297</ele>
        <time>2016-05-18T14:25:41Z</time>
      </trkpt>
      <trkpt lat="43.3658" lon="6.13597">
        <ele>359.39999389648</ele>
        <time>2016-05-18T14:25:42Z</time>
      </trkpt>
      <trkpt lat="43.36581" lon="6.13591">
        <ele>359.20001220703</ele>
        <time>2016-05-18T14:25:43Z</time>
      </trkpt>
      <trkpt lat="43.36584" lon="6.13579">
        <ele>358.79998779297</ele>
        <time>2016-05-18T14:25:45Z</time>
      </trkpt>
      <trkpt lat="43.36585" lon="6.13574">
        <ele>358.79998779297</ele>
        <time>2016-05-18T14:25:46Z</time>
      </trkpt>
      <trkpt lat="43.36586" lon="6.13569">
        <ele>358.20001220703</ele>
        <time>2016-05-18T14:25:47Z</time>
      </trkpt>
      <trkpt lat="43.36586" lon="6.13564">
        <ele>357.79998779297</ele>
        <time>2016-05-18T14:25:48Z</time>
      </trkpt>
      <trkpt lat="43.36587" lon="6.13561">
        <ele>357.60000610352</ele>
        <time>2016-05-18T14:25:49Z</time>
      </trkpt>
      <trkpt lat="43.36588" lon="6.13559">
        <ele>357.20001220703</ele>
        <time>2016-05-18T14:25:50Z</time>
      </trkpt>
      <trkpt lat="43.36588" lon="6.13559">
        <ele>357</ele>
        <time>2016-05-18T14:25:51Z</time>
      </trkpt>
      <trkpt lat="43.36588" lon="6.13558">
        <ele>356.60000610352</ele>
        <time>2016-05-18T14:25:53Z</time>
      </trkpt>
      <trkpt lat="43.36588" lon="6.13558">
        <ele>356.39999389648</ele>
        <time>2016-05-18T14:25:55Z</time>
      </trkpt>
      <trkpt lat="43.36588" lon="6.13558">
        <ele>356.39999389648</ele>
        <time>2016-05-18T14:25:57Z</time>
      </trkpt>
      <trkpt lat="43.36588" lon="6.13558">
        <ele>356.20001220703</ele>
        <time>2016-05-18T14:25:58Z</time>
      </trkpt>
      <trkpt lat="43.36588" lon="6.13558">
        <ele>356</ele>
        <time>2016-05-18T14:26:01Z</time>
      </trkpt>
      <trkpt lat="43.36588" lon="6.13558">
        <ele>356</ele>
        <time>2016-05-18T14:26:02Z</time>
      </trkpt>
      <trkpt lat="43.36588" lon="6.13558">
        <ele>355.79998779297</ele>
        <time>2016-05-18T14:26:03Z</time>
      </trkpt>
      <trkpt lat="43.36588" lon="6.13558">
        <ele>355.60000610352</ele>
        <time>2016-05-18T14:26:05Z</time>
      </trkpt>
      <trkpt lat="43.36588" lon="6.13558">
        <ele>355.60000610352</ele>
        <time>2016-05-18T14:26:07Z</time>
      </trkpt>
      <trkpt lat="43.36588" lon="6.13558">
        <ele>355.60000610352</ele>
        <time>2016-05-18T14:26:09Z</time>
      </trkpt>
      <trkpt lat="43.36588" lon="6.13558">
        <ele>355.60000610352</ele>
        <time>2016-05-18T14:26:11Z</time>
      </trkpt>
      <trkpt lat="43.36588" lon="6.13558">
        <ele>355.60000610352</ele>
        <time>2016-05-18T14:26:12Z</time>
      </trkpt>
      <trkpt lat="43.36588" lon="6.13558">
        <ele>355.60000610352</ele>
        <time>2016-05-18T14:26:13Z</time>
      </trkpt>
      <trkpt lat="43.36588" lon="6.13558">
        <ele>355.60000610352</ele>
        <time>2016-05-18T14:26:15Z</time>
      </trkpt>
      <trkpt lat="43.36588" lon="6.13558">
        <ele>355.60000610352</ele>
        <time>2016-05-18T14:26:17Z</time>
      </trkpt>
      <trkpt lat="43.36588" lon="6.13558">
        <ele>355.60000610352</ele>
        <time>2016-05-18T14:26:19Z</time>
      </trkpt>
      <trkpt lat="43.36588" lon="6.13558">
        <ele>355.79998779297</ele>
        <time>2016-05-18T14:26:20Z</time>
      </trkpt>
      <trkpt lat="43.36588" lon="6.13558">
        <ele>355.79998779297</ele>
        <time>2016-05-18T14:26:21Z</time>
      </trkpt>
      <trkpt lat="43.36588" lon="6.13558">
        <ele>356</ele>
        <time>2016-05-18T14:26:23Z</time>
      </trkpt>
      <trkpt lat="43.36588" lon="6.13558">
        <ele>356.20001220703</ele>
        <time>2016-05-18T14:26:25Z</time>
      </trkpt>
      <trkpt lat="43.36588" lon="6.13558">
        <ele>356.20001220703</ele>
        <time>2016-05-18T14:26:27Z</time>
      </trkpt>
      <trkpt lat="43.36589" lon="6.13558">
        <ele>356.39999389648</ele>
        <time>2016-05-18T14:26:29Z</time>
      </trkpt>
      <trkpt lat="43.3659" lon="6.13557">
        <ele>356.39999389648</ele>
        <time>2016-05-18T14:26:31Z</time>
      </trkpt>
      <trkpt lat="43.36591" lon="6.13556">
        <ele>356.39999389648</ele>
        <time>2016-05-18T14:26:33Z</time>
      </trkpt>
      <trkpt lat="43.36591" lon="6.13557">
        <ele>356.60000610352</ele>
        <time>2016-05-18T14:26:34Z</time>
      </trkpt>
      <trkpt lat="43.36591" lon="6.13557">
        <ele>356.60000610352</ele>
        <time>2016-05-18T14:26:35Z</time>
      </trkpt>
      <trkpt lat="43.36591" lon="6.13557">
        <ele>356.60000610352</ele>
        <time>2016-05-18T14:26:36Z</time>
      </trkpt>
      <trkpt lat="43.36591" lon="6.13557">
        <ele>356.60000610352</ele>
        <time>2016-05-18T14:26:37Z</time>
      </trkpt>
      <trkpt lat="43.36591" lon="6.13557">
        <ele>356.39999389648</ele>
        <time>2016-05-18T14:26:39Z</time>
      </trkpt>
      <trkpt lat="43.36591" lon="6.13557">
        <ele>356</ele>
        <time>2016-05-18T14:26:41Z</time>
      </trkpt>
      <trkpt lat="43.36591" lon="6.13557">
        <ele>355.79998779297</ele>
        <time>2016-05-18T14:26:43Z</time>
      </trkpt>
      <trkpt lat="43.36591" lon="6.13557">
        <ele>356</ele>
        <time>2016-05-18T14:26:45Z</time>
      </trkpt>
      <trkpt lat="43.36591" lon="6.13557">
        <ele>356</ele>
        <time>2016-05-18T14:26:47Z</time>
      </trkpt>
      <trkpt lat="43.36591" lon="6.13557">
        <ele>355.79998779297</ele>
        <time>2016-05-18T14:26:49Z</time>
      </trkpt>
      <trkpt lat="43.36591" lon="6.13557">
        <ele>355.79998779297</ele>
        <time>2016-05-18T14:26:51Z</time>
      </trkpt>
      <trkpt lat="43.36591" lon="6.13557">
        <ele>356</ele>
        <time>2016-05-18T14:26:53Z</time>
      </trkpt>
      <trkpt lat="43.36591" lon="6.13557">
        <ele>356</ele>
        <time>2016-05-18T14:26:55Z</time>
      </trkpt>
      <trkpt lat="43.36591" lon="6.13557">
        <ele>356.20001220703</ele>
        <time>2016-05-18T14:26:57Z</time>
      </trkpt>
      <trkpt lat="43.36591" lon="6.13557">
        <ele>356.39999389648</ele>
        <time>2016-05-18T14:26:59Z</time>
      </trkpt>
      <trkpt lat="43.36591" lon="6.13557">
        <ele>356.39999389648</ele>
        <time>2016-05-18T14:27:01Z</time>
      </trkpt>
      <trkpt lat="43.36591" lon="6.13557">
        <ele>356.39999389648</ele>
        <time>2016-05-18T14:27:03Z</time>
      </trkpt>
      <trkpt lat="43.36591" lon="6.13557">
        <ele>356.39999389648</ele>
        <time>2016-05-18T14:27:05Z</time>
      </trkpt>
      <trkpt lat="43.36591" lon="6.13557">
        <ele>356.20001220703</ele>
        <time>2016-05-18T14:27:07Z</time>
      </trkpt>
      <trkpt lat="43.36591" lon="6.13557">
        <ele>356.20001220703</ele>
        <time>2016-05-18T14:27:09Z</time>
      </trkpt>
      <trkpt lat="43.36591" lon="6.13557">
        <ele>356.20001220703</ele>
        <time>2016-05-18T14:27:11Z</time>
      </trkpt>
      <trkpt lat="43.36591" lon="6.13557">
        <ele>356.20001220703</ele>
        <time>2016-05-18T14:27:13Z</time>
      </trkpt>
      <trkpt lat="43.36591" lon="6.13557">
        <ele>356.20001220703</ele>
        <time>2016-05-18T14:27:15Z</time>
      </trkpt>
      <trkpt lat="43.36591" lon="6.13557">
        <ele>356.20001220703</ele>
        <time>2016-05-18T14:27:17Z</time>
      </trkpt>
      <trkpt lat="43.36591" lon="6.13557">
        <ele>356.20001220703</ele>
        <time>2016-05-18T14:27:19Z</time>
      </trkpt>
      <trkpt lat="43.36591" lon="6.13557">
        <ele>356</ele>
        <time>2016-05-18T14:27:21Z</time>
      </trkpt>
      <trkpt lat="43.36591" lon="6.13557">
        <ele>356</ele>
        <time>2016-05-18T14:27:23Z</time>
      </trkpt>
      <trkpt lat="43.36591" lon="6.13557">
        <ele>356.20001220703</ele>
        <time>2016-05-18T14:27:25Z</time>
      </trkpt>
      <trkpt lat="43.36591" lon="6.13557">
        <ele>356.39999389648</ele>
        <time>2016-05-18T14:27:27Z</time>
      </trkpt>
      <trkpt lat="43.36591" lon="6.13557">
        <ele>356.39999389648</ele>
        <time>2016-05-18T14:27:28Z</time>
      </trkpt>
      <trkpt lat="43.36591" lon="6.13557">
        <ele>356.60000610352</ele>
        <time>2016-05-18T14:27:29Z</time>
      </trkpt>
      <trkpt lat="43.36591" lon="6.13557">
        <ele>356.60000610352</ele>
        <time>2016-05-18T14:27:31Z</time>
      </trkpt>
      <trkpt lat="43.36591" lon="6.13557">
        <ele>356.60000610352</ele>
        <time>2016-05-18T14:27:33Z</time>
      </trkpt>
      <trkpt lat="43.36591" lon="6.13557">
        <ele>356.79998779297</ele>
        <time>2016-05-18T14:27:35Z</time>
      </trkpt>
      <trkpt lat="43.36591" lon="6.13557">
        <ele>356.79998779297</ele>
        <time>2016-05-18T14:27:37Z</time>
      </trkpt>
      <trkpt lat="43.36591" lon="6.13557">
        <ele>356.79998779297</ele>
        <time>2016-05-18T14:27:39Z</time>
      </trkpt>
      <trkpt lat="43.36591" lon="6.13557">
        <ele>356.79998779297</ele>
        <time>2016-05-18T14:27:40Z</time>
      </trkpt>
      <trkpt lat="43.36591" lon="6.13557">
        <ele>356.79998779297</ele>
        <time>2016-05-18T14:27:41Z</time>
      </trkpt>
      <trkpt lat="43.36591" lon="6.13557">
        <ele>356.79998779297</ele>
        <time>2016-05-18T14:27:43Z</time>
      </trkpt>
      <trkpt lat="43.36591" lon="6.13557">
        <ele>356.79998779297</ele>
        <time>2016-05-18T14:27:45Z</time>
      </trkpt>
      <trkpt lat="43.36591" lon="6.13557">
        <ele>356.60000610352</ele>
        <time>2016-05-18T14:27:47Z</time>
      </trkpt>
      <trkpt lat="43.36591" lon="6.13557">
        <ele>356.60000610352</ele>
        <time>2016-05-18T14:27:49Z</time>
      </trkpt>
      <trkpt lat="43.36591" lon="6.13557">
        <ele>356.79998779297</ele>
        <time>2016-05-18T14:27:51Z</time>
      </trkpt>
      <trkpt lat="43.36591" lon="6.13557">
        <ele>356.79998779297</ele>
        <time>2016-05-18T14:27:53Z</time>
      </trkpt>
      <trkpt lat="43.36591" lon="6.13557">
        <ele>356.79998779297</ele>
        <time>2016-05-18T14:27:55Z</time>
      </trkpt>
      <trkpt lat="43.36591" lon="6.13557">
        <ele>356.79998779297</ele>
        <time>2016-05-18T14:27:57Z</time>
      </trkpt>
      <trkpt lat="43.36591" lon="6.13557">
        <ele>356.79998779297</ele>
        <time>2016-05-18T14:27:59Z</time>
      </trkpt>
      <trkpt lat="43.36591" lon="6.13557">
        <ele>356.60000610352</ele>
        <time>2016-05-18T14:28:01Z</time>
      </trkpt>
      <trkpt lat="43.36591" lon="6.13557">
        <ele>356.60000610352</ele>
        <time>2016-05-18T14:28:03Z</time>
      </trkpt>
      <trkpt lat="43.36591" lon="6.13557">
        <ele>356.60000610352</ele>
        <time>2016-05-18T14:28:05Z</time>
      </trkpt>
      <trkpt lat="43.36591" lon="6.13557">
        <ele>356.60000610352</ele>
        <time>2016-05-18T14:28:07Z</time>
      </trkpt>
      <trkpt lat="43.36591" lon="6.13557">
        <ele>356.79998779297</ele>
        <time>2016-05-18T14:28:09Z</time>
      </trkpt>
      <trkpt lat="43.36591" lon="6.13557">
        <ele>356.79998779297</ele>
        <time>2016-05-18T14:28:11Z</time>
      </trkpt>
      <trkpt lat="43.36591" lon="6.13557">
        <ele>356.79998779297</ele>
        <time>2016-05-18T14:28:13Z</time>
      </trkpt>
      <trkpt lat="43.36591" lon="6.13557">
        <ele>356.60000610352</ele>
        <time>2016-05-18T14:28:15Z</time>
      </trkpt>
      <trkpt lat="43.36591" lon="6.13557">
        <ele>356.60000610352</ele>
        <time>2016-05-18T14:28:17Z</time>
      </trkpt>
      <trkpt lat="43.36591" lon="6.13557">
        <ele>356.60000610352</ele>
        <time>2016-05-18T14:28:19Z</time>
      </trkpt>
      <trkpt lat="43.36591" lon="6.13557">
        <ele>356.60000610352</ele>
        <time>2016-05-18T14:28:21Z</time>
      </trkpt>
      <trkpt lat="43.36591" lon="6.13557">
        <ele>356.79998779297</ele>
        <time>2016-05-18T14:28:23Z</time>
      </trkpt>
      <trkpt lat="43.36591" lon="6.13557">
        <ele>357</ele>
        <time>2016-05-18T14:28:25Z</time>
      </trkpt>
      <trkpt lat="43.36591" lon="6.13557">
        <ele>357</ele>
        <time>2016-05-18T14:28:27Z</time>
      </trkpt>
      <trkpt lat="43.36591" lon="6.13557">
        <ele>357</ele>
        <time>2016-05-18T14:28:28Z</time>
      </trkpt>
      <trkpt lat="43.36591" lon="6.13557">
        <ele>356.79998779297</ele>
        <time>2016-05-18T14:28:29Z</time>
      </trkpt>
      <trkpt lat="43.36591" lon="6.13557">
        <ele>356.79998779297</ele>
        <time>2016-05-18T14:28:31Z</time>
      </trkpt>
      <trkpt lat="43.36591" lon="6.13557">
        <ele>356.79998779297</ele>
        <time>2016-05-18T14:28:33Z</time>
      </trkpt>
      <trkpt lat="43.36591" lon="6.13557">
        <ele>356.79998779297</ele>
        <time>2016-05-18T14:28:35Z</time>
      </trkpt>
      <trkpt lat="43.36591" lon="6.13557">
        <ele>356.79998779297</ele>
        <time>2016-05-18T14:28:37Z</time>
      </trkpt>
      <trkpt lat="43.36591" lon="6.13557">
        <ele>357</ele>
        <time>2016-05-18T14:28:39Z</time>
      </trkpt>
      <trkpt lat="43.36591" lon="6.13557">
        <ele>357.20001220703</ele>
        <time>2016-05-18T14:28:40Z</time>
      </trkpt>
      <trkpt lat="43.36591" lon="6.13557">
        <ele>357</ele>
        <time>2016-05-18T14:28:41Z</time>
      </trkpt>
      <trkpt lat="43.36591" lon="6.13557">
        <ele>357</ele>
        <time>2016-05-18T14:28:43Z</time>
      </trkpt>
      <trkpt lat="43.36591" lon="6.13557">
        <ele>357</ele>
        <time>2016-05-18T14:28:45Z</time>
      </trkpt>
      <trkpt lat="43.36591" lon="6.13557">
        <ele>357</ele>
        <time>2016-05-18T14:28:47Z</time>
      </trkpt>
      <trkpt lat="43.36591" lon="6.13557">
        <ele>357</ele>
        <time>2016-05-18T14:28:49Z</time>
      </trkpt>
      <trkpt lat="43.36591" lon="6.13557">
        <ele>357</ele>
        <time>2016-05-18T14:28:51Z</time>
      </trkpt>
      <trkpt lat="43.36591" lon="6.13557">
        <ele>357</ele>
        <time>2016-05-18T14:28:53Z</time>
      </trkpt>
      <trkpt lat="43.36591" lon="6.13557">
        <ele>357</ele>
        <time>2016-05-18T14:28:55Z</time>
      </trkpt>
      <trkpt lat="43.36591" lon="6.13557">
        <ele>357</ele>
        <time>2016-05-18T14:28:57Z</time>
      </trkpt>
      <trkpt lat="43.36591" lon="6.13557">
        <ele>357.20001220703</ele>
        <time>2016-05-18T14:28:59Z</time>
      </trkpt>
      <trkpt lat="43.36591" lon="6.13557">
        <ele>357.39999389648</ele>
        <time>2016-05-18T14:29:01Z</time>
      </trkpt>
      <trkpt lat="43.36591" lon="6.13557">
        <ele>357.39999389648</ele>
        <time>2016-05-18T14:29:03Z</time>
      </trkpt>
      <trkpt lat="43.36591" lon="6.13557">
        <ele>357.39999389648</ele>
        <time>2016-05-18T14:29:05Z</time>
      </trkpt>
      <trkpt lat="43.36591" lon="6.13557">
        <ele>357.39999389648</ele>
        <time>2016-05-18T14:29:07Z</time>
      </trkpt>
      <trkpt lat="43.36591" lon="6.13557">
        <ele>357.39999389648</ele>
        <time>2016-05-18T14:29:09Z</time>
      </trkpt>
      <trkpt lat="43.36591" lon="6.13557">
        <ele>357.39999389648</ele>
        <time>2016-05-18T14:29:11Z</time>
      </trkpt>
      <trkpt lat="43.36591" lon="6.13557">
        <ele>357.39999389648</ele>
        <time>2016-05-18T14:29:13Z</time>
      </trkpt>
      <trkpt lat="43.36591" lon="6.13557">
        <ele>357.39999389648</ele>
        <time>2016-05-18T14:29:15Z</time>
      </trkpt>
      <trkpt lat="43.36591" lon="6.13557">
        <ele>357.60000610352</ele>
        <time>2016-05-18T14:29:17Z</time>
      </trkpt>
      <trkpt lat="43.36591" lon="6.13557">
        <ele>357.39999389648</ele>
        <time>2016-05-18T14:29:19Z</time>
      </trkpt>
      <trkpt lat="43.36591" lon="6.13557">
        <ele>357.39999389648</ele>
        <time>2016-05-18T14:29:21Z</time>
      </trkpt>
      <trkpt lat="43.36591" lon="6.13557">
        <ele>357.39999389648</ele>
        <time>2016-05-18T14:29:23Z</time>
      </trkpt>
      <trkpt lat="43.36591" lon="6.13557">
        <ele>357.20001220703</ele>
        <time>2016-05-18T14:29:25Z</time>
      </trkpt>
      <trkpt lat="43.36591" lon="6.13557">
        <ele>357.20001220703</ele>
        <time>2016-05-18T14:29:27Z</time>
      </trkpt>
      <trkpt lat="43.36591" lon="6.13557">
        <ele>357.20001220703</ele>
        <time>2016-05-18T14:29:29Z</time>
      </trkpt>
      <trkpt lat="43.36591" lon="6.13557">
        <ele>357.39999389648</ele>
        <time>2016-05-18T14:29:31Z</time>
      </trkpt>
      <trkpt lat="43.36591" lon="6.13557">
        <ele>357.39999389648</ele>
        <time>2016-05-18T14:29:33Z</time>
      </trkpt>
      <trkpt lat="43.36591" lon="6.13557">
        <ele>357.39999389648</ele>
        <time>2016-05-18T14:29:35Z</time>
      </trkpt>
      <trkpt lat="43.36591" lon="6.13557">
        <ele>357.20001220703</ele>
        <time>2016-05-18T14:29:37Z</time>
      </trkpt>
      <trkpt lat="43.36591" lon="6.13557">
        <ele>357.20001220703</ele>
        <time>2016-05-18T14:29:39Z</time>
      </trkpt>
      <trkpt lat="43.36591" lon="6.13557">
        <ele>357.20001220703</ele>
        <time>2016-05-18T14:29:41Z</time>
      </trkpt>
      <trkpt lat="43.36591" lon="6.13557">
        <ele>357.20001220703</ele>
        <time>2016-05-18T14:29:43Z</time>
      </trkpt>
      <trkpt lat="43.36591" lon="6.13557">
        <ele>357.20001220703</ele>
        <time>2016-05-18T14:29:45Z</time>
      </trkpt>
      <trkpt lat="43.36591" lon="6.13557">
        <ele>357.39999389648</ele>
        <time>2016-05-18T14:29:47Z</time>
      </trkpt>
      <trkpt lat="43.36591" lon="6.13557">
        <ele>357.39999389648</ele>
        <time>2016-05-18T14:29:49Z</time>
      </trkpt>
      <trkpt lat="43.36591" lon="6.13557">
        <ele>357.39999389648</ele>
        <time>2016-05-18T14:29:51Z</time>
      </trkpt>
      <trkpt lat="43.36591" lon="6.13557">
        <ele>357.39999389648</ele>
        <time>2016-05-18T14:29:53Z</time>
      </trkpt>
      <trkpt lat="43.36591" lon="6.13557">
        <ele>357.60000610352</ele>
        <time>2016-05-18T14:29:55Z</time>
      </trkpt>
      <trkpt lat="43.36591" lon="6.13557">
        <ele>357.39999389648</ele>
        <time>2016-05-18T14:29:57Z</time>
      </trkpt>
      <trkpt lat="43.36591" lon="6.13557">
        <ele>357.39999389648</ele>
        <time>2016-05-18T14:29:59Z</time>
      </trkpt>
      <trkpt lat="43.36591" lon="6.13557">
        <ele>357.39999389648</ele>
        <time>2016-05-18T14:30:01Z</time>
      </trkpt>
      <trkpt lat="43.36591" lon="6.13557">
        <ele>357.20001220703</ele>
        <time>2016-05-18T14:30:03Z</time>
      </trkpt>
      <trkpt lat="43.36591" lon="6.13557">
        <ele>357.20001220703</ele>
        <time>2016-05-18T14:30:05Z</time>
      </trkpt>
      <trkpt lat="43.36591" lon="6.13557">
        <ele>357</ele>
        <time>2016-05-18T14:30:07Z</time>
      </trkpt>
      <trkpt lat="43.36591" lon="6.13557">
        <ele>357</ele>
        <time>2016-05-18T14:30:09Z</time>
      </trkpt>
      <trkpt lat="43.36591" lon="6.13557">
        <ele>357</ele>
        <time>2016-05-18T14:30:11Z</time>
      </trkpt>
      <trkpt lat="43.36591" lon="6.13557">
        <ele>357</ele>
        <time>2016-05-18T14:30:13Z</time>
      </trkpt>
      <trkpt lat="43.36591" lon="6.13557">
        <ele>357</ele>
        <time>2016-05-18T14:30:15Z</time>
      </trkpt>
      <trkpt lat="43.36591" lon="6.13557">
        <ele>356.79998779297</ele>
        <time>2016-05-18T14:30:16Z</time>
      </trkpt>
      <trkpt lat="43.36591" lon="6.13557">
        <ele>357</ele>
        <time>2016-05-18T14:30:17Z</time>
      </trkpt>
      <trkpt lat="43.36591" lon="6.13557">
        <ele>357</ele>
        <time>2016-05-18T14:30:19Z</time>
      </trkpt>
      <trkpt lat="43.36591" lon="6.13557">
        <ele>357</ele>
        <time>2016-05-18T14:30:21Z</time>
      </trkpt>
      <trkpt lat="43.36591" lon="6.13557">
        <ele>357</ele>
        <time>2016-05-18T14:30:23Z</time>
      </trkpt>
      <trkpt lat="43.36591" lon="6.13557">
        <ele>357</ele>
        <time>2016-05-18T14:30:25Z</time>
      </trkpt>
      <trkpt lat="43.36591" lon="6.13557">
        <ele>357</ele>
        <time>2016-05-18T14:30:27Z</time>
      </trkpt>
      <trkpt lat="43.36591" lon="6.13557">
        <ele>357</ele>
        <time>2016-05-18T14:30:29Z</time>
      </trkpt>
      <trkpt lat="43.36591" lon="6.13557">
        <ele>357</ele>
        <time>2016-05-18T14:30:31Z</time>
      </trkpt>
      <trkpt lat="43.36591" lon="6.13557">
        <ele>357</ele>
        <time>2016-05-18T14:30:33Z</time>
      </trkpt>
      <trkpt lat="43.36591" lon="6.13557">
        <ele>356.79998779297</ele>
        <time>2016-05-18T14:30:35Z</time>
      </trkpt>
      <trkpt lat="43.36591" lon="6.13557">
        <ele>356.60000610352</ele>
        <time>2016-05-18T14:30:37Z</time>
      </trkpt>
      <trkpt lat="43.36591" lon="6.13557">
        <ele>356.60000610352</ele>
        <time>2016-05-18T14:30:39Z</time>
      </trkpt>
      <trkpt lat="43.36591" lon="6.13557">
        <ele>356.39999389648</ele>
        <time>2016-05-18T14:30:41Z</time>
      </trkpt>
      <trkpt lat="43.36591" lon="6.13557">
        <ele>356.60000610352</ele>
        <time>2016-05-18T14:30:43Z</time>
      </trkpt>
      <trkpt lat="43.36591" lon="6.13557">
        <ele>356.39999389648</ele>
        <time>2016-05-18T14:30:45Z</time>
      </trkpt>
      <trkpt lat="43.36591" lon="6.13557">
        <ele>356.39999389648</ele>
        <time>2016-05-18T14:30:47Z</time>
      </trkpt>
      <trkpt lat="43.36591" lon="6.13557">
        <ele>356.39999389648</ele>
        <time>2016-05-18T14:30:49Z</time>
      </trkpt>
      <trkpt lat="43.36591" lon="6.13557">
        <ele>356.60000610352</ele>
        <time>2016-05-18T14:30:51Z</time>
      </trkpt>
      <trkpt lat="43.36591" lon="6.13557">
        <ele>356.60000610352</ele>
        <time>2016-05-18T14:30:53Z</time>
      </trkpt>
      <trkpt lat="43.36591" lon="6.13557">
        <ele>356.60000610352</ele>
        <time>2016-05-18T14:30:55Z</time>
      </trkpt>
      <trkpt lat="43.36591" lon="6.13557">
        <ele>356.79998779297</ele>
        <time>2016-05-18T14:30:57Z</time>
      </trkpt>
      <trkpt lat="43.36591" lon="6.13557">
        <ele>356.79998779297</ele>
        <time>2016-05-18T14:30:59Z</time>
      </trkpt>
      <trkpt lat="43.36591" lon="6.13557">
        <ele>356.79998779297</ele>
        <time>2016-05-18T14:31:01Z</time>
      </trkpt>
      <trkpt lat="43.36591" lon="6.13557">
        <ele>357</ele>
        <time>2016-05-18T14:31:03Z</time>
      </trkpt>
      <trkpt lat="43.36591" lon="6.13557">
        <ele>357</ele>
        <time>2016-05-18T14:31:05Z</time>
      </trkpt>
      <trkpt lat="43.36591" lon="6.13557">
        <ele>356.79998779297</ele>
        <time>2016-05-18T14:31:07Z</time>
      </trkpt>
      <trkpt lat="43.36591" lon="6.13557">
        <ele>356.79998779297</ele>
        <time>2016-05-18T14:31:09Z</time>
      </trkpt>
      <trkpt lat="43.36591" lon="6.13557">
        <ele>356.39999389648</ele>
        <time>2016-05-18T14:31:11Z</time>
      </trkpt>
      <trkpt lat="43.36591" lon="6.13557">
        <ele>356.60000610352</ele>
        <time>2016-05-18T14:31:13Z</time>
      </trkpt>
      <trkpt lat="43.36591" lon="6.13557">
        <ele>356.60000610352</ele>
        <time>2016-05-18T14:31:15Z</time>
      </trkpt>
      <trkpt lat="43.36591" lon="6.13557">
        <ele>356.60000610352</ele>
        <time>2016-05-18T14:31:17Z</time>
      </trkpt>
      <trkpt lat="43.36591" lon="6.13557">
        <ele>356.60000610352</ele>
        <time>2016-05-18T14:31:19Z</time>
      </trkpt>
      <trkpt lat="43.36591" lon="6.13557">
        <ele>356.39999389648</ele>
        <time>2016-05-18T14:31:21Z</time>
      </trkpt>
      <trkpt lat="43.36591" lon="6.13557">
        <ele>356.39999389648</ele>
        <time>2016-05-18T14:31:23Z</time>
      </trkpt>
      <trkpt lat="43.36591" lon="6.13557">
        <ele>356.60000610352</ele>
        <time>2016-05-18T14:31:25Z</time>
      </trkpt>
      <trkpt lat="43.36591" lon="6.13557">
        <ele>356.60000610352</ele>
        <time>2016-05-18T14:31:27Z</time>
      </trkpt>
      <trkpt lat="43.36591" lon="6.13557">
        <ele>356.79998779297</ele>
        <time>2016-05-18T14:31:29Z</time>
      </trkpt>
      <trkpt lat="43.36591" lon="6.13557">
        <ele>356.79998779297</ele>
        <time>2016-05-18T14:31:31Z</time>
      </trkpt>
      <trkpt lat="43.36591" lon="6.13557">
        <ele>357</ele>
        <time>2016-05-18T14:31:33Z</time>
      </trkpt>
      <trkpt lat="43.36591" lon="6.13557">
        <ele>357</ele>
        <time>2016-05-18T14:31:35Z</time>
      </trkpt>
      <trkpt lat="43.36591" lon="6.13557">
        <ele>356.79998779297</ele>
        <time>2016-05-18T14:31:37Z</time>
      </trkpt>
      <trkpt lat="43.36591" lon="6.13557">
        <ele>356.79998779297</ele>
        <time>2016-05-18T14:31:39Z</time>
      </trkpt>
      <trkpt lat="43.36591" lon="6.13557">
        <ele>356.79998779297</ele>
        <time>2016-05-18T14:31:41Z</time>
      </trkpt>
      <trkpt lat="43.36591" lon="6.13557">
        <ele>356.79998779297</ele>
        <time>2016-05-18T14:31:43Z</time>
      </trkpt>
      <trkpt lat="43.36591" lon="6.13557">
        <ele>356.79998779297</ele>
        <time>2016-05-18T14:31:45Z</time>
      </trkpt>
      <trkpt lat="43.36591" lon="6.13557">
        <ele>356.79998779297</ele>
        <time>2016-05-18T14:31:47Z</time>
      </trkpt>
      <trkpt lat="43.36591" lon="6.13557">
        <ele>356.79998779297</ele>
        <time>2016-05-18T14:31:49Z</time>
      </trkpt>
      <trkpt lat="43.36591" lon="6.13557">
        <ele>356.79998779297</ele>
        <time>2016-05-18T14:31:51Z</time>
      </trkpt>
      <trkpt lat="43.36591" lon="6.13557">
        <ele>356.60000610352</ele>
        <time>2016-05-18T14:31:53Z</time>
      </trkpt>
      <trkpt lat="43.36591" lon="6.13557">
        <ele>356.60000610352</ele>
        <time>2016-05-18T14:31:55Z</time>
      </trkpt>
      <trkpt lat="43.36591" lon="6.13557">
        <ele>356.39999389648</ele>
        <time>2016-05-18T14:31:57Z</time>
      </trkpt>
      <trkpt lat="43.36591" lon="6.13557">
        <ele>356.20001220703</ele>
        <time>2016-05-18T14:31:59Z</time>
      </trkpt>
      <trkpt lat="43.36591" lon="6.13557">
        <ele>356.39999389648</ele>
        <time>2016-05-18T14:32:01Z</time>
      </trkpt>
      <trkpt lat="43.36591" lon="6.13557">
        <ele>356.39999389648</ele>
        <time>2016-05-18T14:32:03Z</time>
      </trkpt>
      <trkpt lat="43.36591" lon="6.13557">
        <ele>356.39999389648</ele>
        <time>2016-05-18T14:32:05Z</time>
      </trkpt>
      <trkpt lat="43.36591" lon="6.13557">
        <ele>356.39999389648</ele>
        <time>2016-05-18T14:32:07Z</time>
      </trkpt>
      <trkpt lat="43.36591" lon="6.13557">
        <ele>356.20001220703</ele>
        <time>2016-05-18T14:32:09Z</time>
      </trkpt>
      <trkpt lat="43.36591" lon="6.13557">
        <ele>356.20001220703</ele>
        <time>2016-05-18T14:32:11Z</time>
      </trkpt>
      <trkpt lat="43.36591" lon="6.13557">
        <ele>356.39999389648</ele>
        <time>2016-05-18T14:32:13Z</time>
      </trkpt>
      <trkpt lat="43.36591" lon="6.13557">
        <ele>356.39999389648</ele>
        <time>2016-05-18T14:32:15Z</time>
      </trkpt>
      <trkpt lat="43.36591" lon="6.13557">
        <ele>356.60000610352</ele>
        <time>2016-05-18T14:32:17Z</time>
      </trkpt>
      <trkpt lat="43.36591" lon="6.13557">
        <ele>356.60000610352</ele>
        <time>2016-05-18T14:32:18Z</time>
      </trkpt>
      <trkpt lat="43.36591" lon="6.13557">
        <ele>356.60000610352</ele>
        <time>2016-05-18T14:32:19Z</time>
      </trkpt>
      <trkpt lat="43.36591" lon="6.13557">
        <ele>356.39999389648</ele>
        <time>2016-05-18T14:32:21Z</time>
      </trkpt>
      <trkpt lat="43.36591" lon="6.13557">
        <ele>356.39999389648</ele>
        <time>2016-05-18T14:32:23Z</time>
      </trkpt>
      <trkpt lat="43.36591" lon="6.13557">
        <ele>356.39999389648</ele>
        <time>2016-05-18T14:32:25Z</time>
      </trkpt>
      <trkpt lat="43.36591" lon="6.13557">
        <ele>356.39999389648</ele>
        <time>2016-05-18T14:32:27Z</time>
      </trkpt>
      <trkpt lat="43.36591" lon="6.13557">
        <ele>356.39999389648</ele>
        <time>2016-05-18T14:32:29Z</time>
      </trkpt>
      <trkpt lat="43.36591" lon="6.13557">
        <ele>356.20001220703</ele>
        <time>2016-05-18T14:32:31Z</time>
      </trkpt>
      <trkpt lat="43.36591" lon="6.13557">
        <ele>356.39999389648</ele>
        <time>2016-05-18T14:32:33Z</time>
      </trkpt>
      <trkpt lat="43.36591" lon="6.13557">
        <ele>356.39999389648</ele>
        <time>2016-05-18T14:32:35Z</time>
      </trkpt>
      <trkpt lat="43.36591" lon="6.13557">
        <ele>356.39999389648</ele>
        <time>2016-05-18T14:32:37Z</time>
      </trkpt>
      <trkpt lat="43.36591" lon="6.13557">
        <ele>356.60000610352</ele>
        <time>2016-05-18T14:32:39Z</time>
      </trkpt>
      <trkpt lat="43.36591" lon="6.13557">
        <ele>356.60000610352</ele>
        <time>2016-05-18T14:32:41Z</time>
      </trkpt>
      <trkpt lat="43.36591" lon="6.13557">
        <ele>356.60000610352</ele>
        <time>2016-05-18T14:32:43Z</time>
      </trkpt>
      <trkpt lat="43.36591" lon="6.13557">
        <ele>356.79998779297</ele>
        <time>2016-05-18T14:32:45Z</time>
      </trkpt>
      <trkpt lat="43.36591" lon="6.13557">
        <ele>356.79998779297</ele>
        <time>2016-05-18T14:32:46Z</time>
      </trkpt>
      <trkpt lat="43.36591" lon="6.13557">
        <ele>356.79998779297</ele>
        <time>2016-05-18T14:32:47Z</time>
      </trkpt>
      <trkpt lat="43.36591" lon="6.13557">
        <ele>357</ele>
        <time>2016-05-18T14:32:49Z</time>
      </trkpt>
      <trkpt lat="43.36591" lon="6.13557">
        <ele>357</ele>
        <time>2016-05-18T14:32:51Z</time>
      </trkpt>
      <trkpt lat="43.36591" lon="6.13557">
        <ele>357</ele>
        <time>2016-05-18T14:32:53Z</time>
      </trkpt>
      <trkpt lat="43.36591" lon="6.13557">
        <ele>356.79998779297</ele>
        <time>2016-05-18T14:32:55Z</time>
      </trkpt>
      <trkpt lat="43.36591" lon="6.13557">
        <ele>356.79998779297</ele>
        <time>2016-05-18T14:32:57Z</time>
      </trkpt>
      <trkpt lat="43.36591" lon="6.13557">
        <ele>356.60000610352</ele>
        <time>2016-05-18T14:32:59Z</time>
      </trkpt>
      <trkpt lat="43.36591" lon="6.13557">
        <ele>356.79998779297</ele>
        <time>2016-05-18T14:33:01Z</time>
      </trkpt>
      <trkpt lat="43.36591" lon="6.13557">
        <ele>356.79998779297</ele>
        <time>2016-05-18T14:33:03Z</time>
      </trkpt>
      <trkpt lat="43.36591" lon="6.13557">
        <ele>356.79998779297</ele>
        <time>2016-05-18T14:33:05Z</time>
      </trkpt>
      <trkpt lat="43.36591" lon="6.13557">
        <ele>356.79998779297</ele>
        <time>2016-05-18T14:33:07Z</time>
      </trkpt>
      <trkpt lat="43.36591" lon="6.13557">
        <ele>356.79998779297</ele>
        <time>2016-05-18T14:33:09Z</time>
      </trkpt>
      <trkpt lat="43.36591" lon="6.13557">
        <ele>356.79998779297</ele>
        <time>2016-05-18T14:33:11Z</time>
      </trkpt>
      <trkpt lat="43.36591" lon="6.13557">
        <ele>357</ele>
        <time>2016-05-18T14:33:13Z</time>
      </trkpt>
      <trkpt lat="43.36591" lon="6.13557">
        <ele>357.20001220703</ele>
        <time>2016-05-18T14:33:15Z</time>
      </trkpt>
      <trkpt lat="43.36591" lon="6.13557">
        <ele>357.20001220703</ele>
        <time>2016-05-18T14:33:17Z</time>
      </trkpt>
      <trkpt lat="43.36591" lon="6.13557">
        <ele>357.20001220703</ele>
        <time>2016-05-18T14:33:19Z</time>
      </trkpt>
      <trkpt lat="43.36591" lon="6.13557">
        <ele>357.20001220703</ele>
        <time>2016-05-18T14:33:21Z</time>
      </trkpt>
      <trkpt lat="43.36591" lon="6.13557">
        <ele>357.39999389648</ele>
        <time>2016-05-18T14:33:23Z</time>
      </trkpt>
      <trkpt lat="43.36591" lon="6.13557">
        <ele>357.39999389648</ele>
        <time>2016-05-18T14:33:25Z</time>
      </trkpt>
      <trkpt lat="43.36591" lon="6.13557">
        <ele>357.39999389648</ele>
        <time>2016-05-18T14:33:27Z</time>
      </trkpt>
      <trkpt lat="43.36591" lon="6.13557">
        <ele>357.39999389648</ele>
        <time>2016-05-18T14:33:29Z</time>
      </trkpt>
      <trkpt lat="43.36591" lon="6.13557">
        <ele>357.39999389648</ele>
        <time>2016-05-18T14:33:31Z</time>
      </trkpt>
      <trkpt lat="43.36591" lon="6.13557">
        <ele>357.20001220703</ele>
        <time>2016-05-18T14:33:33Z</time>
      </trkpt>
      <trkpt lat="43.36591" lon="6.13557">
        <ele>357.20001220703</ele>
        <time>2016-05-18T14:33:35Z</time>
      </trkpt>
      <trkpt lat="43.36591" lon="6.13557">
        <ele>357.39999389648</ele>
        <time>2016-05-18T14:33:37Z</time>
      </trkpt>
      <trkpt lat="43.36591" lon="6.13557">
        <ele>357.39999389648</ele>
        <time>2016-05-18T14:33:39Z</time>
      </trkpt>
      <trkpt lat="43.36591" lon="6.13557">
        <ele>357.39999389648</ele>
        <time>2016-05-18T14:33:41Z</time>
      </trkpt>
      <trkpt lat="43.36591" lon="6.13557">
        <ele>357.20001220703</ele>
        <time>2016-05-18T14:33:43Z</time>
      </trkpt>
      <trkpt lat="43.36591" lon="6.13557">
        <ele>357</ele>
        <time>2016-05-18T14:33:45Z</time>
      </trkpt>
      <trkpt lat="43.36591" lon="6.13557">
        <ele>357</ele>
        <time>2016-05-18T14:33:47Z</time>
      </trkpt>
      <trkpt lat="43.36591" lon="6.13557">
        <ele>356.79998779297</ele>
        <time>2016-05-18T14:33:49Z</time>
      </trkpt>
      <trkpt lat="43.36591" lon="6.13557">
        <ele>356.79998779297</ele>
        <time>2016-05-18T14:33:51Z</time>
      </trkpt>
      <trkpt lat="43.36591" lon="6.13557">
        <ele>356.79998779297</ele>
        <time>2016-05-18T14:33:52Z</time>
      </trkpt>
      <trkpt lat="43.36591" lon="6.13557">
        <ele>356.79998779297</ele>
        <time>2016-05-18T14:33:53Z</time>
      </trkpt>
      <trkpt lat="43.36591" lon="6.13557">
        <ele>356.79998779297</ele>
        <time>2016-05-18T14:33:55Z</time>
      </trkpt>
      <trkpt lat="43.36591" lon="6.13557">
        <ele>356.79998779297</ele>
        <time>2016-05-18T14:33:57Z</time>
      </trkpt>
      <trkpt lat="43.36591" lon="6.13557">
        <ele>356.79998779297</ele>
        <time>2016-05-18T14:33:59Z</time>
      </trkpt>
      <trkpt lat="43.36591" lon="6.13557">
        <ele>356.79998779297</ele>
        <time>2016-05-18T14:34:01Z</time>
      </trkpt>
      <trkpt lat="43.36591" lon="6.13557">
        <ele>356.60000610352</ele>
        <time>2016-05-18T14:34:03Z</time>
      </trkpt>
      <trkpt lat="43.36591" lon="6.13557">
        <ele>356.60000610352</ele>
        <time>2016-05-18T14:34:05Z</time>
      </trkpt>
      <trkpt lat="43.36591" lon="6.13557">
        <ele>356.60000610352</ele>
        <time>2016-05-18T14:34:07Z</time>
      </trkpt>
      <trkpt lat="43.36591" lon="6.13557">
        <ele>356.79998779297</ele>
        <time>2016-05-18T14:34:09Z</time>
      </trkpt>
      <trkpt lat="43.36591" lon="6.13557">
        <ele>356.79998779297</ele>
        <time>2016-05-18T14:34:11Z</time>
      </trkpt>
      <trkpt lat="43.36591" lon="6.13557">
        <ele>356.79998779297</ele>
        <time>2016-05-18T14:34:13Z</time>
      </trkpt>
      <trkpt lat="43.36591" lon="6.13557">
        <ele>357</ele>
        <time>2016-05-18T14:34:15Z</time>
      </trkpt>
      <trkpt lat="43.36591" lon="6.13557">
        <ele>357</ele>
        <time>2016-05-18T14:34:17Z</time>
      </trkpt>
      <trkpt lat="43.36591" lon="6.13557">
        <ele>357.20001220703</ele>
        <time>2016-05-18T14:34:19Z</time>
      </trkpt>
      <trkpt lat="43.36591" lon="6.13557">
        <ele>357.20001220703</ele>
        <time>2016-05-18T14:34:21Z</time>
      </trkpt>
      <trkpt lat="43.36591" lon="6.13557">
        <ele>357.39999389648</ele>
        <time>2016-05-18T14:34:22Z</time>
      </trkpt>
      <trkpt lat="43.36591" lon="6.13558">
        <ele>357.60000610352</ele>
        <time>2016-05-18T14:34:23Z</time>
      </trkpt>
      <trkpt lat="43.36591" lon="6.13558">
        <ele>357.60000610352</ele>
        <time>2016-05-18T14:34:25Z</time>
      </trkpt>
      <trkpt lat="43.36591" lon="6.13558">
        <ele>357.60000610352</ele>
        <time>2016-05-18T14:34:27Z</time>
      </trkpt>
      <trkpt lat="43.36591" lon="6.13558">
        <ele>357.60000610352</ele>
        <time>2016-05-18T14:34:29Z</time>
      </trkpt>
      <trkpt lat="43.36591" lon="6.13558">
        <ele>357.60000610352</ele>
        <time>2016-05-18T14:34:31Z</time>
      </trkpt>
      <trkpt lat="43.36591" lon="6.13558">
        <ele>357.60000610352</ele>
        <time>2016-05-18T14:34:33Z</time>
      </trkpt>
      <trkpt lat="43.36591" lon="6.13558">
        <ele>357.60000610352</ele>
        <time>2016-05-18T14:34:35Z</time>
      </trkpt>
      <trkpt lat="43.36591" lon="6.13558">
        <ele>357.60000610352</ele>
        <time>2016-05-18T14:34:37Z</time>
      </trkpt>
      <trkpt lat="43.36591" lon="6.13558">
        <ele>357.60000610352</ele>
        <time>2016-05-18T14:34:39Z</time>
      </trkpt>
      <trkpt lat="43.36591" lon="6.13558">
        <ele>357.60000610352</ele>
        <time>2016-05-18T14:34:41Z</time>
      </trkpt>
      <trkpt lat="43.36591" lon="6.13558">
        <ele>357.60000610352</ele>
        <time>2016-05-18T14:34:43Z</time>
      </trkpt>
      <trkpt lat="43.36591" lon="6.13558">
        <ele>357.79998779297</ele>
        <time>2016-05-18T14:34:45Z</time>
      </trkpt>
      <trkpt lat="43.36591" lon="6.13558">
        <ele>357.60000610352</ele>
        <time>2016-05-18T14:34:47Z</time>
      </trkpt>
      <trkpt lat="43.36591" lon="6.13558">
        <ele>357.60000610352</ele>
        <time>2016-05-18T14:34:49Z</time>
      </trkpt>
      <trkpt lat="43.36591" lon="6.13558">
        <ele>357.60000610352</ele>
        <time>2016-05-18T14:34:51Z</time>
      </trkpt>
      <trkpt lat="43.36591" lon="6.13558">
        <ele>357.79998779297</ele>
        <time>2016-05-18T14:34:53Z</time>
      </trkpt>
      <trkpt lat="43.36591" lon="6.13558">
        <ele>357.79998779297</ele>
        <time>2016-05-18T14:34:55Z</time>
      </trkpt>
      <trkpt lat="43.36591" lon="6.13558">
        <ele>357.79998779297</ele>
        <time>2016-05-18T14:34:57Z</time>
      </trkpt>
      <trkpt lat="43.36591" lon="6.13558">
        <ele>357.79998779297</ele>
        <time>2016-05-18T14:34:59Z</time>
      </trkpt>
      <trkpt lat="43.36591" lon="6.13558">
        <ele>357.60000610352</ele>
        <time>2016-05-18T14:35:01Z</time>
      </trkpt>
      <trkpt lat="43.36591" lon="6.13558">
        <ele>357.60000610352</ele>
        <time>2016-05-18T14:35:03Z</time>
      </trkpt>
      <trkpt lat="43.36591" lon="6.13558">
        <ele>357.60000610352</ele>
        <time>2016-05-18T14:35:05Z</time>
      </trkpt>
      <trkpt lat="43.36591" lon="6.13558">
        <ele>357.60000610352</ele>
        <time>2016-05-18T14:35:07Z</time>
      </trkpt>
      <trkpt lat="43.36591" lon="6.13558">
        <ele>357.60000610352</ele>
        <time>2016-05-18T14:35:09Z</time>
      </trkpt>
      <trkpt lat="43.36591" lon="6.13558">
        <ele>357.39999389648</ele>
        <time>2016-05-18T14:35:11Z</time>
      </trkpt>
      <trkpt lat="43.36591" lon="6.13558">
        <ele>357.39999389648</ele>
        <time>2016-05-18T14:35:13Z</time>
      </trkpt>
      <trkpt lat="43.36591" lon="6.13558">
        <ele>357.39999389648</ele>
        <time>2016-05-18T14:35:15Z</time>
      </trkpt>
      <trkpt lat="43.36591" lon="6.13558">
        <ele>357.20001220703</ele>
        <time>2016-05-18T14:35:17Z</time>
      </trkpt>
      <trkpt lat="43.36591" lon="6.13558">
        <ele>357.39999389648</ele>
        <time>2016-05-18T14:35:19Z</time>
      </trkpt>
      <trkpt lat="43.36591" lon="6.13558">
        <ele>357.20001220703</ele>
        <time>2016-05-18T14:35:21Z</time>
      </trkpt>
      <trkpt lat="43.36591" lon="6.13558">
        <ele>357</ele>
        <time>2016-05-18T14:35:23Z</time>
      </trkpt>
      <trkpt lat="43.36591" lon="6.13558">
        <ele>356.79998779297</ele>
        <time>2016-05-18T14:35:25Z</time>
      </trkpt>
      <trkpt lat="43.36591" lon="6.13558">
        <ele>356.60000610352</ele>
        <time>2016-05-18T14:35:27Z</time>
      </trkpt>
      <trkpt lat="43.36591" lon="6.13558">
        <ele>356.60000610352</ele>
        <time>2016-05-18T14:35:29Z</time>
      </trkpt>
      <trkpt lat="43.36591" lon="6.13558">
        <ele>356.39999389648</ele>
        <time>2016-05-18T14:35:31Z</time>
      </trkpt>
      <trkpt lat="43.36591" lon="6.13558">
        <ele>356.60000610352</ele>
        <time>2016-05-18T14:35:33Z</time>
      </trkpt>
      <trkpt lat="43.36591" lon="6.13558">
        <ele>356.60000610352</ele>
        <time>2016-05-18T14:35:34Z</time>
      </trkpt>
      <trkpt lat="43.36591" lon="6.13558">
        <ele>356.60000610352</ele>
        <time>2016-05-18T14:35:37Z</time>
      </trkpt>
      <trkpt lat="43.36591" lon="6.13558">
        <ele>356.60000610352</ele>
        <time>2016-05-18T14:35:39Z</time>
      </trkpt>
      <trkpt lat="43.36591" lon="6.13558">
        <ele>356.60000610352</ele>
        <time>2016-05-18T14:35:41Z</time>
      </trkpt>
      <trkpt lat="43.36591" lon="6.13558">
        <ele>356.79998779297</ele>
        <time>2016-05-18T14:35:43Z</time>
      </trkpt>
      <trkpt lat="43.36591" lon="6.13558">
        <ele>356.79998779297</ele>
        <time>2016-05-18T14:35:45Z</time>
      </trkpt>
      <trkpt lat="43.36591" lon="6.13558">
        <ele>356.79998779297</ele>
        <time>2016-05-18T14:35:46Z</time>
      </trkpt>
      <trkpt lat="43.36591" lon="6.13558">
        <ele>356.79998779297</ele>
        <time>2016-05-18T14:35:47Z</time>
      </trkpt>
      <trkpt lat="43.36591" lon="6.13558">
        <ele>356.79998779297</ele>
        <time>2016-05-18T14:35:49Z</time>
      </trkpt>
      <trkpt lat="43.36591" lon="6.13558">
        <ele>356.79998779297</ele>
        <time>2016-05-18T14:35:51Z</time>
      </trkpt>
      <trkpt lat="43.36591" lon="6.13558">
        <ele>357</ele>
        <time>2016-05-18T14:35:53Z</time>
      </trkpt>
      <trkpt lat="43.36591" lon="6.13558">
        <ele>357.20001220703</ele>
        <time>2016-05-18T14:35:55Z</time>
      </trkpt>
      <trkpt lat="43.36591" lon="6.13558">
        <ele>357.20001220703</ele>
        <time>2016-05-18T14:35:57Z</time>
      </trkpt>
      <trkpt lat="43.36591" lon="6.13558">
        <ele>357</ele>
        <time>2016-05-18T14:35:59Z</time>
      </trkpt>
      <trkpt lat="43.36591" lon="6.13558">
        <ele>357.20001220703</ele>
        <time>2016-05-18T14:36:01Z</time>
      </trkpt>
      <trkpt lat="43.36591" lon="6.13558">
        <ele>357.20001220703</ele>
        <time>2016-05-18T14:36:03Z</time>
      </trkpt>
      <trkpt lat="43.36591" lon="6.13558">
        <ele>357.39999389648</ele>
        <time>2016-05-18T14:36:05Z</time>
      </trkpt>
      <trkpt lat="43.36591" lon="6.13558">
        <ele>357.20001220703</ele>
        <time>2016-05-18T14:36:07Z</time>
      </trkpt>
      <trkpt lat="43.36591" lon="6.13558">
        <ele>357.20001220703</ele>
        <time>2016-05-18T14:36:09Z</time>
      </trkpt>
      <trkpt lat="43.36591" lon="6.13558">
        <ele>357.39999389648</ele>
        <time>2016-05-18T14:36:11Z</time>
      </trkpt>
      <trkpt lat="43.36591" lon="6.13558">
        <ele>357.20001220703</ele>
        <time>2016-05-18T14:36:13Z</time>
      </trkpt>
      <trkpt lat="43.36591" lon="6.13558">
        <ele>357.20001220703</ele>
        <time>2016-05-18T14:36:15Z</time>
      </trkpt>
      <trkpt lat="43.36591" lon="6.13558">
        <ele>357.20001220703</ele>
        <time>2016-05-18T14:36:17Z</time>
      </trkpt>
      <trkpt lat="43.36591" lon="6.13558">
        <ele>357.39999389648</ele>
        <time>2016-05-18T14:36:19Z</time>
      </trkpt>
      <trkpt lat="43.36591" lon="6.13558">
        <ele>357.39999389648</ele>
        <time>2016-05-18T14:36:21Z</time>
      </trkpt>
      <trkpt lat="43.36591" lon="6.13558">
        <ele>357.20001220703</ele>
        <time>2016-05-18T14:36:23Z</time>
      </trkpt>
      <trkpt lat="43.36591" lon="6.13558">
        <ele>357.20001220703</ele>
        <time>2016-05-18T14:36:25Z</time>
      </trkpt>
      <trkpt lat="43.36591" lon="6.13558">
        <ele>357.20001220703</ele>
        <time>2016-05-18T14:36:27Z</time>
      </trkpt>
      <trkpt lat="43.36591" lon="6.13558">
        <ele>357.20001220703</ele>
        <time>2016-05-18T14:36:29Z</time>
      </trkpt>
      <trkpt lat="43.36591" lon="6.13558">
        <ele>357.20001220703</ele>
        <time>2016-05-18T14:36:31Z</time>
      </trkpt>
      <trkpt lat="43.36591" lon="6.13558">
        <ele>357</ele>
        <time>2016-05-18T14:36:33Z</time>
      </trkpt>
      <trkpt lat="43.36591" lon="6.13558">
        <ele>357</ele>
        <time>2016-05-18T14:36:34Z</time>
      </trkpt>
      <trkpt lat="43.36591" lon="6.13558">
        <ele>357</ele>
        <time>2016-05-18T14:36:35Z</time>
      </trkpt>
      <trkpt lat="43.36591" lon="6.13558">
        <ele>357</ele>
        <time>2016-05-18T14:36:37Z</time>
      </trkpt>
      <trkpt lat="43.36591" lon="6.13558">
        <ele>357</ele>
        <time>2016-05-18T14:36:39Z</time>
      </trkpt>
      <trkpt lat="43.36591" lon="6.13558">
        <ele>357</ele>
        <time>2016-05-18T14:36:41Z</time>
      </trkpt>
      <trkpt lat="43.36591" lon="6.13558">
        <ele>357.20001220703</ele>
        <time>2016-05-18T14:36:43Z</time>
      </trkpt>
      <trkpt lat="43.36591" lon="6.13558">
        <ele>357.20001220703</ele>
        <time>2016-05-18T14:36:45Z</time>
      </trkpt>
      <trkpt lat="43.36591" lon="6.13558">
        <ele>357.20001220703</ele>
        <time>2016-05-18T14:36:47Z</time>
      </trkpt>
      <trkpt lat="43.36591" lon="6.13558">
        <ele>357.20001220703</ele>
        <time>2016-05-18T14:36:49Z</time>
      </trkpt>
      <trkpt lat="43.36591" lon="6.13558">
        <ele>357.20001220703</ele>
        <time>2016-05-18T14:36:51Z</time>
      </trkpt>
      <trkpt lat="43.36591" lon="6.13558">
        <ele>357.20001220703</ele>
        <time>2016-05-18T14:36:53Z</time>
      </trkpt>
      <trkpt lat="43.36591" lon="6.13558">
        <ele>357</ele>
        <time>2016-05-18T14:36:55Z</time>
      </trkpt>
      <trkpt lat="43.36591" lon="6.13557">
        <ele>357</ele>
        <time>2016-05-18T14:36:57Z</time>
      </trkpt>
      <trkpt lat="43.36591" lon="6.13556">
        <ele>357</ele>
        <time>2016-05-18T14:36:58Z</time>
      </trkpt>
      <trkpt lat="43.36591" lon="6.13555">
        <ele>357</ele>
        <time>2016-05-18T14:36:59Z</time>
      </trkpt>
      <trkpt lat="43.36591" lon="6.13555">
        <ele>357</ele>
        <time>2016-05-18T14:37:01Z</time>
      </trkpt>
      <trkpt lat="43.36591" lon="6.13553">
        <ele>357</ele>
        <time>2016-05-18T14:37:03Z</time>
      </trkpt>
      <trkpt lat="43.36591" lon="6.13551">
        <ele>357</ele>
        <time>2016-05-18T14:37:04Z</time>
      </trkpt>
      <trkpt lat="43.36591" lon="6.13549">
        <ele>357</ele>
        <time>2016-05-18T14:37:05Z</time>
      </trkpt>
      <trkpt lat="43.36593" lon="6.13544">
        <ele>357</ele>
        <time>2016-05-18T14:37:07Z</time>
      </trkpt>
      <trkpt lat="43.36595" lon="6.13537">
        <ele>356.79998779297</ele>
        <time>2016-05-18T14:37:09Z</time>
      </trkpt>
      <trkpt lat="43.36596" lon="6.13533">
        <ele>356.60000610352</ele>
        <time>2016-05-18T14:37:10Z</time>
      </trkpt>
      <trkpt lat="43.36597" lon="6.13529">
        <ele>356.39999389648</ele>
        <time>2016-05-18T14:37:11Z</time>
      </trkpt>
      <trkpt lat="43.36599" lon="6.13518">
        <ele>356.20001220703</ele>
        <time>2016-05-18T14:37:13Z</time>
      </trkpt>
      <trkpt lat="43.36601" lon="6.13507">
        <ele>355.79998779297</ele>
        <time>2016-05-18T14:37:15Z</time>
      </trkpt>
      <trkpt lat="43.36602" lon="6.13501">
        <ele>355.20001220703</ele>
        <time>2016-05-18T14:37:16Z</time>
      </trkpt>
      <trkpt lat="43.36603" lon="6.13494">
        <ele>354.79998779297</ele>
        <time>2016-05-18T14:37:17Z</time>
      </trkpt>
      <trkpt lat="43.36605" lon="6.13482">
        <ele>354.39999389648</ele>
        <time>2016-05-18T14:37:19Z</time>
      </trkpt>
      <trkpt lat="43.36607" lon="6.13476">
        <ele>354.20001220703</ele>
        <time>2016-05-18T14:37:20Z</time>
      </trkpt>
      <trkpt lat="43.36609" lon="6.1347">
        <ele>354</ele>
        <time>2016-05-18T14:37:21Z</time>
      </trkpt>
      <trkpt lat="43.3661" lon="6.13464">
        <ele>354</ele>
        <time>2016-05-18T14:37:22Z</time>
      </trkpt>
      <trkpt lat="43.36612" lon="6.13457">
        <ele>353.79998779297</ele>
        <time>2016-05-18T14:37:23Z</time>
      </trkpt>
      <trkpt lat="43.36615" lon="6.13443">
        <ele>352.79998779297</ele>
        <time>2016-05-18T14:37:25Z</time>
      </trkpt>
      <trkpt lat="43.36617" lon="6.13436">
        <ele>352.39999389648</ele>
        <time>2016-05-18T14:37:26Z</time>
      </trkpt>
      <trkpt lat="43.36619" lon="6.1343">
        <ele>352.20001220703</ele>
        <time>2016-05-18T14:37:27Z</time>
      </trkpt>
      <trkpt lat="43.36623" lon="6.13416">
        <ele>352.20001220703</ele>
        <time>2016-05-18T14:37:29Z</time>
      </trkpt>
      <trkpt lat="43.36627" lon="6.13402">
        <ele>352</ele>
        <time>2016-05-18T14:37:31Z</time>
      </trkpt>
      <trkpt lat="43.36629" lon="6.13395">
        <ele>351.79998779297</ele>
        <time>2016-05-18T14:37:32Z</time>
      </trkpt>
      <trkpt lat="43.36631" lon="6.13388">
        <ele>351.79998779297</ele>
        <time>2016-05-18T14:37:33Z</time>
      </trkpt>
      <trkpt lat="43.36635" lon="6.13373">
        <ele>351.79998779297</ele>
        <time>2016-05-18T14:37:35Z</time>
      </trkpt>
      <trkpt lat="43.36638" lon="6.13359">
        <ele>351.60000610352</ele>
        <time>2016-05-18T14:37:37Z</time>
      </trkpt>
      <trkpt lat="43.3664" lon="6.13352">
        <ele>351.60000610352</ele>
        <time>2016-05-18T14:37:38Z</time>
      </trkpt>
      <trkpt lat="43.36642" lon="6.13344">
        <ele>351.39999389648</ele>
        <time>2016-05-18T14:37:39Z</time>
      </trkpt>
      <trkpt lat="43.36646" lon="6.13329">
        <ele>351.20001220703</ele>
        <time>2016-05-18T14:37:41Z</time>
      </trkpt>
      <trkpt lat="43.36649" lon="6.13311">
        <ele>350.60000610352</ele>
        <time>2016-05-18T14:37:43Z</time>
      </trkpt>
      <trkpt lat="43.36652" lon="6.13295">
        <ele>350</ele>
        <time>2016-05-18T14:37:45Z</time>
      </trkpt>
      <trkpt lat="43.36655" lon="6.1328">
        <ele>349.60000610352</ele>
        <time>2016-05-18T14:37:47Z</time>
      </trkpt>
      <trkpt lat="43.36656" lon="6.13273">
        <ele>349.60000610352</ele>
        <time>2016-05-18T14:37:48Z</time>
      </trkpt>
      <trkpt lat="43.36657" lon="6.13268">
        <ele>349.60000610352</ele>
        <time>2016-05-18T14:37:49Z</time>
      </trkpt>
      <trkpt lat="43.36656" lon="6.13264">
        <ele>348.60000610352</ele>
        <time>2016-05-18T14:37:51Z</time>
      </trkpt>
      <trkpt lat="43.36656" lon="6.13263">
        <ele>348.20001220703</ele>
        <time>2016-05-18T14:37:52Z</time>
      </trkpt>
      <trkpt lat="43.36656" lon="6.13262">
        <ele>348</ele>
        <time>2016-05-18T14:37:53Z</time>
      </trkpt>
      <trkpt lat="43.36655" lon="6.13261">
        <ele>347.79998779297</ele>
        <time>2016-05-18T14:37:55Z</time>
      </trkpt>
      <trkpt lat="43.36656" lon="6.13258">
        <ele>347.60000610352</ele>
        <time>2016-05-18T14:37:57Z</time>
      </trkpt>
      <trkpt lat="43.36657" lon="6.13254">
        <ele>347.60000610352</ele>
        <time>2016-05-18T14:37:58Z</time>
      </trkpt>
      <trkpt lat="43.36658" lon="6.13249">
        <ele>347.60000610352</ele>
        <time>2016-05-18T14:37:59Z</time>
      </trkpt>
      <trkpt lat="43.36658" lon="6.13244">
        <ele>347.39999389648</ele>
        <time>2016-05-18T14:38:00Z</time>
      </trkpt>
      <trkpt lat="43.36659" lon="6.13238">
        <ele>347.39999389648</ele>
        <time>2016-05-18T14:38:01Z</time>
      </trkpt>
      <trkpt lat="43.3666" lon="6.13231">
        <ele>347.20001220703</ele>
        <time>2016-05-18T14:38:02Z</time>
      </trkpt>
      <trkpt lat="43.3666" lon="6.13224">
        <ele>347</ele>
        <time>2016-05-18T14:38:03Z</time>
      </trkpt>
      <trkpt lat="43.36663" lon="6.13208">
        <ele>347</ele>
        <time>2016-05-18T14:38:05Z</time>
      </trkpt>
      <trkpt lat="43.36664" lon="6.13192">
        <ele>346.20001220703</ele>
        <time>2016-05-18T14:38:07Z</time>
      </trkpt>
      <trkpt lat="43.36667" lon="6.13176">
        <ele>345.60000610352</ele>
        <time>2016-05-18T14:38:09Z</time>
      </trkpt>
      <trkpt lat="43.36669" lon="6.13169">
        <ele>345</ele>
        <time>2016-05-18T14:38:10Z</time>
      </trkpt>
      <trkpt lat="43.36672" lon="6.13163">
        <ele>344.79998779297</ele>
        <time>2016-05-18T14:38:11Z</time>
      </trkpt>
      <trkpt lat="43.36681" lon="6.13156">
        <ele>344.20001220703</ele>
        <time>2016-05-18T14:38:13Z</time>
      </trkpt>
      <trkpt lat="43.36687" lon="6.13153">
        <ele>344</ele>
        <time>2016-05-18T14:38:14Z</time>
      </trkpt>
      <trkpt lat="43.36692" lon="6.13149">
        <ele>343.79998779297</ele>
        <time>2016-05-18T14:38:15Z</time>
      </trkpt>
      <trkpt lat="43.36701" lon="6.13137">
        <ele>343</ele>
        <time>2016-05-18T14:38:17Z</time>
      </trkpt>
      <trkpt lat="43.36708" lon="6.1312">
        <ele>341.60000610352</ele>
        <time>2016-05-18T14:38:19Z</time>
      </trkpt>
      <trkpt lat="43.36712" lon="6.1311">
        <ele>340.79998779297</ele>
        <time>2016-05-18T14:38:20Z</time>
      </trkpt>
      <trkpt lat="43.36715" lon="6.13099">
        <ele>340</ele>
        <time>2016-05-18T14:38:21Z</time>
      </trkpt>
      <trkpt lat="43.36718" lon="6.13089">
        <ele>339.39999389648</ele>
        <time>2016-05-18T14:38:22Z</time>
      </trkpt>
      <trkpt lat="43.36721" lon="6.13079">
        <ele>339</ele>
        <time>2016-05-18T14:38:23Z</time>
      </trkpt>
      <trkpt lat="43.36726" lon="6.1307">
        <ele>338.60000610352</ele>
        <time>2016-05-18T14:38:24Z</time>
      </trkpt>
      <trkpt lat="43.36731" lon="6.13062">
        <ele>338.39999389648</ele>
        <time>2016-05-18T14:38:25Z</time>
      </trkpt>
      <trkpt lat="43.3674" lon="6.13044">
        <ele>337</ele>
        <time>2016-05-18T14:38:27Z</time>
      </trkpt>
      <trkpt lat="43.3675" lon="6.13027">
        <ele>335.79998779297</ele>
        <time>2016-05-18T14:38:29Z</time>
      </trkpt>
      <trkpt lat="43.36761" lon="6.13009">
        <ele>335.20001220703</ele>
        <time>2016-05-18T14:38:31Z</time>
      </trkpt>
      <trkpt lat="43.36774" lon="6.12994">
        <ele>335</ele>
        <time>2016-05-18T14:38:33Z</time>
      </trkpt>
      <trkpt lat="43.3678" lon="6.12986">
        <ele>334.60000610352</ele>
        <time>2016-05-18T14:38:34Z</time>
      </trkpt>
      <trkpt lat="43.36786" lon="6.12979">
        <ele>334</ele>
        <time>2016-05-18T14:38:35Z</time>
      </trkpt>
      <trkpt lat="43.36793" lon="6.12971">
        <ele>333.39999389648</ele>
        <time>2016-05-18T14:38:36Z</time>
      </trkpt>
      <trkpt lat="43.36799" lon="6.12965">
        <ele>333.20001220703</ele>
        <time>2016-05-18T14:38:37Z</time>
      </trkpt>
      <trkpt lat="43.3681" lon="6.12951">
        <ele>332.20001220703</ele>
        <time>2016-05-18T14:38:39Z</time>
      </trkpt>
      <trkpt lat="43.36821" lon="6.12937">
        <ele>331</ele>
        <time>2016-05-18T14:38:41Z</time>
      </trkpt>
      <trkpt lat="43.36827" lon="6.1293">
        <ele>330.39999389648</ele>
        <time>2016-05-18T14:38:42Z</time>
      </trkpt>
      <trkpt lat="43.36833" lon="6.12923">
        <ele>330.20001220703</ele>
        <time>2016-05-18T14:38:43Z</time>
      </trkpt>
      <trkpt lat="43.36846" lon="6.12911">
        <ele>329.60000610352</ele>
        <time>2016-05-18T14:38:45Z</time>
      </trkpt>
      <trkpt lat="43.3686" lon="6.12898">
        <ele>328.39999389648</ele>
        <time>2016-05-18T14:38:47Z</time>
      </trkpt>
      <trkpt lat="43.36873" lon="6.12884">
        <ele>327</ele>
        <time>2016-05-18T14:38:49Z</time>
      </trkpt>
      <trkpt lat="43.36879" lon="6.12877">
        <ele>326.79998779297</ele>
        <time>2016-05-18T14:38:50Z</time>
      </trkpt>
      <trkpt lat="43.36885" lon="6.12871">
        <ele>326.20001220703</ele>
        <time>2016-05-18T14:38:51Z</time>
      </trkpt>
      <trkpt lat="43.36891" lon="6.12865">
        <ele>326.20001220703</ele>
        <time>2016-05-18T14:38:52Z</time>
      </trkpt>
      <trkpt lat="43.36897" lon="6.12859">
        <ele>325.39999389648</ele>
        <time>2016-05-18T14:38:53Z</time>
      </trkpt>
      <trkpt lat="43.36903" lon="6.12853">
        <ele>324.79998779297</ele>
        <time>2016-05-18T14:38:54Z</time>
      </trkpt>
      <trkpt lat="43.36907" lon="6.12847">
        <ele>323.79998779297</ele>
        <time>2016-05-18T14:38:55Z</time>
      </trkpt>
      <trkpt lat="43.36911" lon="6.1284">
        <ele>323.20001220703</ele>
        <time>2016-05-18T14:38:56Z</time>
      </trkpt>
      <trkpt lat="43.36915" lon="6.12832">
        <ele>323</ele>
        <time>2016-05-18T14:38:57Z</time>
      </trkpt>
      <trkpt lat="43.36919" lon="6.12824">
        <ele>323</ele>
        <time>2016-05-18T14:38:58Z</time>
      </trkpt>
      <trkpt lat="43.36923" lon="6.12816">
        <ele>323.20001220703</ele>
        <time>2016-05-18T14:38:59Z</time>
      </trkpt>
      <trkpt lat="43.36927" lon="6.12808">
        <ele>322.79998779297</ele>
        <time>2016-05-18T14:39:00Z</time>
      </trkpt>
      <trkpt lat="43.36931" lon="6.128">
        <ele>323</ele>
        <time>2016-05-18T14:39:01Z</time>
      </trkpt>
      <trkpt lat="43.36938" lon="6.12783">
        <ele>321.79998779297</ele>
        <time>2016-05-18T14:39:03Z</time>
      </trkpt>
      <trkpt lat="43.36942" lon="6.12775">
        <ele>321.60000610352</ele>
        <time>2016-05-18T14:39:04Z</time>
      </trkpt>
      <trkpt lat="43.36945" lon="6.12767">
        <ele>321.39999389648</ele>
        <time>2016-05-18T14:39:05Z</time>
      </trkpt>
      <trkpt lat="43.36953" lon="6.12753">
        <ele>320.79998779297</ele>
        <time>2016-05-18T14:39:07Z</time>
      </trkpt>
      <trkpt lat="43.36956" lon="6.12746">
        <ele>320.60000610352</ele>
        <time>2016-05-18T14:39:08Z</time>
      </trkpt>
      <trkpt lat="43.36959" lon="6.12739">
        <ele>320.20001220703</ele>
        <time>2016-05-18T14:39:09Z</time>
      </trkpt>
      <trkpt lat="43.36965" lon="6.12726">
        <ele>319.39999389648</ele>
        <time>2016-05-18T14:39:11Z</time>
      </trkpt>
      <trkpt lat="43.36968" lon="6.12719">
        <ele>319.39999389648</ele>
        <time>2016-05-18T14:39:12Z</time>
      </trkpt>
      <trkpt lat="43.36971" lon="6.12712">
        <ele>319.39999389648</ele>
        <time>2016-05-18T14:39:13Z</time>
      </trkpt>
      <trkpt lat="43.36977" lon="6.12699">
        <ele>319.20001220703</ele>
        <time>2016-05-18T14:39:15Z</time>
      </trkpt>
      <trkpt lat="43.36983" lon="6.12686">
        <ele>319.20001220703</ele>
        <time>2016-05-18T14:39:17Z</time>
      </trkpt>
      <trkpt lat="43.36989" lon="6.12673">
        <ele>318.79998779297</ele>
        <time>2016-05-18T14:39:19Z</time>
      </trkpt>
      <trkpt lat="43.36992" lon="6.12667">
        <ele>318.79998779297</ele>
        <time>2016-05-18T14:39:20Z</time>
      </trkpt>
      <trkpt lat="43.36994" lon="6.1266">
        <ele>318.39999389648</ele>
        <time>2016-05-18T14:39:21Z</time>
      </trkpt>
      <trkpt lat="43.36997" lon="6.12654">
        <ele>318.39999389648</ele>
        <time>2016-05-18T14:39:22Z</time>
      </trkpt>
      <trkpt lat="43.37" lon="6.12648">
        <ele>318.20001220703</ele>
        <time>2016-05-18T14:39:23Z</time>
      </trkpt>
      <trkpt lat="43.37005" lon="6.12635">
        <ele>318</ele>
        <time>2016-05-18T14:39:25Z</time>
      </trkpt>
      <trkpt lat="43.37012" lon="6.12623">
        <ele>318</ele>
        <time>2016-05-18T14:39:27Z</time>
      </trkpt>
      <trkpt lat="43.37018" lon="6.12611">
        <ele>318</ele>
        <time>2016-05-18T14:39:29Z</time>
      </trkpt>
      <trkpt lat="43.37024" lon="6.12599">
        <ele>318.20001220703</ele>
        <time>2016-05-18T14:39:31Z</time>
      </trkpt>
      <trkpt lat="43.37029" lon="6.12586">
        <ele>317.39999389648</ele>
        <time>2016-05-18T14:39:33Z</time>
      </trkpt>
      <trkpt lat="43.37032" lon="6.1258">
        <ele>317.20001220703</ele>
        <time>2016-05-18T14:39:34Z</time>
      </trkpt>
      <trkpt lat="43.37036" lon="6.12574">
        <ele>317</ele>
        <time>2016-05-18T14:39:35Z</time>
      </trkpt>
      <trkpt lat="43.37043" lon="6.12564">
        <ele>316.39999389648</ele>
        <time>2016-05-18T14:39:37Z</time>
      </trkpt>
      <trkpt lat="43.37047" lon="6.12559">
        <ele>316.39999389648</ele>
        <time>2016-05-18T14:39:38Z</time>
      </trkpt>
      <trkpt lat="43.37051" lon="6.12555">
        <ele>316.39999389648</ele>
        <time>2016-05-18T14:39:39Z</time>
      </trkpt>
      <trkpt lat="43.37055" lon="6.12551">
        <ele>316.20001220703</ele>
        <time>2016-05-18T14:39:40Z</time>
      </trkpt>
      <trkpt lat="43.37059" lon="6.12547">
        <ele>316.20001220703</ele>
        <time>2016-05-18T14:39:41Z</time>
      </trkpt>
      <trkpt lat="43.37063" lon="6.12543">
        <ele>316</ele>
        <time>2016-05-18T14:39:42Z</time>
      </trkpt>
      <trkpt lat="43.37068" lon="6.12539">
        <ele>316</ele>
        <time>2016-05-18T14:39:43Z</time>
      </trkpt>
      <trkpt lat="43.37078" lon="6.12531">
        <ele>315.39999389648</ele>
        <time>2016-05-18T14:39:45Z</time>
      </trkpt>
      <trkpt lat="43.37082" lon="6.12527">
        <ele>315</ele>
        <time>2016-05-18T14:39:46Z</time>
      </trkpt>
      <trkpt lat="43.37087" lon="6.12523">
        <ele>314.60000610352</ele>
        <time>2016-05-18T14:39:47Z</time>
      </trkpt>
      <trkpt lat="43.37094" lon="6.12514">
        <ele>314.39999389648</ele>
        <time>2016-05-18T14:39:49Z</time>
      </trkpt>
      <trkpt lat="43.37101" lon="6.12506">
        <ele>314.20001220703</ele>
        <time>2016-05-18T14:39:51Z</time>
      </trkpt>
      <trkpt lat="43.37105" lon="6.12502">
        <ele>314.20001220703</ele>
        <time>2016-05-18T14:39:52Z</time>
      </trkpt>
      <trkpt lat="43.37108" lon="6.12499">
        <ele>314</ele>
        <time>2016-05-18T14:39:53Z</time>
      </trkpt>
      <trkpt lat="43.37111" lon="6.12494">
        <ele>313.60000610352</ele>
        <time>2016-05-18T14:39:54Z</time>
      </trkpt>
      <trkpt lat="43.37113" lon="6.12489">
        <ele>313.60000610352</ele>
        <time>2016-05-18T14:39:55Z</time>
      </trkpt>
      <trkpt lat="43.37118" lon="6.12479">
        <ele>313</ele>
        <time>2016-05-18T14:39:57Z</time>
      </trkpt>
      <trkpt lat="43.3712" lon="6.12474">
        <ele>312.79998779297</ele>
        <time>2016-05-18T14:39:58Z</time>
      </trkpt>
      <trkpt lat="43.37122" lon="6.12469">
        <ele>312.79998779297</ele>
        <time>2016-05-18T14:39:59Z</time>
      </trkpt>
      <trkpt lat="43.37128" lon="6.12458">
        <ele>312.79998779297</ele>
        <time>2016-05-18T14:40:01Z</time>
      </trkpt>
      <trkpt lat="43.3713" lon="6.12453">
        <ele>312.79998779297</ele>
        <time>2016-05-18T14:40:02Z</time>
      </trkpt>
      <trkpt lat="43.37132" lon="6.12448">
        <ele>313</ele>
        <time>2016-05-18T14:40:03Z</time>
      </trkpt>
      <trkpt lat="43.37134" lon="6.12442">
        <ele>313.20001220703</ele>
        <time>2016-05-18T14:40:04Z</time>
      </trkpt>
      <trkpt lat="43.37136" lon="6.12437">
        <ele>313.20001220703</ele>
        <time>2016-05-18T14:40:05Z</time>
      </trkpt>
      <trkpt lat="43.3714" lon="6.12426">
        <ele>313.39999389648</ele>
        <time>2016-05-18T14:40:07Z</time>
      </trkpt>
      <trkpt lat="43.37145" lon="6.12416">
        <ele>313.39999389648</ele>
        <time>2016-05-18T14:40:09Z</time>
      </trkpt>
      <trkpt lat="43.3715" lon="6.12406">
        <ele>313.39999389648</ele>
        <time>2016-05-18T14:40:11Z</time>
      </trkpt>
      <trkpt lat="43.37156" lon="6.12396">
        <ele>313.39999389648</ele>
        <time>2016-05-18T14:40:13Z</time>
      </trkpt>
      <trkpt lat="43.37162" lon="6.12387">
        <ele>313.39999389648</ele>
        <time>2016-05-18T14:40:15Z</time>
      </trkpt>
      <trkpt lat="43.37168" lon="6.12378">
        <ele>313.39999389648</ele>
        <time>2016-05-18T14:40:17Z</time>
      </trkpt>
      <trkpt lat="43.37174" lon="6.12371">
        <ele>313.60000610352</ele>
        <time>2016-05-18T14:40:19Z</time>
      </trkpt>
      <trkpt lat="43.37177" lon="6.12367">
        <ele>313.79998779297</ele>
        <time>2016-05-18T14:40:20Z</time>
      </trkpt>
      <trkpt lat="43.3718" lon="6.12363">
        <ele>314</ele>
        <time>2016-05-18T14:40:21Z</time>
      </trkpt>
      <trkpt lat="43.37186" lon="6.12356">
        <ele>314</ele>
        <time>2016-05-18T14:40:23Z</time>
      </trkpt>
      <trkpt lat="43.37191" lon="6.12349">
        <ele>314.39999389648</ele>
        <time>2016-05-18T14:40:25Z</time>
      </trkpt>
      <trkpt lat="43.37194" lon="6.12346">
        <ele>314.39999389648</ele>
        <time>2016-05-18T14:40:26Z</time>
      </trkpt>
      <trkpt lat="43.37196" lon="6.12342">
        <ele>314.60000610352</ele>
        <time>2016-05-18T14:40:27Z</time>
      </trkpt>
      <trkpt lat="43.37201" lon="6.12336">
        <ele>315</ele>
        <time>2016-05-18T14:40:29Z</time>
      </trkpt>
      <trkpt lat="43.37205" lon="6.1233">
        <ele>315.79998779297</ele>
        <time>2016-05-18T14:40:31Z</time>
      </trkpt>
      <trkpt lat="43.37209" lon="6.12324">
        <ele>316.20001220703</ele>
        <time>2016-05-18T14:40:33Z</time>
      </trkpt>
      <trkpt lat="43.37212" lon="6.12317">
        <ele>316.60000610352</ele>
        <time>2016-05-18T14:40:35Z</time>
      </trkpt>
      <trkpt lat="43.37213" lon="6.12314">
        <ele>316.79998779297</ele>
        <time>2016-05-18T14:40:36Z</time>
      </trkpt>
      <trkpt lat="43.37215" lon="6.12311">
        <ele>317.20001220703</ele>
        <time>2016-05-18T14:40:37Z</time>
      </trkpt>
      <trkpt lat="43.37217" lon="6.12306">
        <ele>317.60000610352</ele>
        <time>2016-05-18T14:40:39Z</time>
      </trkpt>
      <trkpt lat="43.37219" lon="6.12303">
        <ele>317.79998779297</ele>
        <time>2016-05-18T14:40:40Z</time>
      </trkpt>
      <trkpt lat="43.3722" lon="6.12299">
        <ele>318</ele>
        <time>2016-05-18T14:40:41Z</time>
      </trkpt>
      <trkpt lat="43.37223" lon="6.12293">
        <ele>318.39999389648</ele>
        <time>2016-05-18T14:40:43Z</time>
      </trkpt>
      <trkpt lat="43.37225" lon="6.12288">
        <ele>318.60000610352</ele>
        <time>2016-05-18T14:40:45Z</time>
      </trkpt>
      <trkpt lat="43.37225" lon="6.12285">
        <ele>319</ele>
        <time>2016-05-18T14:40:46Z</time>
      </trkpt>
      <trkpt lat="43.37226" lon="6.12282">
        <ele>319.20001220703</ele>
        <time>2016-05-18T14:40:47Z</time>
      </trkpt>
      <trkpt lat="43.37228" lon="6.12276">
        <ele>319.39999389648</ele>
        <time>2016-05-18T14:40:49Z</time>
      </trkpt>
      <trkpt lat="43.37231" lon="6.12271">
        <ele>319.60000610352</ele>
        <time>2016-05-18T14:40:51Z</time>
      </trkpt>
      <trkpt lat="43.37231" lon="6.12268">
        <ele>319.60000610352</ele>
        <time>2016-05-18T14:40:52Z</time>
      </trkpt>
      <trkpt lat="43.37232" lon="6.12265">
        <ele>319.60000610352</ele>
        <time>2016-05-18T14:40:53Z</time>
      </trkpt>
      <trkpt lat="43.37234" lon="6.12261">
        <ele>319.79998779297</ele>
        <time>2016-05-18T14:40:55Z</time>
      </trkpt>
      <trkpt lat="43.37236" lon="6.12256">
        <ele>320.20001220703</ele>
        <time>2016-05-18T14:40:57Z</time>
      </trkpt>
      <trkpt lat="43.37238" lon="6.12251">
        <ele>320.39999389648</ele>
        <time>2016-05-18T14:40:59Z</time>
      </trkpt>
      <trkpt lat="43.3724" lon="6.12245">
        <ele>320.60000610352</ele>
        <time>2016-05-18T14:41:01Z</time>
      </trkpt>
      <trkpt lat="43.37241" lon="6.1224">
        <ele>321</ele>
        <time>2016-05-18T14:41:03Z</time>
      </trkpt>
      <trkpt lat="43.37242" lon="6.12237">
        <ele>321.39999389648</ele>
        <time>2016-05-18T14:41:05Z</time>
      </trkpt>
      <trkpt lat="43.37242" lon="6.12236">
        <ele>321.39999389648</ele>
        <time>2016-05-18T14:41:07Z</time>
      </trkpt>
      <trkpt lat="43.37242" lon="6.12236">
        <ele>321.39999389648</ele>
        <time>2016-05-18T14:41:09Z</time>
      </trkpt>
      <trkpt lat="43.37242" lon="6.12236">
        <ele>321.39999389648</ele>
        <time>2016-05-18T14:41:11Z</time>
      </trkpt>
      <trkpt lat="43.37243" lon="6.12236">
        <ele>321.39999389648</ele>
        <time>2016-05-18T14:41:13Z</time>
      </trkpt>
      <trkpt lat="43.37244" lon="6.12234">
        <ele>321.39999389648</ele>
        <time>2016-05-18T14:41:15Z</time>
      </trkpt>
      <trkpt lat="43.37246" lon="6.1223">
        <ele>321.79998779297</ele>
        <time>2016-05-18T14:41:17Z</time>
      </trkpt>
      <trkpt lat="43.37247" lon="6.12226">
        <ele>322</ele>
        <time>2016-05-18T14:41:19Z</time>
      </trkpt>
      <trkpt lat="43.37249" lon="6.12222">
        <ele>322.20001220703</ele>
        <time>2016-05-18T14:41:21Z</time>
      </trkpt>
      <trkpt lat="43.37251" lon="6.12219">
        <ele>322.39999389648</ele>
        <time>2016-05-18T14:41:22Z</time>
      </trkpt>
      <trkpt lat="43.37252" lon="6.12217">
        <ele>322.39999389648</ele>
        <time>2016-05-18T14:41:23Z</time>
      </trkpt>
      <trkpt lat="43.37253" lon="6.12214">
        <ele>322.60000610352</ele>
        <time>2016-05-18T14:41:24Z</time>
      </trkpt>
      <trkpt lat="43.37254" lon="6.12212">
        <ele>323</ele>
        <time>2016-05-18T14:41:25Z</time>
      </trkpt>
      <trkpt lat="43.37257" lon="6.12207">
        <ele>323.39999389648</ele>
        <time>2016-05-18T14:41:27Z</time>
      </trkpt>
      <trkpt lat="43.37258" lon="6.12205">
        <ele>323.39999389648</ele>
        <time>2016-05-18T14:41:28Z</time>
      </trkpt>
      <trkpt lat="43.37259" lon="6.12202">
        <ele>323.39999389648</ele>
        <time>2016-05-18T14:41:29Z</time>
      </trkpt>
      <trkpt lat="43.3726" lon="6.122">
        <ele>323.79998779297</ele>
        <time>2016-05-18T14:41:30Z</time>
      </trkpt>
      <trkpt lat="43.37261" lon="6.12198">
        <ele>324.20001220703</ele>
        <time>2016-05-18T14:41:31Z</time>
      </trkpt>
      <trkpt lat="43.37264" lon="6.12194">
        <ele>324.39999389648</ele>
        <time>2016-05-18T14:41:33Z</time>
      </trkpt>
      <trkpt lat="43.37265" lon="6.12192">
        <ele>324.39999389648</ele>
        <time>2016-05-18T14:41:34Z</time>
      </trkpt>
      <trkpt lat="43.37267" lon="6.1219">
        <ele>324.79998779297</ele>
        <time>2016-05-18T14:41:35Z</time>
      </trkpt>
      <trkpt lat="43.37268" lon="6.12188">
        <ele>325</ele>
        <time>2016-05-18T14:41:36Z</time>
      </trkpt>
      <trkpt lat="43.37269" lon="6.12186">
        <ele>325</ele>
        <time>2016-05-18T14:41:37Z</time>
      </trkpt>
      <trkpt lat="43.37271" lon="6.12182">
        <ele>325.60000610352</ele>
        <time>2016-05-18T14:41:39Z</time>
      </trkpt>
      <trkpt lat="43.37273" lon="6.12178">
        <ele>325.79998779297</ele>
        <time>2016-05-18T14:41:41Z</time>
      </trkpt>
      <trkpt lat="43.37276" lon="6.12173">
        <ele>326</ele>
        <time>2016-05-18T14:41:43Z</time>
      </trkpt>
      <trkpt lat="43.37279" lon="6.12169">
        <ele>326.39999389648</ele>
        <time>2016-05-18T14:41:45Z</time>
      </trkpt>
      <trkpt lat="43.3728" lon="6.12167">
        <ele>326.60000610352</ele>
        <time>2016-05-18T14:41:46Z</time>
      </trkpt>
      <trkpt lat="43.37281" lon="6.12165">
        <ele>326.79998779297</ele>
        <time>2016-05-18T14:41:47Z</time>
      </trkpt>
      <trkpt lat="43.37284" lon="6.1216">
        <ele>327.20001220703</ele>
        <time>2016-05-18T14:41:49Z</time>
      </trkpt>
      <trkpt lat="43.37286" lon="6.12157">
        <ele>327.60000610352</ele>
        <time>2016-05-18T14:41:51Z</time>
      </trkpt>
      <trkpt lat="43.37289" lon="6.12154">
        <ele>328.20001220703</ele>
        <time>2016-05-18T14:41:53Z</time>
      </trkpt>
      <trkpt lat="43.3729" lon="6.12152">
        <ele>328.39999389648</ele>
        <time>2016-05-18T14:41:54Z</time>
      </trkpt>
      <trkpt lat="43.37291" lon="6.12151">
        <ele>328.60000610352</ele>
        <time>2016-05-18T14:41:55Z</time>
      </trkpt>
      <trkpt lat="43.37294" lon="6.12148">
        <ele>329</ele>
        <time>2016-05-18T14:41:57Z</time>
      </trkpt>
      <trkpt lat="43.37297" lon="6.12145">
        <ele>329.39999389648</ele>
        <time>2016-05-18T14:41:59Z</time>
      </trkpt>
      <trkpt lat="43.373" lon="6.12143">
        <ele>329.79998779297</ele>
        <time>2016-05-18T14:42:01Z</time>
      </trkpt>
      <trkpt lat="43.37302" lon="6.12141">
        <ele>330.20001220703</ele>
        <time>2016-05-18T14:42:03Z</time>
      </trkpt>
      <trkpt lat="43.37304" lon="6.1214">
        <ele>330.39999389648</ele>
        <time>2016-05-18T14:42:04Z</time>
      </trkpt>
      <trkpt lat="43.37305" lon="6.1214">
        <ele>330.60000610352</ele>
        <time>2016-05-18T14:42:05Z</time>
      </trkpt>
      <trkpt lat="43.37307" lon="6.12138">
        <ele>331</ele>
        <time>2016-05-18T14:42:07Z</time>
      </trkpt>
      <trkpt lat="43.37309" lon="6.12137">
        <ele>331.39999389648</ele>
        <time>2016-05-18T14:42:08Z</time>
      </trkpt>
      <trkpt lat="43.3731" lon="6.12136">
        <ele>332</ele>
        <time>2016-05-18T14:42:09Z</time>
      </trkpt>
      <trkpt lat="43.37312" lon="6.12135">
        <ele>332.60000610352</ele>
        <time>2016-05-18T14:42:11Z</time>
      </trkpt>
      <trkpt lat="43.37314" lon="6.12134">
        <ele>333</ele>
        <time>2016-05-18T14:42:13Z</time>
      </trkpt>
      <trkpt lat="43.37316" lon="6.12133">
        <ele>333</ele>
        <time>2016-05-18T14:42:14Z</time>
      </trkpt>
      <trkpt lat="43.37317" lon="6.12132">
        <ele>333.20001220703</ele>
        <time>2016-05-18T14:42:15Z</time>
      </trkpt>
      <trkpt lat="43.3732" lon="6.1213">
        <ele>333.39999389648</ele>
        <time>2016-05-18T14:42:17Z</time>
      </trkpt>
      <trkpt lat="43.37323" lon="6.12128">
        <ele>333.60000610352</ele>
        <time>2016-05-18T14:42:19Z</time>
      </trkpt>
      <trkpt lat="43.37326" lon="6.12127">
        <ele>334.20001220703</ele>
        <time>2016-05-18T14:42:21Z</time>
      </trkpt>
      <trkpt lat="43.37327" lon="6.12126">
        <ele>334.39999389648</ele>
        <time>2016-05-18T14:42:22Z</time>
      </trkpt>
      <trkpt lat="43.37328" lon="6.12126">
        <ele>334.60000610352</ele>
        <time>2016-05-18T14:42:23Z</time>
      </trkpt>
      <trkpt lat="43.3733" lon="6.12125">
        <ele>335.20001220703</ele>
        <time>2016-05-18T14:42:25Z</time>
      </trkpt>
      <trkpt lat="43.37332" lon="6.12124">
        <ele>335.39999389648</ele>
        <time>2016-05-18T14:42:27Z</time>
      </trkpt>
      <trkpt lat="43.37334" lon="6.12122">
        <ele>335.60000610352</ele>
        <time>2016-05-18T14:42:29Z</time>
      </trkpt>
      <trkpt lat="43.37337" lon="6.12121">
        <ele>335.60000610352</ele>
        <time>2016-05-18T14:42:31Z</time>
      </trkpt>
      <trkpt lat="43.37339" lon="6.12119">
        <ele>335.79998779297</ele>
        <time>2016-05-18T14:42:33Z</time>
      </trkpt>
      <trkpt lat="43.37342" lon="6.12118">
        <ele>336.20001220703</ele>
        <time>2016-05-18T14:42:35Z</time>
      </trkpt>
      <trkpt lat="43.37343" lon="6.12117">
        <ele>336.20001220703</ele>
        <time>2016-05-18T14:42:36Z</time>
      </trkpt>
      <trkpt lat="43.37344" lon="6.12116">
        <ele>336.39999389648</ele>
        <time>2016-05-18T14:42:37Z</time>
      </trkpt>
      <trkpt lat="43.37345" lon="6.12115">
        <ele>336.60000610352</ele>
        <time>2016-05-18T14:42:38Z</time>
      </trkpt>
      <trkpt lat="43.37346" lon="6.12115">
        <ele>336.79998779297</ele>
        <time>2016-05-18T14:42:39Z</time>
      </trkpt>
      <trkpt lat="43.37349" lon="6.12113">
        <ele>337.20001220703</ele>
        <time>2016-05-18T14:42:41Z</time>
      </trkpt>
      <trkpt lat="43.3735" lon="6.12112">
        <ele>337.39999389648</ele>
        <time>2016-05-18T14:42:42Z</time>
      </trkpt>
      <trkpt lat="43.37352" lon="6.12112">
        <ele>337.60000610352</ele>
        <time>2016-05-18T14:42:43Z</time>
      </trkpt>
      <trkpt lat="43.37354" lon="6.12109">
        <ele>338.20001220703</ele>
        <time>2016-05-18T14:42:45Z</time>
      </trkpt>
      <trkpt lat="43.37355" lon="6.12108">
        <ele>338.39999389648</ele>
        <time>2016-05-18T14:42:46Z</time>
      </trkpt>
      <trkpt lat="43.37357" lon="6.12107">
        <ele>338.60000610352</ele>
        <time>2016-05-18T14:42:47Z</time>
      </trkpt>
      <trkpt lat="43.37359" lon="6.12105">
        <ele>338.79998779297</ele>
        <time>2016-05-18T14:42:49Z</time>
      </trkpt>
      <trkpt lat="43.37362" lon="6.12103">
        <ele>339.20001220703</ele>
        <time>2016-05-18T14:42:51Z</time>
      </trkpt>
      <trkpt lat="43.37363" lon="6.12102">
        <ele>339.39999389648</ele>
        <time>2016-05-18T14:42:52Z</time>
      </trkpt>
      <trkpt lat="43.37364" lon="6.121">
        <ele>339.60000610352</ele>
        <time>2016-05-18T14:42:53Z</time>
      </trkpt>
      <trkpt lat="43.37367" lon="6.12097">
        <ele>339.60000610352</ele>
        <time>2016-05-18T14:42:55Z</time>
      </trkpt>
      <trkpt lat="43.37371" lon="6.12095">
        <ele>339.79998779297</ele>
        <time>2016-05-18T14:42:57Z</time>
      </trkpt>
      <trkpt lat="43.37374" lon="6.12094">
        <ele>340.20001220703</ele>
        <time>2016-05-18T14:42:59Z</time>
      </trkpt>
      <trkpt lat="43.37376" lon="6.12094">
        <ele>340.39999389648</ele>
        <time>2016-05-18T14:43:00Z</time>
      </trkpt>
      <trkpt lat="43.37378" lon="6.12093">
        <ele>340.39999389648</ele>
        <time>2016-05-18T14:43:01Z</time>
      </trkpt>
      <trkpt lat="43.37382" lon="6.12092">
        <ele>340.60000610352</ele>
        <time>2016-05-18T14:43:03Z</time>
      </trkpt>
      <trkpt lat="43.37386" lon="6.12092">
        <ele>341</ele>
        <time>2016-05-18T14:43:05Z</time>
      </trkpt>
      <trkpt lat="43.37389" lon="6.12091">
        <ele>341</ele>
        <time>2016-05-18T14:43:07Z</time>
      </trkpt>
      <trkpt lat="43.37393" lon="6.12091">
        <ele>341.39999389648</ele>
        <time>2016-05-18T14:43:09Z</time>
      </trkpt>
      <trkpt lat="43.37396" lon="6.12091">
        <ele>341.39999389648</ele>
        <time>2016-05-18T14:43:11Z</time>
      </trkpt>
      <trkpt lat="43.374" lon="6.1209">
        <ele>341.60000610352</ele>
        <time>2016-05-18T14:43:13Z</time>
      </trkpt>
      <trkpt lat="43.37404" lon="6.12089">
        <ele>341.79998779297</ele>
        <time>2016-05-18T14:43:15Z</time>
      </trkpt>
      <trkpt lat="43.37408" lon="6.12088">
        <ele>342.20001220703</ele>
        <time>2016-05-18T14:43:17Z</time>
      </trkpt>
      <trkpt lat="43.37409" lon="6.12088">
        <ele>342.39999389648</ele>
        <time>2016-05-18T14:43:18Z</time>
      </trkpt>
      <trkpt lat="43.37411" lon="6.12087">
        <ele>342.60000610352</ele>
        <time>2016-05-18T14:43:19Z</time>
      </trkpt>
      <trkpt lat="43.37413" lon="6.12087">
        <ele>342.79998779297</ele>
        <time>2016-05-18T14:43:20Z</time>
      </trkpt>
      <trkpt lat="43.37415" lon="6.12086">
        <ele>343</ele>
        <time>2016-05-18T14:43:21Z</time>
      </trkpt>
      <trkpt lat="43.37418" lon="6.12086">
        <ele>343.39999389648</ele>
        <time>2016-05-18T14:43:23Z</time>
      </trkpt>
      <trkpt lat="43.37421" lon="6.12086">
        <ele>343.79998779297</ele>
        <time>2016-05-18T14:43:25Z</time>
      </trkpt>
      <trkpt lat="43.37424" lon="6.12086">
        <ele>344.20001220703</ele>
        <time>2016-05-18T14:43:27Z</time>
      </trkpt>
      <trkpt lat="43.37426" lon="6.12085">
        <ele>344.39999389648</ele>
        <time>2016-05-18T14:43:28Z</time>
      </trkpt>
      <trkpt lat="43.37427" lon="6.12084">
        <ele>344.60000610352</ele>
        <time>2016-05-18T14:43:29Z</time>
      </trkpt>
      <trkpt lat="43.37429" lon="6.12083">
        <ele>344.79998779297</ele>
        <time>2016-05-18T14:43:31Z</time>
      </trkpt>
      <trkpt lat="43.37429" lon="6.12083">
        <ele>345</ele>
        <time>2016-05-18T14:43:33Z</time>
      </trkpt>
      <trkpt lat="43.3743" lon="6.12083">
        <ele>345</ele>
        <time>2016-05-18T14:43:35Z</time>
      </trkpt>
      <trkpt lat="43.37429" lon="6.12083">
        <ele>345.20001220703</ele>
        <time>2016-05-18T14:43:37Z</time>
      </trkpt>
      <trkpt lat="43.37429" lon="6.12083">
        <ele>345.39999389648</ele>
        <time>2016-05-18T14:43:39Z</time>
      </trkpt>
      <trkpt lat="43.37429" lon="6.12083">
        <ele>345.20001220703</ele>
        <time>2016-05-18T14:43:41Z</time>
      </trkpt>
      <trkpt lat="43.37429" lon="6.12083">
        <ele>345.20001220703</ele>
        <time>2016-05-18T14:43:43Z</time>
      </trkpt>
      <trkpt lat="43.37429" lon="6.12083">
        <ele>345.20001220703</ele>
        <time>2016-05-18T14:43:45Z</time>
      </trkpt>
      <trkpt lat="43.37429" lon="6.12083">
        <ele>345.20001220703</ele>
        <time>2016-05-18T14:43:47Z</time>
      </trkpt>
      <trkpt lat="43.37429" lon="6.12083">
        <ele>345</ele>
        <time>2016-05-18T14:43:49Z</time>
      </trkpt>
      <trkpt lat="43.37429" lon="6.12083">
        <ele>345</ele>
        <time>2016-05-18T14:43:51Z</time>
      </trkpt>
      <trkpt lat="43.37429" lon="6.12083">
        <ele>345</ele>
        <time>2016-05-18T14:43:53Z</time>
      </trkpt>
      <trkpt lat="43.37429" lon="6.12083">
        <ele>345.20001220703</ele>
        <time>2016-05-18T14:43:55Z</time>
      </trkpt>
      <trkpt lat="43.37429" lon="6.12083">
        <ele>345.20001220703</ele>
        <time>2016-05-18T14:43:57Z</time>
      </trkpt>
      <trkpt lat="43.37429" lon="6.12083">
        <ele>345.20001220703</ele>
        <time>2016-05-18T14:43:58Z</time>
      </trkpt>
      <trkpt lat="43.37429" lon="6.12083">
        <ele>345.20001220703</ele>
        <time>2016-05-18T14:43:59Z</time>
      </trkpt>
      <trkpt lat="43.37429" lon="6.12083">
        <ele>345.20001220703</ele>
        <time>2016-05-18T14:44:01Z</time>
      </trkpt>
      <trkpt lat="43.37429" lon="6.12083">
        <ele>345.20001220703</ele>
        <time>2016-05-18T14:44:03Z</time>
      </trkpt>
      <trkpt lat="43.37429" lon="6.12083">
        <ele>345.39999389648</ele>
        <time>2016-05-18T14:44:04Z</time>
      </trkpt>
      <trkpt lat="43.37429" lon="6.12083">
        <ele>345.39999389648</ele>
        <time>2016-05-18T14:44:05Z</time>
      </trkpt>
      <trkpt lat="43.37429" lon="6.12083">
        <ele>345.39999389648</ele>
        <time>2016-05-18T14:44:07Z</time>
      </trkpt>
      <trkpt lat="43.37429" lon="6.12083">
        <ele>345.60000610352</ele>
        <time>2016-05-18T14:44:09Z</time>
      </trkpt>
      <trkpt lat="43.37429" lon="6.12083">
        <ele>345.39999389648</ele>
        <time>2016-05-18T14:44:10Z</time>
      </trkpt>
      <trkpt lat="43.37429" lon="6.12083">
        <ele>345.39999389648</ele>
        <time>2016-05-18T14:44:13Z</time>
      </trkpt>
      <trkpt lat="43.37429" lon="6.12083">
        <ele>345.60000610352</ele>
        <time>2016-05-18T14:44:15Z</time>
      </trkpt>
      <trkpt lat="43.37429" lon="6.12083">
        <ele>345.60000610352</ele>
        <time>2016-05-18T14:44:17Z</time>
      </trkpt>
      <trkpt lat="43.37429" lon="6.12083">
        <ele>345.79998779297</ele>
        <time>2016-05-18T14:44:19Z</time>
      </trkpt>
      <trkpt lat="43.37429" lon="6.12083">
        <ele>345.79998779297</ele>
        <time>2016-05-18T14:44:21Z</time>
      </trkpt>
      <trkpt lat="43.37429" lon="6.12083">
        <ele>345.79998779297</ele>
        <time>2016-05-18T14:44:22Z</time>
      </trkpt>
      <trkpt lat="43.37429" lon="6.12083">
        <ele>345.79998779297</ele>
        <time>2016-05-18T14:44:25Z</time>
      </trkpt>
      <trkpt lat="43.37431" lon="6.12083">
        <ele>345.79998779297</ele>
        <time>2016-05-18T14:44:27Z</time>
      </trkpt>
      <trkpt lat="43.37434" lon="6.12083">
        <ele>345.79998779297</ele>
        <time>2016-05-18T14:44:29Z</time>
      </trkpt>
      <trkpt lat="43.37436" lon="6.12083">
        <ele>345.79998779297</ele>
        <time>2016-05-18T14:44:30Z</time>
      </trkpt>
      <trkpt lat="43.37439" lon="6.12084">
        <ele>345.60000610352</ele>
        <time>2016-05-18T14:44:31Z</time>
      </trkpt>
      <trkpt lat="43.37447" lon="6.12084">
        <ele>345.39999389648</ele>
        <time>2016-05-18T14:44:33Z</time>
      </trkpt>
      <trkpt lat="43.37452" lon="6.12083">
        <ele>345.20001220703</ele>
        <time>2016-05-18T14:44:34Z</time>
      </trkpt>
      <trkpt lat="43.37456" lon="6.12082">
        <ele>344.79998779297</ele>
        <time>2016-05-18T14:44:35Z</time>
      </trkpt>
      <trkpt lat="43.37461" lon="6.1208">
        <ele>344.20001220703</ele>
        <time>2016-05-18T14:44:36Z</time>
      </trkpt>
      <trkpt lat="43.37465" lon="6.12078">
        <ele>343.60000610352</ele>
        <time>2016-05-18T14:44:37Z</time>
      </trkpt>
      <trkpt lat="43.37469" lon="6.12076">
        <ele>343</ele>
        <time>2016-05-18T14:44:38Z</time>
      </trkpt>
      <trkpt lat="43.37473" lon="6.12073">
        <ele>342.20001220703</ele>
        <time>2016-05-18T14:44:39Z</time>
      </trkpt>
      <trkpt lat="43.37478" lon="6.1207">
        <ele>341.39999389648</ele>
        <time>2016-05-18T14:44:40Z</time>
      </trkpt>
      <trkpt lat="43.37482" lon="6.12066">
        <ele>340.79998779297</ele>
        <time>2016-05-18T14:44:41Z</time>
      </trkpt>
      <trkpt lat="43.37487" lon="6.12062">
        <ele>340.20001220703</ele>
        <time>2016-05-18T14:44:42Z</time>
      </trkpt>
      <trkpt lat="43.3749" lon="6.12058">
        <ele>339.79998779297</ele>
        <time>2016-05-18T14:44:43Z</time>
      </trkpt>
      <trkpt lat="43.37495" lon="6.12054">
        <ele>339.20001220703</ele>
        <time>2016-05-18T14:44:44Z</time>
      </trkpt>
      <trkpt lat="43.37498" lon="6.12051">
        <ele>338.39999389648</ele>
        <time>2016-05-18T14:44:45Z</time>
      </trkpt>
      <trkpt lat="43.37502" lon="6.12048">
        <ele>337.39999389648</ele>
        <time>2016-05-18T14:44:46Z</time>
      </trkpt>
      <trkpt lat="43.37506" lon="6.12044">
        <ele>336.79998779297</ele>
        <time>2016-05-18T14:44:47Z</time>
      </trkpt>
      <trkpt lat="43.3751" lon="6.12041">
        <ele>336</ele>
        <time>2016-05-18T14:44:48Z</time>
      </trkpt>
      <trkpt lat="43.37513" lon="6.12038">
        <ele>335.20001220703</ele>
        <time>2016-05-18T14:44:49Z</time>
      </trkpt>
      <trkpt lat="43.37516" lon="6.12035">
        <ele>334.60000610352</ele>
        <time>2016-05-18T14:44:50Z</time>
      </trkpt>
      <trkpt lat="43.3752" lon="6.12031">
        <ele>333.79998779297</ele>
        <time>2016-05-18T14:44:51Z</time>
      </trkpt>
      <trkpt lat="43.37523" lon="6.12028">
        <ele>333.20001220703</ele>
        <time>2016-05-18T14:44:52Z</time>
      </trkpt>
      <trkpt lat="43.37526" lon="6.12024">
        <ele>332.60000610352</ele>
        <time>2016-05-18T14:44:53Z</time>
      </trkpt>
      <trkpt lat="43.37529" lon="6.1202">
        <ele>331.79998779297</ele>
        <time>2016-05-18T14:44:54Z</time>
      </trkpt>
      <trkpt lat="43.37533" lon="6.12016">
        <ele>331.39999389648</ele>
        <time>2016-05-18T14:44:55Z</time>
      </trkpt>
      <trkpt lat="43.37536" lon="6.12012">
        <ele>330.79998779297</ele>
        <time>2016-05-18T14:44:56Z</time>
      </trkpt>
      <trkpt lat="43.37539" lon="6.12008">
        <ele>330.20001220703</ele>
        <time>2016-05-18T14:44:57Z</time>
      </trkpt>
      <trkpt lat="43.37546" lon="6.12001">
        <ele>328.60000610352</ele>
        <time>2016-05-18T14:44:59Z</time>
      </trkpt>
      <trkpt lat="43.37549" lon="6.11997">
        <ele>328</ele>
        <time>2016-05-18T14:45:00Z</time>
      </trkpt>
      <trkpt lat="43.37553" lon="6.11994">
        <ele>327.20001220703</ele>
        <time>2016-05-18T14:45:01Z</time>
      </trkpt>
      <trkpt lat="43.37561" lon="6.11987">
        <ele>326.20001220703</ele>
        <time>2016-05-18T14:45:03Z</time>
      </trkpt>
      <trkpt lat="43.37564" lon="6.11984">
        <ele>325.79998779297</ele>
        <time>2016-05-18T14:45:04Z</time>
      </trkpt>
      <trkpt lat="43.37569" lon="6.11981">
        <ele>325.20001220703</ele>
        <time>2016-05-18T14:45:05Z</time>
      </trkpt>
      <trkpt lat="43.37573" lon="6.11978">
        <ele>324.60000610352</ele>
        <time>2016-05-18T14:45:06Z</time>
      </trkpt>
      <trkpt lat="43.37577" lon="6.11975">
        <ele>324</ele>
        <time>2016-05-18T14:45:07Z</time>
      </trkpt>
      <trkpt lat="43.37581" lon="6.11971">
        <ele>323.60000610352</ele>
        <time>2016-05-18T14:45:08Z</time>
      </trkpt>
      <trkpt lat="43.37585" lon="6.11968">
        <ele>323.20001220703</ele>
        <time>2016-05-18T14:45:09Z</time>
      </trkpt>
      <trkpt lat="43.37592" lon="6.11962">
        <ele>322.39999389648</ele>
        <time>2016-05-18T14:45:11Z</time>
      </trkpt>
      <trkpt lat="43.37595" lon="6.11958">
        <ele>321.39999389648</ele>
        <time>2016-05-18T14:45:12Z</time>
      </trkpt>
      <trkpt lat="43.37597" lon="6.11955">
        <ele>321</ele>
        <time>2016-05-18T14:45:13Z</time>
      </trkpt>
      <trkpt lat="43.37603" lon="6.11946">
        <ele>319.79998779297</ele>
        <time>2016-05-18T14:45:15Z</time>
      </trkpt>
      <trkpt lat="43.37608" lon="6.11939">
        <ele>318.79998779297</ele>
        <time>2016-05-18T14:45:17Z</time>
      </trkpt>
      <trkpt lat="43.37611" lon="6.11935">
        <ele>318.20001220703</ele>
        <time>2016-05-18T14:45:18Z</time>
      </trkpt>
      <trkpt lat="43.37614" lon="6.1193">
        <ele>317.79998779297</ele>
        <time>2016-05-18T14:45:19Z</time>
      </trkpt>
      <trkpt lat="43.37619" lon="6.11921">
        <ele>316.79998779297</ele>
        <time>2016-05-18T14:45:21Z</time>
      </trkpt>
      <trkpt lat="43.37621" lon="6.11917">
        <ele>316.20001220703</ele>
        <time>2016-05-18T14:45:22Z</time>
      </trkpt>
      <trkpt lat="43.37624" lon="6.11913">
        <ele>315.39999389648</ele>
        <time>2016-05-18T14:45:23Z</time>
      </trkpt>
      <trkpt lat="43.3763" lon="6.11904">
        <ele>313.79998779297</ele>
        <time>2016-05-18T14:45:25Z</time>
      </trkpt>
      <trkpt lat="43.37637" lon="6.11894">
        <ele>313</ele>
        <time>2016-05-18T14:45:27Z</time>
      </trkpt>
      <trkpt lat="43.37641" lon="6.11889">
        <ele>312.39999389648</ele>
        <time>2016-05-18T14:45:28Z</time>
      </trkpt>
      <trkpt lat="43.37644" lon="6.11884">
        <ele>312</ele>
        <time>2016-05-18T14:45:29Z</time>
      </trkpt>
      <trkpt lat="43.37651" lon="6.11874">
        <ele>311</ele>
        <time>2016-05-18T14:45:31Z</time>
      </trkpt>
      <trkpt lat="43.37654" lon="6.1187">
        <ele>310.60000610352</ele>
        <time>2016-05-18T14:45:32Z</time>
      </trkpt>
      <trkpt lat="43.37658" lon="6.11865">
        <ele>310</ele>
        <time>2016-05-18T14:45:33Z</time>
      </trkpt>
      <trkpt lat="43.37664" lon="6.11857">
        <ele>309.20001220703</ele>
        <time>2016-05-18T14:45:35Z</time>
      </trkpt>
      <trkpt lat="43.37669" lon="6.1185">
        <ele>308.39999389648</ele>
        <time>2016-05-18T14:45:37Z</time>
      </trkpt>
      <trkpt lat="43.37674" lon="6.11843">
        <ele>307.60000610352</ele>
        <time>2016-05-18T14:45:39Z</time>
      </trkpt>
      <trkpt lat="43.37678" lon="6.11835">
        <ele>307.20001220703</ele>
        <time>2016-05-18T14:45:41Z</time>
      </trkpt>
      <trkpt lat="43.3768" lon="6.11829">
        <ele>307</ele>
        <time>2016-05-18T14:45:42Z</time>
      </trkpt>
      <trkpt lat="43.37683" lon="6.11823">
        <ele>307</ele>
        <time>2016-05-18T14:45:43Z</time>
      </trkpt>
      <trkpt lat="43.37686" lon="6.11816">
        <ele>306</ele>
        <time>2016-05-18T14:45:44Z</time>
      </trkpt>
      <trkpt lat="43.37689" lon="6.11809">
        <ele>304.60000610352</ele>
        <time>2016-05-18T14:45:45Z</time>
      </trkpt>
      <trkpt lat="43.37692" lon="6.11801">
        <ele>304</ele>
        <time>2016-05-18T14:45:46Z</time>
      </trkpt>
      <trkpt lat="43.37695" lon="6.11794">
        <ele>303.39999389648</ele>
        <time>2016-05-18T14:45:47Z</time>
      </trkpt>
      <trkpt lat="43.37702" lon="6.11779">
        <ele>302.60000610352</ele>
        <time>2016-05-18T14:45:49Z</time>
      </trkpt>
      <trkpt lat="43.37705" lon="6.11771">
        <ele>302.20001220703</ele>
        <time>2016-05-18T14:45:50Z</time>
      </trkpt>
      <trkpt lat="43.37709" lon="6.11764">
        <ele>302.20001220703</ele>
        <time>2016-05-18T14:45:51Z</time>
      </trkpt>
      <trkpt lat="43.37714" lon="6.11757">
        <ele>302.39999389648</ele>
        <time>2016-05-18T14:45:52Z</time>
      </trkpt>
      <trkpt lat="43.37718" lon="6.1175">
        <ele>302.39999389648</ele>
        <time>2016-05-18T14:45:53Z</time>
      </trkpt>
      <trkpt lat="43.37727" lon="6.11734">
        <ele>301.60000610352</ele>
        <time>2016-05-18T14:45:55Z</time>
      </trkpt>
      <trkpt lat="43.37731" lon="6.11725">
        <ele>300.79998779297</ele>
        <time>2016-05-18T14:45:56Z</time>
      </trkpt>
      <trkpt lat="43.37735" lon="6.11717">
        <ele>300.20001220703</ele>
        <time>2016-05-18T14:45:57Z</time>
      </trkpt>
      <trkpt lat="43.37739" lon="6.11708">
        <ele>299.60000610352</ele>
        <time>2016-05-18T14:45:58Z</time>
      </trkpt>
      <trkpt lat="43.37743" lon="6.117">
        <ele>299.39999389648</ele>
        <time>2016-05-18T14:45:59Z</time>
      </trkpt>
      <trkpt lat="43.37752" lon="6.11683">
        <ele>299</ele>
        <time>2016-05-18T14:46:01Z</time>
      </trkpt>
      <trkpt lat="43.37756" lon="6.11674">
        <ele>298.79998779297</ele>
        <time>2016-05-18T14:46:02Z</time>
      </trkpt>
      <trkpt lat="43.37759" lon="6.11666">
        <ele>298.60000610352</ele>
        <time>2016-05-18T14:46:03Z</time>
      </trkpt>
      <trkpt lat="43.37766" lon="6.11652">
        <ele>298</ele>
        <time>2016-05-18T14:46:05Z</time>
      </trkpt>
      <trkpt lat="43.37769" lon="6.11646">
        <ele>297.60000610352</ele>
        <time>2016-05-18T14:46:06Z</time>
      </trkpt>
      <trkpt lat="43.37772" lon="6.1164">
        <ele>297</ele>
        <time>2016-05-18T14:46:07Z</time>
      </trkpt>
      <trkpt lat="43.37781" lon="6.11629">
        <ele>296.60000610352</ele>
        <time>2016-05-18T14:46:09Z</time>
      </trkpt>
      <trkpt lat="43.37785" lon="6.11623">
        <ele>296</ele>
        <time>2016-05-18T14:46:10Z</time>
      </trkpt>
      <trkpt lat="43.3779" lon="6.11618">
        <ele>295.60000610352</ele>
        <time>2016-05-18T14:46:11Z</time>
      </trkpt>
      <trkpt lat="43.37799" lon="6.11606">
        <ele>294.79998779297</ele>
        <time>2016-05-18T14:46:13Z</time>
      </trkpt>
      <trkpt lat="43.37808" lon="6.11594">
        <ele>294.20001220703</ele>
        <time>2016-05-18T14:46:15Z</time>
      </trkpt>
      <trkpt lat="43.37813" lon="6.11589">
        <ele>294</ele>
        <time>2016-05-18T14:46:16Z</time>
      </trkpt>
      <trkpt lat="43.37818" lon="6.11584">
        <ele>293.79998779297</ele>
        <time>2016-05-18T14:46:17Z</time>
      </trkpt>
      <trkpt lat="43.37821" lon="6.11579">
        <ele>293.60000610352</ele>
        <time>2016-05-18T14:46:18Z</time>
      </trkpt>
      <trkpt lat="43.37824" lon="6.11574">
        <ele>293.39999389648</ele>
        <time>2016-05-18T14:46:19Z</time>
      </trkpt>
      <trkpt lat="43.37826" lon="6.11568">
        <ele>293.20001220703</ele>
        <time>2016-05-18T14:46:20Z</time>
      </trkpt>
      <trkpt lat="43.37829" lon="6.11561">
        <ele>293</ele>
        <time>2016-05-18T14:46:21Z</time>
      </trkpt>
      <trkpt lat="43.37834" lon="6.11547">
        <ele>292.79998779297</ele>
        <time>2016-05-18T14:46:23Z</time>
      </trkpt>
      <trkpt lat="43.37837" lon="6.1154">
        <ele>292.39999389648</ele>
        <time>2016-05-18T14:46:24Z</time>
      </trkpt>
      <trkpt lat="43.3784" lon="6.11533">
        <ele>292.39999389648</ele>
        <time>2016-05-18T14:46:25Z</time>
      </trkpt>
      <trkpt lat="43.37842" lon="6.11526">
        <ele>292</ele>
        <time>2016-05-18T14:46:26Z</time>
      </trkpt>
      <trkpt lat="43.37845" lon="6.1152">
        <ele>291.60000610352</ele>
        <time>2016-05-18T14:46:27Z</time>
      </trkpt>
      <trkpt lat="43.37851" lon="6.11506">
        <ele>291.20001220703</ele>
        <time>2016-05-18T14:46:29Z</time>
      </trkpt>
      <trkpt lat="43.37856" lon="6.115">
        <ele>291.20001220703</ele>
        <time>2016-05-18T14:46:30Z</time>
      </trkpt>
      <trkpt lat="43.3786" lon="6.11493">
        <ele>290.79998779297</ele>
        <time>2016-05-18T14:46:31Z</time>
      </trkpt>
      <trkpt lat="43.37865" lon="6.11489">
        <ele>290</ele>
        <time>2016-05-18T14:46:32Z</time>
      </trkpt>
      <trkpt lat="43.3787" lon="6.11486">
        <ele>289.39999389648</ele>
        <time>2016-05-18T14:46:33Z</time>
      </trkpt>
      <trkpt lat="43.37877" lon="6.11483">
        <ele>288.60000610352</ele>
        <time>2016-05-18T14:46:35Z</time>
      </trkpt>
      <trkpt lat="43.3788" lon="6.11483">
        <ele>288.39999389648</ele>
        <time>2016-05-18T14:46:36Z</time>
      </trkpt>
      <trkpt lat="43.37883" lon="6.11482">
        <ele>288.20001220703</ele>
        <time>2016-05-18T14:46:37Z</time>
      </trkpt>
      <trkpt lat="43.37889" lon="6.1148">
        <ele>288.39999389648</ele>
        <time>2016-05-18T14:46:39Z</time>
      </trkpt>
      <trkpt lat="43.37894" lon="6.11477">
        <ele>288.60000610352</ele>
        <time>2016-05-18T14:46:41Z</time>
      </trkpt>
      <trkpt lat="43.37899" lon="6.11472">
        <ele>288.60000610352</ele>
        <time>2016-05-18T14:46:43Z</time>
      </trkpt>
      <trkpt lat="43.37905" lon="6.11468">
        <ele>288.60000610352</ele>
        <time>2016-05-18T14:46:45Z</time>
      </trkpt>
      <trkpt lat="43.37911" lon="6.11462">
        <ele>288.60000610352</ele>
        <time>2016-05-18T14:46:47Z</time>
      </trkpt>
      <trkpt lat="43.37916" lon="6.11455">
        <ele>288.60000610352</ele>
        <time>2016-05-18T14:46:49Z</time>
      </trkpt>
      <trkpt lat="43.37919" lon="6.11451">
        <ele>288.60000610352</ele>
        <time>2016-05-18T14:46:50Z</time>
      </trkpt>
      <trkpt lat="43.37921" lon="6.11448">
        <ele>288.39999389648</ele>
        <time>2016-05-18T14:46:51Z</time>
      </trkpt>
      <trkpt lat="43.37926" lon="6.11442">
        <ele>288.39999389648</ele>
        <time>2016-05-18T14:46:53Z</time>
      </trkpt>
      <trkpt lat="43.37931" lon="6.11436">
        <ele>288.39999389648</ele>
        <time>2016-05-18T14:46:55Z</time>
      </trkpt>
      <trkpt lat="43.37933" lon="6.11432">
        <ele>288.39999389648</ele>
        <time>2016-05-18T14:46:56Z</time>
      </trkpt>
      <trkpt lat="43.37936" lon="6.11428">
        <ele>288.39999389648</ele>
        <time>2016-05-18T14:46:57Z</time>
      </trkpt>
      <trkpt lat="43.37941" lon="6.11419">
        <ele>288.39999389648</ele>
        <time>2016-05-18T14:46:59Z</time>
      </trkpt>
      <trkpt lat="43.37948" lon="6.11411">
        <ele>288.60000610352</ele>
        <time>2016-05-18T14:47:01Z</time>
      </trkpt>
      <trkpt lat="43.37951" lon="6.11407">
        <ele>288.60000610352</ele>
        <time>2016-05-18T14:47:02Z</time>
      </trkpt>
      <trkpt lat="43.37954" lon="6.11403">
        <ele>288.60000610352</ele>
        <time>2016-05-18T14:47:03Z</time>
      </trkpt>
      <trkpt lat="43.37961" lon="6.11394">
        <ele>288.60000610352</ele>
        <time>2016-05-18T14:47:05Z</time>
      </trkpt>
      <trkpt lat="43.37967" lon="6.11386">
        <ele>288.20001220703</ele>
        <time>2016-05-18T14:47:07Z</time>
      </trkpt>
      <trkpt lat="43.37973" lon="6.11379">
        <ele>288</ele>
        <time>2016-05-18T14:47:09Z</time>
      </trkpt>
      <trkpt lat="43.37978" lon="6.11371">
        <ele>288</ele>
        <time>2016-05-18T14:47:11Z</time>
      </trkpt>
      <trkpt lat="43.37983" lon="6.11364">
        <ele>288</ele>
        <time>2016-05-18T14:47:13Z</time>
      </trkpt>
      <trkpt lat="43.37988" lon="6.11357">
        <ele>288.20001220703</ele>
        <time>2016-05-18T14:47:15Z</time>
      </trkpt>
      <trkpt lat="43.37992" lon="6.1135">
        <ele>288.20001220703</ele>
        <time>2016-05-18T14:47:17Z</time>
      </trkpt>
      <trkpt lat="43.37996" lon="6.11342">
        <ele>288.39999389648</ele>
        <time>2016-05-18T14:47:19Z</time>
      </trkpt>
      <trkpt lat="43.38" lon="6.11334">
        <ele>288.60000610352</ele>
        <time>2016-05-18T14:47:21Z</time>
      </trkpt>
      <trkpt lat="43.38004" lon="6.11326">
        <ele>288.60000610352</ele>
        <time>2016-05-18T14:47:23Z</time>
      </trkpt>
      <trkpt lat="43.38007" lon="6.11319">
        <ele>288.79998779297</ele>
        <time>2016-05-18T14:47:25Z</time>
      </trkpt>
      <trkpt lat="43.38009" lon="6.11315">
        <ele>289</ele>
        <time>2016-05-18T14:47:26Z</time>
      </trkpt>
      <trkpt lat="43.38011" lon="6.11312">
        <ele>289</ele>
        <time>2016-05-18T14:47:27Z</time>
      </trkpt>
      <trkpt lat="43.38015" lon="6.11304">
        <ele>289.20001220703</ele>
        <time>2016-05-18T14:47:29Z</time>
      </trkpt>
      <trkpt lat="43.38019" lon="6.11296">
        <ele>289.20001220703</ele>
        <time>2016-05-18T14:47:31Z</time>
      </trkpt>
      <trkpt lat="43.38021" lon="6.11292">
        <ele>289.20001220703</ele>
        <time>2016-05-18T14:47:32Z</time>
      </trkpt>
      <trkpt lat="43.38023" lon="6.11287">
        <ele>289</ele>
        <time>2016-05-18T14:47:33Z</time>
      </trkpt>
      <trkpt lat="43.38028" lon="6.1128">
        <ele>289</ele>
        <time>2016-05-18T14:47:35Z</time>
      </trkpt>
      <trkpt lat="43.3803" lon="6.11274">
        <ele>288.79998779297</ele>
        <time>2016-05-18T14:47:37Z</time>
      </trkpt>
      <trkpt lat="43.38034" lon="6.11266">
        <ele>288.60000610352</ele>
        <time>2016-05-18T14:47:39Z</time>
      </trkpt>
      <trkpt lat="43.38038" lon="6.11258">
        <ele>288.60000610352</ele>
        <time>2016-05-18T14:47:41Z</time>
      </trkpt>
      <trkpt lat="43.38042" lon="6.1125">
        <ele>288.60000610352</ele>
        <time>2016-05-18T14:47:43Z</time>
      </trkpt>
      <trkpt lat="43.38046" lon="6.11242">
        <ele>288.60000610352</ele>
        <time>2016-05-18T14:47:45Z</time>
      </trkpt>
      <trkpt lat="43.38049" lon="6.11233">
        <ele>288.79998779297</ele>
        <time>2016-05-18T14:47:47Z</time>
      </trkpt>
      <trkpt lat="43.38054" lon="6.11225">
        <ele>289.20001220703</ele>
        <time>2016-05-18T14:47:49Z</time>
      </trkpt>
      <trkpt lat="43.38055" lon="6.11221">
        <ele>289.20001220703</ele>
        <time>2016-05-18T14:47:50Z</time>
      </trkpt>
      <trkpt lat="43.38058" lon="6.11217">
        <ele>289.20001220703</ele>
        <time>2016-05-18T14:47:51Z</time>
      </trkpt>
      <trkpt lat="43.38063" lon="6.1121">
        <ele>289.39999389648</ele>
        <time>2016-05-18T14:47:53Z</time>
      </trkpt>
      <trkpt lat="43.3807" lon="6.11204">
        <ele>289.39999389648</ele>
        <time>2016-05-18T14:47:55Z</time>
      </trkpt>
      <trkpt lat="43.38073" lon="6.11201">
        <ele>289.39999389648</ele>
        <time>2016-05-18T14:47:56Z</time>
      </trkpt>
      <trkpt lat="43.38076" lon="6.11197">
        <ele>289.39999389648</ele>
        <time>2016-05-18T14:47:57Z</time>
      </trkpt>
      <trkpt lat="43.38083" lon="6.11189">
        <ele>289.39999389648</ele>
        <time>2016-05-18T14:47:59Z</time>
      </trkpt>
      <trkpt lat="43.38091" lon="6.1118">
        <ele>289.39999389648</ele>
        <time>2016-05-18T14:48:01Z</time>
      </trkpt>
      <trkpt lat="43.38096" lon="6.11175">
        <ele>289.39999389648</ele>
        <time>2016-05-18T14:48:02Z</time>
      </trkpt>
      <trkpt lat="43.381" lon="6.1117">
        <ele>289</ele>
        <time>2016-05-18T14:48:03Z</time>
      </trkpt>
      <trkpt lat="43.38111" lon="6.11158">
        <ele>288.20001220703</ele>
        <time>2016-05-18T14:48:05Z</time>
      </trkpt>
      <trkpt lat="43.38117" lon="6.11151">
        <ele>287.79998779297</ele>
        <time>2016-05-18T14:48:06Z</time>
      </trkpt>
      <trkpt lat="43.38123" lon="6.11145">
        <ele>287.20001220703</ele>
        <time>2016-05-18T14:48:07Z</time>
      </trkpt>
      <trkpt lat="43.38135" lon="6.11131">
        <ele>286.20001220703</ele>
        <time>2016-05-18T14:48:09Z</time>
      </trkpt>
      <trkpt lat="43.3814" lon="6.11124">
        <ele>286</ele>
        <time>2016-05-18T14:48:10Z</time>
      </trkpt>
      <trkpt lat="43.38146" lon="6.11117">
        <ele>285.79998779297</ele>
        <time>2016-05-18T14:48:11Z</time>
      </trkpt>
      <trkpt lat="43.38151" lon="6.11108">
        <ele>285.39999389648</ele>
        <time>2016-05-18T14:48:12Z</time>
      </trkpt>
      <trkpt lat="43.38155" lon="6.111">
        <ele>285.20001220703</ele>
        <time>2016-05-18T14:48:13Z</time>
      </trkpt>
      <trkpt lat="43.38161" lon="6.11082">
        <ele>284.79998779297</ele>
        <time>2016-05-18T14:48:15Z</time>
      </trkpt>
      <trkpt lat="43.38164" lon="6.11074">
        <ele>284.39999389648</ele>
        <time>2016-05-18T14:48:16Z</time>
      </trkpt>
      <trkpt lat="43.38166" lon="6.11066">
        <ele>284.20001220703</ele>
        <time>2016-05-18T14:48:17Z</time>
      </trkpt>
      <trkpt lat="43.3817" lon="6.11051">
        <ele>283.79998779297</ele>
        <time>2016-05-18T14:48:19Z</time>
      </trkpt>
      <trkpt lat="43.38171" lon="6.11044">
        <ele>283.79998779297</ele>
        <time>2016-05-18T14:48:20Z</time>
      </trkpt>
      <trkpt lat="43.38173" lon="6.11036">
        <ele>283.60000610352</ele>
        <time>2016-05-18T14:48:21Z</time>
      </trkpt>
      <trkpt lat="43.38174" lon="6.11029">
        <ele>283.39999389648</ele>
        <time>2016-05-18T14:48:22Z</time>
      </trkpt>
      <trkpt lat="43.38176" lon="6.11021">
        <ele>283.20001220703</ele>
        <time>2016-05-18T14:48:23Z</time>
      </trkpt>
      <trkpt lat="43.38179" lon="6.11005">
        <ele>282.79998779297</ele>
        <time>2016-05-18T14:48:25Z</time>
      </trkpt>
      <trkpt lat="43.38182" lon="6.10988">
        <ele>282</ele>
        <time>2016-05-18T14:48:27Z</time>
      </trkpt>
      <trkpt lat="43.38184" lon="6.10979">
        <ele>281.60000610352</ele>
        <time>2016-05-18T14:48:28Z</time>
      </trkpt>
      <trkpt lat="43.38185" lon="6.10971">
        <ele>281.39999389648</ele>
        <time>2016-05-18T14:48:29Z</time>
      </trkpt>
      <trkpt lat="43.38189" lon="6.10952">
        <ele>281.20001220703</ele>
        <time>2016-05-18T14:48:31Z</time>
      </trkpt>
      <trkpt lat="43.38193" lon="6.10933">
        <ele>280.79998779297</ele>
        <time>2016-05-18T14:48:33Z</time>
      </trkpt>
      <trkpt lat="43.38195" lon="6.10923">
        <ele>280.60000610352</ele>
        <time>2016-05-18T14:48:34Z</time>
      </trkpt>
      <trkpt lat="43.38196" lon="6.10914">
        <ele>280.39999389648</ele>
        <time>2016-05-18T14:48:35Z</time>
      </trkpt>
      <trkpt lat="43.38198" lon="6.10898">
        <ele>279.60000610352</ele>
        <time>2016-05-18T14:48:37Z</time>
      </trkpt>
      <trkpt lat="43.382" lon="6.10892">
        <ele>279.39999389648</ele>
        <time>2016-05-18T14:48:38Z</time>
      </trkpt>
      <trkpt lat="43.38202" lon="6.10889">
        <ele>279.39999389648</ele>
        <time>2016-05-18T14:48:39Z</time>
      </trkpt>
      <trkpt lat="43.38205" lon="6.10888">
        <ele>279.20001220703</ele>
        <time>2016-05-18T14:48:40Z</time>
      </trkpt>
      <trkpt lat="43.38208" lon="6.10888">
        <ele>279</ele>
        <time>2016-05-18T14:48:41Z</time>
      </trkpt>
      <trkpt lat="43.38214" lon="6.10891">
        <ele>279</ele>
        <time>2016-05-18T14:48:43Z</time>
      </trkpt>
      <trkpt lat="43.38221" lon="6.10893">
        <ele>278.60000610352</ele>
        <time>2016-05-18T14:48:45Z</time>
      </trkpt>
      <trkpt lat="43.38227" lon="6.10895">
        <ele>278.60000610352</ele>
        <time>2016-05-18T14:48:47Z</time>
      </trkpt>
      <trkpt lat="43.38234" lon="6.10898">
        <ele>278.60000610352</ele>
        <time>2016-05-18T14:48:49Z</time>
      </trkpt>
      <trkpt lat="43.3824" lon="6.109">
        <ele>278.39999389648</ele>
        <time>2016-05-18T14:48:51Z</time>
      </trkpt>
      <trkpt lat="43.38243" lon="6.10901">
        <ele>278.20001220703</ele>
        <time>2016-05-18T14:48:52Z</time>
      </trkpt>
      <trkpt lat="43.38246" lon="6.10902">
        <ele>278.20001220703</ele>
        <time>2016-05-18T14:48:53Z</time>
      </trkpt>
      <trkpt lat="43.38251" lon="6.10904">
        <ele>278.20001220703</ele>
        <time>2016-05-18T14:48:55Z</time>
      </trkpt>
      <trkpt lat="43.38256" lon="6.10905">
        <ele>278.20001220703</ele>
        <time>2016-05-18T14:48:57Z</time>
      </trkpt>
      <trkpt lat="43.38258" lon="6.10905">
        <ele>278.20001220703</ele>
        <time>2016-05-18T14:48:58Z</time>
      </trkpt>
      <trkpt lat="43.38261" lon="6.10905">
        <ele>278.20001220703</ele>
        <time>2016-05-18T14:48:59Z</time>
      </trkpt>
      <trkpt lat="43.38265" lon="6.10907">
        <ele>277.79998779297</ele>
        <time>2016-05-18T14:49:01Z</time>
      </trkpt>
      <trkpt lat="43.38269" lon="6.10908">
        <ele>277.79998779297</ele>
        <time>2016-05-18T14:49:03Z</time>
      </trkpt>
      <trkpt lat="43.38275" lon="6.1091">
        <ele>277.60000610352</ele>
        <time>2016-05-18T14:49:05Z</time>
      </trkpt>
      <trkpt lat="43.3828" lon="6.10911">
        <ele>277.79998779297</ele>
        <time>2016-05-18T14:49:07Z</time>
      </trkpt>
      <trkpt lat="43.38286" lon="6.10912">
        <ele>278</ele>
        <time>2016-05-18T14:49:09Z</time>
      </trkpt>
      <trkpt lat="43.38292" lon="6.10914">
        <ele>278</ele>
        <time>2016-05-18T14:49:11Z</time>
      </trkpt>
      <trkpt lat="43.38298" lon="6.10916">
        <ele>277.60000610352</ele>
        <time>2016-05-18T14:49:13Z</time>
      </trkpt>
      <trkpt lat="43.38301" lon="6.10917">
        <ele>277.60000610352</ele>
        <time>2016-05-18T14:49:14Z</time>
      </trkpt>
      <trkpt lat="43.38304" lon="6.10919">
        <ele>277.79998779297</ele>
        <time>2016-05-18T14:49:15Z</time>
      </trkpt>
      <trkpt lat="43.38311" lon="6.10921">
        <ele>278</ele>
        <time>2016-05-18T14:49:17Z</time>
      </trkpt>
      <trkpt lat="43.38317" lon="6.10924">
        <ele>278</ele>
        <time>2016-05-18T14:49:19Z</time>
      </trkpt>
      <trkpt lat="43.38325" lon="6.10927">
        <ele>278</ele>
        <time>2016-05-18T14:49:21Z</time>
      </trkpt>
      <trkpt lat="43.38333" lon="6.1093">
        <ele>278.20001220703</ele>
        <time>2016-05-18T14:49:23Z</time>
      </trkpt>
      <trkpt lat="43.3834" lon="6.10932">
        <ele>278.20001220703</ele>
        <time>2016-05-18T14:49:25Z</time>
      </trkpt>
      <trkpt lat="43.38343" lon="6.10933">
        <ele>278.39999389648</ele>
        <time>2016-05-18T14:49:26Z</time>
      </trkpt>
      <trkpt lat="43.38348" lon="6.10935">
        <ele>278.39999389648</ele>
        <time>2016-05-18T14:49:27Z</time>
      </trkpt>
      <trkpt lat="43.38356" lon="6.10936">
        <ele>278.39999389648</ele>
        <time>2016-05-18T14:49:29Z</time>
      </trkpt>
      <trkpt lat="43.38364" lon="6.10938">
        <ele>278.60000610352</ele>
        <time>2016-05-18T14:49:31Z</time>
      </trkpt>
      <trkpt lat="43.38367" lon="6.10939">
        <ele>278.79998779297</ele>
        <time>2016-05-18T14:49:32Z</time>
      </trkpt>
      <trkpt lat="43.38371" lon="6.1094">
        <ele>278.79998779297</ele>
        <time>2016-05-18T14:49:33Z</time>
      </trkpt>
      <trkpt lat="43.38379" lon="6.10942">
        <ele>279.20001220703</ele>
        <time>2016-05-18T14:49:35Z</time>
      </trkpt>
      <trkpt lat="43.38383" lon="6.10943">
        <ele>279.20001220703</ele>
        <time>2016-05-18T14:49:36Z</time>
      </trkpt>
      <trkpt lat="43.38387" lon="6.10944">
        <ele>279.39999389648</ele>
        <time>2016-05-18T14:49:37Z</time>
      </trkpt>
      <trkpt lat="43.38395" lon="6.10946">
        <ele>279.79998779297</ele>
        <time>2016-05-18T14:49:39Z</time>
      </trkpt>
      <trkpt lat="43.38403" lon="6.10948">
        <ele>280</ele>
        <time>2016-05-18T14:49:41Z</time>
      </trkpt>
      <trkpt lat="43.3841" lon="6.1095">
        <ele>280.20001220703</ele>
        <time>2016-05-18T14:49:43Z</time>
      </trkpt>
      <trkpt lat="43.38417" lon="6.10952">
        <ele>280.20001220703</ele>
        <time>2016-05-18T14:49:45Z</time>
      </trkpt>
      <trkpt lat="43.3842" lon="6.10952">
        <ele>280.20001220703</ele>
        <time>2016-05-18T14:49:46Z</time>
      </trkpt>
      <trkpt lat="43.38424" lon="6.10953">
        <ele>280.20001220703</ele>
        <time>2016-05-18T14:49:47Z</time>
      </trkpt>
      <trkpt lat="43.38431" lon="6.10955">
        <ele>280.39999389648</ele>
        <time>2016-05-18T14:49:49Z</time>
      </trkpt>
      <trkpt lat="43.38437" lon="6.10956">
        <ele>280.79998779297</ele>
        <time>2016-05-18T14:49:51Z</time>
      </trkpt>
      <trkpt lat="43.38444" lon="6.10956">
        <ele>281.20001220703</ele>
        <time>2016-05-18T14:49:53Z</time>
      </trkpt>
      <trkpt lat="43.38447" lon="6.10957">
        <ele>281.20001220703</ele>
        <time>2016-05-18T14:49:54Z</time>
      </trkpt>
      <trkpt lat="43.3845" lon="6.10957">
        <ele>281.39999389648</ele>
        <time>2016-05-18T14:49:55Z</time>
      </trkpt>
      <trkpt lat="43.38457" lon="6.10957">
        <ele>281.60000610352</ele>
        <time>2016-05-18T14:49:57Z</time>
      </trkpt>
      <trkpt lat="43.38463" lon="6.10958">
        <ele>281.79998779297</ele>
        <time>2016-05-18T14:49:59Z</time>
      </trkpt>
      <trkpt lat="43.38466" lon="6.10958">
        <ele>282</ele>
        <time>2016-05-18T14:50:00Z</time>
      </trkpt>
      <trkpt lat="43.38468" lon="6.10959">
        <ele>282</ele>
        <time>2016-05-18T14:50:01Z</time>
      </trkpt>
      <trkpt lat="43.38472" lon="6.10959">
        <ele>282</ele>
        <time>2016-05-18T14:50:03Z</time>
      </trkpt>
      <trkpt lat="43.38478" lon="6.1096">
        <ele>281.79998779297</ele>
        <time>2016-05-18T14:50:05Z</time>
      </trkpt>
      <trkpt lat="43.38482" lon="6.10962">
        <ele>281.79998779297</ele>
        <time>2016-05-18T14:50:07Z</time>
      </trkpt>
      <trkpt lat="43.38486" lon="6.10962">
        <ele>282</ele>
        <time>2016-05-18T14:50:09Z</time>
      </trkpt>
      <trkpt lat="43.3849" lon="6.10963">
        <ele>282.39999389648</ele>
        <time>2016-05-18T14:50:11Z</time>
      </trkpt>
      <trkpt lat="43.38494" lon="6.10964">
        <ele>282.79998779297</ele>
        <time>2016-05-18T14:50:13Z</time>
      </trkpt>
      <trkpt lat="43.38496" lon="6.10965">
        <ele>283.20001220703</ele>
        <time>2016-05-18T14:50:14Z</time>
      </trkpt>
      <trkpt lat="43.38499" lon="6.10965">
        <ele>283.39999389648</ele>
        <time>2016-05-18T14:50:15Z</time>
      </trkpt>
      <trkpt lat="43.38504" lon="6.10967">
        <ele>284</ele>
        <time>2016-05-18T14:50:17Z</time>
      </trkpt>
      <trkpt lat="43.38508" lon="6.10968">
        <ele>284.60000610352</ele>
        <time>2016-05-18T14:50:19Z</time>
      </trkpt>
      <trkpt lat="43.38513" lon="6.10969">
        <ele>285</ele>
        <time>2016-05-18T14:50:21Z</time>
      </trkpt>
      <trkpt lat="43.38517" lon="6.1097">
        <ele>285.39999389648</ele>
        <time>2016-05-18T14:50:23Z</time>
      </trkpt>
      <trkpt lat="43.38521" lon="6.10971">
        <ele>285.79998779297</ele>
        <time>2016-05-18T14:50:25Z</time>
      </trkpt>
      <trkpt lat="43.38525" lon="6.10972">
        <ele>286.39999389648</ele>
        <time>2016-05-18T14:50:27Z</time>
      </trkpt>
      <trkpt lat="43.38528" lon="6.10974">
        <ele>287</ele>
        <time>2016-05-18T14:50:29Z</time>
      </trkpt>
      <trkpt lat="43.38532" lon="6.10975">
        <ele>287.20001220703</ele>
        <time>2016-05-18T14:50:31Z</time>
      </trkpt>
      <trkpt lat="43.38537" lon="6.10977">
        <ele>287.60000610352</ele>
        <time>2016-05-18T14:50:33Z</time>
      </trkpt>
      <trkpt lat="43.3854" lon="6.10978">
        <ele>287.60000610352</ele>
        <time>2016-05-18T14:50:34Z</time>
      </trkpt>
      <trkpt lat="43.38542" lon="6.1098">
        <ele>287.60000610352</ele>
        <time>2016-05-18T14:50:35Z</time>
      </trkpt>
      <trkpt lat="43.38546" lon="6.10982">
        <ele>287.79998779297</ele>
        <time>2016-05-18T14:50:37Z</time>
      </trkpt>
      <trkpt lat="43.38548" lon="6.10983">
        <ele>288</ele>
        <time>2016-05-18T14:50:38Z</time>
      </trkpt>
      <trkpt lat="43.3855" lon="6.10984">
        <ele>288.20001220703</ele>
        <time>2016-05-18T14:50:39Z</time>
      </trkpt>
      <trkpt lat="43.38552" lon="6.10985">
        <ele>288.20001220703</ele>
        <time>2016-05-18T14:50:40Z</time>
      </trkpt>
      <trkpt lat="43.38554" lon="6.10986">
        <ele>288.39999389648</ele>
        <time>2016-05-18T14:50:41Z</time>
      </trkpt>
      <trkpt lat="43.38559" lon="6.10988">
        <ele>288.60000610352</ele>
        <time>2016-05-18T14:50:43Z</time>
      </trkpt>
      <trkpt lat="43.38563" lon="6.10989">
        <ele>289</ele>
        <time>2016-05-18T14:50:45Z</time>
      </trkpt>
      <trkpt lat="43.38567" lon="6.10989">
        <ele>289.39999389648</ele>
        <time>2016-05-18T14:50:47Z</time>
      </trkpt>
      <trkpt lat="43.38572" lon="6.10989">
        <ele>289.79998779297</ele>
        <time>2016-05-18T14:50:49Z</time>
      </trkpt>
      <trkpt lat="43.38575" lon="6.10989">
        <ele>290.20001220703</ele>
        <time>2016-05-18T14:50:51Z</time>
      </trkpt>
      <trkpt lat="43.3858" lon="6.10989">
        <ele>290.39999389648</ele>
        <time>2016-05-18T14:50:53Z</time>
      </trkpt>
      <trkpt lat="43.38585" lon="6.10989">
        <ele>290.60000610352</ele>
        <time>2016-05-18T14:50:55Z</time>
      </trkpt>
      <trkpt lat="43.38587" lon="6.10988">
        <ele>290.79998779297</ele>
        <time>2016-05-18T14:50:56Z</time>
      </trkpt>
      <trkpt lat="43.38589" lon="6.10988">
        <ele>290.79998779297</ele>
        <time>2016-05-18T14:50:57Z</time>
      </trkpt>
      <trkpt lat="43.38594" lon="6.10988">
        <ele>291.20001220703</ele>
        <time>2016-05-18T14:50:59Z</time>
      </trkpt>
      <trkpt lat="43.38599" lon="6.10988">
        <ele>291.39999389648</ele>
        <time>2016-05-18T14:51:01Z</time>
      </trkpt>
      <trkpt lat="43.38603" lon="6.10988">
        <ele>291.60000610352</ele>
        <time>2016-05-18T14:51:03Z</time>
      </trkpt>
      <trkpt lat="43.38605" lon="6.10988">
        <ele>291.60000610352</ele>
        <time>2016-05-18T14:51:04Z</time>
      </trkpt>
      <trkpt lat="43.38607" lon="6.10989">
        <ele>291.60000610352</ele>
        <time>2016-05-18T14:51:05Z</time>
      </trkpt>
      <trkpt lat="43.3861" lon="6.1099">
        <ele>291.60000610352</ele>
        <time>2016-05-18T14:51:07Z</time>
      </trkpt>
      <trkpt lat="43.38612" lon="6.10992">
        <ele>291.79998779297</ele>
        <time>2016-05-18T14:51:09Z</time>
      </trkpt>
      <trkpt lat="43.38614" lon="6.10993">
        <ele>292</ele>
        <time>2016-05-18T14:51:10Z</time>
      </trkpt>
      <trkpt lat="43.38614" lon="6.10993">
        <ele>292</ele>
        <time>2016-05-18T14:51:11Z</time>
      </trkpt>
      <trkpt lat="43.38617" lon="6.10994">
        <ele>292.20001220703</ele>
        <time>2016-05-18T14:51:13Z</time>
      </trkpt>
      <trkpt lat="43.38619" lon="6.10995">
        <ele>292.39999389648</ele>
        <time>2016-05-18T14:51:15Z</time>
      </trkpt>
      <trkpt lat="43.38623" lon="6.10997">
        <ele>292.60000610352</ele>
        <time>2016-05-18T14:51:17Z</time>
      </trkpt>
      <trkpt lat="43.38626" lon="6.11001">
        <ele>292.60000610352</ele>
        <time>2016-05-18T14:51:19Z</time>
      </trkpt>
      <trkpt lat="43.38629" lon="6.11005">
        <ele>292.20001220703</ele>
        <time>2016-05-18T14:51:21Z</time>
      </trkpt>
      <trkpt lat="43.38631" lon="6.11006">
        <ele>292</ele>
        <time>2016-05-18T14:51:22Z</time>
      </trkpt>
      <trkpt lat="43.38632" lon="6.11007">
        <ele>291.79998779297</ele>
        <time>2016-05-18T14:51:23Z</time>
      </trkpt>
      <trkpt lat="43.38634" lon="6.11007">
        <ele>291.39999389648</ele>
        <time>2016-05-18T14:51:24Z</time>
      </trkpt>
      <trkpt lat="43.38635" lon="6.11006">
        <ele>291.39999389648</ele>
        <time>2016-05-18T14:51:25Z</time>
      </trkpt>
      <trkpt lat="43.38637" lon="6.11005">
        <ele>291</ele>
        <time>2016-05-18T14:51:26Z</time>
      </trkpt>
      <trkpt lat="43.38638" lon="6.11004">
        <ele>290.79998779297</ele>
        <time>2016-05-18T14:51:27Z</time>
      </trkpt>
      <trkpt lat="43.3864" lon="6.11002">
        <ele>290.79998779297</ele>
        <time>2016-05-18T14:51:28Z</time>
      </trkpt>
      <trkpt lat="43.38643" lon="6.11001">
        <ele>290.60000610352</ele>
        <time>2016-05-18T14:51:29Z</time>
      </trkpt>
      <trkpt lat="43.38649" lon="6.11001">
        <ele>290.20001220703</ele>
        <time>2016-05-18T14:51:31Z</time>
      </trkpt>
      <trkpt lat="43.38655" lon="6.11002">
        <ele>290</ele>
        <time>2016-05-18T14:51:33Z</time>
      </trkpt>
      <trkpt lat="43.38659" lon="6.10997">
        <ele>289.79998779297</ele>
        <time>2016-05-18T14:51:35Z</time>
      </trkpt>
      <trkpt lat="43.3866" lon="6.1099">
        <ele>289.60000610352</ele>
        <time>2016-05-18T14:51:37Z</time>
      </trkpt>
      <trkpt lat="43.3866" lon="6.10982">
        <ele>289.20001220703</ele>
        <time>2016-05-18T14:51:39Z</time>
      </trkpt>
      <trkpt lat="43.38662" lon="6.10973">
        <ele>288.79998779297</ele>
        <time>2016-05-18T14:51:41Z</time>
      </trkpt>
      <trkpt lat="43.38663" lon="6.10963">
        <ele>288.60000610352</ele>
        <time>2016-05-18T14:51:43Z</time>
      </trkpt>
      <trkpt lat="43.38664" lon="6.10958">
        <ele>288.60000610352</ele>
        <time>2016-05-18T14:51:44Z</time>
      </trkpt>
      <trkpt lat="43.38665" lon="6.10952">
        <ele>288.60000610352</ele>
        <time>2016-05-18T14:51:45Z</time>
      </trkpt>
      <trkpt lat="43.38668" lon="6.10942">
        <ele>288.60000610352</ele>
        <time>2016-05-18T14:51:47Z</time>
      </trkpt>
      <trkpt lat="43.3867" lon="6.10931">
        <ele>288.39999389648</ele>
        <time>2016-05-18T14:51:49Z</time>
      </trkpt>
      <trkpt lat="43.38671" lon="6.10925">
        <ele>288.60000610352</ele>
        <time>2016-05-18T14:51:50Z</time>
      </trkpt>
      <trkpt lat="43.38673" lon="6.1092">
        <ele>288.60000610352</ele>
        <time>2016-05-18T14:51:51Z</time>
      </trkpt>
      <trkpt lat="43.38675" lon="6.10908">
        <ele>288.60000610352</ele>
        <time>2016-05-18T14:51:53Z</time>
      </trkpt>
      <trkpt lat="43.38677" lon="6.10903">
        <ele>288.79998779297</ele>
        <time>2016-05-18T14:51:54Z</time>
      </trkpt>
      <trkpt lat="43.3868" lon="6.10898">
        <ele>288.79998779297</ele>
        <time>2016-05-18T14:51:55Z</time>
      </trkpt>
      <trkpt lat="43.38682" lon="6.10892">
        <ele>288.79998779297</ele>
        <time>2016-05-18T14:51:56Z</time>
      </trkpt>
      <trkpt lat="43.38684" lon="6.10886">
        <ele>288.39999389648</ele>
        <time>2016-05-18T14:51:57Z</time>
      </trkpt>
      <trkpt lat="43.38688" lon="6.10876">
        <ele>288.20001220703</ele>
        <time>2016-05-18T14:51:59Z</time>
      </trkpt>
      <trkpt lat="43.38689" lon="6.10871">
        <ele>288.20001220703</ele>
        <time>2016-05-18T14:52:00Z</time>
      </trkpt>
      <trkpt lat="43.3869" lon="6.10866">
        <ele>288.20001220703</ele>
        <time>2016-05-18T14:52:01Z</time>
      </trkpt>
      <trkpt lat="43.38691" lon="6.10855">
        <ele>288.39999389648</ele>
        <time>2016-05-18T14:52:03Z</time>
      </trkpt>
      <trkpt lat="43.38693" lon="6.10846">
        <ele>288.79998779297</ele>
        <time>2016-05-18T14:52:05Z</time>
      </trkpt>
      <trkpt lat="43.38695" lon="6.10837">
        <ele>288.79998779297</ele>
        <time>2016-05-18T14:52:07Z</time>
      </trkpt>
      <trkpt lat="43.38698" lon="6.10828">
        <ele>288.79998779297</ele>
        <time>2016-05-18T14:52:09Z</time>
      </trkpt>
      <trkpt lat="43.38703" lon="6.10819">
        <ele>289</ele>
        <time>2016-05-18T14:52:11Z</time>
      </trkpt>
      <trkpt lat="43.38706" lon="6.10814">
        <ele>288.79998779297</ele>
        <time>2016-05-18T14:52:12Z</time>
      </trkpt>
      <trkpt lat="43.3871" lon="6.10811">
        <ele>288.79998779297</ele>
        <time>2016-05-18T14:52:13Z</time>
      </trkpt>
      <trkpt lat="43.38718" lon="6.10805">
        <ele>288.79998779297</ele>
        <time>2016-05-18T14:52:15Z</time>
      </trkpt>
      <trkpt lat="43.38722" lon="6.10803">
        <ele>288.60000610352</ele>
        <time>2016-05-18T14:52:16Z</time>
      </trkpt>
      <trkpt lat="43.38726" lon="6.108">
        <ele>288.39999389648</ele>
        <time>2016-05-18T14:52:17Z</time>
      </trkpt>
      <trkpt lat="43.38731" lon="6.1079">
        <ele>288</ele>
        <time>2016-05-18T14:52:19Z</time>
      </trkpt>
      <trkpt lat="43.38733" lon="6.10784">
        <ele>288</ele>
        <time>2016-05-18T14:52:20Z</time>
      </trkpt>
      <trkpt lat="43.38735" lon="6.10779">
        <ele>287.79998779297</ele>
        <time>2016-05-18T14:52:21Z</time>
      </trkpt>
      <trkpt lat="43.3874" lon="6.10772">
        <ele>288</ele>
        <time>2016-05-18T14:52:23Z</time>
      </trkpt>
      <trkpt lat="43.38747" lon="6.10769">
        <ele>287.79998779297</ele>
        <time>2016-05-18T14:52:25Z</time>
      </trkpt>
      <trkpt lat="43.3875" lon="6.10767">
        <ele>287.79998779297</ele>
        <time>2016-05-18T14:52:26Z</time>
      </trkpt>
      <trkpt lat="43.38754" lon="6.10766">
        <ele>287.60000610352</ele>
        <time>2016-05-18T14:52:27Z</time>
      </trkpt>
      <trkpt lat="43.3876" lon="6.10764">
        <ele>287.39999389648</ele>
        <time>2016-05-18T14:52:29Z</time>
      </trkpt>
      <trkpt lat="43.38765" lon="6.1076">
        <ele>286.79998779297</ele>
        <time>2016-05-18T14:52:31Z</time>
      </trkpt>
      <trkpt lat="43.38766" lon="6.10759">
        <ele>286.39999389648</ele>
        <time>2016-05-18T14:52:32Z</time>
      </trkpt>
      <trkpt lat="43.38767" lon="6.10759">
        <ele>286.20001220703</ele>
        <time>2016-05-18T14:52:33Z</time>
      </trkpt>
      <trkpt lat="43.3877" lon="6.10759">
        <ele>285.79998779297</ele>
        <time>2016-05-18T14:52:35Z</time>
      </trkpt>
      <trkpt lat="43.38771" lon="6.10759">
        <ele>286</ele>
        <time>2016-05-18T14:52:36Z</time>
      </trkpt>
      <trkpt lat="43.38773" lon="6.10759">
        <ele>285.79998779297</ele>
        <time>2016-05-18T14:52:37Z</time>
      </trkpt>
      <trkpt lat="43.38775" lon="6.10759">
        <ele>285.79998779297</ele>
        <time>2016-05-18T14:52:38Z</time>
      </trkpt>
      <trkpt lat="43.38776" lon="6.10758">
        <ele>285.60000610352</ele>
        <time>2016-05-18T14:52:39Z</time>
      </trkpt>
      <trkpt lat="43.38777" lon="6.10758">
        <ele>285.39999389648</ele>
        <time>2016-05-18T14:52:40Z</time>
      </trkpt>
      <trkpt lat="43.38777" lon="6.10758">
        <ele>285.39999389648</ele>
        <time>2016-05-18T14:52:41Z</time>
      </trkpt>
      <trkpt lat="43.38778" lon="6.10758">
        <ele>285.20001220703</ele>
        <time>2016-05-18T14:52:43Z</time>
      </trkpt>
      <trkpt lat="43.38778" lon="6.10758">
        <ele>285</ele>
        <time>2016-05-18T14:52:45Z</time>
      </trkpt>
      <trkpt lat="43.38778" lon="6.10758">
        <ele>285</ele>
        <time>2016-05-18T14:52:47Z</time>
      </trkpt>
      <trkpt lat="43.38778" lon="6.10758">
        <ele>285.20001220703</ele>
        <time>2016-05-18T14:52:49Z</time>
      </trkpt>
      <trkpt lat="43.38778" lon="6.10758">
        <ele>285.20001220703</ele>
        <time>2016-05-18T14:52:51Z</time>
      </trkpt>
      <trkpt lat="43.38778" lon="6.10758">
        <ele>285.20001220703</ele>
        <time>2016-05-18T14:52:53Z</time>
      </trkpt>
      <trkpt lat="43.38778" lon="6.10758">
        <ele>285.20001220703</ele>
        <time>2016-05-18T14:52:54Z</time>
      </trkpt>
      <trkpt lat="43.38778" lon="6.10758">
        <ele>285.20001220703</ele>
        <time>2016-05-18T14:52:57Z</time>
      </trkpt>
      <trkpt lat="43.38778" lon="6.10758">
        <ele>285.20001220703</ele>
        <time>2016-05-18T14:52:59Z</time>
      </trkpt>
      <trkpt lat="43.38778" lon="6.10758">
        <ele>285.20001220703</ele>
        <time>2016-05-18T14:53:01Z</time>
      </trkpt>
      <trkpt lat="43.38778" lon="6.10757">
        <ele>285.20001220703</ele>
        <time>2016-05-18T14:53:03Z</time>
      </trkpt>
      <trkpt lat="43.38778" lon="6.10757">
        <ele>285</ele>
        <time>2016-05-18T14:53:05Z</time>
      </trkpt>
      <trkpt lat="43.38778" lon="6.10757">
        <ele>285</ele>
        <time>2016-05-18T14:53:06Z</time>
      </trkpt>
      <trkpt lat="43.38778" lon="6.10757">
        <ele>285</ele>
        <time>2016-05-18T14:53:07Z</time>
      </trkpt>
      <trkpt lat="43.38778" lon="6.10757">
        <ele>285</ele>
        <time>2016-05-18T14:53:09Z</time>
      </trkpt>
      <trkpt lat="43.38778" lon="6.10757">
        <ele>285</ele>
        <time>2016-05-18T14:53:11Z</time>
      </trkpt>
      <trkpt lat="43.38778" lon="6.10757">
        <ele>285</ele>
        <time>2016-05-18T14:53:13Z</time>
      </trkpt>
      <trkpt lat="43.38778" lon="6.10757">
        <ele>285.20001220703</ele>
        <time>2016-05-18T14:53:15Z</time>
      </trkpt>
      <trkpt lat="43.38778" lon="6.10757">
        <ele>285.20001220703</ele>
        <time>2016-05-18T14:53:17Z</time>
      </trkpt>
      <trkpt lat="43.38778" lon="6.10757">
        <ele>285.20001220703</ele>
        <time>2016-05-18T14:53:19Z</time>
      </trkpt>
      <trkpt lat="43.38778" lon="6.10757">
        <ele>285.20001220703</ele>
        <time>2016-05-18T14:53:21Z</time>
      </trkpt>
      <trkpt lat="43.38778" lon="6.10757">
        <ele>285.20001220703</ele>
        <time>2016-05-18T14:53:23Z</time>
      </trkpt>
      <trkpt lat="43.38778" lon="6.10757">
        <ele>285.20001220703</ele>
        <time>2016-05-18T14:53:25Z</time>
      </trkpt>
      <trkpt lat="43.38778" lon="6.10757">
        <ele>285.20001220703</ele>
        <time>2016-05-18T14:53:27Z</time>
      </trkpt>
      <trkpt lat="43.3878" lon="6.10757">
        <ele>285</ele>
        <time>2016-05-18T14:53:29Z</time>
      </trkpt>
      <trkpt lat="43.38784" lon="6.10757">
        <ele>284.79998779297</ele>
        <time>2016-05-18T14:53:31Z</time>
      </trkpt>
      <trkpt lat="43.38791" lon="6.10755">
        <ele>284.79998779297</ele>
        <time>2016-05-18T14:53:33Z</time>
      </trkpt>
      <trkpt lat="43.38801" lon="6.10754">
        <ele>284.60000610352</ele>
        <time>2016-05-18T14:53:35Z</time>
      </trkpt>
      <trkpt lat="43.38811" lon="6.10754">
        <ele>284.39999389648</ele>
        <time>2016-05-18T14:53:37Z</time>
      </trkpt>
      <trkpt lat="43.38821" lon="6.10752">
        <ele>283.79998779297</ele>
        <time>2016-05-18T14:53:39Z</time>
      </trkpt>
      <trkpt lat="43.38826" lon="6.10752">
        <ele>283.20001220703</ele>
        <time>2016-05-18T14:53:40Z</time>
      </trkpt>
      <trkpt lat="43.38831" lon="6.10752">
        <ele>283</ele>
        <time>2016-05-18T14:53:41Z</time>
      </trkpt>
      <trkpt lat="43.38836" lon="6.10752">
        <ele>282.60000610352</ele>
        <time>2016-05-18T14:53:42Z</time>
      </trkpt>
      <trkpt lat="43.38841" lon="6.10752">
        <ele>282.39999389648</ele>
        <time>2016-05-18T14:53:43Z</time>
      </trkpt>
      <trkpt lat="43.38851" lon="6.10751">
        <ele>282.39999389648</ele>
        <time>2016-05-18T14:53:45Z</time>
      </trkpt>
      <trkpt lat="43.38856" lon="6.10751">
        <ele>282.20001220703</ele>
        <time>2016-05-18T14:53:46Z</time>
      </trkpt>
      <trkpt lat="43.3886" lon="6.10751">
        <ele>282</ele>
        <time>2016-05-18T14:53:47Z</time>
      </trkpt>
      <trkpt lat="43.38871" lon="6.10751">
        <ele>281.79998779297</ele>
        <time>2016-05-18T14:53:49Z</time>
      </trkpt>
      <trkpt lat="43.38881" lon="6.10753">
        <ele>281.20001220703</ele>
        <time>2016-05-18T14:53:51Z</time>
      </trkpt>
      <trkpt lat="43.38885" lon="6.10754">
        <ele>281.20001220703</ele>
        <time>2016-05-18T14:53:52Z</time>
      </trkpt>
      <trkpt lat="43.3889" lon="6.10756">
        <ele>281</ele>
        <time>2016-05-18T14:53:53Z</time>
      </trkpt>
      <trkpt lat="43.38899" lon="6.10759">
        <ele>280.79998779297</ele>
        <time>2016-05-18T14:53:55Z</time>
      </trkpt>
      <trkpt lat="43.38903" lon="6.1076">
        <ele>280.79998779297</ele>
        <time>2016-05-18T14:53:56Z</time>
      </trkpt>
      <trkpt lat="43.38908" lon="6.10763">
        <ele>280.79998779297</ele>
        <time>2016-05-18T14:53:57Z</time>
      </trkpt>
      <trkpt lat="43.38916" lon="6.10772">
        <ele>280.79998779297</ele>
        <time>2016-05-18T14:53:59Z</time>
      </trkpt>
      <trkpt lat="43.3892" lon="6.10785">
        <ele>280.60000610352</ele>
        <time>2016-05-18T14:54:01Z</time>
      </trkpt>
      <trkpt lat="43.38922" lon="6.10792">
        <ele>280.60000610352</ele>
        <time>2016-05-18T14:54:02Z</time>
      </trkpt>
      <trkpt lat="43.38924" lon="6.10798">
        <ele>280.39999389648</ele>
        <time>2016-05-18T14:54:03Z</time>
      </trkpt>
      <trkpt lat="43.38927" lon="6.10809">
        <ele>280.20001220703</ele>
        <time>2016-05-18T14:54:05Z</time>
      </trkpt>
      <trkpt lat="43.38932" lon="6.10816">
        <ele>280</ele>
        <time>2016-05-18T14:54:07Z</time>
      </trkpt>
      <trkpt lat="43.38938" lon="6.10822">
        <ele>280</ele>
        <time>2016-05-18T14:54:09Z</time>
      </trkpt>
      <trkpt lat="43.38945" lon="6.10826">
        <ele>280</ele>
        <time>2016-05-18T14:54:11Z</time>
      </trkpt>
      <trkpt lat="43.38949" lon="6.10828">
        <ele>280</ele>
        <time>2016-05-18T14:54:12Z</time>
      </trkpt>
      <trkpt lat="43.38952" lon="6.10829">
        <ele>279.79998779297</ele>
        <time>2016-05-18T14:54:13Z</time>
      </trkpt>
      <trkpt lat="43.3896" lon="6.10833">
        <ele>279.79998779297</ele>
        <time>2016-05-18T14:54:15Z</time>
      </trkpt>
      <trkpt lat="43.38966" lon="6.10835">
        <ele>279.79998779297</ele>
        <time>2016-05-18T14:54:17Z</time>
      </trkpt>
      <trkpt lat="43.38972" lon="6.10839">
        <ele>280</ele>
        <time>2016-05-18T14:54:19Z</time>
      </trkpt>
      <trkpt lat="43.38979" lon="6.10842">
        <ele>280</ele>
        <time>2016-05-18T14:54:21Z</time>
      </trkpt>
      <trkpt lat="43.38987" lon="6.10846">
        <ele>279.79998779297</ele>
        <time>2016-05-18T14:54:23Z</time>
      </trkpt>
      <trkpt lat="43.38995" lon="6.10847">
        <ele>279.79998779297</ele>
        <time>2016-05-18T14:54:25Z</time>
      </trkpt>
      <trkpt lat="43.39001" lon="6.10846">
        <ele>279.79998779297</ele>
        <time>2016-05-18T14:54:27Z</time>
      </trkpt>
      <trkpt lat="43.39007" lon="6.10842">
        <ele>279.79998779297</ele>
        <time>2016-05-18T14:54:29Z</time>
      </trkpt>
      <trkpt lat="43.39014" lon="6.10839">
        <ele>279.79998779297</ele>
        <time>2016-05-18T14:54:31Z</time>
      </trkpt>
      <trkpt lat="43.39021" lon="6.10837">
        <ele>279.60000610352</ele>
        <time>2016-05-18T14:54:33Z</time>
      </trkpt>
      <trkpt lat="43.3903" lon="6.10833">
        <ele>279</ele>
        <time>2016-05-18T14:54:35Z</time>
      </trkpt>
      <trkpt lat="43.39041" lon="6.10829">
        <ele>279.20001220703</ele>
        <time>2016-05-18T14:54:37Z</time>
      </trkpt>
      <trkpt lat="43.39051" lon="6.10825">
        <ele>278.79998779297</ele>
        <time>2016-05-18T14:54:39Z</time>
      </trkpt>
      <trkpt lat="43.39062" lon="6.1082">
        <ele>278.39999389648</ele>
        <time>2016-05-18T14:54:41Z</time>
      </trkpt>
      <trkpt lat="43.39072" lon="6.10815">
        <ele>278.39999389648</ele>
        <time>2016-05-18T14:54:43Z</time>
      </trkpt>
      <trkpt lat="43.3908" lon="6.10808">
        <ele>278.60000610352</ele>
        <time>2016-05-18T14:54:45Z</time>
      </trkpt>
      <trkpt lat="43.39087" lon="6.108">
        <ele>278.79998779297</ele>
        <time>2016-05-18T14:54:47Z</time>
      </trkpt>
      <trkpt lat="43.39094" lon="6.10792">
        <ele>279</ele>
        <time>2016-05-18T14:54:49Z</time>
      </trkpt>
      <trkpt lat="43.39101" lon="6.10785">
        <ele>278.79998779297</ele>
        <time>2016-05-18T14:54:51Z</time>
      </trkpt>
      <trkpt lat="43.3911" lon="6.10779">
        <ele>279</ele>
        <time>2016-05-18T14:54:53Z</time>
      </trkpt>
      <trkpt lat="43.3912" lon="6.10773">
        <ele>278.60000610352</ele>
        <time>2016-05-18T14:54:55Z</time>
      </trkpt>
      <trkpt lat="43.39126" lon="6.1077">
        <ele>278.60000610352</ele>
        <time>2016-05-18T14:54:56Z</time>
      </trkpt>
      <trkpt lat="43.39131" lon="6.10766">
        <ele>278.20001220703</ele>
        <time>2016-05-18T14:54:57Z</time>
      </trkpt>
      <trkpt lat="43.39142" lon="6.10759">
        <ele>277.60000610352</ele>
        <time>2016-05-18T14:54:59Z</time>
      </trkpt>
      <trkpt lat="43.39147" lon="6.10755">
        <ele>277.39999389648</ele>
        <time>2016-05-18T14:55:00Z</time>
      </trkpt>
      <trkpt lat="43.39153" lon="6.1075">
        <ele>276.79998779297</ele>
        <time>2016-05-18T14:55:01Z</time>
      </trkpt>
      <trkpt lat="43.39161" lon="6.10738">
        <ele>276</ele>
        <time>2016-05-18T14:55:03Z</time>
      </trkpt>
      <trkpt lat="43.39164" lon="6.10731">
        <ele>275.79998779297</ele>
        <time>2016-05-18T14:55:04Z</time>
      </trkpt>
      <trkpt lat="43.39167" lon="6.10724">
        <ele>275.60000610352</ele>
        <time>2016-05-18T14:55:05Z</time>
      </trkpt>
      <trkpt lat="43.39172" lon="6.10707">
        <ele>275.39999389648</ele>
        <time>2016-05-18T14:55:07Z</time>
      </trkpt>
      <trkpt lat="43.39175" lon="6.10698">
        <ele>275.20001220703</ele>
        <time>2016-05-18T14:55:08Z</time>
      </trkpt>
      <trkpt lat="43.39177" lon="6.1069">
        <ele>275.20001220703</ele>
        <time>2016-05-18T14:55:09Z</time>
      </trkpt>
      <trkpt lat="43.39183" lon="6.10674">
        <ele>275</ele>
        <time>2016-05-18T14:55:11Z</time>
      </trkpt>
      <trkpt lat="43.3919" lon="6.1066">
        <ele>274.79998779297</ele>
        <time>2016-05-18T14:55:13Z</time>
      </trkpt>
      <trkpt lat="43.39194" lon="6.10653">
        <ele>274.60000610352</ele>
        <time>2016-05-18T14:55:14Z</time>
      </trkpt>
      <trkpt lat="43.39199" lon="6.10647">
        <ele>274.39999389648</ele>
        <time>2016-05-18T14:55:15Z</time>
      </trkpt>
      <trkpt lat="43.3921" lon="6.10638">
        <ele>274</ele>
        <time>2016-05-18T14:55:17Z</time>
      </trkpt>
      <trkpt lat="43.39215" lon="6.10634">
        <ele>274</ele>
        <time>2016-05-18T14:55:18Z</time>
      </trkpt>
      <trkpt lat="43.39221" lon="6.10629">
        <ele>273.79998779297</ele>
        <time>2016-05-18T14:55:19Z</time>
      </trkpt>
      <trkpt lat="43.39225" lon="6.10624">
        <ele>273.60000610352</ele>
        <time>2016-05-18T14:55:20Z</time>
      </trkpt>
      <trkpt lat="43.3923" lon="6.10618">
        <ele>273.39999389648</ele>
        <time>2016-05-18T14:55:21Z</time>
      </trkpt>
      <trkpt lat="43.39238" lon="6.10607">
        <ele>273.39999389648</ele>
        <time>2016-05-18T14:55:23Z</time>
      </trkpt>
      <trkpt lat="43.39247" lon="6.10601">
        <ele>273.60000610352</ele>
        <time>2016-05-18T14:55:25Z</time>
      </trkpt>
      <trkpt lat="43.39254" lon="6.10592">
        <ele>274</ele>
        <time>2016-05-18T14:55:27Z</time>
      </trkpt>
      <trkpt lat="43.39261" lon="6.10582">
        <ele>274.20001220703</ele>
        <time>2016-05-18T14:55:29Z</time>
      </trkpt>
      <trkpt lat="43.39267" lon="6.10571">
        <ele>274.20001220703</ele>
        <time>2016-05-18T14:55:31Z</time>
      </trkpt>
      <trkpt lat="43.39272" lon="6.10559">
        <ele>274.39999389648</ele>
        <time>2016-05-18T14:55:33Z</time>
      </trkpt>
      <trkpt lat="43.39275" lon="6.10547">
        <ele>274.39999389648</ele>
        <time>2016-05-18T14:55:35Z</time>
      </trkpt>
      <trkpt lat="43.3928" lon="6.10536">
        <ele>274</ele>
        <time>2016-05-18T14:55:37Z</time>
      </trkpt>
      <trkpt lat="43.39286" lon="6.10524">
        <ele>273.60000610352</ele>
        <time>2016-05-18T14:55:39Z</time>
      </trkpt>
      <trkpt lat="43.39289" lon="6.10517">
        <ele>273.20001220703</ele>
        <time>2016-05-18T14:55:40Z</time>
      </trkpt>
      <trkpt lat="43.39292" lon="6.1051">
        <ele>273.20001220703</ele>
        <time>2016-05-18T14:55:41Z</time>
      </trkpt>
      <trkpt lat="43.39296" lon="6.10495">
        <ele>272.79998779297</ele>
        <time>2016-05-18T14:55:43Z</time>
      </trkpt>
      <trkpt lat="43.393" lon="6.10487">
        <ele>272.79998779297</ele>
        <time>2016-05-18T14:55:44Z</time>
      </trkpt>
      <trkpt lat="43.39304" lon="6.1048">
        <ele>272.79998779297</ele>
        <time>2016-05-18T14:55:45Z</time>
      </trkpt>
      <trkpt lat="43.39312" lon="6.10465">
        <ele>272</ele>
        <time>2016-05-18T14:55:47Z</time>
      </trkpt>
      <trkpt lat="43.3932" lon="6.10449">
        <ele>271</ele>
        <time>2016-05-18T14:55:49Z</time>
      </trkpt>
      <trkpt lat="43.39325" lon="6.10442">
        <ele>270.39999389648</ele>
        <time>2016-05-18T14:55:50Z</time>
      </trkpt>
      <trkpt lat="43.39329" lon="6.10434">
        <ele>270.20001220703</ele>
        <time>2016-05-18T14:55:51Z</time>
      </trkpt>
      <trkpt lat="43.39334" lon="6.10428">
        <ele>270.20001220703</ele>
        <time>2016-05-18T14:55:52Z</time>
      </trkpt>
      <trkpt lat="43.39339" lon="6.10423">
        <ele>270.20001220703</ele>
        <time>2016-05-18T14:55:53Z</time>
      </trkpt>
      <trkpt lat="43.39343" lon="6.1042">
        <ele>270.20001220703</ele>
        <time>2016-05-18T14:55:54Z</time>
      </trkpt>
      <trkpt lat="43.39348" lon="6.10418">
        <ele>270.20001220703</ele>
        <time>2016-05-18T14:55:55Z</time>
      </trkpt>
      <trkpt lat="43.39359" lon="6.10419">
        <ele>269.79998779297</ele>
        <time>2016-05-18T14:55:57Z</time>
      </trkpt>
      <trkpt lat="43.39363" lon="6.10418">
        <ele>269.60000610352</ele>
        <time>2016-05-18T14:55:58Z</time>
      </trkpt>
      <trkpt lat="43.39367" lon="6.10415">
        <ele>269.39999389648</ele>
        <time>2016-05-18T14:55:59Z</time>
      </trkpt>
      <trkpt lat="43.39371" lon="6.10404">
        <ele>269</ele>
        <time>2016-05-18T14:56:01Z</time>
      </trkpt>
      <trkpt lat="43.39373" lon="6.10397">
        <ele>268.79998779297</ele>
        <time>2016-05-18T14:56:02Z</time>
      </trkpt>
      <trkpt lat="43.39375" lon="6.1039">
        <ele>268.20001220703</ele>
        <time>2016-05-18T14:56:03Z</time>
      </trkpt>
      <trkpt lat="43.39378" lon="6.10384">
        <ele>267.79998779297</ele>
        <time>2016-05-18T14:56:04Z</time>
      </trkpt>
      <trkpt lat="43.39382" lon="6.10377">
        <ele>267.60000610352</ele>
        <time>2016-05-18T14:56:05Z</time>
      </trkpt>
      <trkpt lat="43.39389" lon="6.10362">
        <ele>267</ele>
        <time>2016-05-18T14:56:07Z</time>
      </trkpt>
      <trkpt lat="43.39396" lon="6.10348">
        <ele>266.79998779297</ele>
        <time>2016-05-18T14:56:09Z</time>
      </trkpt>
      <trkpt lat="43.39403" lon="6.10334">
        <ele>266.79998779297</ele>
        <time>2016-05-18T14:56:11Z</time>
      </trkpt>
      <trkpt lat="43.39411" lon="6.10321">
        <ele>267</ele>
        <time>2016-05-18T14:56:13Z</time>
      </trkpt>
      <trkpt lat="43.39415" lon="6.10315">
        <ele>267</ele>
        <time>2016-05-18T14:56:14Z</time>
      </trkpt>
      <trkpt lat="43.3942" lon="6.10309">
        <ele>267</ele>
        <time>2016-05-18T14:56:15Z</time>
      </trkpt>
      <trkpt lat="43.39425" lon="6.10304">
        <ele>267</ele>
        <time>2016-05-18T14:56:16Z</time>
      </trkpt>
      <trkpt lat="43.39429" lon="6.103">
        <ele>267</ele>
        <time>2016-05-18T14:56:17Z</time>
      </trkpt>
      <trkpt lat="43.3944" lon="6.10295">
        <ele>267</ele>
        <time>2016-05-18T14:56:19Z</time>
      </trkpt>
      <trkpt lat="43.39449" lon="6.10289">
        <ele>266.79998779297</ele>
        <time>2016-05-18T14:56:21Z</time>
      </trkpt>
      <trkpt lat="43.39457" lon="6.10282">
        <ele>266.60000610352</ele>
        <time>2016-05-18T14:56:23Z</time>
      </trkpt>
      <trkpt lat="43.39465" lon="6.10274">
        <ele>266.20001220703</ele>
        <time>2016-05-18T14:56:25Z</time>
      </trkpt>
      <trkpt lat="43.39469" lon="6.1027">
        <ele>265.79998779297</ele>
        <time>2016-05-18T14:56:26Z</time>
      </trkpt>
      <trkpt lat="43.39473" lon="6.10265">
        <ele>265.60000610352</ele>
        <time>2016-05-18T14:56:27Z</time>
      </trkpt>
      <trkpt lat="43.39482" lon="6.10255">
        <ele>264.79998779297</ele>
        <time>2016-05-18T14:56:29Z</time>
      </trkpt>
      <trkpt lat="43.39489" lon="6.10244">
        <ele>264</ele>
        <time>2016-05-18T14:56:31Z</time>
      </trkpt>
      <trkpt lat="43.39492" lon="6.10239">
        <ele>263.79998779297</ele>
        <time>2016-05-18T14:56:32Z</time>
      </trkpt>
      <trkpt lat="43.39495" lon="6.10232">
        <ele>263.79998779297</ele>
        <time>2016-05-18T14:56:33Z</time>
      </trkpt>
      <trkpt lat="43.39501" lon="6.10218">
        <ele>263.60000610352</ele>
        <time>2016-05-18T14:56:35Z</time>
      </trkpt>
      <trkpt lat="43.39505" lon="6.10202">
        <ele>263.20001220703</ele>
        <time>2016-05-18T14:56:37Z</time>
      </trkpt>
      <trkpt lat="43.39509" lon="6.10185">
        <ele>262.60000610352</ele>
        <time>2016-05-18T14:56:39Z</time>
      </trkpt>
      <trkpt lat="43.39514" lon="6.10167">
        <ele>262.20001220703</ele>
        <time>2016-05-18T14:56:41Z</time>
      </trkpt>
      <trkpt lat="43.39519" lon="6.10149">
        <ele>261.60000610352</ele>
        <time>2016-05-18T14:56:43Z</time>
      </trkpt>
      <trkpt lat="43.39521" lon="6.1014">
        <ele>261.39999389648</ele>
        <time>2016-05-18T14:56:44Z</time>
      </trkpt>
      <trkpt lat="43.39523" lon="6.10131">
        <ele>261</ele>
        <time>2016-05-18T14:56:45Z</time>
      </trkpt>
      <trkpt lat="43.39525" lon="6.10122">
        <ele>260.79998779297</ele>
        <time>2016-05-18T14:56:46Z</time>
      </trkpt>
      <trkpt lat="43.39529" lon="6.10113">
        <ele>260.60000610352</ele>
        <time>2016-05-18T14:56:47Z</time>
      </trkpt>
      <trkpt lat="43.39532" lon="6.10105">
        <ele>260.60000610352</ele>
        <time>2016-05-18T14:56:48Z</time>
      </trkpt>
      <trkpt lat="43.39536" lon="6.10098">
        <ele>260.60000610352</ele>
        <time>2016-05-18T14:56:49Z</time>
      </trkpt>
      <trkpt lat="43.39544" lon="6.10083">
        <ele>260.39999389648</ele>
        <time>2016-05-18T14:56:51Z</time>
      </trkpt>
      <trkpt lat="43.39549" lon="6.10067">
        <ele>259.39999389648</ele>
        <time>2016-05-18T14:56:53Z</time>
      </trkpt>
      <trkpt lat="43.39551" lon="6.10058">
        <ele>258.60000610352</ele>
        <time>2016-05-18T14:56:54Z</time>
      </trkpt>
      <trkpt lat="43.39553" lon="6.1005">
        <ele>258.39999389648</ele>
        <time>2016-05-18T14:56:55Z</time>
      </trkpt>
      <trkpt lat="43.39555" lon="6.10041">
        <ele>258.39999389648</ele>
        <time>2016-05-18T14:56:56Z</time>
      </trkpt>
      <trkpt lat="43.39557" lon="6.10033">
        <ele>258.39999389648</ele>
        <time>2016-05-18T14:56:57Z</time>
      </trkpt>
      <trkpt lat="43.39557" lon="6.10025">
        <ele>258.39999389648</ele>
        <time>2016-05-18T14:56:58Z</time>
      </trkpt>
      <trkpt lat="43.39557" lon="6.10018">
        <ele>258.39999389648</ele>
        <time>2016-05-18T14:56:59Z</time>
      </trkpt>
      <trkpt lat="43.39555" lon="6.10005">
        <ele>258.20001220703</ele>
        <time>2016-05-18T14:57:01Z</time>
      </trkpt>
      <trkpt lat="43.39555" lon="6.09999">
        <ele>258</ele>
        <time>2016-05-18T14:57:02Z</time>
      </trkpt>
      <trkpt lat="43.39555" lon="6.09994">
        <ele>258</ele>
        <time>2016-05-18T14:57:03Z</time>
      </trkpt>
      <trkpt lat="43.39555" lon="6.09984">
        <ele>257.79998779297</ele>
        <time>2016-05-18T14:57:05Z</time>
      </trkpt>
      <trkpt lat="43.39556" lon="6.09975">
        <ele>258.39999389648</ele>
        <time>2016-05-18T14:57:07Z</time>
      </trkpt>
      <trkpt lat="43.39557" lon="6.0997">
        <ele>258.60000610352</ele>
        <time>2016-05-18T14:57:08Z</time>
      </trkpt>
      <trkpt lat="43.39557" lon="6.09965">
        <ele>259</ele>
        <time>2016-05-18T14:57:09Z</time>
      </trkpt>
      <trkpt lat="43.39557" lon="6.09956">
        <ele>259.39999389648</ele>
        <time>2016-05-18T14:57:11Z</time>
      </trkpt>
      <trkpt lat="43.39557" lon="6.09947">
        <ele>259.60000610352</ele>
        <time>2016-05-18T14:57:13Z</time>
      </trkpt>
      <trkpt lat="43.39556" lon="6.09943">
        <ele>259.60000610352</ele>
        <time>2016-05-18T14:57:14Z</time>
      </trkpt>
      <trkpt lat="43.39555" lon="6.09939">
        <ele>259.79998779297</ele>
        <time>2016-05-18T14:57:15Z</time>
      </trkpt>
      <trkpt lat="43.39553" lon="6.09932">
        <ele>260.39999389648</ele>
        <time>2016-05-18T14:57:17Z</time>
      </trkpt>
      <trkpt lat="43.39553" lon="6.09929">
        <ele>260.79998779297</ele>
        <time>2016-05-18T14:57:18Z</time>
      </trkpt>
      <trkpt lat="43.39551" lon="6.09927">
        <ele>261.20001220703</ele>
        <time>2016-05-18T14:57:19Z</time>
      </trkpt>
      <trkpt lat="43.39548" lon="6.09921">
        <ele>261.60000610352</ele>
        <time>2016-05-18T14:57:21Z</time>
      </trkpt>
      <trkpt lat="43.39547" lon="6.09918">
        <ele>261.79998779297</ele>
        <time>2016-05-18T14:57:22Z</time>
      </trkpt>
      <trkpt lat="43.39547" lon="6.09915">
        <ele>261.79998779297</ele>
        <time>2016-05-18T14:57:23Z</time>
      </trkpt>
      <trkpt lat="43.39547" lon="6.09911">
        <ele>262</ele>
        <time>2016-05-18T14:57:24Z</time>
      </trkpt>
      <trkpt lat="43.39547" lon="6.09908">
        <ele>262.20001220703</ele>
        <time>2016-05-18T14:57:25Z</time>
      </trkpt>
      <trkpt lat="43.39549" lon="6.09901">
        <ele>262.60000610352</ele>
        <time>2016-05-18T14:57:27Z</time>
      </trkpt>
      <trkpt lat="43.39552" lon="6.09896">
        <ele>262.79998779297</ele>
        <time>2016-05-18T14:57:29Z</time>
      </trkpt>
      <trkpt lat="43.39555" lon="6.09889">
        <ele>263</ele>
        <time>2016-05-18T14:57:31Z</time>
      </trkpt>
      <trkpt lat="43.39557" lon="6.09879">
        <ele>263</ele>
        <time>2016-05-18T14:57:33Z</time>
      </trkpt>
      <trkpt lat="43.39558" lon="6.09874">
        <ele>263</ele>
        <time>2016-05-18T14:57:34Z</time>
      </trkpt>
      <trkpt lat="43.39558" lon="6.09869">
        <ele>263</ele>
        <time>2016-05-18T14:57:35Z</time>
      </trkpt>
      <trkpt lat="43.3956" lon="6.09859">
        <ele>263</ele>
        <time>2016-05-18T14:57:37Z</time>
      </trkpt>
      <trkpt lat="43.39561" lon="6.09847">
        <ele>263</ele>
        <time>2016-05-18T14:57:39Z</time>
      </trkpt>
      <trkpt lat="43.39563" lon="6.09836">
        <ele>263.39999389648</ele>
        <time>2016-05-18T14:57:41Z</time>
      </trkpt>
      <trkpt lat="43.39564" lon="6.0983">
        <ele>263.60000610352</ele>
        <time>2016-05-18T14:57:42Z</time>
      </trkpt>
      <trkpt lat="43.39565" lon="6.09825">
        <ele>263.79998779297</ele>
        <time>2016-05-18T14:57:43Z</time>
      </trkpt>
      <trkpt lat="43.39566" lon="6.09814">
        <ele>263.79998779297</ele>
        <time>2016-05-18T14:57:45Z</time>
      </trkpt>
      <trkpt lat="43.39569" lon="6.09803">
        <ele>263.79998779297</ele>
        <time>2016-05-18T14:57:47Z</time>
      </trkpt>
      <trkpt lat="43.3957" lon="6.09798">
        <ele>263.79998779297</ele>
        <time>2016-05-18T14:57:48Z</time>
      </trkpt>
      <trkpt lat="43.39571" lon="6.09792">
        <ele>263.79998779297</ele>
        <time>2016-05-18T14:57:49Z</time>
      </trkpt>
      <trkpt lat="43.39573" lon="6.09781">
        <ele>263.79998779297</ele>
        <time>2016-05-18T14:57:51Z</time>
      </trkpt>
      <trkpt lat="43.39576" lon="6.0977">
        <ele>263.79998779297</ele>
        <time>2016-05-18T14:57:53Z</time>
      </trkpt>
      <trkpt lat="43.39579" lon="6.09759">
        <ele>263.60000610352</ele>
        <time>2016-05-18T14:57:55Z</time>
      </trkpt>
      <trkpt lat="43.39583" lon="6.09748">
        <ele>263.60000610352</ele>
        <time>2016-05-18T14:57:57Z</time>
      </trkpt>
      <trkpt lat="43.39586" lon="6.09737">
        <ele>263.60000610352</ele>
        <time>2016-05-18T14:57:59Z</time>
      </trkpt>
      <trkpt lat="43.39589" lon="6.09725">
        <ele>263.60000610352</ele>
        <time>2016-05-18T14:58:01Z</time>
      </trkpt>
      <trkpt lat="43.39592" lon="6.09713">
        <ele>263.39999389648</ele>
        <time>2016-05-18T14:58:03Z</time>
      </trkpt>
      <trkpt lat="43.39594" lon="6.097">
        <ele>263.20001220703</ele>
        <time>2016-05-18T14:58:05Z</time>
      </trkpt>
      <trkpt lat="43.39596" lon="6.09694">
        <ele>263.20001220703</ele>
        <time>2016-05-18T14:58:06Z</time>
      </trkpt>
      <trkpt lat="43.39597" lon="6.09688">
        <ele>263.20001220703</ele>
        <time>2016-05-18T14:58:07Z</time>
      </trkpt>
      <trkpt lat="43.396" lon="6.09675">
        <ele>263.20001220703</ele>
        <time>2016-05-18T14:58:09Z</time>
      </trkpt>
      <trkpt lat="43.39603" lon="6.09663">
        <ele>263.39999389648</ele>
        <time>2016-05-18T14:58:11Z</time>
      </trkpt>
      <trkpt lat="43.39604" lon="6.09657">
        <ele>263.39999389648</ele>
        <time>2016-05-18T14:58:12Z</time>
      </trkpt>
      <trkpt lat="43.39605" lon="6.0965">
        <ele>263.39999389648</ele>
        <time>2016-05-18T14:58:13Z</time>
      </trkpt>
      <trkpt lat="43.39607" lon="6.09638">
        <ele>263.39999389648</ele>
        <time>2016-05-18T14:58:15Z</time>
      </trkpt>
      <trkpt lat="43.3961" lon="6.09625">
        <ele>263.39999389648</ele>
        <time>2016-05-18T14:58:17Z</time>
      </trkpt>
      <trkpt lat="43.39613" lon="6.09613">
        <ele>263.39999389648</ele>
        <time>2016-05-18T14:58:19Z</time>
      </trkpt>
      <trkpt lat="43.39615" lon="6.096">
        <ele>263.39999389648</ele>
        <time>2016-05-18T14:58:21Z</time>
      </trkpt>
      <trkpt lat="43.39618" lon="6.09589">
        <ele>263.39999389648</ele>
        <time>2016-05-18T14:58:23Z</time>
      </trkpt>
      <trkpt lat="43.39621" lon="6.09581">
        <ele>263.39999389648</ele>
        <time>2016-05-18T14:58:25Z</time>
      </trkpt>
      <trkpt lat="43.39622" lon="6.09579">
        <ele>263.39999389648</ele>
        <time>2016-05-18T14:58:26Z</time>
      </trkpt>
      <trkpt lat="43.39622" lon="6.09578">
        <ele>263.39999389648</ele>
        <time>2016-05-18T14:58:27Z</time>
      </trkpt>
      <trkpt lat="43.39623" lon="6.09575">
        <ele>263.39999389648</ele>
        <time>2016-05-18T14:58:29Z</time>
      </trkpt>
      <trkpt lat="43.39623" lon="6.09575">
        <ele>263.20001220703</ele>
        <time>2016-05-18T14:58:31Z</time>
      </trkpt>
      <trkpt lat="43.39622" lon="6.09575">
        <ele>263</ele>
        <time>2016-05-18T14:58:33Z</time>
      </trkpt>
      <trkpt lat="43.39622" lon="6.09575">
        <ele>262.79998779297</ele>
        <time>2016-05-18T14:58:35Z</time>
      </trkpt>
      <trkpt lat="43.39622" lon="6.09575">
        <ele>262.79998779297</ele>
        <time>2016-05-18T14:58:37Z</time>
      </trkpt>
      <trkpt lat="43.39622" lon="6.09575">
        <ele>262.79998779297</ele>
        <time>2016-05-18T14:58:39Z</time>
      </trkpt>
      <trkpt lat="43.39622" lon="6.09575">
        <ele>262.79998779297</ele>
        <time>2016-05-18T14:58:41Z</time>
      </trkpt>
      <trkpt lat="43.39622" lon="6.09575">
        <ele>263</ele>
        <time>2016-05-18T14:58:43Z</time>
      </trkpt>
      <trkpt lat="43.39622" lon="6.09575">
        <ele>263</ele>
        <time>2016-05-18T14:58:45Z</time>
      </trkpt>
      <trkpt lat="43.39622" lon="6.09575">
        <ele>263.20001220703</ele>
        <time>2016-05-18T14:58:47Z</time>
      </trkpt>
      <trkpt lat="43.39622" lon="6.09575">
        <ele>263.20001220703</ele>
        <time>2016-05-18T14:58:49Z</time>
      </trkpt>
      <trkpt lat="43.39622" lon="6.09575">
        <ele>263.20001220703</ele>
        <time>2016-05-18T14:58:51Z</time>
      </trkpt>
      <trkpt lat="43.39622" lon="6.09575">
        <ele>263.20001220703</ele>
        <time>2016-05-18T14:58:53Z</time>
      </trkpt>
      <trkpt lat="43.39622" lon="6.09575">
        <ele>263.20001220703</ele>
        <time>2016-05-18T14:58:55Z</time>
      </trkpt>
      <trkpt lat="43.39622" lon="6.09575">
        <ele>263.39999389648</ele>
        <time>2016-05-18T14:58:57Z</time>
      </trkpt>
      <trkpt lat="43.39622" lon="6.09575">
        <ele>263.39999389648</ele>
        <time>2016-05-18T14:58:59Z</time>
      </trkpt>
      <trkpt lat="43.39622" lon="6.09575">
        <ele>263.39999389648</ele>
        <time>2016-05-18T14:59:01Z</time>
      </trkpt>
      <trkpt lat="43.39622" lon="6.09575">
        <ele>263.39999389648</ele>
        <time>2016-05-18T14:59:03Z</time>
      </trkpt>
      <trkpt lat="43.39622" lon="6.09575">
        <ele>263.60000610352</ele>
        <time>2016-05-18T14:59:05Z</time>
      </trkpt>
      <trkpt lat="43.39622" lon="6.09575">
        <ele>263.60000610352</ele>
        <time>2016-05-18T14:59:07Z</time>
      </trkpt>
      <trkpt lat="43.39622" lon="6.09575">
        <ele>263.60000610352</ele>
        <time>2016-05-18T14:59:09Z</time>
      </trkpt>
      <trkpt lat="43.39622" lon="6.09575">
        <ele>263.39999389648</ele>
        <time>2016-05-18T14:59:11Z</time>
      </trkpt>
      <trkpt lat="43.39622" lon="6.09575">
        <ele>263.39999389648</ele>
        <time>2016-05-18T14:59:13Z</time>
      </trkpt>
      <trkpt lat="43.39622" lon="6.09575">
        <ele>263.39999389648</ele>
        <time>2016-05-18T14:59:15Z</time>
      </trkpt>
      <trkpt lat="43.39622" lon="6.09575">
        <ele>263.39999389648</ele>
        <time>2016-05-18T14:59:17Z</time>
      </trkpt>
      <trkpt lat="43.39622" lon="6.09575">
        <ele>263.39999389648</ele>
        <time>2016-05-18T14:59:18Z</time>
      </trkpt>
      <trkpt lat="43.39622" lon="6.09575">
        <ele>263.39999389648</ele>
        <time>2016-05-18T14:59:19Z</time>
      </trkpt>
      <trkpt lat="43.39622" lon="6.09575">
        <ele>263.60000610352</ele>
        <time>2016-05-18T14:59:21Z</time>
      </trkpt>
      <trkpt lat="43.39622" lon="6.09575">
        <ele>263.60000610352</ele>
        <time>2016-05-18T14:59:23Z</time>
      </trkpt>
      <trkpt lat="43.39622" lon="6.09575">
        <ele>263.60000610352</ele>
        <time>2016-05-18T14:59:25Z</time>
      </trkpt>
      <trkpt lat="43.39622" lon="6.09575">
        <ele>263.39999389648</ele>
        <time>2016-05-18T14:59:27Z</time>
      </trkpt>
      <trkpt lat="43.39622" lon="6.09575">
        <ele>263.39999389648</ele>
        <time>2016-05-18T14:59:29Z</time>
      </trkpt>
      <trkpt lat="43.39622" lon="6.09575">
        <ele>263.39999389648</ele>
        <time>2016-05-18T14:59:31Z</time>
      </trkpt>
      <trkpt lat="43.39622" lon="6.09575">
        <ele>263.39999389648</ele>
        <time>2016-05-18T14:59:33Z</time>
      </trkpt>
      <trkpt lat="43.39622" lon="6.09575">
        <ele>263.20001220703</ele>
        <time>2016-05-18T14:59:35Z</time>
      </trkpt>
      <trkpt lat="43.39622" lon="6.09575">
        <ele>263.20001220703</ele>
        <time>2016-05-18T14:59:37Z</time>
      </trkpt>
      <trkpt lat="43.39622" lon="6.09575">
        <ele>263.39999389648</ele>
        <time>2016-05-18T14:59:39Z</time>
      </trkpt>
      <trkpt lat="43.39622" lon="6.09575">
        <ele>263.39999389648</ele>
        <time>2016-05-18T14:59:41Z</time>
      </trkpt>
      <trkpt lat="43.39622" lon="6.09575">
        <ele>263.39999389648</ele>
        <time>2016-05-18T14:59:43Z</time>
      </trkpt>
      <trkpt lat="43.39622" lon="6.09575">
        <ele>263.39999389648</ele>
        <time>2016-05-18T14:59:45Z</time>
      </trkpt>
      <trkpt lat="43.39622" lon="6.09575">
        <ele>263.39999389648</ele>
        <time>2016-05-18T14:59:47Z</time>
      </trkpt>
      <trkpt lat="43.39622" lon="6.09575">
        <ele>263.20001220703</ele>
        <time>2016-05-18T14:59:49Z</time>
      </trkpt>
      <trkpt lat="43.39622" lon="6.09575">
        <ele>263</ele>
        <time>2016-05-18T14:59:51Z</time>
      </trkpt>
      <trkpt lat="43.39622" lon="6.09575">
        <ele>263</ele>
        <time>2016-05-18T14:59:53Z</time>
      </trkpt>
      <trkpt lat="43.39622" lon="6.09575">
        <ele>263</ele>
        <time>2016-05-18T14:59:55Z</time>
      </trkpt>
      <trkpt lat="43.39622" lon="6.09575">
        <ele>263.20001220703</ele>
        <time>2016-05-18T14:59:57Z</time>
      </trkpt>
      <trkpt lat="43.39622" lon="6.09575">
        <ele>263.20001220703</ele>
        <time>2016-05-18T14:59:59Z</time>
      </trkpt>
      <trkpt lat="43.39622" lon="6.09575">
        <ele>263</ele>
        <time>2016-05-18T15:00:01Z</time>
      </trkpt>
      <trkpt lat="43.39622" lon="6.09575">
        <ele>263</ele>
        <time>2016-05-18T15:00:02Z</time>
      </trkpt>
      <trkpt lat="43.39622" lon="6.09575">
        <ele>263</ele>
        <time>2016-05-18T15:00:05Z</time>
      </trkpt>
      <trkpt lat="43.39622" lon="6.09575">
        <ele>263</ele>
        <time>2016-05-18T15:00:07Z</time>
      </trkpt>
      <trkpt lat="43.39622" lon="6.09575">
        <ele>263</ele>
        <time>2016-05-18T15:00:09Z</time>
      </trkpt>
      <trkpt lat="43.39622" lon="6.09575">
        <ele>263</ele>
        <time>2016-05-18T15:00:11Z</time>
      </trkpt>
      <trkpt lat="43.39622" lon="6.09575">
        <ele>263</ele>
        <time>2016-05-18T15:00:13Z</time>
      </trkpt>
      <trkpt lat="43.39622" lon="6.09575">
        <ele>263</ele>
        <time>2016-05-18T15:00:15Z</time>
      </trkpt>
      <trkpt lat="43.39622" lon="6.09575">
        <ele>263</ele>
        <time>2016-05-18T15:00:17Z</time>
      </trkpt>
      <trkpt lat="43.39622" lon="6.09575">
        <ele>263</ele>
        <time>2016-05-18T15:00:19Z</time>
      </trkpt>
      <trkpt lat="43.39622" lon="6.09575">
        <ele>263</ele>
        <time>2016-05-18T15:00:21Z</time>
      </trkpt>
      <trkpt lat="43.39622" lon="6.09575">
        <ele>263.20001220703</ele>
        <time>2016-05-18T15:00:23Z</time>
      </trkpt>
      <trkpt lat="43.39622" lon="6.09575">
        <ele>263.20001220703</ele>
        <time>2016-05-18T15:00:25Z</time>
      </trkpt>
      <trkpt lat="43.39622" lon="6.09575">
        <ele>263.20001220703</ele>
        <time>2016-05-18T15:00:27Z</time>
      </trkpt>
      <trkpt lat="43.39622" lon="6.09575">
        <ele>263.20001220703</ele>
        <time>2016-05-18T15:00:29Z</time>
      </trkpt>
      <trkpt lat="43.39622" lon="6.09575">
        <ele>263.20001220703</ele>
        <time>2016-05-18T15:00:31Z</time>
      </trkpt>
      <trkpt lat="43.39622" lon="6.09575">
        <ele>263.39999389648</ele>
        <time>2016-05-18T15:00:33Z</time>
      </trkpt>
      <trkpt lat="43.39622" lon="6.09575">
        <ele>263.39999389648</ele>
        <time>2016-05-18T15:00:35Z</time>
      </trkpt>
      <trkpt lat="43.39624" lon="6.09574">
        <ele>263.60000610352</ele>
        <time>2016-05-18T15:00:37Z</time>
      </trkpt>
      <trkpt lat="43.39625" lon="6.09572">
        <ele>263.39999389648</ele>
        <time>2016-05-18T15:00:39Z</time>
      </trkpt>
      <trkpt lat="43.39627" lon="6.09566">
        <ele>263.20001220703</ele>
        <time>2016-05-18T15:00:41Z</time>
      </trkpt>
      <trkpt lat="43.39629" lon="6.09558">
        <ele>262.79998779297</ele>
        <time>2016-05-18T15:00:43Z</time>
      </trkpt>
      <trkpt lat="43.39634" lon="6.09549">
        <ele>262.20001220703</ele>
        <time>2016-05-18T15:00:45Z</time>
      </trkpt>
      <trkpt lat="43.39639" lon="6.09541">
        <ele>261.39999389648</ele>
        <time>2016-05-18T15:00:47Z</time>
      </trkpt>
      <trkpt lat="43.39642" lon="6.09537">
        <ele>261.20001220703</ele>
        <time>2016-05-18T15:00:48Z</time>
      </trkpt>
      <trkpt lat="43.39646" lon="6.09534">
        <ele>261</ele>
        <time>2016-05-18T15:00:49Z</time>
      </trkpt>
      <trkpt lat="43.39649" lon="6.09529">
        <ele>260.79998779297</ele>
        <time>2016-05-18T15:00:50Z</time>
      </trkpt>
      <trkpt lat="43.39652" lon="6.09524">
        <ele>260.39999389648</ele>
        <time>2016-05-18T15:00:51Z</time>
      </trkpt>
      <trkpt lat="43.39659" lon="6.09511">
        <ele>259</ele>
        <time>2016-05-18T15:00:53Z</time>
      </trkpt>
      <trkpt lat="43.39664" lon="6.09497">
        <ele>257.60000610352</ele>
        <time>2016-05-18T15:00:55Z</time>
      </trkpt>
      <trkpt lat="43.39669" lon="6.09484">
        <ele>256.20001220703</ele>
        <time>2016-05-18T15:00:57Z</time>
      </trkpt>
      <trkpt lat="43.39671" lon="6.09479">
        <ele>255.39999389648</ele>
        <time>2016-05-18T15:00:58Z</time>
      </trkpt>
      <trkpt lat="43.39672" lon="6.09474">
        <ele>254.80000305176</ele>
        <time>2016-05-18T15:00:59Z</time>
      </trkpt>
      <trkpt lat="43.39674" lon="6.09468">
        <ele>254.39999389648</ele>
        <time>2016-05-18T15:01:01Z</time>
      </trkpt>
      <trkpt lat="43.39676" lon="6.09466">
        <ele>254.19999694824</ele>
        <time>2016-05-18T15:01:02Z</time>
      </trkpt>
      <trkpt lat="43.39678" lon="6.09465">
        <ele>254</ele>
        <time>2016-05-18T15:01:03Z</time>
      </trkpt>
      <trkpt lat="43.3968" lon="6.09465">
        <ele>253.80000305176</ele>
        <time>2016-05-18T15:01:04Z</time>
      </trkpt>
      <trkpt lat="43.39683" lon="6.09465">
        <ele>253.19999694824</ele>
        <time>2016-05-18T15:01:05Z</time>
      </trkpt>
      <trkpt lat="43.39687" lon="6.09465">
        <ele>252.39999389648</ele>
        <time>2016-05-18T15:01:06Z</time>
      </trkpt>
      <trkpt lat="43.3969" lon="6.09465">
        <ele>251.60000610352</ele>
        <time>2016-05-18T15:01:07Z</time>
      </trkpt>
      <trkpt lat="43.39691" lon="6.09464">
        <ele>250.19999694824</ele>
        <time>2016-05-18T15:01:08Z</time>
      </trkpt>
      <trkpt lat="43.39691" lon="6.09463">
        <ele>249.19999694824</ele>
        <time>2016-05-18T15:01:09Z</time>
      </trkpt>
      <trkpt lat="43.39691" lon="6.09461">
        <ele>248.60000610352</ele>
        <time>2016-05-18T15:01:11Z</time>
      </trkpt>
      <trkpt lat="43.39691" lon="6.09461">
        <ele>248.60000610352</ele>
        <time>2016-05-18T15:01:13Z</time>
      </trkpt>
      <trkpt lat="43.39691" lon="6.09461">
        <ele>248.60000610352</ele>
        <time>2016-05-18T15:01:14Z</time>
      </trkpt>
      <trkpt lat="43.39691" lon="6.09461">
        <ele>248.60000610352</ele>
        <time>2016-05-18T15:01:15Z</time>
      </trkpt>
      <trkpt lat="43.39691" lon="6.09461">
        <ele>248.60000610352</ele>
        <time>2016-05-18T15:01:17Z</time>
      </trkpt>
      <trkpt lat="43.39691" lon="6.09461">
        <ele>248.60000610352</ele>
        <time>2016-05-18T15:01:19Z</time>
      </trkpt>
      <trkpt lat="43.39691" lon="6.09461">
        <ele>248.60000610352</ele>
        <time>2016-05-18T15:01:21Z</time>
      </trkpt>
      <trkpt lat="43.39691" lon="6.09461">
        <ele>248.60000610352</ele>
        <time>2016-05-18T15:01:23Z</time>
      </trkpt>
      <trkpt lat="43.39691" lon="6.0946">
        <ele>248.60000610352</ele>
        <time>2016-05-18T15:01:25Z</time>
      </trkpt>
      <trkpt lat="43.39691" lon="6.0946">
        <ele>248.60000610352</ele>
        <time>2016-05-18T15:01:27Z</time>
      </trkpt>
      <trkpt lat="43.39691" lon="6.0946">
        <ele>248.60000610352</ele>
        <time>2016-05-18T15:01:29Z</time>
      </trkpt>
      <trkpt lat="43.39691" lon="6.09461">
        <ele>248.60000610352</ele>
        <time>2016-05-18T15:01:31Z</time>
      </trkpt>
      <trkpt lat="43.39691" lon="6.0946">
        <ele>248.60000610352</ele>
        <time>2016-05-18T15:01:32Z</time>
      </trkpt>
      <trkpt lat="43.39691" lon="6.0946">
        <ele>248.60000610352</ele>
        <time>2016-05-18T15:01:33Z</time>
      </trkpt>
      <trkpt lat="43.39692" lon="6.0946">
        <ele>248.60000610352</ele>
        <time>2016-05-18T15:01:34Z</time>
      </trkpt>
      <trkpt lat="43.39693" lon="6.09458">
        <ele>248.60000610352</ele>
        <time>2016-05-18T15:01:35Z</time>
      </trkpt>
      <trkpt lat="43.39695" lon="6.09457">
        <ele>248.60000610352</ele>
        <time>2016-05-18T15:01:36Z</time>
      </trkpt>
      <trkpt lat="43.39696" lon="6.09454">
        <ele>248.39999389648</ele>
        <time>2016-05-18T15:01:37Z</time>
      </trkpt>
      <trkpt lat="43.39698" lon="6.09452">
        <ele>248.39999389648</ele>
        <time>2016-05-18T15:01:38Z</time>
      </trkpt>
      <trkpt lat="43.397" lon="6.09449">
        <ele>248.19999694824</ele>
        <time>2016-05-18T15:01:39Z</time>
      </trkpt>
      <trkpt lat="43.39702" lon="6.09445">
        <ele>248.19999694824</ele>
        <time>2016-05-18T15:01:40Z</time>
      </trkpt>
      <trkpt lat="43.39704" lon="6.09442">
        <ele>248</ele>
        <time>2016-05-18T15:01:41Z</time>
      </trkpt>
      <trkpt lat="43.39708" lon="6.09435">
        <ele>248.19999694824</ele>
        <time>2016-05-18T15:01:43Z</time>
      </trkpt>
      <trkpt lat="43.39714" lon="6.09426">
        <ele>248.19999694824</ele>
        <time>2016-05-18T15:01:45Z</time>
      </trkpt>
      <trkpt lat="43.3972" lon="6.09417">
        <ele>248</ele>
        <time>2016-05-18T15:01:47Z</time>
      </trkpt>
      <trkpt lat="43.39726" lon="6.09407">
        <ele>247.60000610352</ele>
        <time>2016-05-18T15:01:49Z</time>
      </trkpt>
      <trkpt lat="43.39732" lon="6.09396">
        <ele>247.39999389648</ele>
        <time>2016-05-18T15:01:51Z</time>
      </trkpt>
      <trkpt lat="43.39735" lon="6.09391">
        <ele>247.39999389648</ele>
        <time>2016-05-18T15:01:52Z</time>
      </trkpt>
      <trkpt lat="43.39738" lon="6.09385">
        <ele>247.19999694824</ele>
        <time>2016-05-18T15:01:53Z</time>
      </trkpt>
      <trkpt lat="43.39742" lon="6.0938">
        <ele>247.19999694824</ele>
        <time>2016-05-18T15:01:54Z</time>
      </trkpt>
      <trkpt lat="43.39745" lon="6.09375">
        <ele>247.19999694824</ele>
        <time>2016-05-18T15:01:55Z</time>
      </trkpt>
      <trkpt lat="43.39751" lon="6.09364">
        <ele>247</ele>
        <time>2016-05-18T15:01:57Z</time>
      </trkpt>
      <trkpt lat="43.39758" lon="6.09351">
        <ele>246.80000305176</ele>
        <time>2016-05-18T15:01:59Z</time>
      </trkpt>
      <trkpt lat="43.39761" lon="6.09346">
        <ele>246.80000305176</ele>
        <time>2016-05-18T15:02:00Z</time>
      </trkpt>
      <trkpt lat="43.39764" lon="6.09339">
        <ele>246.80000305176</ele>
        <time>2016-05-18T15:02:01Z</time>
      </trkpt>
      <trkpt lat="43.39771" lon="6.09326">
        <ele>246.39999389648</ele>
        <time>2016-05-18T15:02:03Z</time>
      </trkpt>
      <trkpt lat="43.39777" lon="6.09312">
        <ele>246.39999389648</ele>
        <time>2016-05-18T15:02:05Z</time>
      </trkpt>
      <trkpt lat="43.39779" lon="6.09305">
        <ele>246.19999694824</ele>
        <time>2016-05-18T15:02:06Z</time>
      </trkpt>
      <trkpt lat="43.39781" lon="6.09298">
        <ele>246.39999389648</ele>
        <time>2016-05-18T15:02:07Z</time>
      </trkpt>
      <trkpt lat="43.39785" lon="6.09285">
        <ele>246.80000305176</ele>
        <time>2016-05-18T15:02:09Z</time>
      </trkpt>
      <trkpt lat="43.39787" lon="6.09279">
        <ele>247</ele>
        <time>2016-05-18T15:02:10Z</time>
      </trkpt>
      <trkpt lat="43.39788" lon="6.09272">
        <ele>247</ele>
        <time>2016-05-18T15:02:11Z</time>
      </trkpt>
      <trkpt lat="43.39789" lon="6.09265">
        <ele>247</ele>
        <time>2016-05-18T15:02:12Z</time>
      </trkpt>
      <trkpt lat="43.3979" lon="6.09259">
        <ele>247</ele>
        <time>2016-05-18T15:02:13Z</time>
      </trkpt>
      <trkpt lat="43.39792" lon="6.09246">
        <ele>247</ele>
        <time>2016-05-18T15:02:15Z</time>
      </trkpt>
      <trkpt lat="43.39793" lon="6.09239">
        <ele>247</ele>
        <time>2016-05-18T15:02:16Z</time>
      </trkpt>
      <trkpt lat="43.39794" lon="6.09233">
        <ele>247</ele>
        <time>2016-05-18T15:02:17Z</time>
      </trkpt>
      <trkpt lat="43.39795" lon="6.0922">
        <ele>247</ele>
        <time>2016-05-18T15:02:19Z</time>
      </trkpt>
      <trkpt lat="43.39796" lon="6.09206">
        <ele>247</ele>
        <time>2016-05-18T15:02:21Z</time>
      </trkpt>
      <trkpt lat="43.39796" lon="6.09192">
        <ele>247.19999694824</ele>
        <time>2016-05-18T15:02:23Z</time>
      </trkpt>
      <trkpt lat="43.39796" lon="6.09179">
        <ele>247.39999389648</ele>
        <time>2016-05-18T15:02:25Z</time>
      </trkpt>
      <trkpt lat="43.39797" lon="6.09168">
        <ele>247.60000610352</ele>
        <time>2016-05-18T15:02:27Z</time>
      </trkpt>
      <trkpt lat="43.39797" lon="6.09162">
        <ele>248</ele>
        <time>2016-05-18T15:02:28Z</time>
      </trkpt>
      <trkpt lat="43.39798" lon="6.09156">
        <ele>248</ele>
        <time>2016-05-18T15:02:29Z</time>
      </trkpt>
      <trkpt lat="43.39799" lon="6.0915">
        <ele>248.19999694824</ele>
        <time>2016-05-18T15:02:30Z</time>
      </trkpt>
      <trkpt lat="43.398" lon="6.09144">
        <ele>248.39999389648</ele>
        <time>2016-05-18T15:02:31Z</time>
      </trkpt>
      <trkpt lat="43.39801" lon="6.09132">
        <ele>248.60000610352</ele>
        <time>2016-05-18T15:02:33Z</time>
      </trkpt>
      <trkpt lat="43.39802" lon="6.09127">
        <ele>248.60000610352</ele>
        <time>2016-05-18T15:02:34Z</time>
      </trkpt>
      <trkpt lat="43.39803" lon="6.09122">
        <ele>248.80000305176</ele>
        <time>2016-05-18T15:02:35Z</time>
      </trkpt>
      <trkpt lat="43.39806" lon="6.09112">
        <ele>249</ele>
        <time>2016-05-18T15:02:37Z</time>
      </trkpt>
      <trkpt lat="43.39808" lon="6.09103">
        <ele>249.39999389648</ele>
        <time>2016-05-18T15:02:39Z</time>
      </trkpt>
      <trkpt lat="43.3981" lon="6.09094">
        <ele>249.60000610352</ele>
        <time>2016-05-18T15:02:41Z</time>
      </trkpt>
      <trkpt lat="43.39811" lon="6.0909">
        <ele>249.60000610352</ele>
        <time>2016-05-18T15:02:42Z</time>
      </trkpt>
      <trkpt lat="43.39813" lon="6.09086">
        <ele>249.80000305176</ele>
        <time>2016-05-18T15:02:43Z</time>
      </trkpt>
      <trkpt lat="43.39816" lon="6.09077">
        <ele>249.80000305176</ele>
        <time>2016-05-18T15:02:45Z</time>
      </trkpt>
      <trkpt lat="43.39819" lon="6.09067">
        <ele>249.80000305176</ele>
        <time>2016-05-18T15:02:47Z</time>
      </trkpt>
      <trkpt lat="43.39821" lon="6.09062">
        <ele>249.80000305176</ele>
        <time>2016-05-18T15:02:48Z</time>
      </trkpt>
      <trkpt lat="43.39824" lon="6.09056">
        <ele>249.80000305176</ele>
        <time>2016-05-18T15:02:49Z</time>
      </trkpt>
      <trkpt lat="43.39831" lon="6.09047">
        <ele>249.39999389648</ele>
        <time>2016-05-18T15:02:51Z</time>
      </trkpt>
      <trkpt lat="43.39835" lon="6.09042">
        <ele>249.19999694824</ele>
        <time>2016-05-18T15:02:52Z</time>
      </trkpt>
      <trkpt lat="43.3984" lon="6.09038">
        <ele>248.80000305176</ele>
        <time>2016-05-18T15:02:53Z</time>
      </trkpt>
      <trkpt lat="43.39845" lon="6.09033">
        <ele>248.60000610352</ele>
        <time>2016-05-18T15:02:54Z</time>
      </trkpt>
      <trkpt lat="43.39849" lon="6.09029">
        <ele>248.39999389648</ele>
        <time>2016-05-18T15:02:55Z</time>
      </trkpt>
      <trkpt lat="43.39854" lon="6.09024">
        <ele>248</ele>
        <time>2016-05-18T15:02:56Z</time>
      </trkpt>
      <trkpt lat="43.39858" lon="6.09018">
        <ele>247.80000305176</ele>
        <time>2016-05-18T15:02:57Z</time>
      </trkpt>
      <trkpt lat="43.39862" lon="6.09013">
        <ele>247.60000610352</ele>
        <time>2016-05-18T15:02:58Z</time>
      </trkpt>
      <trkpt lat="43.39867" lon="6.09007">
        <ele>247.60000610352</ele>
        <time>2016-05-18T15:02:59Z</time>
      </trkpt>
      <trkpt lat="43.39877" lon="6.08999">
        <ele>247.19999694824</ele>
        <time>2016-05-18T15:03:01Z</time>
      </trkpt>
      <trkpt lat="43.39883" lon="6.08995">
        <ele>247.19999694824</ele>
        <time>2016-05-18T15:03:02Z</time>
      </trkpt>
      <trkpt lat="43.39888" lon="6.08993">
        <ele>247</ele>
        <time>2016-05-18T15:03:03Z</time>
      </trkpt>
      <trkpt lat="43.39894" lon="6.08991">
        <ele>246.80000305176</ele>
        <time>2016-05-18T15:03:04Z</time>
      </trkpt>
      <trkpt lat="43.39901" lon="6.08989">
        <ele>246.60000610352</ele>
        <time>2016-05-18T15:03:05Z</time>
      </trkpt>
      <trkpt lat="43.39906" lon="6.08988">
        <ele>246.39999389648</ele>
        <time>2016-05-18T15:03:06Z</time>
      </trkpt>
      <trkpt lat="43.39912" lon="6.08988">
        <ele>246.19999694824</ele>
        <time>2016-05-18T15:03:07Z</time>
      </trkpt>
      <trkpt lat="43.39917" lon="6.08988">
        <ele>246.19999694824</ele>
        <time>2016-05-18T15:03:08Z</time>
      </trkpt>
      <trkpt lat="43.39923" lon="6.08989">
        <ele>246.19999694824</ele>
        <time>2016-05-18T15:03:09Z</time>
      </trkpt>
      <trkpt lat="43.3993" lon="6.08988">
        <ele>245.80000305176</ele>
        <time>2016-05-18T15:03:10Z</time>
      </trkpt>
      <trkpt lat="43.39937" lon="6.08987">
        <ele>245.39999389648</ele>
        <time>2016-05-18T15:03:11Z</time>
      </trkpt>
      <trkpt lat="43.39944" lon="6.08986">
        <ele>244.39999389648</ele>
        <time>2016-05-18T15:03:12Z</time>
      </trkpt>
      <trkpt lat="43.39952" lon="6.08984">
        <ele>243.60000610352</ele>
        <time>2016-05-18T15:03:13Z</time>
      </trkpt>
      <trkpt lat="43.39959" lon="6.08982">
        <ele>243.19999694824</ele>
        <time>2016-05-18T15:03:14Z</time>
      </trkpt>
      <trkpt lat="43.39967" lon="6.08981">
        <ele>243</ele>
        <time>2016-05-18T15:03:15Z</time>
      </trkpt>
      <trkpt lat="43.39979" lon="6.08978">
        <ele>242.80000305176</ele>
        <time>2016-05-18T15:03:17Z</time>
      </trkpt>
      <trkpt lat="43.39991" lon="6.08975">
        <ele>242.60000610352</ele>
        <time>2016-05-18T15:03:19Z</time>
      </trkpt>
      <trkpt lat="43.40003" lon="6.08971">
        <ele>242.60000610352</ele>
        <time>2016-05-18T15:03:21Z</time>
      </trkpt>
      <trkpt lat="43.40013" lon="6.08965">
        <ele>242.19999694824</ele>
        <time>2016-05-18T15:03:23Z</time>
      </trkpt>
      <trkpt lat="43.40018" lon="6.08961">
        <ele>242.19999694824</ele>
        <time>2016-05-18T15:03:24Z</time>
      </trkpt>
      <trkpt lat="43.40021" lon="6.08957">
        <ele>242.19999694824</ele>
        <time>2016-05-18T15:03:25Z</time>
      </trkpt>
      <trkpt lat="43.40026" lon="6.08946">
        <ele>241.80000305176</ele>
        <time>2016-05-18T15:03:27Z</time>
      </trkpt>
      <trkpt lat="43.40028" lon="6.08941">
        <ele>241.80000305176</ele>
        <time>2016-05-18T15:03:28Z</time>
      </trkpt>
      <trkpt lat="43.4003" lon="6.08935">
        <ele>241.60000610352</ele>
        <time>2016-05-18T15:03:29Z</time>
      </trkpt>
      <trkpt lat="43.40032" lon="6.08924">
        <ele>241.39999389648</ele>
        <time>2016-05-18T15:03:31Z</time>
      </trkpt>
      <trkpt lat="43.40034" lon="6.08918">
        <ele>241.39999389648</ele>
        <time>2016-05-18T15:03:32Z</time>
      </trkpt>
      <trkpt lat="43.40035" lon="6.08912">
        <ele>241.39999389648</ele>
        <time>2016-05-18T15:03:33Z</time>
      </trkpt>
      <trkpt lat="43.40038" lon="6.089">
        <ele>241.39999389648</ele>
        <time>2016-05-18T15:03:35Z</time>
      </trkpt>
      <trkpt lat="43.4004" lon="6.08893">
        <ele>241.19999694824</ele>
        <time>2016-05-18T15:03:36Z</time>
      </trkpt>
      <trkpt lat="43.40042" lon="6.08888">
        <ele>241.19999694824</ele>
        <time>2016-05-18T15:03:37Z</time>
      </trkpt>
      <trkpt lat="43.40044" lon="6.08882">
        <ele>241.19999694824</ele>
        <time>2016-05-18T15:03:38Z</time>
      </trkpt>
      <trkpt lat="43.40046" lon="6.08875">
        <ele>241.19999694824</ele>
        <time>2016-05-18T15:03:39Z</time>
      </trkpt>
      <trkpt lat="43.4005" lon="6.08863">
        <ele>241.19999694824</ele>
        <time>2016-05-18T15:03:41Z</time>
      </trkpt>
      <trkpt lat="43.40054" lon="6.08851">
        <ele>241.19999694824</ele>
        <time>2016-05-18T15:03:43Z</time>
      </trkpt>
      <trkpt lat="43.40056" lon="6.08845">
        <ele>241</ele>
        <time>2016-05-18T15:03:44Z</time>
      </trkpt>
      <trkpt lat="43.40058" lon="6.08839">
        <ele>241</ele>
        <time>2016-05-18T15:03:45Z</time>
      </trkpt>
      <trkpt lat="43.40063" lon="6.08827">
        <ele>240.60000610352</ele>
        <time>2016-05-18T15:03:47Z</time>
      </trkpt>
      <trkpt lat="43.40067" lon="6.08815">
        <ele>240.60000610352</ele>
        <time>2016-05-18T15:03:49Z</time>
      </trkpt>
      <trkpt lat="43.40072" lon="6.08803">
        <ele>241</ele>
        <time>2016-05-18T15:03:51Z</time>
      </trkpt>
      <trkpt lat="43.40077" lon="6.08792">
        <ele>241.19999694824</ele>
        <time>2016-05-18T15:03:53Z</time>
      </trkpt>
      <trkpt lat="43.40081" lon="6.0878">
        <ele>241.39999389648</ele>
        <time>2016-05-18T15:03:55Z</time>
      </trkpt>
      <trkpt lat="43.40084" lon="6.08773">
        <ele>241.39999389648</ele>
        <time>2016-05-18T15:03:56Z</time>
      </trkpt>
      <trkpt lat="43.40086" lon="6.08767">
        <ele>241.39999389648</ele>
        <time>2016-05-18T15:03:57Z</time>
      </trkpt>
      <trkpt lat="43.4009" lon="6.08754">
        <ele>241.19999694824</ele>
        <time>2016-05-18T15:03:59Z</time>
      </trkpt>
      <trkpt lat="43.40094" lon="6.08742">
        <ele>241.19999694824</ele>
        <time>2016-05-18T15:04:01Z</time>
      </trkpt>
      <trkpt lat="43.40097" lon="6.08729">
        <ele>241</ele>
        <time>2016-05-18T15:04:03Z</time>
      </trkpt>
      <trkpt lat="43.401" lon="6.08715">
        <ele>241</ele>
        <time>2016-05-18T15:04:05Z</time>
      </trkpt>
      <trkpt lat="43.40102" lon="6.08701">
        <ele>241</ele>
        <time>2016-05-18T15:04:07Z</time>
      </trkpt>
      <trkpt lat="43.40102" lon="6.08694">
        <ele>241</ele>
        <time>2016-05-18T15:04:08Z</time>
      </trkpt>
      <trkpt lat="43.40103" lon="6.08686">
        <ele>240.80000305176</ele>
        <time>2016-05-18T15:04:09Z</time>
      </trkpt>
      <trkpt lat="43.40102" lon="6.08679">
        <ele>240.60000610352</ele>
        <time>2016-05-18T15:04:10Z</time>
      </trkpt>
      <trkpt lat="43.401" lon="6.08671">
        <ele>240.39999389648</ele>
        <time>2016-05-18T15:04:11Z</time>
      </trkpt>
      <trkpt lat="43.40099" lon="6.08664">
        <ele>240.19999694824</ele>
        <time>2016-05-18T15:04:12Z</time>
      </trkpt>
      <trkpt lat="43.40098" lon="6.08657">
        <ele>239.60000610352</ele>
        <time>2016-05-18T15:04:13Z</time>
      </trkpt>
      <trkpt lat="43.40098" lon="6.0865">
        <ele>239.19999694824</ele>
        <time>2016-05-18T15:04:14Z</time>
      </trkpt>
      <trkpt lat="43.401" lon="6.08644">
        <ele>238.80000305176</ele>
        <time>2016-05-18T15:04:15Z</time>
      </trkpt>
      <trkpt lat="43.40104" lon="6.08637">
        <ele>238.60000610352</ele>
        <time>2016-05-18T15:04:16Z</time>
      </trkpt>
      <trkpt lat="43.40108" lon="6.08632">
        <ele>238.39999389648</ele>
        <time>2016-05-18T15:04:17Z</time>
      </trkpt>
      <trkpt lat="43.40113" lon="6.08627">
        <ele>238.19999694824</ele>
        <time>2016-05-18T15:04:18Z</time>
      </trkpt>
      <trkpt lat="43.40118" lon="6.08622">
        <ele>238</ele>
        <time>2016-05-18T15:04:19Z</time>
      </trkpt>
      <trkpt lat="43.40128" lon="6.08613">
        <ele>237.80000305176</ele>
        <time>2016-05-18T15:04:21Z</time>
      </trkpt>
      <trkpt lat="43.40133" lon="6.08607">
        <ele>237.80000305176</ele>
        <time>2016-05-18T15:04:22Z</time>
      </trkpt>
      <trkpt lat="43.40138" lon="6.08603">
        <ele>237.80000305176</ele>
        <time>2016-05-18T15:04:23Z</time>
      </trkpt>
      <trkpt lat="43.40148" lon="6.08595">
        <ele>237.60000610352</ele>
        <time>2016-05-18T15:04:25Z</time>
      </trkpt>
      <trkpt lat="43.40153" lon="6.08592">
        <ele>237.60000610352</ele>
        <time>2016-05-18T15:04:26Z</time>
      </trkpt>
      <trkpt lat="43.40158" lon="6.0859">
        <ele>237.19999694824</ele>
        <time>2016-05-18T15:04:27Z</time>
      </trkpt>
      <trkpt lat="43.40162" lon="6.08587">
        <ele>237.19999694824</ele>
        <time>2016-05-18T15:04:28Z</time>
      </trkpt>
      <trkpt lat="43.40165" lon="6.08583">
        <ele>237.19999694824</ele>
        <time>2016-05-18T15:04:29Z</time>
      </trkpt>
      <trkpt lat="43.40167" lon="6.08577">
        <ele>237</ele>
        <time>2016-05-18T15:04:30Z</time>
      </trkpt>
      <trkpt lat="43.40168" lon="6.08571">
        <ele>237.19999694824</ele>
        <time>2016-05-18T15:04:31Z</time>
      </trkpt>
      <trkpt lat="43.40167" lon="6.08559">
        <ele>237.39999389648</ele>
        <time>2016-05-18T15:04:33Z</time>
      </trkpt>
      <trkpt lat="43.40166" lon="6.08548">
        <ele>237.60000610352</ele>
        <time>2016-05-18T15:04:35Z</time>
      </trkpt>
      <trkpt lat="43.40166" lon="6.08539">
        <ele>237.80000305176</ele>
        <time>2016-05-18T15:04:37Z</time>
      </trkpt>
      <trkpt lat="43.40166" lon="6.08529">
        <ele>237.80000305176</ele>
        <time>2016-05-18T15:04:39Z</time>
      </trkpt>
      <trkpt lat="43.40167" lon="6.0852">
        <ele>238</ele>
        <time>2016-05-18T15:04:41Z</time>
      </trkpt>
      <trkpt lat="43.40168" lon="6.0851">
        <ele>238</ele>
        <time>2016-05-18T15:04:43Z</time>
      </trkpt>
      <trkpt lat="43.40169" lon="6.08502">
        <ele>238</ele>
        <time>2016-05-18T15:04:45Z</time>
      </trkpt>
      <trkpt lat="43.4017" lon="6.08498">
        <ele>238.19999694824</ele>
        <time>2016-05-18T15:04:46Z</time>
      </trkpt>
      <trkpt lat="43.4017" lon="6.08494">
        <ele>238.19999694824</ele>
        <time>2016-05-18T15:04:47Z</time>
      </trkpt>
      <trkpt lat="43.40171" lon="6.0849">
        <ele>238.39999389648</ele>
        <time>2016-05-18T15:04:48Z</time>
      </trkpt>
      <trkpt lat="43.40171" lon="6.08486">
        <ele>238.39999389648</ele>
        <time>2016-05-18T15:04:49Z</time>
      </trkpt>
      <trkpt lat="43.40173" lon="6.08478">
        <ele>238.60000610352</ele>
        <time>2016-05-18T15:04:51Z</time>
      </trkpt>
      <trkpt lat="43.40173" lon="6.08471">
        <ele>238.80000305176</ele>
        <time>2016-05-18T15:04:53Z</time>
      </trkpt>
      <trkpt lat="43.40175" lon="6.08463">
        <ele>238.80000305176</ele>
        <time>2016-05-18T15:04:55Z</time>
      </trkpt>
      <trkpt lat="43.40176" lon="6.08459">
        <ele>238.60000610352</ele>
        <time>2016-05-18T15:04:56Z</time>
      </trkpt>
      <trkpt lat="43.40176" lon="6.08455">
        <ele>238.60000610352</ele>
        <time>2016-05-18T15:04:57Z</time>
      </trkpt>
      <trkpt lat="43.40178" lon="6.08446">
        <ele>238.80000305176</ele>
        <time>2016-05-18T15:04:59Z</time>
      </trkpt>
      <trkpt lat="43.40179" lon="6.08436">
        <ele>239</ele>
        <time>2016-05-18T15:05:01Z</time>
      </trkpt>
      <trkpt lat="43.4018" lon="6.08425">
        <ele>239</ele>
        <time>2016-05-18T15:05:03Z</time>
      </trkpt>
      <trkpt lat="43.40181" lon="6.08415">
        <ele>239</ele>
        <time>2016-05-18T15:05:05Z</time>
      </trkpt>
      <trkpt lat="43.40181" lon="6.08403">
        <ele>238.80000305176</ele>
        <time>2016-05-18T15:05:07Z</time>
      </trkpt>
      <trkpt lat="43.40182" lon="6.08391">
        <ele>238.60000610352</ele>
        <time>2016-05-18T15:05:09Z</time>
      </trkpt>
      <trkpt lat="43.40182" lon="6.08378">
        <ele>238.39999389648</ele>
        <time>2016-05-18T15:05:11Z</time>
      </trkpt>
      <trkpt lat="43.40183" lon="6.08365">
        <ele>238.19999694824</ele>
        <time>2016-05-18T15:05:13Z</time>
      </trkpt>
      <trkpt lat="43.40184" lon="6.08359">
        <ele>238.19999694824</ele>
        <time>2016-05-18T15:05:14Z</time>
      </trkpt>
      <trkpt lat="43.40184" lon="6.08353">
        <ele>238</ele>
        <time>2016-05-18T15:05:15Z</time>
      </trkpt>
      <trkpt lat="43.40184" lon="6.0834">
        <ele>238</ele>
        <time>2016-05-18T15:05:17Z</time>
      </trkpt>
      <trkpt lat="43.40184" lon="6.08326">
        <ele>237.80000305176</ele>
        <time>2016-05-18T15:05:19Z</time>
      </trkpt>
      <trkpt lat="43.40185" lon="6.08315">
        <ele>237.39999389648</ele>
        <time>2016-05-18T15:05:21Z</time>
      </trkpt>
      <trkpt lat="43.40186" lon="6.08303">
        <ele>237.39999389648</ele>
        <time>2016-05-18T15:05:23Z</time>
      </trkpt>
      <trkpt lat="43.40188" lon="6.08293">
        <ele>237</ele>
        <time>2016-05-18T15:05:25Z</time>
      </trkpt>
      <trkpt lat="43.40189" lon="6.08288">
        <ele>237</ele>
        <time>2016-05-18T15:05:26Z</time>
      </trkpt>
      <trkpt lat="43.40189" lon="6.08284">
        <ele>237</ele>
        <time>2016-05-18T15:05:27Z</time>
      </trkpt>
      <trkpt lat="43.40189" lon="6.08276">
        <ele>237</ele>
        <time>2016-05-18T15:05:29Z</time>
      </trkpt>
      <trkpt lat="43.40188" lon="6.08271">
        <ele>236.80000305176</ele>
        <time>2016-05-18T15:05:31Z</time>
      </trkpt>
      <trkpt lat="43.40188" lon="6.08268">
        <ele>237</ele>
        <time>2016-05-18T15:05:33Z</time>
      </trkpt>
      <trkpt lat="43.40187" lon="6.08268">
        <ele>236.80000305176</ele>
        <time>2016-05-18T15:05:35Z</time>
      </trkpt>
      <trkpt lat="43.40187" lon="6.08268">
        <ele>236.80000305176</ele>
        <time>2016-05-18T15:05:36Z</time>
      </trkpt>
      <trkpt lat="43.40187" lon="6.08268">
        <ele>236.80000305176</ele>
        <time>2016-05-18T15:05:37Z</time>
      </trkpt>
      <trkpt lat="43.40187" lon="6.08266">
        <ele>237</ele>
        <time>2016-05-18T15:05:39Z</time>
      </trkpt>
      <trkpt lat="43.40187" lon="6.08265">
        <ele>237</ele>
        <time>2016-05-18T15:05:41Z</time>
      </trkpt>
      <trkpt lat="43.40187" lon="6.08265">
        <ele>237</ele>
        <time>2016-05-18T15:05:43Z</time>
      </trkpt>
      <trkpt lat="43.40187" lon="6.08265">
        <ele>237</ele>
        <time>2016-05-18T15:05:44Z</time>
      </trkpt>
      <trkpt lat="43.40187" lon="6.08266">
        <ele>237</ele>
        <time>2016-05-18T15:05:45Z</time>
      </trkpt>
      <trkpt lat="43.40187" lon="6.08265">
        <ele>237</ele>
        <time>2016-05-18T15:05:47Z</time>
      </trkpt>
      <trkpt lat="43.40187" lon="6.08265">
        <ele>237</ele>
        <time>2016-05-18T15:05:49Z</time>
      </trkpt>
      <trkpt lat="43.40187" lon="6.08265">
        <ele>237</ele>
        <time>2016-05-18T15:05:51Z</time>
      </trkpt>
      <trkpt lat="43.40187" lon="6.08265">
        <ele>237.19999694824</ele>
        <time>2016-05-18T15:05:53Z</time>
      </trkpt>
      <trkpt lat="43.40187" lon="6.08265">
        <ele>237.19999694824</ele>
        <time>2016-05-18T15:05:55Z</time>
      </trkpt>
      <trkpt lat="43.40187" lon="6.08265">
        <ele>237.19999694824</ele>
        <time>2016-05-18T15:05:57Z</time>
      </trkpt>
      <trkpt lat="43.40187" lon="6.08265">
        <ele>237.19999694824</ele>
        <time>2016-05-18T15:05:59Z</time>
      </trkpt>
      <trkpt lat="43.40187" lon="6.08265">
        <ele>237</ele>
        <time>2016-05-18T15:06:01Z</time>
      </trkpt>
      <trkpt lat="43.40187" lon="6.08265">
        <ele>236.80000305176</ele>
        <time>2016-05-18T15:06:03Z</time>
      </trkpt>
      <trkpt lat="43.40187" lon="6.08265">
        <ele>236.80000305176</ele>
        <time>2016-05-18T15:06:05Z</time>
      </trkpt>
      <trkpt lat="43.40187" lon="6.08265">
        <ele>236.80000305176</ele>
        <time>2016-05-18T15:06:07Z</time>
      </trkpt>
      <trkpt lat="43.40187" lon="6.08265">
        <ele>237</ele>
        <time>2016-05-18T15:06:09Z</time>
      </trkpt>
      <trkpt lat="43.40187" lon="6.08265">
        <ele>237</ele>
        <time>2016-05-18T15:06:11Z</time>
      </trkpt>
      <trkpt lat="43.40187" lon="6.08265">
        <ele>237</ele>
        <time>2016-05-18T15:06:13Z</time>
      </trkpt>
      <trkpt lat="43.40187" lon="6.08265">
        <ele>237</ele>
        <time>2016-05-18T15:06:15Z</time>
      </trkpt>
      <trkpt lat="43.40187" lon="6.08265">
        <ele>237</ele>
        <time>2016-05-18T15:06:17Z</time>
      </trkpt>
      <trkpt lat="43.40187" lon="6.08265">
        <ele>236.80000305176</ele>
        <time>2016-05-18T15:06:19Z</time>
      </trkpt>
      <trkpt lat="43.40187" lon="6.08265">
        <ele>236.80000305176</ele>
        <time>2016-05-18T15:06:21Z</time>
      </trkpt>
      <trkpt lat="43.40187" lon="6.08265">
        <ele>236.80000305176</ele>
        <time>2016-05-18T15:06:23Z</time>
      </trkpt>
      <trkpt lat="43.40187" lon="6.08265">
        <ele>236.80000305176</ele>
        <time>2016-05-18T15:06:25Z</time>
      </trkpt>
      <trkpt lat="43.40187" lon="6.08265">
        <ele>236.80000305176</ele>
        <time>2016-05-18T15:06:27Z</time>
      </trkpt>
      <trkpt lat="43.40187" lon="6.08265">
        <ele>236.80000305176</ele>
        <time>2016-05-18T15:06:29Z</time>
      </trkpt>
      <trkpt lat="43.40187" lon="6.08265">
        <ele>236.60000610352</ele>
        <time>2016-05-18T15:06:31Z</time>
      </trkpt>
      <trkpt lat="43.40187" lon="6.08265">
        <ele>236.80000305176</ele>
        <time>2016-05-18T15:06:33Z</time>
      </trkpt>
      <trkpt lat="43.40187" lon="6.08265">
        <ele>236.80000305176</ele>
        <time>2016-05-18T15:06:34Z</time>
      </trkpt>
      <trkpt lat="43.40187" lon="6.08265">
        <ele>236.80000305176</ele>
        <time>2016-05-18T15:06:35Z</time>
      </trkpt>
      <trkpt lat="43.40187" lon="6.08265">
        <ele>236.80000305176</ele>
        <time>2016-05-18T15:06:37Z</time>
      </trkpt>
      <trkpt lat="43.40187" lon="6.08265">
        <ele>236.60000610352</ele>
        <time>2016-05-18T15:06:39Z</time>
      </trkpt>
      <trkpt lat="43.40187" lon="6.08265">
        <ele>236.39999389648</ele>
        <time>2016-05-18T15:06:41Z</time>
      </trkpt>
      <trkpt lat="43.40187" lon="6.08265">
        <ele>236.39999389648</ele>
        <time>2016-05-18T15:06:43Z</time>
      </trkpt>
      <trkpt lat="43.40187" lon="6.08265">
        <ele>236.60000610352</ele>
        <time>2016-05-18T15:06:45Z</time>
      </trkpt>
      <trkpt lat="43.40187" lon="6.08265">
        <ele>236.60000610352</ele>
        <time>2016-05-18T15:06:47Z</time>
      </trkpt>
      <trkpt lat="43.40187" lon="6.08265">
        <ele>236.80000305176</ele>
        <time>2016-05-18T15:06:49Z</time>
      </trkpt>
      <trkpt lat="43.40187" lon="6.08265">
        <ele>236.80000305176</ele>
        <time>2016-05-18T15:06:51Z</time>
      </trkpt>
      <trkpt lat="43.40187" lon="6.08265">
        <ele>236.80000305176</ele>
        <time>2016-05-18T15:06:53Z</time>
      </trkpt>
      <trkpt lat="43.40187" lon="6.08265">
        <ele>236.60000610352</ele>
        <time>2016-05-18T15:06:55Z</time>
      </trkpt>
      <trkpt lat="43.40187" lon="6.08265">
        <ele>236.60000610352</ele>
        <time>2016-05-18T15:06:57Z</time>
      </trkpt>
      <trkpt lat="43.40187" lon="6.08265">
        <ele>236.60000610352</ele>
        <time>2016-05-18T15:06:59Z</time>
      </trkpt>
      <trkpt lat="43.40187" lon="6.08265">
        <ele>236.60000610352</ele>
        <time>2016-05-18T15:07:01Z</time>
      </trkpt>
      <trkpt lat="43.40187" lon="6.08265">
        <ele>236.39999389648</ele>
        <time>2016-05-18T15:07:03Z</time>
      </trkpt>
      <trkpt lat="43.40187" lon="6.08265">
        <ele>236.19999694824</ele>
        <time>2016-05-18T15:07:05Z</time>
      </trkpt>
      <trkpt lat="43.40187" lon="6.08265">
        <ele>236.19999694824</ele>
        <time>2016-05-18T15:07:06Z</time>
      </trkpt>
      <trkpt lat="43.40187" lon="6.08263">
        <ele>236.19999694824</ele>
        <time>2016-05-18T15:07:07Z</time>
      </trkpt>
      <trkpt lat="43.40187" lon="6.08258">
        <ele>236.19999694824</ele>
        <time>2016-05-18T15:07:09Z</time>
      </trkpt>
      <trkpt lat="43.40187" lon="6.08254">
        <ele>236.19999694824</ele>
        <time>2016-05-18T15:07:10Z</time>
      </trkpt>
      <trkpt lat="43.40186" lon="6.08249">
        <ele>236</ele>
        <time>2016-05-18T15:07:11Z</time>
      </trkpt>
      <trkpt lat="43.40186" lon="6.08238">
        <ele>236</ele>
        <time>2016-05-18T15:07:13Z</time>
      </trkpt>
      <trkpt lat="43.40186" lon="6.08227">
        <ele>236</ele>
        <time>2016-05-18T15:07:15Z</time>
      </trkpt>
      <trkpt lat="43.40189" lon="6.08216">
        <ele>236</ele>
        <time>2016-05-18T15:07:17Z</time>
      </trkpt>
      <trkpt lat="43.40192" lon="6.08204">
        <ele>235.80000305176</ele>
        <time>2016-05-18T15:07:19Z</time>
      </trkpt>
      <trkpt lat="43.40195" lon="6.08193">
        <ele>235.80000305176</ele>
        <time>2016-05-18T15:07:21Z</time>
      </trkpt>
      <trkpt lat="43.40198" lon="6.08181">
        <ele>235.80000305176</ele>
        <time>2016-05-18T15:07:23Z</time>
      </trkpt>
      <trkpt lat="43.402" lon="6.08167">
        <ele>235.60000610352</ele>
        <time>2016-05-18T15:07:25Z</time>
      </trkpt>
      <trkpt lat="43.402" lon="6.08159">
        <ele>235.39999389648</ele>
        <time>2016-05-18T15:07:26Z</time>
      </trkpt>
      <trkpt lat="43.40201" lon="6.08152">
        <ele>235.19999694824</ele>
        <time>2016-05-18T15:07:27Z</time>
      </trkpt>
      <trkpt lat="43.40201" lon="6.08145">
        <ele>234.80000305176</ele>
        <time>2016-05-18T15:07:28Z</time>
      </trkpt>
      <trkpt lat="43.402" lon="6.08138">
        <ele>234.80000305176</ele>
        <time>2016-05-18T15:07:29Z</time>
      </trkpt>
      <trkpt lat="43.402" lon="6.08132">
        <ele>234.60000610352</ele>
        <time>2016-05-18T15:07:30Z</time>
      </trkpt>
      <trkpt lat="43.40199" lon="6.08127">
        <ele>234.39999389648</ele>
        <time>2016-05-18T15:07:31Z</time>
      </trkpt>
      <trkpt lat="43.40197" lon="6.0812">
        <ele>234</ele>
        <time>2016-05-18T15:07:33Z</time>
      </trkpt>
      <trkpt lat="43.40196" lon="6.08118">
        <ele>233.60000610352</ele>
        <time>2016-05-18T15:07:35Z</time>
      </trkpt>
      <trkpt lat="43.40195" lon="6.08117">
        <ele>233.60000610352</ele>
        <time>2016-05-18T15:07:37Z</time>
      </trkpt>
      <trkpt lat="43.40195" lon="6.08117">
        <ele>233.60000610352</ele>
        <time>2016-05-18T15:07:39Z</time>
      </trkpt>
      <trkpt lat="43.40195" lon="6.08117">
        <ele>233.60000610352</ele>
        <time>2016-05-18T15:07:41Z</time>
      </trkpt>
      <trkpt lat="43.40195" lon="6.08117">
        <ele>233.60000610352</ele>
        <time>2016-05-18T15:07:43Z</time>
      </trkpt>
      <trkpt lat="43.40195" lon="6.08117">
        <ele>233.80000305176</ele>
        <time>2016-05-18T15:07:45Z</time>
      </trkpt>
      <trkpt lat="43.40195" lon="6.08117">
        <ele>234</ele>
        <time>2016-05-18T15:07:47Z</time>
      </trkpt>
      <trkpt lat="43.40195" lon="6.08117">
        <ele>234</ele>
        <time>2016-05-18T15:07:49Z</time>
      </trkpt>
      <trkpt lat="43.40195" lon="6.08117">
        <ele>234</ele>
        <time>2016-05-18T15:07:51Z</time>
      </trkpt>
      <trkpt lat="43.40195" lon="6.08117">
        <ele>233.80000305176</ele>
        <time>2016-05-18T15:07:53Z</time>
      </trkpt>
      <trkpt lat="43.40195" lon="6.08117">
        <ele>233.60000610352</ele>
        <time>2016-05-18T15:07:55Z</time>
      </trkpt>
      <trkpt lat="43.40195" lon="6.08117">
        <ele>233.60000610352</ele>
        <time>2016-05-18T15:07:57Z</time>
      </trkpt>
      <trkpt lat="43.40195" lon="6.08117">
        <ele>233.60000610352</ele>
        <time>2016-05-18T15:07:59Z</time>
      </trkpt>
      <trkpt lat="43.40195" lon="6.08117">
        <ele>233.60000610352</ele>
        <time>2016-05-18T15:08:01Z</time>
      </trkpt>
      <trkpt lat="43.40195" lon="6.08116">
        <ele>233.60000610352</ele>
        <time>2016-05-18T15:08:03Z</time>
      </trkpt>
      <trkpt lat="43.40195" lon="6.08116">
        <ele>233.39999389648</ele>
        <time>2016-05-18T15:08:05Z</time>
      </trkpt>
      <trkpt lat="43.40195" lon="6.08117">
        <ele>233.39999389648</ele>
        <time>2016-05-18T15:08:07Z</time>
      </trkpt>
      <trkpt lat="43.40195" lon="6.08117">
        <ele>233.39999389648</ele>
        <time>2016-05-18T15:08:09Z</time>
      </trkpt>
      <trkpt lat="43.40195" lon="6.08116">
        <ele>233.39999389648</ele>
        <time>2016-05-18T15:08:11Z</time>
      </trkpt>
      <trkpt lat="43.40195" lon="6.08116">
        <ele>233.39999389648</ele>
        <time>2016-05-18T15:08:13Z</time>
      </trkpt>
      <trkpt lat="43.40195" lon="6.08116">
        <ele>233.39999389648</ele>
        <time>2016-05-18T15:08:15Z</time>
      </trkpt>
      <trkpt lat="43.40195" lon="6.08116">
        <ele>233.39999389648</ele>
        <time>2016-05-18T15:08:17Z</time>
      </trkpt>
      <trkpt lat="43.40195" lon="6.08116">
        <ele>233.60000610352</ele>
        <time>2016-05-18T15:08:19Z</time>
      </trkpt>
      <trkpt lat="43.40195" lon="6.08116">
        <ele>233.60000610352</ele>
        <time>2016-05-18T15:08:21Z</time>
      </trkpt>
      <trkpt lat="43.40195" lon="6.08116">
        <ele>233.60000610352</ele>
        <time>2016-05-18T15:08:23Z</time>
      </trkpt>
      <trkpt lat="43.40195" lon="6.08116">
        <ele>233.80000305176</ele>
        <time>2016-05-18T15:08:25Z</time>
      </trkpt>
      <trkpt lat="43.40195" lon="6.08116">
        <ele>233.80000305176</ele>
        <time>2016-05-18T15:08:27Z</time>
      </trkpt>
      <trkpt lat="43.40195" lon="6.08116">
        <ele>233.80000305176</ele>
        <time>2016-05-18T15:08:29Z</time>
      </trkpt>
      <trkpt lat="43.40195" lon="6.08116">
        <ele>233.80000305176</ele>
        <time>2016-05-18T15:08:31Z</time>
      </trkpt>
      <trkpt lat="43.40195" lon="6.08116">
        <ele>233.80000305176</ele>
        <time>2016-05-18T15:08:33Z</time>
      </trkpt>
      <trkpt lat="43.40195" lon="6.08116">
        <ele>233.39999389648</ele>
        <time>2016-05-18T15:08:35Z</time>
      </trkpt>
      <trkpt lat="43.40195" lon="6.08116">
        <ele>233.19999694824</ele>
        <time>2016-05-18T15:08:37Z</time>
      </trkpt>
      <trkpt lat="43.40195" lon="6.08116">
        <ele>233.19999694824</ele>
        <time>2016-05-18T15:08:39Z</time>
      </trkpt>
      <trkpt lat="43.40195" lon="6.08116">
        <ele>233.19999694824</ele>
        <time>2016-05-18T15:08:41Z</time>
      </trkpt>
      <trkpt lat="43.40195" lon="6.08116">
        <ele>233.19999694824</ele>
        <time>2016-05-18T15:08:43Z</time>
      </trkpt>
      <trkpt lat="43.40195" lon="6.08116">
        <ele>233.19999694824</ele>
        <time>2016-05-18T15:08:45Z</time>
      </trkpt>
      <trkpt lat="43.40195" lon="6.08116">
        <ele>233.19999694824</ele>
        <time>2016-05-18T15:08:47Z</time>
      </trkpt>
      <trkpt lat="43.40195" lon="6.08116">
        <ele>233.19999694824</ele>
        <time>2016-05-18T15:08:49Z</time>
      </trkpt>
      <trkpt lat="43.40195" lon="6.08116">
        <ele>233.39999389648</ele>
        <time>2016-05-18T15:08:51Z</time>
      </trkpt>
      <trkpt lat="43.40195" lon="6.08116">
        <ele>233.39999389648</ele>
        <time>2016-05-18T15:08:53Z</time>
      </trkpt>
      <trkpt lat="43.40195" lon="6.08116">
        <ele>233.39999389648</ele>
        <time>2016-05-18T15:08:55Z</time>
      </trkpt>
      <trkpt lat="43.40195" lon="6.08116">
        <ele>233.39999389648</ele>
        <time>2016-05-18T15:08:57Z</time>
      </trkpt>
      <trkpt lat="43.40195" lon="6.08116">
        <ele>233.39999389648</ele>
        <time>2016-05-18T15:08:59Z</time>
      </trkpt>
      <trkpt lat="43.40195" lon="6.08116">
        <ele>233.19999694824</ele>
        <time>2016-05-18T15:09:01Z</time>
      </trkpt>
      <trkpt lat="43.40195" lon="6.08115">
        <ele>233.19999694824</ele>
        <time>2016-05-18T15:09:03Z</time>
      </trkpt>
      <trkpt lat="43.40195" lon="6.08115">
        <ele>233.19999694824</ele>
        <time>2016-05-18T15:09:05Z</time>
      </trkpt>
      <trkpt lat="43.40195" lon="6.08115">
        <ele>233.39999389648</ele>
        <time>2016-05-18T15:09:06Z</time>
      </trkpt>
      <trkpt lat="43.40195" lon="6.08115">
        <ele>233.39999389648</ele>
        <time>2016-05-18T15:09:07Z</time>
      </trkpt>
      <trkpt lat="43.40195" lon="6.08115">
        <ele>233.60000610352</ele>
        <time>2016-05-18T15:09:09Z</time>
      </trkpt>
      <trkpt lat="43.40195" lon="6.08115">
        <ele>233.80000305176</ele>
        <time>2016-05-18T15:09:11Z</time>
      </trkpt>
      <trkpt lat="43.40195" lon="6.08115">
        <ele>234</ele>
        <time>2016-05-18T15:09:13Z</time>
      </trkpt>
      <trkpt lat="43.40195" lon="6.08115">
        <ele>234.19999694824</ele>
        <time>2016-05-18T15:09:15Z</time>
      </trkpt>
      <trkpt lat="43.40195" lon="6.08115">
        <ele>234.60000610352</ele>
        <time>2016-05-18T15:09:17Z</time>
      </trkpt>
      <trkpt lat="43.40195" lon="6.08115">
        <ele>234.60000610352</ele>
        <time>2016-05-18T15:09:19Z</time>
      </trkpt>
      <trkpt lat="43.40195" lon="6.08115">
        <ele>234.39999389648</ele>
        <time>2016-05-18T15:09:21Z</time>
      </trkpt>
      <trkpt lat="43.40194" lon="6.08114">
        <ele>234.19999694824</ele>
        <time>2016-05-18T15:09:23Z</time>
      </trkpt>
      <trkpt lat="43.40194" lon="6.08114">
        <ele>234.19999694824</ele>
        <time>2016-05-18T15:09:25Z</time>
      </trkpt>
      <trkpt lat="43.40194" lon="6.08114">
        <ele>234.19999694824</ele>
        <time>2016-05-18T15:09:27Z</time>
      </trkpt>
      <trkpt lat="43.40194" lon="6.08114">
        <ele>234</ele>
        <time>2016-05-18T15:09:29Z</time>
      </trkpt>
      <trkpt lat="43.40194" lon="6.08112">
        <ele>234</ele>
        <time>2016-05-18T15:09:31Z</time>
      </trkpt>
      <trkpt lat="43.40193" lon="6.08109">
        <ele>233.80000305176</ele>
        <time>2016-05-18T15:09:33Z</time>
      </trkpt>
      <trkpt lat="43.40194" lon="6.08103">
        <ele>233.60000610352</ele>
        <time>2016-05-18T15:09:35Z</time>
      </trkpt>
      <trkpt lat="43.40194" lon="6.08098">
        <ele>233.39999389648</ele>
        <time>2016-05-18T15:09:36Z</time>
      </trkpt>
      <trkpt lat="43.40195" lon="6.08093">
        <ele>233.39999389648</ele>
        <time>2016-05-18T15:09:37Z</time>
      </trkpt>
      <trkpt lat="43.40197" lon="6.08083">
        <ele>233.19999694824</ele>
        <time>2016-05-18T15:09:39Z</time>
      </trkpt>
      <trkpt lat="43.40202" lon="6.08073">
        <ele>233</ele>
        <time>2016-05-18T15:09:41Z</time>
      </trkpt>
      <trkpt lat="43.40207" lon="6.08063">
        <ele>233</ele>
        <time>2016-05-18T15:09:43Z</time>
      </trkpt>
      <trkpt lat="43.40213" lon="6.08053">
        <ele>232.80000305176</ele>
        <time>2016-05-18T15:09:45Z</time>
      </trkpt>
      <trkpt lat="43.40217" lon="6.08049">
        <ele>232.60000610352</ele>
        <time>2016-05-18T15:09:46Z</time>
      </trkpt>
      <trkpt lat="43.4022" lon="6.08045">
        <ele>232.39999389648</ele>
        <time>2016-05-18T15:09:47Z</time>
      </trkpt>
      <trkpt lat="43.40224" lon="6.0804">
        <ele>232.39999389648</ele>
        <time>2016-05-18T15:09:48Z</time>
      </trkpt>
      <trkpt lat="43.40228" lon="6.08035">
        <ele>232.39999389648</ele>
        <time>2016-05-18T15:09:49Z</time>
      </trkpt>
      <trkpt lat="43.40236" lon="6.08025">
        <ele>231.60000610352</ele>
        <time>2016-05-18T15:09:51Z</time>
      </trkpt>
      <trkpt lat="43.40245" lon="6.08015">
        <ele>230.80000305176</ele>
        <time>2016-05-18T15:09:53Z</time>
      </trkpt>
      <trkpt lat="43.40255" lon="6.08002">
        <ele>230.39999389648</ele>
        <time>2016-05-18T15:09:55Z</time>
      </trkpt>
      <trkpt lat="43.40264" lon="6.07988">
        <ele>230.19999694824</ele>
        <time>2016-05-18T15:09:57Z</time>
      </trkpt>
      <trkpt lat="43.40269" lon="6.07981">
        <ele>230</ele>
        <time>2016-05-18T15:09:58Z</time>
      </trkpt>
      <trkpt lat="43.40273" lon="6.07972">
        <ele>229.80000305176</ele>
        <time>2016-05-18T15:09:59Z</time>
      </trkpt>
      <trkpt lat="43.40278" lon="6.07964">
        <ele>229.19999694824</ele>
        <time>2016-05-18T15:10:00Z</time>
      </trkpt>
      <trkpt lat="43.40282" lon="6.07955">
        <ele>229</ele>
        <time>2016-05-18T15:10:01Z</time>
      </trkpt>
      <trkpt lat="43.40288" lon="6.07936">
        <ele>228.60000610352</ele>
        <time>2016-05-18T15:10:03Z</time>
      </trkpt>
      <trkpt lat="43.40293" lon="6.07916">
        <ele>228</ele>
        <time>2016-05-18T15:10:05Z</time>
      </trkpt>
      <trkpt lat="43.40296" lon="6.07895">
        <ele>227.60000610352</ele>
        <time>2016-05-18T15:10:07Z</time>
      </trkpt>
      <trkpt lat="43.40297" lon="6.07884">
        <ele>227.39999389648</ele>
        <time>2016-05-18T15:10:08Z</time>
      </trkpt>
      <trkpt lat="43.40299" lon="6.07873">
        <ele>227</ele>
        <time>2016-05-18T15:10:09Z</time>
      </trkpt>
      <trkpt lat="43.403" lon="6.07862">
        <ele>226.80000305176</ele>
        <time>2016-05-18T15:10:10Z</time>
      </trkpt>
      <trkpt lat="43.40302" lon="6.07851">
        <ele>226.60000610352</ele>
        <time>2016-05-18T15:10:11Z</time>
      </trkpt>
      <trkpt lat="43.40304" lon="6.0783">
        <ele>226</ele>
        <time>2016-05-18T15:10:13Z</time>
      </trkpt>
      <trkpt lat="43.40306" lon="6.07808">
        <ele>226</ele>
        <time>2016-05-18T15:10:15Z</time>
      </trkpt>
      <trkpt lat="43.40309" lon="6.07786">
        <ele>225.80000305176</ele>
        <time>2016-05-18T15:10:17Z</time>
      </trkpt>
      <trkpt lat="43.40312" lon="6.07764">
        <ele>225.80000305176</ele>
        <time>2016-05-18T15:10:19Z</time>
      </trkpt>
      <trkpt lat="43.40315" lon="6.07741">
        <ele>225.39999389648</ele>
        <time>2016-05-18T15:10:21Z</time>
      </trkpt>
      <trkpt lat="43.40321" lon="6.0772">
        <ele>225.39999389648</ele>
        <time>2016-05-18T15:10:23Z</time>
      </trkpt>
      <trkpt lat="43.40325" lon="6.07709">
        <ele>225.39999389648</ele>
        <time>2016-05-18T15:10:24Z</time>
      </trkpt>
      <trkpt lat="43.4033" lon="6.077">
        <ele>225.39999389648</ele>
        <time>2016-05-18T15:10:25Z</time>
      </trkpt>
      <trkpt lat="43.40342" lon="6.07684">
        <ele>224.80000305176</ele>
        <time>2016-05-18T15:10:27Z</time>
      </trkpt>
      <trkpt lat="43.40348" lon="6.07677">
        <ele>224.60000610352</ele>
        <time>2016-05-18T15:10:28Z</time>
      </trkpt>
      <trkpt lat="43.40355" lon="6.0767">
        <ele>224.39999389648</ele>
        <time>2016-05-18T15:10:29Z</time>
      </trkpt>
      <trkpt lat="43.4036" lon="6.07663">
        <ele>224.19999694824</ele>
        <time>2016-05-18T15:10:30Z</time>
      </trkpt>
      <trkpt lat="43.40365" lon="6.07655">
        <ele>224.19999694824</ele>
        <time>2016-05-18T15:10:31Z</time>
      </trkpt>
      <trkpt lat="43.40371" lon="6.07636">
        <ele>224</ele>
        <time>2016-05-18T15:10:32Z</time>
      </trkpt>
      <trkpt lat="43.40371" lon="6.07636">
        <ele>224</ele>
        <time>2016-05-18T15:10:33Z</time>
      </trkpt>
      <trkpt lat="43.40374" lon="6.07617">
        <ele>224.19999694824</ele>
        <time>2016-05-18T15:10:35Z</time>
      </trkpt>
      <trkpt lat="43.40375" lon="6.07599">
        <ele>224.19999694824</ele>
        <time>2016-05-18T15:10:37Z</time>
      </trkpt>
      <trkpt lat="43.40375" lon="6.07581">
        <ele>224</ele>
        <time>2016-05-18T15:10:38Z</time>
      </trkpt>
      <trkpt lat="43.40375" lon="6.07581">
        <ele>224.39999389648</ele>
        <time>2016-05-18T15:10:39Z</time>
      </trkpt>
      <trkpt lat="43.40376" lon="6.07564">
        <ele>224.60000610352</ele>
        <time>2016-05-18T15:10:41Z</time>
      </trkpt>
      <trkpt lat="43.40376" lon="6.07548">
        <ele>225</ele>
        <time>2016-05-18T15:10:43Z</time>
      </trkpt>
      <trkpt lat="43.40376" lon="6.07533">
        <ele>225</ele>
        <time>2016-05-18T15:10:45Z</time>
      </trkpt>
      <trkpt lat="43.40376" lon="6.07526">
        <ele>225</ele>
        <time>2016-05-18T15:10:46Z</time>
      </trkpt>
      <trkpt lat="43.40377" lon="6.0752">
        <ele>225</ele>
        <time>2016-05-18T15:10:47Z</time>
      </trkpt>
      <trkpt lat="43.40378" lon="6.07508">
        <ele>225.39999389648</ele>
        <time>2016-05-18T15:10:49Z</time>
      </trkpt>
      <trkpt lat="43.4038" lon="6.07496">
        <ele>225.39999389648</ele>
        <time>2016-05-18T15:10:51Z</time>
      </trkpt>
      <trkpt lat="43.40382" lon="6.0749">
        <ele>225.39999389648</ele>
        <time>2016-05-18T15:10:52Z</time>
      </trkpt>
      <trkpt lat="43.40383" lon="6.07484">
        <ele>225.60000610352</ele>
        <time>2016-05-18T15:10:53Z</time>
      </trkpt>
      <trkpt lat="43.40385" lon="6.07474">
        <ele>225.39999389648</ele>
        <time>2016-05-18T15:10:55Z</time>
      </trkpt>
      <trkpt lat="43.40386" lon="6.07463">
        <ele>225.19999694824</ele>
        <time>2016-05-18T15:10:57Z</time>
      </trkpt>
      <trkpt lat="43.40387" lon="6.07453">
        <ele>225.19999694824</ele>
        <time>2016-05-18T15:10:59Z</time>
      </trkpt>
      <trkpt lat="43.40388" lon="6.07448">
        <ele>225.19999694824</ele>
        <time>2016-05-18T15:11:00Z</time>
      </trkpt>
      <trkpt lat="43.40389" lon="6.07442">
        <ele>225.19999694824</ele>
        <time>2016-05-18T15:11:01Z</time>
      </trkpt>
      <trkpt lat="43.4039" lon="6.0743">
        <ele>225</ele>
        <time>2016-05-18T15:11:03Z</time>
      </trkpt>
      <trkpt lat="43.40391" lon="6.07417">
        <ele>224.80000305176</ele>
        <time>2016-05-18T15:11:05Z</time>
      </trkpt>
      <trkpt lat="43.40392" lon="6.07404">
        <ele>224.60000610352</ele>
        <time>2016-05-18T15:11:07Z</time>
      </trkpt>
      <trkpt lat="43.40393" lon="6.07391">
        <ele>224.39999389648</ele>
        <time>2016-05-18T15:11:08Z</time>
      </trkpt>
      <trkpt lat="43.40393" lon="6.07391">
        <ele>224.39999389648</ele>
        <time>2016-05-18T15:11:09Z</time>
      </trkpt>
      <trkpt lat="43.40392" lon="6.07377">
        <ele>224.39999389648</ele>
        <time>2016-05-18T15:11:10Z</time>
      </trkpt>
      <trkpt lat="43.40392" lon="6.07377">
        <ele>224.19999694824</ele>
        <time>2016-05-18T15:11:11Z</time>
      </trkpt>
      <trkpt lat="43.4039" lon="6.07365">
        <ele>224.19999694824</ele>
        <time>2016-05-18T15:11:12Z</time>
      </trkpt>
      <trkpt lat="43.4039" lon="6.07365">
        <ele>224.19999694824</ele>
        <time>2016-05-18T15:11:13Z</time>
      </trkpt>
      <trkpt lat="43.40389" lon="6.07353">
        <ele>224.19999694824</ele>
        <time>2016-05-18T15:11:15Z</time>
      </trkpt>
      <trkpt lat="43.40387" lon="6.07343">
        <ele>224.19999694824</ele>
        <time>2016-05-18T15:11:17Z</time>
      </trkpt>
      <trkpt lat="43.40386" lon="6.07332">
        <ele>224.19999694824</ele>
        <time>2016-05-18T15:11:19Z</time>
      </trkpt>
      <trkpt lat="43.40385" lon="6.07321">
        <ele>224</ele>
        <time>2016-05-18T15:11:21Z</time>
      </trkpt>
      <trkpt lat="43.40384" lon="6.07315">
        <ele>223.80000305176</ele>
        <time>2016-05-18T15:11:22Z</time>
      </trkpt>
      <trkpt lat="43.40384" lon="6.0731">
        <ele>223.60000610352</ele>
        <time>2016-05-18T15:11:23Z</time>
      </trkpt>
      <trkpt lat="43.40383" lon="6.07306">
        <ele>223.60000610352</ele>
        <time>2016-05-18T15:11:24Z</time>
      </trkpt>
      <trkpt lat="43.40383" lon="6.07303">
        <ele>223.39999389648</ele>
        <time>2016-05-18T15:11:25Z</time>
      </trkpt>
      <trkpt lat="43.40384" lon="6.07301">
        <ele>223.19999694824</ele>
        <time>2016-05-18T15:11:26Z</time>
      </trkpt>
      <trkpt lat="43.40384" lon="6.07299">
        <ele>223</ele>
        <time>2016-05-18T15:11:27Z</time>
      </trkpt>
      <trkpt lat="43.40385" lon="6.07297">
        <ele>222.80000305176</ele>
        <time>2016-05-18T15:11:29Z</time>
      </trkpt>
      <trkpt lat="43.40387" lon="6.07292">
        <ele>222.60000610352</ele>
        <time>2016-05-18T15:11:31Z</time>
      </trkpt>
      <trkpt lat="43.40389" lon="6.0729">
        <ele>222.60000610352</ele>
        <time>2016-05-18T15:11:32Z</time>
      </trkpt>
      <trkpt lat="43.40392" lon="6.07287">
        <ele>222.19999694824</ele>
        <time>2016-05-18T15:11:33Z</time>
      </trkpt>
      <trkpt lat="43.40398" lon="6.07282">
        <ele>221.19999694824</ele>
        <time>2016-05-18T15:11:35Z</time>
      </trkpt>
      <trkpt lat="43.40403" lon="6.07282">
        <ele>220.80000305176</ele>
        <time>2016-05-18T15:11:36Z</time>
      </trkpt>
      <trkpt lat="43.40408" lon="6.07283">
        <ele>220.39999389648</ele>
        <time>2016-05-18T15:11:37Z</time>
      </trkpt>
      <trkpt lat="43.40413" lon="6.07283">
        <ele>220.19999694824</ele>
        <time>2016-05-18T15:11:38Z</time>
      </trkpt>
      <trkpt lat="43.40419" lon="6.07283">
        <ele>220</ele>
        <time>2016-05-18T15:11:39Z</time>
      </trkpt>
      <trkpt lat="43.40425" lon="6.07283">
        <ele>220</ele>
        <time>2016-05-18T15:11:40Z</time>
      </trkpt>
      <trkpt lat="43.40432" lon="6.07283">
        <ele>219.80000305176</ele>
        <time>2016-05-18T15:11:41Z</time>
      </trkpt>
      <trkpt lat="43.40445" lon="6.07282">
        <ele>219</ele>
        <time>2016-05-18T15:11:43Z</time>
      </trkpt>
      <trkpt lat="43.40459" lon="6.07281">
        <ele>218.60000610352</ele>
        <time>2016-05-18T15:11:45Z</time>
      </trkpt>
      <trkpt lat="43.40467" lon="6.0728">
        <ele>218.39999389648</ele>
        <time>2016-05-18T15:11:46Z</time>
      </trkpt>
      <trkpt lat="43.40474" lon="6.07279">
        <ele>218.19999694824</ele>
        <time>2016-05-18T15:11:47Z</time>
      </trkpt>
      <trkpt lat="43.40488" lon="6.07278">
        <ele>217.80000305176</ele>
        <time>2016-05-18T15:11:49Z</time>
      </trkpt>
      <trkpt lat="43.405" lon="6.0728">
        <ele>217.19999694824</ele>
        <time>2016-05-18T15:11:51Z</time>
      </trkpt>
      <trkpt lat="43.40506" lon="6.07283">
        <ele>216.80000305176</ele>
        <time>2016-05-18T15:11:53Z</time>
      </trkpt>
      <trkpt lat="43.40508" lon="6.07286">
        <ele>216.60000610352</ele>
        <time>2016-05-18T15:11:54Z</time>
      </trkpt>
      <trkpt lat="43.4051" lon="6.07289">
        <ele>216.60000610352</ele>
        <time>2016-05-18T15:11:55Z</time>
      </trkpt>
      <trkpt lat="43.40513" lon="6.07296">
        <ele>216.19999694824</ele>
        <time>2016-05-18T15:11:57Z</time>
      </trkpt>
      <trkpt lat="43.40518" lon="6.07301">
        <ele>216.19999694824</ele>
        <time>2016-05-18T15:11:59Z</time>
      </trkpt>
      <trkpt lat="43.40521" lon="6.07303">
        <ele>216.39999389648</ele>
        <time>2016-05-18T15:12:00Z</time>
      </trkpt>
      <trkpt lat="43.40524" lon="6.07302">
        <ele>216.39999389648</ele>
        <time>2016-05-18T15:12:01Z</time>
      </trkpt>
      <trkpt lat="43.40532" lon="6.073">
        <ele>216.39999389648</ele>
        <time>2016-05-18T15:12:03Z</time>
      </trkpt>
      <trkpt lat="43.40535" lon="6.07299">
        <ele>216.19999694824</ele>
        <time>2016-05-18T15:12:04Z</time>
      </trkpt>
      <trkpt lat="43.40539" lon="6.07299">
        <ele>216.19999694824</ele>
        <time>2016-05-18T15:12:05Z</time>
      </trkpt>
      <trkpt lat="43.40543" lon="6.07299">
        <ele>216.19999694824</ele>
        <time>2016-05-18T15:12:06Z</time>
      </trkpt>
      <trkpt lat="43.40546" lon="6.073">
        <ele>216</ele>
        <time>2016-05-18T15:12:07Z</time>
      </trkpt>
      <trkpt lat="43.40553" lon="6.07302">
        <ele>216</ele>
        <time>2016-05-18T15:12:09Z</time>
      </trkpt>
      <trkpt lat="43.40561" lon="6.07304">
        <ele>216</ele>
        <time>2016-05-18T15:12:11Z</time>
      </trkpt>
      <trkpt lat="43.40569" lon="6.07304">
        <ele>216</ele>
        <time>2016-05-18T15:12:13Z</time>
      </trkpt>
      <trkpt lat="43.40577" lon="6.07305">
        <ele>215.80000305176</ele>
        <time>2016-05-18T15:12:15Z</time>
      </trkpt>
      <trkpt lat="43.40582" lon="6.07304">
        <ele>215.60000610352</ele>
        <time>2016-05-18T15:12:16Z</time>
      </trkpt>
      <trkpt lat="43.40586" lon="6.07302">
        <ele>215.39999389648</ele>
        <time>2016-05-18T15:12:17Z</time>
      </trkpt>
      <trkpt lat="43.40594" lon="6.07298">
        <ele>215</ele>
        <time>2016-05-18T15:12:19Z</time>
      </trkpt>
      <trkpt lat="43.40598" lon="6.07299">
        <ele>215</ele>
        <time>2016-05-18T15:12:20Z</time>
      </trkpt>
      <trkpt lat="43.40602" lon="6.07303">
        <ele>214.80000305176</ele>
        <time>2016-05-18T15:12:21Z</time>
      </trkpt>
      <trkpt lat="43.40606" lon="6.07307">
        <ele>214.80000305176</ele>
        <time>2016-05-18T15:12:22Z</time>
      </trkpt>
      <trkpt lat="43.4061" lon="6.07312">
        <ele>214.80000305176</ele>
        <time>2016-05-18T15:12:23Z</time>
      </trkpt>
      <trkpt lat="43.40614" lon="6.07316">
        <ele>214.60000610352</ele>
        <time>2016-05-18T15:12:24Z</time>
      </trkpt>
      <trkpt lat="43.40617" lon="6.07321">
        <ele>214.60000610352</ele>
        <time>2016-05-18T15:12:25Z</time>
      </trkpt>
      <trkpt lat="43.40622" lon="6.07332">
        <ele>214.19999694824</ele>
        <time>2016-05-18T15:12:27Z</time>
      </trkpt>
      <trkpt lat="43.40625" lon="6.07337">
        <ele>214.19999694824</ele>
        <time>2016-05-18T15:12:28Z</time>
      </trkpt>
      <trkpt lat="43.40628" lon="6.0734">
        <ele>214</ele>
        <time>2016-05-18T15:12:29Z</time>
      </trkpt>
      <trkpt lat="43.40636" lon="6.07337">
        <ele>213.80000305176</ele>
        <time>2016-05-18T15:12:31Z</time>
      </trkpt>
      <trkpt lat="43.40643" lon="6.07327">
        <ele>213.60000610352</ele>
        <time>2016-05-18T15:12:33Z</time>
      </trkpt>
      <trkpt lat="43.40652" lon="6.07318">
        <ele>213.39999389648</ele>
        <time>2016-05-18T15:12:35Z</time>
      </trkpt>
      <trkpt lat="43.40658" lon="6.07315">
        <ele>213</ele>
        <time>2016-05-18T15:12:36Z</time>
      </trkpt>
      <trkpt lat="43.40664" lon="6.07312">
        <ele>212.80000305176</ele>
        <time>2016-05-18T15:12:37Z</time>
      </trkpt>
      <trkpt lat="43.40675" lon="6.07305">
        <ele>212.39999389648</ele>
        <time>2016-05-18T15:12:39Z</time>
      </trkpt>
      <trkpt lat="43.40687" lon="6.07298">
        <ele>212</ele>
        <time>2016-05-18T15:12:41Z</time>
      </trkpt>
      <trkpt lat="43.40693" lon="6.07295">
        <ele>211.80000305176</ele>
        <time>2016-05-18T15:12:42Z</time>
      </trkpt>
      <trkpt lat="43.407" lon="6.07291">
        <ele>211.60000610352</ele>
        <time>2016-05-18T15:12:43Z</time>
      </trkpt>
      <trkpt lat="43.40712" lon="6.07284">
        <ele>211.19999694824</ele>
        <time>2016-05-18T15:12:45Z</time>
      </trkpt>
      <trkpt lat="43.40725" lon="6.07276">
        <ele>211</ele>
        <time>2016-05-18T15:12:47Z</time>
      </trkpt>
      <trkpt lat="43.40738" lon="6.07269">
        <ele>210.80000305176</ele>
        <time>2016-05-18T15:12:49Z</time>
      </trkpt>
      <trkpt lat="43.4075" lon="6.07262">
        <ele>210.60000610352</ele>
        <time>2016-05-18T15:12:51Z</time>
      </trkpt>
      <trkpt lat="43.40761" lon="6.07256">
        <ele>210</ele>
        <time>2016-05-18T15:12:53Z</time>
      </trkpt>
      <trkpt lat="43.40771" lon="6.0725">
        <ele>210</ele>
        <time>2016-05-18T15:12:55Z</time>
      </trkpt>
      <trkpt lat="43.40776" lon="6.07247">
        <ele>210</ele>
        <time>2016-05-18T15:12:56Z</time>
      </trkpt>
      <trkpt lat="43.40781" lon="6.07243">
        <ele>210</ele>
        <time>2016-05-18T15:12:57Z</time>
      </trkpt>
      <trkpt lat="43.40791" lon="6.07234">
        <ele>210</ele>
        <time>2016-05-18T15:12:59Z</time>
      </trkpt>
      <trkpt lat="43.40801" lon="6.07225">
        <ele>210</ele>
        <time>2016-05-18T15:13:01Z</time>
      </trkpt>
      <trkpt lat="43.4081" lon="6.07214">
        <ele>209.80000305176</ele>
        <time>2016-05-18T15:13:03Z</time>
      </trkpt>
      <trkpt lat="43.40814" lon="6.07208">
        <ele>209.80000305176</ele>
        <time>2016-05-18T15:13:04Z</time>
      </trkpt>
      <trkpt lat="43.40818" lon="6.07202">
        <ele>209.80000305176</ele>
        <time>2016-05-18T15:13:05Z</time>
      </trkpt>
      <trkpt lat="43.40825" lon="6.07189">
        <ele>209.60000610352</ele>
        <time>2016-05-18T15:13:07Z</time>
      </trkpt>
      <trkpt lat="43.40832" lon="6.07175">
        <ele>209.60000610352</ele>
        <time>2016-05-18T15:13:09Z</time>
      </trkpt>
      <trkpt lat="43.40838" lon="6.0716">
        <ele>209.39999389648</ele>
        <time>2016-05-18T15:13:11Z</time>
      </trkpt>
      <trkpt lat="43.40842" lon="6.07144">
        <ele>209.19999694824</ele>
        <time>2016-05-18T15:13:13Z</time>
      </trkpt>
      <trkpt lat="43.40846" lon="6.07129">
        <ele>209</ele>
        <time>2016-05-18T15:13:15Z</time>
      </trkpt>
      <trkpt lat="43.40849" lon="6.07113">
        <ele>209</ele>
        <time>2016-05-18T15:13:16Z</time>
      </trkpt>
      <trkpt lat="43.40849" lon="6.07113">
        <ele>209</ele>
        <time>2016-05-18T15:13:17Z</time>
      </trkpt>
      <trkpt lat="43.4085" lon="6.07096">
        <ele>209</ele>
        <time>2016-05-18T15:13:19Z</time>
      </trkpt>
      <trkpt lat="43.40851" lon="6.07079">
        <ele>209</ele>
        <time>2016-05-18T15:13:21Z</time>
      </trkpt>
      <trkpt lat="43.4085" lon="6.07063">
        <ele>209</ele>
        <time>2016-05-18T15:13:22Z</time>
      </trkpt>
      <trkpt lat="43.4085" lon="6.07063">
        <ele>209</ele>
        <time>2016-05-18T15:13:23Z</time>
      </trkpt>
      <trkpt lat="43.40849" lon="6.07048">
        <ele>209</ele>
        <time>2016-05-18T15:13:25Z</time>
      </trkpt>
      <trkpt lat="43.40847" lon="6.07032">
        <ele>209.19999694824</ele>
        <time>2016-05-18T15:13:27Z</time>
      </trkpt>
      <trkpt lat="43.40847" lon="6.07019">
        <ele>209.19999694824</ele>
        <time>2016-05-18T15:13:29Z</time>
      </trkpt>
      <trkpt lat="43.40854" lon="6.0701">
        <ele>209.19999694824</ele>
        <time>2016-05-18T15:13:31Z</time>
      </trkpt>
      <trkpt lat="43.40864" lon="6.07007">
        <ele>208.80000305176</ele>
        <time>2016-05-18T15:13:33Z</time>
      </trkpt>
      <trkpt lat="43.40868" lon="6.07006">
        <ele>208.80000305176</ele>
        <time>2016-05-18T15:13:34Z</time>
      </trkpt>
      <trkpt lat="43.40873" lon="6.07005">
        <ele>208.80000305176</ele>
        <time>2016-05-18T15:13:35Z</time>
      </trkpt>
      <trkpt lat="43.40882" lon="6.07002">
        <ele>208.80000305176</ele>
        <time>2016-05-18T15:13:37Z</time>
      </trkpt>
      <trkpt lat="43.40892" lon="6.06999">
        <ele>208.80000305176</ele>
        <time>2016-05-18T15:13:39Z</time>
      </trkpt>
      <trkpt lat="43.40897" lon="6.06997">
        <ele>208.80000305176</ele>
        <time>2016-05-18T15:13:40Z</time>
      </trkpt>
      <trkpt lat="43.40901" lon="6.06994">
        <ele>208.80000305176</ele>
        <time>2016-05-18T15:13:41Z</time>
      </trkpt>
      <trkpt lat="43.40905" lon="6.0699">
        <ele>208.80000305176</ele>
        <time>2016-05-18T15:13:42Z</time>
      </trkpt>
      <trkpt lat="43.40907" lon="6.06984">
        <ele>208.80000305176</ele>
        <time>2016-05-18T15:13:43Z</time>
      </trkpt>
      <trkpt lat="43.4091" lon="6.06971">
        <ele>208.80000305176</ele>
        <time>2016-05-18T15:13:45Z</time>
      </trkpt>
      <trkpt lat="43.40912" lon="6.06964">
        <ele>208.80000305176</ele>
        <time>2016-05-18T15:13:46Z</time>
      </trkpt>
      <trkpt lat="43.40915" lon="6.06958">
        <ele>209</ele>
        <time>2016-05-18T15:13:47Z</time>
      </trkpt>
      <trkpt lat="43.40924" lon="6.06951">
        <ele>209</ele>
        <time>2016-05-18T15:13:49Z</time>
      </trkpt>
      <trkpt lat="43.40928" lon="6.0695">
        <ele>208.80000305176</ele>
        <time>2016-05-18T15:13:50Z</time>
      </trkpt>
      <trkpt lat="43.40933" lon="6.06949">
        <ele>208.80000305176</ele>
        <time>2016-05-18T15:13:51Z</time>
      </trkpt>
      <trkpt lat="43.40943" lon="6.06947">
        <ele>208.39999389648</ele>
        <time>2016-05-18T15:13:53Z</time>
      </trkpt>
      <trkpt lat="43.40953" lon="6.06945">
        <ele>208.39999389648</ele>
        <time>2016-05-18T15:13:55Z</time>
      </trkpt>
      <trkpt lat="43.40963" lon="6.06942">
        <ele>208.39999389648</ele>
        <time>2016-05-18T15:13:57Z</time>
      </trkpt>
      <trkpt lat="43.40973" lon="6.06938">
        <ele>208.39999389648</ele>
        <time>2016-05-18T15:13:59Z</time>
      </trkpt>
      <trkpt lat="43.40983" lon="6.06933">
        <ele>208.60000610352</ele>
        <time>2016-05-18T15:14:01Z</time>
      </trkpt>
      <trkpt lat="43.40993" lon="6.06929">
        <ele>208.80000305176</ele>
        <time>2016-05-18T15:14:03Z</time>
      </trkpt>
      <trkpt lat="43.41002" lon="6.06924">
        <ele>209</ele>
        <time>2016-05-18T15:14:05Z</time>
      </trkpt>
      <trkpt lat="43.41011" lon="6.06918">
        <ele>209.19999694824</ele>
        <time>2016-05-18T15:14:07Z</time>
      </trkpt>
      <trkpt lat="43.41017" lon="6.06911">
        <ele>209.19999694824</ele>
        <time>2016-05-18T15:14:08Z</time>
      </trkpt>
      <trkpt lat="43.41017" lon="6.06911">
        <ele>209.19999694824</ele>
        <time>2016-05-18T15:14:09Z</time>
      </trkpt>
      <trkpt lat="43.41019" lon="6.06902">
        <ele>209.19999694824</ele>
        <time>2016-05-18T15:14:10Z</time>
      </trkpt>
      <trkpt lat="43.41019" lon="6.06902">
        <ele>209.39999389648</ele>
        <time>2016-05-18T15:14:11Z</time>
      </trkpt>
      <trkpt lat="43.4102" lon="6.06898">
        <ele>209.39999389648</ele>
        <time>2016-05-18T15:14:12Z</time>
      </trkpt>
      <trkpt lat="43.41022" lon="6.06894">
        <ele>209.39999389648</ele>
        <time>2016-05-18T15:14:13Z</time>
      </trkpt>
      <trkpt lat="43.41028" lon="6.06889">
        <ele>209.39999389648</ele>
        <time>2016-05-18T15:14:15Z</time>
      </trkpt>
      <trkpt lat="43.41033" lon="6.06885">
        <ele>209.19999694824</ele>
        <time>2016-05-18T15:14:17Z</time>
      </trkpt>
      <trkpt lat="43.41038" lon="6.06883">
        <ele>209.39999389648</ele>
        <time>2016-05-18T15:14:19Z</time>
      </trkpt>
      <trkpt lat="43.41043" lon="6.0688">
        <ele>209.39999389648</ele>
        <time>2016-05-18T15:14:21Z</time>
      </trkpt>
      <trkpt lat="43.41048" lon="6.06878">
        <ele>209.80000305176</ele>
        <time>2016-05-18T15:14:23Z</time>
      </trkpt>
      <trkpt lat="43.41052" lon="6.06876">
        <ele>210.39999389648</ele>
        <time>2016-05-18T15:14:25Z</time>
      </trkpt>
      <trkpt lat="43.41057" lon="6.06874">
        <ele>210.60000610352</ele>
        <time>2016-05-18T15:14:27Z</time>
      </trkpt>
      <trkpt lat="43.41062" lon="6.06872">
        <ele>210.60000610352</ele>
        <time>2016-05-18T15:14:29Z</time>
      </trkpt>
      <trkpt lat="43.41065" lon="6.06869">
        <ele>210.39999389648</ele>
        <time>2016-05-18T15:14:30Z</time>
      </trkpt>
      <trkpt lat="43.41065" lon="6.06869">
        <ele>210.39999389648</ele>
        <time>2016-05-18T15:14:31Z</time>
      </trkpt>
      <trkpt lat="43.41066" lon="6.06862">
        <ele>210.19999694824</ele>
        <time>2016-05-18T15:14:32Z</time>
      </trkpt>
      <trkpt lat="43.41066" lon="6.06862">
        <ele>210.19999694824</ele>
        <time>2016-05-18T15:14:33Z</time>
      </trkpt>
      <trkpt lat="43.41068" lon="6.0685">
        <ele>209.80000305176</ele>
        <time>2016-05-18T15:14:35Z</time>
      </trkpt>
      <trkpt lat="43.41069" lon="6.06844">
        <ele>209.39999389648</ele>
        <time>2016-05-18T15:14:36Z</time>
      </trkpt>
      <trkpt lat="43.4107" lon="6.06838">
        <ele>209.19999694824</ele>
        <time>2016-05-18T15:14:37Z</time>
      </trkpt>
      <trkpt lat="43.41072" lon="6.06827">
        <ele>209</ele>
        <time>2016-05-18T15:14:38Z</time>
      </trkpt>
      <trkpt lat="43.41072" lon="6.06827">
        <ele>209</ele>
        <time>2016-05-18T15:14:39Z</time>
      </trkpt>
      <trkpt lat="43.41075" lon="6.06817">
        <ele>209</ele>
        <time>2016-05-18T15:14:41Z</time>
      </trkpt>
      <trkpt lat="43.41076" lon="6.06808">
        <ele>209</ele>
        <time>2016-05-18T15:14:43Z</time>
      </trkpt>
      <trkpt lat="43.41077" lon="6.06801">
        <ele>209</ele>
        <time>2016-05-18T15:14:45Z</time>
      </trkpt>
      <trkpt lat="43.41079" lon="6.06795">
        <ele>209</ele>
        <time>2016-05-18T15:14:47Z</time>
      </trkpt>
      <trkpt lat="43.4108" lon="6.06789">
        <ele>208.80000305176</ele>
        <time>2016-05-18T15:14:49Z</time>
      </trkpt>
      <trkpt lat="43.41082" lon="6.06783">
        <ele>208.80000305176</ele>
        <time>2016-05-18T15:14:50Z</time>
      </trkpt>
      <trkpt lat="43.41082" lon="6.06783">
        <ele>208.60000610352</ele>
        <time>2016-05-18T15:14:51Z</time>
      </trkpt>
      <trkpt lat="43.41085" lon="6.06775">
        <ele>208.39999389648</ele>
        <time>2016-05-18T15:14:53Z</time>
      </trkpt>
      <trkpt lat="43.41087" lon="6.06767">
        <ele>208.19999694824</ele>
        <time>2016-05-18T15:14:55Z</time>
      </trkpt>
      <trkpt lat="43.41091" lon="6.06759">
        <ele>208.19999694824</ele>
        <time>2016-05-18T15:14:57Z</time>
      </trkpt>
      <trkpt lat="43.41096" lon="6.06753">
        <ele>208.39999389648</ele>
        <time>2016-05-18T15:14:59Z</time>
      </trkpt>
      <trkpt lat="43.41103" lon="6.06747">
        <ele>208.60000610352</ele>
        <time>2016-05-18T15:15:01Z</time>
      </trkpt>
      <trkpt lat="43.41107" lon="6.06744">
        <ele>208.60000610352</ele>
        <time>2016-05-18T15:15:02Z</time>
      </trkpt>
      <trkpt lat="43.4111" lon="6.0674">
        <ele>208.80000305176</ele>
        <time>2016-05-18T15:15:03Z</time>
      </trkpt>
      <trkpt lat="43.41118" lon="6.06733">
        <ele>209</ele>
        <time>2016-05-18T15:15:05Z</time>
      </trkpt>
      <trkpt lat="43.41127" lon="6.06728">
        <ele>209</ele>
        <time>2016-05-18T15:15:07Z</time>
      </trkpt>
      <trkpt lat="43.4113" lon="6.06726">
        <ele>209.19999694824</ele>
        <time>2016-05-18T15:15:08Z</time>
      </trkpt>
      <trkpt lat="43.41135" lon="6.06725">
        <ele>209.19999694824</ele>
        <time>2016-05-18T15:15:09Z</time>
      </trkpt>
      <trkpt lat="43.41139" lon="6.06723">
        <ele>209.39999389648</ele>
        <time>2016-05-18T15:15:10Z</time>
      </trkpt>
      <trkpt lat="43.41144" lon="6.06722">
        <ele>209.39999389648</ele>
        <time>2016-05-18T15:15:11Z</time>
      </trkpt>
      <trkpt lat="43.41154" lon="6.0672">
        <ele>209.39999389648</ele>
        <time>2016-05-18T15:15:12Z</time>
      </trkpt>
      <trkpt lat="43.41154" lon="6.0672">
        <ele>209.60000610352</ele>
        <time>2016-05-18T15:15:13Z</time>
      </trkpt>
      <trkpt lat="43.41159" lon="6.06719">
        <ele>209.60000610352</ele>
        <time>2016-05-18T15:15:14Z</time>
      </trkpt>
      <trkpt lat="43.41165" lon="6.0672">
        <ele>209.60000610352</ele>
        <time>2016-05-18T15:15:15Z</time>
      </trkpt>
      <trkpt lat="43.41175" lon="6.06721">
        <ele>209.80000305176</ele>
        <time>2016-05-18T15:15:17Z</time>
      </trkpt>
      <trkpt lat="43.4118" lon="6.06721">
        <ele>209.80000305176</ele>
        <time>2016-05-18T15:15:18Z</time>
      </trkpt>
      <trkpt lat="43.41185" lon="6.06722">
        <ele>210</ele>
        <time>2016-05-18T15:15:19Z</time>
      </trkpt>
      <trkpt lat="43.41195" lon="6.06721">
        <ele>210</ele>
        <time>2016-05-18T15:15:20Z</time>
      </trkpt>
      <trkpt lat="43.41195" lon="6.06721">
        <ele>210</ele>
        <time>2016-05-18T15:15:21Z</time>
      </trkpt>
      <trkpt lat="43.41203" lon="6.0672">
        <ele>210.39999389648</ele>
        <time>2016-05-18T15:15:23Z</time>
      </trkpt>
      <trkpt lat="43.41207" lon="6.06719">
        <ele>210.39999389648</ele>
        <time>2016-05-18T15:15:24Z</time>
      </trkpt>
      <trkpt lat="43.41211" lon="6.06718">
        <ele>210.39999389648</ele>
        <time>2016-05-18T15:15:25Z</time>
      </trkpt>
      <trkpt lat="43.41219" lon="6.06715">
        <ele>210.80000305176</ele>
        <time>2016-05-18T15:15:27Z</time>
      </trkpt>
      <trkpt lat="43.41226" lon="6.06713">
        <ele>211</ele>
        <time>2016-05-18T15:15:29Z</time>
      </trkpt>
      <trkpt lat="43.41232" lon="6.06712">
        <ele>211.39999389648</ele>
        <time>2016-05-18T15:15:31Z</time>
      </trkpt>
      <trkpt lat="43.41235" lon="6.06712">
        <ele>211.60000610352</ele>
        <time>2016-05-18T15:15:32Z</time>
      </trkpt>
      <trkpt lat="43.41237" lon="6.06712">
        <ele>211.60000610352</ele>
        <time>2016-05-18T15:15:33Z</time>
      </trkpt>
      <trkpt lat="43.4124" lon="6.06712">
        <ele>211.80000305176</ele>
        <time>2016-05-18T15:15:35Z</time>
      </trkpt>
      <trkpt lat="43.41243" lon="6.06712">
        <ele>212</ele>
        <time>2016-05-18T15:15:37Z</time>
      </trkpt>
      <trkpt lat="43.41245" lon="6.06712">
        <ele>212.19999694824</ele>
        <time>2016-05-18T15:15:39Z</time>
      </trkpt>
      <trkpt lat="43.41247" lon="6.06712">
        <ele>212.39999389648</ele>
        <time>2016-05-18T15:15:41Z</time>
      </trkpt>
      <trkpt lat="43.41248" lon="6.06712">
        <ele>212.80000305176</ele>
        <time>2016-05-18T15:15:43Z</time>
      </trkpt>
      <trkpt lat="43.41249" lon="6.06713">
        <ele>213</ele>
        <time>2016-05-18T15:15:44Z</time>
      </trkpt>
      <trkpt lat="43.41249" lon="6.06713">
        <ele>213</ele>
        <time>2016-05-18T15:15:45Z</time>
      </trkpt>
      <trkpt lat="43.41249" lon="6.06713">
        <ele>213</ele>
        <time>2016-05-18T15:15:47Z</time>
      </trkpt>
      <trkpt lat="43.41249" lon="6.06713">
        <ele>212.80000305176</ele>
        <time>2016-05-18T15:15:49Z</time>
      </trkpt>
      <trkpt lat="43.41249" lon="6.06713">
        <ele>212.60000610352</ele>
        <time>2016-05-18T15:15:51Z</time>
      </trkpt>
      <trkpt lat="43.41249" lon="6.06713">
        <ele>212.39999389648</ele>
        <time>2016-05-18T15:15:53Z</time>
      </trkpt>
      <trkpt lat="43.41249" lon="6.06713">
        <ele>212.39999389648</ele>
        <time>2016-05-18T15:15:55Z</time>
      </trkpt>
      <trkpt lat="43.41249" lon="6.06713">
        <ele>212.60000610352</ele>
        <time>2016-05-18T15:15:57Z</time>
      </trkpt>
      <trkpt lat="43.41249" lon="6.06712">
        <ele>212.60000610352</ele>
        <time>2016-05-18T15:15:59Z</time>
      </trkpt>
      <trkpt lat="43.41249" lon="6.06712">
        <ele>212.60000610352</ele>
        <time>2016-05-18T15:16:01Z</time>
      </trkpt>
      <trkpt lat="43.41249" lon="6.06712">
        <ele>212.60000610352</ele>
        <time>2016-05-18T15:16:02Z</time>
      </trkpt>
      <trkpt lat="43.41249" lon="6.06712">
        <ele>212.60000610352</ele>
        <time>2016-05-18T15:16:03Z</time>
      </trkpt>
      <trkpt lat="43.41249" lon="6.06712">
        <ele>212.39999389648</ele>
        <time>2016-05-18T15:16:05Z</time>
      </trkpt>
      <trkpt lat="43.41249" lon="6.06712">
        <ele>212.60000610352</ele>
        <time>2016-05-18T15:16:07Z</time>
      </trkpt>
      <trkpt lat="43.4125" lon="6.06712">
        <ele>212.60000610352</ele>
        <time>2016-05-18T15:16:09Z</time>
      </trkpt>
      <trkpt lat="43.41251" lon="6.06712">
        <ele>212.60000610352</ele>
        <time>2016-05-18T15:16:10Z</time>
      </trkpt>
      <trkpt lat="43.41251" lon="6.06713">
        <ele>212.60000610352</ele>
        <time>2016-05-18T15:16:11Z</time>
      </trkpt>
      <trkpt lat="43.41251" lon="6.06713">
        <ele>212.60000610352</ele>
        <time>2016-05-18T15:16:13Z</time>
      </trkpt>
      <trkpt lat="43.41252" lon="6.06713">
        <ele>212.39999389648</ele>
        <time>2016-05-18T15:16:15Z</time>
      </trkpt>
      <trkpt lat="43.41255" lon="6.06716">
        <ele>212.39999389648</ele>
        <time>2016-05-18T15:16:16Z</time>
      </trkpt>
      <trkpt lat="43.41255" lon="6.06716">
        <ele>212.39999389648</ele>
        <time>2016-05-18T15:16:17Z</time>
      </trkpt>
      <trkpt lat="43.41259" lon="6.06722">
        <ele>212.39999389648</ele>
        <time>2016-05-18T15:16:19Z</time>
      </trkpt>
      <trkpt lat="43.41264" lon="6.06729">
        <ele>212.60000610352</ele>
        <time>2016-05-18T15:16:21Z</time>
      </trkpt>
      <trkpt lat="43.41266" lon="6.06734">
        <ele>212.60000610352</ele>
        <time>2016-05-18T15:16:22Z</time>
      </trkpt>
      <trkpt lat="43.41268" lon="6.06739">
        <ele>212.80000305176</ele>
        <time>2016-05-18T15:16:23Z</time>
      </trkpt>
      <trkpt lat="43.41272" lon="6.06749">
        <ele>213</ele>
        <time>2016-05-18T15:16:25Z</time>
      </trkpt>
      <trkpt lat="43.41278" lon="6.06759">
        <ele>213.39999389648</ele>
        <time>2016-05-18T15:16:27Z</time>
      </trkpt>
      <trkpt lat="43.41284" lon="6.06769">
        <ele>213.60000610352</ele>
        <time>2016-05-18T15:16:28Z</time>
      </trkpt>
      <trkpt lat="43.41284" lon="6.06769">
        <ele>213.60000610352</ele>
        <time>2016-05-18T15:16:29Z</time>
      </trkpt>
      <trkpt lat="43.4129" lon="6.06777">
        <ele>214</ele>
        <time>2016-05-18T15:16:31Z</time>
      </trkpt>
      <trkpt lat="43.41296" lon="6.06785">
        <ele>214.19999694824</ele>
        <time>2016-05-18T15:16:33Z</time>
      </trkpt>
      <trkpt lat="43.41303" lon="6.06792">
        <ele>214.19999694824</ele>
        <time>2016-05-18T15:16:34Z</time>
      </trkpt>
      <trkpt lat="43.41303" lon="6.06792">
        <ele>214.19999694824</ele>
        <time>2016-05-18T15:16:35Z</time>
      </trkpt>
      <trkpt lat="43.41307" lon="6.06795">
        <ele>214.39999389648</ele>
        <time>2016-05-18T15:16:36Z</time>
      </trkpt>
      <trkpt lat="43.41311" lon="6.06798">
        <ele>214.39999389648</ele>
        <time>2016-05-18T15:16:37Z</time>
      </trkpt>
      <trkpt lat="43.41318" lon="6.06803">
        <ele>214.80000305176</ele>
        <time>2016-05-18T15:16:39Z</time>
      </trkpt>
      <trkpt lat="43.41326" lon="6.06808">
        <ele>215</ele>
        <time>2016-05-18T15:16:41Z</time>
      </trkpt>
      <trkpt lat="43.41333" lon="6.06813">
        <ele>215.19999694824</ele>
        <time>2016-05-18T15:16:43Z</time>
      </trkpt>
      <trkpt lat="43.41341" lon="6.06818">
        <ele>215.19999694824</ele>
        <time>2016-05-18T15:16:45Z</time>
      </trkpt>
      <trkpt lat="43.4135" lon="6.06822">
        <ele>215.39999389648</ele>
        <time>2016-05-18T15:16:47Z</time>
      </trkpt>
      <trkpt lat="43.41358" lon="6.06826">
        <ele>215.60000610352</ele>
        <time>2016-05-18T15:16:49Z</time>
      </trkpt>
      <trkpt lat="43.41366" lon="6.0683">
        <ele>215.60000610352</ele>
        <time>2016-05-18T15:16:50Z</time>
      </trkpt>
      <trkpt lat="43.41366" lon="6.0683">
        <ele>215.60000610352</ele>
        <time>2016-05-18T15:16:51Z</time>
      </trkpt>
      <trkpt lat="43.41375" lon="6.06834">
        <ele>215.60000610352</ele>
        <time>2016-05-18T15:16:53Z</time>
      </trkpt>
      <trkpt lat="43.41383" lon="6.06839">
        <ele>215.80000305176</ele>
        <time>2016-05-18T15:16:55Z</time>
      </trkpt>
      <trkpt lat="43.41387" lon="6.06842">
        <ele>215.80000305176</ele>
        <time>2016-05-18T15:16:56Z</time>
      </trkpt>
      <trkpt lat="43.41391" lon="6.06845">
        <ele>215.80000305176</ele>
        <time>2016-05-18T15:16:57Z</time>
      </trkpt>
      <trkpt lat="43.41394" lon="6.06847">
        <ele>215.80000305176</ele>
        <time>2016-05-18T15:16:58Z</time>
      </trkpt>
      <trkpt lat="43.41396" lon="6.06851">
        <ele>215.80000305176</ele>
        <time>2016-05-18T15:16:59Z</time>
      </trkpt>
      <trkpt lat="43.41401" lon="6.06856">
        <ele>215.80000305176</ele>
        <time>2016-05-18T15:17:01Z</time>
      </trkpt>
      <trkpt lat="43.41402" lon="6.06859">
        <ele>215.80000305176</ele>
        <time>2016-05-18T15:17:02Z</time>
      </trkpt>
      <trkpt lat="43.41402" lon="6.06859">
        <ele>215.80000305176</ele>
        <time>2016-05-18T15:17:03Z</time>
      </trkpt>
      <trkpt lat="43.41404" lon="6.0686">
        <ele>215.60000610352</ele>
        <time>2016-05-18T15:17:05Z</time>
      </trkpt>
      <trkpt lat="43.41406" lon="6.06863">
        <ele>215.39999389648</ele>
        <time>2016-05-18T15:17:07Z</time>
      </trkpt>
      <trkpt lat="43.41409" lon="6.06866">
        <ele>215.19999694824</ele>
        <time>2016-05-18T15:17:09Z</time>
      </trkpt>
      <trkpt lat="43.4141" lon="6.06868">
        <ele>215.19999694824</ele>
        <time>2016-05-18T15:17:10Z</time>
      </trkpt>
      <trkpt lat="43.41411" lon="6.0687">
        <ele>215.19999694824</ele>
        <time>2016-05-18T15:17:11Z</time>
      </trkpt>
      <trkpt lat="43.41413" lon="6.06873">
        <ele>215</ele>
        <time>2016-05-18T15:17:13Z</time>
      </trkpt>
      <trkpt lat="43.41415" lon="6.06877">
        <ele>215</ele>
        <time>2016-05-18T15:17:15Z</time>
      </trkpt>
      <trkpt lat="43.41416" lon="6.06878">
        <ele>215</ele>
        <time>2016-05-18T15:17:17Z</time>
      </trkpt>
      <trkpt lat="43.41416" lon="6.06878">
        <ele>215</ele>
        <time>2016-05-18T15:17:19Z</time>
      </trkpt>
      <trkpt lat="43.41416" lon="6.06878">
        <ele>215</ele>
        <time>2016-05-18T15:17:21Z</time>
      </trkpt>
      <trkpt lat="43.41416" lon="6.06879">
        <ele>215.19999694824</ele>
        <time>2016-05-18T15:17:23Z</time>
      </trkpt>
      <trkpt lat="43.41417" lon="6.0688">
        <ele>215.19999694824</ele>
        <time>2016-05-18T15:17:25Z</time>
      </trkpt>
      <trkpt lat="43.41417" lon="6.0688">
        <ele>215.19999694824</ele>
        <time>2016-05-18T15:17:26Z</time>
      </trkpt>
      <trkpt lat="43.41417" lon="6.0688">
        <ele>215.19999694824</ele>
        <time>2016-05-18T15:17:27Z</time>
      </trkpt>
      <trkpt lat="43.41417" lon="6.0688">
        <ele>215.19999694824</ele>
        <time>2016-05-18T15:17:29Z</time>
      </trkpt>
      <trkpt lat="43.41417" lon="6.0688">
        <ele>215.19999694824</ele>
        <time>2016-05-18T15:17:31Z</time>
      </trkpt>
      <trkpt lat="43.41417" lon="6.06881">
        <ele>215.19999694824</ele>
        <time>2016-05-18T15:17:33Z</time>
      </trkpt>
      <trkpt lat="43.41417" lon="6.06881">
        <ele>215.39999389648</ele>
        <time>2016-05-18T15:17:35Z</time>
      </trkpt>
      <trkpt lat="43.41417" lon="6.06881">
        <ele>215.39999389648</ele>
        <time>2016-05-18T15:17:36Z</time>
      </trkpt>
      <trkpt lat="43.41417" lon="6.06881">
        <ele>215.39999389648</ele>
        <time>2016-05-18T15:17:37Z</time>
      </trkpt>
      <trkpt lat="43.41417" lon="6.06881">
        <ele>215.19999694824</ele>
        <time>2016-05-18T15:17:39Z</time>
      </trkpt>
      <trkpt lat="43.41417" lon="6.06881">
        <ele>215.39999389648</ele>
        <time>2016-05-18T15:17:41Z</time>
      </trkpt>
      <trkpt lat="43.41417" lon="6.06881">
        <ele>215.19999694824</ele>
        <time>2016-05-18T15:17:43Z</time>
      </trkpt>
      <trkpt lat="43.41417" lon="6.06881">
        <ele>215.19999694824</ele>
        <time>2016-05-18T15:17:44Z</time>
      </trkpt>
      <trkpt lat="43.41417" lon="6.06881">
        <ele>215.39999389648</ele>
        <time>2016-05-18T15:17:45Z</time>
      </trkpt>
      <trkpt lat="43.41417" lon="6.06885">
        <ele>215.19999694824</ele>
        <time>2016-05-18T15:17:47Z</time>
      </trkpt>
      <trkpt lat="43.41418" lon="6.06889">
        <ele>215.19999694824</ele>
        <time>2016-05-18T15:17:48Z</time>
      </trkpt>
      <trkpt lat="43.41418" lon="6.06893">
        <ele>215.39999389648</ele>
        <time>2016-05-18T15:17:49Z</time>
      </trkpt>
      <trkpt lat="43.4142" lon="6.06898">
        <ele>215.39999389648</ele>
        <time>2016-05-18T15:17:50Z</time>
      </trkpt>
      <trkpt lat="43.41422" lon="6.06904">
        <ele>215.39999389648</ele>
        <time>2016-05-18T15:17:51Z</time>
      </trkpt>
      <trkpt lat="43.41424" lon="6.06909">
        <ele>215.19999694824</ele>
        <time>2016-05-18T15:17:52Z</time>
      </trkpt>
      <trkpt lat="43.41427" lon="6.06914">
        <ele>215.19999694824</ele>
        <time>2016-05-18T15:17:53Z</time>
      </trkpt>
      <trkpt lat="43.41436" lon="6.0692">
        <ele>215.19999694824</ele>
        <time>2016-05-18T15:17:55Z</time>
      </trkpt>
      <trkpt lat="43.41447" lon="6.06923">
        <ele>215.19999694824</ele>
        <time>2016-05-18T15:17:57Z</time>
      </trkpt>
      <trkpt lat="43.41454" lon="6.06923">
        <ele>215.19999694824</ele>
        <time>2016-05-18T15:17:58Z</time>
      </trkpt>
      <trkpt lat="43.41459" lon="6.06926">
        <ele>215.19999694824</ele>
        <time>2016-05-18T15:17:59Z</time>
      </trkpt>
      <trkpt lat="43.41469" lon="6.06934">
        <ele>214.80000305176</ele>
        <time>2016-05-18T15:18:01Z</time>
      </trkpt>
      <trkpt lat="43.41474" lon="6.06939">
        <ele>214.80000305176</ele>
        <time>2016-05-18T15:18:02Z</time>
      </trkpt>
      <trkpt lat="43.41479" lon="6.06942">
        <ele>214.60000610352</ele>
        <time>2016-05-18T15:18:03Z</time>
      </trkpt>
      <trkpt lat="43.41488" lon="6.06949">
        <ele>214.60000610352</ele>
        <time>2016-05-18T15:18:05Z</time>
      </trkpt>
      <trkpt lat="43.41494" lon="6.06958">
        <ele>214.60000610352</ele>
        <time>2016-05-18T15:18:07Z</time>
      </trkpt>
      <trkpt lat="43.415" lon="6.06963">
        <ele>214.80000305176</ele>
        <time>2016-05-18T15:18:09Z</time>
      </trkpt>
      <trkpt lat="43.41504" lon="6.06966">
        <ele>214.80000305176</ele>
        <time>2016-05-18T15:18:11Z</time>
      </trkpt>
      <trkpt lat="43.41509" lon="6.0697">
        <ele>214.80000305176</ele>
        <time>2016-05-18T15:18:13Z</time>
      </trkpt>
      <trkpt lat="43.41515" lon="6.06972">
        <ele>214.80000305176</ele>
        <time>2016-05-18T15:18:14Z</time>
      </trkpt>
      <trkpt lat="43.41515" lon="6.06972">
        <ele>215</ele>
        <time>2016-05-18T15:18:15Z</time>
      </trkpt>
      <trkpt lat="43.41522" lon="6.06972">
        <ele>214.60000610352</ele>
        <time>2016-05-18T15:18:17Z</time>
      </trkpt>
      <trkpt lat="43.41529" lon="6.06972">
        <ele>214.60000610352</ele>
        <time>2016-05-18T15:18:19Z</time>
      </trkpt>
      <trkpt lat="43.41533" lon="6.06971">
        <ele>214.60000610352</ele>
        <time>2016-05-18T15:18:20Z</time>
      </trkpt>
      <trkpt lat="43.41537" lon="6.06971">
        <ele>214.80000305176</ele>
        <time>2016-05-18T15:18:21Z</time>
      </trkpt>
      <trkpt lat="43.41543" lon="6.06972">
        <ele>215</ele>
        <time>2016-05-18T15:18:23Z</time>
      </trkpt>
      <trkpt lat="43.41549" lon="6.06973">
        <ele>215</ele>
        <time>2016-05-18T15:18:25Z</time>
      </trkpt>
      <trkpt lat="43.41555" lon="6.06972">
        <ele>214.80000305176</ele>
        <time>2016-05-18T15:18:27Z</time>
      </trkpt>
      <trkpt lat="43.41562" lon="6.06972">
        <ele>214.80000305176</ele>
        <time>2016-05-18T15:18:29Z</time>
      </trkpt>
      <trkpt lat="43.41568" lon="6.06973">
        <ele>215</ele>
        <time>2016-05-18T15:18:31Z</time>
      </trkpt>
      <trkpt lat="43.41572" lon="6.06979">
        <ele>215.19999694824</ele>
        <time>2016-05-18T15:18:32Z</time>
      </trkpt>
      <trkpt lat="43.41572" lon="6.06979">
        <ele>215.19999694824</ele>
        <time>2016-05-18T15:18:33Z</time>
      </trkpt>
      <trkpt lat="43.41573" lon="6.06983">
        <ele>215.19999694824</ele>
        <time>2016-05-18T15:18:34Z</time>
      </trkpt>
      <trkpt lat="43.41574" lon="6.06987">
        <ele>215.39999389648</ele>
        <time>2016-05-18T15:18:35Z</time>
      </trkpt>
      <trkpt lat="43.41574" lon="6.06996">
        <ele>215.39999389648</ele>
        <time>2016-05-18T15:18:37Z</time>
      </trkpt>
      <trkpt lat="43.41575" lon="6.07006">
        <ele>215.39999389648</ele>
        <time>2016-05-18T15:18:39Z</time>
      </trkpt>
      <trkpt lat="43.41576" lon="6.07014">
        <ele>215.39999389648</ele>
        <time>2016-05-18T15:18:41Z</time>
      </trkpt>
      <trkpt lat="43.41577" lon="6.07022">
        <ele>215.39999389648</ele>
        <time>2016-05-18T15:18:43Z</time>
      </trkpt>
      <trkpt lat="43.41578" lon="6.07027">
        <ele>215.39999389648</ele>
        <time>2016-05-18T15:18:45Z</time>
      </trkpt>
      <trkpt lat="43.41578" lon="6.07029">
        <ele>215.60000610352</ele>
        <time>2016-05-18T15:18:46Z</time>
      </trkpt>
      <trkpt lat="43.41578" lon="6.0703">
        <ele>215.60000610352</ele>
        <time>2016-05-18T15:18:47Z</time>
      </trkpt>
      <trkpt lat="43.41579" lon="6.0703">
        <ele>215.80000305176</ele>
        <time>2016-05-18T15:18:49Z</time>
      </trkpt>
      <trkpt lat="43.41579" lon="6.0703">
        <ele>216</ele>
        <time>2016-05-18T15:18:51Z</time>
      </trkpt>
      <trkpt lat="43.41579" lon="6.0703">
        <ele>216</ele>
        <time>2016-05-18T15:18:52Z</time>
      </trkpt>
      <trkpt lat="43.41579" lon="6.0703">
        <ele>216</ele>
        <time>2016-05-18T15:18:53Z</time>
      </trkpt>
      <trkpt lat="43.41579" lon="6.0703">
        <ele>216</ele>
        <time>2016-05-18T15:18:55Z</time>
      </trkpt>
      <trkpt lat="43.41579" lon="6.0703">
        <ele>215.80000305176</ele>
        <time>2016-05-18T15:18:57Z</time>
      </trkpt>
      <trkpt lat="43.41579" lon="6.0703">
        <ele>215.80000305176</ele>
        <time>2016-05-18T15:18:58Z</time>
      </trkpt>
    </trkseg>
  </trk>
</gpx>